<?xml version='1.0' encoding='UTF-8'?>
<gpx version="1.1" creator="https://www.komoot.de" xmlns="http://www.topografix.com/GPX/1/1" xmlns:xsi="http://www.w3.org/2001/XMLSchema-instance" xsi:schemaLocation="http://www.topografix.com/GPX/1/1 http://www.topografix.com/GPX/1/1/gpx.xsd">
  <metadata>
    <name>Day 8: L'Isle-sur-la-Sorgue to Marseille airport</name>
    <author>
      <link href="https://www.komoot.de">
        <text>komoot</text>
        <type>text/html</type>
      </link>
    </author>
  </metadata>
  <trk>
    <name>Day 8: L'Isle-sur-la-Sorgue to Marseille airport</name>
    <trkseg>
      <trkpt lat="43.917603" lon="5.055289">
        <ele>114.137358</ele>
        <time>2017-06-08T06:07:04.000Z</time>
      </trkpt>
      <trkpt lat="43.917637" lon="5.055170">
        <ele>114.137358</ele>
        <time>2017-06-08T06:09:22.000Z</time>
      </trkpt>
      <trkpt lat="43.917540" lon="5.055186">
        <ele>114.137358</ele>
        <time>2017-06-08T06:14:09.000Z</time>
      </trkpt>
      <trkpt lat="43.917534" lon="5.055322">
        <ele>114.137358</ele>
        <time>2017-06-08T06:14:14.000Z</time>
      </trkpt>
      <trkpt lat="43.917538" lon="5.055476">
        <ele>114.137358</ele>
        <time>2017-06-08T06:14:19.000Z</time>
      </trkpt>
      <trkpt lat="43.917550" lon="5.055607">
        <ele>114.137358</ele>
        <time>2017-06-08T06:14:24.000Z</time>
      </trkpt>
      <trkpt lat="43.917600" lon="5.055721">
        <ele>114.137358</ele>
        <time>2017-06-08T06:14:31.000Z</time>
      </trkpt>
      <trkpt lat="43.917683" lon="5.055777">
        <ele>114.137358</ele>
        <time>2017-06-08T06:14:39.000Z</time>
      </trkpt>
      <trkpt lat="43.917736" lon="5.055887">
        <ele>114.137358</ele>
        <time>2017-06-08T06:14:45.000Z</time>
      </trkpt>
      <trkpt lat="43.917835" lon="5.055865">
        <ele>114.137358</ele>
        <time>2017-06-08T06:14:52.000Z</time>
      </trkpt>
      <trkpt lat="43.917930" lon="5.055873">
        <ele>114.174367</ele>
        <time>2017-06-08T06:14:58.000Z</time>
      </trkpt>
      <trkpt lat="43.918022" lon="5.055876">
        <ele>114.220362</ele>
        <time>2017-06-08T06:15:03.000Z</time>
      </trkpt>
      <trkpt lat="43.918120" lon="5.055876">
        <ele>114.269344</ele>
        <time>2017-06-08T06:15:08.000Z</time>
      </trkpt>
      <trkpt lat="43.918262" lon="5.055897">
        <ele>114.340719</ele>
        <time>2017-06-08T06:16:23.000Z</time>
      </trkpt>
      <trkpt lat="43.918354" lon="5.055892">
        <ele>114.386737</ele>
        <time>2017-06-08T06:16:28.000Z</time>
      </trkpt>
      <trkpt lat="43.918457" lon="5.055890">
        <ele>114.438223</ele>
        <time>2017-06-08T06:16:33.000Z</time>
      </trkpt>
      <trkpt lat="43.918552" lon="5.055876">
        <ele>114.485973</ele>
        <time>2017-06-08T06:16:37.000Z</time>
      </trkpt>
      <trkpt lat="43.918655" lon="5.055888">
        <ele>114.537634</ele>
        <time>2017-06-08T06:16:40.000Z</time>
      </trkpt>
      <trkpt lat="43.918766" lon="5.055913">
        <ele>114.593839</ele>
        <time>2017-06-08T06:16:43.000Z</time>
      </trkpt>
      <trkpt lat="43.918884" lon="5.055897">
        <ele>114.653098</ele>
        <time>2017-06-08T06:16:47.000Z</time>
      </trkpt>
      <trkpt lat="43.918976" lon="5.055868">
        <ele>114.700251</ele>
        <time>2017-06-08T06:16:50.000Z</time>
      </trkpt>
      <trkpt lat="43.919070" lon="5.055835">
        <ele>114.748713</ele>
        <time>2017-06-08T06:16:53.000Z</time>
      </trkpt>
      <trkpt lat="43.919160" lon="5.055808">
        <ele>114.794734</ele>
        <time>2017-06-08T06:16:56.000Z</time>
      </trkpt>
      <trkpt lat="43.919250" lon="5.055805">
        <ele>114.839731</ele>
        <time>2017-06-08T06:16:59.000Z</time>
      </trkpt>
      <trkpt lat="43.919342" lon="5.055787">
        <ele>114.886168</ele>
        <time>2017-06-08T06:17:02.000Z</time>
      </trkpt>
      <trkpt lat="43.919450" lon="5.055763">
        <ele>114.940835</ele>
        <time>2017-06-08T06:17:06.000Z</time>
      </trkpt>
      <trkpt lat="43.919556" lon="5.055753">
        <ele>114.993938</ele>
        <time>2017-06-08T06:17:10.000Z</time>
      </trkpt>
      <trkpt lat="43.919650" lon="5.055764">
        <ele>115.027348</ele>
        <time>2017-06-08T06:17:13.000Z</time>
      </trkpt>
      <trkpt lat="43.919750" lon="5.055781">
        <ele>114.931798</ele>
        <time>2017-06-08T06:17:16.000Z</time>
      </trkpt>
      <trkpt lat="43.919853" lon="5.055798">
        <ele>114.833423</ele>
        <time>2017-06-08T06:17:19.000Z</time>
      </trkpt>
      <trkpt lat="43.919964" lon="5.055816">
        <ele>114.727433</ele>
        <time>2017-06-08T06:17:22.000Z</time>
      </trkpt>
      <trkpt lat="43.920082" lon="5.055840">
        <ele>114.614325</ele>
        <time>2017-06-08T06:17:25.000Z</time>
      </trkpt>
      <trkpt lat="43.920204" lon="5.055881">
        <ele>114.495276</ele>
        <time>2017-06-08T06:17:28.000Z</time>
      </trkpt>
      <trkpt lat="43.920310" lon="5.055951">
        <ele>114.383950</ele>
        <time>2017-06-08T06:17:31.000Z</time>
      </trkpt>
      <trkpt lat="43.920414" lon="5.056034">
        <ele>114.270178</ele>
        <time>2017-06-08T06:17:34.000Z</time>
      </trkpt>
      <trkpt lat="43.920513" lon="5.055969">
        <ele>114.166314</ele>
        <time>2017-06-08T06:17:37.000Z</time>
      </trkpt>
      <trkpt lat="43.920567" lon="5.055819">
        <ele>114.051756</ele>
        <time>2017-06-08T06:17:40.000Z</time>
      </trkpt>
      <trkpt lat="43.920643" lon="5.055725">
        <ele>113.955220</ele>
        <time>2017-06-08T06:17:43.000Z</time>
      </trkpt>
      <trkpt lat="43.920753" lon="5.055639">
        <ele>113.835489</ele>
        <time>2017-06-08T06:17:46.000Z</time>
      </trkpt>
      <trkpt lat="43.920856" lon="5.055557">
        <ele>113.722880</ele>
        <time>2017-06-08T06:17:49.000Z</time>
      </trkpt>
      <trkpt lat="43.920937" lon="5.055453">
        <ele>113.618241</ele>
        <time>2017-06-08T06:17:52.000Z</time>
      </trkpt>
      <trkpt lat="43.920994" lon="5.055327">
        <ele>113.516597</ele>
        <time>2017-06-08T06:17:55.000Z</time>
      </trkpt>
      <trkpt lat="43.921032" lon="5.055186">
        <ele>113.413753</ele>
        <time>2017-06-08T06:17:58.000Z</time>
      </trkpt>
      <trkpt lat="43.921062" lon="5.055065">
        <ele>113.326401</ele>
        <time>2017-06-08T06:18:01.000Z</time>
      </trkpt>
      <trkpt lat="43.921080" lon="5.054941">
        <ele>113.241411</ele>
        <time>2017-06-08T06:18:27.000Z</time>
      </trkpt>
      <trkpt lat="43.921130" lon="5.054764">
        <ele>113.113667</ele>
        <time>2017-06-08T06:18:45.000Z</time>
      </trkpt>
      <trkpt lat="43.921170" lon="5.054645">
        <ele>113.025434</ele>
        <time>2017-06-08T06:18:48.000Z</time>
      </trkpt>
      <trkpt lat="43.921200" lon="5.054516">
        <ele>112.934354</ele>
        <time>2017-06-08T06:18:51.000Z</time>
      </trkpt>
      <trkpt lat="43.921246" lon="5.054369">
        <ele>112.826667</ele>
        <time>2017-06-08T06:18:54.000Z</time>
      </trkpt>
      <trkpt lat="43.921288" lon="5.054191">
        <ele>112.700817</ele>
        <time>2017-06-08T06:18:57.000Z</time>
      </trkpt>
      <trkpt lat="43.921330" lon="5.054071">
        <ele>112.611175</ele>
        <time>2017-06-08T06:18:59.000Z</time>
      </trkpt>
      <trkpt lat="43.921394" lon="5.053917">
        <ele>112.491717</ele>
        <time>2017-06-08T06:19:02.000Z</time>
      </trkpt>
      <trkpt lat="43.921460" lon="5.053772">
        <ele>112.376470</ele>
        <time>2017-06-08T06:19:05.000Z</time>
      </trkpt>
      <trkpt lat="43.921520" lon="5.053641">
        <ele>112.272165</ele>
        <time>2017-06-08T06:19:08.000Z</time>
      </trkpt>
      <trkpt lat="43.921580" lon="5.053510">
        <ele>112.167860</ele>
        <time>2017-06-08T06:19:11.000Z</time>
      </trkpt>
      <trkpt lat="43.921640" lon="5.053354">
        <ele>112.049039</ele>
        <time>2017-06-08T06:19:14.000Z</time>
      </trkpt>
      <trkpt lat="43.921684" lon="5.053192">
        <ele>111.932712</ele>
        <time>2017-06-08T06:19:17.000Z</time>
      </trkpt>
      <trkpt lat="43.921734" lon="5.053029">
        <ele>111.813676</ele>
        <time>2017-06-08T06:19:20.000Z</time>
      </trkpt>
      <trkpt lat="43.921780" lon="5.052863">
        <ele>111.694174</ele>
        <time>2017-06-08T06:19:23.000Z</time>
      </trkpt>
      <trkpt lat="43.921806" lon="5.052703">
        <ele>111.639986</ele>
        <time>2017-06-08T06:19:26.000Z</time>
      </trkpt>
      <trkpt lat="43.921837" lon="5.052537">
        <ele>111.618676</ele>
        <time>2017-06-08T06:19:30.000Z</time>
      </trkpt>
      <trkpt lat="43.921760" lon="5.052425">
        <ele>111.599436</ele>
        <time>2017-06-08T06:19:35.000Z</time>
      </trkpt>
      <trkpt lat="43.921673" lon="5.052400">
        <ele>111.584108</ele>
        <time>2017-06-08T06:19:38.000Z</time>
      </trkpt>
      <trkpt lat="43.921566" lon="5.052382">
        <ele>111.565513</ele>
        <time>2017-06-08T06:19:41.000Z</time>
      </trkpt>
      <trkpt lat="43.921444" lon="5.052346">
        <ele>111.543995</ele>
        <time>2017-06-08T06:19:44.000Z</time>
      </trkpt>
      <trkpt lat="43.921320" lon="5.052304">
        <ele>111.521975</ele>
        <time>2017-06-08T06:19:47.000Z</time>
      </trkpt>
      <trkpt lat="43.921204" lon="5.052260">
        <ele>111.501229</ele>
        <time>2017-06-08T06:19:50.000Z</time>
      </trkpt>
      <trkpt lat="43.921100" lon="5.052197">
        <ele>111.481653</ele>
        <time>2017-06-08T06:19:54.000Z</time>
      </trkpt>
      <trkpt lat="43.921127" lon="5.052049">
        <ele>111.462680</ele>
        <time>2017-06-08T06:19:59.000Z</time>
      </trkpt>
      <trkpt lat="43.921204" lon="5.051932">
        <ele>111.442986</ele>
        <time>2017-06-08T06:20:03.000Z</time>
      </trkpt>
      <trkpt lat="43.921250" lon="5.051805">
        <ele>111.425321</ele>
        <time>2017-06-08T06:20:07.000Z</time>
      </trkpt>
      <trkpt lat="43.921290" lon="5.051657">
        <ele>111.405677</ele>
        <time>2017-06-08T06:20:11.000Z</time>
      </trkpt>
      <trkpt lat="43.921350" lon="5.051516">
        <ele>111.385326</ele>
        <time>2017-06-08T06:20:15.000Z</time>
      </trkpt>
      <trkpt lat="43.921383" lon="5.051364">
        <ele>111.365598</ele>
        <time>2017-06-08T06:20:19.000Z</time>
      </trkpt>
      <trkpt lat="43.921402" lon="5.051228">
        <ele>111.348383</ele>
        <time>2017-06-08T06:20:22.000Z</time>
      </trkpt>
      <trkpt lat="43.921436" lon="5.051076">
        <ele>111.318927</ele>
        <time>2017-06-08T06:20:25.000Z</time>
      </trkpt>
      <trkpt lat="43.921467" lon="5.050935">
        <ele>111.287746</ele>
        <time>2017-06-08T06:20:28.000Z</time>
      </trkpt>
      <trkpt lat="43.921513" lon="5.050807">
        <ele>111.257490</ele>
        <time>2017-06-08T06:20:33.000Z</time>
      </trkpt>
      <trkpt lat="43.921543" lon="5.050689">
        <ele>111.231023</ele>
        <time>2017-06-08T06:21:06.000Z</time>
      </trkpt>
      <trkpt lat="43.921463" lon="5.050767">
        <ele>111.202318</ele>
        <time>2017-06-08T06:22:03.000Z</time>
      </trkpt>
      <trkpt lat="43.921450" lon="5.050920">
        <ele>111.169733</ele>
        <time>2017-06-08T06:22:15.000Z</time>
      </trkpt>
      <trkpt lat="43.921430" lon="5.051049">
        <ele>111.141823</ele>
        <time>2017-06-08T06:22:19.000Z</time>
      </trkpt>
      <trkpt lat="43.921394" lon="5.051193">
        <ele>111.109584</ele>
        <time>2017-06-08T06:22:25.000Z</time>
      </trkpt>
      <trkpt lat="43.921368" lon="5.051333">
        <ele>111.079004</ele>
        <time>2017-06-08T06:22:29.000Z</time>
      </trkpt>
      <trkpt lat="43.921345" lon="5.051457">
        <ele>111.051922</ele>
        <time>2017-06-08T06:22:33.000Z</time>
      </trkpt>
      <trkpt lat="43.921318" lon="5.051585">
        <ele>111.023712</ele>
        <time>2017-06-08T06:22:38.000Z</time>
      </trkpt>
      <trkpt lat="43.921270" lon="5.051691">
        <ele>110.997229</ele>
        <time>2017-06-08T06:22:42.000Z</time>
      </trkpt>
      <trkpt lat="43.921223" lon="5.051817">
        <ele>110.967218</ele>
        <time>2017-06-08T06:22:46.000Z</time>
      </trkpt>
      <trkpt lat="43.921177" lon="5.051938">
        <ele>110.938279</ele>
        <time>2017-06-08T06:22:51.000Z</time>
      </trkpt>
      <trkpt lat="43.921234" lon="5.051840">
        <ele>110.911637</ele>
        <time>2017-06-08T06:23:02.000Z</time>
      </trkpt>
      <trkpt lat="43.921265" lon="5.051708">
        <ele>110.882272</ele>
        <time>2017-06-08T06:23:08.000Z</time>
      </trkpt>
      <trkpt lat="43.921307" lon="5.051591">
        <ele>110.854622</ele>
        <time>2017-06-08T06:23:12.000Z</time>
      </trkpt>
      <trkpt lat="43.921352" lon="5.051455">
        <ele>110.822967</ele>
        <time>2017-06-08T06:23:16.000Z</time>
      </trkpt>
      <trkpt lat="43.921370" lon="5.051333">
        <ele>110.838870</ele>
        <time>2017-06-08T06:23:19.000Z</time>
      </trkpt>
      <trkpt lat="43.921406" lon="5.051196">
        <ele>110.882036</ele>
        <time>2017-06-08T06:23:22.000Z</time>
      </trkpt>
      <trkpt lat="43.921436" lon="5.051052">
        <ele>110.926408</ele>
        <time>2017-06-08T06:23:25.000Z</time>
      </trkpt>
      <trkpt lat="43.921463" lon="5.050914">
        <ele>110.968736</ele>
        <time>2017-06-08T06:23:28.000Z</time>
      </trkpt>
      <trkpt lat="43.921497" lon="5.050777">
        <ele>111.011628</ele>
        <time>2017-06-08T06:23:31.000Z</time>
      </trkpt>
      <trkpt lat="43.921540" lon="5.050654">
        <ele>111.052098</ele>
        <time>2017-06-08T06:23:34.000Z</time>
      </trkpt>
      <trkpt lat="43.921585" lon="5.050532">
        <ele>111.092670</ele>
        <time>2017-06-08T06:23:37.000Z</time>
      </trkpt>
      <trkpt lat="43.921635" lon="5.050406">
        <ele>111.135251</ele>
        <time>2017-06-08T06:23:40.000Z</time>
      </trkpt>
      <trkpt lat="43.921665" lon="5.050276">
        <ele>111.175658</ele>
        <time>2017-06-08T06:23:43.000Z</time>
      </trkpt>
      <trkpt lat="43.921715" lon="5.050163">
        <ele>111.214913</ele>
        <time>2017-06-08T06:23:50.000Z</time>
      </trkpt>
      <trkpt lat="43.921783" lon="5.050074">
        <ele>111.253317</ele>
        <time>2017-06-08T06:23:56.000Z</time>
      </trkpt>
      <trkpt lat="43.921825" lon="5.049950">
        <ele>111.293877</ele>
        <time>2017-06-08T06:24:00.000Z</time>
      </trkpt>
      <trkpt lat="43.921856" lon="5.049825">
        <ele>111.333009</ele>
        <time>2017-06-08T06:24:04.000Z</time>
      </trkpt>
      <trkpt lat="43.921900" lon="5.049693">
        <ele>111.376062</ele>
        <time>2017-06-08T06:24:08.000Z</time>
      </trkpt>
      <trkpt lat="43.921936" lon="5.049570">
        <ele>111.415361</ele>
        <time>2017-06-08T06:24:12.000Z</time>
      </trkpt>
      <trkpt lat="43.921947" lon="5.049422">
        <ele>111.459401</ele>
        <time>2017-06-08T06:24:17.000Z</time>
      </trkpt>
      <trkpt lat="43.921930" lon="5.049282">
        <ele>111.501426</ele>
        <time>2017-06-08T06:24:21.000Z</time>
      </trkpt>
      <trkpt lat="43.921894" lon="5.049130">
        <ele>111.548788</ele>
        <time>2017-06-08T06:24:25.000Z</time>
      </trkpt>
      <trkpt lat="43.921867" lon="5.048988">
        <ele>111.516795</ele>
        <time>2017-06-08T06:24:29.000Z</time>
      </trkpt>
      <trkpt lat="43.921837" lon="5.048861">
        <ele>111.479569</ele>
        <time>2017-06-08T06:24:33.000Z</time>
      </trkpt>
      <trkpt lat="43.921806" lon="5.048731">
        <ele>111.441429</ele>
        <time>2017-06-08T06:24:37.000Z</time>
      </trkpt>
      <trkpt lat="43.921750" lon="5.048595">
        <ele>111.397797</ele>
        <time>2017-06-08T06:24:41.000Z</time>
      </trkpt>
      <trkpt lat="43.921677" lon="5.048513">
        <ele>111.361487</ele>
        <time>2017-06-08T06:24:45.000Z</time>
      </trkpt>
      <trkpt lat="43.921604" lon="5.048435">
        <ele>111.325867</ele>
        <time>2017-06-08T06:24:49.000Z</time>
      </trkpt>
      <trkpt lat="43.921500" lon="5.048474">
        <ele>111.284211</ele>
        <time>2017-06-08T06:24:56.000Z</time>
      </trkpt>
      <trkpt lat="43.921402" lon="5.048419">
        <ele>111.243337</ele>
        <time>2017-06-08T06:25:00.000Z</time>
      </trkpt>
      <trkpt lat="43.921295" lon="5.048367">
        <ele>111.199500</ele>
        <time>2017-06-08T06:25:04.000Z</time>
      </trkpt>
      <trkpt lat="43.921180" lon="5.048323">
        <ele>111.153374</ele>
        <time>2017-06-08T06:25:08.000Z</time>
      </trkpt>
      <trkpt lat="43.921074" lon="5.048278">
        <ele>111.110512</ele>
        <time>2017-06-08T06:25:12.000Z</time>
      </trkpt>
      <trkpt lat="43.920960" lon="5.048232">
        <ele>111.064606</ele>
        <time>2017-06-08T06:25:16.000Z</time>
      </trkpt>
      <trkpt lat="43.920868" lon="5.048206">
        <ele>111.028301</ele>
        <time>2017-06-08T06:25:19.000Z</time>
      </trkpt>
      <trkpt lat="43.920770" lon="5.048191">
        <ele>110.990177</ele>
        <time>2017-06-08T06:25:22.000Z</time>
      </trkpt>
      <trkpt lat="43.920654" lon="5.048144">
        <ele>110.943451</ele>
        <time>2017-06-08T06:25:26.000Z</time>
      </trkpt>
      <trkpt lat="43.920550" lon="5.048109">
        <ele>110.902071</ele>
        <time>2017-06-08T06:25:30.000Z</time>
      </trkpt>
      <trkpt lat="43.920450" lon="5.048092">
        <ele>110.863114</ele>
        <time>2017-06-08T06:25:34.000Z</time>
      </trkpt>
      <trkpt lat="43.920340" lon="5.048098">
        <ele>110.756888</ele>
        <time>2017-06-08T06:25:38.000Z</time>
      </trkpt>
      <trkpt lat="43.920246" lon="5.048091">
        <ele>110.658414</ele>
        <time>2017-06-08T06:25:41.000Z</time>
      </trkpt>
      <trkpt lat="43.920140" lon="5.048087">
        <ele>110.547488</ele>
        <time>2017-06-08T06:25:44.000Z</time>
      </trkpt>
      <trkpt lat="43.920025" lon="5.048075">
        <ele>110.426848</ele>
        <time>2017-06-08T06:25:47.000Z</time>
      </trkpt>
      <trkpt lat="43.919890" lon="5.048075">
        <ele>110.285626</ele>
        <time>2017-06-08T06:25:50.000Z</time>
      </trkpt>
      <trkpt lat="43.919804" lon="5.048075">
        <ele>110.195663</ele>
        <time>2017-06-08T06:25:52.000Z</time>
      </trkpt>
      <trkpt lat="43.919678" lon="5.048103">
        <ele>110.062178</ele>
        <time>2017-06-08T06:25:55.000Z</time>
      </trkpt>
      <trkpt lat="43.919548" lon="5.048141">
        <ele>109.923204</ele>
        <time>2017-06-08T06:25:58.000Z</time>
      </trkpt>
      <trkpt lat="43.919426" lon="5.048198">
        <ele>109.788548</ele>
        <time>2017-06-08T06:26:01.000Z</time>
      </trkpt>
      <trkpt lat="43.919327" lon="5.048312">
        <ele>109.653996</ele>
        <time>2017-06-08T06:26:04.000Z</time>
      </trkpt>
      <trkpt lat="43.919270" lon="5.048422">
        <ele>109.551890</ele>
        <time>2017-06-08T06:26:06.000Z</time>
      </trkpt>
      <trkpt lat="43.919212" lon="5.048563">
        <ele>109.429541</ele>
        <time>2017-06-08T06:26:09.000Z</time>
      </trkpt>
      <trkpt lat="43.919277" lon="5.048687">
        <ele>109.313982</ele>
        <time>2017-06-08T06:26:15.000Z</time>
      </trkpt>
      <trkpt lat="43.919334" lon="5.048784">
        <ele>109.219655</ele>
        <time>2017-06-08T06:26:19.000Z</time>
      </trkpt>
      <trkpt lat="43.919410" lon="5.048881">
        <ele>109.111659</ele>
        <time>2017-06-08T06:26:23.000Z</time>
      </trkpt>
      <trkpt lat="43.919495" lon="5.048978">
        <ele>108.996557</ele>
        <time>2017-06-08T06:26:28.000Z</time>
      </trkpt>
      <trkpt lat="43.919550" lon="5.049083">
        <ele>109.138502</ele>
        <time>2017-06-08T06:26:32.000Z</time>
      </trkpt>
      <trkpt lat="43.919620" lon="5.049208">
        <ele>109.387811</ele>
        <time>2017-06-08T06:26:36.000Z</time>
      </trkpt>
      <trkpt lat="43.919685" lon="5.049316">
        <ele>109.609415</ele>
        <time>2017-06-08T06:26:40.000Z</time>
      </trkpt>
      <trkpt lat="43.919632" lon="5.049445">
        <ele>109.843257</ele>
        <time>2017-06-08T06:26:47.000Z</time>
      </trkpt>
      <trkpt lat="43.919530" lon="5.049515">
        <ele>110.091983</ele>
        <time>2017-06-08T06:26:51.000Z</time>
      </trkpt>
      <trkpt lat="43.919437" lon="5.049573">
        <ele>110.314851</ele>
        <time>2017-06-08T06:26:58.000Z</time>
      </trkpt>
      <trkpt lat="43.919357" lon="5.049642">
        <ele>110.520732</ele>
        <time>2017-06-08T06:27:03.000Z</time>
      </trkpt>
      <trkpt lat="43.919280" lon="5.049740">
        <ele>110.749082</ele>
        <time>2017-06-08T06:27:09.000Z</time>
      </trkpt>
      <trkpt lat="43.919186" lon="5.049805">
        <ele>110.978644</ele>
        <time>2017-06-08T06:27:14.000Z</time>
      </trkpt>
      <trkpt lat="43.919098" lon="5.049865">
        <ele>111.192959</ele>
        <time>2017-06-08T06:27:18.000Z</time>
      </trkpt>
      <trkpt lat="43.919006" lon="5.049919">
        <ele>111.411306</ele>
        <time>2017-06-08T06:27:23.000Z</time>
      </trkpt>
      <trkpt lat="43.918945" lon="5.050016">
        <ele>111.614061</ele>
        <time>2017-06-08T06:27:28.000Z</time>
      </trkpt>
      <trkpt lat="43.918860" lon="5.050069">
        <ele>111.817751</ele>
        <time>2017-06-08T06:27:35.000Z</time>
      </trkpt>
      <trkpt lat="43.918766" lon="5.049945">
        <ele>112.101206</ele>
        <time>2017-06-08T06:27:59.000Z</time>
      </trkpt>
      <trkpt lat="43.918785" lon="5.049811">
        <ele>112.316254</ele>
        <time>2017-06-08T06:28:03.000Z</time>
      </trkpt>
      <trkpt lat="43.918850" lon="5.049714">
        <ele>112.524864</ele>
        <time>2017-06-08T06:28:07.000Z</time>
      </trkpt>
      <trkpt lat="43.918950" lon="5.049771">
        <ele>112.761171</ele>
        <time>2017-06-08T06:28:14.000Z</time>
      </trkpt>
      <trkpt lat="43.919006" lon="5.049894">
        <ele>112.963434</ele>
        <time>2017-06-08T06:28:19.000Z</time>
      </trkpt>
      <trkpt lat="43.918945" lon="5.050014">
        <ele>113.119087</ele>
        <time>2017-06-08T06:28:23.000Z</time>
      </trkpt>
      <trkpt lat="43.918880" lon="5.050125">
        <ele>113.270691</ele>
        <time>2017-06-08T06:28:26.000Z</time>
      </trkpt>
      <trkpt lat="43.918816" lon="5.050243">
        <ele>113.427232</ele>
        <time>2017-06-08T06:28:30.000Z</time>
      </trkpt>
      <trkpt lat="43.918724" lon="5.050204">
        <ele>113.568759</ele>
        <time>2017-06-08T06:28:35.000Z</time>
      </trkpt>
      <trkpt lat="43.918630" lon="5.050107">
        <ele>113.741079</ele>
        <time>2017-06-08T06:28:39.000Z</time>
      </trkpt>
      <trkpt lat="43.918550" lon="5.050020">
        <ele>113.890594</ele>
        <time>2017-06-08T06:28:43.000Z</time>
      </trkpt>
      <trkpt lat="43.918457" lon="5.049930">
        <ele>114.057386</ele>
        <time>2017-06-08T06:28:48.000Z</time>
      </trkpt>
      <trkpt lat="43.918385" lon="5.049827">
        <ele>114.209495</ele>
        <time>2017-06-08T06:28:52.000Z</time>
      </trkpt>
      <trkpt lat="43.918316" lon="5.049727">
        <ele>114.356251</ele>
        <time>2017-06-08T06:28:56.000Z</time>
      </trkpt>
      <trkpt lat="43.918240" lon="5.049642">
        <ele>114.499840</ele>
        <time>2017-06-08T06:29:01.000Z</time>
      </trkpt>
      <trkpt lat="43.918160" lon="5.049746">
        <ele>114.661091</ele>
        <time>2017-06-08T06:29:08.000Z</time>
      </trkpt>
      <trkpt lat="43.918118" lon="5.049882">
        <ele>114.817912</ele>
        <time>2017-06-08T06:29:13.000Z</time>
      </trkpt>
      <trkpt lat="43.918087" lon="5.050010">
        <ele>114.961028</ele>
        <time>2017-06-08T06:29:17.000Z</time>
      </trkpt>
      <trkpt lat="43.918050" lon="5.050139">
        <ele>115.108182</ele>
        <time>2017-06-08T06:29:21.000Z</time>
      </trkpt>
      <trkpt lat="43.918020" lon="5.050260">
        <ele>115.243801</ele>
        <time>2017-06-08T06:29:24.000Z</time>
      </trkpt>
      <trkpt lat="43.917984" lon="5.050383">
        <ele>115.384507</ele>
        <time>2017-06-08T06:29:27.000Z</time>
      </trkpt>
      <trkpt lat="43.917950" lon="5.050510">
        <ele>115.528097</ele>
        <time>2017-06-08T06:29:30.000Z</time>
      </trkpt>
      <trkpt lat="43.917930" lon="5.050676">
        <ele>115.550693</ele>
        <time>2017-06-08T06:29:34.000Z</time>
      </trkpt>
      <trkpt lat="43.917920" lon="5.050803">
        <ele>115.547366</ele>
        <time>2017-06-08T06:29:37.000Z</time>
      </trkpt>
      <trkpt lat="43.917900" lon="5.050932">
        <ele>115.543929</ele>
        <time>2017-06-08T06:29:40.000Z</time>
      </trkpt>
      <trkpt lat="43.917880" lon="5.051060">
        <ele>115.540517</ele>
        <time>2017-06-08T06:29:43.000Z</time>
      </trkpt>
      <trkpt lat="43.917860" lon="5.051189">
        <ele>115.537080</ele>
        <time>2017-06-08T06:29:46.000Z</time>
      </trkpt>
      <trkpt lat="43.917843" lon="5.051326">
        <ele>115.533460</ele>
        <time>2017-06-08T06:29:49.000Z</time>
      </trkpt>
      <trkpt lat="43.917835" lon="5.051452">
        <ele>115.530165</ele>
        <time>2017-06-08T06:29:52.000Z</time>
      </trkpt>
      <trkpt lat="43.917820" lon="5.051605">
        <ele>115.526143</ele>
        <time>2017-06-08T06:29:56.000Z</time>
      </trkpt>
      <trkpt lat="43.917790" lon="5.051756">
        <ele>115.522063</ele>
        <time>2017-06-08T06:30:00.000Z</time>
      </trkpt>
      <trkpt lat="43.917763" lon="5.051900">
        <ele>115.518188</ele>
        <time>2017-06-08T06:30:04.000Z</time>
      </trkpt>
      <trkpt lat="43.917750" lon="5.052029">
        <ele>115.514795</ele>
        <time>2017-06-08T06:30:08.000Z</time>
      </trkpt>
      <trkpt lat="43.917793" lon="5.052146">
        <ele>115.511374</ele>
        <time>2017-06-08T06:30:14.000Z</time>
      </trkpt>
      <trkpt lat="43.917892" lon="5.052222">
        <ele>115.507283</ele>
        <time>2017-06-08T06:30:20.000Z</time>
      </trkpt>
      <trkpt lat="43.917960" lon="5.052305">
        <ele>115.504009</ele>
        <time>2017-06-08T06:30:24.000Z</time>
      </trkpt>
      <trkpt lat="43.918050" lon="5.052369">
        <ele>115.500353</ele>
        <time>2017-06-08T06:30:28.000Z</time>
      </trkpt>
      <trkpt lat="43.918137" lon="5.052449">
        <ele>115.496580</ele>
        <time>2017-06-08T06:30:33.000Z</time>
      </trkpt>
      <trkpt lat="43.918236" lon="5.052525">
        <ele>115.492489</ele>
        <time>2017-06-08T06:30:38.000Z</time>
      </trkpt>
      <trkpt lat="43.918312" lon="5.052626">
        <ele>115.484541</ele>
        <time>2017-06-08T06:30:42.000Z</time>
      </trkpt>
      <trkpt lat="43.918396" lon="5.052734">
        <ele>115.456197</ele>
        <time>2017-06-08T06:30:47.000Z</time>
      </trkpt>
      <trkpt lat="43.918460" lon="5.052827">
        <ele>115.433260</ele>
        <time>2017-06-08T06:30:51.000Z</time>
      </trkpt>
      <trkpt lat="43.918526" lon="5.052942">
        <ele>115.407038</ele>
        <time>2017-06-08T06:30:56.000Z</time>
      </trkpt>
      <trkpt lat="43.918590" lon="5.053035">
        <ele>115.384101</ele>
        <time>2017-06-08T06:31:00.000Z</time>
      </trkpt>
      <trkpt lat="43.918670" lon="5.053127">
        <ele>115.358383</ele>
        <time>2017-06-08T06:31:05.000Z</time>
      </trkpt>
      <trkpt lat="43.918750" lon="5.053202">
        <ele>115.334484</ele>
        <time>2017-06-08T06:31:09.000Z</time>
      </trkpt>
      <trkpt lat="43.918830" lon="5.053281">
        <ele>115.310179</ele>
        <time>2017-06-08T06:31:13.000Z</time>
      </trkpt>
      <trkpt lat="43.918903" lon="5.053396">
        <ele>115.282844</ele>
        <time>2017-06-08T06:31:17.000Z</time>
      </trkpt>
      <trkpt lat="43.918970" lon="5.053494">
        <ele>115.258750</ele>
        <time>2017-06-08T06:31:21.000Z</time>
      </trkpt>
      <trkpt lat="43.919044" lon="5.053598">
        <ele>115.232681</ele>
        <time>2017-06-08T06:31:26.000Z</time>
      </trkpt>
      <trkpt lat="43.919106" lon="5.053713">
        <ele>115.207065</ele>
        <time>2017-06-08T06:31:30.000Z</time>
      </trkpt>
      <trkpt lat="43.919174" lon="5.053845">
        <ele>115.178125</ele>
        <time>2017-06-08T06:31:34.000Z</time>
      </trkpt>
      <trkpt lat="43.919205" lon="5.053976">
        <ele>115.153535</ele>
        <time>2017-06-08T06:31:38.000Z</time>
      </trkpt>
      <trkpt lat="43.919094" lon="5.053993">
        <ele>115.125888</ele>
        <time>2017-06-08T06:32:41.000Z</time>
      </trkpt>
      <trkpt lat="43.919155" lon="5.053901">
        <ele>115.103590</ele>
        <time>2017-06-08T06:36:19.000Z</time>
      </trkpt>
      <trkpt lat="43.919130" lon="5.053778">
        <ele>115.080799</ele>
        <time>2017-06-08T06:36:29.000Z</time>
      </trkpt>
      <trkpt lat="43.919094" lon="5.053660">
        <ele>115.057946</ele>
        <time>2017-06-08T06:36:38.000Z</time>
      </trkpt>
      <trkpt lat="43.919040" lon="5.053558">
        <ele>115.052096</ele>
        <time>2017-06-08T06:36:49.000Z</time>
      </trkpt>
      <trkpt lat="43.918926" lon="5.053437">
        <ele>115.084617</ele>
        <time>2017-06-08T06:38:22.000Z</time>
      </trkpt>
      <trkpt lat="43.918953" lon="5.053312">
        <ele>115.105919</ele>
        <time>2017-06-08T06:38:29.000Z</time>
      </trkpt>
      <trkpt lat="43.918987" lon="5.053191">
        <ele>115.127121</ele>
        <time>2017-06-08T06:38:36.000Z</time>
      </trkpt>
      <trkpt lat="43.919067" lon="5.053106">
        <ele>115.149951</ele>
        <time>2017-06-08T06:38:44.000Z</time>
      </trkpt>
      <trkpt lat="43.919163" lon="5.053120">
        <ele>115.171826</ele>
        <time>2017-06-08T06:38:51.000Z</time>
      </trkpt>
      <trkpt lat="43.919262" lon="5.053121">
        <ele>115.194262</ele>
        <time>2017-06-08T06:39:00.000Z</time>
      </trkpt>
      <trkpt lat="43.919277" lon="5.052985">
        <ele>115.216722</ele>
        <time>2017-06-08T06:39:14.000Z</time>
      </trkpt>
      <trkpt lat="43.919273" lon="5.053121">
        <ele>115.238941</ele>
        <time>2017-06-08T06:49:13.000Z</time>
      </trkpt>
      <trkpt lat="43.919174" lon="5.053114">
        <ele>115.261405</ele>
        <time>2017-06-08T06:49:20.000Z</time>
      </trkpt>
      <trkpt lat="43.919080" lon="5.053126">
        <ele>115.282797</ele>
        <time>2017-06-08T06:49:26.000Z</time>
      </trkpt>
      <trkpt lat="43.918990" lon="5.053169">
        <ele>115.304367</ele>
        <time>2017-06-08T06:49:32.000Z</time>
      </trkpt>
      <trkpt lat="43.918940" lon="5.053281">
        <ele>115.325877</ele>
        <time>2017-06-08T06:49:41.000Z</time>
      </trkpt>
      <trkpt lat="43.918950" lon="5.053426">
        <ele>115.349655</ele>
        <time>2017-06-08T06:49:48.000Z</time>
      </trkpt>
      <trkpt lat="43.918990" lon="5.053550">
        <ele>115.371834</ele>
        <time>2017-06-08T06:49:56.000Z</time>
      </trkpt>
      <trkpt lat="43.918940" lon="5.053431">
        <ele>115.394322</ele>
        <time>2017-06-08T06:50:23.000Z</time>
      </trkpt>
      <trkpt lat="43.918970" lon="5.053308">
        <ele>115.415521</ele>
        <time>2017-06-08T06:52:59.000Z</time>
      </trkpt>
      <trkpt lat="43.919000" lon="5.053175">
        <ele>115.438271</ele>
        <time>2017-06-08T06:53:06.000Z</time>
      </trkpt>
      <trkpt lat="43.919083" lon="5.053096">
        <ele>115.538695</ele>
        <time>2017-06-08T06:53:14.000Z</time>
      </trkpt>
      <trkpt lat="43.919190" lon="5.053124">
        <ele>115.767921</ele>
        <time>2017-06-08T06:53:20.000Z</time>
      </trkpt>
      <trkpt lat="43.919285" lon="5.053113">
        <ele>115.968612</ele>
        <time>2017-06-08T06:53:28.000Z</time>
      </trkpt>
      <trkpt lat="43.919277" lon="5.052981">
        <ele>116.169488</ele>
        <time>2017-06-08T06:53:40.000Z</time>
      </trkpt>
      <trkpt lat="43.919277" lon="5.052845">
        <ele>116.375722</ele>
        <time>2017-06-08T06:53:49.000Z</time>
      </trkpt>
      <trkpt lat="43.919357" lon="5.052900">
        <ele>116.563661</ele>
        <time>2017-06-08T06:53:56.000Z</time>
      </trkpt>
      <trkpt lat="43.919415" lon="5.053015">
        <ele>116.776547</ele>
        <time>2017-06-08T06:54:04.000Z</time>
      </trkpt>
      <trkpt lat="43.919610" lon="5.052981">
        <ele>117.190291</ele>
        <time>2017-06-08T06:55:19.000Z</time>
      </trkpt>
      <trkpt lat="43.919662" lon="5.052876">
        <ele>117.383518</ele>
        <time>2017-06-08T06:55:25.000Z</time>
      </trkpt>
      <trkpt lat="43.919730" lon="5.052764">
        <ele>117.605641</ele>
        <time>2017-06-08T06:55:31.000Z</time>
      </trkpt>
      <trkpt lat="43.919796" lon="5.052675">
        <ele>117.799342</ele>
        <time>2017-06-08T06:55:40.000Z</time>
      </trkpt>
      <trkpt lat="43.919780" lon="5.052542">
        <ele>118.003819</ele>
        <time>2017-06-08T06:55:46.000Z</time>
      </trkpt>
      <trkpt lat="43.919750" lon="5.052417">
        <ele>118.203616</ele>
        <time>2017-06-08T06:55:50.000Z</time>
      </trkpt>
      <trkpt lat="43.919693" lon="5.052322">
        <ele>118.391107</ele>
        <time>2017-06-08T06:55:54.000Z</time>
      </trkpt>
      <trkpt lat="43.919620" lon="5.052225">
        <ele>118.603838</ele>
        <time>2017-06-08T06:56:00.000Z</time>
      </trkpt>
      <trkpt lat="43.919575" lon="5.052092">
        <ele>118.826663</ele>
        <time>2017-06-08T06:56:05.000Z</time>
      </trkpt>
      <trkpt lat="43.919487" lon="5.052038">
        <ele>119.029214</ele>
        <time>2017-06-08T06:56:14.000Z</time>
      </trkpt>
      <trkpt lat="43.919395" lon="5.052050">
        <ele>119.223747</ele>
        <time>2017-06-08T06:56:21.000Z</time>
      </trkpt>
      <trkpt lat="43.919290" lon="5.052047">
        <ele>119.101766</ele>
        <time>2017-06-08T06:56:27.000Z</time>
      </trkpt>
      <trkpt lat="43.919190" lon="5.052037">
        <ele>118.962306</ele>
        <time>2017-06-08T06:56:32.000Z</time>
      </trkpt>
      <trkpt lat="43.919094" lon="5.052039">
        <ele>118.828755</ele>
        <time>2017-06-08T06:56:36.000Z</time>
      </trkpt>
      <trkpt lat="43.919000" lon="5.052033">
        <ele>118.697862</ele>
        <time>2017-06-08T06:56:39.000Z</time>
      </trkpt>
      <trkpt lat="43.918880" lon="5.052032">
        <ele>118.530939</ele>
        <time>2017-06-08T06:56:43.000Z</time>
      </trkpt>
      <trkpt lat="43.918774" lon="5.052062">
        <ele>118.380460</ele>
        <time>2017-06-08T06:56:47.000Z</time>
      </trkpt>
      <trkpt lat="43.918660" lon="5.052112">
        <ele>118.214160</ele>
        <time>2017-06-08T06:56:51.000Z</time>
      </trkpt>
      <trkpt lat="43.918570" lon="5.052166">
        <ele>118.077778</ele>
        <time>2017-06-08T06:56:55.000Z</time>
      </trkpt>
      <trkpt lat="43.918480" lon="5.052191">
        <ele>117.950106</ele>
        <time>2017-06-08T06:56:58.000Z</time>
      </trkpt>
      <trkpt lat="43.918390" lon="5.052205">
        <ele>117.824132</ele>
        <time>2017-06-08T06:57:01.000Z</time>
      </trkpt>
      <trkpt lat="43.918293" lon="5.052246">
        <ele>117.683090</ele>
        <time>2017-06-08T06:57:05.000Z</time>
      </trkpt>
      <trkpt lat="43.918224" lon="5.052347">
        <ele>117.543614</ele>
        <time>2017-06-08T06:57:10.000Z</time>
      </trkpt>
      <trkpt lat="43.918144" lon="5.052464">
        <ele>117.381977</ele>
        <time>2017-06-08T06:57:17.000Z</time>
      </trkpt>
      <trkpt lat="43.918056" lon="5.052569">
        <ele>117.220569</ele>
        <time>2017-06-08T06:57:23.000Z</time>
      </trkpt>
      <trkpt lat="43.917976" lon="5.052648">
        <ele>117.084007</ele>
        <time>2017-06-08T06:57:28.000Z</time>
      </trkpt>
      <trkpt lat="43.917892" lon="5.052695">
        <ele>116.958029</ele>
        <time>2017-06-08T06:57:34.000Z</time>
      </trkpt>
      <trkpt lat="43.917816" lon="5.052604">
        <ele>116.818423</ele>
        <time>2017-06-08T06:57:39.000Z</time>
      </trkpt>
      <trkpt lat="43.917732" lon="5.052514">
        <ele>116.689278</ele>
        <time>2017-06-08T06:57:43.000Z</time>
      </trkpt>
      <trkpt lat="43.917656" lon="5.052434">
        <ele>116.593970</ele>
        <time>2017-06-08T06:57:46.000Z</time>
      </trkpt>
      <trkpt lat="43.917580" lon="5.052366">
        <ele>116.503619</ele>
        <time>2017-06-08T06:57:49.000Z</time>
      </trkpt>
      <trkpt lat="43.917500" lon="5.052296">
        <ele>116.409123</ele>
        <time>2017-06-08T06:57:53.000Z</time>
      </trkpt>
      <trkpt lat="43.917430" lon="5.052417">
        <ele>116.297415</ele>
        <time>2017-06-08T06:57:58.000Z</time>
      </trkpt>
      <trkpt lat="43.917340" lon="5.052472">
        <ele>116.199153</ele>
        <time>2017-06-08T06:58:02.000Z</time>
      </trkpt>
      <trkpt lat="43.917233" lon="5.052480">
        <ele>116.092076</ele>
        <time>2017-06-08T06:58:07.000Z</time>
      </trkpt>
      <trkpt lat="43.917130" lon="5.052476">
        <ele>115.989112</ele>
        <time>2017-06-08T06:58:12.000Z</time>
      </trkpt>
      <trkpt lat="43.916960" lon="5.052414">
        <ele>115.813472</ele>
        <time>2017-06-08T06:58:41.000Z</time>
      </trkpt>
      <trkpt lat="43.916847" lon="5.052387">
        <ele>115.698894</ele>
        <time>2017-06-08T06:58:44.000Z</time>
      </trkpt>
      <trkpt lat="43.916720" lon="5.052384">
        <ele>115.571969</ele>
        <time>2017-06-08T06:58:47.000Z</time>
      </trkpt>
      <trkpt lat="43.916590" lon="5.052352">
        <ele>115.440038</ele>
        <time>2017-06-08T06:58:50.000Z</time>
      </trkpt>
      <trkpt lat="43.916460" lon="5.052330">
        <ele>115.309172</ele>
        <time>2017-06-08T06:58:53.000Z</time>
      </trkpt>
      <trkpt lat="43.916360" lon="5.052321">
        <ele>115.209035</ele>
        <time>2017-06-08T06:58:55.000Z</time>
      </trkpt>
      <trkpt lat="43.916256" lon="5.052306">
        <ele>115.104552</ele>
        <time>2017-06-08T06:58:57.000Z</time>
      </trkpt>
      <trkpt lat="43.916153" lon="5.052296">
        <ele>115.001376</ele>
        <time>2017-06-08T06:58:59.000Z</time>
      </trkpt>
      <trkpt lat="43.916050" lon="5.052281">
        <ele>114.936260</ele>
        <time>2017-06-08T06:59:01.000Z</time>
      </trkpt>
      <trkpt lat="43.915947" lon="5.052269">
        <ele>114.929326</ele>
        <time>2017-06-08T06:59:03.000Z</time>
      </trkpt>
      <trkpt lat="43.915855" lon="5.052263">
        <ele>114.923148</ele>
        <time>2017-06-08T06:59:05.000Z</time>
      </trkpt>
      <trkpt lat="43.915730" lon="5.052252">
        <ele>114.914747</ele>
        <time>2017-06-08T06:59:08.000Z</time>
      </trkpt>
      <trkpt lat="43.915596" lon="5.052233">
        <ele>114.905711</ele>
        <time>2017-06-08T06:59:11.000Z</time>
      </trkpt>
      <trkpt lat="43.915497" lon="5.052225">
        <ele>114.899059</ele>
        <time>2017-06-08T06:59:13.000Z</time>
      </trkpt>
      <trkpt lat="43.915386" lon="5.052231">
        <ele>114.891608</ele>
        <time>2017-06-08T06:59:15.000Z</time>
      </trkpt>
      <trkpt lat="43.915302" lon="5.052277">
        <ele>114.885551</ele>
        <time>2017-06-08T06:59:17.000Z</time>
      </trkpt>
      <trkpt lat="43.915222" lon="5.052342">
        <ele>114.879333</ele>
        <time>2017-06-08T06:59:19.000Z</time>
      </trkpt>
      <trkpt lat="43.915140" lon="5.052416">
        <ele>114.872772</ele>
        <time>2017-06-08T06:59:21.000Z</time>
      </trkpt>
      <trkpt lat="43.915050" lon="5.052485">
        <ele>114.865875</ele>
        <time>2017-06-08T06:59:23.000Z</time>
      </trkpt>
      <trkpt lat="43.914963" lon="5.052558">
        <ele>114.859056</ele>
        <time>2017-06-08T06:59:25.000Z</time>
      </trkpt>
      <trkpt lat="43.914875" lon="5.052631">
        <ele>114.852180</ele>
        <time>2017-06-08T06:59:27.000Z</time>
      </trkpt>
      <trkpt lat="43.914783" lon="5.052698">
        <ele>114.845211</ele>
        <time>2017-06-08T06:59:29.000Z</time>
      </trkpt>
      <trkpt lat="43.914692" lon="5.052761">
        <ele>114.838389</ele>
        <time>2017-06-08T06:59:31.000Z</time>
      </trkpt>
      <trkpt lat="43.914600" lon="5.052823">
        <ele>114.831529</ele>
        <time>2017-06-08T06:59:33.000Z</time>
      </trkpt>
      <trkpt lat="43.914505" lon="5.052885">
        <ele>114.824488</ele>
        <time>2017-06-08T06:59:35.000Z</time>
      </trkpt>
      <trkpt lat="43.914402" lon="5.052931">
        <ele>114.818770</ele>
        <time>2017-06-08T06:59:37.000Z</time>
      </trkpt>
      <trkpt lat="43.914310" lon="5.052982">
        <ele>114.821104</ele>
        <time>2017-06-08T06:59:39.000Z</time>
      </trkpt>
      <trkpt lat="43.914223" lon="5.053020">
        <ele>114.823253</ele>
        <time>2017-06-08T06:59:41.000Z</time>
      </trkpt>
      <trkpt lat="43.914127" lon="5.053063">
        <ele>114.825629</ele>
        <time>2017-06-08T06:59:43.000Z</time>
      </trkpt>
      <trkpt lat="43.914032" lon="5.053100">
        <ele>114.827953</ele>
        <time>2017-06-08T06:59:45.000Z</time>
      </trkpt>
      <trkpt lat="43.913937" lon="5.053134">
        <ele>114.830265</ele>
        <time>2017-06-08T06:59:47.000Z</time>
      </trkpt>
      <trkpt lat="43.913837" lon="5.053165">
        <ele>114.832678</ele>
        <time>2017-06-08T06:59:49.000Z</time>
      </trkpt>
      <trkpt lat="43.913734" lon="5.053194">
        <ele>114.835154</ele>
        <time>2017-06-08T06:59:51.000Z</time>
      </trkpt>
      <trkpt lat="43.913630" lon="5.053225">
        <ele>114.837660</ele>
        <time>2017-06-08T06:59:53.000Z</time>
      </trkpt>
      <trkpt lat="43.913536" lon="5.053252">
        <ele>114.839922</ele>
        <time>2017-06-08T06:59:55.000Z</time>
      </trkpt>
      <trkpt lat="43.913440" lon="5.053278">
        <ele>114.842226</ele>
        <time>2017-06-08T06:59:57.000Z</time>
      </trkpt>
      <trkpt lat="43.913345" lon="5.053296">
        <ele>114.844485</ele>
        <time>2017-06-08T06:59:59.000Z</time>
      </trkpt>
      <trkpt lat="43.913240" lon="5.053309">
        <ele>114.846968</ele>
        <time>2017-06-08T07:00:01.000Z</time>
      </trkpt>
      <trkpt lat="43.913130" lon="5.053326">
        <ele>114.849575</ele>
        <time>2017-06-08T07:00:03.000Z</time>
      </trkpt>
      <trkpt lat="43.913020" lon="5.053339">
        <ele>114.852176</ele>
        <time>2017-06-08T07:00:05.000Z</time>
      </trkpt>
      <trkpt lat="43.912914" lon="5.053348">
        <ele>114.854678</ele>
        <time>2017-06-08T07:00:07.000Z</time>
      </trkpt>
      <trkpt lat="43.912807" lon="5.053354">
        <ele>114.857201</ele>
        <time>2017-06-08T07:00:09.000Z</time>
      </trkpt>
      <trkpt lat="43.912704" lon="5.053371">
        <ele>114.859644</ele>
        <time>2017-06-08T07:00:11.000Z</time>
      </trkpt>
      <trkpt lat="43.912594" lon="5.053385">
        <ele>114.909465</ele>
        <time>2017-06-08T07:00:13.000Z</time>
      </trkpt>
      <trkpt lat="43.912483" lon="5.053405">
        <ele>114.994879</ele>
        <time>2017-06-08T07:00:15.000Z</time>
      </trkpt>
      <trkpt lat="43.912376" lon="5.053425">
        <ele>115.077267</ele>
        <time>2017-06-08T07:00:17.000Z</time>
      </trkpt>
      <trkpt lat="43.912266" lon="5.053442">
        <ele>115.161725</ele>
        <time>2017-06-08T07:00:19.000Z</time>
      </trkpt>
      <trkpt lat="43.912163" lon="5.053453">
        <ele>115.240556</ele>
        <time>2017-06-08T07:00:21.000Z</time>
      </trkpt>
      <trkpt lat="43.912064" lon="5.053464">
        <ele>115.316344</ele>
        <time>2017-06-08T07:00:23.000Z</time>
      </trkpt>
      <trkpt lat="43.911970" lon="5.053475">
        <ele>115.388329</ele>
        <time>2017-06-08T07:00:25.000Z</time>
      </trkpt>
      <trkpt lat="43.911860" lon="5.053486">
        <ele>115.472486</ele>
        <time>2017-06-08T07:00:27.000Z</time>
      </trkpt>
      <trkpt lat="43.911766" lon="5.053500">
        <ele>115.544629</ele>
        <time>2017-06-08T07:00:29.000Z</time>
      </trkpt>
      <trkpt lat="43.911663" lon="5.053512">
        <ele>115.623503</ele>
        <time>2017-06-08T07:00:31.000Z</time>
      </trkpt>
      <trkpt lat="43.911560" lon="5.053522">
        <ele>115.702294</ele>
        <time>2017-06-08T07:00:33.000Z</time>
      </trkpt>
      <trkpt lat="43.911457" lon="5.053540">
        <ele>115.781513</ele>
        <time>2017-06-08T07:00:35.000Z</time>
      </trkpt>
      <trkpt lat="43.911346" lon="5.053558">
        <ele>115.866792</ele>
        <time>2017-06-08T07:00:37.000Z</time>
      </trkpt>
      <trkpt lat="43.911240" lon="5.053575">
        <ele>115.948217</ele>
        <time>2017-06-08T07:00:39.000Z</time>
      </trkpt>
      <trkpt lat="43.911130" lon="5.053581">
        <ele>116.032222</ele>
        <time>2017-06-08T07:00:41.000Z</time>
      </trkpt>
      <trkpt lat="43.911030" lon="5.053591">
        <ele>116.108729</ele>
        <time>2017-06-08T07:00:43.000Z</time>
      </trkpt>
      <trkpt lat="43.910920" lon="5.053629">
        <ele>116.195230</ele>
        <time>2017-06-08T07:00:46.000Z</time>
      </trkpt>
      <trkpt lat="43.910896" lon="5.053758">
        <ele>116.305418</ele>
        <time>2017-06-08T07:00:49.000Z</time>
      </trkpt>
      <trkpt lat="43.910900" lon="5.053935">
        <ele>116.504940</ele>
        <time>2017-06-08T07:00:52.000Z</time>
      </trkpt>
      <trkpt lat="43.910900" lon="5.054064">
        <ele>116.650284</ele>
        <time>2017-06-08T07:00:54.000Z</time>
      </trkpt>
      <trkpt lat="43.910908" lon="5.054248">
        <ele>116.857972</ele>
        <time>2017-06-08T07:00:57.000Z</time>
      </trkpt>
      <trkpt lat="43.910908" lon="5.054381">
        <ele>117.007822</ele>
        <time>2017-06-08T07:00:59.000Z</time>
      </trkpt>
      <trkpt lat="43.910927" lon="5.054516">
        <ele>117.162801</ele>
        <time>2017-06-08T07:01:01.000Z</time>
      </trkpt>
      <trkpt lat="43.910942" lon="5.054653">
        <ele>117.318930</ele>
        <time>2017-06-08T07:01:03.000Z</time>
      </trkpt>
      <trkpt lat="43.910954" lon="5.054785">
        <ele>117.468833</ele>
        <time>2017-06-08T07:01:05.000Z</time>
      </trkpt>
      <trkpt lat="43.910957" lon="5.054927">
        <ele>117.628892</ele>
        <time>2017-06-08T07:01:07.000Z</time>
      </trkpt>
      <trkpt lat="43.910970" lon="5.055070">
        <ele>117.791287</ele>
        <time>2017-06-08T07:01:09.000Z</time>
      </trkpt>
      <trkpt lat="43.910988" lon="5.055211">
        <ele>117.952625</ele>
        <time>2017-06-08T07:01:11.000Z</time>
      </trkpt>
      <trkpt lat="43.911007" lon="5.055352">
        <ele>118.114243</ele>
        <time>2017-06-08T07:01:13.000Z</time>
      </trkpt>
      <trkpt lat="43.911010" lon="5.055481">
        <ele>118.259662</ele>
        <time>2017-06-08T07:01:15.000Z</time>
      </trkpt>
      <trkpt lat="43.911022" lon="5.055621">
        <ele>118.418511</ele>
        <time>2017-06-08T07:01:17.000Z</time>
      </trkpt>
      <trkpt lat="43.911022" lon="5.055752">
        <ele>118.566108</ele>
        <time>2017-06-08T07:01:19.000Z</time>
      </trkpt>
      <trkpt lat="43.911003" lon="5.055924">
        <ele>118.762163</ele>
        <time>2017-06-08T07:01:22.000Z</time>
      </trkpt>
      <trkpt lat="43.910995" lon="5.056058">
        <ele>118.913658</ele>
        <time>2017-06-08T07:01:24.000Z</time>
      </trkpt>
      <trkpt lat="43.910995" lon="5.056207">
        <ele>119.023012</ele>
        <time>2017-06-08T07:01:26.000Z</time>
      </trkpt>
      <trkpt lat="43.911010" lon="5.056348">
        <ele>118.917318</ele>
        <time>2017-06-08T07:01:28.000Z</time>
      </trkpt>
      <trkpt lat="43.911034" lon="5.056516">
        <ele>118.790310</ele>
        <time>2017-06-08T07:01:31.000Z</time>
      </trkpt>
      <trkpt lat="43.910960" lon="5.056643">
        <ele>118.669183</ele>
        <time>2017-06-08T07:01:34.000Z</time>
      </trkpt>
      <trkpt lat="43.910862" lon="5.056721">
        <ele>118.552900</ele>
        <time>2017-06-08T07:01:37.000Z</time>
      </trkpt>
      <trkpt lat="43.910774" lon="5.056751">
        <ele>118.459625</ele>
        <time>2017-06-08T07:01:39.000Z</time>
      </trkpt>
      <trkpt lat="43.910680" lon="5.056781">
        <ele>118.360341</ele>
        <time>2017-06-08T07:01:41.000Z</time>
      </trkpt>
      <trkpt lat="43.910580" lon="5.056808">
        <ele>118.255477</ele>
        <time>2017-06-08T07:01:43.000Z</time>
      </trkpt>
      <trkpt lat="43.910477" lon="5.056829">
        <ele>118.148316</ele>
        <time>2017-06-08T07:01:45.000Z</time>
      </trkpt>
      <trkpt lat="43.910385" lon="5.056850">
        <ele>118.052344</ele>
        <time>2017-06-08T07:01:47.000Z</time>
      </trkpt>
      <trkpt lat="43.910250" lon="5.056892">
        <ele>117.909934</ele>
        <time>2017-06-08T07:01:50.000Z</time>
      </trkpt>
      <trkpt lat="43.910160" lon="5.056919">
        <ele>117.815154</ele>
        <time>2017-06-08T07:01:52.000Z</time>
      </trkpt>
      <trkpt lat="43.910070" lon="5.056947">
        <ele>117.720214</ele>
        <time>2017-06-08T07:01:54.000Z</time>
      </trkpt>
      <trkpt lat="43.909943" lon="5.056970">
        <ele>117.588378</ele>
        <time>2017-06-08T07:01:57.000Z</time>
      </trkpt>
      <trkpt lat="43.909817" lon="5.056999">
        <ele>117.456909</ele>
        <time>2017-06-08T07:02:00.000Z</time>
      </trkpt>
      <trkpt lat="43.909690" lon="5.057025">
        <ele>117.324767</ele>
        <time>2017-06-08T07:02:03.000Z</time>
      </trkpt>
      <trkpt lat="43.909570" lon="5.057060">
        <ele>117.198548</ele>
        <time>2017-06-08T07:02:06.000Z</time>
      </trkpt>
      <trkpt lat="43.909450" lon="5.057067">
        <ele>117.083583</ele>
        <time>2017-06-08T07:02:09.000Z</time>
      </trkpt>
      <trkpt lat="43.909348" lon="5.057087">
        <ele>116.985212</ele>
        <time>2017-06-08T07:02:12.000Z</time>
      </trkpt>
      <trkpt lat="43.909240" lon="5.057109">
        <ele>116.880973</ele>
        <time>2017-06-08T07:02:16.000Z</time>
      </trkpt>
      <trkpt lat="43.909145" lon="5.057114">
        <ele>116.790188</ele>
        <time>2017-06-08T07:02:23.000Z</time>
      </trkpt>
      <trkpt lat="43.909040" lon="5.057140">
        <ele>116.688336</ele>
        <time>2017-06-08T07:04:21.000Z</time>
      </trkpt>
      <trkpt lat="43.908928" lon="5.057143">
        <ele>116.581363</ele>
        <time>2017-06-08T07:04:25.000Z</time>
      </trkpt>
      <trkpt lat="43.908813" lon="5.057148">
        <ele>116.471490</ele>
        <time>2017-06-08T07:04:28.000Z</time>
      </trkpt>
      <trkpt lat="43.908684" lon="5.057171">
        <ele>116.347291</ele>
        <time>2017-06-08T07:04:31.000Z</time>
      </trkpt>
      <trkpt lat="43.908596" lon="5.057186">
        <ele>116.262624</ele>
        <time>2017-06-08T07:04:33.000Z</time>
      </trkpt>
      <trkpt lat="43.908497" lon="5.057199">
        <ele>116.167663</ele>
        <time>2017-06-08T07:04:35.000Z</time>
      </trkpt>
      <trkpt lat="43.908398" lon="5.057211">
        <ele>116.072764</ele>
        <time>2017-06-08T07:04:37.000Z</time>
      </trkpt>
      <trkpt lat="43.908300" lon="5.057226">
        <ele>115.978612</ele>
        <time>2017-06-08T07:04:39.000Z</time>
      </trkpt>
      <trkpt lat="43.908195" lon="5.057254">
        <ele>115.876509</ele>
        <time>2017-06-08T07:04:41.000Z</time>
      </trkpt>
      <trkpt lat="43.908092" lon="5.057270">
        <ele>115.777536</ele>
        <time>2017-06-08T07:04:43.000Z</time>
      </trkpt>
      <trkpt lat="43.907993" lon="5.057284">
        <ele>115.682507</ele>
        <time>2017-06-08T07:04:45.000Z</time>
      </trkpt>
      <trkpt lat="43.907894" lon="5.057297">
        <ele>115.587546</ele>
        <time>2017-06-08T07:04:47.000Z</time>
      </trkpt>
      <trkpt lat="43.907803" lon="5.057315">
        <ele>115.499768</ele>
        <time>2017-06-08T07:04:49.000Z</time>
      </trkpt>
      <trkpt lat="43.907715" lon="5.057332">
        <ele>115.522595</ele>
        <time>2017-06-08T07:04:51.000Z</time>
      </trkpt>
      <trkpt lat="43.907623" lon="5.057345">
        <ele>115.586953</ele>
        <time>2017-06-08T07:04:53.000Z</time>
      </trkpt>
      <trkpt lat="43.907528" lon="5.057368">
        <ele>115.654066</ele>
        <time>2017-06-08T07:04:55.000Z</time>
      </trkpt>
      <trkpt lat="43.907433" lon="5.057394">
        <ele>115.721454</ele>
        <time>2017-06-08T07:04:57.000Z</time>
      </trkpt>
      <trkpt lat="43.907340" lon="5.057388">
        <ele>115.786247</ele>
        <time>2017-06-08T07:04:59.000Z</time>
      </trkpt>
      <trkpt lat="43.907250" lon="5.057393">
        <ele>115.848933</ele>
        <time>2017-06-08T07:05:01.000Z</time>
      </trkpt>
      <trkpt lat="43.907116" lon="5.057403">
        <ele>115.942325</ele>
        <time>2017-06-08T07:05:04.000Z</time>
      </trkpt>
      <trkpt lat="43.906998" lon="5.057423">
        <ele>116.025057</ele>
        <time>2017-06-08T07:05:07.000Z</time>
      </trkpt>
      <trkpt lat="43.906890" lon="5.057437">
        <ele>116.100546</ele>
        <time>2017-06-08T07:05:10.000Z</time>
      </trkpt>
      <trkpt lat="43.906800" lon="5.057473">
        <ele>116.165731</ele>
        <time>2017-06-08T07:05:13.000Z</time>
      </trkpt>
      <trkpt lat="43.906704" lon="5.057510">
        <ele>116.235070</ele>
        <time>2017-06-08T07:05:16.000Z</time>
      </trkpt>
      <trkpt lat="43.906597" lon="5.057548">
        <ele>116.311935</ele>
        <time>2017-06-08T07:05:19.000Z</time>
      </trkpt>
      <trkpt lat="43.906475" lon="5.057585">
        <ele>116.398844</ele>
        <time>2017-06-08T07:05:22.000Z</time>
      </trkpt>
      <trkpt lat="43.906387" lon="5.057613">
        <ele>116.461676</ele>
        <time>2017-06-08T07:05:24.000Z</time>
      </trkpt>
      <trkpt lat="43.906292" lon="5.057636">
        <ele>116.528790</ele>
        <time>2017-06-08T07:05:26.000Z</time>
      </trkpt>
      <trkpt lat="43.906204" lon="5.057662">
        <ele>116.591405</ele>
        <time>2017-06-08T07:05:28.000Z</time>
      </trkpt>
      <trkpt lat="43.906116" lon="5.057697">
        <ele>116.655114</ele>
        <time>2017-06-08T07:05:30.000Z</time>
      </trkpt>
      <trkpt lat="43.905987" lon="5.057722">
        <ele>116.729748</ele>
        <time>2017-06-08T07:05:33.000Z</time>
      </trkpt>
      <trkpt lat="43.905860" lon="5.057772">
        <ele>116.734014</ele>
        <time>2017-06-08T07:05:36.000Z</time>
      </trkpt>
      <trkpt lat="43.905770" lon="5.057808">
        <ele>116.737041</ele>
        <time>2017-06-08T07:05:38.000Z</time>
      </trkpt>
      <trkpt lat="43.905670" lon="5.057859">
        <ele>116.740484</ele>
        <time>2017-06-08T07:05:40.000Z</time>
      </trkpt>
      <trkpt lat="43.905567" lon="5.057881">
        <ele>116.743852</ele>
        <time>2017-06-08T07:05:42.000Z</time>
      </trkpt>
      <trkpt lat="43.905476" lon="5.057917">
        <ele>116.746910</ele>
        <time>2017-06-08T07:05:44.000Z</time>
      </trkpt>
      <trkpt lat="43.905384" lon="5.057970">
        <ele>116.750129</ele>
        <time>2017-06-08T07:05:46.000Z</time>
      </trkpt>
      <trkpt lat="43.905290" lon="5.058032">
        <ele>116.753493</ele>
        <time>2017-06-08T07:05:48.000Z</time>
      </trkpt>
      <trkpt lat="43.905200" lon="5.058079">
        <ele>116.756601</ele>
        <time>2017-06-08T07:05:50.000Z</time>
      </trkpt>
      <trkpt lat="43.905110" lon="5.058143">
        <ele>116.759869</ele>
        <time>2017-06-08T07:05:52.000Z</time>
      </trkpt>
      <trkpt lat="43.905014" lon="5.058199">
        <ele>116.763234</ele>
        <time>2017-06-08T07:05:54.000Z</time>
      </trkpt>
      <trkpt lat="43.904926" lon="5.058258">
        <ele>116.766393</ele>
        <time>2017-06-08T07:05:56.000Z</time>
      </trkpt>
      <trkpt lat="43.904840" lon="5.058319">
        <ele>116.769514</ele>
        <time>2017-06-08T07:05:58.000Z</time>
      </trkpt>
      <trkpt lat="43.904747" lon="5.058380">
        <ele>116.772838</ele>
        <time>2017-06-08T07:06:00.000Z</time>
      </trkpt>
      <trkpt lat="43.904650" lon="5.058425">
        <ele>116.776143</ele>
        <time>2017-06-08T07:06:02.000Z</time>
      </trkpt>
      <trkpt lat="43.904560" lon="5.058477">
        <ele>116.779294</ele>
        <time>2017-06-08T07:06:04.000Z</time>
      </trkpt>
      <trkpt lat="43.904470" lon="5.058545">
        <ele>116.782606</ele>
        <time>2017-06-08T07:06:06.000Z</time>
      </trkpt>
      <trkpt lat="43.904380" lon="5.058611">
        <ele>116.785895</ele>
        <time>2017-06-08T07:06:08.000Z</time>
      </trkpt>
      <trkpt lat="43.904285" lon="5.058682">
        <ele>116.970890</ele>
        <time>2017-06-08T07:06:10.000Z</time>
      </trkpt>
      <trkpt lat="43.904190" lon="5.058753">
        <ele>117.251262</ele>
        <time>2017-06-08T07:06:12.000Z</time>
      </trkpt>
      <trkpt lat="43.904095" lon="5.058814">
        <ele>117.523259</ele>
        <time>2017-06-08T07:06:14.000Z</time>
      </trkpt>
      <trkpt lat="43.903988" lon="5.058869">
        <ele>117.819755</ele>
        <time>2017-06-08T07:06:16.000Z</time>
      </trkpt>
      <trkpt lat="43.903890" lon="5.058928">
        <ele>118.097334</ele>
        <time>2017-06-08T07:06:18.000Z</time>
      </trkpt>
      <trkpt lat="43.903780" lon="5.058983">
        <ele>118.401153</ele>
        <time>2017-06-08T07:06:20.000Z</time>
      </trkpt>
      <trkpt lat="43.903680" lon="5.059044">
        <ele>118.684994</ele>
        <time>2017-06-08T07:06:22.000Z</time>
      </trkpt>
      <trkpt lat="43.903587" lon="5.059103">
        <ele>118.950704</ele>
        <time>2017-06-08T07:06:24.000Z</time>
      </trkpt>
      <trkpt lat="43.903492" lon="5.059162">
        <ele>119.221150</ele>
        <time>2017-06-08T07:06:26.000Z</time>
      </trkpt>
      <trkpt lat="43.903393" lon="5.059228">
        <ele>119.506541</ele>
        <time>2017-06-08T07:06:28.000Z</time>
      </trkpt>
      <trkpt lat="43.903294" lon="5.059286">
        <ele>119.785774</ele>
        <time>2017-06-08T07:06:30.000Z</time>
      </trkpt>
      <trkpt lat="43.903187" lon="5.059337">
        <ele>120.079753</ele>
        <time>2017-06-08T07:06:32.000Z</time>
      </trkpt>
      <trkpt lat="43.903088" lon="5.059386">
        <ele>120.352874</ele>
        <time>2017-06-08T07:06:34.000Z</time>
      </trkpt>
      <trkpt lat="43.902980" lon="5.059419">
        <ele>120.640234</ele>
        <time>2017-06-08T07:06:36.000Z</time>
      </trkpt>
      <trkpt lat="43.902880" lon="5.059457">
        <ele>120.909649</ele>
        <time>2017-06-08T07:06:38.000Z</time>
      </trkpt>
      <trkpt lat="43.902775" lon="5.059493">
        <ele>121.190694</ele>
        <time>2017-06-08T07:06:40.000Z</time>
      </trkpt>
      <trkpt lat="43.902670" lon="5.059524">
        <ele>121.459479</ele>
        <time>2017-06-08T07:06:42.000Z</time>
      </trkpt>
      <trkpt lat="43.902573" lon="5.059546">
        <ele>121.418399</ele>
        <time>2017-06-08T07:06:44.000Z</time>
      </trkpt>
      <trkpt lat="43.902477" lon="5.059568">
        <ele>121.377732</ele>
        <time>2017-06-08T07:06:46.000Z</time>
      </trkpt>
      <trkpt lat="43.902374" lon="5.059589">
        <ele>121.334221</ele>
        <time>2017-06-08T07:06:48.000Z</time>
      </trkpt>
      <trkpt lat="43.902275" lon="5.059614">
        <ele>121.292164</ele>
        <time>2017-06-08T07:06:50.000Z</time>
      </trkpt>
      <trkpt lat="43.902170" lon="5.059645">
        <ele>121.247296</ele>
        <time>2017-06-08T07:06:52.000Z</time>
      </trkpt>
      <trkpt lat="43.902070" lon="5.059675">
        <ele>121.204535</ele>
        <time>2017-06-08T07:06:54.000Z</time>
      </trkpt>
      <trkpt lat="43.901966" lon="5.059701">
        <ele>121.160368</ele>
        <time>2017-06-08T07:06:56.000Z</time>
      </trkpt>
      <trkpt lat="43.901860" lon="5.059729">
        <ele>121.115269</ele>
        <time>2017-06-08T07:06:58.000Z</time>
      </trkpt>
      <trkpt lat="43.901764" lon="5.059763">
        <ele>121.073860</ele>
        <time>2017-06-08T07:07:00.000Z</time>
      </trkpt>
      <trkpt lat="43.901657" lon="5.059788">
        <ele>121.028509</ele>
        <time>2017-06-08T07:07:02.000Z</time>
      </trkpt>
      <trkpt lat="43.901558" lon="5.059825">
        <ele>120.985657</ele>
        <time>2017-06-08T07:07:04.000Z</time>
      </trkpt>
      <trkpt lat="43.901463" lon="5.059838">
        <ele>120.945759</ele>
        <time>2017-06-08T07:07:06.000Z</time>
      </trkpt>
      <trkpt lat="43.901356" lon="5.059817">
        <ele>120.900592</ele>
        <time>2017-06-08T07:07:08.000Z</time>
      </trkpt>
      <trkpt lat="43.901260" lon="5.059784">
        <ele>120.859256</ele>
        <time>2017-06-08T07:07:10.000Z</time>
      </trkpt>
      <trkpt lat="43.901176" lon="5.059718">
        <ele>120.818912</ele>
        <time>2017-06-08T07:07:12.000Z</time>
      </trkpt>
      <trkpt lat="43.901100" lon="5.059649">
        <ele>120.780954</ele>
        <time>2017-06-08T07:07:14.000Z</time>
      </trkpt>
      <trkpt lat="43.901012" lon="5.059566">
        <ele>120.736484</ele>
        <time>2017-06-08T07:07:17.000Z</time>
      </trkpt>
      <trkpt lat="43.900900" lon="5.059637">
        <ele>120.689052</ele>
        <time>2017-06-08T07:07:21.000Z</time>
      </trkpt>
      <trkpt lat="43.900870" lon="5.059780">
        <ele>120.651699</ele>
        <time>2017-06-08T07:07:24.000Z</time>
      </trkpt>
      <trkpt lat="43.900837" lon="5.059941">
        <ele>120.609718</ele>
        <time>2017-06-08T07:07:27.000Z</time>
      </trkpt>
      <trkpt lat="43.900810" lon="5.060070">
        <ele>120.576028</ele>
        <time>2017-06-08T07:07:29.000Z</time>
      </trkpt>
      <trkpt lat="43.900776" lon="5.060248">
        <ele>120.529843</ele>
        <time>2017-06-08T07:07:32.000Z</time>
      </trkpt>
      <trkpt lat="43.900745" lon="5.060368">
        <ele>120.497871</ele>
        <time>2017-06-08T07:07:34.000Z</time>
      </trkpt>
      <trkpt lat="43.900710" lon="5.060494">
        <ele>120.464004</ele>
        <time>2017-06-08T07:07:36.000Z</time>
      </trkpt>
      <trkpt lat="43.900677" lon="5.060624">
        <ele>120.429436</ele>
        <time>2017-06-08T07:07:38.000Z</time>
      </trkpt>
      <trkpt lat="43.900635" lon="5.060735">
        <ele>120.397992</ele>
        <time>2017-06-08T07:07:40.000Z</time>
      </trkpt>
      <trkpt lat="43.900580" lon="5.060843">
        <ele>120.364823</ele>
        <time>2017-06-08T07:07:42.000Z</time>
      </trkpt>
      <trkpt lat="43.900528" lon="5.060947">
        <ele>120.333075</ele>
        <time>2017-06-08T07:07:44.000Z</time>
      </trkpt>
      <trkpt lat="43.900420" lon="5.061067">
        <ele>120.284920</ele>
        <time>2017-06-08T07:07:47.000Z</time>
      </trkpt>
      <trkpt lat="43.900340" lon="5.061139">
        <ele>120.251732</ele>
        <time>2017-06-08T07:07:49.000Z</time>
      </trkpt>
      <trkpt lat="43.900253" lon="5.061212">
        <ele>120.216345</ele>
        <time>2017-06-08T07:07:51.000Z</time>
      </trkpt>
      <trkpt lat="43.900166" lon="5.061286">
        <ele>120.180828</ele>
        <time>2017-06-08T07:07:53.000Z</time>
      </trkpt>
      <trkpt lat="43.900060" lon="5.061360">
        <ele>120.139527</ele>
        <time>2017-06-08T07:07:55.000Z</time>
      </trkpt>
      <trkpt lat="43.899967" lon="5.061433">
        <ele>120.102338</ele>
        <time>2017-06-08T07:07:57.000Z</time>
      </trkpt>
      <trkpt lat="43.899880" lon="5.061507">
        <ele>120.140612</ele>
        <time>2017-06-08T07:07:59.000Z</time>
      </trkpt>
      <trkpt lat="43.899790" lon="5.061580">
        <ele>120.269044</ele>
        <time>2017-06-08T07:08:01.000Z</time>
      </trkpt>
      <trkpt lat="43.899704" lon="5.061651">
        <ele>120.392329</ele>
        <time>2017-06-08T07:08:03.000Z</time>
      </trkpt>
      <trkpt lat="43.899616" lon="5.061707">
        <ele>120.511601</ele>
        <time>2017-06-08T07:08:05.000Z</time>
      </trkpt>
      <trkpt lat="43.899530" lon="5.061774">
        <ele>120.633109</ele>
        <time>2017-06-08T07:08:07.000Z</time>
      </trkpt>
      <trkpt lat="43.899450" lon="5.061839">
        <ele>120.747320</ele>
        <time>2017-06-08T07:08:09.000Z</time>
      </trkpt>
      <trkpt lat="43.899357" lon="5.061897">
        <ele>120.872937</ele>
        <time>2017-06-08T07:08:11.000Z</time>
      </trkpt>
      <trkpt lat="43.899277" lon="5.061965">
        <ele>120.988516</ele>
        <time>2017-06-08T07:08:13.000Z</time>
      </trkpt>
      <trkpt lat="43.899200" lon="5.062033">
        <ele>121.100961</ele>
        <time>2017-06-08T07:08:15.000Z</time>
      </trkpt>
      <trkpt lat="43.899128" lon="5.062113">
        <ele>121.214595</ele>
        <time>2017-06-08T07:08:17.000Z</time>
      </trkpt>
      <trkpt lat="43.899048" lon="5.062180">
        <ele>121.329713</ele>
        <time>2017-06-08T07:08:19.000Z</time>
      </trkpt>
      <trkpt lat="43.898964" lon="5.062253">
        <ele>121.451820</ele>
        <time>2017-06-08T07:08:21.000Z</time>
      </trkpt>
      <trkpt lat="43.898880" lon="5.062324">
        <ele>121.572994</ele>
        <time>2017-06-08T07:08:23.000Z</time>
      </trkpt>
      <trkpt lat="43.898800" lon="5.062396">
        <ele>121.690468</ele>
        <time>2017-06-08T07:08:25.000Z</time>
      </trkpt>
      <trkpt lat="43.898712" lon="5.062471">
        <ele>121.817699</ele>
        <time>2017-06-08T07:08:27.000Z</time>
      </trkpt>
      <trkpt lat="43.898636" lon="5.062548">
        <ele>121.933630</ele>
        <time>2017-06-08T07:08:29.000Z</time>
      </trkpt>
      <trkpt lat="43.898544" lon="5.062651">
        <ele>122.079262</ele>
        <time>2017-06-08T07:08:32.000Z</time>
      </trkpt>
      <trkpt lat="43.898450" lon="5.062755">
        <ele>122.227372</ele>
        <time>2017-06-08T07:08:35.000Z</time>
      </trkpt>
      <trkpt lat="43.898357" lon="5.062887">
        <ele>122.332990</ele>
        <time>2017-06-08T07:08:38.000Z</time>
      </trkpt>
      <trkpt lat="43.898290" lon="5.062975">
        <ele>122.374816</ele>
        <time>2017-06-08T07:08:40.000Z</time>
      </trkpt>
      <trkpt lat="43.898220" lon="5.063072">
        <ele>122.419668</ele>
        <time>2017-06-08T07:08:42.000Z</time>
      </trkpt>
      <trkpt lat="43.898150" lon="5.063171">
        <ele>122.464984</ele>
        <time>2017-06-08T07:08:44.000Z</time>
      </trkpt>
      <trkpt lat="43.898090" lon="5.063273">
        <ele>122.508003</ele>
        <time>2017-06-08T07:08:46.000Z</time>
      </trkpt>
      <trkpt lat="43.898037" lon="5.063388">
        <ele>122.552603</ele>
        <time>2017-06-08T07:08:48.000Z</time>
      </trkpt>
      <trkpt lat="43.897987" lon="5.063503">
        <ele>122.596485</ele>
        <time>2017-06-08T07:08:50.000Z</time>
      </trkpt>
      <trkpt lat="43.897934" lon="5.063614">
        <ele>122.639990</ele>
        <time>2017-06-08T07:08:52.000Z</time>
      </trkpt>
      <trkpt lat="43.897865" lon="5.063702">
        <ele>122.682480</ele>
        <time>2017-06-08T07:08:54.000Z</time>
      </trkpt>
      <trkpt lat="43.897804" lon="5.063809">
        <ele>122.727057</ele>
        <time>2017-06-08T07:08:56.000Z</time>
      </trkpt>
      <trkpt lat="43.897736" lon="5.063923">
        <ele>122.775408</ele>
        <time>2017-06-08T07:08:58.000Z</time>
      </trkpt>
      <trkpt lat="43.897660" lon="5.064036">
        <ele>122.825910</ele>
        <time>2017-06-08T07:09:00.000Z</time>
      </trkpt>
      <trkpt lat="43.897590" lon="5.064140">
        <ele>122.872407</ele>
        <time>2017-06-08T07:09:02.000Z</time>
      </trkpt>
      <trkpt lat="43.897520" lon="5.064254">
        <ele>122.921341</ele>
        <time>2017-06-08T07:09:04.000Z</time>
      </trkpt>
      <trkpt lat="43.897438" lon="5.064352">
        <ele>122.970408</ele>
        <time>2017-06-08T07:09:06.000Z</time>
      </trkpt>
      <trkpt lat="43.897360" lon="5.064448">
        <ele>123.017679</ele>
        <time>2017-06-08T07:09:08.000Z</time>
      </trkpt>
      <trkpt lat="43.897290" lon="5.064539">
        <ele>123.061168</ele>
        <time>2017-06-08T07:09:10.000Z</time>
      </trkpt>
      <trkpt lat="43.897198" lon="5.064625">
        <ele>123.111462</ele>
        <time>2017-06-08T07:09:12.000Z</time>
      </trkpt>
      <trkpt lat="43.897120" lon="5.064711">
        <ele>123.168008</ele>
        <time>2017-06-08T07:09:14.000Z</time>
      </trkpt>
      <trkpt lat="43.897045" lon="5.064782">
        <ele>123.220310</ele>
        <time>2017-06-08T07:09:16.000Z</time>
      </trkpt>
      <trkpt lat="43.896960" lon="5.064845">
        <ele>123.275822</ele>
        <time>2017-06-08T07:09:18.000Z</time>
      </trkpt>
      <trkpt lat="43.896873" lon="5.064908">
        <ele>123.332354</ele>
        <time>2017-06-08T07:09:20.000Z</time>
      </trkpt>
      <trkpt lat="43.896786" lon="5.064969">
        <ele>123.388507</ele>
        <time>2017-06-08T07:09:22.000Z</time>
      </trkpt>
      <trkpt lat="43.896698" lon="5.065032">
        <ele>123.445550</ele>
        <time>2017-06-08T07:09:24.000Z</time>
      </trkpt>
      <trkpt lat="43.896603" lon="5.065105">
        <ele>123.508107</ele>
        <time>2017-06-08T07:09:26.000Z</time>
      </trkpt>
      <trkpt lat="43.896507" lon="5.065180">
        <ele>123.571572</ele>
        <time>2017-06-08T07:09:28.000Z</time>
      </trkpt>
      <trkpt lat="43.896420" lon="5.065251">
        <ele>123.629715</ele>
        <time>2017-06-08T07:09:30.000Z</time>
      </trkpt>
      <trkpt lat="43.896290" lon="5.065334">
        <ele>123.712150</ele>
        <time>2017-06-08T07:09:33.000Z</time>
      </trkpt>
      <trkpt lat="43.896180" lon="5.065403">
        <ele>123.781692</ele>
        <time>2017-06-08T07:09:35.000Z</time>
      </trkpt>
      <trkpt lat="43.896076" lon="5.065473">
        <ele>123.848279</ele>
        <time>2017-06-08T07:09:37.000Z</time>
      </trkpt>
      <trkpt lat="43.895980" lon="5.065534">
        <ele>123.909104</ele>
        <time>2017-06-08T07:09:39.000Z</time>
      </trkpt>
      <trkpt lat="43.895893" lon="5.065589">
        <ele>123.964179</ele>
        <time>2017-06-08T07:09:41.000Z</time>
      </trkpt>
      <trkpt lat="43.895798" lon="5.065636">
        <ele>124.022280</ele>
        <time>2017-06-08T07:09:43.000Z</time>
      </trkpt>
      <trkpt lat="43.895710" lon="5.065690">
        <ele>124.077710</ele>
        <time>2017-06-08T07:09:45.000Z</time>
      </trkpt>
      <trkpt lat="43.895615" lon="5.065750">
        <ele>124.137839</ele>
        <time>2017-06-08T07:09:47.000Z</time>
      </trkpt>
      <trkpt lat="43.895520" lon="5.065805">
        <ele>124.168144</ele>
        <time>2017-06-08T07:09:49.000Z</time>
      </trkpt>
      <trkpt lat="43.895420" lon="5.065852">
        <ele>124.190959</ele>
        <time>2017-06-08T07:09:51.000Z</time>
      </trkpt>
      <trkpt lat="43.895332" lon="5.065914">
        <ele>124.212285</ele>
        <time>2017-06-08T07:09:53.000Z</time>
      </trkpt>
      <trkpt lat="43.895233" lon="5.065961">
        <ele>124.234896</ele>
        <time>2017-06-08T07:09:55.000Z</time>
      </trkpt>
      <trkpt lat="43.895134" lon="5.066009">
        <ele>124.257557</ele>
        <time>2017-06-08T07:09:57.000Z</time>
      </trkpt>
      <trkpt lat="43.895042" lon="5.066063">
        <ele>124.279143</ele>
        <time>2017-06-08T07:09:59.000Z</time>
      </trkpt>
      <trkpt lat="43.894947" lon="5.066119">
        <ele>124.301447</ele>
        <time>2017-06-08T07:10:01.000Z</time>
      </trkpt>
      <trkpt lat="43.894850" lon="5.066177">
        <ele>124.324271</ele>
        <time>2017-06-08T07:10:03.000Z</time>
      </trkpt>
      <trkpt lat="43.894756" lon="5.066239">
        <ele>124.346762</ele>
        <time>2017-06-08T07:10:05.000Z</time>
      </trkpt>
      <trkpt lat="43.894665" lon="5.066302">
        <ele>124.368738</ele>
        <time>2017-06-08T07:10:07.000Z</time>
      </trkpt>
      <trkpt lat="43.894573" lon="5.066360">
        <ele>124.390574</ele>
        <time>2017-06-08T07:10:09.000Z</time>
      </trkpt>
      <trkpt lat="43.894480" lon="5.066410">
        <ele>124.412126</ele>
        <time>2017-06-08T07:10:11.000Z</time>
      </trkpt>
      <trkpt lat="43.894382" lon="5.066473">
        <ele>124.435465</ele>
        <time>2017-06-08T07:10:13.000Z</time>
      </trkpt>
      <trkpt lat="43.894283" lon="5.066538">
        <ele>124.459132</ele>
        <time>2017-06-08T07:10:15.000Z</time>
      </trkpt>
      <trkpt lat="43.894184" lon="5.066606">
        <ele>124.483003</ele>
        <time>2017-06-08T07:10:17.000Z</time>
      </trkpt>
      <trkpt lat="43.894090" lon="5.066664">
        <ele>124.505233</ele>
        <time>2017-06-08T07:10:19.000Z</time>
      </trkpt>
      <trkpt lat="43.893997" lon="5.066730">
        <ele>124.527805</ele>
        <time>2017-06-08T07:10:21.000Z</time>
      </trkpt>
      <trkpt lat="43.893910" lon="5.066799">
        <ele>124.561582</ele>
        <time>2017-06-08T07:10:23.000Z</time>
      </trkpt>
      <trkpt lat="43.893826" lon="5.066856">
        <ele>124.606173</ele>
        <time>2017-06-08T07:10:25.000Z</time>
      </trkpt>
      <trkpt lat="43.893738" lon="5.066927">
        <ele>124.654716</ele>
        <time>2017-06-08T07:10:27.000Z</time>
      </trkpt>
      <trkpt lat="43.893650" lon="5.066996">
        <ele>124.702917</ele>
        <time>2017-06-08T07:10:29.000Z</time>
      </trkpt>
      <trkpt lat="43.893562" lon="5.067071">
        <ele>124.752165</ele>
        <time>2017-06-08T07:10:31.000Z</time>
      </trkpt>
      <trkpt lat="43.893480" lon="5.067141">
        <ele>124.798076</ele>
        <time>2017-06-08T07:10:33.000Z</time>
      </trkpt>
      <trkpt lat="43.893387" lon="5.067208">
        <ele>124.848046</ele>
        <time>2017-06-08T07:10:35.000Z</time>
      </trkpt>
      <trkpt lat="43.893300" lon="5.067277">
        <ele>124.895833</ele>
        <time>2017-06-08T07:10:37.000Z</time>
      </trkpt>
      <trkpt lat="43.893204" lon="5.067351">
        <ele>124.948203</ele>
        <time>2017-06-08T07:10:39.000Z</time>
      </trkpt>
      <trkpt lat="43.893110" lon="5.067419">
        <ele>124.998755</ele>
        <time>2017-06-08T07:10:41.000Z</time>
      </trkpt>
      <trkpt lat="43.893013" lon="5.067488">
        <ele>125.050736</ele>
        <time>2017-06-08T07:10:43.000Z</time>
      </trkpt>
      <trkpt lat="43.892918" lon="5.067561">
        <ele>125.102521</ele>
        <time>2017-06-08T07:10:45.000Z</time>
      </trkpt>
      <trkpt lat="43.892830" lon="5.067639">
        <ele>125.152317</ele>
        <time>2017-06-08T07:10:47.000Z</time>
      </trkpt>
      <trkpt lat="43.892708" lon="5.067785">
        <ele>125.229143</ele>
        <time>2017-06-08T07:10:50.000Z</time>
      </trkpt>
      <trkpt lat="43.892640" lon="5.067894">
        <ele>125.278688</ele>
        <time>2017-06-08T07:10:52.000Z</time>
      </trkpt>
      <trkpt lat="43.892586" lon="5.068010">
        <ele>125.326147</ele>
        <time>2017-06-08T07:10:54.000Z</time>
      </trkpt>
      <trkpt lat="43.892544" lon="5.068125">
        <ele>125.370453</ele>
        <time>2017-06-08T07:10:56.000Z</time>
      </trkpt>
      <trkpt lat="43.892506" lon="5.068239">
        <ele>125.376413</ele>
        <time>2017-06-08T07:10:58.000Z</time>
      </trkpt>
      <trkpt lat="43.892452" lon="5.068399">
        <ele>125.299960</ele>
        <time>2017-06-08T07:11:01.000Z</time>
      </trkpt>
      <trkpt lat="43.892414" lon="5.068553">
        <ele>125.229522</ele>
        <time>2017-06-08T07:11:04.000Z</time>
      </trkpt>
      <trkpt lat="43.892357" lon="5.068714">
        <ele>125.151899</ele>
        <time>2017-06-08T07:11:07.000Z</time>
      </trkpt>
      <trkpt lat="43.892303" lon="5.068880">
        <ele>125.073086</ele>
        <time>2017-06-08T07:11:10.000Z</time>
      </trkpt>
      <trkpt lat="43.892246" lon="5.069048">
        <ele>124.992734</ele>
        <time>2017-06-08T07:11:13.000Z</time>
      </trkpt>
      <trkpt lat="43.892204" lon="5.069165">
        <ele>124.936171</ele>
        <time>2017-06-08T07:11:15.000Z</time>
      </trkpt>
      <trkpt lat="43.892155" lon="5.069282">
        <ele>124.877612</ele>
        <time>2017-06-08T07:11:17.000Z</time>
      </trkpt>
      <trkpt lat="43.892100" lon="5.069396">
        <ele>124.818247</ele>
        <time>2017-06-08T07:11:19.000Z</time>
      </trkpt>
      <trkpt lat="43.892044" lon="5.069516">
        <ele>124.756382</ele>
        <time>2017-06-08T07:11:21.000Z</time>
      </trkpt>
      <trkpt lat="43.891994" lon="5.069634">
        <ele>124.697147</ele>
        <time>2017-06-08T07:11:23.000Z</time>
      </trkpt>
      <trkpt lat="43.891940" lon="5.069757">
        <ele>124.634822</ele>
        <time>2017-06-08T07:11:25.000Z</time>
      </trkpt>
      <trkpt lat="43.891880" lon="5.069879">
        <ele>124.570906</ele>
        <time>2017-06-08T07:11:27.000Z</time>
      </trkpt>
      <trkpt lat="43.891830" lon="5.070006">
        <ele>124.508283</ele>
        <time>2017-06-08T07:11:29.000Z</time>
      </trkpt>
      <trkpt lat="43.891766" lon="5.070121">
        <ele>124.445407</ele>
        <time>2017-06-08T07:11:31.000Z</time>
      </trkpt>
      <trkpt lat="43.891710" lon="5.070248">
        <ele>124.380979</ele>
        <time>2017-06-08T07:11:33.000Z</time>
      </trkpt>
      <trkpt lat="43.891644" lon="5.070357">
        <ele>124.319371</ele>
        <time>2017-06-08T07:11:35.000Z</time>
      </trkpt>
      <trkpt lat="43.891570" lon="5.070475">
        <ele>124.263198</ele>
        <time>2017-06-08T07:11:37.000Z</time>
      </trkpt>
      <trkpt lat="43.891502" lon="5.070594">
        <ele>124.209046</ele>
        <time>2017-06-08T07:11:39.000Z</time>
      </trkpt>
      <trkpt lat="43.891438" lon="5.070705">
        <ele>124.158358</ele>
        <time>2017-06-08T07:11:41.000Z</time>
      </trkpt>
      <trkpt lat="43.891370" lon="5.070805">
        <ele>124.109333</ele>
        <time>2017-06-08T07:11:43.000Z</time>
      </trkpt>
      <trkpt lat="43.891300" lon="5.070908">
        <ele>124.058852</ele>
        <time>2017-06-08T07:11:45.000Z</time>
      </trkpt>
      <trkpt lat="43.891235" lon="5.071017">
        <ele>124.008405</ele>
        <time>2017-06-08T07:11:47.000Z</time>
      </trkpt>
      <trkpt lat="43.891170" lon="5.071127">
        <ele>123.957682</ele>
        <time>2017-06-08T07:11:49.000Z</time>
      </trkpt>
      <trkpt lat="43.891100" lon="5.071250">
        <ele>123.901797</ele>
        <time>2017-06-08T07:11:51.000Z</time>
      </trkpt>
      <trkpt lat="43.891037" lon="5.071371">
        <ele>123.848570</ele>
        <time>2017-06-08T07:11:53.000Z</time>
      </trkpt>
      <trkpt lat="43.890990" lon="5.071488">
        <ele>123.800808</ele>
        <time>2017-06-08T07:11:55.000Z</time>
      </trkpt>
      <trkpt lat="43.890923" lon="5.071655">
        <ele>123.732655</ele>
        <time>2017-06-08T07:11:58.000Z</time>
      </trkpt>
      <trkpt lat="43.890870" lon="5.071779">
        <ele>123.681248</ele>
        <time>2017-06-08T07:12:00.000Z</time>
      </trkpt>
      <trkpt lat="43.890816" lon="5.071918">
        <ele>123.624942</ele>
        <time>2017-06-08T07:12:02.000Z</time>
      </trkpt>
      <trkpt lat="43.890762" lon="5.072061">
        <ele>123.567376</ele>
        <time>2017-06-08T07:12:04.000Z</time>
      </trkpt>
      <trkpt lat="43.890713" lon="5.072196">
        <ele>123.513478</ele>
        <time>2017-06-08T07:12:06.000Z</time>
      </trkpt>
      <trkpt lat="43.890670" lon="5.072329">
        <ele>123.461500</ele>
        <time>2017-06-08T07:12:08.000Z</time>
      </trkpt>
      <trkpt lat="43.890636" lon="5.072471">
        <ele>123.465252</ele>
        <time>2017-06-08T07:12:10.000Z</time>
      </trkpt>
      <trkpt lat="43.890594" lon="5.072617">
        <ele>123.577455</ele>
        <time>2017-06-08T07:12:12.000Z</time>
      </trkpt>
      <trkpt lat="43.890560" lon="5.072766">
        <ele>123.689008</ele>
        <time>2017-06-08T07:12:14.000Z</time>
      </trkpt>
      <trkpt lat="43.890526" lon="5.072907">
        <ele>123.795131</ele>
        <time>2017-06-08T07:12:16.000Z</time>
      </trkpt>
      <trkpt lat="43.890488" lon="5.073055">
        <ele>123.907271</ele>
        <time>2017-06-08T07:12:18.000Z</time>
      </trkpt>
      <trkpt lat="43.890457" lon="5.073200">
        <ele>124.015223</ele>
        <time>2017-06-08T07:12:20.000Z</time>
      </trkpt>
      <trkpt lat="43.890427" lon="5.073347">
        <ele>124.124270</ele>
        <time>2017-06-08T07:12:22.000Z</time>
      </trkpt>
      <trkpt lat="43.890396" lon="5.073493">
        <ele>124.232907</ele>
        <time>2017-06-08T07:12:24.000Z</time>
      </trkpt>
      <trkpt lat="43.890358" lon="5.073636">
        <ele>124.341692</ele>
        <time>2017-06-08T07:12:26.000Z</time>
      </trkpt>
      <trkpt lat="43.890324" lon="5.073775">
        <ele>124.446463</ele>
        <time>2017-06-08T07:12:28.000Z</time>
      </trkpt>
      <trkpt lat="43.890290" lon="5.073916">
        <ele>124.552586</ele>
        <time>2017-06-08T07:12:30.000Z</time>
      </trkpt>
      <trkpt lat="43.890255" lon="5.074056">
        <ele>124.658354</ele>
        <time>2017-06-08T07:12:32.000Z</time>
      </trkpt>
      <trkpt lat="43.890217" lon="5.074187">
        <ele>124.759146</ele>
        <time>2017-06-08T07:12:34.000Z</time>
      </trkpt>
      <trkpt lat="43.890186" lon="5.074321">
        <ele>124.859597</ele>
        <time>2017-06-08T07:12:36.000Z</time>
      </trkpt>
      <trkpt lat="43.890163" lon="5.074470">
        <ele>124.968359</ele>
        <time>2017-06-08T07:12:38.000Z</time>
      </trkpt>
      <trkpt lat="43.890133" lon="5.074604">
        <ele>125.068511</ele>
        <time>2017-06-08T07:12:40.000Z</time>
      </trkpt>
      <trkpt lat="43.890102" lon="5.074747">
        <ele>125.175096</ele>
        <time>2017-06-08T07:12:42.000Z</time>
      </trkpt>
      <trkpt lat="43.890064" lon="5.074890">
        <ele>125.458441</ele>
        <time>2017-06-08T07:12:44.000Z</time>
      </trkpt>
      <trkpt lat="43.890026" lon="5.075018">
        <ele>125.786243</ele>
        <time>2017-06-08T07:12:46.000Z</time>
      </trkpt>
      <trkpt lat="43.889988" lon="5.075141">
        <ele>126.103129</ele>
        <time>2017-06-08T07:12:48.000Z</time>
      </trkpt>
      <trkpt lat="43.889923" lon="5.075263">
        <ele>126.462387</ele>
        <time>2017-06-08T07:12:50.000Z</time>
      </trkpt>
      <trkpt lat="43.889840" lon="5.075390">
        <ele>126.868352</ele>
        <time>2017-06-08T07:12:52.000Z</time>
      </trkpt>
      <trkpt lat="43.889782" lon="5.075521">
        <ele>127.232411</ele>
        <time>2017-06-08T07:12:54.000Z</time>
      </trkpt>
      <trkpt lat="43.889717" lon="5.075632">
        <ele>127.571079</ele>
        <time>2017-06-08T07:12:56.000Z</time>
      </trkpt>
      <trkpt lat="43.889656" lon="5.075739">
        <ele>127.894137</ele>
        <time>2017-06-08T07:12:58.000Z</time>
      </trkpt>
      <trkpt lat="43.889600" lon="5.075846">
        <ele>128.207267</ele>
        <time>2017-06-08T07:13:00.000Z</time>
      </trkpt>
      <trkpt lat="43.889538" lon="5.075950">
        <ele>128.526868</ele>
        <time>2017-06-08T07:13:02.000Z</time>
      </trkpt>
      <trkpt lat="43.889473" lon="5.076057">
        <ele>128.858240</ele>
        <time>2017-06-08T07:13:04.000Z</time>
      </trkpt>
      <trkpt lat="43.889404" lon="5.076157">
        <ele>129.186066</ele>
        <time>2017-06-08T07:13:06.000Z</time>
      </trkpt>
      <trkpt lat="43.889347" lon="5.076267">
        <ele>129.506879</ele>
        <time>2017-06-08T07:13:08.000Z</time>
      </trkpt>
      <trkpt lat="43.889282" lon="5.076381">
        <ele>129.851091</ele>
        <time>2017-06-08T07:13:10.000Z</time>
      </trkpt>
      <trkpt lat="43.889220" lon="5.076494">
        <ele>130.187389</ele>
        <time>2017-06-08T07:13:12.000Z</time>
      </trkpt>
      <trkpt lat="43.889160" lon="5.076606">
        <ele>130.517844</ele>
        <time>2017-06-08T07:13:14.000Z</time>
      </trkpt>
      <trkpt lat="43.889090" lon="5.076710">
        <ele>130.854810</ele>
        <time>2017-06-08T07:13:16.000Z</time>
      </trkpt>
      <trkpt lat="43.889023" lon="5.076819">
        <ele>131.149939</ele>
        <time>2017-06-08T07:13:18.000Z</time>
      </trkpt>
      <trkpt lat="43.888960" lon="5.076935">
        <ele>131.293489</ele>
        <time>2017-06-08T07:13:20.000Z</time>
      </trkpt>
      <trkpt lat="43.888900" lon="5.077048">
        <ele>131.432204</ele>
        <time>2017-06-08T07:13:22.000Z</time>
      </trkpt>
      <trkpt lat="43.888832" lon="5.077162">
        <ele>131.578454</ele>
        <time>2017-06-08T07:13:24.000Z</time>
      </trkpt>
      <trkpt lat="43.888767" lon="5.077280">
        <ele>131.725237</ele>
        <time>2017-06-08T07:13:26.000Z</time>
      </trkpt>
      <trkpt lat="43.888687" lon="5.077467">
        <ele>131.940157</ele>
        <time>2017-06-08T07:13:29.000Z</time>
      </trkpt>
      <trkpt lat="43.888630" lon="5.077595">
        <ele>132.088860</ele>
        <time>2017-06-08T07:13:31.000Z</time>
      </trkpt>
      <trkpt lat="43.888570" lon="5.077715">
        <ele>132.233203</ele>
        <time>2017-06-08T07:13:33.000Z</time>
      </trkpt>
      <trkpt lat="43.888523" lon="5.077838">
        <ele>132.370793</ele>
        <time>2017-06-08T07:13:35.000Z</time>
      </trkpt>
      <trkpt lat="43.888470" lon="5.077956">
        <ele>132.508207</ele>
        <time>2017-06-08T07:13:37.000Z</time>
      </trkpt>
      <trkpt lat="43.888412" lon="5.078085">
        <ele>132.658474</ele>
        <time>2017-06-08T07:13:39.000Z</time>
      </trkpt>
      <trkpt lat="43.888355" lon="5.078218">
        <ele>132.811403</ele>
        <time>2017-06-08T07:13:41.000Z</time>
      </trkpt>
      <trkpt lat="43.888298" lon="5.078341">
        <ele>132.955926</ele>
        <time>2017-06-08T07:13:43.000Z</time>
      </trkpt>
      <trkpt lat="43.888240" lon="5.078462">
        <ele>133.099546</ele>
        <time>2017-06-08T07:13:45.000Z</time>
      </trkpt>
      <trkpt lat="43.888187" lon="5.078585">
        <ele>133.241178</ele>
        <time>2017-06-08T07:13:47.000Z</time>
      </trkpt>
      <trkpt lat="43.888123" lon="5.078706">
        <ele>133.389513</ele>
        <time>2017-06-08T07:13:49.000Z</time>
      </trkpt>
      <trkpt lat="43.888070" lon="5.078824">
        <ele>133.526927</ele>
        <time>2017-06-08T07:13:51.000Z</time>
      </trkpt>
      <trkpt lat="43.888012" lon="5.078936">
        <ele>133.637109</ele>
        <time>2017-06-08T07:13:53.000Z</time>
      </trkpt>
      <trkpt lat="43.887955" lon="5.079053">
        <ele>133.730157</ele>
        <time>2017-06-08T07:13:55.000Z</time>
      </trkpt>
      <trkpt lat="43.887897" lon="5.079176">
        <ele>133.827004</ele>
        <time>2017-06-08T07:13:57.000Z</time>
      </trkpt>
      <trkpt lat="43.887844" lon="5.079302">
        <ele>133.923127</ele>
        <time>2017-06-08T07:13:59.000Z</time>
      </trkpt>
      <trkpt lat="43.887787" lon="5.079428">
        <ele>134.021144</ele>
        <time>2017-06-08T07:14:01.000Z</time>
      </trkpt>
      <trkpt lat="43.887733" lon="5.079547">
        <ele>134.113797</ele>
        <time>2017-06-08T07:14:03.000Z</time>
      </trkpt>
      <trkpt lat="43.887670" lon="5.079666">
        <ele>134.211083</ele>
        <time>2017-06-08T07:14:05.000Z</time>
      </trkpt>
      <trkpt lat="43.887604" lon="5.079786">
        <ele>134.310541</ele>
        <time>2017-06-08T07:14:07.000Z</time>
      </trkpt>
      <trkpt lat="43.887547" lon="5.079904">
        <ele>134.404136</ele>
        <time>2017-06-08T07:14:09.000Z</time>
      </trkpt>
      <trkpt lat="43.887490" lon="5.080035">
        <ele>134.504959</ele>
        <time>2017-06-08T07:14:11.000Z</time>
      </trkpt>
      <trkpt lat="43.887432" lon="5.080167">
        <ele>134.606820</ele>
        <time>2017-06-08T07:14:13.000Z</time>
      </trkpt>
      <trkpt lat="43.887380" lon="5.080289">
        <ele>134.700208</ele>
        <time>2017-06-08T07:14:15.000Z</time>
      </trkpt>
      <trkpt lat="43.887320" lon="5.080416">
        <ele>134.800261</ele>
        <time>2017-06-08T07:14:17.000Z</time>
      </trkpt>
      <trkpt lat="43.887260" lon="5.080543">
        <ele>134.900314</ele>
        <time>2017-06-08T07:14:19.000Z</time>
      </trkpt>
      <trkpt lat="43.887203" lon="5.080674">
        <ele>135.001138</ele>
        <time>2017-06-08T07:14:21.000Z</time>
      </trkpt>
      <trkpt lat="43.887140" lon="5.080802">
        <ele>135.103264</ele>
        <time>2017-06-08T07:14:23.000Z</time>
      </trkpt>
      <trkpt lat="43.887085" lon="5.080922">
        <ele>135.196964</ele>
        <time>2017-06-08T07:14:25.000Z</time>
      </trkpt>
      <trkpt lat="43.887040" lon="5.081034">
        <ele>135.186010</ele>
        <time>2017-06-08T07:14:27.000Z</time>
      </trkpt>
      <trkpt lat="43.886986" lon="5.081194">
        <ele>135.089764</ele>
        <time>2017-06-08T07:14:30.000Z</time>
      </trkpt>
      <trkpt lat="43.886930" lon="5.081348">
        <ele>134.995797</ele>
        <time>2017-06-08T07:14:33.000Z</time>
      </trkpt>
      <trkpt lat="43.886880" lon="5.081459">
        <ele>134.924489</ele>
        <time>2017-06-08T07:14:35.000Z</time>
      </trkpt>
      <trkpt lat="43.886830" lon="5.081580">
        <ele>134.848506</ele>
        <time>2017-06-08T07:14:37.000Z</time>
      </trkpt>
      <trkpt lat="43.886776" lon="5.081698">
        <ele>134.772360</ele>
        <time>2017-06-08T07:14:39.000Z</time>
      </trkpt>
      <trkpt lat="43.886726" lon="5.081810">
        <ele>134.700589</ele>
        <time>2017-06-08T07:14:41.000Z</time>
      </trkpt>
      <trkpt lat="43.886673" lon="5.081936">
        <ele>134.621113</ele>
        <time>2017-06-08T07:14:43.000Z</time>
      </trkpt>
      <trkpt lat="43.886623" lon="5.082057">
        <ele>134.545131</ele>
        <time>2017-06-08T07:14:45.000Z</time>
      </trkpt>
      <trkpt lat="43.886574" lon="5.082183">
        <ele>134.467135</ele>
        <time>2017-06-08T07:14:47.000Z</time>
      </trkpt>
      <trkpt lat="43.886524" lon="5.082308">
        <ele>134.389254</ele>
        <time>2017-06-08T07:14:49.000Z</time>
      </trkpt>
      <trkpt lat="43.886467" lon="5.082428">
        <ele>134.310961</ele>
        <time>2017-06-08T07:14:51.000Z</time>
      </trkpt>
      <trkpt lat="43.886410" lon="5.082541">
        <ele>134.235822</ele>
        <time>2017-06-08T07:14:53.000Z</time>
      </trkpt>
      <trkpt lat="43.886360" lon="5.082653">
        <ele>134.164051</ele>
        <time>2017-06-08T07:14:55.000Z</time>
      </trkpt>
      <trkpt lat="43.886300" lon="5.082806">
        <ele>134.069162</ele>
        <time>2017-06-08T07:14:58.000Z</time>
      </trkpt>
      <trkpt lat="43.886234" lon="5.082932">
        <ele>133.984307</ele>
        <time>2017-06-08T07:15:01.000Z</time>
      </trkpt>
      <trkpt lat="43.886130" lon="5.082949">
        <ele>133.905153</ele>
        <time>2017-06-08T07:15:04.000Z</time>
      </trkpt>
      <trkpt lat="43.886044" lon="5.082862">
        <ele>133.698843</ele>
        <time>2017-06-08T07:15:07.000Z</time>
      </trkpt>
      <trkpt lat="43.885970" lon="5.082766">
        <ele>133.407892</ele>
        <time>2017-06-08T07:15:11.000Z</time>
      </trkpt>
      <trkpt lat="43.885900" lon="5.082661">
        <ele>133.111830</ele>
        <time>2017-06-08T07:16:12.000Z</time>
      </trkpt>
      <trkpt lat="43.885830" lon="5.082578">
        <ele>132.847383</ele>
        <time>2017-06-08T07:16:19.000Z</time>
      </trkpt>
      <trkpt lat="43.885757" lon="5.082478">
        <ele>132.552765</ele>
        <time>2017-06-08T07:16:24.000Z</time>
      </trkpt>
      <trkpt lat="43.885685" lon="5.082372">
        <ele>132.251270</ele>
        <time>2017-06-08T07:16:28.000Z</time>
      </trkpt>
      <trkpt lat="43.885597" lon="5.082260">
        <ele>131.908314</ele>
        <time>2017-06-08T07:16:32.000Z</time>
      </trkpt>
      <trkpt lat="43.885520" lon="5.082158">
        <ele>131.602569</ele>
        <time>2017-06-08T07:16:35.000Z</time>
      </trkpt>
      <trkpt lat="43.885452" lon="5.082025">
        <ele>131.265036</ele>
        <time>2017-06-08T07:16:38.000Z</time>
      </trkpt>
      <trkpt lat="43.885365" lon="5.081907">
        <ele>130.915623</ele>
        <time>2017-06-08T07:16:41.000Z</time>
      </trkpt>
      <trkpt lat="43.885280" lon="5.081794">
        <ele>130.577536</ele>
        <time>2017-06-08T07:16:44.000Z</time>
      </trkpt>
      <trkpt lat="43.885204" lon="5.081676">
        <ele>130.249970</ele>
        <time>2017-06-08T07:16:47.000Z</time>
      </trkpt>
      <trkpt lat="43.885110" lon="5.081540">
        <ele>129.859933</ele>
        <time>2017-06-08T07:16:50.000Z</time>
      </trkpt>
      <trkpt lat="43.885048" lon="5.081435">
        <ele>129.578963</ele>
        <time>2017-06-08T07:16:52.000Z</time>
      </trkpt>
      <trkpt lat="43.884987" lon="5.081340">
        <ele>129.315600</ele>
        <time>2017-06-08T07:16:54.000Z</time>
      </trkpt>
      <trkpt lat="43.884914" lon="5.081255">
        <ele>129.041901</ele>
        <time>2017-06-08T07:16:56.000Z</time>
      </trkpt>
      <trkpt lat="43.884853" lon="5.081156">
        <ele>128.772299</ele>
        <time>2017-06-08T07:16:58.000Z</time>
      </trkpt>
      <trkpt lat="43.884790" lon="5.081067">
        <ele>128.808258</ele>
        <time>2017-06-08T07:17:00.000Z</time>
      </trkpt>
      <trkpt lat="43.884720" lon="5.080967">
        <ele>128.966654</ele>
        <time>2017-06-08T07:17:02.000Z</time>
      </trkpt>
      <trkpt lat="43.884660" lon="5.080873">
        <ele>129.109327</ele>
        <time>2017-06-08T07:17:04.000Z</time>
      </trkpt>
      <trkpt lat="43.884594" lon="5.080758">
        <ele>129.276363</ele>
        <time>2017-06-08T07:17:06.000Z</time>
      </trkpt>
      <trkpt lat="43.884518" lon="5.080669">
        <ele>129.433151</ele>
        <time>2017-06-08T07:17:08.000Z</time>
      </trkpt>
      <trkpt lat="43.884440" lon="5.080587">
        <ele>129.587433</ele>
        <time>2017-06-08T07:17:10.000Z</time>
      </trkpt>
      <trkpt lat="43.884357" lon="5.080446">
        <ele>129.794291</ele>
        <time>2017-06-08T07:17:13.000Z</time>
      </trkpt>
      <trkpt lat="43.884285" lon="5.080322">
        <ele>129.975223</ele>
        <time>2017-06-08T07:17:16.000Z</time>
      </trkpt>
      <trkpt lat="43.884212" lon="5.080237">
        <ele>130.125466</ele>
        <time>2017-06-08T07:17:18.000Z</time>
      </trkpt>
      <trkpt lat="43.884136" lon="5.080133">
        <ele>130.293753</ele>
        <time>2017-06-08T07:17:20.000Z</time>
      </trkpt>
      <trkpt lat="43.884083" lon="5.080029">
        <ele>130.438481</ele>
        <time>2017-06-08T07:17:22.000Z</time>
      </trkpt>
      <trkpt lat="43.884018" lon="5.079928">
        <ele>130.592336</ele>
        <time>2017-06-08T07:17:24.000Z</time>
      </trkpt>
      <trkpt lat="43.883945" lon="5.079824">
        <ele>130.757290</ele>
        <time>2017-06-08T07:17:26.000Z</time>
      </trkpt>
      <trkpt lat="43.883877" lon="5.079712">
        <ele>130.923688</ele>
        <time>2017-06-08T07:17:28.000Z</time>
      </trkpt>
      <trkpt lat="43.883810" lon="5.079621">
        <ele>131.071501</ele>
        <time>2017-06-08T07:17:30.000Z</time>
      </trkpt>
      <trkpt lat="43.883743" lon="5.079531">
        <ele>131.218522</ele>
        <time>2017-06-08T07:17:32.000Z</time>
      </trkpt>
      <trkpt lat="43.883650" lon="5.079405">
        <ele>131.423448</ele>
        <time>2017-06-08T07:17:35.000Z</time>
      </trkpt>
      <trkpt lat="43.883580" lon="5.079302">
        <ele>131.583332</ele>
        <time>2017-06-08T07:17:37.000Z</time>
      </trkpt>
      <trkpt lat="43.883484" lon="5.079165">
        <ele>131.795707</ele>
        <time>2017-06-08T07:17:40.000Z</time>
      </trkpt>
      <trkpt lat="43.883420" lon="5.079071">
        <ele>131.939430</ele>
        <time>2017-06-08T07:17:42.000Z</time>
      </trkpt>
      <trkpt lat="43.883343" lon="5.078978">
        <ele>132.096860</ele>
        <time>2017-06-08T07:17:44.000Z</time>
      </trkpt>
      <trkpt lat="43.883274" lon="5.078885">
        <ele>132.245207</ele>
        <time>2017-06-08T07:17:46.000Z</time>
      </trkpt>
      <trkpt lat="43.883205" lon="5.078770">
        <ele>132.411519</ele>
        <time>2017-06-08T07:17:48.000Z</time>
      </trkpt>
      <trkpt lat="43.883140" lon="5.078681">
        <ele>132.552348</ele>
        <time>2017-06-08T07:17:50.000Z</time>
      </trkpt>
      <trkpt lat="43.883070" lon="5.078579">
        <ele>132.708890</ele>
        <time>2017-06-08T07:17:52.000Z</time>
      </trkpt>
      <trkpt lat="43.883010" lon="5.078485">
        <ele>132.848450</ele>
        <time>2017-06-08T07:17:54.000Z</time>
      </trkpt>
      <trkpt lat="43.882942" lon="5.078391">
        <ele>132.996477</ele>
        <time>2017-06-08T07:17:56.000Z</time>
      </trkpt>
      <trkpt lat="43.882850" lon="5.078266">
        <ele>133.195050</ele>
        <time>2017-06-08T07:17:59.000Z</time>
      </trkpt>
      <trkpt lat="43.882767" lon="5.078136">
        <ele>133.388080</ele>
        <time>2017-06-08T07:18:02.000Z</time>
      </trkpt>
      <trkpt lat="43.882675" lon="5.078019">
        <ele>133.580536</ele>
        <time>2017-06-08T07:18:05.000Z</time>
      </trkpt>
      <trkpt lat="43.882587" lon="5.077890">
        <ele>133.777955</ele>
        <time>2017-06-08T07:18:08.000Z</time>
      </trkpt>
      <trkpt lat="43.882530" lon="5.077793">
        <ele>133.917060</ele>
        <time>2017-06-08T07:18:10.000Z</time>
      </trkpt>
      <trkpt lat="43.882465" lon="5.077706">
        <ele>134.056337</ele>
        <time>2017-06-08T07:18:12.000Z</time>
      </trkpt>
      <trkpt lat="43.882374" lon="5.077572">
        <ele>134.260973</ele>
        <time>2017-06-08T07:18:15.000Z</time>
      </trkpt>
      <trkpt lat="43.882310" lon="5.077483">
        <ele>134.339587</ele>
        <time>2017-06-08T07:18:17.000Z</time>
      </trkpt>
      <trkpt lat="43.882236" lon="5.077395">
        <ele>134.384793</ele>
        <time>2017-06-08T07:18:19.000Z</time>
      </trkpt>
      <trkpt lat="43.882164" lon="5.077300">
        <ele>134.430879</ele>
        <time>2017-06-08T07:18:21.000Z</time>
      </trkpt>
      <trkpt lat="43.882095" lon="5.077210">
        <ele>134.474806</ele>
        <time>2017-06-08T07:18:23.000Z</time>
      </trkpt>
      <trkpt lat="43.882020" lon="5.077114">
        <ele>134.522136</ele>
        <time>2017-06-08T07:18:25.000Z</time>
      </trkpt>
      <trkpt lat="43.881943" lon="5.077014">
        <ele>134.571056</ele>
        <time>2017-06-08T07:18:27.000Z</time>
      </trkpt>
      <trkpt lat="43.881870" lon="5.076928">
        <ele>134.615475</ele>
        <time>2017-06-08T07:18:29.000Z</time>
      </trkpt>
      <trkpt lat="43.881780" lon="5.076796">
        <ele>134.676220</ele>
        <time>2017-06-08T07:18:32.000Z</time>
      </trkpt>
      <trkpt lat="43.881714" lon="5.076705">
        <ele>134.719379</ele>
        <time>2017-06-08T07:18:34.000Z</time>
      </trkpt>
      <trkpt lat="43.881645" lon="5.076617">
        <ele>134.762850</ele>
        <time>2017-06-08T07:18:36.000Z</time>
      </trkpt>
      <trkpt lat="43.881573" lon="5.076521">
        <ele>134.809167</ele>
        <time>2017-06-08T07:18:38.000Z</time>
      </trkpt>
      <trkpt lat="43.881496" lon="5.076426">
        <ele>134.856961</ele>
        <time>2017-06-08T07:18:40.000Z</time>
      </trkpt>
      <trkpt lat="43.881420" lon="5.076323">
        <ele>134.906239</ele>
        <time>2017-06-08T07:18:42.000Z</time>
      </trkpt>
      <trkpt lat="43.881344" lon="5.076211">
        <ele>134.957665</ele>
        <time>2017-06-08T07:18:44.000Z</time>
      </trkpt>
      <trkpt lat="43.881268" lon="5.076104">
        <ele>135.007886</ele>
        <time>2017-06-08T07:18:46.000Z</time>
      </trkpt>
      <trkpt lat="43.881200" lon="5.075977">
        <ele>135.060777</ele>
        <time>2017-06-08T07:18:48.000Z</time>
      </trkpt>
      <trkpt lat="43.881140" lon="5.075840">
        <ele>135.114371</ele>
        <time>2017-06-08T07:18:50.000Z</time>
      </trkpt>
      <trkpt lat="43.881084" lon="5.075718">
        <ele>135.146694</ele>
        <time>2017-06-08T07:18:52.000Z</time>
      </trkpt>
      <trkpt lat="43.881027" lon="5.075599">
        <ele>135.143991</ele>
        <time>2017-06-08T07:18:54.000Z</time>
      </trkpt>
      <trkpt lat="43.880955" lon="5.075486">
        <ele>135.141139</ele>
        <time>2017-06-08T07:18:56.000Z</time>
      </trkpt>
      <trkpt lat="43.880882" lon="5.075375">
        <ele>135.138297</ele>
        <time>2017-06-08T07:18:58.000Z</time>
      </trkpt>
      <trkpt lat="43.880817" lon="5.075264">
        <ele>135.135592</ele>
        <time>2017-06-08T07:19:00.000Z</time>
      </trkpt>
      <trkpt lat="43.880740" lon="5.075151">
        <ele>135.132651</ele>
        <time>2017-06-08T07:19:02.000Z</time>
      </trkpt>
      <trkpt lat="43.880670" lon="5.075034">
        <ele>135.129776</ele>
        <time>2017-06-08T07:19:04.000Z</time>
      </trkpt>
      <trkpt lat="43.880596" lon="5.074915">
        <ele>135.126803</ele>
        <time>2017-06-08T07:19:06.000Z</time>
      </trkpt>
      <trkpt lat="43.880505" lon="5.074798">
        <ele>135.123548</ele>
        <time>2017-06-08T07:19:08.000Z</time>
      </trkpt>
      <trkpt lat="43.880424" lon="5.074675">
        <ele>135.120397</ele>
        <time>2017-06-08T07:19:10.000Z</time>
      </trkpt>
      <trkpt lat="43.880352" lon="5.074555">
        <ele>135.117444</ele>
        <time>2017-06-08T07:19:12.000Z</time>
      </trkpt>
      <trkpt lat="43.880272" lon="5.074447">
        <ele>135.114515</ele>
        <time>2017-06-08T07:19:14.000Z</time>
      </trkpt>
      <trkpt lat="43.880190" lon="5.074339">
        <ele>135.111548</ele>
        <time>2017-06-08T07:19:16.000Z</time>
      </trkpt>
      <trkpt lat="43.880120" lon="5.074228">
        <ele>135.108759</ele>
        <time>2017-06-08T07:19:18.000Z</time>
      </trkpt>
      <trkpt lat="43.880062" lon="5.074121">
        <ele>135.106227</ele>
        <time>2017-06-08T07:19:20.000Z</time>
      </trkpt>
      <trkpt lat="43.880005" lon="5.074005">
        <ele>135.103571</ele>
        <time>2017-06-08T07:19:22.000Z</time>
      </trkpt>
      <trkpt lat="43.879936" lon="5.073907">
        <ele>135.100980</ele>
        <time>2017-06-08T07:19:24.000Z</time>
      </trkpt>
      <trkpt lat="43.879868" lon="5.073819">
        <ele>134.941368</ele>
        <time>2017-06-08T07:19:28.000Z</time>
      </trkpt>
      <trkpt lat="43.879795" lon="5.073702">
        <ele>134.685261</ele>
        <time>2017-06-08T07:19:32.000Z</time>
      </trkpt>
      <trkpt lat="43.879726" lon="5.073608">
        <ele>134.463217</ele>
        <time>2017-06-08T07:19:34.000Z</time>
      </trkpt>
      <trkpt lat="43.879658" lon="5.073506">
        <ele>134.233269</ele>
        <time>2017-06-08T07:19:36.000Z</time>
      </trkpt>
      <trkpt lat="43.879585" lon="5.073398">
        <ele>133.988229</ele>
        <time>2017-06-08T07:19:38.000Z</time>
      </trkpt>
      <trkpt lat="43.879505" lon="5.073290">
        <ele>133.731927</ele>
        <time>2017-06-08T07:19:40.000Z</time>
      </trkpt>
      <trkpt lat="43.879433" lon="5.073181">
        <ele>133.487234</ele>
        <time>2017-06-08T07:19:42.000Z</time>
      </trkpt>
      <trkpt lat="43.879364" lon="5.073078">
        <ele>133.254510</ele>
        <time>2017-06-08T07:19:44.000Z</time>
      </trkpt>
      <trkpt lat="43.879300" lon="5.072993">
        <ele>133.051077</ele>
        <time>2017-06-08T07:19:46.000Z</time>
      </trkpt>
      <trkpt lat="43.879196" lon="5.072883">
        <ele>132.750799</ele>
        <time>2017-06-08T07:19:49.000Z</time>
      </trkpt>
      <trkpt lat="43.879120" lon="5.072779">
        <ele>132.505689</ele>
        <time>2017-06-08T07:19:51.000Z</time>
      </trkpt>
      <trkpt lat="43.879040" lon="5.072672">
        <ele>132.250537</ele>
        <time>2017-06-08T07:19:53.000Z</time>
      </trkpt>
      <trkpt lat="43.878960" lon="5.072568">
        <ele>131.998806</ele>
        <time>2017-06-08T07:19:55.000Z</time>
      </trkpt>
      <trkpt lat="43.878883" lon="5.072464">
        <ele>131.752056</ele>
        <time>2017-06-08T07:19:57.000Z</time>
      </trkpt>
      <trkpt lat="43.878803" lon="5.072364">
        <ele>131.504803</ele>
        <time>2017-06-08T07:19:59.000Z</time>
      </trkpt>
      <trkpt lat="43.878727" lon="5.072263">
        <ele>131.263154</ele>
        <time>2017-06-08T07:20:01.000Z</time>
      </trkpt>
      <trkpt lat="43.878647" lon="5.072160">
        <ele>131.012551</ele>
        <time>2017-06-08T07:20:03.000Z</time>
      </trkpt>
      <trkpt lat="43.878570" lon="5.072045">
        <ele>130.961380</ele>
        <time>2017-06-08T07:20:05.000Z</time>
      </trkpt>
      <trkpt lat="43.878487" lon="5.071933">
        <ele>130.950277</ele>
        <time>2017-06-08T07:20:07.000Z</time>
      </trkpt>
      <trkpt lat="43.878407" lon="5.071819">
        <ele>130.939280</ele>
        <time>2017-06-08T07:20:09.000Z</time>
      </trkpt>
      <trkpt lat="43.878323" lon="5.071708">
        <ele>130.928156</ele>
        <time>2017-06-08T07:20:11.000Z</time>
      </trkpt>
      <trkpt lat="43.878246" lon="5.071587">
        <ele>130.917000</ele>
        <time>2017-06-08T07:20:13.000Z</time>
      </trkpt>
      <trkpt lat="43.878166" lon="5.071476">
        <ele>130.906151</ele>
        <time>2017-06-08T07:20:15.000Z</time>
      </trkpt>
      <trkpt lat="43.878086" lon="5.071373">
        <ele>130.895685</ele>
        <time>2017-06-08T07:20:17.000Z</time>
      </trkpt>
      <trkpt lat="43.878010" lon="5.071275">
        <ele>130.885735</ele>
        <time>2017-06-08T07:20:19.000Z</time>
      </trkpt>
      <trkpt lat="43.877930" lon="5.071179">
        <ele>130.875592</ele>
        <time>2017-06-08T07:20:21.000Z</time>
      </trkpt>
      <trkpt lat="43.877850" lon="5.071093">
        <ele>130.865888</ele>
        <time>2017-06-08T07:20:23.000Z</time>
      </trkpt>
      <trkpt lat="43.877777" lon="5.070996">
        <ele>130.856195</ele>
        <time>2017-06-08T07:20:25.000Z</time>
      </trkpt>
      <trkpt lat="43.877705" lon="5.070905">
        <ele>130.846855</ele>
        <time>2017-06-08T07:20:27.000Z</time>
      </trkpt>
      <trkpt lat="43.877644" lon="5.070811">
        <ele>130.838113</ele>
        <time>2017-06-08T07:20:29.000Z</time>
      </trkpt>
      <trkpt lat="43.877575" lon="5.070728">
        <ele>130.829356</ele>
        <time>2017-06-08T07:20:31.000Z</time>
      </trkpt>
      <trkpt lat="43.877476" lon="5.070610">
        <ele>130.816840</ele>
        <time>2017-06-08T07:20:34.000Z</time>
      </trkpt>
      <trkpt lat="43.877403" lon="5.070530">
        <ele>130.807919</ele>
        <time>2017-06-08T07:20:36.000Z</time>
      </trkpt>
      <trkpt lat="43.877330" lon="5.070438">
        <ele>130.798462</ele>
        <time>2017-06-08T07:20:38.000Z</time>
      </trkpt>
      <trkpt lat="43.877254" lon="5.070366">
        <ele>130.714548</ele>
        <time>2017-06-08T07:20:40.000Z</time>
      </trkpt>
      <trkpt lat="43.877167" lon="5.070289">
        <ele>130.615790</ele>
        <time>2017-06-08T07:20:42.000Z</time>
      </trkpt>
      <trkpt lat="43.877080" lon="5.070204">
        <ele>130.513957</ele>
        <time>2017-06-08T07:20:44.000Z</time>
      </trkpt>
      <trkpt lat="43.877000" lon="5.070123">
        <ele>130.419176</ele>
        <time>2017-06-08T07:20:46.000Z</time>
      </trkpt>
      <trkpt lat="43.876930" lon="5.070029">
        <ele>130.325944</ele>
        <time>2017-06-08T07:20:48.000Z</time>
      </trkpt>
      <trkpt lat="43.876865" lon="5.069943">
        <ele>130.239986</ele>
        <time>2017-06-08T07:20:50.000Z</time>
      </trkpt>
      <trkpt lat="43.876797" lon="5.069862">
        <ele>130.154214</ele>
        <time>2017-06-08T07:20:52.000Z</time>
      </trkpt>
      <trkpt lat="43.876728" lon="5.069778">
        <ele>130.066362</ele>
        <time>2017-06-08T07:20:54.000Z</time>
      </trkpt>
      <trkpt lat="43.876650" lon="5.069702">
        <ele>129.975145</ele>
        <time>2017-06-08T07:20:56.000Z</time>
      </trkpt>
      <trkpt lat="43.876553" lon="5.069607">
        <ele>129.861516</ele>
        <time>2017-06-08T07:20:59.000Z</time>
      </trkpt>
      <trkpt lat="43.876442" lon="5.069501">
        <ele>129.732556</ele>
        <time>2017-06-08T07:21:02.000Z</time>
      </trkpt>
      <trkpt lat="43.876347" lon="5.069403">
        <ele>129.619262</ele>
        <time>2017-06-08T07:21:05.000Z</time>
      </trkpt>
      <trkpt lat="43.876250" lon="5.069318">
        <ele>129.509466</ele>
        <time>2017-06-08T07:21:08.000Z</time>
      </trkpt>
      <trkpt lat="43.876156" lon="5.069233">
        <ele>129.402087</ele>
        <time>2017-06-08T07:21:11.000Z</time>
      </trkpt>
      <trkpt lat="43.876060" lon="5.069127">
        <ele>129.284668</ele>
        <time>2017-06-08T07:21:14.000Z</time>
      </trkpt>
      <trkpt lat="43.875957" lon="5.069014">
        <ele>129.159000</ele>
        <time>2017-06-08T07:21:17.000Z</time>
      </trkpt>
      <trkpt lat="43.875843" lon="5.068923">
        <ele>129.072274</ele>
        <time>2017-06-08T07:21:20.000Z</time>
      </trkpt>
      <trkpt lat="43.875732" lon="5.068827">
        <ele>129.059503</ele>
        <time>2017-06-08T07:21:23.000Z</time>
      </trkpt>
      <trkpt lat="43.875660" lon="5.068749">
        <ele>129.050583</ele>
        <time>2017-06-08T07:21:25.000Z</time>
      </trkpt>
      <trkpt lat="43.875580" lon="5.068679">
        <ele>129.041348</ele>
        <time>2017-06-08T07:21:27.000Z</time>
      </trkpt>
      <trkpt lat="43.875504" lon="5.068616">
        <ele>129.032704</ele>
        <time>2017-06-08T07:21:29.000Z</time>
      </trkpt>
      <trkpt lat="43.875400" lon="5.068524">
        <ele>129.020660</ele>
        <time>2017-06-08T07:21:32.000Z</time>
      </trkpt>
      <trkpt lat="43.875300" lon="5.068423">
        <ele>129.008583</ele>
        <time>2017-06-08T07:21:35.000Z</time>
      </trkpt>
      <trkpt lat="43.875214" lon="5.068343">
        <ele>128.998473</ele>
        <time>2017-06-08T07:21:37.000Z</time>
      </trkpt>
      <trkpt lat="43.875130" lon="5.068275">
        <ele>128.988977</ele>
        <time>2017-06-08T07:21:39.000Z</time>
      </trkpt>
      <trkpt lat="43.875023" lon="5.068174">
        <ele>128.976340</ele>
        <time>2017-06-08T07:21:42.000Z</time>
      </trkpt>
      <trkpt lat="43.874916" lon="5.068081">
        <ele>128.964011</ele>
        <time>2017-06-08T07:21:45.000Z</time>
      </trkpt>
      <trkpt lat="43.874817" lon="5.067982">
        <ele>128.952096</ele>
        <time>2017-06-08T07:21:48.000Z</time>
      </trkpt>
      <trkpt lat="43.874750" lon="5.067821">
        <ele>128.939011</ele>
        <time>2017-06-08T07:21:51.000Z</time>
      </trkpt>
      <trkpt lat="43.874640" lon="5.067735">
        <ele>128.926682</ele>
        <time>2017-06-08T07:22:11.000Z</time>
      </trkpt>
      <trkpt lat="43.874550" lon="5.067742">
        <ele>128.917881</ele>
        <time>2017-06-08T07:22:14.000Z</time>
      </trkpt>
      <trkpt lat="43.874330" lon="5.067617">
        <ele>128.973248</ele>
        <time>2017-06-08T07:22:38.000Z</time>
      </trkpt>
      <trkpt lat="43.874237" lon="5.067538">
        <ele>129.092620</ele>
        <time>2017-06-08T07:22:41.000Z</time>
      </trkpt>
      <trkpt lat="43.874153" lon="5.067456">
        <ele>129.205055</ele>
        <time>2017-06-08T07:22:43.000Z</time>
      </trkpt>
      <trkpt lat="43.874080" lon="5.067386">
        <ele>129.302197</ele>
        <time>2017-06-08T07:22:45.000Z</time>
      </trkpt>
      <trkpt lat="43.874016" lon="5.067294">
        <ele>129.403084</ele>
        <time>2017-06-08T07:22:47.000Z</time>
      </trkpt>
      <trkpt lat="43.873955" lon="5.067183">
        <ele>129.513222</ele>
        <time>2017-06-08T07:22:49.000Z</time>
      </trkpt>
      <trkpt lat="43.873880" lon="5.067043">
        <ele>129.650861</ele>
        <time>2017-06-08T07:22:52.000Z</time>
      </trkpt>
      <trkpt lat="43.873806" lon="5.066930">
        <ele>129.771329</ele>
        <time>2017-06-08T07:22:55.000Z</time>
      </trkpt>
      <trkpt lat="43.873730" lon="5.066857">
        <ele>129.872518</ele>
        <time>2017-06-08T07:22:58.000Z</time>
      </trkpt>
      <trkpt lat="43.873665" lon="5.066752">
        <ele>129.981731</ele>
        <time>2017-06-08T07:23:02.000Z</time>
      </trkpt>
      <trkpt lat="43.873573" lon="5.066715">
        <ele>130.086585</ele>
        <time>2017-06-08T07:23:10.000Z</time>
      </trkpt>
      <trkpt lat="43.873460" lon="5.066753">
        <ele>130.213863</ele>
        <time>2017-06-08T07:23:13.000Z</time>
      </trkpt>
      <trkpt lat="43.873330" lon="5.066726">
        <ele>130.357752</ele>
        <time>2017-06-08T07:23:16.000Z</time>
      </trkpt>
      <trkpt lat="43.873234" lon="5.066688">
        <ele>130.467033</ele>
        <time>2017-06-08T07:23:18.000Z</time>
      </trkpt>
      <trkpt lat="43.873142" lon="5.066645">
        <ele>130.573302</ele>
        <time>2017-06-08T07:23:20.000Z</time>
      </trkpt>
      <trkpt lat="43.873050" lon="5.066581">
        <ele>130.685963</ele>
        <time>2017-06-08T07:23:22.000Z</time>
      </trkpt>
      <trkpt lat="43.872960" lon="5.066516">
        <ele>130.797034</ele>
        <time>2017-06-08T07:23:24.000Z</time>
      </trkpt>
      <trkpt lat="43.872864" lon="5.066454">
        <ele>130.873618</ele>
        <time>2017-06-08T07:23:26.000Z</time>
      </trkpt>
      <trkpt lat="43.872765" lon="5.066397">
        <ele>130.883561</ele>
        <time>2017-06-08T07:23:28.000Z</time>
      </trkpt>
      <trkpt lat="43.872660" lon="5.066339">
        <ele>130.894044</ele>
        <time>2017-06-08T07:23:30.000Z</time>
      </trkpt>
      <trkpt lat="43.872555" lon="5.066279">
        <ele>130.904577</ele>
        <time>2017-06-08T07:23:32.000Z</time>
      </trkpt>
      <trkpt lat="43.872460" lon="5.066210">
        <ele>130.914524</ele>
        <time>2017-06-08T07:23:34.000Z</time>
      </trkpt>
      <trkpt lat="43.872360" lon="5.066148">
        <ele>130.924684</ele>
        <time>2017-06-08T07:23:36.000Z</time>
      </trkpt>
      <trkpt lat="43.872260" lon="5.066091">
        <ele>130.934712</ele>
        <time>2017-06-08T07:23:38.000Z</time>
      </trkpt>
      <trkpt lat="43.872158" lon="5.066019">
        <ele>130.945328</ele>
        <time>2017-06-08T07:23:40.000Z</time>
      </trkpt>
      <trkpt lat="43.872060" lon="5.065968">
        <ele>130.955037</ele>
        <time>2017-06-08T07:23:42.000Z</time>
      </trkpt>
      <trkpt lat="43.871960" lon="5.065915">
        <ele>130.964966</ele>
        <time>2017-06-08T07:23:44.000Z</time>
      </trkpt>
      <trkpt lat="43.871853" lon="5.065867">
        <ele>130.975397</ele>
        <time>2017-06-08T07:23:46.000Z</time>
      </trkpt>
      <trkpt lat="43.871742" lon="5.065815">
        <ele>130.986265</ele>
        <time>2017-06-08T07:23:48.000Z</time>
      </trkpt>
      <trkpt lat="43.871630" lon="5.065769">
        <ele>130.997099</ele>
        <time>2017-06-08T07:23:50.000Z</time>
      </trkpt>
      <trkpt lat="43.871517" lon="5.065714">
        <ele>131.008207</ele>
        <time>2017-06-08T07:23:52.000Z</time>
      </trkpt>
      <trkpt lat="43.871407" lon="5.065661">
        <ele>131.019008</ele>
        <time>2017-06-08T07:23:54.000Z</time>
      </trkpt>
      <trkpt lat="43.871292" lon="5.065602">
        <ele>131.030382</ele>
        <time>2017-06-08T07:23:56.000Z</time>
      </trkpt>
      <trkpt lat="43.871180" lon="5.065538">
        <ele>131.023224</ele>
        <time>2017-06-08T07:23:58.000Z</time>
      </trkpt>
      <trkpt lat="43.871075" lon="5.065485">
        <ele>130.993910</ele>
        <time>2017-06-08T07:24:00.000Z</time>
      </trkpt>
      <trkpt lat="43.870968" lon="5.065436">
        <ele>130.964347</ele>
        <time>2017-06-08T07:24:02.000Z</time>
      </trkpt>
      <trkpt lat="43.870860" lon="5.065389">
        <ele>130.934651</ele>
        <time>2017-06-08T07:24:04.000Z</time>
      </trkpt>
      <trkpt lat="43.870750" lon="5.065337">
        <ele>130.904162</ele>
        <time>2017-06-08T07:24:06.000Z</time>
      </trkpt>
      <trkpt lat="43.870650" lon="5.065284">
        <ele>130.876076</ele>
        <time>2017-06-08T07:24:08.000Z</time>
      </trkpt>
      <trkpt lat="43.870537" lon="5.065209">
        <ele>130.843211</ele>
        <time>2017-06-08T07:24:10.000Z</time>
      </trkpt>
      <trkpt lat="43.870422" lon="5.065154">
        <ele>130.811297</ele>
        <time>2017-06-08T07:24:12.000Z</time>
      </trkpt>
      <trkpt lat="43.870323" lon="5.065083">
        <ele>130.782057</ele>
        <time>2017-06-08T07:24:14.000Z</time>
      </trkpt>
      <trkpt lat="43.870213" lon="5.065027">
        <ele>130.751316</ele>
        <time>2017-06-08T07:24:16.000Z</time>
      </trkpt>
      <trkpt lat="43.870100" lon="5.064962">
        <ele>130.719221</ele>
        <time>2017-06-08T07:24:18.000Z</time>
      </trkpt>
      <trkpt lat="43.869984" lon="5.064899">
        <ele>130.686538</ele>
        <time>2017-06-08T07:24:20.000Z</time>
      </trkpt>
      <trkpt lat="43.869873" lon="5.064847">
        <ele>130.655801</ele>
        <time>2017-06-08T07:24:22.000Z</time>
      </trkpt>
      <trkpt lat="43.869747" lon="5.064798">
        <ele>130.621469</ele>
        <time>2017-06-08T07:24:24.000Z</time>
      </trkpt>
      <trkpt lat="43.869633" lon="5.064735">
        <ele>130.589274</ele>
        <time>2017-06-08T07:24:26.000Z</time>
      </trkpt>
      <trkpt lat="43.869534" lon="5.064678">
        <ele>130.548692</ele>
        <time>2017-06-08T07:24:28.000Z</time>
      </trkpt>
      <trkpt lat="43.869440" lon="5.064623">
        <ele>130.433541</ele>
        <time>2017-06-08T07:24:30.000Z</time>
      </trkpt>
      <trkpt lat="43.869340" lon="5.064574">
        <ele>130.313836</ele>
        <time>2017-06-08T07:24:33.000Z</time>
      </trkpt>
      <trkpt lat="43.869232" lon="5.064526">
        <ele>130.185832</ele>
        <time>2017-06-08T07:24:34.000Z</time>
      </trkpt>
      <trkpt lat="43.869125" lon="5.064481">
        <ele>130.059632</ele>
        <time>2017-06-08T07:24:36.000Z</time>
      </trkpt>
      <trkpt lat="43.869026" lon="5.064437">
        <ele>129.942294</ele>
        <time>2017-06-08T07:24:38.000Z</time>
      </trkpt>
      <trkpt lat="43.868927" lon="5.064389">
        <ele>129.823923</ele>
        <time>2017-06-08T07:24:40.000Z</time>
      </trkpt>
      <trkpt lat="43.868828" lon="5.064333">
        <ele>129.703248</ele>
        <time>2017-06-08T07:24:42.000Z</time>
      </trkpt>
      <trkpt lat="43.868725" lon="5.064286">
        <ele>129.580863</ele>
        <time>2017-06-08T07:24:44.000Z</time>
      </trkpt>
      <trkpt lat="43.868614" lon="5.064240">
        <ele>129.450105</ele>
        <time>2017-06-08T07:24:46.000Z</time>
      </trkpt>
      <trkpt lat="43.868500" lon="5.064189">
        <ele>129.314906</ele>
        <time>2017-06-08T07:24:48.000Z</time>
      </trkpt>
      <trkpt lat="43.868390" lon="5.064127">
        <ele>129.180890</ele>
        <time>2017-06-08T07:24:50.000Z</time>
      </trkpt>
      <trkpt lat="43.868280" lon="5.064077">
        <ele>129.050237</ele>
        <time>2017-06-08T07:24:52.000Z</time>
      </trkpt>
      <trkpt lat="43.868168" lon="5.064039">
        <ele>128.920095</ele>
        <time>2017-06-08T07:24:54.000Z</time>
      </trkpt>
      <trkpt lat="43.868046" lon="5.063987">
        <ele>128.776039</ele>
        <time>2017-06-08T07:24:56.000Z</time>
      </trkpt>
      <trkpt lat="43.867924" lon="5.063935">
        <ele>128.631983</ele>
        <time>2017-06-08T07:24:58.000Z</time>
      </trkpt>
      <trkpt lat="43.867805" lon="5.063891">
        <ele>128.515283</ele>
        <time>2017-06-08T07:25:00.000Z</time>
      </trkpt>
      <trkpt lat="43.867687" lon="5.063838">
        <ele>128.449963</ele>
        <time>2017-06-08T07:25:02.000Z</time>
      </trkpt>
      <trkpt lat="43.867570" lon="5.063790">
        <ele>128.385708</ele>
        <time>2017-06-08T07:25:04.000Z</time>
      </trkpt>
      <trkpt lat="43.867447" lon="5.063735">
        <ele>128.317649</ele>
        <time>2017-06-08T07:25:06.000Z</time>
      </trkpt>
      <trkpt lat="43.867320" lon="5.063680">
        <ele>128.247583</ele>
        <time>2017-06-08T07:25:08.000Z</time>
      </trkpt>
      <trkpt lat="43.867200" lon="5.063635">
        <ele>128.182118</ele>
        <time>2017-06-08T07:25:10.000Z</time>
      </trkpt>
      <trkpt lat="43.867080" lon="5.063582">
        <ele>128.115795</ele>
        <time>2017-06-08T07:25:12.000Z</time>
      </trkpt>
      <trkpt lat="43.866962" lon="5.063530">
        <ele>128.050591</ele>
        <time>2017-06-08T07:25:14.000Z</time>
      </trkpt>
      <trkpt lat="43.866844" lon="5.063479">
        <ele>127.985501</ele>
        <time>2017-06-08T07:25:16.000Z</time>
      </trkpt>
      <trkpt lat="43.866722" lon="5.063419">
        <ele>127.917333</ele>
        <time>2017-06-08T07:25:18.000Z</time>
      </trkpt>
      <trkpt lat="43.866604" lon="5.063374">
        <ele>127.852884</ele>
        <time>2017-06-08T07:25:20.000Z</time>
      </trkpt>
      <trkpt lat="43.866478" lon="5.063317">
        <ele>127.783088</ele>
        <time>2017-06-08T07:25:22.000Z</time>
      </trkpt>
      <trkpt lat="43.866360" lon="5.063262">
        <ele>127.717530</ele>
        <time>2017-06-08T07:25:24.000Z</time>
      </trkpt>
      <trkpt lat="43.866250" lon="5.063213">
        <ele>127.656686</ele>
        <time>2017-06-08T07:25:26.000Z</time>
      </trkpt>
      <trkpt lat="43.866135" lon="5.063158">
        <ele>127.592623</ele>
        <time>2017-06-08T07:25:28.000Z</time>
      </trkpt>
      <trkpt lat="43.866024" lon="5.063106">
        <ele>127.733108</ele>
        <time>2017-06-08T07:25:30.000Z</time>
      </trkpt>
      <trkpt lat="43.865906" lon="5.063061">
        <ele>127.898711</ele>
        <time>2017-06-08T07:25:32.000Z</time>
      </trkpt>
      <trkpt lat="43.865788" lon="5.063008">
        <ele>128.066551</ele>
        <time>2017-06-08T07:25:34.000Z</time>
      </trkpt>
      <trkpt lat="43.865680" lon="5.062956">
        <ele>128.221252</ele>
        <time>2017-06-08T07:25:36.000Z</time>
      </trkpt>
      <trkpt lat="43.865570" lon="5.062882">
        <ele>128.386687</ele>
        <time>2017-06-08T07:25:38.000Z</time>
      </trkpt>
      <trkpt lat="43.865460" lon="5.062820">
        <ele>128.547360</ele>
        <time>2017-06-08T07:25:40.000Z</time>
      </trkpt>
      <trkpt lat="43.865340" lon="5.062755">
        <ele>128.721687</ele>
        <time>2017-06-08T07:25:42.000Z</time>
      </trkpt>
      <trkpt lat="43.865227" lon="5.062691">
        <ele>128.886855</ele>
        <time>2017-06-08T07:25:44.000Z</time>
      </trkpt>
      <trkpt lat="43.865112" lon="5.062645">
        <ele>129.048815</ele>
        <time>2017-06-08T07:25:46.000Z</time>
      </trkpt>
      <trkpt lat="43.864998" lon="5.062598">
        <ele>129.209750</ele>
        <time>2017-06-08T07:25:48.000Z</time>
      </trkpt>
      <trkpt lat="43.864887" lon="5.062516">
        <ele>129.379931</ele>
        <time>2017-06-08T07:25:50.000Z</time>
      </trkpt>
      <trkpt lat="43.864773" lon="5.062459">
        <ele>129.543913</ele>
        <time>2017-06-08T07:25:52.000Z</time>
      </trkpt>
      <trkpt lat="43.864647" lon="5.062391">
        <ele>129.726868</ele>
        <time>2017-06-08T07:25:54.000Z</time>
      </trkpt>
      <trkpt lat="43.864532" lon="5.062333">
        <ele>129.892455</ele>
        <time>2017-06-08T07:25:56.000Z</time>
      </trkpt>
      <trkpt lat="43.864418" lon="5.062275">
        <ele>129.998173</ele>
        <time>2017-06-08T07:25:58.000Z</time>
      </trkpt>
      <trkpt lat="43.864304" lon="5.062203">
        <ele>129.886193</ele>
        <time>2017-06-08T07:26:00.000Z</time>
      </trkpt>
      <trkpt lat="43.864193" lon="5.062124">
        <ele>129.774662</ele>
        <time>2017-06-08T07:26:02.000Z</time>
      </trkpt>
      <trkpt lat="43.864080" lon="5.062038">
        <ele>129.659435</ele>
        <time>2017-06-08T07:26:04.000Z</time>
      </trkpt>
      <trkpt lat="43.863970" lon="5.061966">
        <ele>129.550699</ele>
        <time>2017-06-08T07:26:06.000Z</time>
      </trkpt>
      <trkpt lat="43.863860" lon="5.061920">
        <ele>129.447991</ele>
        <time>2017-06-08T07:26:08.000Z</time>
      </trkpt>
      <trkpt lat="43.863754" lon="5.061864">
        <ele>129.346589</ele>
        <time>2017-06-08T07:26:10.000Z</time>
      </trkpt>
      <trkpt lat="43.863650" lon="5.061804">
        <ele>129.245895</ele>
        <time>2017-06-08T07:26:12.000Z</time>
      </trkpt>
      <trkpt lat="43.863544" lon="5.061747">
        <ele>129.144262</ele>
        <time>2017-06-08T07:26:14.000Z</time>
      </trkpt>
      <trkpt lat="43.863438" lon="5.061678">
        <ele>129.039584</ele>
        <time>2017-06-08T07:26:16.000Z</time>
      </trkpt>
      <trkpt lat="43.863330" lon="5.061615">
        <ele>128.934845</ele>
        <time>2017-06-08T07:26:18.000Z</time>
      </trkpt>
      <trkpt lat="43.863228" lon="5.061553">
        <ele>128.835288</ele>
        <time>2017-06-08T07:26:20.000Z</time>
      </trkpt>
      <trkpt lat="43.863113" lon="5.061480">
        <ele>128.722227</ele>
        <time>2017-06-08T07:26:22.000Z</time>
      </trkpt>
      <trkpt lat="43.863007" lon="5.061405">
        <ele>128.615848</ele>
        <time>2017-06-08T07:26:24.000Z</time>
      </trkpt>
      <trkpt lat="43.862904" lon="5.061329">
        <ele>128.511551</ele>
        <time>2017-06-08T07:26:26.000Z</time>
      </trkpt>
      <trkpt lat="43.862797" lon="5.061251">
        <ele>128.417363</ele>
        <time>2017-06-08T07:26:28.000Z</time>
      </trkpt>
      <trkpt lat="43.862690" lon="5.061175">
        <ele>128.457912</ele>
        <time>2017-06-08T07:26:30.000Z</time>
      </trkpt>
      <trkpt lat="43.862583" lon="5.061103">
        <ele>128.498028</ele>
        <time>2017-06-08T07:26:32.000Z</time>
      </trkpt>
      <trkpt lat="43.862473" lon="5.061024">
        <ele>128.539811</ele>
        <time>2017-06-08T07:26:34.000Z</time>
      </trkpt>
      <trkpt lat="43.862373" lon="5.060932">
        <ele>128.580288</ele>
        <time>2017-06-08T07:26:36.000Z</time>
      </trkpt>
      <trkpt lat="43.862267" lon="5.060848">
        <ele>128.621468</ele>
        <time>2017-06-08T07:26:38.000Z</time>
      </trkpt>
      <trkpt lat="43.862150" lon="5.060762">
        <ele>128.666133</ele>
        <time>2017-06-08T07:26:40.000Z</time>
      </trkpt>
      <trkpt lat="43.862038" lon="5.060667">
        <ele>128.710416</ele>
        <time>2017-06-08T07:26:42.000Z</time>
      </trkpt>
      <trkpt lat="43.861935" lon="5.060570">
        <ele>128.752411</ele>
        <time>2017-06-08T07:26:44.000Z</time>
      </trkpt>
      <trkpt lat="43.861820" lon="5.060484">
        <ele>128.796481</ele>
        <time>2017-06-08T07:26:46.000Z</time>
      </trkpt>
      <trkpt lat="43.861720" lon="5.060406">
        <ele>128.835181</ele>
        <time>2017-06-08T07:26:48.000Z</time>
      </trkpt>
      <trkpt lat="43.861630" lon="5.060336">
        <ele>128.869986</ele>
        <time>2017-06-08T07:26:50.000Z</time>
      </trkpt>
      <trkpt lat="43.861538" lon="5.060256">
        <ele>128.906614</ele>
        <time>2017-06-08T07:26:52.000Z</time>
      </trkpt>
      <trkpt lat="43.861454" lon="5.060176">
        <ele>128.940985</ele>
        <time>2017-06-08T07:26:54.000Z</time>
      </trkpt>
      <trkpt lat="43.861360" lon="5.060095">
        <ele>128.978313</ele>
        <time>2017-06-08T07:26:56.000Z</time>
      </trkpt>
      <trkpt lat="43.861260" lon="5.060010">
        <ele>129.017875</ele>
        <time>2017-06-08T07:26:58.000Z</time>
      </trkpt>
      <trkpt lat="43.861156" lon="5.059907">
        <ele>129.022275</ele>
        <time>2017-06-08T07:27:00.000Z</time>
      </trkpt>
      <trkpt lat="43.861057" lon="5.059810">
        <ele>129.024296</ele>
        <time>2017-06-08T07:27:02.000Z</time>
      </trkpt>
      <trkpt lat="43.860970" lon="5.059714">
        <ele>129.026151</ele>
        <time>2017-06-08T07:27:04.000Z</time>
      </trkpt>
      <trkpt lat="43.860890" lon="5.059626">
        <ele>129.027854</ele>
        <time>2017-06-08T07:27:06.000Z</time>
      </trkpt>
      <trkpt lat="43.860810" lon="5.059538">
        <ele>129.029557</ele>
        <time>2017-06-08T07:27:08.000Z</time>
      </trkpt>
      <trkpt lat="43.860733" lon="5.059455">
        <ele>129.031184</ele>
        <time>2017-06-08T07:27:10.000Z</time>
      </trkpt>
      <trkpt lat="43.860657" lon="5.059376">
        <ele>129.032768</ele>
        <time>2017-06-08T07:27:12.000Z</time>
      </trkpt>
      <trkpt lat="43.860580" lon="5.059292">
        <ele>129.034402</ele>
        <time>2017-06-08T07:27:14.000Z</time>
      </trkpt>
      <trkpt lat="43.860500" lon="5.059195">
        <ele>129.036174</ele>
        <time>2017-06-08T07:27:16.000Z</time>
      </trkpt>
      <trkpt lat="43.860424" lon="5.059094">
        <ele>129.037930</ele>
        <time>2017-06-08T07:27:18.000Z</time>
      </trkpt>
      <trkpt lat="43.860344" lon="5.058998">
        <ele>129.039694</ele>
        <time>2017-06-08T07:27:20.000Z</time>
      </trkpt>
      <trkpt lat="43.860270" lon="5.058888">
        <ele>129.041504</ele>
        <time>2017-06-08T07:27:22.000Z</time>
      </trkpt>
      <trkpt lat="43.860203" lon="5.058780">
        <ele>129.043217</ele>
        <time>2017-06-08T07:27:24.000Z</time>
      </trkpt>
      <trkpt lat="43.860123" lon="5.058682">
        <ele>129.044998</ele>
        <time>2017-06-08T07:27:26.000Z</time>
      </trkpt>
      <trkpt lat="43.860054" lon="5.058585">
        <ele>129.046636</ele>
        <time>2017-06-08T07:27:28.000Z</time>
      </trkpt>
      <trkpt lat="43.859980" lon="5.058479">
        <ele>129.048411</ele>
        <time>2017-06-08T07:27:30.000Z</time>
      </trkpt>
      <trkpt lat="43.859905" lon="5.058383">
        <ele>129.050113</ele>
        <time>2017-06-08T07:27:32.000Z</time>
      </trkpt>
      <trkpt lat="43.859820" lon="5.058281">
        <ele>128.891998</ele>
        <time>2017-06-08T07:27:34.000Z</time>
      </trkpt>
      <trkpt lat="43.859740" lon="5.058169">
        <ele>128.718153</ele>
        <time>2017-06-08T07:27:36.000Z</time>
      </trkpt>
      <trkpt lat="43.859653" lon="5.058058">
        <ele>128.537363</ele>
        <time>2017-06-08T07:27:38.000Z</time>
      </trkpt>
      <trkpt lat="43.859570" lon="5.057934">
        <ele>128.350791</ele>
        <time>2017-06-08T07:27:40.000Z</time>
      </trkpt>
      <trkpt lat="43.859490" lon="5.057816">
        <ele>128.172185</ele>
        <time>2017-06-08T07:27:42.000Z</time>
      </trkpt>
      <trkpt lat="43.859398" lon="5.057705">
        <ele>127.985695</ele>
        <time>2017-06-08T07:27:45.000Z</time>
      </trkpt>
      <trkpt lat="43.859320" lon="5.057626">
        <ele>127.837984</ele>
        <time>2017-06-08T07:27:48.000Z</time>
      </trkpt>
      <trkpt lat="43.859180" lon="5.057477">
        <ele>127.568098</ele>
        <time>2017-06-08T07:28:08.000Z</time>
      </trkpt>
      <trkpt lat="43.859100" lon="5.057389">
        <ele>127.411940</ele>
        <time>2017-06-08T07:28:11.000Z</time>
      </trkpt>
      <trkpt lat="43.859028" lon="5.057244">
        <ele>127.217798</ele>
        <time>2017-06-08T07:28:14.000Z</time>
      </trkpt>
      <trkpt lat="43.858963" lon="5.057143">
        <ele>127.068512</ele>
        <time>2017-06-08T07:28:16.000Z</time>
      </trkpt>
      <trkpt lat="43.858894" lon="5.057049">
        <ele>126.920593</ele>
        <time>2017-06-08T07:28:18.000Z</time>
      </trkpt>
      <trkpt lat="43.858826" lon="5.056949">
        <ele>126.769018</ele>
        <time>2017-06-08T07:28:20.000Z</time>
      </trkpt>
      <trkpt lat="43.858753" lon="5.056846">
        <ele>126.609756</ele>
        <time>2017-06-08T07:28:22.000Z</time>
      </trkpt>
      <trkpt lat="43.858680" lon="5.056746">
        <ele>126.452836</ele>
        <time>2017-06-08T07:28:24.000Z</time>
      </trkpt>
      <trkpt lat="43.858600" lon="5.056639">
        <ele>126.302269</ele>
        <time>2017-06-08T07:28:26.000Z</time>
      </trkpt>
      <trkpt lat="43.858524" lon="5.056538">
        <ele>126.328729</ele>
        <time>2017-06-08T07:28:28.000Z</time>
      </trkpt>
      <trkpt lat="43.858450" lon="5.056425">
        <ele>126.356398</ele>
        <time>2017-06-08T07:28:30.000Z</time>
      </trkpt>
      <trkpt lat="43.858376" lon="5.056316">
        <ele>126.383535</ele>
        <time>2017-06-08T07:28:32.000Z</time>
      </trkpt>
      <trkpt lat="43.858300" lon="5.056208">
        <ele>126.410888</ele>
        <time>2017-06-08T07:28:34.000Z</time>
      </trkpt>
      <trkpt lat="43.858223" lon="5.056100">
        <ele>126.438418</ele>
        <time>2017-06-08T07:28:36.000Z</time>
      </trkpt>
      <trkpt lat="43.858140" lon="5.055997">
        <ele>126.466417</ele>
        <time>2017-06-08T07:28:38.000Z</time>
      </trkpt>
      <trkpt lat="43.858050" lon="5.055880">
        <ele>126.497426</ele>
        <time>2017-06-08T07:28:40.000Z</time>
      </trkpt>
      <trkpt lat="43.857967" lon="5.055774">
        <ele>126.525790</ele>
        <time>2017-06-08T07:28:42.000Z</time>
      </trkpt>
      <trkpt lat="43.857883" lon="5.055666">
        <ele>126.554585</ele>
        <time>2017-06-08T07:28:44.000Z</time>
      </trkpt>
      <trkpt lat="43.857800" lon="5.055561">
        <ele>126.582826</ele>
        <time>2017-06-08T07:28:46.000Z</time>
      </trkpt>
      <trkpt lat="43.857720" lon="5.055448">
        <ele>126.611531</ele>
        <time>2017-06-08T07:28:48.000Z</time>
      </trkpt>
      <trkpt lat="43.857635" lon="5.055339">
        <ele>126.640633</ele>
        <time>2017-06-08T07:28:50.000Z</time>
      </trkpt>
      <trkpt lat="43.857550" lon="5.055226">
        <ele>126.670232</ele>
        <time>2017-06-08T07:28:52.000Z</time>
      </trkpt>
      <trkpt lat="43.857470" lon="5.055124">
        <ele>126.697550</ele>
        <time>2017-06-08T07:28:54.000Z</time>
      </trkpt>
      <trkpt lat="43.857384" lon="5.055027">
        <ele>126.725416</ele>
        <time>2017-06-08T07:28:56.000Z</time>
      </trkpt>
      <trkpt lat="43.857304" lon="5.054913">
        <ele>126.767769</ele>
        <time>2017-06-08T07:28:58.000Z</time>
      </trkpt>
      <trkpt lat="43.857224" lon="5.054808">
        <ele>126.940805</ele>
        <time>2017-06-08T07:29:00.000Z</time>
      </trkpt>
      <trkpt lat="43.857136" lon="5.054717">
        <ele>127.113250</ele>
        <time>2017-06-08T07:29:02.000Z</time>
      </trkpt>
      <trkpt lat="43.857050" lon="5.054612">
        <ele>127.293248</ele>
        <time>2017-06-08T07:29:04.000Z</time>
      </trkpt>
      <trkpt lat="43.856960" lon="5.054520">
        <ele>127.468892</ele>
        <time>2017-06-08T07:29:06.000Z</time>
      </trkpt>
      <trkpt lat="43.856865" lon="5.054435">
        <ele>127.646498</ele>
        <time>2017-06-08T07:29:08.000Z</time>
      </trkpt>
      <trkpt lat="43.856773" lon="5.054351">
        <ele>127.819536</ele>
        <time>2017-06-08T07:29:10.000Z</time>
      </trkpt>
      <trkpt lat="43.856680" lon="5.054271">
        <ele>127.991458</ele>
        <time>2017-06-08T07:29:12.000Z</time>
      </trkpt>
      <trkpt lat="43.856590" lon="5.054184">
        <ele>128.163802</ele>
        <time>2017-06-08T07:29:14.000Z</time>
      </trkpt>
      <trkpt lat="43.856490" lon="5.054103">
        <ele>128.345731</ele>
        <time>2017-06-08T07:29:16.000Z</time>
      </trkpt>
      <trkpt lat="43.856396" lon="5.054020">
        <ele>128.520792</ele>
        <time>2017-06-08T07:29:18.000Z</time>
      </trkpt>
      <trkpt lat="43.856300" lon="5.053933">
        <ele>128.700949</ele>
        <time>2017-06-08T07:29:20.000Z</time>
      </trkpt>
      <trkpt lat="43.856197" lon="5.053845">
        <ele>128.890999</ele>
        <time>2017-06-08T07:29:22.000Z</time>
      </trkpt>
      <trkpt lat="43.856100" lon="5.053773">
        <ele>129.063836</ele>
        <time>2017-06-08T07:29:24.000Z</time>
      </trkpt>
      <trkpt lat="43.856000" lon="5.053703">
        <ele>129.239810</ele>
        <time>2017-06-08T07:29:26.000Z</time>
      </trkpt>
      <trkpt lat="43.855896" lon="5.053636">
        <ele>129.419957</ele>
        <time>2017-06-08T07:29:28.000Z</time>
      </trkpt>
      <trkpt lat="43.855804" lon="5.053558">
        <ele>129.577527</ele>
        <time>2017-06-08T07:29:30.000Z</time>
      </trkpt>
      <trkpt lat="43.855724" lon="5.053484">
        <ele>129.580827</ele>
        <time>2017-06-08T07:29:32.000Z</time>
      </trkpt>
      <trkpt lat="43.855637" lon="5.053421">
        <ele>129.584194</ele>
        <time>2017-06-08T07:29:34.000Z</time>
      </trkpt>
      <trkpt lat="43.855537" lon="5.053338">
        <ele>129.588193</ele>
        <time>2017-06-08T07:29:36.000Z</time>
      </trkpt>
      <trkpt lat="43.855440" lon="5.053259">
        <ele>129.592053</ele>
        <time>2017-06-08T07:29:38.000Z</time>
      </trkpt>
      <trkpt lat="43.855343" lon="5.053192">
        <ele>129.595772</ele>
        <time>2017-06-08T07:29:40.000Z</time>
      </trkpt>
      <trkpt lat="43.855247" lon="5.053116">
        <ele>129.599565</ele>
        <time>2017-06-08T07:29:42.000Z</time>
      </trkpt>
      <trkpt lat="43.855150" lon="5.053043">
        <ele>129.603352</ele>
        <time>2017-06-08T07:29:44.000Z</time>
      </trkpt>
      <trkpt lat="43.855040" lon="5.052969">
        <ele>129.607547</ele>
        <time>2017-06-08T07:29:46.000Z</time>
      </trkpt>
      <trkpt lat="43.854930" lon="5.052898">
        <ele>129.611710</ele>
        <time>2017-06-08T07:29:48.000Z</time>
      </trkpt>
      <trkpt lat="43.854828" lon="5.052837">
        <ele>129.615521</ele>
        <time>2017-06-08T07:29:50.000Z</time>
      </trkpt>
      <trkpt lat="43.854725" lon="5.052779">
        <ele>129.619336</ele>
        <time>2017-06-08T07:29:52.000Z</time>
      </trkpt>
      <trkpt lat="43.854626" lon="5.052726">
        <ele>129.622977</ele>
        <time>2017-06-08T07:29:54.000Z</time>
      </trkpt>
      <trkpt lat="43.854527" lon="5.052661">
        <ele>129.626736</ele>
        <time>2017-06-08T07:29:56.000Z</time>
      </trkpt>
      <trkpt lat="43.854424" lon="5.052586">
        <ele>129.630728</ele>
        <time>2017-06-08T07:29:58.000Z</time>
      </trkpt>
      <trkpt lat="43.854324" lon="5.052507">
        <ele>129.634677</ele>
        <time>2017-06-08T07:30:00.000Z</time>
      </trkpt>
      <trkpt lat="43.854220" lon="5.052436">
        <ele>129.638654</ele>
        <time>2017-06-08T07:30:02.000Z</time>
      </trkpt>
      <trkpt lat="43.854110" lon="5.052367">
        <ele>129.552354</ele>
        <time>2017-06-08T07:30:04.000Z</time>
      </trkpt>
      <trkpt lat="43.854008" lon="5.052296">
        <ele>129.463474</ele>
        <time>2017-06-08T07:30:06.000Z</time>
      </trkpt>
      <trkpt lat="43.853900" lon="5.052220">
        <ele>129.369157</ele>
        <time>2017-06-08T07:30:08.000Z</time>
      </trkpt>
      <trkpt lat="43.853806" lon="5.052144">
        <ele>129.284418</ele>
        <time>2017-06-08T07:30:10.000Z</time>
      </trkpt>
      <trkpt lat="43.853700" lon="5.052074">
        <ele>129.192986</ele>
        <time>2017-06-08T07:30:12.000Z</time>
      </trkpt>
      <trkpt lat="43.853603" lon="5.051995">
        <ele>129.105380</ele>
        <time>2017-06-08T07:30:14.000Z</time>
      </trkpt>
      <trkpt lat="43.853504" lon="5.051925">
        <ele>129.018838</ele>
        <time>2017-06-08T07:30:16.000Z</time>
      </trkpt>
      <trkpt lat="43.853410" lon="5.051865">
        <ele>128.938250</ele>
        <time>2017-06-08T07:30:18.000Z</time>
      </trkpt>
      <trkpt lat="43.853320" lon="5.051801">
        <ele>128.859482</ele>
        <time>2017-06-08T07:30:20.000Z</time>
      </trkpt>
      <trkpt lat="43.853226" lon="5.051737">
        <ele>128.777930</ele>
        <time>2017-06-08T07:30:22.000Z</time>
      </trkpt>
      <trkpt lat="43.853130" lon="5.051668">
        <ele>128.693722</ele>
        <time>2017-06-08T07:30:24.000Z</time>
      </trkpt>
      <trkpt lat="43.853030" lon="5.051605">
        <ele>128.608185</ele>
        <time>2017-06-08T07:30:26.000Z</time>
      </trkpt>
      <trkpt lat="43.852936" lon="5.051522">
        <ele>128.521400</ele>
        <time>2017-06-08T07:30:28.000Z</time>
      </trkpt>
      <trkpt lat="43.852833" lon="5.051442">
        <ele>128.429461</ele>
        <time>2017-06-08T07:30:30.000Z</time>
      </trkpt>
      <trkpt lat="43.852730" lon="5.051368">
        <ele>128.339121</ele>
        <time>2017-06-08T07:30:32.000Z</time>
      </trkpt>
      <trkpt lat="43.852630" lon="5.051281">
        <ele>128.247185</ele>
        <time>2017-06-08T07:30:34.000Z</time>
      </trkpt>
      <trkpt lat="43.852540" lon="5.051211">
        <ele>128.333471</ele>
        <time>2017-06-08T07:30:36.000Z</time>
      </trkpt>
      <trkpt lat="43.852450" lon="5.051138">
        <ele>128.441749</ele>
        <time>2017-06-08T07:30:38.000Z</time>
      </trkpt>
      <trkpt lat="43.852360" lon="5.051054">
        <ele>128.554411</ele>
        <time>2017-06-08T07:30:40.000Z</time>
      </trkpt>
      <trkpt lat="43.852264" lon="5.050973">
        <ele>128.671109</ele>
        <time>2017-06-08T07:30:42.000Z</time>
      </trkpt>
      <trkpt lat="43.852170" lon="5.050892">
        <ele>128.786039</ele>
        <time>2017-06-08T07:30:44.000Z</time>
      </trkpt>
      <trkpt lat="43.852070" lon="5.050812">
        <ele>128.905930</ele>
        <time>2017-06-08T07:30:46.000Z</time>
      </trkpt>
      <trkpt lat="43.851970" lon="5.050729">
        <ele>129.026960</ele>
        <time>2017-06-08T07:30:48.000Z</time>
      </trkpt>
      <trkpt lat="43.851868" lon="5.050640">
        <ele>129.152110</ele>
        <time>2017-06-08T07:30:50.000Z</time>
      </trkpt>
      <trkpt lat="43.851765" lon="5.050543">
        <ele>129.281409</ele>
        <time>2017-06-08T07:30:52.000Z</time>
      </trkpt>
      <trkpt lat="43.851670" lon="5.050451">
        <ele>129.401742</ele>
        <time>2017-06-08T07:30:54.000Z</time>
      </trkpt>
      <trkpt lat="43.851570" lon="5.050355">
        <ele>129.528048</ele>
        <time>2017-06-08T07:30:56.000Z</time>
      </trkpt>
      <trkpt lat="43.851470" lon="5.050273">
        <ele>129.648695</ele>
        <time>2017-06-08T07:30:58.000Z</time>
      </trkpt>
      <trkpt lat="43.851370" lon="5.050183">
        <ele>129.772498</ele>
        <time>2017-06-08T07:31:00.000Z</time>
      </trkpt>
      <trkpt lat="43.851276" lon="5.050094">
        <ele>129.890700</ele>
        <time>2017-06-08T07:31:02.000Z</time>
      </trkpt>
      <trkpt lat="43.851177" lon="5.050014">
        <ele>130.009693</ele>
        <time>2017-06-08T07:31:04.000Z</time>
      </trkpt>
      <trkpt lat="43.851090" lon="5.049929">
        <ele>130.135059</ele>
        <time>2017-06-08T07:31:06.000Z</time>
      </trkpt>
      <trkpt lat="43.851000" lon="5.049848">
        <ele>130.363729</ele>
        <time>2017-06-08T07:31:08.000Z</time>
      </trkpt>
      <trkpt lat="43.850914" lon="5.049754">
        <ele>130.597110</ele>
        <time>2017-06-08T07:31:10.000Z</time>
      </trkpt>
      <trkpt lat="43.850810" lon="5.049677">
        <ele>130.848375</ele>
        <time>2017-06-08T07:31:12.000Z</time>
      </trkpt>
      <trkpt lat="43.850716" lon="5.049597">
        <ele>131.083435</ele>
        <time>2017-06-08T07:31:14.000Z</time>
      </trkpt>
      <trkpt lat="43.850613" lon="5.049514">
        <ele>131.337328</ele>
        <time>2017-06-08T07:31:16.000Z</time>
      </trkpt>
      <trkpt lat="43.850513" lon="5.049425">
        <ele>131.590573</ele>
        <time>2017-06-08T07:31:18.000Z</time>
      </trkpt>
      <trkpt lat="43.850410" lon="5.049319">
        <ele>131.863942</ele>
        <time>2017-06-08T07:31:20.000Z</time>
      </trkpt>
      <trkpt lat="43.850307" lon="5.049228">
        <ele>132.124230</ele>
        <time>2017-06-08T07:31:22.000Z</time>
      </trkpt>
      <trkpt lat="43.850212" lon="5.049144">
        <ele>132.364358</ele>
        <time>2017-06-08T07:31:24.000Z</time>
      </trkpt>
      <trkpt lat="43.850113" lon="5.049066">
        <ele>132.607031</ele>
        <time>2017-06-08T07:31:26.000Z</time>
      </trkpt>
      <trkpt lat="43.850018" lon="5.048998">
        <ele>132.834883</ele>
        <time>2017-06-08T07:31:28.000Z</time>
      </trkpt>
      <trkpt lat="43.849926" lon="5.048934">
        <ele>133.054248</ele>
        <time>2017-06-08T07:31:30.000Z</time>
      </trkpt>
      <trkpt lat="43.849840" lon="5.048875">
        <ele>133.258741</ele>
        <time>2017-06-08T07:31:32.000Z</time>
      </trkpt>
      <trkpt lat="43.849750" lon="5.048821">
        <ele>133.467740</ele>
        <time>2017-06-08T07:31:34.000Z</time>
      </trkpt>
      <trkpt lat="43.849640" lon="5.048750">
        <ele>133.726330</ele>
        <time>2017-06-08T07:31:37.000Z</time>
      </trkpt>
      <trkpt lat="43.849520" lon="5.048689">
        <ele>133.916862</ele>
        <time>2017-06-08T07:31:40.000Z</time>
      </trkpt>
      <trkpt lat="43.849440" lon="5.048635">
        <ele>133.844537</ele>
        <time>2017-06-08T07:31:42.000Z</time>
      </trkpt>
      <trkpt lat="43.849354" lon="5.048581">
        <ele>133.767798</ele>
        <time>2017-06-08T07:31:44.000Z</time>
      </trkpt>
      <trkpt lat="43.849270" lon="5.048531">
        <ele>133.693492</ele>
        <time>2017-06-08T07:31:46.000Z</time>
      </trkpt>
      <trkpt lat="43.849182" lon="5.048478">
        <ele>133.615504</ele>
        <time>2017-06-08T07:31:48.000Z</time>
      </trkpt>
      <trkpt lat="43.849087" lon="5.048420">
        <ele>133.531128</ele>
        <time>2017-06-08T07:31:50.000Z</time>
      </trkpt>
      <trkpt lat="43.848980" lon="5.048365">
        <ele>133.438368</ele>
        <time>2017-06-08T07:31:52.000Z</time>
      </trkpt>
      <trkpt lat="43.848873" lon="5.048297">
        <ele>133.342691</ele>
        <time>2017-06-08T07:31:54.000Z</time>
      </trkpt>
      <trkpt lat="43.848755" lon="5.048210">
        <ele>133.234057</ele>
        <time>2017-06-08T07:31:56.000Z</time>
      </trkpt>
      <trkpt lat="43.848633" lon="5.048130">
        <ele>133.124358</ele>
        <time>2017-06-08T07:31:58.000Z</time>
      </trkpt>
      <trkpt lat="43.848515" lon="5.048049">
        <ele>133.017330</ele>
        <time>2017-06-08T07:32:00.000Z</time>
      </trkpt>
      <trkpt lat="43.848400" lon="5.047964">
        <ele>132.911400</ele>
        <time>2017-06-08T07:32:02.000Z</time>
      </trkpt>
      <trkpt lat="43.848297" lon="5.047888">
        <ele>132.816558</ele>
        <time>2017-06-08T07:32:04.000Z</time>
      </trkpt>
      <trkpt lat="43.848198" lon="5.047814">
        <ele>132.725137</ele>
        <time>2017-06-08T07:32:06.000Z</time>
      </trkpt>
      <trkpt lat="43.848090" lon="5.047761">
        <ele>132.632012</ele>
        <time>2017-06-08T07:32:08.000Z</time>
      </trkpt>
      <trkpt lat="43.847990" lon="5.047700">
        <ele>132.543207</ele>
        <time>2017-06-08T07:32:10.000Z</time>
      </trkpt>
      <trkpt lat="43.847880" lon="5.047646">
        <ele>132.512153</ele>
        <time>2017-06-08T07:32:12.000Z</time>
      </trkpt>
      <trkpt lat="43.847782" lon="5.047598">
        <ele>132.613177</ele>
        <time>2017-06-08T07:32:14.000Z</time>
      </trkpt>
      <trkpt lat="43.847670" lon="5.047553">
        <ele>132.726520</ele>
        <time>2017-06-08T07:32:16.000Z</time>
      </trkpt>
      <trkpt lat="43.847570" lon="5.047511">
        <ele>132.828082</ele>
        <time>2017-06-08T07:32:18.000Z</time>
      </trkpt>
      <trkpt lat="43.847470" lon="5.047477">
        <ele>132.928162</ele>
        <time>2017-06-08T07:32:20.000Z</time>
      </trkpt>
      <trkpt lat="43.847366" lon="5.047442">
        <ele>133.032185</ele>
        <time>2017-06-08T07:32:22.000Z</time>
      </trkpt>
      <trkpt lat="43.847260" lon="5.047398">
        <ele>133.139735</ele>
        <time>2017-06-08T07:32:24.000Z</time>
      </trkpt>
      <trkpt lat="43.847164" lon="5.047361">
        <ele>133.236585</ele>
        <time>2017-06-08T07:32:26.000Z</time>
      </trkpt>
      <trkpt lat="43.847073" lon="5.047324">
        <ele>133.328762</ele>
        <time>2017-06-08T07:32:28.000Z</time>
      </trkpt>
      <trkpt lat="43.846977" lon="5.047278">
        <ele>133.427489</ele>
        <time>2017-06-08T07:32:30.000Z</time>
      </trkpt>
      <trkpt lat="43.846874" lon="5.047247">
        <ele>133.529937</ele>
        <time>2017-06-08T07:32:32.000Z</time>
      </trkpt>
      <trkpt lat="43.846780" lon="5.047203">
        <ele>133.626371</ele>
        <time>2017-06-08T07:32:34.000Z</time>
      </trkpt>
      <trkpt lat="43.846687" lon="5.047130">
        <ele>133.730247</ele>
        <time>2017-06-08T07:32:36.000Z</time>
      </trkpt>
      <trkpt lat="43.846600" lon="5.047051">
        <ele>133.831332</ele>
        <time>2017-06-08T07:32:38.000Z</time>
      </trkpt>
      <trkpt lat="43.846520" lon="5.046964">
        <ele>133.930156</ele>
        <time>2017-06-08T07:32:40.000Z</time>
      </trkpt>
      <trkpt lat="43.846436" lon="5.046882">
        <ele>134.030009</ele>
        <time>2017-06-08T07:32:42.000Z</time>
      </trkpt>
      <trkpt lat="43.846344" lon="5.046804">
        <ele>134.134826</ele>
        <time>2017-06-08T07:32:44.000Z</time>
      </trkpt>
      <trkpt lat="43.846252" lon="5.046722">
        <ele>134.211485</ele>
        <time>2017-06-08T07:32:46.000Z</time>
      </trkpt>
      <trkpt lat="43.846165" lon="5.046638">
        <ele>134.116570</ele>
        <time>2017-06-08T07:32:48.000Z</time>
      </trkpt>
      <trkpt lat="43.846070" lon="5.046563">
        <ele>134.018696</ele>
        <time>2017-06-08T07:32:50.000Z</time>
      </trkpt>
      <trkpt lat="43.845970" lon="5.046492">
        <ele>133.918111</ele>
        <time>2017-06-08T07:32:52.000Z</time>
      </trkpt>
      <trkpt lat="43.845870" lon="5.046421">
        <ele>133.817526</ele>
        <time>2017-06-08T07:32:54.000Z</time>
      </trkpt>
      <trkpt lat="43.845783" lon="5.046350">
        <ele>133.727145</ele>
        <time>2017-06-08T07:32:56.000Z</time>
      </trkpt>
      <trkpt lat="43.845695" lon="5.046281">
        <ele>133.636633</ele>
        <time>2017-06-08T07:32:58.000Z</time>
      </trkpt>
      <trkpt lat="43.845610" lon="5.046216">
        <ele>133.549726</ele>
        <time>2017-06-08T07:33:00.000Z</time>
      </trkpt>
      <trkpt lat="43.845520" lon="5.046158">
        <ele>133.460871</ele>
        <time>2017-06-08T07:33:02.000Z</time>
      </trkpt>
      <trkpt lat="43.845436" lon="5.046105">
        <ele>133.378246</ele>
        <time>2017-06-08T07:33:04.000Z</time>
      </trkpt>
      <trkpt lat="43.845352" lon="5.046050">
        <ele>133.295077</ele>
        <time>2017-06-08T07:33:06.000Z</time>
      </trkpt>
      <trkpt lat="43.845264" lon="5.046008">
        <ele>133.211754</ele>
        <time>2017-06-08T07:33:08.000Z</time>
      </trkpt>
      <trkpt lat="43.845130" lon="5.045983">
        <ele>133.090702</ele>
        <time>2017-06-08T07:33:11.000Z</time>
      </trkpt>
      <trkpt lat="43.845024" lon="5.046087">
        <ele>132.974444</ele>
        <time>2017-06-08T07:33:14.000Z</time>
      </trkpt>
      <trkpt lat="43.844933" lon="5.046216">
        <ele>132.857928</ele>
        <time>2017-06-08T07:33:17.000Z</time>
      </trkpt>
      <trkpt lat="43.844837" lon="5.046320">
        <ele>132.748855</ele>
        <time>2017-06-08T07:33:20.000Z</time>
      </trkpt>
      <trkpt lat="43.844734" lon="5.046385">
        <ele>132.647537</ele>
        <time>2017-06-08T07:33:23.000Z</time>
      </trkpt>
      <trkpt lat="43.844620" lon="5.046453">
        <ele>132.671711</ele>
        <time>2017-06-08T07:33:26.000Z</time>
      </trkpt>
      <trkpt lat="43.844494" lon="5.046527">
        <ele>132.759145</ele>
        <time>2017-06-08T07:33:29.000Z</time>
      </trkpt>
      <trkpt lat="43.844418" lon="5.046596">
        <ele>132.817190</ele>
        <time>2017-06-08T07:33:31.000Z</time>
      </trkpt>
      <trkpt lat="43.844315" lon="5.046654">
        <ele>132.888224</ele>
        <time>2017-06-08T07:33:33.000Z</time>
      </trkpt>
      <trkpt lat="43.844215" lon="5.046706">
        <ele>132.956465</ele>
        <time>2017-06-08T07:33:35.000Z</time>
      </trkpt>
      <trkpt lat="43.844120" lon="5.046770">
        <ele>133.023952</ele>
        <time>2017-06-08T07:33:37.000Z</time>
      </trkpt>
      <trkpt lat="43.844030" lon="5.046824">
        <ele>133.086612</ele>
        <time>2017-06-08T07:33:39.000Z</time>
      </trkpt>
      <trkpt lat="43.843910" lon="5.046909">
        <ele>133.172714</ele>
        <time>2017-06-08T07:33:42.000Z</time>
      </trkpt>
      <trkpt lat="43.843826" lon="5.046960">
        <ele>133.231307</ele>
        <time>2017-06-08T07:33:44.000Z</time>
      </trkpt>
      <trkpt lat="43.843742" lon="5.047006">
        <ele>133.289014</ele>
        <time>2017-06-08T07:33:46.000Z</time>
      </trkpt>
      <trkpt lat="43.843650" lon="5.047064">
        <ele>133.353590</ele>
        <time>2017-06-08T07:33:48.000Z</time>
      </trkpt>
      <trkpt lat="43.843560" lon="5.047112">
        <ele>133.415204</ele>
        <time>2017-06-08T07:33:50.000Z</time>
      </trkpt>
      <trkpt lat="43.843468" lon="5.047183">
        <ele>133.482481</ele>
        <time>2017-06-08T07:33:52.000Z</time>
      </trkpt>
      <trkpt lat="43.843372" lon="5.047237">
        <ele>133.548677</ele>
        <time>2017-06-08T07:33:54.000Z</time>
      </trkpt>
      <trkpt lat="43.843285" lon="5.047289">
        <ele>133.609212</ele>
        <time>2017-06-08T07:33:56.000Z</time>
      </trkpt>
      <trkpt lat="43.843197" lon="5.047338">
        <ele>133.669805</ele>
        <time>2017-06-08T07:33:58.000Z</time>
      </trkpt>
      <trkpt lat="43.843100" lon="5.047370">
        <ele>133.733514</ele>
        <time>2017-06-08T07:34:00.000Z</time>
      </trkpt>
      <trkpt lat="43.843002" lon="5.047399">
        <ele>133.800681</ele>
        <time>2017-06-08T07:34:02.000Z</time>
      </trkpt>
      <trkpt lat="43.842910" lon="5.047456">
        <ele>133.871208</ele>
        <time>2017-06-08T07:34:04.000Z</time>
      </trkpt>
      <trkpt lat="43.842820" lon="5.047520">
        <ele>133.942000</ele>
        <time>2017-06-08T07:34:06.000Z</time>
      </trkpt>
      <trkpt lat="43.842730" lon="5.047576">
        <ele>134.011043</ele>
        <time>2017-06-08T07:34:08.000Z</time>
      </trkpt>
      <trkpt lat="43.842636" lon="5.047628">
        <ele>134.081877</ele>
        <time>2017-06-08T07:34:10.000Z</time>
      </trkpt>
      <trkpt lat="43.842545" lon="5.047687">
        <ele>134.152187</ele>
        <time>2017-06-08T07:34:12.000Z</time>
      </trkpt>
      <trkpt lat="43.842453" lon="5.047746">
        <ele>134.223132</ele>
        <time>2017-06-08T07:34:14.000Z</time>
      </trkpt>
      <trkpt lat="43.842370" lon="5.047806">
        <ele>134.288645</ele>
        <time>2017-06-08T07:34:16.000Z</time>
      </trkpt>
      <trkpt lat="43.842278" lon="5.047845">
        <ele>134.355977</ele>
        <time>2017-06-08T07:34:18.000Z</time>
      </trkpt>
      <trkpt lat="43.842155" lon="5.047928">
        <ele>134.451719</ele>
        <time>2017-06-08T07:34:21.000Z</time>
      </trkpt>
      <trkpt lat="43.842068" lon="5.047977">
        <ele>134.517442</ele>
        <time>2017-06-08T07:34:23.000Z</time>
      </trkpt>
      <trkpt lat="43.841976" lon="5.048009">
        <ele>134.583828</ele>
        <time>2017-06-08T07:34:25.000Z</time>
      </trkpt>
      <trkpt lat="43.841885" lon="5.048060">
        <ele>134.652525</ele>
        <time>2017-06-08T07:34:27.000Z</time>
      </trkpt>
      <trkpt lat="43.841793" lon="5.048113">
        <ele>134.722253</ele>
        <time>2017-06-08T07:34:29.000Z</time>
      </trkpt>
      <trkpt lat="43.841694" lon="5.048173">
        <ele>134.797873</ele>
        <time>2017-06-08T07:34:31.000Z</time>
      </trkpt>
      <trkpt lat="43.841595" lon="5.048230">
        <ele>134.872900</ele>
        <time>2017-06-08T07:34:33.000Z</time>
      </trkpt>
      <trkpt lat="43.841500" lon="5.048282">
        <ele>134.944384</ele>
        <time>2017-06-08T07:34:35.000Z</time>
      </trkpt>
      <trkpt lat="43.841404" lon="5.048327">
        <ele>135.015310</ele>
        <time>2017-06-08T07:34:37.000Z</time>
      </trkpt>
      <trkpt lat="43.841320" lon="5.048376">
        <ele>134.975774</ele>
        <time>2017-06-08T07:34:39.000Z</time>
      </trkpt>
      <trkpt lat="43.841200" lon="5.048369">
        <ele>134.903620</ele>
        <time>2017-06-08T07:34:42.000Z</time>
      </trkpt>
      <trkpt lat="43.841118" lon="5.048280">
        <ele>134.841059</ele>
        <time>2017-06-08T07:34:45.000Z</time>
      </trkpt>
      <trkpt lat="43.841060" lon="5.048180">
        <ele>134.785456</ele>
        <time>2017-06-08T07:34:47.000Z</time>
      </trkpt>
      <trkpt lat="43.840980" lon="5.048034">
        <ele>134.706009</ele>
        <time>2017-06-08T07:34:50.000Z</time>
      </trkpt>
      <trkpt lat="43.840916" lon="5.047945">
        <ele>134.651553</ele>
        <time>2017-06-08T07:34:52.000Z</time>
      </trkpt>
      <trkpt lat="43.840843" lon="5.047807">
        <ele>134.577399</ele>
        <time>2017-06-08T07:34:55.000Z</time>
      </trkpt>
      <trkpt lat="43.840748" lon="5.047705">
        <ele>134.505214</ele>
        <time>2017-06-08T07:34:58.000Z</time>
      </trkpt>
      <trkpt lat="43.840683" lon="5.047601">
        <ele>134.445586</ele>
        <time>2017-06-08T07:35:01.000Z</time>
      </trkpt>
      <trkpt lat="43.840610" lon="5.047486">
        <ele>134.379205</ele>
        <time>2017-06-08T07:35:05.000Z</time>
      </trkpt>
      <trkpt lat="43.840530" lon="5.047366">
        <ele>134.308400</ele>
        <time>2017-06-08T07:35:09.000Z</time>
      </trkpt>
      <trkpt lat="43.840440" lon="5.047368">
        <ele>134.254325</ele>
        <time>2017-06-08T07:35:12.000Z</time>
      </trkpt>
      <trkpt lat="43.840332" lon="5.047455">
        <ele>134.179286</ele>
        <time>2017-06-08T07:35:15.000Z</time>
      </trkpt>
      <trkpt lat="43.840263" lon="5.047547">
        <ele>134.121776</ele>
        <time>2017-06-08T07:35:17.000Z</time>
      </trkpt>
      <trkpt lat="43.840180" lon="5.047631">
        <ele>134.060042</ele>
        <time>2017-06-08T07:35:19.000Z</time>
      </trkpt>
      <trkpt lat="43.840090" lon="5.047706">
        <ele>133.996959</ele>
        <time>2017-06-08T07:35:21.000Z</time>
      </trkpt>
      <trkpt lat="43.840004" lon="5.047774">
        <ele>133.953365</ele>
        <time>2017-06-08T07:35:23.000Z</time>
      </trkpt>
      <trkpt lat="43.839910" lon="5.047836">
        <ele>134.072437</ele>
        <time>2017-06-08T07:35:25.000Z</time>
      </trkpt>
      <trkpt lat="43.839817" lon="5.047904">
        <ele>134.192704</ele>
        <time>2017-06-08T07:35:27.000Z</time>
      </trkpt>
      <trkpt lat="43.839720" lon="5.047979">
        <ele>134.319748</ele>
        <time>2017-06-08T07:35:29.000Z</time>
      </trkpt>
      <trkpt lat="43.839626" lon="5.048060">
        <ele>134.446348</ele>
        <time>2017-06-08T07:35:31.000Z</time>
      </trkpt>
      <trkpt lat="43.839530" lon="5.048139">
        <ele>134.574046</ele>
        <time>2017-06-08T07:35:33.000Z</time>
      </trkpt>
      <trkpt lat="43.839430" lon="5.048193">
        <ele>134.696804</ele>
        <time>2017-06-08T07:35:35.000Z</time>
      </trkpt>
      <trkpt lat="43.839336" lon="5.048254">
        <ele>134.815523</ele>
        <time>2017-06-08T07:35:37.000Z</time>
      </trkpt>
      <trkpt lat="43.839252" lon="5.048317">
        <ele>134.924767</ele>
        <time>2017-06-08T07:35:39.000Z</time>
      </trkpt>
      <trkpt lat="43.839146" lon="5.048395">
        <ele>135.062037</ele>
        <time>2017-06-08T07:35:42.000Z</time>
      </trkpt>
      <trkpt lat="43.839058" lon="5.048454">
        <ele>135.173850</ele>
        <time>2017-06-08T07:35:46.000Z</time>
      </trkpt>
      <trkpt lat="43.838974" lon="5.048518">
        <ele>135.283489</ele>
        <time>2017-06-08T07:35:52.000Z</time>
      </trkpt>
      <trkpt lat="43.838882" lon="5.048564">
        <ele>135.395360</ele>
        <time>2017-06-08T07:35:55.000Z</time>
      </trkpt>
      <trkpt lat="43.838780" lon="5.048609">
        <ele>135.517799</ele>
        <time>2017-06-08T07:35:58.000Z</time>
      </trkpt>
      <trkpt lat="43.838660" lon="5.048648">
        <ele>135.658785</ele>
        <time>2017-06-08T07:36:01.000Z</time>
      </trkpt>
      <trkpt lat="43.838573" lon="5.048703">
        <ele>135.768160</ele>
        <time>2017-06-08T07:36:03.000Z</time>
      </trkpt>
      <trkpt lat="43.838480" lon="5.048765">
        <ele>135.886200</ele>
        <time>2017-06-08T07:36:05.000Z</time>
      </trkpt>
      <trkpt lat="43.838387" lon="5.048832">
        <ele>135.991982</ele>
        <time>2017-06-08T07:36:07.000Z</time>
      </trkpt>
      <trkpt lat="43.838290" lon="5.048896">
        <ele>135.811781</ele>
        <time>2017-06-08T07:36:09.000Z</time>
      </trkpt>
      <trkpt lat="43.838207" lon="5.048973">
        <ele>135.644256</ele>
        <time>2017-06-08T07:36:11.000Z</time>
      </trkpt>
      <trkpt lat="43.838120" lon="5.049048">
        <ele>135.472404</ele>
        <time>2017-06-08T07:36:13.000Z</time>
      </trkpt>
      <trkpt lat="43.838036" lon="5.049127">
        <ele>135.302135</ele>
        <time>2017-06-08T07:36:15.000Z</time>
      </trkpt>
      <trkpt lat="43.837940" lon="5.049208">
        <ele>135.113620</ele>
        <time>2017-06-08T07:36:17.000Z</time>
      </trkpt>
      <trkpt lat="43.837850" lon="5.049289">
        <ele>134.933627</ele>
        <time>2017-06-08T07:36:19.000Z</time>
      </trkpt>
      <trkpt lat="43.837757" lon="5.049376">
        <ele>134.745429</ele>
        <time>2017-06-08T07:36:21.000Z</time>
      </trkpt>
      <trkpt lat="43.837666" lon="5.049461">
        <ele>134.561367</ele>
        <time>2017-06-08T07:36:23.000Z</time>
      </trkpt>
      <trkpt lat="43.837566" lon="5.049539">
        <ele>134.368894</ele>
        <time>2017-06-08T07:36:25.000Z</time>
      </trkpt>
      <trkpt lat="43.837467" lon="5.049612">
        <ele>134.180797</ele>
        <time>2017-06-08T07:36:27.000Z</time>
      </trkpt>
      <trkpt lat="43.837370" lon="5.049686">
        <ele>133.995074</ele>
        <time>2017-06-08T07:36:29.000Z</time>
      </trkpt>
      <trkpt lat="43.837270" lon="5.049755">
        <ele>133.807701</ele>
        <time>2017-06-08T07:36:31.000Z</time>
      </trkpt>
      <trkpt lat="43.837170" lon="5.049810">
        <ele>133.627236</ele>
        <time>2017-06-08T07:36:33.000Z</time>
      </trkpt>
      <trkpt lat="43.837070" lon="5.049864">
        <ele>133.447214</ele>
        <time>2017-06-08T07:36:35.000Z</time>
      </trkpt>
      <trkpt lat="43.836980" lon="5.049912">
        <ele>133.285456</ele>
        <time>2017-06-08T07:36:37.000Z</time>
      </trkpt>
      <trkpt lat="43.836884" lon="5.049961">
        <ele>133.113853</ele>
        <time>2017-06-08T07:36:39.000Z</time>
      </trkpt>
      <trkpt lat="43.836780" lon="5.050005">
        <ele>133.038856</ele>
        <time>2017-06-08T07:36:41.000Z</time>
      </trkpt>
      <trkpt lat="43.836685" lon="5.050042">
        <ele>133.216804</ele>
        <time>2017-06-08T07:36:43.000Z</time>
      </trkpt>
      <trkpt lat="43.836586" lon="5.050078">
        <ele>133.401373</ele>
        <time>2017-06-08T07:36:45.000Z</time>
      </trkpt>
      <trkpt lat="43.836483" lon="5.050118">
        <ele>133.594267</ele>
        <time>2017-06-08T07:36:47.000Z</time>
      </trkpt>
      <trkpt lat="43.836376" lon="5.050163">
        <ele>133.795906</ele>
        <time>2017-06-08T07:36:49.000Z</time>
      </trkpt>
      <trkpt lat="43.836273" lon="5.050211">
        <ele>133.991863</ele>
        <time>2017-06-08T07:36:51.000Z</time>
      </trkpt>
      <trkpt lat="43.836163" lon="5.050255">
        <ele>134.198321</ele>
        <time>2017-06-08T07:36:53.000Z</time>
      </trkpt>
      <trkpt lat="43.836052" lon="5.050309">
        <ele>134.410458</ele>
        <time>2017-06-08T07:36:55.000Z</time>
      </trkpt>
      <trkpt lat="43.835938" lon="5.050358">
        <ele>134.625692</ele>
        <time>2017-06-08T07:36:57.000Z</time>
      </trkpt>
      <trkpt lat="43.835823" lon="5.050405">
        <ele>134.841899</ele>
        <time>2017-06-08T07:36:59.000Z</time>
      </trkpt>
      <trkpt lat="43.835712" lon="5.050452">
        <ele>135.051197</ele>
        <time>2017-06-08T07:37:01.000Z</time>
      </trkpt>
      <trkpt lat="43.835598" lon="5.050503">
        <ele>135.267216</ele>
        <time>2017-06-08T07:37:03.000Z</time>
      </trkpt>
      <trkpt lat="43.835484" lon="5.050551">
        <ele>135.482069</ele>
        <time>2017-06-08T07:37:05.000Z</time>
      </trkpt>
      <trkpt lat="43.835373" lon="5.050596">
        <ele>135.690622</ele>
        <time>2017-06-08T07:37:07.000Z</time>
      </trkpt>
      <trkpt lat="43.835255" lon="5.050633">
        <ele>135.908790</ele>
        <time>2017-06-08T07:37:09.000Z</time>
      </trkpt>
      <trkpt lat="43.835140" lon="5.050687">
        <ele>136.127747</ele>
        <time>2017-06-08T07:37:11.000Z</time>
      </trkpt>
      <trkpt lat="43.835022" lon="5.050736">
        <ele>136.251723</ele>
        <time>2017-06-08T07:37:13.000Z</time>
      </trkpt>
      <trkpt lat="43.834908" lon="5.050783">
        <ele>136.295205</ele>
        <time>2017-06-08T07:37:15.000Z</time>
      </trkpt>
      <trkpt lat="43.834797" lon="5.050830">
        <ele>136.337636</ele>
        <time>2017-06-08T07:37:17.000Z</time>
      </trkpt>
      <trkpt lat="43.834690" lon="5.050880">
        <ele>136.378917</ele>
        <time>2017-06-08T07:37:19.000Z</time>
      </trkpt>
      <trkpt lat="43.834580" lon="5.050937">
        <ele>136.421849</ele>
        <time>2017-06-08T07:37:21.000Z</time>
      </trkpt>
      <trkpt lat="43.834460" lon="5.050986">
        <ele>136.467584</ele>
        <time>2017-06-08T07:37:23.000Z</time>
      </trkpt>
      <trkpt lat="43.834347" lon="5.051038">
        <ele>136.511112</ele>
        <time>2017-06-08T07:37:25.000Z</time>
      </trkpt>
      <trkpt lat="43.834236" lon="5.051093">
        <ele>136.554207</ele>
        <time>2017-06-08T07:37:27.000Z</time>
      </trkpt>
      <trkpt lat="43.834120" lon="5.051144">
        <ele>136.598697</ele>
        <time>2017-06-08T07:37:29.000Z</time>
      </trkpt>
      <trkpt lat="43.834007" lon="5.051182">
        <ele>136.641207</ele>
        <time>2017-06-08T07:37:31.000Z</time>
      </trkpt>
      <trkpt lat="43.833897" lon="5.051224">
        <ele>136.682919</ele>
        <time>2017-06-08T07:37:33.000Z</time>
      </trkpt>
      <trkpt lat="43.833797" lon="5.051259">
        <ele>136.720626</ele>
        <time>2017-06-08T07:37:35.000Z</time>
      </trkpt>
      <trkpt lat="43.833650" lon="5.051312">
        <ele>136.776155</ele>
        <time>2017-06-08T07:37:39.000Z</time>
      </trkpt>
      <trkpt lat="43.833546" lon="5.051350">
        <ele>136.815475</ele>
        <time>2017-06-08T07:37:40.000Z</time>
      </trkpt>
      <trkpt lat="43.833443" lon="5.051384">
        <ele>136.854184</ele>
        <time>2017-06-08T07:37:42.000Z</time>
      </trkpt>
      <trkpt lat="43.833344" lon="5.051417">
        <ele>136.857477</ele>
        <time>2017-06-08T07:37:44.000Z</time>
      </trkpt>
      <trkpt lat="43.833250" lon="5.051449">
        <ele>136.723216</ele>
        <time>2017-06-08T07:37:46.000Z</time>
      </trkpt>
      <trkpt lat="43.833153" lon="5.051477">
        <ele>136.585781</ele>
        <time>2017-06-08T07:37:48.000Z</time>
      </trkpt>
      <trkpt lat="43.833050" lon="5.051506">
        <ele>136.439993</ele>
        <time>2017-06-08T07:37:50.000Z</time>
      </trkpt>
      <trkpt lat="43.832943" lon="5.051538">
        <ele>136.288158</ele>
        <time>2017-06-08T07:37:52.000Z</time>
      </trkpt>
      <trkpt lat="43.832836" lon="5.051570">
        <ele>136.136324</ele>
        <time>2017-06-08T07:37:54.000Z</time>
      </trkpt>
      <trkpt lat="43.832740" lon="5.051577">
        <ele>136.002978</ele>
        <time>2017-06-08T07:37:56.000Z</time>
      </trkpt>
      <trkpt lat="43.832640" lon="5.051590">
        <ele>135.863660</ele>
        <time>2017-06-08T07:37:58.000Z</time>
      </trkpt>
      <trkpt lat="43.832554" lon="5.051607">
        <ele>135.743162</ele>
        <time>2017-06-08T07:38:00.000Z</time>
      </trkpt>
      <trkpt lat="43.832443" lon="5.051647">
        <ele>135.584077</ele>
        <time>2017-06-08T07:38:03.000Z</time>
      </trkpt>
      <trkpt lat="43.832330" lon="5.051664">
        <ele>135.426414</ele>
        <time>2017-06-08T07:38:06.000Z</time>
      </trkpt>
      <trkpt lat="43.832200" lon="5.051704">
        <ele>135.241703</ele>
        <time>2017-06-08T07:38:09.000Z</time>
      </trkpt>
      <trkpt lat="43.832123" lon="5.051782">
        <ele>135.109418</ele>
        <time>2017-06-08T07:38:11.000Z</time>
      </trkpt>
      <trkpt lat="43.832058" lon="5.051899">
        <ele>134.961651</ele>
        <time>2017-06-08T07:38:13.000Z</time>
      </trkpt>
      <trkpt lat="43.832040" lon="5.052028">
        <ele>134.830179</ele>
        <time>2017-06-08T07:38:15.000Z</time>
      </trkpt>
      <trkpt lat="43.832060" lon="5.052167">
        <ele>134.688354</ele>
        <time>2017-06-08T07:38:17.000Z</time>
      </trkpt>
      <trkpt lat="43.832120" lon="5.052283">
        <ele>134.545528</ele>
        <time>2017-06-08T07:38:19.000Z</time>
      </trkpt>
      <trkpt lat="43.832214" lon="5.052365">
        <ele>134.391472</ele>
        <time>2017-06-08T07:38:21.000Z</time>
      </trkpt>
      <trkpt lat="43.832300" lon="5.052457">
        <ele>134.323399</ele>
        <time>2017-06-08T07:38:23.000Z</time>
      </trkpt>
      <trkpt lat="43.832336" lon="5.052591">
        <ele>134.259837</ele>
        <time>2017-06-08T07:38:25.000Z</time>
      </trkpt>
      <trkpt lat="43.832348" lon="5.052756">
        <ele>134.186120</ele>
        <time>2017-06-08T07:38:27.000Z</time>
      </trkpt>
      <trkpt lat="43.832336" lon="5.052907">
        <ele>134.118592</ele>
        <time>2017-06-08T07:38:29.000Z</time>
      </trkpt>
      <trkpt lat="43.832310" lon="5.053056">
        <ele>134.050449</ele>
        <time>2017-06-08T07:38:31.000Z</time>
      </trkpt>
      <trkpt lat="43.832275" lon="5.053217">
        <ele>133.975702</ele>
        <time>2017-06-08T07:38:33.000Z</time>
      </trkpt>
      <trkpt lat="43.832214" lon="5.053372">
        <ele>133.897215</ele>
        <time>2017-06-08T07:38:35.000Z</time>
      </trkpt>
      <trkpt lat="43.832140" lon="5.053512">
        <ele>133.820065</ele>
        <time>2017-06-08T07:38:37.000Z</time>
      </trkpt>
      <trkpt lat="43.832054" lon="5.053637">
        <ele>133.743280</ele>
        <time>2017-06-08T07:38:39.000Z</time>
      </trkpt>
      <trkpt lat="43.831950" lon="5.053732">
        <ele>133.666532</ele>
        <time>2017-06-08T07:38:41.000Z</time>
      </trkpt>
      <trkpt lat="43.831833" lon="5.053827">
        <ele>133.582978</ele>
        <time>2017-06-08T07:38:43.000Z</time>
      </trkpt>
      <trkpt lat="43.831726" lon="5.053920">
        <ele>133.505155</ele>
        <time>2017-06-08T07:38:45.000Z</time>
      </trkpt>
      <trkpt lat="43.831623" lon="5.054009">
        <ele>133.430364</ele>
        <time>2017-06-08T07:38:47.000Z</time>
      </trkpt>
      <trkpt lat="43.831520" lon="5.054093">
        <ele>133.356725</ele>
        <time>2017-06-08T07:38:49.000Z</time>
      </trkpt>
      <trkpt lat="43.831425" lon="5.054175">
        <ele>133.287764</ele>
        <time>2017-06-08T07:38:51.000Z</time>
      </trkpt>
      <trkpt lat="43.831333" lon="5.054250">
        <ele>133.397276</ele>
        <time>2017-06-08T07:38:53.000Z</time>
      </trkpt>
      <trkpt lat="43.831238" lon="5.054327">
        <ele>133.530620</ele>
        <time>2017-06-08T07:38:55.000Z</time>
      </trkpt>
      <trkpt lat="43.831146" lon="5.054401">
        <ele>133.659504</ele>
        <time>2017-06-08T07:38:57.000Z</time>
      </trkpt>
      <trkpt lat="43.831060" lon="5.054491">
        <ele>133.790071</ele>
        <time>2017-06-08T07:38:59.000Z</time>
      </trkpt>
      <trkpt lat="43.830948" lon="5.054574">
        <ele>133.943957</ele>
        <time>2017-06-08T07:39:01.000Z</time>
      </trkpt>
      <trkpt lat="43.830856" lon="5.054653">
        <ele>134.075088</ele>
        <time>2017-06-08T07:39:03.000Z</time>
      </trkpt>
      <trkpt lat="43.830760" lon="5.054734">
        <ele>134.211265</ele>
        <time>2017-06-08T07:39:05.000Z</time>
      </trkpt>
      <trkpt lat="43.830677" lon="5.054814">
        <ele>134.333758</ele>
        <time>2017-06-08T07:39:07.000Z</time>
      </trkpt>
      <trkpt lat="43.830597" lon="5.054884">
        <ele>134.448390</ele>
        <time>2017-06-08T07:39:09.000Z</time>
      </trkpt>
      <trkpt lat="43.830513" lon="5.054962">
        <ele>134.570899</ele>
        <time>2017-06-08T07:39:11.000Z</time>
      </trkpt>
      <trkpt lat="43.830420" lon="5.055050">
        <ele>134.707337</ele>
        <time>2017-06-08T07:39:13.000Z</time>
      </trkpt>
      <trkpt lat="43.830326" lon="5.055132">
        <ele>134.841914</ele>
        <time>2017-06-08T07:39:15.000Z</time>
      </trkpt>
      <trkpt lat="43.830242" lon="5.055214">
        <ele>134.966402</ele>
        <time>2017-06-08T07:39:17.000Z</time>
      </trkpt>
      <trkpt lat="43.830166" lon="5.055296">
        <ele>135.083099</ele>
        <time>2017-06-08T07:39:19.000Z</time>
      </trkpt>
      <trkpt lat="43.830086" lon="5.055371">
        <ele>135.200122</ele>
        <time>2017-06-08T07:39:21.000Z</time>
      </trkpt>
      <trkpt lat="43.830006" lon="5.055450">
        <ele>135.319140</ele>
        <time>2017-06-08T07:39:23.000Z</time>
      </trkpt>
      <trkpt lat="43.829926" lon="5.055542">
        <ele>135.445092</ele>
        <time>2017-06-08T07:39:25.000Z</time>
      </trkpt>
      <trkpt lat="43.829853" lon="5.055636">
        <ele>135.491785</ele>
        <time>2017-06-08T07:39:27.000Z</time>
      </trkpt>
      <trkpt lat="43.829765" lon="5.055733">
        <ele>135.532252</ele>
        <time>2017-06-08T07:39:29.000Z</time>
      </trkpt>
      <trkpt lat="43.829680" lon="5.055829">
        <ele>135.571714</ele>
        <time>2017-06-08T07:39:31.000Z</time>
      </trkpt>
      <trkpt lat="43.829586" lon="5.055930">
        <ele>135.614521</ele>
        <time>2017-06-08T07:39:33.000Z</time>
      </trkpt>
      <trkpt lat="43.829502" lon="5.056029">
        <ele>135.654205</ele>
        <time>2017-06-08T07:39:35.000Z</time>
      </trkpt>
      <trkpt lat="43.829420" lon="5.056125">
        <ele>135.692836</ele>
        <time>2017-06-08T07:39:37.000Z</time>
      </trkpt>
      <trkpt lat="43.829334" lon="5.056223">
        <ele>135.732907</ele>
        <time>2017-06-08T07:39:39.000Z</time>
      </trkpt>
      <trkpt lat="43.829254" lon="5.056332">
        <ele>135.773281</ele>
        <time>2017-06-08T07:39:41.000Z</time>
      </trkpt>
      <trkpt lat="43.829174" lon="5.056428">
        <ele>135.811365</ele>
        <time>2017-06-08T07:39:43.000Z</time>
      </trkpt>
      <trkpt lat="43.829082" lon="5.056529">
        <ele>135.853605</ele>
        <time>2017-06-08T07:39:45.000Z</time>
      </trkpt>
      <trkpt lat="43.828990" lon="5.056634">
        <ele>135.896498</ele>
        <time>2017-06-08T07:39:47.000Z</time>
      </trkpt>
      <trkpt lat="43.828900" lon="5.056733">
        <ele>135.937851</ele>
        <time>2017-06-08T07:39:49.000Z</time>
      </trkpt>
      <trkpt lat="43.828804" lon="5.056822">
        <ele>135.979420</ele>
        <time>2017-06-08T07:39:51.000Z</time>
      </trkpt>
      <trkpt lat="43.828712" lon="5.056927">
        <ele>136.022312</ele>
        <time>2017-06-08T07:39:53.000Z</time>
      </trkpt>
      <trkpt lat="43.828625" lon="5.057018">
        <ele>136.061540</ele>
        <time>2017-06-08T07:39:55.000Z</time>
      </trkpt>
      <trkpt lat="43.828540" lon="5.057112">
        <ele>136.100677</ele>
        <time>2017-06-08T07:39:57.000Z</time>
      </trkpt>
      <trkpt lat="43.828460" lon="5.057208">
        <ele>136.160764</ele>
        <time>2017-06-08T07:39:59.000Z</time>
      </trkpt>
      <trkpt lat="43.828415" lon="5.057336">
        <ele>136.224074</ele>
        <time>2017-06-08T07:40:01.000Z</time>
      </trkpt>
      <trkpt lat="43.828423" lon="5.057490">
        <ele>136.292724</ele>
        <time>2017-06-08T07:40:03.000Z</time>
      </trkpt>
      <trkpt lat="43.828445" lon="5.057637">
        <ele>136.359476</ele>
        <time>2017-06-08T07:40:05.000Z</time>
      </trkpt>
      <trkpt lat="43.828457" lon="5.057778">
        <ele>136.422603</ele>
        <time>2017-06-08T07:40:07.000Z</time>
      </trkpt>
      <trkpt lat="43.828426" lon="5.057961">
        <ele>136.506183</ele>
        <time>2017-06-08T07:40:10.000Z</time>
      </trkpt>
      <trkpt lat="43.828384" lon="5.058087">
        <ele>136.567897</ele>
        <time>2017-06-08T07:40:12.000Z</time>
      </trkpt>
      <trkpt lat="43.828335" lon="5.058199">
        <ele>136.626137</ele>
        <time>2017-06-08T07:40:14.000Z</time>
      </trkpt>
      <trkpt lat="43.828278" lon="5.058317">
        <ele>136.689279</ele>
        <time>2017-06-08T07:40:16.000Z</time>
      </trkpt>
      <trkpt lat="43.828228" lon="5.058443">
        <ele>136.753218</ele>
        <time>2017-06-08T07:40:18.000Z</time>
      </trkpt>
      <trkpt lat="43.828170" lon="5.058582">
        <ele>136.824615</ele>
        <time>2017-06-08T07:40:20.000Z</time>
      </trkpt>
      <trkpt lat="43.828117" lon="5.058719">
        <ele>136.893735</ele>
        <time>2017-06-08T07:40:22.000Z</time>
      </trkpt>
      <trkpt lat="43.828060" lon="5.058852">
        <ele>136.962518</ele>
        <time>2017-06-08T07:40:24.000Z</time>
      </trkpt>
      <trkpt lat="43.828007" lon="5.058988">
        <ele>137.031247</ele>
        <time>2017-06-08T07:40:26.000Z</time>
      </trkpt>
      <trkpt lat="43.827953" lon="5.059136">
        <ele>137.104990</ele>
        <time>2017-06-08T07:40:28.000Z</time>
      </trkpt>
      <trkpt lat="43.827896" lon="5.059277">
        <ele>137.176855</ele>
        <time>2017-06-08T07:40:30.000Z</time>
      </trkpt>
      <trkpt lat="43.827847" lon="5.059423">
        <ele>137.229011</ele>
        <time>2017-06-08T07:40:32.000Z</time>
      </trkpt>
      <trkpt lat="43.827800" lon="5.059563">
        <ele>137.255994</ele>
        <time>2017-06-08T07:40:34.000Z</time>
      </trkpt>
      <trkpt lat="43.827747" lon="5.059706">
        <ele>137.284087</ele>
        <time>2017-06-08T07:40:36.000Z</time>
      </trkpt>
      <trkpt lat="43.827690" lon="5.059853">
        <ele>137.313249</ele>
        <time>2017-06-08T07:40:38.000Z</time>
      </trkpt>
      <trkpt lat="43.827637" lon="5.060002">
        <ele>137.342278</ele>
        <time>2017-06-08T07:40:40.000Z</time>
      </trkpt>
      <trkpt lat="43.827587" lon="5.060162">
        <ele>137.372747</ele>
        <time>2017-06-08T07:40:42.000Z</time>
      </trkpt>
      <trkpt lat="43.827530" lon="5.060311">
        <ele>137.402218</ele>
        <time>2017-06-08T07:40:44.000Z</time>
      </trkpt>
      <trkpt lat="43.827470" lon="5.060456">
        <ele>137.431427</ele>
        <time>2017-06-08T07:40:46.000Z</time>
      </trkpt>
      <trkpt lat="43.827410" lon="5.060613">
        <ele>137.462473</ele>
        <time>2017-06-08T07:40:48.000Z</time>
      </trkpt>
      <trkpt lat="43.827360" lon="5.060769">
        <ele>137.492302</ele>
        <time>2017-06-08T07:40:50.000Z</time>
      </trkpt>
      <trkpt lat="43.827305" lon="5.060921">
        <ele>137.522017</ele>
        <time>2017-06-08T07:40:52.000Z</time>
      </trkpt>
      <trkpt lat="43.827250" lon="5.061063">
        <ele>137.550180</ele>
        <time>2017-06-08T07:40:54.000Z</time>
      </trkpt>
      <trkpt lat="43.827206" lon="5.061185">
        <ele>137.574014</ele>
        <time>2017-06-08T07:40:56.000Z</time>
      </trkpt>
      <trkpt lat="43.827164" lon="5.061306">
        <ele>137.597478</ele>
        <time>2017-06-08T07:40:58.000Z</time>
      </trkpt>
      <trkpt lat="43.827065" lon="5.061422">
        <ele>137.628877</ele>
        <time>2017-06-08T07:41:01.000Z</time>
      </trkpt>
      <trkpt lat="43.826977" lon="5.061493">
        <ele>137.650932</ele>
        <time>2017-06-08T07:41:03.000Z</time>
      </trkpt>
      <trkpt lat="43.826885" lon="5.061557">
        <ele>137.631165</ele>
        <time>2017-06-08T07:41:05.000Z</time>
      </trkpt>
      <trkpt lat="43.826794" lon="5.061657">
        <ele>137.608864</ele>
        <time>2017-06-08T07:41:07.000Z</time>
      </trkpt>
      <trkpt lat="43.826720" lon="5.061794">
        <ele>137.585154</ele>
        <time>2017-06-08T07:41:09.000Z</time>
      </trkpt>
      <trkpt lat="43.826653" lon="5.061927">
        <ele>137.562680</ele>
        <time>2017-06-08T07:41:11.000Z</time>
      </trkpt>
      <trkpt lat="43.826576" lon="5.062037">
        <ele>137.541446</ele>
        <time>2017-06-08T07:41:13.000Z</time>
      </trkpt>
      <trkpt lat="43.826500" lon="5.062122">
        <ele>137.522692</ele>
        <time>2017-06-08T07:41:15.000Z</time>
      </trkpt>
      <trkpt lat="43.826405" lon="5.062193">
        <ele>137.501966</ele>
        <time>2017-06-08T07:41:17.000Z</time>
      </trkpt>
      <trkpt lat="43.826305" lon="5.062263">
        <ele>137.480453</ele>
        <time>2017-06-08T07:41:19.000Z</time>
      </trkpt>
      <trkpt lat="43.826206" lon="5.062342">
        <ele>137.458516</ele>
        <time>2017-06-08T07:41:21.000Z</time>
      </trkpt>
      <trkpt lat="43.826115" lon="5.062416">
        <ele>137.438255</ele>
        <time>2017-06-08T07:41:23.000Z</time>
      </trkpt>
      <trkpt lat="43.826027" lon="5.062490">
        <ele>137.418489</ele>
        <time>2017-06-08T07:41:25.000Z</time>
      </trkpt>
      <trkpt lat="43.825928" lon="5.062564">
        <ele>137.396889</ele>
        <time>2017-06-08T07:41:27.000Z</time>
      </trkpt>
      <trkpt lat="43.825820" lon="5.062631">
        <ele>137.374167</ele>
        <time>2017-06-08T07:41:29.000Z</time>
      </trkpt>
      <trkpt lat="43.825718" lon="5.062702">
        <ele>137.352248</ele>
        <time>2017-06-08T07:41:31.000Z</time>
      </trkpt>
      <trkpt lat="43.825603" lon="5.062789">
        <ele>137.327089</ele>
        <time>2017-06-08T07:41:33.000Z</time>
      </trkpt>
      <trkpt lat="43.825497" lon="5.062871">
        <ele>137.293304</ele>
        <time>2017-06-08T07:41:35.000Z</time>
      </trkpt>
      <trkpt lat="43.825394" lon="5.062953">
        <ele>137.188223</ele>
        <time>2017-06-08T07:41:37.000Z</time>
      </trkpt>
      <trkpt lat="43.825294" lon="5.063036">
        <ele>137.085108</ele>
        <time>2017-06-08T07:41:39.000Z</time>
      </trkpt>
      <trkpt lat="43.825188" lon="5.063115">
        <ele>136.978637</ele>
        <time>2017-06-08T07:41:41.000Z</time>
      </trkpt>
      <trkpt lat="43.825092" lon="5.063195">
        <ele>136.879542</ele>
        <time>2017-06-08T07:41:43.000Z</time>
      </trkpt>
      <trkpt lat="43.824993" lon="5.063271">
        <ele>136.779425</ele>
        <time>2017-06-08T07:41:45.000Z</time>
      </trkpt>
      <trkpt lat="43.824890" lon="5.063351">
        <ele>136.674973</ele>
        <time>2017-06-08T07:41:47.000Z</time>
      </trkpt>
      <trkpt lat="43.824787" lon="5.063427">
        <ele>136.571746</ele>
        <time>2017-06-08T07:41:49.000Z</time>
      </trkpt>
      <trkpt lat="43.824690" lon="5.063507">
        <ele>136.471891</ele>
        <time>2017-06-08T07:41:51.000Z</time>
      </trkpt>
      <trkpt lat="43.824590" lon="5.063588">
        <ele>136.369426</ele>
        <time>2017-06-08T07:41:53.000Z</time>
      </trkpt>
      <trkpt lat="43.824490" lon="5.063665">
        <ele>136.268225</ele>
        <time>2017-06-08T07:41:55.000Z</time>
      </trkpt>
      <trkpt lat="43.824394" lon="5.063748">
        <ele>136.168129</ele>
        <time>2017-06-08T07:41:57.000Z</time>
      </trkpt>
      <trkpt lat="43.824295" lon="5.063829">
        <ele>136.066427</ele>
        <time>2017-06-08T07:41:59.000Z</time>
      </trkpt>
      <trkpt lat="43.824196" lon="5.063903">
        <ele>135.966921</ele>
        <time>2017-06-08T07:42:01.000Z</time>
      </trkpt>
      <trkpt lat="43.824104" lon="5.063973">
        <ele>135.874076</ele>
        <time>2017-06-08T07:42:03.000Z</time>
      </trkpt>
      <trkpt lat="43.824000" lon="5.064055">
        <ele>135.768226</ele>
        <time>2017-06-08T07:42:05.000Z</time>
      </trkpt>
      <trkpt lat="43.823900" lon="5.064148">
        <ele>135.707141</ele>
        <time>2017-06-08T07:42:07.000Z</time>
      </trkpt>
      <trkpt lat="43.823795" lon="5.064236">
        <ele>135.690311</ele>
        <time>2017-06-08T07:42:09.000Z</time>
      </trkpt>
      <trkpt lat="43.823692" lon="5.064313">
        <ele>135.674259</ele>
        <time>2017-06-08T07:42:11.000Z</time>
      </trkpt>
      <trkpt lat="43.823586" lon="5.064391">
        <ele>135.657797</ele>
        <time>2017-06-08T07:42:13.000Z</time>
      </trkpt>
      <trkpt lat="43.823483" lon="5.064466">
        <ele>135.641838</ele>
        <time>2017-06-08T07:42:15.000Z</time>
      </trkpt>
      <trkpt lat="43.823368" lon="5.064563">
        <ele>135.623373</ele>
        <time>2017-06-08T07:42:18.000Z</time>
      </trkpt>
      <trkpt lat="43.823265" lon="5.064662">
        <ele>135.606180</ele>
        <time>2017-06-08T07:42:21.000Z</time>
      </trkpt>
      <trkpt lat="43.823166" lon="5.064735">
        <ele>135.590799</ele>
        <time>2017-06-08T07:42:24.000Z</time>
      </trkpt>
      <trkpt lat="43.823082" lon="5.064791">
        <ele>135.578013</ele>
        <time>2017-06-08T07:42:26.000Z</time>
      </trkpt>
      <trkpt lat="43.822998" lon="5.064849">
        <ele>135.565141</ele>
        <time>2017-06-08T07:42:28.000Z</time>
      </trkpt>
      <trkpt lat="43.822903" lon="5.064914">
        <ele>135.550609</ele>
        <time>2017-06-08T07:42:30.000Z</time>
      </trkpt>
      <trkpt lat="43.822815" lon="5.064992">
        <ele>135.536281</ele>
        <time>2017-06-08T07:42:32.000Z</time>
      </trkpt>
      <trkpt lat="43.822720" lon="5.065068">
        <ele>135.521235</ele>
        <time>2017-06-08T07:42:34.000Z</time>
      </trkpt>
      <trkpt lat="43.822630" lon="5.065145">
        <ele>135.506728</ele>
        <time>2017-06-08T07:42:36.000Z</time>
      </trkpt>
      <trkpt lat="43.822544" lon="5.065221">
        <ele>135.492738</ele>
        <time>2017-06-08T07:42:38.000Z</time>
      </trkpt>
      <trkpt lat="43.822450" lon="5.065294">
        <ele>135.477958</ele>
        <time>2017-06-08T07:42:40.000Z</time>
      </trkpt>
      <trkpt lat="43.822360" lon="5.065375">
        <ele>135.506670</ele>
        <time>2017-06-08T07:42:42.000Z</time>
      </trkpt>
      <trkpt lat="43.822277" lon="5.065458">
        <ele>135.602887</ele>
        <time>2017-06-08T07:42:44.000Z</time>
      </trkpt>
      <trkpt lat="43.822190" lon="5.065536">
        <ele>135.700296</ele>
        <time>2017-06-08T07:42:46.000Z</time>
      </trkpt>
      <trkpt lat="43.822105" lon="5.065611">
        <ele>135.795024</ele>
        <time>2017-06-08T07:42:48.000Z</time>
      </trkpt>
      <trkpt lat="43.821980" lon="5.065725">
        <ele>135.935695</ele>
        <time>2017-06-08T07:42:51.000Z</time>
      </trkpt>
      <trkpt lat="43.821903" lon="5.065806">
        <ele>136.026572</ele>
        <time>2017-06-08T07:42:53.000Z</time>
      </trkpt>
      <trkpt lat="43.821830" lon="5.065886">
        <ele>136.114060</ele>
        <time>2017-06-08T07:42:55.000Z</time>
      </trkpt>
      <trkpt lat="43.821750" lon="5.065964">
        <ele>136.206014</ele>
        <time>2017-06-08T07:42:57.000Z</time>
      </trkpt>
      <trkpt lat="43.821670" lon="5.066049">
        <ele>136.300778</ele>
        <time>2017-06-08T07:42:59.000Z</time>
      </trkpt>
      <trkpt lat="43.821587" lon="5.066130">
        <ele>136.396209</ele>
        <time>2017-06-08T07:43:01.000Z</time>
      </trkpt>
      <trkpt lat="43.821510" lon="5.066213">
        <ele>136.487912</ele>
        <time>2017-06-08T07:43:03.000Z</time>
      </trkpt>
      <trkpt lat="43.821426" lon="5.066286">
        <ele>136.581121</ele>
        <time>2017-06-08T07:43:05.000Z</time>
      </trkpt>
      <trkpt lat="43.821340" lon="5.066354">
        <ele>136.674202</ele>
        <time>2017-06-08T07:43:07.000Z</time>
      </trkpt>
      <trkpt lat="43.821247" lon="5.066428">
        <ele>136.775015</ele>
        <time>2017-06-08T07:43:09.000Z</time>
      </trkpt>
      <trkpt lat="43.821163" lon="5.066511">
        <ele>136.871998</ele>
        <time>2017-06-08T07:43:11.000Z</time>
      </trkpt>
      <trkpt lat="43.821080" lon="5.066594">
        <ele>136.968216</ele>
        <time>2017-06-08T07:43:13.000Z</time>
      </trkpt>
      <trkpt lat="43.821007" lon="5.066670">
        <ele>137.054049</ele>
        <time>2017-06-08T07:43:15.000Z</time>
      </trkpt>
      <trkpt lat="43.820927" lon="5.066753">
        <ele>137.147995</ele>
        <time>2017-06-08T07:43:17.000Z</time>
      </trkpt>
      <trkpt lat="43.820847" lon="5.066843">
        <ele>137.300936</ele>
        <time>2017-06-08T07:43:19.000Z</time>
      </trkpt>
      <trkpt lat="43.820763" lon="5.066928">
        <ele>137.463086</ele>
        <time>2017-06-08T07:43:21.000Z</time>
      </trkpt>
      <trkpt lat="43.820680" lon="5.067011">
        <ele>137.622652</ele>
        <time>2017-06-08T07:43:23.000Z</time>
      </trkpt>
      <trkpt lat="43.820590" lon="5.067090">
        <ele>137.788739</ele>
        <time>2017-06-08T07:43:25.000Z</time>
      </trkpt>
      <trkpt lat="43.820520" lon="5.067165">
        <ele>137.926679</ele>
        <time>2017-06-08T07:43:27.000Z</time>
      </trkpt>
      <trkpt lat="43.820446" lon="5.067237">
        <ele>138.067638</ele>
        <time>2017-06-08T07:43:29.000Z</time>
      </trkpt>
      <trkpt lat="43.820340" lon="5.067352">
        <ele>138.277506</ele>
        <time>2017-06-08T07:43:32.000Z</time>
      </trkpt>
      <trkpt lat="43.820270" lon="5.067438">
        <ele>138.423343</ele>
        <time>2017-06-08T07:43:34.000Z</time>
      </trkpt>
      <trkpt lat="43.820190" lon="5.067519">
        <ele>138.577803</ele>
        <time>2017-06-08T07:43:36.000Z</time>
      </trkpt>
      <trkpt lat="43.820110" lon="5.067611">
        <ele>138.739871</ele>
        <time>2017-06-08T07:43:38.000Z</time>
      </trkpt>
      <trkpt lat="43.820040" lon="5.067699">
        <ele>138.887210</ele>
        <time>2017-06-08T07:43:40.000Z</time>
      </trkpt>
      <trkpt lat="43.819973" lon="5.067793">
        <ele>139.035843</ele>
        <time>2017-06-08T07:43:42.000Z</time>
      </trkpt>
      <trkpt lat="43.819904" lon="5.067874">
        <ele>139.176818</ele>
        <time>2017-06-08T07:43:44.000Z</time>
      </trkpt>
      <trkpt lat="43.819817" lon="5.068006">
        <ele>139.377928</ele>
        <time>2017-06-08T07:43:47.000Z</time>
      </trkpt>
      <trkpt lat="43.819756" lon="5.068129">
        <ele>139.545821</ele>
        <time>2017-06-08T07:43:50.000Z</time>
      </trkpt>
      <trkpt lat="43.819700" lon="5.068228">
        <ele>139.687328</ele>
        <time>2017-06-08T07:43:52.000Z</time>
      </trkpt>
      <trkpt lat="43.819633" lon="5.068391">
        <ele>139.898350</ele>
        <time>2017-06-08T07:43:55.000Z</time>
      </trkpt>
      <trkpt lat="43.819590" lon="5.068562">
        <ele>139.926160</ele>
        <time>2017-06-08T07:43:58.000Z</time>
      </trkpt>
      <trkpt lat="43.819550" lon="5.068682">
        <ele>139.885608</ele>
        <time>2017-06-08T07:44:00.000Z</time>
      </trkpt>
      <trkpt lat="43.819508" lon="5.068797">
        <ele>139.846068</ele>
        <time>2017-06-08T07:44:02.000Z</time>
      </trkpt>
      <trkpt lat="43.819458" lon="5.068915">
        <ele>139.804088</ele>
        <time>2017-06-08T07:44:04.000Z</time>
      </trkpt>
      <trkpt lat="43.819410" lon="5.069028">
        <ele>139.763861</ele>
        <time>2017-06-08T07:44:06.000Z</time>
      </trkpt>
      <trkpt lat="43.819355" lon="5.069140">
        <ele>139.722299</ele>
        <time>2017-06-08T07:44:08.000Z</time>
      </trkpt>
      <trkpt lat="43.819300" lon="5.069250">
        <ele>139.681244</ele>
        <time>2017-06-08T07:44:10.000Z</time>
      </trkpt>
      <trkpt lat="43.819244" lon="5.069362">
        <ele>139.639442</ele>
        <time>2017-06-08T07:44:12.000Z</time>
      </trkpt>
      <trkpt lat="43.819176" lon="5.069469">
        <ele>139.595700</ele>
        <time>2017-06-08T07:44:14.000Z</time>
      </trkpt>
      <trkpt lat="43.819110" lon="5.069575">
        <ele>139.552748</ele>
        <time>2017-06-08T07:44:16.000Z</time>
      </trkpt>
      <trkpt lat="43.819042" lon="5.069684">
        <ele>139.508543</ele>
        <time>2017-06-08T07:44:18.000Z</time>
      </trkpt>
      <trkpt lat="43.818980" lon="5.069794">
        <ele>139.465722</ele>
        <time>2017-06-08T07:44:20.000Z</time>
      </trkpt>
      <trkpt lat="43.818916" lon="5.069903">
        <ele>139.422611</ele>
        <time>2017-06-08T07:44:22.000Z</time>
      </trkpt>
      <trkpt lat="43.818855" lon="5.070019">
        <ele>139.378577</ele>
        <time>2017-06-08T07:44:24.000Z</time>
      </trkpt>
      <trkpt lat="43.818783" lon="5.070123">
        <ele>139.334361</ele>
        <time>2017-06-08T07:44:26.000Z</time>
      </trkpt>
      <trkpt lat="43.818720" lon="5.070222">
        <ele>139.293865</ele>
        <time>2017-06-08T07:44:28.000Z</time>
      </trkpt>
      <trkpt lat="43.818657" lon="5.070322">
        <ele>139.253139</ele>
        <time>2017-06-08T07:44:30.000Z</time>
      </trkpt>
      <trkpt lat="43.818590" lon="5.070432">
        <ele>139.208978</ele>
        <time>2017-06-08T07:44:32.000Z</time>
      </trkpt>
      <trkpt lat="43.818527" lon="5.070544">
        <ele>139.231787</ele>
        <time>2017-06-08T07:44:34.000Z</time>
      </trkpt>
      <trkpt lat="43.818466" lon="5.070655">
        <ele>139.273281</ele>
        <time>2017-06-08T07:44:36.000Z</time>
      </trkpt>
      <trkpt lat="43.818400" lon="5.070768">
        <ele>139.316517</ele>
        <time>2017-06-08T07:44:38.000Z</time>
      </trkpt>
      <trkpt lat="43.818333" lon="5.070874">
        <ele>139.358425</ele>
        <time>2017-06-08T07:44:40.000Z</time>
      </trkpt>
      <trkpt lat="43.818268" lon="5.070990">
        <ele>139.402104</ele>
        <time>2017-06-08T07:44:42.000Z</time>
      </trkpt>
      <trkpt lat="43.818207" lon="5.071108">
        <ele>139.445273</ele>
        <time>2017-06-08T07:44:44.000Z</time>
      </trkpt>
      <trkpt lat="43.818146" lon="5.071226">
        <ele>139.488443</ele>
        <time>2017-06-08T07:44:46.000Z</time>
      </trkpt>
      <trkpt lat="43.818073" lon="5.071338">
        <ele>139.533328</ele>
        <time>2017-06-08T07:44:48.000Z</time>
      </trkpt>
      <trkpt lat="43.818012" lon="5.071455">
        <ele>139.576256</ele>
        <time>2017-06-08T07:44:50.000Z</time>
      </trkpt>
      <trkpt lat="43.817950" lon="5.071572">
        <ele>139.619427</ele>
        <time>2017-06-08T07:44:52.000Z</time>
      </trkpt>
      <trkpt lat="43.817894" lon="5.071694">
        <ele>139.662429</ele>
        <time>2017-06-08T07:44:54.000Z</time>
      </trkpt>
      <trkpt lat="43.817840" lon="5.071809">
        <ele>139.703234</ele>
        <time>2017-06-08T07:44:56.000Z</time>
      </trkpt>
      <trkpt lat="43.817790" lon="5.071923">
        <ele>139.742909</ele>
        <time>2017-06-08T07:44:58.000Z</time>
      </trkpt>
      <trkpt lat="43.817734" lon="5.072038">
        <ele>139.784169</ele>
        <time>2017-06-08T07:45:00.000Z</time>
      </trkpt>
      <trkpt lat="43.817673" lon="5.072155">
        <ele>139.827097</ele>
        <time>2017-06-08T07:45:02.000Z</time>
      </trkpt>
      <trkpt lat="43.817608" lon="5.072277">
        <ele>139.872199</ele>
        <time>2017-06-08T07:45:04.000Z</time>
      </trkpt>
      <trkpt lat="43.817547" lon="5.072397">
        <ele>139.915853</ele>
        <time>2017-06-08T07:45:06.000Z</time>
      </trkpt>
      <trkpt lat="43.817490" lon="5.072511">
        <ele>140.020410</ele>
        <time>2017-06-08T07:45:08.000Z</time>
      </trkpt>
      <trkpt lat="43.817440" lon="5.072619">
        <ele>140.203675</ele>
        <time>2017-06-08T07:45:10.000Z</time>
      </trkpt>
      <trkpt lat="43.817360" lon="5.072769">
        <ele>140.470073</ele>
        <time>2017-06-08T07:45:13.000Z</time>
      </trkpt>
      <trkpt lat="43.817307" lon="5.072879">
        <ele>140.658981</ele>
        <time>2017-06-08T07:45:15.000Z</time>
      </trkpt>
      <trkpt lat="43.817240" lon="5.072993">
        <ele>140.868971</ele>
        <time>2017-06-08T07:45:17.000Z</time>
      </trkpt>
      <trkpt lat="43.817180" lon="5.073105">
        <ele>141.068197</ele>
        <time>2017-06-08T07:45:19.000Z</time>
      </trkpt>
      <trkpt lat="43.817120" lon="5.073225">
        <ele>141.276708</ele>
        <time>2017-06-08T07:45:21.000Z</time>
      </trkpt>
      <trkpt lat="43.817055" lon="5.073343">
        <ele>141.488732</ele>
        <time>2017-06-08T07:45:23.000Z</time>
      </trkpt>
      <trkpt lat="43.816994" lon="5.073455">
        <ele>141.689145</ele>
        <time>2017-06-08T07:45:25.000Z</time>
      </trkpt>
      <trkpt lat="43.816933" lon="5.073569">
        <ele>141.891844</ele>
        <time>2017-06-08T07:45:27.000Z</time>
      </trkpt>
      <trkpt lat="43.816868" lon="5.073690">
        <ele>142.107291</ele>
        <time>2017-06-08T07:45:29.000Z</time>
      </trkpt>
      <trkpt lat="43.816803" lon="5.073803">
        <ele>142.313685</ele>
        <time>2017-06-08T07:45:31.000Z</time>
      </trkpt>
      <trkpt lat="43.816734" lon="5.073914">
        <ele>142.522934</ele>
        <time>2017-06-08T07:45:33.000Z</time>
      </trkpt>
      <trkpt lat="43.816670" lon="5.074029">
        <ele>142.730355</ele>
        <time>2017-06-08T07:45:35.000Z</time>
      </trkpt>
      <trkpt lat="43.816597" lon="5.074143">
        <ele>142.948042</ele>
        <time>2017-06-08T07:45:37.000Z</time>
      </trkpt>
      <trkpt lat="43.816530" lon="5.074265">
        <ele>143.167011</ele>
        <time>2017-06-08T07:45:39.000Z</time>
      </trkpt>
      <trkpt lat="43.816463" lon="5.074390">
        <ele>143.389405</ele>
        <time>2017-06-08T07:45:41.000Z</time>
      </trkpt>
      <trkpt lat="43.816400" lon="5.074501">
        <ele>143.472796</ele>
        <time>2017-06-08T07:45:43.000Z</time>
      </trkpt>
      <trkpt lat="43.816350" lon="5.074606">
        <ele>143.417627</ele>
        <time>2017-06-08T07:45:45.000Z</time>
      </trkpt>
      <trkpt lat="43.816290" lon="5.074708">
        <ele>143.359916</ele>
        <time>2017-06-08T07:45:47.000Z</time>
      </trkpt>
      <trkpt lat="43.816208" lon="5.074842">
        <ele>143.282865</ele>
        <time>2017-06-08T07:45:50.000Z</time>
      </trkpt>
      <trkpt lat="43.816124" lon="5.074975">
        <ele>143.205353</ele>
        <time>2017-06-08T07:45:53.000Z</time>
      </trkpt>
      <trkpt lat="43.816036" lon="5.075110">
        <ele>143.125570</ele>
        <time>2017-06-08T07:45:56.000Z</time>
      </trkpt>
      <trkpt lat="43.815950" lon="5.075241">
        <ele>143.047903</ele>
        <time>2017-06-08T07:45:59.000Z</time>
      </trkpt>
      <trkpt lat="43.815890" lon="5.075340">
        <ele>142.991205</ele>
        <time>2017-06-08T07:46:01.000Z</time>
      </trkpt>
      <trkpt lat="43.815820" lon="5.075492">
        <ele>142.912128</ele>
        <time>2017-06-08T07:46:04.000Z</time>
      </trkpt>
      <trkpt lat="43.815735" lon="5.075637">
        <ele>142.830200</ele>
        <time>2017-06-08T07:46:07.000Z</time>
      </trkpt>
      <trkpt lat="43.815674" lon="5.075739">
        <ele>142.772103</ele>
        <time>2017-06-08T07:46:09.000Z</time>
      </trkpt>
      <trkpt lat="43.815613" lon="5.075847">
        <ele>142.711957</ele>
        <time>2017-06-08T07:46:11.000Z</time>
      </trkpt>
      <trkpt lat="43.815560" lon="5.075953">
        <ele>142.655402</ele>
        <time>2017-06-08T07:46:13.000Z</time>
      </trkpt>
      <trkpt lat="43.815500" lon="5.076058">
        <ele>142.596665</ele>
        <time>2017-06-08T07:46:15.000Z</time>
      </trkpt>
      <trkpt lat="43.815445" lon="5.076171">
        <ele>142.536890</ele>
        <time>2017-06-08T07:46:17.000Z</time>
      </trkpt>
      <trkpt lat="43.815390" lon="5.076285">
        <ele>142.476750</ele>
        <time>2017-06-08T07:46:19.000Z</time>
      </trkpt>
      <trkpt lat="43.815330" lon="5.076386">
        <ele>142.419378</ele>
        <time>2017-06-08T07:46:21.000Z</time>
      </trkpt>
      <trkpt lat="43.815273" lon="5.076488">
        <ele>142.481708</ele>
        <time>2017-06-08T07:46:23.000Z</time>
      </trkpt>
      <trkpt lat="43.815212" lon="5.076591">
        <ele>142.578897</ele>
        <time>2017-06-08T07:46:25.000Z</time>
      </trkpt>
      <trkpt lat="43.815155" lon="5.076704">
        <ele>142.679458</ele>
        <time>2017-06-08T07:46:27.000Z</time>
      </trkpt>
      <trkpt lat="43.815098" lon="5.076820">
        <ele>142.781820</ele>
        <time>2017-06-08T07:46:29.000Z</time>
      </trkpt>
      <trkpt lat="43.815044" lon="5.076934">
        <ele>142.881284</ele>
        <time>2017-06-08T07:46:31.000Z</time>
      </trkpt>
      <trkpt lat="43.814990" lon="5.077050">
        <ele>142.981970</ele>
        <time>2017-06-08T07:46:33.000Z</time>
      </trkpt>
      <trkpt lat="43.814930" lon="5.077164">
        <ele>143.084887</ele>
        <time>2017-06-08T07:46:35.000Z</time>
      </trkpt>
      <trkpt lat="43.814870" lon="5.077285">
        <ele>143.191972</ele>
        <time>2017-06-08T07:46:37.000Z</time>
      </trkpt>
      <trkpt lat="43.814804" lon="5.077406">
        <ele>143.302604</ele>
        <time>2017-06-08T07:46:39.000Z</time>
      </trkpt>
      <trkpt lat="43.814750" lon="5.077529">
        <ele>143.407618</ele>
        <time>2017-06-08T07:46:41.000Z</time>
      </trkpt>
      <trkpt lat="43.814697" lon="5.077648">
        <ele>143.509615</ele>
        <time>2017-06-08T07:46:43.000Z</time>
      </trkpt>
      <trkpt lat="43.814632" lon="5.077760">
        <ele>143.614449</ele>
        <time>2017-06-08T07:46:45.000Z</time>
      </trkpt>
      <trkpt lat="43.814570" lon="5.077879">
        <ele>143.721506</ele>
        <time>2017-06-08T07:46:47.000Z</time>
      </trkpt>
      <trkpt lat="43.814500" lon="5.078000">
        <ele>143.834622</ele>
        <time>2017-06-08T07:46:49.000Z</time>
      </trkpt>
      <trkpt lat="43.814438" lon="5.078130">
        <ele>143.948281</ele>
        <time>2017-06-08T07:46:51.000Z</time>
      </trkpt>
      <trkpt lat="43.814373" lon="5.078239">
        <ele>144.051419</ele>
        <time>2017-06-08T07:46:53.000Z</time>
      </trkpt>
      <trkpt lat="43.814320" lon="5.078382">
        <ele>144.168675</ele>
        <time>2017-06-08T07:46:55.000Z</time>
      </trkpt>
      <trkpt lat="43.814260" lon="5.078505">
        <ele>144.323718</ele>
        <time>2017-06-08T07:46:57.000Z</time>
      </trkpt>
      <trkpt lat="43.814198" lon="5.078627">
        <ele>144.531478</ele>
        <time>2017-06-08T07:46:59.000Z</time>
      </trkpt>
      <trkpt lat="43.814137" lon="5.078750">
        <ele>144.739280</ele>
        <time>2017-06-08T07:47:01.000Z</time>
      </trkpt>
      <trkpt lat="43.814080" lon="5.078870">
        <ele>144.939307</ele>
        <time>2017-06-08T07:47:03.000Z</time>
      </trkpt>
      <trkpt lat="43.814014" lon="5.078992">
        <ele>145.151606</ele>
        <time>2017-06-08T07:47:05.000Z</time>
      </trkpt>
      <trkpt lat="43.813940" lon="5.079121">
        <ele>145.381054</ele>
        <time>2017-06-08T07:47:07.000Z</time>
      </trkpt>
      <trkpt lat="43.813890" lon="5.079253">
        <ele>145.588623</ele>
        <time>2017-06-08T07:47:09.000Z</time>
      </trkpt>
      <trkpt lat="43.813835" lon="5.079382">
        <ele>145.797241</ele>
        <time>2017-06-08T07:47:11.000Z</time>
      </trkpt>
      <trkpt lat="43.813770" lon="5.079504">
        <ele>146.008389</ele>
        <time>2017-06-08T07:47:13.000Z</time>
      </trkpt>
      <trkpt lat="43.813710" lon="5.079632">
        <ele>146.220907</ele>
        <time>2017-06-08T07:47:15.000Z</time>
      </trkpt>
      <trkpt lat="43.813650" lon="5.079759">
        <ele>146.432260</ele>
        <time>2017-06-08T07:47:17.000Z</time>
      </trkpt>
      <trkpt lat="43.813595" lon="5.079899">
        <ele>146.654202</ele>
        <time>2017-06-08T07:47:19.000Z</time>
      </trkpt>
      <trkpt lat="43.813530" lon="5.080040">
        <ele>146.887162</ele>
        <time>2017-06-08T07:47:21.000Z</time>
      </trkpt>
      <trkpt lat="43.813465" lon="5.080182">
        <ele>147.121297</ele>
        <time>2017-06-08T07:47:23.000Z</time>
      </trkpt>
      <trkpt lat="43.813366" lon="5.080309">
        <ele>147.381598</ele>
        <time>2017-06-08T07:47:25.000Z</time>
      </trkpt>
      <trkpt lat="43.813297" lon="5.080431">
        <ele>147.597420</ele>
        <time>2017-06-08T07:47:27.000Z</time>
      </trkpt>
      <trkpt lat="43.813240" lon="5.080563">
        <ele>147.848832</ele>
        <time>2017-06-08T07:47:29.000Z</time>
      </trkpt>
      <trkpt lat="43.813194" lon="5.080680">
        <ele>148.094101</ele>
        <time>2017-06-08T07:47:31.000Z</time>
      </trkpt>
      <trkpt lat="43.813150" lon="5.080791">
        <ele>148.327233</ele>
        <time>2017-06-08T07:47:33.000Z</time>
      </trkpt>
      <trkpt lat="43.813084" lon="5.080897">
        <ele>148.584958</ele>
        <time>2017-06-08T07:47:35.000Z</time>
      </trkpt>
      <trkpt lat="43.813020" lon="5.081016">
        <ele>148.858165</ele>
        <time>2017-06-08T07:47:37.000Z</time>
      </trkpt>
      <trkpt lat="43.812958" lon="5.081140">
        <ele>149.135869</ele>
        <time>2017-06-08T07:47:39.000Z</time>
      </trkpt>
      <trkpt lat="43.812900" lon="5.081260">
        <ele>149.401743</ele>
        <time>2017-06-08T07:47:41.000Z</time>
      </trkpt>
      <trkpt lat="43.812843" lon="5.081382">
        <ele>149.669288</ele>
        <time>2017-06-08T07:47:43.000Z</time>
      </trkpt>
      <trkpt lat="43.812786" lon="5.081499">
        <ele>149.929155</ele>
        <time>2017-06-08T07:47:45.000Z</time>
      </trkpt>
      <trkpt lat="43.812730" lon="5.081610">
        <ele>150.178475</ele>
        <time>2017-06-08T07:47:47.000Z</time>
      </trkpt>
      <trkpt lat="43.812660" lon="5.081759">
        <ele>150.505767</ele>
        <time>2017-06-08T07:47:50.000Z</time>
      </trkpt>
      <trkpt lat="43.812584" lon="5.081879">
        <ele>150.799681</ele>
        <time>2017-06-08T07:47:53.000Z</time>
      </trkpt>
      <trkpt lat="43.812510" lon="5.082021">
        <ele>151.122119</ele>
        <time>2017-06-08T07:47:56.000Z</time>
      </trkpt>
      <trkpt lat="43.812454" lon="5.082123">
        <ele>151.358052</ele>
        <time>2017-06-08T07:47:58.000Z</time>
      </trkpt>
      <trkpt lat="43.812393" lon="5.082227">
        <ele>151.604765</ele>
        <time>2017-06-08T07:48:00.000Z</time>
      </trkpt>
      <trkpt lat="43.812336" lon="5.082337">
        <ele>151.854059</ele>
        <time>2017-06-08T07:48:02.000Z</time>
      </trkpt>
      <trkpt lat="43.812275" lon="5.082451">
        <ele>152.115316</ele>
        <time>2017-06-08T07:48:04.000Z</time>
      </trkpt>
      <trkpt lat="43.812218" lon="5.082569">
        <ele>152.300677</ele>
        <time>2017-06-08T07:48:06.000Z</time>
      </trkpt>
      <trkpt lat="43.812160" lon="5.082693">
        <ele>152.348622</ele>
        <time>2017-06-08T07:48:08.000Z</time>
      </trkpt>
      <trkpt lat="43.812100" lon="5.082806">
        <ele>152.394141</ele>
        <time>2017-06-08T07:48:10.000Z</time>
      </trkpt>
      <trkpt lat="43.812040" lon="5.082919">
        <ele>152.439661</ele>
        <time>2017-06-08T07:48:12.000Z</time>
      </trkpt>
      <trkpt lat="43.811974" lon="5.083011">
        <ele>152.481751</ele>
        <time>2017-06-08T07:48:14.000Z</time>
      </trkpt>
      <trkpt lat="43.811848" lon="5.083045">
        <ele>152.539468</ele>
        <time>2017-06-08T07:48:17.000Z</time>
      </trkpt>
      <trkpt lat="43.811745" lon="5.083056">
        <ele>152.585917</ele>
        <time>2017-06-08T07:48:19.000Z</time>
      </trkpt>
      <trkpt lat="43.811646" lon="5.083067">
        <ele>152.630573</ele>
        <time>2017-06-08T07:48:21.000Z</time>
      </trkpt>
      <trkpt lat="43.811546" lon="5.083053">
        <ele>152.675764</ele>
        <time>2017-06-08T07:48:23.000Z</time>
      </trkpt>
      <trkpt lat="43.811443" lon="5.083059">
        <ele>152.722116</ele>
        <time>2017-06-08T07:48:25.000Z</time>
      </trkpt>
      <trkpt lat="43.811330" lon="5.083062">
        <ele>152.772933</ele>
        <time>2017-06-08T07:48:27.000Z</time>
      </trkpt>
      <trkpt lat="43.811222" lon="5.083082">
        <ele>152.821924</ele>
        <time>2017-06-08T07:48:29.000Z</time>
      </trkpt>
      <trkpt lat="43.811115" lon="5.083086">
        <ele>152.870051</ele>
        <time>2017-06-08T07:48:31.000Z</time>
      </trkpt>
      <trkpt lat="43.811005" lon="5.083093">
        <ele>152.919562</ele>
        <time>2017-06-08T07:48:33.000Z</time>
      </trkpt>
      <trkpt lat="43.810886" lon="5.083094">
        <ele>152.973069</ele>
        <time>2017-06-08T07:48:35.000Z</time>
      </trkpt>
      <trkpt lat="43.810776" lon="5.083091">
        <ele>153.022537</ele>
        <time>2017-06-08T07:48:37.000Z</time>
      </trkpt>
      <trkpt lat="43.810670" lon="5.083102">
        <ele>153.070331</ele>
        <time>2017-06-08T07:48:39.000Z</time>
      </trkpt>
      <trkpt lat="43.810555" lon="5.083115">
        <ele>153.083608</ele>
        <time>2017-06-08T07:48:41.000Z</time>
      </trkpt>
      <trkpt lat="43.810432" lon="5.083118">
        <ele>153.065514</ele>
        <time>2017-06-08T07:48:43.000Z</time>
      </trkpt>
      <trkpt lat="43.810314" lon="5.083118">
        <ele>153.048157</ele>
        <time>2017-06-08T07:48:45.000Z</time>
      </trkpt>
      <trkpt lat="43.810196" lon="5.083127">
        <ele>153.030775</ele>
        <time>2017-06-08T07:48:47.000Z</time>
      </trkpt>
      <trkpt lat="43.810074" lon="5.083134">
        <ele>153.012815</ele>
        <time>2017-06-08T07:48:49.000Z</time>
      </trkpt>
      <trkpt lat="43.809960" lon="5.083131">
        <ele>152.996045</ele>
        <time>2017-06-08T07:48:51.000Z</time>
      </trkpt>
      <trkpt lat="43.809837" lon="5.083136">
        <ele>152.977946</ele>
        <time>2017-06-08T07:48:53.000Z</time>
      </trkpt>
      <trkpt lat="43.809715" lon="5.083144">
        <ele>152.959981</ele>
        <time>2017-06-08T07:48:55.000Z</time>
      </trkpt>
      <trkpt lat="43.809600" lon="5.083145">
        <ele>152.943066</ele>
        <time>2017-06-08T07:48:57.000Z</time>
      </trkpt>
      <trkpt lat="43.809494" lon="5.083151">
        <ele>152.927462</ele>
        <time>2017-06-08T07:48:59.000Z</time>
      </trkpt>
      <trkpt lat="43.809383" lon="5.083161">
        <ele>152.911101</ele>
        <time>2017-06-08T07:49:01.000Z</time>
      </trkpt>
      <trkpt lat="43.809265" lon="5.083168">
        <ele>152.893729</ele>
        <time>2017-06-08T07:49:03.000Z</time>
      </trkpt>
      <trkpt lat="43.809155" lon="5.083175">
        <ele>152.877533</ele>
        <time>2017-06-08T07:49:05.000Z</time>
      </trkpt>
      <trkpt lat="43.809044" lon="5.083174">
        <ele>152.861206</ele>
        <time>2017-06-08T07:49:07.000Z</time>
      </trkpt>
      <trkpt lat="43.808933" lon="5.083178">
        <ele>152.844874</ele>
        <time>2017-06-08T07:49:09.000Z</time>
      </trkpt>
      <trkpt lat="43.808834" lon="5.083194">
        <ele>152.830214</ele>
        <time>2017-06-08T07:49:11.000Z</time>
      </trkpt>
      <trkpt lat="43.808740" lon="5.083190">
        <ele>152.881275</ele>
        <time>2017-06-08T07:49:13.000Z</time>
      </trkpt>
      <trkpt lat="43.808636" lon="5.083186">
        <ele>152.947450</ele>
        <time>2017-06-08T07:49:15.000Z</time>
      </trkpt>
      <trkpt lat="43.808537" lon="5.083191">
        <ele>153.010461</ele>
        <time>2017-06-08T07:49:17.000Z</time>
      </trkpt>
      <trkpt lat="43.808430" lon="5.083195">
        <ele>153.078543</ele>
        <time>2017-06-08T07:49:19.000Z</time>
      </trkpt>
      <trkpt lat="43.808320" lon="5.083199">
        <ele>153.148533</ele>
        <time>2017-06-08T07:49:21.000Z</time>
      </trkpt>
      <trkpt lat="43.808212" lon="5.083200">
        <ele>153.217228</ele>
        <time>2017-06-08T07:49:23.000Z</time>
      </trkpt>
      <trkpt lat="43.808113" lon="5.083209">
        <ele>153.280333</ele>
        <time>2017-06-08T07:49:25.000Z</time>
      </trkpt>
      <trkpt lat="43.808020" lon="5.083210">
        <ele>153.339487</ele>
        <time>2017-06-08T07:49:27.000Z</time>
      </trkpt>
      <trkpt lat="43.807930" lon="5.083216">
        <ele>153.396798</ele>
        <time>2017-06-08T07:49:29.000Z</time>
      </trkpt>
      <trkpt lat="43.807804" lon="5.083225">
        <ele>153.477047</ele>
        <time>2017-06-08T07:49:32.000Z</time>
      </trkpt>
      <trkpt lat="43.807686" lon="5.083234">
        <ele>153.552215</ele>
        <time>2017-06-08T07:49:35.000Z</time>
      </trkpt>
      <trkpt lat="43.807575" lon="5.083238">
        <ele>153.622840</ele>
        <time>2017-06-08T07:49:38.000Z</time>
      </trkpt>
      <trkpt lat="43.807446" lon="5.083241">
        <ele>153.704903</ele>
        <time>2017-06-08T07:49:41.000Z</time>
      </trkpt>
      <trkpt lat="43.807350" lon="5.083250">
        <ele>153.766103</ele>
        <time>2017-06-08T07:49:43.000Z</time>
      </trkpt>
      <trkpt lat="43.807262" lon="5.083254">
        <ele>153.822106</ele>
        <time>2017-06-08T07:49:45.000Z</time>
      </trkpt>
      <trkpt lat="43.807167" lon="5.083256">
        <ele>153.882538</ele>
        <time>2017-06-08T07:49:47.000Z</time>
      </trkpt>
      <trkpt lat="43.807076" lon="5.083254">
        <ele>153.940426</ele>
        <time>2017-06-08T07:49:49.000Z</time>
      </trkpt>
      <trkpt lat="43.806953" lon="5.083266">
        <ele>153.790064</ele>
        <time>2017-06-08T07:49:52.000Z</time>
      </trkpt>
      <trkpt lat="43.806830" lon="5.083268">
        <ele>153.481299</ele>
        <time>2017-06-08T07:49:55.000Z</time>
      </trkpt>
      <trkpt lat="43.806710" lon="5.083264">
        <ele>153.179999</ele>
        <time>2017-06-08T07:49:58.000Z</time>
      </trkpt>
      <trkpt lat="43.806595" lon="5.083269">
        <ele>152.891194</ele>
        <time>2017-06-08T07:50:01.000Z</time>
      </trkpt>
      <trkpt lat="43.806480" lon="5.083256">
        <ele>152.601573</ele>
        <time>2017-06-08T07:50:04.000Z</time>
      </trkpt>
      <trkpt lat="43.806362" lon="5.083242">
        <ele>152.304296</ele>
        <time>2017-06-08T07:50:07.000Z</time>
      </trkpt>
      <trkpt lat="43.806250" lon="5.083197">
        <ele>152.011584</ele>
        <time>2017-06-08T07:50:10.000Z</time>
      </trkpt>
      <trkpt lat="43.806145" lon="5.083158">
        <ele>151.738718</ele>
        <time>2017-06-08T07:50:13.000Z</time>
      </trkpt>
      <trkpt lat="43.806026" lon="5.083107">
        <ele>151.426054</ele>
        <time>2017-06-08T07:50:16.000Z</time>
      </trkpt>
      <trkpt lat="43.805910" lon="5.083048">
        <ele>151.115885</ele>
        <time>2017-06-08T07:50:19.000Z</time>
      </trkpt>
      <trkpt lat="43.805790" lon="5.083001">
        <ele>150.802870</ele>
        <time>2017-06-08T07:50:22.000Z</time>
      </trkpt>
      <trkpt lat="43.805668" lon="5.082959">
        <ele>150.487326</ele>
        <time>2017-06-08T07:50:25.000Z</time>
      </trkpt>
      <trkpt lat="43.805550" lon="5.082925">
        <ele>150.184797</ele>
        <time>2017-06-08T07:50:28.000Z</time>
      </trkpt>
      <trkpt lat="43.805435" lon="5.082883">
        <ele>149.886276</ele>
        <time>2017-06-08T07:50:31.000Z</time>
      </trkpt>
      <trkpt lat="43.805320" lon="5.082869">
        <ele>149.596502</ele>
        <time>2017-06-08T07:50:34.000Z</time>
      </trkpt>
      <trkpt lat="43.805220" lon="5.082895">
        <ele>149.692158</ele>
        <time>2017-06-08T07:50:37.000Z</time>
      </trkpt>
      <trkpt lat="43.805130" lon="5.082954">
        <ele>150.194028</ele>
        <time>2017-06-08T07:50:40.000Z</time>
      </trkpt>
      <trkpt lat="43.805035" lon="5.083027">
        <ele>150.741598</ele>
        <time>2017-06-08T07:50:43.000Z</time>
      </trkpt>
      <trkpt lat="43.804940" lon="5.083100">
        <ele>151.289169</ele>
        <time>2017-06-08T07:50:46.000Z</time>
      </trkpt>
      <trkpt lat="43.804830" lon="5.083169">
        <ele>151.897812</ele>
        <time>2017-06-08T07:50:49.000Z</time>
      </trkpt>
      <trkpt lat="43.804730" lon="5.083248">
        <ele>152.478050</ele>
        <time>2017-06-08T07:50:52.000Z</time>
      </trkpt>
      <trkpt lat="43.804623" lon="5.083332">
        <ele>153.097952</ele>
        <time>2017-06-08T07:50:55.000Z</time>
      </trkpt>
      <trkpt lat="43.804510" lon="5.083417">
        <ele>153.746069</ele>
        <time>2017-06-08T07:50:58.000Z</time>
      </trkpt>
      <trkpt lat="43.804394" lon="5.083509">
        <ele>154.419795</ele>
        <time>2017-06-08T07:51:01.000Z</time>
      </trkpt>
      <trkpt lat="43.804276" lon="5.083596">
        <ele>155.093557</ele>
        <time>2017-06-08T07:51:04.000Z</time>
      </trkpt>
      <trkpt lat="43.804195" lon="5.083657">
        <ele>155.558259</ele>
        <time>2017-06-08T07:51:06.000Z</time>
      </trkpt>
      <trkpt lat="43.804077" lon="5.083748">
        <ele>156.238978</ele>
        <time>2017-06-08T07:51:09.000Z</time>
      </trkpt>
      <trkpt lat="43.803960" lon="5.083837">
        <ele>156.911765</ele>
        <time>2017-06-08T07:51:12.000Z</time>
      </trkpt>
      <trkpt lat="43.803844" lon="5.083926">
        <ele>157.580139</ele>
        <time>2017-06-08T07:51:15.000Z</time>
      </trkpt>
      <trkpt lat="43.803753" lon="5.084028">
        <ele>158.170137</ele>
        <time>2017-06-08T07:51:18.000Z</time>
      </trkpt>
      <trkpt lat="43.803696" lon="5.084146">
        <ele>158.526868</ele>
        <time>2017-06-08T07:51:21.000Z</time>
      </trkpt>
      <trkpt lat="43.803642" lon="5.084255">
        <ele>158.534878</ele>
        <time>2017-06-08T07:51:24.000Z</time>
      </trkpt>
      <trkpt lat="43.803566" lon="5.084339">
        <ele>158.543040</ele>
        <time>2017-06-08T07:51:27.000Z</time>
      </trkpt>
      <trkpt lat="43.803474" lon="5.084415">
        <ele>158.552032</ele>
        <time>2017-06-08T07:51:30.000Z</time>
      </trkpt>
      <trkpt lat="43.803370" lon="5.084492">
        <ele>158.561931</ele>
        <time>2017-06-08T07:51:33.000Z</time>
      </trkpt>
      <trkpt lat="43.803272" lon="5.084574">
        <ele>158.571542</ele>
        <time>2017-06-08T07:51:36.000Z</time>
      </trkpt>
      <trkpt lat="43.803165" lon="5.084663">
        <ele>158.582018</ele>
        <time>2017-06-08T07:51:39.000Z</time>
      </trkpt>
      <trkpt lat="43.803055" lon="5.084749">
        <ele>158.592622</ele>
        <time>2017-06-08T07:51:42.000Z</time>
      </trkpt>
      <trkpt lat="43.802948" lon="5.084836">
        <ele>158.603037</ele>
        <time>2017-06-08T07:51:45.000Z</time>
      </trkpt>
      <trkpt lat="43.802850" lon="5.084933">
        <ele>158.613147</ele>
        <time>2017-06-08T07:51:48.000Z</time>
      </trkpt>
      <trkpt lat="43.802740" lon="5.085036">
        <ele>158.624293</ele>
        <time>2017-06-08T07:51:51.000Z</time>
      </trkpt>
      <trkpt lat="43.802647" lon="5.085117">
        <ele>158.633515</ele>
        <time>2017-06-08T07:51:54.000Z</time>
      </trkpt>
      <trkpt lat="43.802547" lon="5.085179">
        <ele>158.642712</ele>
        <time>2017-06-08T07:51:57.000Z</time>
      </trkpt>
      <trkpt lat="43.802470" lon="5.085264">
        <ele>158.650977</ele>
        <time>2017-06-08T07:52:00.000Z</time>
      </trkpt>
      <trkpt lat="43.802380" lon="5.085374">
        <ele>158.661052</ele>
        <time>2017-06-08T07:52:04.000Z</time>
      </trkpt>
      <trkpt lat="43.802288" lon="5.085419">
        <ele>158.669242</ele>
        <time>2017-06-08T07:52:07.000Z</time>
      </trkpt>
      <trkpt lat="43.802216" lon="5.085493">
        <ele>158.658202</ele>
        <time>2017-06-08T07:52:15.000Z</time>
      </trkpt>
      <trkpt lat="43.802284" lon="5.085404">
        <ele>158.575542</ele>
        <time>2017-06-08T08:01:45.000Z</time>
      </trkpt>
      <trkpt lat="43.802174" lon="5.085515">
        <ele>158.455291</ele>
        <time>2017-06-08T08:02:40.000Z</time>
      </trkpt>
      <trkpt lat="43.802094" lon="5.085598">
        <ele>158.366974</ele>
        <time>2017-06-08T08:02:46.000Z</time>
      </trkpt>
      <trkpt lat="43.802025" lon="5.085687">
        <ele>158.283669</ele>
        <time>2017-06-08T08:02:50.000Z</time>
      </trkpt>
      <trkpt lat="43.801968" lon="5.085812">
        <ele>158.189368</ele>
        <time>2017-06-08T08:02:54.000Z</time>
      </trkpt>
      <trkpt lat="43.801933" lon="5.085956">
        <ele>158.092460</ele>
        <time>2017-06-08T08:02:57.000Z</time>
      </trkpt>
      <trkpt lat="43.801903" lon="5.086076">
        <ele>158.011465</ele>
        <time>2017-06-08T08:03:00.000Z</time>
      </trkpt>
      <trkpt lat="43.801903" lon="5.086241">
        <ele>157.906231</ele>
        <time>2017-06-08T08:03:04.000Z</time>
      </trkpt>
      <trkpt lat="43.801876" lon="5.086378">
        <ele>157.815656</ele>
        <time>2017-06-08T08:03:07.000Z</time>
      </trkpt>
      <trkpt lat="43.801870" lon="5.086516">
        <ele>157.727483</ele>
        <time>2017-06-08T08:03:10.000Z</time>
      </trkpt>
      <trkpt lat="43.801846" lon="5.086659">
        <ele>157.633846</ele>
        <time>2017-06-08T08:03:13.000Z</time>
      </trkpt>
      <trkpt lat="43.801834" lon="5.086816">
        <ele>157.533155</ele>
        <time>2017-06-08T08:03:16.000Z</time>
      </trkpt>
      <trkpt lat="43.801826" lon="5.086965">
        <ele>157.437863</ele>
        <time>2017-06-08T08:03:19.000Z</time>
      </trkpt>
      <trkpt lat="43.801826" lon="5.087099">
        <ele>157.352400</ele>
        <time>2017-06-08T08:03:22.000Z</time>
      </trkpt>
      <trkpt lat="43.801815" lon="5.087234">
        <ele>157.265753</ele>
        <time>2017-06-08T08:03:25.000Z</time>
      </trkpt>
      <trkpt lat="43.801810" lon="5.087367">
        <ele>157.180813</ele>
        <time>2017-06-08T08:03:28.000Z</time>
      </trkpt>
      <trkpt lat="43.801804" lon="5.087525">
        <ele>157.113443</ele>
        <time>2017-06-08T08:03:32.000Z</time>
      </trkpt>
      <trkpt lat="43.801807" lon="5.087655">
        <ele>157.507006</ele>
        <time>2017-06-08T08:03:35.000Z</time>
      </trkpt>
      <trkpt lat="43.801780" lon="5.087807">
        <ele>157.980661</ele>
        <time>2017-06-08T08:03:39.000Z</time>
      </trkpt>
      <trkpt lat="43.801743" lon="5.087943">
        <ele>158.420444</ele>
        <time>2017-06-08T08:03:43.000Z</time>
      </trkpt>
      <trkpt lat="43.801693" lon="5.088067">
        <ele>158.850237</ele>
        <time>2017-06-08T08:03:47.000Z</time>
      </trkpt>
      <trkpt lat="43.801650" lon="5.088182">
        <ele>159.242136</ele>
        <time>2017-06-08T08:03:51.000Z</time>
      </trkpt>
      <trkpt lat="43.801605" lon="5.088297">
        <ele>159.637964</ele>
        <time>2017-06-08T08:03:55.000Z</time>
      </trkpt>
      <trkpt lat="43.801570" lon="5.088414">
        <ele>160.021195</ele>
        <time>2017-06-08T08:03:59.000Z</time>
      </trkpt>
      <trkpt lat="43.801506" lon="5.088526">
        <ele>160.453451</ele>
        <time>2017-06-08T08:04:03.000Z</time>
      </trkpt>
      <trkpt lat="43.801437" lon="5.088612">
        <ele>160.842553</ele>
        <time>2017-06-08T08:04:06.000Z</time>
      </trkpt>
      <trkpt lat="43.801365" lon="5.088694">
        <ele>161.233298</ele>
        <time>2017-06-08T08:04:11.000Z</time>
      </trkpt>
      <trkpt lat="43.801290" lon="5.088810">
        <ele>161.704543</ele>
        <time>2017-06-08T08:04:16.000Z</time>
      </trkpt>
      <trkpt lat="43.801210" lon="5.088911">
        <ele>162.158295</ele>
        <time>2017-06-08T08:04:20.000Z</time>
      </trkpt>
      <trkpt lat="43.801113" lon="5.088991">
        <ele>162.631558</ele>
        <time>2017-06-08T08:04:24.000Z</time>
      </trkpt>
      <trkpt lat="43.801020" lon="5.089074">
        <ele>163.095343</ele>
        <time>2017-06-08T08:04:28.000Z</time>
      </trkpt>
      <trkpt lat="43.800926" lon="5.089136">
        <ele>163.531810</ele>
        <time>2017-06-08T08:04:31.000Z</time>
      </trkpt>
      <trkpt lat="43.800827" lon="5.089215">
        <ele>164.010780</ele>
        <time>2017-06-08T08:04:35.000Z</time>
      </trkpt>
      <trkpt lat="43.800735" lon="5.089258">
        <ele>164.417842</ele>
        <time>2017-06-08T08:04:38.000Z</time>
      </trkpt>
      <trkpt lat="43.800663" lon="5.089331">
        <ele>164.705924</ele>
        <time>2017-06-08T08:04:42.000Z</time>
      </trkpt>
      <trkpt lat="43.800568" lon="5.089433">
        <ele>164.947935</ele>
        <time>2017-06-08T08:04:46.000Z</time>
      </trkpt>
      <trkpt lat="43.800457" lon="5.089540">
        <ele>165.220224</ele>
        <time>2017-06-08T08:04:50.000Z</time>
      </trkpt>
      <trkpt lat="43.800373" lon="5.089646">
        <ele>165.449011</ele>
        <time>2017-06-08T08:04:53.000Z</time>
      </trkpt>
      <trkpt lat="43.800300" lon="5.089744">
        <ele>165.653690</ele>
        <time>2017-06-08T08:04:56.000Z</time>
      </trkpt>
      <trkpt lat="43.800230" lon="5.089863">
        <ele>165.876804</ele>
        <time>2017-06-08T08:04:59.000Z</time>
      </trkpt>
      <trkpt lat="43.800150" lon="5.089970">
        <ele>166.100709</ele>
        <time>2017-06-08T08:05:02.000Z</time>
      </trkpt>
      <trkpt lat="43.800080" lon="5.090078">
        <ele>166.311672</ele>
        <time>2017-06-08T08:05:05.000Z</time>
      </trkpt>
      <trkpt lat="43.800007" lon="5.090195">
        <ele>166.536444</ele>
        <time>2017-06-08T08:05:08.000Z</time>
      </trkpt>
      <trkpt lat="43.799923" lon="5.090318">
        <ele>166.782547</ele>
        <time>2017-06-08T08:05:11.000Z</time>
      </trkpt>
      <trkpt lat="43.799843" lon="5.090455">
        <ele>167.038663</ele>
        <time>2017-06-08T08:05:14.000Z</time>
      </trkpt>
      <trkpt lat="43.799767" lon="5.090570">
        <ele>167.265279</ele>
        <time>2017-06-08T08:05:17.000Z</time>
      </trkpt>
      <trkpt lat="43.799683" lon="5.090680">
        <ele>167.498021</ele>
        <time>2017-06-08T08:05:20.000Z</time>
      </trkpt>
      <trkpt lat="43.799606" lon="5.090797">
        <ele>167.728142</ele>
        <time>2017-06-08T08:05:23.000Z</time>
      </trkpt>
      <trkpt lat="43.799530" lon="5.090915">
        <ele>167.957994</ele>
        <time>2017-06-08T08:05:26.000Z</time>
      </trkpt>
      <trkpt lat="43.799460" lon="5.091003">
        <ele>168.148325</ele>
        <time>2017-06-08T08:05:28.000Z</time>
      </trkpt>
      <trkpt lat="43.799374" lon="5.091129">
        <ele>168.667376</ele>
        <time>2017-06-08T08:05:31.000Z</time>
      </trkpt>
      <trkpt lat="43.799290" lon="5.091262">
        <ele>169.375224</ele>
        <time>2017-06-08T08:05:34.000Z</time>
      </trkpt>
      <trkpt lat="43.799206" lon="5.091405">
        <ele>170.113685</ele>
        <time>2017-06-08T08:05:37.000Z</time>
      </trkpt>
      <trkpt lat="43.799126" lon="5.091539">
        <ele>170.810199</ele>
        <time>2017-06-08T08:05:40.000Z</time>
      </trkpt>
      <trkpt lat="43.799072" lon="5.091641">
        <ele>171.316852</ele>
        <time>2017-06-08T08:05:42.000Z</time>
      </trkpt>
      <trkpt lat="43.798985" lon="5.091784">
        <ele>172.065934</ele>
        <time>2017-06-08T08:05:45.000Z</time>
      </trkpt>
      <trkpt lat="43.798885" lon="5.091897">
        <ele>172.782022</ele>
        <time>2017-06-08T08:05:48.000Z</time>
      </trkpt>
      <trkpt lat="43.798786" lon="5.091988">
        <ele>173.441306</ele>
        <time>2017-06-08T08:05:51.000Z</time>
      </trkpt>
      <trkpt lat="43.798664" lon="5.092062">
        <ele>174.180348</ele>
        <time>2017-06-08T08:05:54.000Z</time>
      </trkpt>
      <trkpt lat="43.798580" lon="5.092119">
        <ele>174.699388</ele>
        <time>2017-06-08T08:05:56.000Z</time>
      </trkpt>
      <trkpt lat="43.798462" lon="5.092178">
        <ele>175.395532</ele>
        <time>2017-06-08T08:05:59.000Z</time>
      </trkpt>
      <trkpt lat="43.798350" lon="5.092231">
        <ele>176.052297</ele>
        <time>2017-06-08T08:06:02.000Z</time>
      </trkpt>
      <trkpt lat="43.798233" lon="5.092262">
        <ele>176.713321</ele>
        <time>2017-06-08T08:06:05.000Z</time>
      </trkpt>
      <trkpt lat="43.798115" lon="5.092274">
        <ele>177.369890</ele>
        <time>2017-06-08T08:06:08.000Z</time>
      </trkpt>
      <trkpt lat="43.798004" lon="5.092291">
        <ele>177.989605</ele>
        <time>2017-06-08T08:06:11.000Z</time>
      </trkpt>
      <trkpt lat="43.797910" lon="5.092294">
        <ele>178.259771</ele>
        <time>2017-06-08T08:06:13.000Z</time>
      </trkpt>
      <trkpt lat="43.797806" lon="5.092295">
        <ele>178.322028</ele>
        <time>2017-06-08T08:06:15.000Z</time>
      </trkpt>
      <trkpt lat="43.797700" lon="5.092300">
        <ele>178.385518</ele>
        <time>2017-06-08T08:06:17.000Z</time>
      </trkpt>
      <trkpt lat="43.797596" lon="5.092304">
        <ele>178.447798</ele>
        <time>2017-06-08T08:06:19.000Z</time>
      </trkpt>
      <trkpt lat="43.797504" lon="5.092286">
        <ele>178.503417</ele>
        <time>2017-06-08T08:06:21.000Z</time>
      </trkpt>
      <trkpt lat="43.797413" lon="5.092255">
        <ele>178.559513</ele>
        <time>2017-06-08T08:06:23.000Z</time>
      </trkpt>
      <trkpt lat="43.797325" lon="5.092228">
        <ele>178.613467</ele>
        <time>2017-06-08T08:06:25.000Z</time>
      </trkpt>
      <trkpt lat="43.797230" lon="5.092206">
        <ele>178.671124</ele>
        <time>2017-06-08T08:06:27.000Z</time>
      </trkpt>
      <trkpt lat="43.797104" lon="5.092180">
        <ele>178.747382</ele>
        <time>2017-06-08T08:06:30.000Z</time>
      </trkpt>
      <trkpt lat="43.796978" lon="5.092124">
        <ele>178.826593</ele>
        <time>2017-06-08T08:06:33.000Z</time>
      </trkpt>
      <trkpt lat="43.796856" lon="5.092058">
        <ele>178.904994</ele>
        <time>2017-06-08T08:06:36.000Z</time>
      </trkpt>
      <trkpt lat="43.796730" lon="5.091992">
        <ele>178.985630</ele>
        <time>2017-06-08T08:06:39.000Z</time>
      </trkpt>
      <trkpt lat="43.796597" lon="5.091968">
        <ele>179.065918</ele>
        <time>2017-06-08T08:06:42.000Z</time>
      </trkpt>
      <trkpt lat="43.796474" lon="5.091992">
        <ele>179.140274</ele>
        <time>2017-06-08T08:06:45.000Z</time>
      </trkpt>
      <trkpt lat="43.796394" lon="5.092085">
        <ele>179.202789</ele>
        <time>2017-06-08T08:06:49.000Z</time>
      </trkpt>
      <trkpt lat="43.796460" lon="5.092183">
        <ele>179.260702</ele>
        <time>2017-06-08T08:06:54.000Z</time>
      </trkpt>
      <trkpt lat="43.796555" lon="5.092167">
        <ele>179.214095</ele>
        <time>2017-06-08T08:06:59.000Z</time>
      </trkpt>
      <trkpt lat="43.796640" lon="5.092217">
        <ele>178.788748</ele>
        <time>2017-06-08T08:07:05.000Z</time>
      </trkpt>
      <trkpt lat="43.796627" lon="5.092358">
        <ele>178.316160</ele>
        <time>2017-06-08T08:07:11.000Z</time>
      </trkpt>
      <trkpt lat="43.796690" lon="5.092464">
        <ele>177.859648</ele>
        <time>2017-06-08T08:07:16.000Z</time>
      </trkpt>
      <trkpt lat="43.796783" lon="5.092538">
        <ele>177.365657</ele>
        <time>2017-06-08T08:07:21.000Z</time>
      </trkpt>
      <trkpt lat="43.796864" lon="5.092592">
        <ele>176.951616</ele>
        <time>2017-06-08T08:07:27.000Z</time>
      </trkpt>
      <trkpt lat="43.796960" lon="5.092593">
        <ele>176.509419</ele>
        <time>2017-06-08T08:07:34.000Z</time>
      </trkpt>
      <trkpt lat="43.796986" lon="5.092453">
        <ele>176.028807</ele>
        <time>2017-06-08T08:07:41.000Z</time>
      </trkpt>
      <trkpt lat="43.796932" lon="5.092339">
        <ele>175.575469</ele>
        <time>2017-06-08T08:07:46.000Z</time>
      </trkpt>
      <trkpt lat="43.796844" lon="5.092278">
        <ele>175.122228</ele>
        <time>2017-06-08T08:07:51.000Z</time>
      </trkpt>
      <trkpt lat="43.796753" lon="5.092228">
        <ele>174.671314</ele>
        <time>2017-06-08T08:07:56.000Z</time>
      </trkpt>
      <trkpt lat="43.796642" lon="5.092195">
        <ele>174.148399</ele>
        <time>2017-06-08T08:08:00.000Z</time>
      </trkpt>
      <trkpt lat="43.796543" lon="5.092163">
        <ele>173.680150</ele>
        <time>2017-06-08T08:08:03.000Z</time>
      </trkpt>
      <trkpt lat="43.796450" lon="5.092149">
        <ele>173.249262</ele>
        <time>2017-06-08T08:08:06.000Z</time>
      </trkpt>
      <trkpt lat="43.796350" lon="5.092116">
        <ele>172.775767</ele>
        <time>2017-06-08T08:08:11.000Z</time>
      </trkpt>
      <trkpt lat="43.796250" lon="5.092150">
        <ele>172.301490</ele>
        <time>2017-06-08T08:08:16.000Z</time>
      </trkpt>
      <trkpt lat="43.796150" lon="5.092205">
        <ele>171.805912</ele>
        <time>2017-06-08T08:08:20.000Z</time>
      </trkpt>
      <trkpt lat="43.796070" lon="5.092262">
        <ele>171.391549</ele>
        <time>2017-06-08T08:08:23.000Z</time>
      </trkpt>
      <trkpt lat="43.795980" lon="5.092314">
        <ele>171.055692</ele>
        <time>2017-06-08T08:08:26.000Z</time>
      </trkpt>
      <trkpt lat="43.795880" lon="5.092363">
        <ele>171.268382</ele>
        <time>2017-06-08T08:08:29.000Z</time>
      </trkpt>
      <trkpt lat="43.795770" lon="5.092427">
        <ele>171.507612</ele>
        <time>2017-06-08T08:08:32.000Z</time>
      </trkpt>
      <trkpt lat="43.795666" lon="5.092503">
        <ele>171.743383</ele>
        <time>2017-06-08T08:08:35.000Z</time>
      </trkpt>
      <trkpt lat="43.795578" lon="5.092587">
        <ele>171.957667</ele>
        <time>2017-06-08T08:08:38.000Z</time>
      </trkpt>
      <trkpt lat="43.795486" lon="5.092677">
        <ele>172.183498</ele>
        <time>2017-06-08T08:08:41.000Z</time>
      </trkpt>
      <trkpt lat="43.795387" lon="5.092815">
        <ele>172.465103</ele>
        <time>2017-06-08T08:08:44.000Z</time>
      </trkpt>
      <trkpt lat="43.795296" lon="5.092892">
        <ele>172.678917</ele>
        <time>2017-06-08T08:08:46.000Z</time>
      </trkpt>
      <trkpt lat="43.795204" lon="5.092972">
        <ele>172.896720</ele>
        <time>2017-06-08T08:08:48.000Z</time>
      </trkpt>
      <trkpt lat="43.795100" lon="5.093055">
        <ele>173.137386</ele>
        <time>2017-06-08T08:08:51.000Z</time>
      </trkpt>
      <trkpt lat="43.795000" lon="5.093109">
        <ele>173.352597</ele>
        <time>2017-06-08T08:08:54.000Z</time>
      </trkpt>
      <trkpt lat="43.794918" lon="5.093170">
        <ele>173.539226</ele>
        <time>2017-06-08T08:08:57.000Z</time>
      </trkpt>
      <trkpt lat="43.794840" lon="5.093238">
        <ele>173.724020</ele>
        <time>2017-06-08T08:09:00.000Z</time>
      </trkpt>
      <trkpt lat="43.794735" lon="5.093310">
        <ele>173.958942</ele>
        <time>2017-06-08T08:09:03.000Z</time>
      </trkpt>
      <trkpt lat="43.794650" lon="5.093389">
        <ele>174.164184</ele>
        <time>2017-06-08T08:09:05.000Z</time>
      </trkpt>
      <trkpt lat="43.794544" lon="5.093469">
        <ele>174.406226</ele>
        <time>2017-06-08T08:09:07.000Z</time>
      </trkpt>
      <trkpt lat="43.794460" lon="5.093548">
        <ele>174.609805</ele>
        <time>2017-06-08T08:09:09.000Z</time>
      </trkpt>
      <trkpt lat="43.794376" lon="5.093648">
        <ele>174.541610</ele>
        <time>2017-06-08T08:09:12.000Z</time>
      </trkpt>
      <trkpt lat="43.794277" lon="5.093743">
        <ele>174.439424</ele>
        <time>2017-06-08T08:09:15.000Z</time>
      </trkpt>
      <trkpt lat="43.794205" lon="5.093869">
        <ele>174.340997</ele>
        <time>2017-06-08T08:09:18.000Z</time>
      </trkpt>
      <trkpt lat="43.794150" lon="5.093996">
        <ele>174.250287</ele>
        <time>2017-06-08T08:09:21.000Z</time>
      </trkpt>
      <trkpt lat="43.794083" lon="5.094091">
        <ele>174.168939</ele>
        <time>2017-06-08T08:09:24.000Z</time>
      </trkpt>
      <trkpt lat="43.793990" lon="5.094185">
        <ele>174.071258</ele>
        <time>2017-06-08T08:09:27.000Z</time>
      </trkpt>
      <trkpt lat="43.793880" lon="5.094302">
        <ele>173.953585</ele>
        <time>2017-06-08T08:09:30.000Z</time>
      </trkpt>
      <trkpt lat="43.793777" lon="5.094401">
        <ele>173.847214</ele>
        <time>2017-06-08T08:09:32.000Z</time>
      </trkpt>
      <trkpt lat="43.793682" lon="5.094520">
        <ele>173.738541</ele>
        <time>2017-06-08T08:09:34.000Z</time>
      </trkpt>
      <trkpt lat="43.793580" lon="5.094636">
        <ele>173.626566</ele>
        <time>2017-06-08T08:09:36.000Z</time>
      </trkpt>
      <trkpt lat="43.793472" lon="5.094711">
        <ele>173.524058</ele>
        <time>2017-06-08T08:09:38.000Z</time>
      </trkpt>
      <trkpt lat="43.793370" lon="5.094792">
        <ele>173.424300</ele>
        <time>2017-06-08T08:09:40.000Z</time>
      </trkpt>
      <trkpt lat="43.793278" lon="5.094874">
        <ele>173.331476</ele>
        <time>2017-06-08T08:09:42.000Z</time>
      </trkpt>
      <trkpt lat="43.793200" lon="5.094937">
        <ele>173.254865</ele>
        <time>2017-06-08T08:09:44.000Z</time>
      </trkpt>
      <trkpt lat="43.793106" lon="5.094999">
        <ele>173.166527</ele>
        <time>2017-06-08T08:09:46.000Z</time>
      </trkpt>
      <trkpt lat="43.793003" lon="5.095063">
        <ele>173.209670</ele>
        <time>2017-06-08T08:09:47.000Z</time>
      </trkpt>
      <trkpt lat="43.792923" lon="5.095118">
        <ele>173.473331</ele>
        <time>2017-06-08T08:09:49.000Z</time>
      </trkpt>
      <trkpt lat="43.792828" lon="5.095207">
        <ele>173.811901</ele>
        <time>2017-06-08T08:09:52.000Z</time>
      </trkpt>
      <trkpt lat="43.792725" lon="5.095286">
        <ele>174.159473</ele>
        <time>2017-06-08T08:09:55.000Z</time>
      </trkpt>
      <trkpt lat="43.792645" lon="5.095402">
        <ele>174.501363</ele>
        <time>2017-06-08T08:09:58.000Z</time>
      </trkpt>
      <trkpt lat="43.792534" lon="5.095487">
        <ele>174.875790</ele>
        <time>2017-06-08T08:10:01.000Z</time>
      </trkpt>
      <trkpt lat="43.792430" lon="5.095554">
        <ele>175.214396</ele>
        <time>2017-06-08T08:10:04.000Z</time>
      </trkpt>
      <trkpt lat="43.792355" lon="5.095623">
        <ele>175.480191</ele>
        <time>2017-06-08T08:10:07.000Z</time>
      </trkpt>
      <trkpt lat="43.792282" lon="5.095717">
        <ele>175.774424</ele>
        <time>2017-06-08T08:10:10.000Z</time>
      </trkpt>
      <trkpt lat="43.792200" lon="5.095809">
        <ele>176.085941</ele>
        <time>2017-06-08T08:10:13.000Z</time>
      </trkpt>
      <trkpt lat="43.792126" lon="5.095930">
        <ele>176.423902</ele>
        <time>2017-06-08T08:10:17.000Z</time>
      </trkpt>
      <trkpt lat="43.792057" lon="5.096033">
        <ele>176.723360</ele>
        <time>2017-06-08T08:10:21.000Z</time>
      </trkpt>
      <trkpt lat="43.791990" lon="5.096112">
        <ele>176.983106</ele>
        <time>2017-06-08T08:10:24.000Z</time>
      </trkpt>
      <trkpt lat="43.791890" lon="5.096177">
        <ele>177.309209</ele>
        <time>2017-06-08T08:10:28.000Z</time>
      </trkpt>
      <trkpt lat="43.791810" lon="5.096271">
        <ele>177.618900</ele>
        <time>2017-06-08T08:10:32.000Z</time>
      </trkpt>
      <trkpt lat="43.791744" lon="5.096389">
        <ele>177.937021</ele>
        <time>2017-06-08T08:10:37.000Z</time>
      </trkpt>
      <trkpt lat="43.791650" lon="5.096472">
        <ele>178.266107</ele>
        <time>2017-06-08T08:10:42.000Z</time>
      </trkpt>
      <trkpt lat="43.791557" lon="5.096539">
        <ele>178.753462</ele>
        <time>2017-06-08T08:10:46.000Z</time>
      </trkpt>
      <trkpt lat="43.791473" lon="5.096608">
        <ele>179.354810</ele>
        <time>2017-06-08T08:10:50.000Z</time>
      </trkpt>
      <trkpt lat="43.791386" lon="5.096695">
        <ele>180.015531</ele>
        <time>2017-06-08T08:10:55.000Z</time>
      </trkpt>
      <trkpt lat="43.791298" lon="5.096766">
        <ele>180.642619</ele>
        <time>2017-06-08T08:10:59.000Z</time>
      </trkpt>
      <trkpt lat="43.791195" lon="5.096834">
        <ele>181.345210</ele>
        <time>2017-06-08T08:11:04.000Z</time>
      </trkpt>
      <trkpt lat="43.791107" lon="5.096892">
        <ele>181.945297</ele>
        <time>2017-06-08T08:11:09.000Z</time>
      </trkpt>
      <trkpt lat="43.791027" lon="5.096965">
        <ele>182.535186</ele>
        <time>2017-06-08T08:11:13.000Z</time>
      </trkpt>
      <trkpt lat="43.790928" lon="5.097014">
        <ele>183.182546</ele>
        <time>2017-06-08T08:11:17.000Z</time>
      </trkpt>
      <trkpt lat="43.790836" lon="5.097082">
        <ele>183.824653</ele>
        <time>2017-06-08T08:11:21.000Z</time>
      </trkpt>
      <trkpt lat="43.790740" lon="5.097156">
        <ele>184.501152</ele>
        <time>2017-06-08T08:11:25.000Z</time>
      </trkpt>
      <trkpt lat="43.790646" lon="5.097240">
        <ele>185.189964</ele>
        <time>2017-06-08T08:11:30.000Z</time>
      </trkpt>
      <trkpt lat="43.790573" lon="5.097319">
        <ele>185.760386</ele>
        <time>2017-06-08T08:11:35.000Z</time>
      </trkpt>
      <trkpt lat="43.790420" lon="5.097470">
        <ele>186.917169</ele>
        <time>2017-06-08T08:11:53.000Z</time>
      </trkpt>
      <trkpt lat="43.790330" lon="5.097607">
        <ele>187.740574</ele>
        <time>2017-06-08T08:11:56.000Z</time>
      </trkpt>
      <trkpt lat="43.790234" lon="5.097728">
        <ele>188.539791</ele>
        <time>2017-06-08T08:11:58.000Z</time>
      </trkpt>
      <trkpt lat="43.790140" lon="5.097871">
        <ele>189.399501</ele>
        <time>2017-06-08T08:12:00.000Z</time>
      </trkpt>
      <trkpt lat="43.790030" lon="5.098015">
        <ele>188.929969</ele>
        <time>2017-06-08T08:12:02.000Z</time>
      </trkpt>
      <trkpt lat="43.789898" lon="5.098140">
        <ele>188.279855</ele>
        <time>2017-06-08T08:12:04.000Z</time>
      </trkpt>
      <trkpt lat="43.789790" lon="5.098262">
        <ele>187.713247</ele>
        <time>2017-06-08T08:12:06.000Z</time>
      </trkpt>
      <trkpt lat="43.789696" lon="5.098390">
        <ele>187.177321</ele>
        <time>2017-06-08T08:12:08.000Z</time>
      </trkpt>
      <trkpt lat="43.789593" lon="5.098532">
        <ele>186.586481</ele>
        <time>2017-06-08T08:12:10.000Z</time>
      </trkpt>
      <trkpt lat="43.789510" lon="5.098672">
        <ele>186.054752</ele>
        <time>2017-06-08T08:12:12.000Z</time>
      </trkpt>
      <trkpt lat="43.789410" lon="5.098799">
        <ele>185.503151</ele>
        <time>2017-06-08T08:12:14.000Z</time>
      </trkpt>
      <trkpt lat="43.789310" lon="5.098940">
        <ele>184.922990</ele>
        <time>2017-06-08T08:12:16.000Z</time>
      </trkpt>
      <trkpt lat="43.789207" lon="5.099084">
        <ele>184.327993</ele>
        <time>2017-06-08T08:12:18.000Z</time>
      </trkpt>
      <trkpt lat="43.789100" lon="5.099219">
        <ele>183.739541</ele>
        <time>2017-06-08T08:12:20.000Z</time>
      </trkpt>
      <trkpt lat="43.788990" lon="5.099321">
        <ele>183.201339</ele>
        <time>2017-06-08T08:12:22.000Z</time>
      </trkpt>
      <trkpt lat="43.788860" lon="5.099429">
        <ele>182.585006</ele>
        <time>2017-06-08T08:12:24.000Z</time>
      </trkpt>
      <trkpt lat="43.788734" lon="5.099533">
        <ele>182.057534</ele>
        <time>2017-06-08T08:12:26.000Z</time>
      </trkpt>
      <trkpt lat="43.788612" lon="5.099643">
        <ele>181.685322</ele>
        <time>2017-06-08T08:12:28.000Z</time>
      </trkpt>
      <trkpt lat="43.788500" lon="5.099724">
        <ele>181.362258</ele>
        <time>2017-06-08T08:12:30.000Z</time>
      </trkpt>
      <trkpt lat="43.788414" lon="5.099804">
        <ele>181.097374</ele>
        <time>2017-06-08T08:12:32.000Z</time>
      </trkpt>
      <trkpt lat="43.788340" lon="5.099914">
        <ele>180.819829</ele>
        <time>2017-06-08T08:12:35.000Z</time>
      </trkpt>
      <trkpt lat="43.788303" lon="5.100035">
        <ele>180.577265</ele>
        <time>2017-06-08T08:12:37.000Z</time>
      </trkpt>
      <trkpt lat="43.788280" lon="5.100174">
        <ele>180.314032</ele>
        <time>2017-06-08T08:12:39.000Z</time>
      </trkpt>
      <trkpt lat="43.788265" lon="5.100298">
        <ele>180.081949</ele>
        <time>2017-06-08T08:12:41.000Z</time>
      </trkpt>
      <trkpt lat="43.788223" lon="5.100476">
        <ele>179.736274</ele>
        <time>2017-06-08T08:12:44.000Z</time>
      </trkpt>
      <trkpt lat="43.788174" lon="5.100611">
        <ele>179.457354</ele>
        <time>2017-06-08T08:12:46.000Z</time>
      </trkpt>
      <trkpt lat="43.788105" lon="5.100778">
        <ele>179.102170</ele>
        <time>2017-06-08T08:12:48.000Z</time>
      </trkpt>
      <trkpt lat="43.788010" lon="5.100946">
        <ele>178.708245</ele>
        <time>2017-06-08T08:12:50.000Z</time>
      </trkpt>
      <trkpt lat="43.787903" lon="5.101078">
        <ele>178.341877</ele>
        <time>2017-06-08T08:12:52.000Z</time>
      </trkpt>
      <trkpt lat="43.787790" lon="5.101172">
        <ele>178.004841</ele>
        <time>2017-06-08T08:12:54.000Z</time>
      </trkpt>
      <trkpt lat="43.787678" lon="5.101251">
        <ele>177.683468</ele>
        <time>2017-06-08T08:12:56.000Z</time>
      </trkpt>
      <trkpt lat="43.787567" lon="5.101337">
        <ele>177.359822</ele>
        <time>2017-06-08T08:12:58.000Z</time>
      </trkpt>
      <trkpt lat="43.787450" lon="5.101383">
        <ele>177.051073</ele>
        <time>2017-06-08T08:13:00.000Z</time>
      </trkpt>
      <trkpt lat="43.787304" lon="5.101440">
        <ele>176.665996</ele>
        <time>2017-06-08T08:13:02.000Z</time>
      </trkpt>
      <trkpt lat="43.787130" lon="5.101460">
        <ele>176.222760</ele>
        <time>2017-06-08T08:13:04.000Z</time>
      </trkpt>
      <trkpt lat="43.786950" lon="5.101454">
        <ele>175.765678</ele>
        <time>2017-06-08T08:13:06.000Z</time>
      </trkpt>
      <trkpt lat="43.786780" lon="5.101426">
        <ele>175.331074</ele>
        <time>2017-06-08T08:13:08.000Z</time>
      </trkpt>
      <trkpt lat="43.786690" lon="5.101418">
        <ele>175.102130</ele>
        <time>2017-06-08T08:13:09.000Z</time>
      </trkpt>
      <trkpt lat="43.786530" lon="5.101399">
        <ele>174.694462</ele>
        <time>2017-06-08T08:13:11.000Z</time>
      </trkpt>
      <trkpt lat="43.786380" lon="5.101402">
        <ele>174.313631</ele>
        <time>2017-06-08T08:13:13.000Z</time>
      </trkpt>
      <trkpt lat="43.786250" lon="5.101396">
        <ele>173.983429</ele>
        <time>2017-06-08T08:13:15.000Z</time>
      </trkpt>
      <trkpt lat="43.786110" lon="5.101413">
        <ele>173.626660</ele>
        <time>2017-06-08T08:13:17.000Z</time>
      </trkpt>
      <trkpt lat="43.785980" lon="5.101436">
        <ele>173.293960</ele>
        <time>2017-06-08T08:13:19.000Z</time>
      </trkpt>
      <trkpt lat="43.785840" lon="5.101464">
        <ele>172.964977</ele>
        <time>2017-06-08T08:13:21.000Z</time>
      </trkpt>
      <trkpt lat="43.785710" lon="5.101499">
        <ele>172.765148</ele>
        <time>2017-06-08T08:13:23.000Z</time>
      </trkpt>
      <trkpt lat="43.785603" lon="5.101539">
        <ele>172.597919</ele>
        <time>2017-06-08T08:13:25.000Z</time>
      </trkpt>
      <trkpt lat="43.785515" lon="5.101575">
        <ele>172.459465</ele>
        <time>2017-06-08T08:13:27.000Z</time>
      </trkpt>
      <trkpt lat="43.785404" lon="5.101607">
        <ele>172.288388</ele>
        <time>2017-06-08T08:14:01.000Z</time>
      </trkpt>
      <trkpt lat="43.785294" lon="5.101548">
        <ele>172.110400</ele>
        <time>2017-06-08T08:14:04.000Z</time>
      </trkpt>
      <trkpt lat="43.785213" lon="5.101483">
        <ele>171.969149</ele>
        <time>2017-06-08T08:14:06.000Z</time>
      </trkpt>
      <trkpt lat="43.785122" lon="5.101437">
        <ele>171.822981</ele>
        <time>2017-06-08T08:14:08.000Z</time>
      </trkpt>
      <trkpt lat="43.785015" lon="5.101399">
        <ele>171.656307</ele>
        <time>2017-06-08T08:14:10.000Z</time>
      </trkpt>
      <trkpt lat="43.784910" lon="5.101366">
        <ele>171.493845</ele>
        <time>2017-06-08T08:14:12.000Z</time>
      </trkpt>
      <trkpt lat="43.784794" lon="5.101334">
        <ele>171.315374</ele>
        <time>2017-06-08T08:14:14.000Z</time>
      </trkpt>
      <trkpt lat="43.784687" lon="5.101305">
        <ele>171.150860</ele>
        <time>2017-06-08T08:14:16.000Z</time>
      </trkpt>
      <trkpt lat="43.784584" lon="5.101281">
        <ele>170.993259</ele>
        <time>2017-06-08T08:14:18.000Z</time>
      </trkpt>
      <trkpt lat="43.784477" lon="5.101234">
        <ele>170.823883</ele>
        <time>2017-06-08T08:14:20.000Z</time>
      </trkpt>
      <trkpt lat="43.784380" lon="5.101182">
        <ele>170.666940</ele>
        <time>2017-06-08T08:14:22.000Z</time>
      </trkpt>
      <trkpt lat="43.784283" lon="5.101146">
        <ele>170.515413</ele>
        <time>2017-06-08T08:14:24.000Z</time>
      </trkpt>
      <trkpt lat="43.784180" lon="5.101115">
        <ele>170.356370</ele>
        <time>2017-06-08T08:14:26.000Z</time>
      </trkpt>
      <trkpt lat="43.784084" lon="5.101085">
        <ele>170.088653</ele>
        <time>2017-06-08T08:14:28.000Z</time>
      </trkpt>
      <trkpt lat="43.783985" lon="5.101061">
        <ele>169.729758</ele>
        <time>2017-06-08T08:14:30.000Z</time>
      </trkpt>
      <trkpt lat="43.783890" lon="5.101018">
        <ele>169.372867</ele>
        <time>2017-06-08T08:14:32.000Z</time>
      </trkpt>
      <trkpt lat="43.783810" lon="5.100956">
        <ele>169.045517</ele>
        <time>2017-06-08T08:14:34.000Z</time>
      </trkpt>
      <trkpt lat="43.783726" lon="5.100842">
        <ele>168.625577</ele>
        <time>2017-06-08T08:14:37.000Z</time>
      </trkpt>
      <trkpt lat="43.783650" lon="5.100708">
        <ele>168.186265</ele>
        <time>2017-06-08T08:14:40.000Z</time>
      </trkpt>
      <trkpt lat="43.783558" lon="5.100609">
        <ele>167.770248</ele>
        <time>2017-06-08T08:14:42.000Z</time>
      </trkpt>
      <trkpt lat="43.783460" lon="5.100538">
        <ele>167.375318</ele>
        <time>2017-06-08T08:14:44.000Z</time>
      </trkpt>
      <trkpt lat="43.783350" lon="5.100493">
        <ele>166.965743</ele>
        <time>2017-06-08T08:14:46.000Z</time>
      </trkpt>
      <trkpt lat="43.783234" lon="5.100498">
        <ele>166.551315</ele>
        <time>2017-06-08T08:14:48.000Z</time>
      </trkpt>
      <trkpt lat="43.783110" lon="5.100521">
        <ele>166.104568</ele>
        <time>2017-06-08T08:14:50.000Z</time>
      </trkpt>
      <trkpt lat="43.783005" lon="5.100559">
        <ele>165.717034</ele>
        <time>2017-06-08T08:14:52.000Z</time>
      </trkpt>
      <trkpt lat="43.782910" lon="5.100586">
        <ele>165.370729</ele>
        <time>2017-06-08T08:14:54.000Z</time>
      </trkpt>
      <trkpt lat="43.782814" lon="5.100613">
        <ele>165.020924</ele>
        <time>2017-06-08T08:14:56.000Z</time>
      </trkpt>
      <trkpt lat="43.782703" lon="5.100642">
        <ele>164.617562</ele>
        <time>2017-06-08T08:14:58.000Z</time>
      </trkpt>
      <trkpt lat="43.782593" lon="5.100687">
        <ele>164.207987</ele>
        <time>2017-06-08T08:15:00.000Z</time>
      </trkpt>
      <trkpt lat="43.782494" lon="5.100749">
        <ele>163.768402</ele>
        <time>2017-06-08T08:15:02.000Z</time>
      </trkpt>
      <trkpt lat="43.782410" lon="5.100807">
        <ele>163.102457</ele>
        <time>2017-06-08T08:15:04.000Z</time>
      </trkpt>
      <trkpt lat="43.782333" lon="5.100871">
        <ele>162.465311</ele>
        <time>2017-06-08T08:15:06.000Z</time>
      </trkpt>
      <trkpt lat="43.782246" lon="5.100967">
        <ele>161.676092</ele>
        <time>2017-06-08T08:15:08.000Z</time>
      </trkpt>
      <trkpt lat="43.782173" lon="5.101082">
        <ele>160.891682</ele>
        <time>2017-06-08T08:15:10.000Z</time>
      </trkpt>
      <trkpt lat="43.782104" lon="5.101190">
        <ele>160.152936</ele>
        <time>2017-06-08T08:15:12.000Z</time>
      </trkpt>
      <trkpt lat="43.782005" lon="5.101269">
        <ele>159.342279</ele>
        <time>2017-06-08T08:15:14.000Z</time>
      </trkpt>
      <trkpt lat="43.781895" lon="5.101312">
        <ele>158.531322</ele>
        <time>2017-06-08T08:15:17.000Z</time>
      </trkpt>
      <trkpt lat="43.781822" lon="5.101400">
        <ele>157.844679</ele>
        <time>2017-06-08T08:15:19.000Z</time>
      </trkpt>
      <trkpt lat="43.781750" lon="5.101505">
        <ele>157.102874</ele>
        <time>2017-06-08T08:15:21.000Z</time>
      </trkpt>
      <trkpt lat="43.781690" lon="5.101606">
        <ele>156.432865</ele>
        <time>2017-06-08T08:15:23.000Z</time>
      </trkpt>
      <trkpt lat="43.781612" lon="5.101728">
        <ele>155.598091</ele>
        <time>2017-06-08T08:15:26.000Z</time>
      </trkpt>
      <trkpt lat="43.781530" lon="5.101791">
        <ele>154.932773</ele>
        <time>2017-06-08T08:15:29.000Z</time>
      </trkpt>
      <trkpt lat="43.781430" lon="5.101801">
        <ele>154.221409</ele>
        <time>2017-06-08T08:15:39.000Z</time>
      </trkpt>
      <trkpt lat="43.781345" lon="5.101749">
        <ele>153.562111</ele>
        <time>2017-06-08T08:15:42.000Z</time>
      </trkpt>
      <trkpt lat="43.781265" lon="5.101681">
        <ele>152.896134</ele>
        <time>2017-06-08T08:15:44.000Z</time>
      </trkpt>
      <trkpt lat="43.781162" lon="5.101620">
        <ele>152.101328</ele>
        <time>2017-06-08T08:15:46.000Z</time>
      </trkpt>
      <trkpt lat="43.781050" lon="5.101573">
        <ele>151.270996</ele>
        <time>2017-06-08T08:15:48.000Z</time>
      </trkpt>
      <trkpt lat="43.780945" lon="5.101524">
        <ele>150.886586</ele>
        <time>2017-06-08T08:15:50.000Z</time>
      </trkpt>
      <trkpt lat="43.780840" lon="5.101478">
        <ele>150.606854</ele>
        <time>2017-06-08T08:15:52.000Z</time>
      </trkpt>
      <trkpt lat="43.780750" lon="5.101446">
        <ele>150.370834</ele>
        <time>2017-06-08T08:15:54.000Z</time>
      </trkpt>
      <trkpt lat="43.780670" lon="5.101366">
        <ele>150.120199</ele>
        <time>2017-06-08T08:15:59.000Z</time>
      </trkpt>
      <trkpt lat="43.780567" lon="5.101366">
        <ele>149.858571</ele>
        <time>2017-06-08T08:16:06.000Z</time>
      </trkpt>
      <trkpt lat="43.780453" lon="5.101349">
        <ele>149.567328</ele>
        <time>2017-06-08T08:16:10.000Z</time>
      </trkpt>
      <trkpt lat="43.780350" lon="5.101328">
        <ele>149.302880</ele>
        <time>2017-06-08T08:16:13.000Z</time>
      </trkpt>
      <trkpt lat="43.780247" lon="5.101276">
        <ele>149.024413</ele>
        <time>2017-06-08T08:16:16.000Z</time>
      </trkpt>
      <trkpt lat="43.780163" lon="5.101220">
        <ele>148.787616</ele>
        <time>2017-06-08T08:16:18.000Z</time>
      </trkpt>
      <trkpt lat="43.780045" lon="5.101133">
        <ele>148.448065</ele>
        <time>2017-06-08T08:16:21.000Z</time>
      </trkpt>
      <trkpt lat="43.779926" lon="5.101059">
        <ele>148.116727</ele>
        <time>2017-06-08T08:16:24.000Z</time>
      </trkpt>
      <trkpt lat="43.779840" lon="5.101008">
        <ele>147.879099</ele>
        <time>2017-06-08T08:16:26.000Z</time>
      </trkpt>
      <trkpt lat="43.779750" lon="5.100959">
        <ele>147.633463</ele>
        <time>2017-06-08T08:16:28.000Z</time>
      </trkpt>
      <trkpt lat="43.779663" lon="5.100915">
        <ele>147.398204</ele>
        <time>2017-06-08T08:16:30.000Z</time>
      </trkpt>
      <trkpt lat="43.779575" lon="5.100859">
        <ele>147.152212</ele>
        <time>2017-06-08T08:16:32.000Z</time>
      </trkpt>
      <trkpt lat="43.779484" lon="5.100803">
        <ele>146.899276</ele>
        <time>2017-06-08T08:16:34.000Z</time>
      </trkpt>
      <trkpt lat="43.779400" lon="5.100750">
        <ele>146.664812</ele>
        <time>2017-06-08T08:16:36.000Z</time>
      </trkpt>
      <trkpt lat="43.779297" lon="5.100670">
        <ele>146.509079</ele>
        <time>2017-06-08T08:16:39.000Z</time>
      </trkpt>
      <trkpt lat="43.779175" lon="5.100612">
        <ele>146.448333</ele>
        <time>2017-06-08T08:16:42.000Z</time>
      </trkpt>
      <trkpt lat="43.779083" lon="5.100566">
        <ele>146.402270</ele>
        <time>2017-06-08T08:16:44.000Z</time>
      </trkpt>
      <trkpt lat="43.778990" lon="5.100522">
        <ele>146.355987</ele>
        <time>2017-06-08T08:16:46.000Z</time>
      </trkpt>
      <trkpt lat="43.778904" lon="5.100476">
        <ele>146.312570</ele>
        <time>2017-06-08T08:16:48.000Z</time>
      </trkpt>
      <trkpt lat="43.778816" lon="5.100421">
        <ele>146.267103</ele>
        <time>2017-06-08T08:16:50.000Z</time>
      </trkpt>
      <trkpt lat="43.778720" lon="5.100372">
        <ele>146.218920</ele>
        <time>2017-06-08T08:16:52.000Z</time>
      </trkpt>
      <trkpt lat="43.778633" lon="5.100331">
        <ele>146.175641</ele>
        <time>2017-06-08T08:16:54.000Z</time>
      </trkpt>
      <trkpt lat="43.778507" lon="5.100262">
        <ele>146.111832</ele>
        <time>2017-06-08T08:16:57.000Z</time>
      </trkpt>
      <trkpt lat="43.778390" lon="5.100192">
        <ele>146.051810</ele>
        <time>2017-06-08T08:17:00.000Z</time>
      </trkpt>
      <trkpt lat="43.778280" lon="5.100149">
        <ele>145.997982</ele>
        <time>2017-06-08T08:17:03.000Z</time>
      </trkpt>
      <trkpt lat="43.778187" lon="5.100196">
        <ele>145.951360</ele>
        <time>2017-06-08T08:17:06.000Z</time>
      </trkpt>
      <trkpt lat="43.778107" lon="5.100321">
        <ele>145.894562</ele>
        <time>2017-06-08T08:17:09.000Z</time>
      </trkpt>
      <trkpt lat="43.778023" lon="5.100473">
        <ele>145.829475</ele>
        <time>2017-06-08T08:17:12.000Z</time>
      </trkpt>
      <trkpt lat="43.777970" lon="5.100582">
        <ele>145.784790</ele>
        <time>2017-06-08T08:17:14.000Z</time>
      </trkpt>
      <trkpt lat="43.777912" lon="5.100734">
        <ele>145.726331</ele>
        <time>2017-06-08T08:17:17.000Z</time>
      </trkpt>
      <trkpt lat="43.777855" lon="5.100845">
        <ele>145.730644</ele>
        <time>2017-06-08T08:17:19.000Z</time>
      </trkpt>
      <trkpt lat="43.777775" lon="5.100992">
        <ele>145.881745</ele>
        <time>2017-06-08T08:17:22.000Z</time>
      </trkpt>
      <trkpt lat="43.777714" lon="5.101106">
        <ele>145.998217</ele>
        <time>2017-06-08T08:17:24.000Z</time>
      </trkpt>
      <trkpt lat="43.777653" lon="5.101212">
        <ele>146.109482</ele>
        <time>2017-06-08T08:17:26.000Z</time>
      </trkpt>
      <trkpt lat="43.777596" lon="5.101330">
        <ele>146.226020</ele>
        <time>2017-06-08T08:17:28.000Z</time>
      </trkpt>
      <trkpt lat="43.777527" lon="5.101452">
        <ele>146.353229</ele>
        <time>2017-06-08T08:17:30.000Z</time>
      </trkpt>
      <trkpt lat="43.777454" lon="5.101577">
        <ele>146.485197</ele>
        <time>2017-06-08T08:17:32.000Z</time>
      </trkpt>
      <trkpt lat="43.777390" lon="5.101697">
        <ele>146.607657</ele>
        <time>2017-06-08T08:17:34.000Z</time>
      </trkpt>
      <trkpt lat="43.777325" lon="5.101820">
        <ele>146.732775</ele>
        <time>2017-06-08T08:17:36.000Z</time>
      </trkpt>
      <trkpt lat="43.777264" lon="5.101943">
        <ele>146.855263</ele>
        <time>2017-06-08T08:17:38.000Z</time>
      </trkpt>
      <trkpt lat="43.777206" lon="5.102061">
        <ele>146.972437</ele>
        <time>2017-06-08T08:17:40.000Z</time>
      </trkpt>
      <trkpt lat="43.777145" lon="5.102175">
        <ele>147.088910</ele>
        <time>2017-06-08T08:17:42.000Z</time>
      </trkpt>
      <trkpt lat="43.777090" lon="5.102298">
        <ele>147.207669</ele>
        <time>2017-06-08T08:17:44.000Z</time>
      </trkpt>
      <trkpt lat="43.777027" lon="5.102420">
        <ele>147.330789</ele>
        <time>2017-06-08T08:17:46.000Z</time>
      </trkpt>
      <trkpt lat="43.776950" lon="5.102544">
        <ele>147.465040</ele>
        <time>2017-06-08T08:17:48.000Z</time>
      </trkpt>
      <trkpt lat="43.776882" lon="5.102673">
        <ele>147.596148</ele>
        <time>2017-06-08T08:17:50.000Z</time>
      </trkpt>
      <trkpt lat="43.776814" lon="5.102810">
        <ele>147.732614</ele>
        <time>2017-06-08T08:17:52.000Z</time>
      </trkpt>
      <trkpt lat="43.776745" lon="5.102945">
        <ele>147.758352</ele>
        <time>2017-06-08T08:17:54.000Z</time>
      </trkpt>
      <trkpt lat="43.776676" lon="5.103077">
        <ele>147.777785</ele>
        <time>2017-06-08T08:17:56.000Z</time>
      </trkpt>
      <trkpt lat="43.776634" lon="5.103211">
        <ele>147.795204</ele>
        <time>2017-06-08T08:17:58.000Z</time>
      </trkpt>
      <trkpt lat="43.776608" lon="5.103346">
        <ele>147.811865</ele>
        <time>2017-06-08T08:18:00.000Z</time>
      </trkpt>
      <trkpt lat="43.776566" lon="5.103463">
        <ele>147.827445</ele>
        <time>2017-06-08T08:18:02.000Z</time>
      </trkpt>
      <trkpt lat="43.776505" lon="5.103581">
        <ele>147.844751</ele>
        <time>2017-06-08T08:18:04.000Z</time>
      </trkpt>
      <trkpt lat="43.776447" lon="5.103692">
        <ele>147.861089</ele>
        <time>2017-06-08T08:18:06.000Z</time>
      </trkpt>
      <trkpt lat="43.776390" lon="5.103800">
        <ele>147.877041</ele>
        <time>2017-06-08T08:18:08.000Z</time>
      </trkpt>
      <trkpt lat="43.776337" lon="5.103908">
        <ele>147.892613</ele>
        <time>2017-06-08T08:18:10.000Z</time>
      </trkpt>
      <trkpt lat="43.776283" lon="5.104024">
        <ele>147.909071</ele>
        <time>2017-06-08T08:18:12.000Z</time>
      </trkpt>
      <trkpt lat="43.776226" lon="5.104141">
        <ele>147.925901</ele>
        <time>2017-06-08T08:18:14.000Z</time>
      </trkpt>
      <trkpt lat="43.776165" lon="5.104252">
        <ele>147.942535</ele>
        <time>2017-06-08T08:18:16.000Z</time>
      </trkpt>
      <trkpt lat="43.776100" lon="5.104374">
        <ele>147.960614</ele>
        <time>2017-06-08T08:18:18.000Z</time>
      </trkpt>
      <trkpt lat="43.776040" lon="5.104489">
        <ele>147.977533</ele>
        <time>2017-06-08T08:18:20.000Z</time>
      </trkpt>
      <trkpt lat="43.775970" lon="5.104614">
        <ele>147.996396</ele>
        <time>2017-06-08T08:18:22.000Z</time>
      </trkpt>
      <trkpt lat="43.775900" lon="5.104726">
        <ele>148.014060</ele>
        <time>2017-06-08T08:18:24.000Z</time>
      </trkpt>
      <trkpt lat="43.775840" lon="5.104828">
        <ele>148.029749</ele>
        <time>2017-06-08T08:18:26.000Z</time>
      </trkpt>
      <trkpt lat="43.775770" lon="5.104990">
        <ele>148.019067</ele>
        <time>2017-06-08T08:18:29.000Z</time>
      </trkpt>
      <trkpt lat="43.775710" lon="5.105085">
        <ele>148.002022</ele>
        <time>2017-06-08T08:18:31.000Z</time>
      </trkpt>
      <trkpt lat="43.775635" lon="5.105219">
        <ele>147.979126</ele>
        <time>2017-06-08T08:18:34.000Z</time>
      </trkpt>
      <trkpt lat="43.775562" lon="5.105358">
        <ele>147.955915</ele>
        <time>2017-06-08T08:18:37.000Z</time>
      </trkpt>
      <trkpt lat="43.775505" lon="5.105495">
        <ele>147.934562</ele>
        <time>2017-06-08T08:18:40.000Z</time>
      </trkpt>
      <trkpt lat="43.775436" lon="5.105630">
        <ele>147.912226</ele>
        <time>2017-06-08T08:18:43.000Z</time>
      </trkpt>
      <trkpt lat="43.775380" lon="5.105731">
        <ele>147.895029</ele>
        <time>2017-06-08T08:18:45.000Z</time>
      </trkpt>
      <trkpt lat="43.775314" lon="5.105845">
        <ele>147.875296</ele>
        <time>2017-06-08T08:18:47.000Z</time>
      </trkpt>
      <trkpt lat="43.775253" lon="5.105955">
        <ele>147.856566</ele>
        <time>2017-06-08T08:18:49.000Z</time>
      </trkpt>
      <trkpt lat="43.775177" lon="5.106075">
        <ele>147.835010</ele>
        <time>2017-06-08T08:18:51.000Z</time>
      </trkpt>
      <trkpt lat="43.775116" lon="5.106196">
        <ele>147.815081</ele>
        <time>2017-06-08T08:18:53.000Z</time>
      </trkpt>
      <trkpt lat="43.775050" lon="5.106316">
        <ele>147.794710</ele>
        <time>2017-06-08T08:18:55.000Z</time>
      </trkpt>
      <trkpt lat="43.774986" lon="5.106431">
        <ele>147.775102</ele>
        <time>2017-06-08T08:18:57.000Z</time>
      </trkpt>
      <trkpt lat="43.774925" lon="5.106529">
        <ele>147.757629</ele>
        <time>2017-06-08T08:18:59.000Z</time>
      </trkpt>
      <trkpt lat="43.774840" lon="5.106672">
        <ele>147.732615</ele>
        <time>2017-06-08T08:19:02.000Z</time>
      </trkpt>
      <trkpt lat="43.774776" lon="5.106814">
        <ele>147.710010</ele>
        <time>2017-06-08T08:19:05.000Z</time>
      </trkpt>
      <trkpt lat="43.774704" lon="5.106962">
        <ele>147.739616</ele>
        <time>2017-06-08T08:19:08.000Z</time>
      </trkpt>
      <trkpt lat="43.774620" lon="5.107113">
        <ele>147.809958</ele>
        <time>2017-06-08T08:19:11.000Z</time>
      </trkpt>
      <trkpt lat="43.774560" lon="5.107215">
        <ele>147.858507</ele>
        <time>2017-06-08T08:19:13.000Z</time>
      </trkpt>
      <trkpt lat="43.774506" lon="5.107325">
        <ele>147.907593</ele>
        <time>2017-06-08T08:19:15.000Z</time>
      </trkpt>
      <trkpt lat="43.774450" lon="5.107437">
        <ele>147.957865</ele>
        <time>2017-06-08T08:19:17.000Z</time>
      </trkpt>
      <trkpt lat="43.774387" lon="5.107550">
        <ele>148.010548</ele>
        <time>2017-06-08T08:19:19.000Z</time>
      </trkpt>
      <trkpt lat="43.774323" lon="5.107667">
        <ele>148.064715</ele>
        <time>2017-06-08T08:19:21.000Z</time>
      </trkpt>
      <trkpt lat="43.774258" lon="5.107786">
        <ele>148.119778</ele>
        <time>2017-06-08T08:19:23.000Z</time>
      </trkpt>
      <trkpt lat="43.774200" lon="5.107902">
        <ele>148.171846</ele>
        <time>2017-06-08T08:19:25.000Z</time>
      </trkpt>
      <trkpt lat="43.774143" lon="5.108022">
        <ele>148.224851</ele>
        <time>2017-06-08T08:19:27.000Z</time>
      </trkpt>
      <trkpt lat="43.774090" lon="5.108134">
        <ele>148.274267</ele>
        <time>2017-06-08T08:19:29.000Z</time>
      </trkpt>
      <trkpt lat="43.774033" lon="5.108251">
        <ele>148.326351</ele>
        <time>2017-06-08T08:19:31.000Z</time>
      </trkpt>
      <trkpt lat="43.773980" lon="5.108361">
        <ele>148.375152</ele>
        <time>2017-06-08T08:19:33.000Z</time>
      </trkpt>
      <trkpt lat="43.773922" lon="5.108480">
        <ele>148.428134</ele>
        <time>2017-06-08T08:19:35.000Z</time>
      </trkpt>
      <trkpt lat="43.773853" lon="5.108590">
        <ele>148.481905</ele>
        <time>2017-06-08T08:19:37.000Z</time>
      </trkpt>
      <trkpt lat="43.773800" lon="5.108697">
        <ele>148.529788</ele>
        <time>2017-06-08T08:19:39.000Z</time>
      </trkpt>
      <trkpt lat="43.773724" lon="5.108868">
        <ele>148.603887</ele>
        <time>2017-06-08T08:19:42.000Z</time>
      </trkpt>
      <trkpt lat="43.773643" lon="5.108977">
        <ele>148.598781</ele>
        <time>2017-06-08T08:19:44.000Z</time>
      </trkpt>
      <trkpt lat="43.773570" lon="5.109124">
        <ele>148.566335</ele>
        <time>2017-06-08T08:19:47.000Z</time>
      </trkpt>
      <trkpt lat="43.773514" lon="5.109232">
        <ele>148.542154</ele>
        <time>2017-06-08T08:19:49.000Z</time>
      </trkpt>
      <trkpt lat="43.773453" lon="5.109348">
        <ele>148.516055</ele>
        <time>2017-06-08T08:19:51.000Z</time>
      </trkpt>
      <trkpt lat="43.773400" lon="5.109457">
        <ele>148.492156</ele>
        <time>2017-06-08T08:19:53.000Z</time>
      </trkpt>
      <trkpt lat="43.773340" lon="5.109561">
        <ele>148.467946</ele>
        <time>2017-06-08T08:19:55.000Z</time>
      </trkpt>
      <trkpt lat="43.773277" lon="5.109667">
        <ele>148.442978</ele>
        <time>2017-06-08T08:19:57.000Z</time>
      </trkpt>
      <trkpt lat="43.773230" lon="5.109775">
        <ele>148.420045</ele>
        <time>2017-06-08T08:19:59.000Z</time>
      </trkpt>
      <trkpt lat="43.773167" lon="5.109909">
        <ele>148.390964</ele>
        <time>2017-06-08T08:20:02.000Z</time>
      </trkpt>
      <trkpt lat="43.773110" lon="5.110021">
        <ele>148.366044</ele>
        <time>2017-06-08T08:20:06.000Z</time>
      </trkpt>
      <trkpt lat="43.773030" lon="5.109952">
        <ele>148.342306</ele>
        <time>2017-06-08T08:20:10.000Z</time>
      </trkpt>
      <trkpt lat="43.772953" lon="5.109880">
        <ele>148.318906</ele>
        <time>2017-06-08T08:20:13.000Z</time>
      </trkpt>
      <trkpt lat="43.772840" lon="5.109829">
        <ele>148.288972</ele>
        <time>2017-06-08T08:20:17.000Z</time>
      </trkpt>
      <trkpt lat="43.772747" lon="5.109911">
        <ele>148.261204</ele>
        <time>2017-06-08T08:20:20.000Z</time>
      </trkpt>
      <trkpt lat="43.772675" lon="5.110050">
        <ele>148.230092</ele>
        <time>2017-06-08T08:20:23.000Z</time>
      </trkpt>
      <trkpt lat="43.772636" lon="5.110165">
        <ele>148.206985</ele>
        <time>2017-06-08T08:20:25.000Z</time>
      </trkpt>
      <trkpt lat="43.772590" lon="5.110294">
        <ele>148.180819</ele>
        <time>2017-06-08T08:20:27.000Z</time>
      </trkpt>
      <trkpt lat="43.772545" lon="5.110422">
        <ele>148.164123</ele>
        <time>2017-06-08T08:20:29.000Z</time>
      </trkpt>
      <trkpt lat="43.772490" lon="5.110550">
        <ele>148.158548</ele>
        <time>2017-06-08T08:20:31.000Z</time>
      </trkpt>
      <trkpt lat="43.772440" lon="5.110670">
        <ele>148.153363</ele>
        <time>2017-06-08T08:20:33.000Z</time>
      </trkpt>
      <trkpt lat="43.772392" lon="5.110777">
        <ele>148.148649</ele>
        <time>2017-06-08T08:20:35.000Z</time>
      </trkpt>
      <trkpt lat="43.772324" lon="5.110877">
        <ele>148.143508</ele>
        <time>2017-06-08T08:20:37.000Z</time>
      </trkpt>
      <trkpt lat="43.772266" lon="5.110991">
        <ele>148.138289</ele>
        <time>2017-06-08T08:20:39.000Z</time>
      </trkpt>
      <trkpt lat="43.772205" lon="5.111104">
        <ele>148.133008</ele>
        <time>2017-06-08T08:20:41.000Z</time>
      </trkpt>
      <trkpt lat="43.772144" lon="5.111217">
        <ele>148.127728</ele>
        <time>2017-06-08T08:20:43.000Z</time>
      </trkpt>
      <trkpt lat="43.772080" lon="5.111338">
        <ele>148.122114</ele>
        <time>2017-06-08T08:20:45.000Z</time>
      </trkpt>
      <trkpt lat="43.772020" lon="5.111464">
        <ele>148.116466</ele>
        <time>2017-06-08T08:20:47.000Z</time>
      </trkpt>
      <trkpt lat="43.771954" lon="5.111589">
        <ele>148.110670</ele>
        <time>2017-06-08T08:20:49.000Z</time>
      </trkpt>
      <trkpt lat="43.771893" lon="5.111713">
        <ele>148.105055</ele>
        <time>2017-06-08T08:20:51.000Z</time>
      </trkpt>
      <trkpt lat="43.771824" lon="5.111836">
        <ele>148.099225</ele>
        <time>2017-06-08T08:20:53.000Z</time>
      </trkpt>
      <trkpt lat="43.771763" lon="5.111954">
        <ele>148.093794</ele>
        <time>2017-06-08T08:20:55.000Z</time>
      </trkpt>
      <trkpt lat="43.771700" lon="5.112071">
        <ele>148.088332</ele>
        <time>2017-06-08T08:20:57.000Z</time>
      </trkpt>
      <trkpt lat="43.771640" lon="5.112189">
        <ele>148.082930</ele>
        <time>2017-06-08T08:20:59.000Z</time>
      </trkpt>
      <trkpt lat="43.771580" lon="5.112303">
        <ele>148.077650</ele>
        <time>2017-06-08T08:21:01.000Z</time>
      </trkpt>
      <trkpt lat="43.771520" lon="5.112412">
        <ele>148.091294</ele>
        <time>2017-06-08T08:21:03.000Z</time>
      </trkpt>
      <trkpt lat="43.771454" lon="5.112520">
        <ele>148.216651</ele>
        <time>2017-06-08T08:21:05.000Z</time>
      </trkpt>
      <trkpt lat="43.771400" lon="5.112619">
        <ele>148.326579</ele>
        <time>2017-06-08T08:21:07.000Z</time>
      </trkpt>
      <trkpt lat="43.771340" lon="5.112731">
        <ele>148.450139</ele>
        <time>2017-06-08T08:21:09.000Z</time>
      </trkpt>
      <trkpt lat="43.771275" lon="5.112845">
        <ele>148.578835</ele>
        <time>2017-06-08T08:21:11.000Z</time>
      </trkpt>
      <trkpt lat="43.771214" lon="5.112962">
        <ele>148.706695</ele>
        <time>2017-06-08T08:21:13.000Z</time>
      </trkpt>
      <trkpt lat="43.771150" lon="5.113086">
        <ele>148.841740</ele>
        <time>2017-06-08T08:21:15.000Z</time>
      </trkpt>
      <trkpt lat="43.771053" lon="5.113263">
        <ele>149.038614</ele>
        <time>2017-06-08T08:21:18.000Z</time>
      </trkpt>
      <trkpt lat="43.770990" lon="5.113392">
        <ele>149.176596</ele>
        <time>2017-06-08T08:21:20.000Z</time>
      </trkpt>
      <trkpt lat="43.770924" lon="5.113520">
        <ele>149.315951</ele>
        <time>2017-06-08T08:21:22.000Z</time>
      </trkpt>
      <trkpt lat="43.770860" lon="5.113646">
        <ele>149.452441</ele>
        <time>2017-06-08T08:21:24.000Z</time>
      </trkpt>
      <trkpt lat="43.770794" lon="5.113762">
        <ele>149.583290</ele>
        <time>2017-06-08T08:21:26.000Z</time>
      </trkpt>
      <trkpt lat="43.770733" lon="5.113867">
        <ele>149.702693</ele>
        <time>2017-06-08T08:21:28.000Z</time>
      </trkpt>
      <trkpt lat="43.770670" lon="5.113974">
        <ele>149.825017</ele>
        <time>2017-06-08T08:21:30.000Z</time>
      </trkpt>
      <trkpt lat="43.770596" lon="5.114120">
        <ele>149.983061</ele>
        <time>2017-06-08T08:21:33.000Z</time>
      </trkpt>
      <trkpt lat="43.770542" lon="5.114221">
        <ele>150.094408</ele>
        <time>2017-06-08T08:21:35.000Z</time>
      </trkpt>
      <trkpt lat="43.770485" lon="5.114327">
        <ele>150.211507</ele>
        <time>2017-06-08T08:21:37.000Z</time>
      </trkpt>
      <trkpt lat="43.770424" lon="5.114438">
        <ele>150.239154</ele>
        <time>2017-06-08T08:21:39.000Z</time>
      </trkpt>
      <trkpt lat="43.770363" lon="5.114564">
        <ele>150.138696</ele>
        <time>2017-06-08T08:21:41.000Z</time>
      </trkpt>
      <trkpt lat="43.770290" lon="5.114689">
        <ele>150.032233</ele>
        <time>2017-06-08T08:21:43.000Z</time>
      </trkpt>
      <trkpt lat="43.770218" lon="5.114824">
        <ele>149.921091</ele>
        <time>2017-06-08T08:21:45.000Z</time>
      </trkpt>
      <trkpt lat="43.770150" lon="5.114953">
        <ele>149.815323</ele>
        <time>2017-06-08T08:21:47.000Z</time>
      </trkpt>
      <trkpt lat="43.770077" lon="5.115094">
        <ele>149.700429</ele>
        <time>2017-06-08T08:21:49.000Z</time>
      </trkpt>
      <trkpt lat="43.770010" lon="5.115233">
        <ele>149.589755</ele>
        <time>2017-06-08T08:21:51.000Z</time>
      </trkpt>
      <trkpt lat="43.769943" lon="5.115371">
        <ele>149.479631</ele>
        <time>2017-06-08T08:21:53.000Z</time>
      </trkpt>
      <trkpt lat="43.769870" lon="5.115505">
        <ele>149.368471</ele>
        <time>2017-06-08T08:21:55.000Z</time>
      </trkpt>
      <trkpt lat="43.769794" lon="5.115640">
        <ele>149.255111</ele>
        <time>2017-06-08T08:21:57.000Z</time>
      </trkpt>
      <trkpt lat="43.769722" lon="5.115777">
        <ele>149.142900</ele>
        <time>2017-06-08T08:21:59.000Z</time>
      </trkpt>
      <trkpt lat="43.769650" lon="5.115917">
        <ele>149.029077</ele>
        <time>2017-06-08T08:22:01.000Z</time>
      </trkpt>
      <trkpt lat="43.769573" lon="5.116052">
        <ele>148.915150</ele>
        <time>2017-06-08T08:22:03.000Z</time>
      </trkpt>
      <trkpt lat="43.769500" lon="5.116185">
        <ele>148.804518</ele>
        <time>2017-06-08T08:22:05.000Z</time>
      </trkpt>
      <trkpt lat="43.769424" lon="5.116323">
        <ele>148.689584</ele>
        <time>2017-06-08T08:22:07.000Z</time>
      </trkpt>
      <trkpt lat="43.769356" lon="5.116462">
        <ele>148.659517</ele>
        <time>2017-06-08T08:22:09.000Z</time>
      </trkpt>
      <trkpt lat="43.769283" lon="5.116601">
        <ele>148.722204</ele>
        <time>2017-06-08T08:22:11.000Z</time>
      </trkpt>
      <trkpt lat="43.769210" lon="5.116742">
        <ele>148.785483</ele>
        <time>2017-06-08T08:22:13.000Z</time>
      </trkpt>
      <trkpt lat="43.769140" lon="5.116877">
        <ele>148.846101</ele>
        <time>2017-06-08T08:22:15.000Z</time>
      </trkpt>
      <trkpt lat="43.769070" lon="5.117005">
        <ele>148.904663</ele>
        <time>2017-06-08T08:22:17.000Z</time>
      </trkpt>
      <trkpt lat="43.769005" lon="5.117134">
        <ele>148.962035</ele>
        <time>2017-06-08T08:22:19.000Z</time>
      </trkpt>
      <trkpt lat="43.768936" lon="5.117261">
        <ele>149.020003</ele>
        <time>2017-06-08T08:22:21.000Z</time>
      </trkpt>
      <trkpt lat="43.768867" lon="5.117383">
        <ele>149.076523</ele>
        <time>2017-06-08T08:22:23.000Z</time>
      </trkpt>
      <trkpt lat="43.768806" lon="5.117501">
        <ele>149.129453</ele>
        <time>2017-06-08T08:22:25.000Z</time>
      </trkpt>
      <trkpt lat="43.768734" lon="5.117621">
        <ele>149.186357</ele>
        <time>2017-06-08T08:22:27.000Z</time>
      </trkpt>
      <trkpt lat="43.768670" lon="5.117747">
        <ele>149.242544</ele>
        <time>2017-06-08T08:22:29.000Z</time>
      </trkpt>
      <trkpt lat="43.768604" lon="5.117877">
        <ele>149.300505</ele>
        <time>2017-06-08T08:22:31.000Z</time>
      </trkpt>
      <trkpt lat="43.768530" lon="5.118004">
        <ele>149.360025</ele>
        <time>2017-06-08T08:22:33.000Z</time>
      </trkpt>
      <trkpt lat="43.768467" lon="5.118131">
        <ele>149.416223</ele>
        <time>2017-06-08T08:22:35.000Z</time>
      </trkpt>
      <trkpt lat="43.768402" lon="5.118258">
        <ele>149.472998</ele>
        <time>2017-06-08T08:22:37.000Z</time>
      </trkpt>
      <trkpt lat="43.768340" lon="5.118391">
        <ele>149.530738</ele>
        <time>2017-06-08T08:22:39.000Z</time>
      </trkpt>
      <trkpt lat="43.768272" lon="5.118519">
        <ele>149.588872</ele>
        <time>2017-06-08T08:22:41.000Z</time>
      </trkpt>
      <trkpt lat="43.768215" lon="5.118647">
        <ele>149.643916</ele>
        <time>2017-06-08T08:22:43.000Z</time>
      </trkpt>
      <trkpt lat="43.768143" lon="5.118772">
        <ele>149.702441</ele>
        <time>2017-06-08T08:22:45.000Z</time>
      </trkpt>
      <trkpt lat="43.768070" lon="5.118900">
        <ele>149.762142</ele>
        <time>2017-06-08T08:22:47.000Z</time>
      </trkpt>
      <trkpt lat="43.767994" lon="5.119033">
        <ele>149.824222</ele>
        <time>2017-06-08T08:22:49.000Z</time>
      </trkpt>
      <trkpt lat="43.767920" lon="5.119169">
        <ele>149.886551</ele>
        <time>2017-06-08T08:22:51.000Z</time>
      </trkpt>
      <trkpt lat="43.767853" lon="5.119296">
        <ele>149.944121</ele>
        <time>2017-06-08T08:22:53.000Z</time>
      </trkpt>
      <trkpt lat="43.767788" lon="5.119415">
        <ele>149.998735</ele>
        <time>2017-06-08T08:22:55.000Z</time>
      </trkpt>
      <trkpt lat="43.767723" lon="5.119538">
        <ele>150.054524</ele>
        <time>2017-06-08T08:22:57.000Z</time>
      </trkpt>
      <trkpt lat="43.767662" lon="5.119652">
        <ele>150.106459</ele>
        <time>2017-06-08T08:22:59.000Z</time>
      </trkpt>
      <trkpt lat="43.767600" lon="5.119781">
        <ele>150.163179</ele>
        <time>2017-06-08T08:23:01.000Z</time>
      </trkpt>
      <trkpt lat="43.767532" lon="5.119911">
        <ele>150.221934</ele>
        <time>2017-06-08T08:23:03.000Z</time>
      </trkpt>
      <trkpt lat="43.767467" lon="5.120031">
        <ele>150.276842</ele>
        <time>2017-06-08T08:23:05.000Z</time>
      </trkpt>
      <trkpt lat="43.767403" lon="5.120152">
        <ele>150.331741</ele>
        <time>2017-06-08T08:23:07.000Z</time>
      </trkpt>
      <trkpt lat="43.767345" lon="5.120266">
        <ele>150.382785</ele>
        <time>2017-06-08T08:23:09.000Z</time>
      </trkpt>
      <trkpt lat="43.767292" lon="5.120373">
        <ele>150.430278</ele>
        <time>2017-06-08T08:23:11.000Z</time>
      </trkpt>
      <trkpt lat="43.767235" lon="5.120479">
        <ele>150.472430</ele>
        <time>2017-06-08T08:23:13.000Z</time>
      </trkpt>
      <trkpt lat="43.767174" lon="5.120585">
        <ele>150.510944</ele>
        <time>2017-06-08T08:23:15.000Z</time>
      </trkpt>
      <trkpt lat="43.767113" lon="5.120699">
        <ele>150.551261</ele>
        <time>2017-06-08T08:23:17.000Z</time>
      </trkpt>
      <trkpt lat="43.767056" lon="5.120814">
        <ele>150.590895</ele>
        <time>2017-06-08T08:23:19.000Z</time>
      </trkpt>
      <trkpt lat="43.766987" lon="5.120928">
        <ele>150.633162</ele>
        <time>2017-06-08T08:23:21.000Z</time>
      </trkpt>
      <trkpt lat="43.766930" lon="5.121047">
        <ele>150.673738</ele>
        <time>2017-06-08T08:23:23.000Z</time>
      </trkpt>
      <trkpt lat="43.766865" lon="5.121165">
        <ele>150.715910</ele>
        <time>2017-06-08T08:23:25.000Z</time>
      </trkpt>
      <trkpt lat="43.766800" lon="5.121294">
        <ele>150.760607</ele>
        <time>2017-06-08T08:23:27.000Z</time>
      </trkpt>
      <trkpt lat="43.766735" lon="5.121429">
        <ele>150.806712</ele>
        <time>2017-06-08T08:23:29.000Z</time>
      </trkpt>
      <trkpt lat="43.766666" lon="5.121562">
        <ele>150.853246</ele>
        <time>2017-06-08T08:23:31.000Z</time>
      </trkpt>
      <trkpt lat="43.766590" lon="5.121700">
        <ele>150.902562</ele>
        <time>2017-06-08T08:23:33.000Z</time>
      </trkpt>
      <trkpt lat="43.766520" lon="5.121827">
        <ele>150.947960</ele>
        <time>2017-06-08T08:23:35.000Z</time>
      </trkpt>
      <trkpt lat="43.766460" lon="5.121957">
        <ele>150.991800</ele>
        <time>2017-06-08T08:23:37.000Z</time>
      </trkpt>
      <trkpt lat="43.766388" lon="5.122086">
        <ele>151.038129</ele>
        <time>2017-06-08T08:23:39.000Z</time>
      </trkpt>
      <trkpt lat="43.766315" lon="5.122214">
        <ele>151.084475</ele>
        <time>2017-06-08T08:23:41.000Z</time>
      </trkpt>
      <trkpt lat="43.766247" lon="5.122342">
        <ele>151.129629</ele>
        <time>2017-06-08T08:23:43.000Z</time>
      </trkpt>
      <trkpt lat="43.766182" lon="5.122462">
        <ele>151.152656</ele>
        <time>2017-06-08T08:23:45.000Z</time>
      </trkpt>
      <trkpt lat="43.766117" lon="5.122581">
        <ele>151.134364</ele>
        <time>2017-06-08T08:23:47.000Z</time>
      </trkpt>
      <trkpt lat="43.766056" lon="5.122695">
        <ele>151.116970</ele>
        <time>2017-06-08T08:23:49.000Z</time>
      </trkpt>
      <trkpt lat="43.765990" lon="5.122816">
        <ele>151.098380</ele>
        <time>2017-06-08T08:23:51.000Z</time>
      </trkpt>
      <trkpt lat="43.765923" lon="5.122941">
        <ele>151.079296</ele>
        <time>2017-06-08T08:23:53.000Z</time>
      </trkpt>
      <trkpt lat="43.765858" lon="5.123059">
        <ele>151.061101</ele>
        <time>2017-06-08T08:23:55.000Z</time>
      </trkpt>
      <trkpt lat="43.765790" lon="5.123186">
        <ele>151.041719</ele>
        <time>2017-06-08T08:23:57.000Z</time>
      </trkpt>
      <trkpt lat="43.765720" lon="5.123301">
        <ele>151.023281</ele>
        <time>2017-06-08T08:23:59.000Z</time>
      </trkpt>
      <trkpt lat="43.765660" lon="5.123425">
        <ele>151.004982</ele>
        <time>2017-06-08T08:24:01.000Z</time>
      </trkpt>
      <trkpt lat="43.765600" lon="5.123542">
        <ele>150.987390</ele>
        <time>2017-06-08T08:24:03.000Z</time>
      </trkpt>
      <trkpt lat="43.765540" lon="5.123663">
        <ele>150.969395</ele>
        <time>2017-06-08T08:24:05.000Z</time>
      </trkpt>
      <trkpt lat="43.765480" lon="5.123786">
        <ele>150.951198</ele>
        <time>2017-06-08T08:24:07.000Z</time>
      </trkpt>
      <trkpt lat="43.765423" lon="5.123911">
        <ele>150.933074</ele>
        <time>2017-06-08T08:24:09.000Z</time>
      </trkpt>
      <trkpt lat="43.765360" lon="5.124034">
        <ele>150.914587</ele>
        <time>2017-06-08T08:24:11.000Z</time>
      </trkpt>
      <trkpt lat="43.765293" lon="5.124161">
        <ele>150.895306</ele>
        <time>2017-06-08T08:24:13.000Z</time>
      </trkpt>
      <trkpt lat="43.765220" lon="5.124283">
        <ele>150.875882</ele>
        <time>2017-06-08T08:24:15.000Z</time>
      </trkpt>
      <trkpt lat="43.765160" lon="5.124415">
        <ele>150.856761</ele>
        <time>2017-06-08T08:24:17.000Z</time>
      </trkpt>
      <trkpt lat="43.765083" lon="5.124534">
        <ele>150.978992</ele>
        <time>2017-06-08T08:24:19.000Z</time>
      </trkpt>
      <trkpt lat="43.765007" lon="5.124648">
        <ele>151.128004</ele>
        <time>2017-06-08T08:24:21.000Z</time>
      </trkpt>
      <trkpt lat="43.764942" lon="5.124764">
        <ele>151.269021</ele>
        <time>2017-06-08T08:24:23.000Z</time>
      </trkpt>
      <trkpt lat="43.764877" lon="5.124878">
        <ele>151.408525</ele>
        <time>2017-06-08T08:24:25.000Z</time>
      </trkpt>
      <trkpt lat="43.764810" lon="5.125002">
        <ele>151.557266</ele>
        <time>2017-06-08T08:24:27.000Z</time>
      </trkpt>
      <trkpt lat="43.764750" lon="5.125115">
        <ele>151.691975</ele>
        <time>2017-06-08T08:24:29.000Z</time>
      </trkpt>
      <trkpt lat="43.764690" lon="5.125233">
        <ele>151.830583</ele>
        <time>2017-06-08T08:24:31.000Z</time>
      </trkpt>
      <trkpt lat="43.764630" lon="5.125351">
        <ele>151.969191</ele>
        <time>2017-06-08T08:24:33.000Z</time>
      </trkpt>
      <trkpt lat="43.764570" lon="5.125467">
        <ele>152.106233</ele>
        <time>2017-06-08T08:24:35.000Z</time>
      </trkpt>
      <trkpt lat="43.764500" lon="5.125581">
        <ele>152.249953</ele>
        <time>2017-06-08T08:24:37.000Z</time>
      </trkpt>
      <trkpt lat="43.764435" lon="5.125692">
        <ele>152.387208</ele>
        <time>2017-06-08T08:24:39.000Z</time>
      </trkpt>
      <trkpt lat="43.764378" lon="5.125810">
        <ele>152.523558</ele>
        <time>2017-06-08T08:24:41.000Z</time>
      </trkpt>
      <trkpt lat="43.764317" lon="5.125926">
        <ele>152.661379</ele>
        <time>2017-06-08T08:24:43.000Z</time>
      </trkpt>
      <trkpt lat="43.764256" lon="5.126042">
        <ele>152.799200</ele>
        <time>2017-06-08T08:24:45.000Z</time>
      </trkpt>
      <trkpt lat="43.764202" lon="5.126162">
        <ele>152.935000</ele>
        <time>2017-06-08T08:24:47.000Z</time>
      </trkpt>
      <trkpt lat="43.764140" lon="5.126270">
        <ele>153.067510</ele>
        <time>2017-06-08T08:24:49.000Z</time>
      </trkpt>
      <trkpt lat="43.764084" lon="5.126376">
        <ele>153.193653</ele>
        <time>2017-06-08T08:24:51.000Z</time>
      </trkpt>
      <trkpt lat="43.764027" lon="5.126491">
        <ele>153.238151</ele>
        <time>2017-06-08T08:24:53.000Z</time>
      </trkpt>
      <trkpt lat="43.763977" lon="5.126604">
        <ele>153.227088</ele>
        <time>2017-06-08T08:24:55.000Z</time>
      </trkpt>
      <trkpt lat="43.763920" lon="5.126718">
        <ele>153.215513</ele>
        <time>2017-06-08T08:24:57.000Z</time>
      </trkpt>
      <trkpt lat="43.763863" lon="5.126836">
        <ele>153.203662</ele>
        <time>2017-06-08T08:24:59.000Z</time>
      </trkpt>
      <trkpt lat="43.763800" lon="5.126957">
        <ele>153.191210</ele>
        <time>2017-06-08T08:25:01.000Z</time>
      </trkpt>
      <trkpt lat="43.763725" lon="5.127066">
        <ele>153.178642</ele>
        <time>2017-06-08T08:25:03.000Z</time>
      </trkpt>
      <trkpt lat="43.763660" lon="5.127178">
        <ele>153.166648</ele>
        <time>2017-06-08T08:25:05.000Z</time>
      </trkpt>
      <trkpt lat="43.763596" lon="5.127290">
        <ele>153.154725</ele>
        <time>2017-06-08T08:25:07.000Z</time>
      </trkpt>
      <trkpt lat="43.763520" lon="5.127393">
        <ele>153.142433</ele>
        <time>2017-06-08T08:25:09.000Z</time>
      </trkpt>
      <trkpt lat="43.763450" lon="5.127500">
        <ele>153.130381</ele>
        <time>2017-06-08T08:25:11.000Z</time>
      </trkpt>
      <trkpt lat="43.763393" lon="5.127597">
        <ele>153.119941</ele>
        <time>2017-06-08T08:25:13.000Z</time>
      </trkpt>
      <trkpt lat="43.763313" lon="5.127745">
        <ele>153.104509</ele>
        <time>2017-06-08T08:25:16.000Z</time>
      </trkpt>
      <trkpt lat="43.763264" lon="5.127852">
        <ele>153.093932</ele>
        <time>2017-06-08T08:25:18.000Z</time>
      </trkpt>
      <trkpt lat="43.763214" lon="5.127961">
        <ele>153.083153</ele>
        <time>2017-06-08T08:25:20.000Z</time>
      </trkpt>
      <trkpt lat="43.763160" lon="5.128080">
        <ele>153.071420</ele>
        <time>2017-06-08T08:25:22.000Z</time>
      </trkpt>
      <trkpt lat="43.763103" lon="5.128202">
        <ele>153.059291</ele>
        <time>2017-06-08T08:25:24.000Z</time>
      </trkpt>
      <trkpt lat="43.763046" lon="5.128321">
        <ele>153.047370</ele>
        <time>2017-06-08T08:25:26.000Z</time>
      </trkpt>
      <trkpt lat="43.762990" lon="5.128435">
        <ele>153.037030</ele>
        <time>2017-06-08T08:25:28.000Z</time>
      </trkpt>
      <trkpt lat="43.762928" lon="5.128547">
        <ele>153.034200</ele>
        <time>2017-06-08T08:25:30.000Z</time>
      </trkpt>
      <trkpt lat="43.762867" lon="5.128660">
        <ele>153.031371</ele>
        <time>2017-06-08T08:25:32.000Z</time>
      </trkpt>
      <trkpt lat="43.762800" lon="5.128782">
        <ele>153.028298</ele>
        <time>2017-06-08T08:25:34.000Z</time>
      </trkpt>
      <trkpt lat="43.762730" lon="5.128903">
        <ele>153.025189</ele>
        <time>2017-06-08T08:25:36.000Z</time>
      </trkpt>
      <trkpt lat="43.762665" lon="5.129019">
        <ele>153.022245</ele>
        <time>2017-06-08T08:25:38.000Z</time>
      </trkpt>
      <trkpt lat="43.762608" lon="5.129135">
        <ele>153.019431</ele>
        <time>2017-06-08T08:25:40.000Z</time>
      </trkpt>
      <trkpt lat="43.762543" lon="5.129260">
        <ele>153.016342</ele>
        <time>2017-06-08T08:25:42.000Z</time>
      </trkpt>
      <trkpt lat="43.762478" lon="5.129392">
        <ele>153.013139</ele>
        <time>2017-06-08T08:25:44.000Z</time>
      </trkpt>
      <trkpt lat="43.762405" lon="5.129520">
        <ele>153.009868</ele>
        <time>2017-06-08T08:25:46.000Z</time>
      </trkpt>
      <trkpt lat="43.762337" lon="5.129651">
        <ele>153.006633</ele>
        <time>2017-06-08T08:25:48.000Z</time>
      </trkpt>
      <trkpt lat="43.762280" lon="5.129776">
        <ele>153.003669</ele>
        <time>2017-06-08T08:25:50.000Z</time>
      </trkpt>
      <trkpt lat="43.762215" lon="5.129904">
        <ele>153.000531</ele>
        <time>2017-06-08T08:25:52.000Z</time>
      </trkpt>
      <trkpt lat="43.762146" lon="5.130034">
        <ele>152.997296</ele>
        <time>2017-06-08T08:25:54.000Z</time>
      </trkpt>
      <trkpt lat="43.762074" lon="5.130162">
        <ele>152.994042</ele>
        <time>2017-06-08T08:25:56.000Z</time>
      </trkpt>
      <trkpt lat="43.761997" lon="5.130289">
        <ele>152.990717</ele>
        <time>2017-06-08T08:25:58.000Z</time>
      </trkpt>
      <trkpt lat="43.761930" lon="5.130421">
        <ele>152.987482</ele>
        <time>2017-06-08T08:26:00.000Z</time>
      </trkpt>
      <trkpt lat="43.761868" lon="5.130554">
        <ele>153.028720</ele>
        <time>2017-06-08T08:26:02.000Z</time>
      </trkpt>
      <trkpt lat="43.761790" lon="5.130676">
        <ele>153.071503</ele>
        <time>2017-06-08T08:26:04.000Z</time>
      </trkpt>
      <trkpt lat="43.761720" lon="5.130806">
        <ele>153.114080</ele>
        <time>2017-06-08T08:26:06.000Z</time>
      </trkpt>
      <trkpt lat="43.761650" lon="5.130932">
        <ele>153.155820</ele>
        <time>2017-06-08T08:26:08.000Z</time>
      </trkpt>
      <trkpt lat="43.761580" lon="5.131061">
        <ele>153.198187</ele>
        <time>2017-06-08T08:26:10.000Z</time>
      </trkpt>
      <trkpt lat="43.761517" lon="5.131199">
        <ele>153.241055</ele>
        <time>2017-06-08T08:26:12.000Z</time>
      </trkpt>
      <trkpt lat="43.761448" lon="5.131332">
        <ele>153.284053</ele>
        <time>2017-06-08T08:26:14.000Z</time>
      </trkpt>
      <trkpt lat="43.761368" lon="5.131468">
        <ele>153.330109</ele>
        <time>2017-06-08T08:26:16.000Z</time>
      </trkpt>
      <trkpt lat="43.761300" lon="5.131606">
        <ele>153.373975</ele>
        <time>2017-06-08T08:26:18.000Z</time>
      </trkpt>
      <trkpt lat="43.761223" lon="5.131743">
        <ele>153.419557</ele>
        <time>2017-06-08T08:26:20.000Z</time>
      </trkpt>
      <trkpt lat="43.761154" lon="5.131868">
        <ele>153.460867</ele>
        <time>2017-06-08T08:26:22.000Z</time>
      </trkpt>
      <trkpt lat="43.761097" lon="5.131999">
        <ele>153.501025</ele>
        <time>2017-06-08T08:26:24.000Z</time>
      </trkpt>
      <trkpt lat="43.761036" lon="5.132136">
        <ele>153.543284</ele>
        <time>2017-06-08T08:26:26.000Z</time>
      </trkpt>
      <trkpt lat="43.760980" lon="5.132272">
        <ele>153.584391</ele>
        <time>2017-06-08T08:26:28.000Z</time>
      </trkpt>
      <trkpt lat="43.760933" lon="5.132409">
        <ele>153.624216</ele>
        <time>2017-06-08T08:26:30.000Z</time>
      </trkpt>
      <trkpt lat="43.760870" lon="5.132541">
        <ele>153.678945</ele>
        <time>2017-06-08T08:26:32.000Z</time>
      </trkpt>
      <trkpt lat="43.760822" lon="5.132663">
        <ele>153.735150</ele>
        <time>2017-06-08T08:26:34.000Z</time>
      </trkpt>
      <trkpt lat="43.760777" lon="5.132786">
        <ele>153.790931</ele>
        <time>2017-06-08T08:26:36.000Z</time>
      </trkpt>
      <trkpt lat="43.760727" lon="5.132903">
        <ele>153.845931</ele>
        <time>2017-06-08T08:26:38.000Z</time>
      </trkpt>
      <trkpt lat="43.760674" lon="5.133038">
        <ele>153.908094</ele>
        <time>2017-06-08T08:26:40.000Z</time>
      </trkpt>
      <trkpt lat="43.760624" lon="5.133170">
        <ele>153.968395</ele>
        <time>2017-06-08T08:26:42.000Z</time>
      </trkpt>
      <trkpt lat="43.760574" lon="5.133304">
        <ele>154.029414</ele>
        <time>2017-06-08T08:26:44.000Z</time>
      </trkpt>
      <trkpt lat="43.760525" lon="5.133443">
        <ele>154.091990</ele>
        <time>2017-06-08T08:26:46.000Z</time>
      </trkpt>
      <trkpt lat="43.760475" lon="5.133579">
        <ele>154.153729</ele>
        <time>2017-06-08T08:26:48.000Z</time>
      </trkpt>
      <trkpt lat="43.760414" lon="5.133723">
        <ele>154.221267</ele>
        <time>2017-06-08T08:26:50.000Z</time>
      </trkpt>
      <trkpt lat="43.760360" lon="5.133867">
        <ele>154.286909</ele>
        <time>2017-06-08T08:26:52.000Z</time>
      </trkpt>
      <trkpt lat="43.760307" lon="5.134006">
        <ele>154.350499</ele>
        <time>2017-06-08T08:26:54.000Z</time>
      </trkpt>
      <trkpt lat="43.760260" lon="5.134138">
        <ele>154.410039</ele>
        <time>2017-06-08T08:26:56.000Z</time>
      </trkpt>
      <trkpt lat="43.760212" lon="5.134271">
        <ele>154.470190</ele>
        <time>2017-06-08T08:26:58.000Z</time>
      </trkpt>
      <trkpt lat="43.760170" lon="5.134405">
        <ele>154.529287</ele>
        <time>2017-06-08T08:27:00.000Z</time>
      </trkpt>
      <trkpt lat="43.760128" lon="5.134533">
        <ele>154.586165</ele>
        <time>2017-06-08T08:27:02.000Z</time>
      </trkpt>
      <trkpt lat="43.760086" lon="5.134661">
        <ele>154.643043</ele>
        <time>2017-06-08T08:27:04.000Z</time>
      </trkpt>
      <trkpt lat="43.760044" lon="5.134797">
        <ele>154.723898</ele>
        <time>2017-06-08T08:27:06.000Z</time>
      </trkpt>
      <trkpt lat="43.760002" lon="5.134935">
        <ele>154.808066</ele>
        <time>2017-06-08T08:27:08.000Z</time>
      </trkpt>
      <trkpt lat="43.759970" lon="5.135070">
        <ele>154.887924</ele>
        <time>2017-06-08T08:27:10.000Z</time>
      </trkpt>
      <trkpt lat="43.759930" lon="5.135203">
        <ele>154.968898</ele>
        <time>2017-06-08T08:27:12.000Z</time>
      </trkpt>
      <trkpt lat="43.759888" lon="5.135336">
        <ele>155.050483</ele>
        <time>2017-06-08T08:27:14.000Z</time>
      </trkpt>
      <trkpt lat="43.759853" lon="5.135469">
        <ele>155.130042</ele>
        <time>2017-06-08T08:27:16.000Z</time>
      </trkpt>
      <trkpt lat="43.759808" lon="5.135599">
        <ele>155.211067</ele>
        <time>2017-06-08T08:27:18.000Z</time>
      </trkpt>
      <trkpt lat="43.759773" lon="5.135730">
        <ele>155.289571</ele>
        <time>2017-06-08T08:27:20.000Z</time>
      </trkpt>
      <trkpt lat="43.759730" lon="5.135867">
        <ele>155.373528</ele>
        <time>2017-06-08T08:27:22.000Z</time>
      </trkpt>
      <trkpt lat="43.759690" lon="5.136004">
        <ele>155.456583</ele>
        <time>2017-06-08T08:27:24.000Z</time>
      </trkpt>
      <trkpt lat="43.759647" lon="5.136135">
        <ele>155.537458</ele>
        <time>2017-06-08T08:27:26.000Z</time>
      </trkpt>
      <trkpt lat="43.759600" lon="5.136270">
        <ele>155.621690</ele>
        <time>2017-06-08T08:27:28.000Z</time>
      </trkpt>
      <trkpt lat="43.759560" lon="5.136405">
        <ele>155.703703</ele>
        <time>2017-06-08T08:27:30.000Z</time>
      </trkpt>
      <trkpt lat="43.759520" lon="5.136539">
        <ele>155.785197</ele>
        <time>2017-06-08T08:27:32.000Z</time>
      </trkpt>
      <trkpt lat="43.759480" lon="5.136667">
        <ele>155.863585</ele>
        <time>2017-06-08T08:27:34.000Z</time>
      </trkpt>
      <trkpt lat="43.759434" lon="5.136802">
        <ele>155.947482</ele>
        <time>2017-06-08T08:27:36.000Z</time>
      </trkpt>
      <trkpt lat="43.759390" lon="5.136941">
        <ele>156.032781</ele>
        <time>2017-06-08T08:27:38.000Z</time>
      </trkpt>
      <trkpt lat="43.759346" lon="5.137092">
        <ele>156.109219</ele>
        <time>2017-06-08T08:27:40.000Z</time>
      </trkpt>
      <trkpt lat="43.759304" lon="5.137240">
        <ele>156.180794</ele>
        <time>2017-06-08T08:27:42.000Z</time>
      </trkpt>
      <trkpt lat="43.759254" lon="5.137380">
        <ele>156.251093</ele>
        <time>2017-06-08T08:27:44.000Z</time>
      </trkpt>
      <trkpt lat="43.759205" lon="5.137517">
        <ele>156.319906</ele>
        <time>2017-06-08T08:27:46.000Z</time>
      </trkpt>
      <trkpt lat="43.759155" lon="5.137651">
        <ele>156.387795</ele>
        <time>2017-06-08T08:27:48.000Z</time>
      </trkpt>
      <trkpt lat="43.759110" lon="5.137792">
        <ele>156.457181</ele>
        <time>2017-06-08T08:27:50.000Z</time>
      </trkpt>
      <trkpt lat="43.759068" lon="5.137940">
        <ele>156.528756</ele>
        <time>2017-06-08T08:27:52.000Z</time>
      </trkpt>
      <trkpt lat="43.759026" lon="5.138093">
        <ele>156.602430</ele>
        <time>2017-06-08T08:27:54.000Z</time>
      </trkpt>
      <trkpt lat="43.758980" lon="5.138238">
        <ele>156.673715</ele>
        <time>2017-06-08T08:27:56.000Z</time>
      </trkpt>
      <trkpt lat="43.758938" lon="5.138376">
        <ele>156.741121</ele>
        <time>2017-06-08T08:27:58.000Z</time>
      </trkpt>
      <trkpt lat="43.758896" lon="5.138513">
        <ele>156.808112</ele>
        <time>2017-06-08T08:28:00.000Z</time>
      </trkpt>
      <trkpt lat="43.758858" lon="5.138634">
        <ele>156.867502</ele>
        <time>2017-06-08T08:28:02.000Z</time>
      </trkpt>
      <trkpt lat="43.758820" lon="5.138751">
        <ele>156.925246</ele>
        <time>2017-06-08T08:28:04.000Z</time>
      </trkpt>
      <trkpt lat="43.758766" lon="5.138902">
        <ele>157.001089</ele>
        <time>2017-06-08T08:28:07.000Z</time>
      </trkpt>
      <trkpt lat="43.758713" lon="5.139062">
        <ele>157.080321</ele>
        <time>2017-06-08T08:28:10.000Z</time>
      </trkpt>
      <trkpt lat="43.758660" lon="5.139219">
        <ele>157.158328</ele>
        <time>2017-06-08T08:28:13.000Z</time>
      </trkpt>
      <trkpt lat="43.758610" lon="5.139385">
        <ele>157.119653</ele>
        <time>2017-06-08T08:28:16.000Z</time>
      </trkpt>
      <trkpt lat="43.758560" lon="5.139549">
        <ele>157.062383</ele>
        <time>2017-06-08T08:28:19.000Z</time>
      </trkpt>
      <trkpt lat="43.758510" lon="5.139708">
        <ele>157.006591</ele>
        <time>2017-06-08T08:28:22.000Z</time>
      </trkpt>
      <trkpt lat="43.758465" lon="5.139866">
        <ele>156.951950</ele>
        <time>2017-06-08T08:28:25.000Z</time>
      </trkpt>
      <trkpt lat="43.758410" lon="5.140014">
        <ele>156.898402</ele>
        <time>2017-06-08T08:28:28.000Z</time>
      </trkpt>
      <trkpt lat="43.758360" lon="5.140183">
        <ele>156.839646</ele>
        <time>2017-06-08T08:28:31.000Z</time>
      </trkpt>
      <trkpt lat="43.758310" lon="5.140339">
        <ele>156.784738</ele>
        <time>2017-06-08T08:28:34.000Z</time>
      </trkpt>
      <trkpt lat="43.758270" lon="5.140480">
        <ele>156.736001</ele>
        <time>2017-06-08T08:28:37.000Z</time>
      </trkpt>
      <trkpt lat="43.758232" lon="5.140608">
        <ele>156.691478</ele>
        <time>2017-06-08T08:28:40.000Z</time>
      </trkpt>
      <trkpt lat="43.758194" lon="5.140735">
        <ele>156.647251</ele>
        <time>2017-06-08T08:28:43.000Z</time>
      </trkpt>
      <trkpt lat="43.758163" lon="5.140871">
        <ele>156.601370</ele>
        <time>2017-06-08T08:28:47.000Z</time>
      </trkpt>
      <trkpt lat="43.758106" lon="5.141028">
        <ele>156.544837</ele>
        <time>2017-06-08T08:29:20.000Z</time>
      </trkpt>
      <trkpt lat="43.758083" lon="5.141153">
        <ele>156.503337</ele>
        <time>2017-06-08T08:29:33.000Z</time>
      </trkpt>
      <trkpt lat="43.758026" lon="5.141295">
        <ele>156.451071</ele>
        <time>2017-06-08T08:43:00.000Z</time>
      </trkpt>
      <trkpt lat="43.757984" lon="5.141420">
        <ele>156.406717</ele>
        <time>2017-06-08T08:43:10.000Z</time>
      </trkpt>
      <trkpt lat="43.757954" lon="5.141560">
        <ele>156.385363</ele>
        <time>2017-06-08T08:43:16.000Z</time>
      </trkpt>
      <trkpt lat="43.757915" lon="5.141690">
        <ele>156.474993</ele>
        <time>2017-06-08T08:43:22.000Z</time>
      </trkpt>
      <trkpt lat="43.757877" lon="5.141822">
        <ele>156.565471</ele>
        <time>2017-06-08T08:43:25.000Z</time>
      </trkpt>
      <trkpt lat="43.757847" lon="5.141961">
        <ele>156.657843</ele>
        <time>2017-06-08T08:43:29.000Z</time>
      </trkpt>
      <trkpt lat="43.757810" lon="5.142108">
        <ele>156.756962</ele>
        <time>2017-06-08T08:43:33.000Z</time>
      </trkpt>
      <trkpt lat="43.757760" lon="5.142233">
        <ele>156.847943</ele>
        <time>2017-06-08T08:43:38.000Z</time>
      </trkpt>
      <trkpt lat="43.757720" lon="5.142376">
        <ele>156.945585</ele>
        <time>2017-06-08T08:43:42.000Z</time>
      </trkpt>
      <trkpt lat="43.757680" lon="5.142508">
        <ele>157.036731</ele>
        <time>2017-06-08T08:43:45.000Z</time>
      </trkpt>
      <trkpt lat="43.757633" lon="5.142645">
        <ele>157.133302</ele>
        <time>2017-06-08T08:43:48.000Z</time>
      </trkpt>
      <trkpt lat="43.757595" lon="5.142808">
        <ele>157.242361</ele>
        <time>2017-06-08T08:43:51.000Z</time>
      </trkpt>
      <trkpt lat="43.757540" lon="5.142972">
        <ele>157.357492</ele>
        <time>2017-06-08T08:43:54.000Z</time>
      </trkpt>
      <trkpt lat="43.757484" lon="5.143141">
        <ele>157.475884</ele>
        <time>2017-06-08T08:43:57.000Z</time>
      </trkpt>
      <trkpt lat="43.757442" lon="5.143264">
        <ele>157.562512</ele>
        <time>2017-06-08T08:43:59.000Z</time>
      </trkpt>
      <trkpt lat="43.757390" lon="5.143426">
        <ele>157.675390</ele>
        <time>2017-06-08T08:44:02.000Z</time>
      </trkpt>
      <trkpt lat="43.757330" lon="5.143591">
        <ele>157.793015</ele>
        <time>2017-06-08T08:44:05.000Z</time>
      </trkpt>
      <trkpt lat="43.757305" lon="5.143711">
        <ele>157.872537</ele>
        <time>2017-06-08T08:44:07.000Z</time>
      </trkpt>
      <trkpt lat="43.757263" lon="5.143825">
        <ele>157.953908</ele>
        <time>2017-06-08T08:44:09.000Z</time>
      </trkpt>
      <trkpt lat="43.757230" lon="5.143940">
        <ele>157.900927</ele>
        <time>2017-06-08T08:44:11.000Z</time>
      </trkpt>
      <trkpt lat="43.757187" lon="5.144059">
        <ele>157.843956</ele>
        <time>2017-06-08T08:44:13.000Z</time>
      </trkpt>
      <trkpt lat="43.757140" lon="5.144180">
        <ele>157.785133</ele>
        <time>2017-06-08T08:44:15.000Z</time>
      </trkpt>
      <trkpt lat="43.757100" lon="5.144304">
        <ele>157.726987</ele>
        <time>2017-06-08T08:44:17.000Z</time>
      </trkpt>
      <trkpt lat="43.757060" lon="5.144432">
        <ele>157.667273</ele>
        <time>2017-06-08T08:44:19.000Z</time>
      </trkpt>
      <trkpt lat="43.757023" lon="5.144563">
        <ele>157.607049</ele>
        <time>2017-06-08T08:44:21.000Z</time>
      </trkpt>
      <trkpt lat="43.756980" lon="5.144683">
        <ele>157.549694</ele>
        <time>2017-06-08T08:44:23.000Z</time>
      </trkpt>
      <trkpt lat="43.756940" lon="5.144808">
        <ele>157.491157</ele>
        <time>2017-06-08T08:44:25.000Z</time>
      </trkpt>
      <trkpt lat="43.756897" lon="5.144944">
        <ele>157.427593</ele>
        <time>2017-06-08T08:44:27.000Z</time>
      </trkpt>
      <trkpt lat="43.756860" lon="5.145084">
        <ele>157.363764</ele>
        <time>2017-06-08T08:44:29.000Z</time>
      </trkpt>
      <trkpt lat="43.756817" lon="5.145219">
        <ele>157.300592</ele>
        <time>2017-06-08T08:44:31.000Z</time>
      </trkpt>
      <trkpt lat="43.756780" lon="5.145352">
        <ele>157.239569</ele>
        <time>2017-06-08T08:44:33.000Z</time>
      </trkpt>
      <trkpt lat="43.756737" lon="5.145484">
        <ele>157.177570</ele>
        <time>2017-06-08T08:44:35.000Z</time>
      </trkpt>
      <trkpt lat="43.756695" lon="5.145609">
        <ele>157.118542</ele>
        <time>2017-06-08T08:44:37.000Z</time>
      </trkpt>
      <trkpt lat="43.756653" lon="5.145743">
        <ele>157.056000</ele>
        <time>2017-06-08T08:44:39.000Z</time>
      </trkpt>
      <trkpt lat="43.756607" lon="5.145881">
        <ele>156.990925</ele>
        <time>2017-06-08T08:44:41.000Z</time>
      </trkpt>
      <trkpt lat="43.756570" lon="5.146014">
        <ele>156.929902</ele>
        <time>2017-06-08T08:44:43.000Z</time>
      </trkpt>
      <trkpt lat="43.756530" lon="5.146151">
        <ele>156.850149</ele>
        <time>2017-06-08T08:44:45.000Z</time>
      </trkpt>
      <trkpt lat="43.756490" lon="5.146299">
        <ele>156.729660</ele>
        <time>2017-06-08T08:44:47.000Z</time>
      </trkpt>
      <trkpt lat="43.756447" lon="5.146431">
        <ele>156.619250</ele>
        <time>2017-06-08T08:44:49.000Z</time>
      </trkpt>
      <trkpt lat="43.756397" lon="5.146575">
        <ele>156.497425</ele>
        <time>2017-06-08T08:44:51.000Z</time>
      </trkpt>
      <trkpt lat="43.756355" lon="5.146709">
        <ele>156.386047</ele>
        <time>2017-06-08T08:44:53.000Z</time>
      </trkpt>
      <trkpt lat="43.756317" lon="5.146857">
        <ele>156.266282</ele>
        <time>2017-06-08T08:44:55.000Z</time>
      </trkpt>
      <trkpt lat="43.756270" lon="5.146993">
        <ele>156.151326</ele>
        <time>2017-06-08T08:44:57.000Z</time>
      </trkpt>
      <trkpt lat="43.756226" lon="5.147131">
        <ele>156.036307</ele>
        <time>2017-06-08T08:44:59.000Z</time>
      </trkpt>
      <trkpt lat="43.756176" lon="5.147274">
        <ele>155.915168</ele>
        <time>2017-06-08T08:45:01.000Z</time>
      </trkpt>
      <trkpt lat="43.756126" lon="5.147419">
        <ele>155.792655</ele>
        <time>2017-06-08T08:45:03.000Z</time>
      </trkpt>
      <trkpt lat="43.756080" lon="5.147564">
        <ele>155.671900</ele>
        <time>2017-06-08T08:45:05.000Z</time>
      </trkpt>
      <trkpt lat="43.756040" lon="5.147706">
        <ele>155.555685</ele>
        <time>2017-06-08T08:45:07.000Z</time>
      </trkpt>
      <trkpt lat="43.755993" lon="5.147854">
        <ele>155.432411</ele>
        <time>2017-06-08T08:45:09.000Z</time>
      </trkpt>
      <trkpt lat="43.755940" lon="5.148008">
        <ele>155.302340</ele>
        <time>2017-06-08T08:45:11.000Z</time>
      </trkpt>
      <trkpt lat="43.755900" lon="5.148154">
        <ele>155.183278</ele>
        <time>2017-06-08T08:45:13.000Z</time>
      </trkpt>
      <trkpt lat="43.755860" lon="5.148290">
        <ele>155.071312</ele>
        <time>2017-06-08T08:45:15.000Z</time>
      </trkpt>
      <trkpt lat="43.755817" lon="5.148441">
        <ele>155.039406</ele>
        <time>2017-06-08T08:45:17.000Z</time>
      </trkpt>
      <trkpt lat="43.755775" lon="5.148587">
        <ele>155.185078</ele>
        <time>2017-06-08T08:45:19.000Z</time>
      </trkpt>
      <trkpt lat="43.755733" lon="5.148726">
        <ele>155.324743</ele>
        <time>2017-06-08T08:45:21.000Z</time>
      </trkpt>
      <trkpt lat="43.755688" lon="5.148863">
        <ele>155.464249</ele>
        <time>2017-06-08T08:45:23.000Z</time>
      </trkpt>
      <trkpt lat="43.755634" lon="5.148993">
        <ele>155.603258</ele>
        <time>2017-06-08T08:45:25.000Z</time>
      </trkpt>
      <trkpt lat="43.755592" lon="5.149125">
        <ele>155.736961</ele>
        <time>2017-06-08T08:45:27.000Z</time>
      </trkpt>
      <trkpt lat="43.755554" lon="5.149255">
        <ele>155.866957</ele>
        <time>2017-06-08T08:45:29.000Z</time>
      </trkpt>
      <trkpt lat="43.755520" lon="5.149382">
        <ele>155.992506</ele>
        <time>2017-06-08T08:45:31.000Z</time>
      </trkpt>
      <trkpt lat="43.755478" lon="5.149518">
        <ele>156.129610</ele>
        <time>2017-06-08T08:45:33.000Z</time>
      </trkpt>
      <trkpt lat="43.755447" lon="5.149645">
        <ele>156.253873</ele>
        <time>2017-06-08T08:45:35.000Z</time>
      </trkpt>
      <trkpt lat="43.755398" lon="5.149763">
        <ele>156.380041</ele>
        <time>2017-06-08T08:45:37.000Z</time>
      </trkpt>
      <trkpt lat="43.755360" lon="5.149884">
        <ele>156.502345</ele>
        <time>2017-06-08T08:45:39.000Z</time>
      </trkpt>
      <trkpt lat="43.755325" lon="5.150048">
        <ele>156.660862</ele>
        <time>2017-06-08T08:45:42.000Z</time>
      </trkpt>
      <trkpt lat="43.755295" lon="5.150186">
        <ele>156.794449</ele>
        <time>2017-06-08T08:45:45.000Z</time>
      </trkpt>
      <trkpt lat="43.755250" lon="5.150343">
        <ele>156.951020</ele>
        <time>2017-06-08T08:45:48.000Z</time>
      </trkpt>
      <trkpt lat="43.755190" lon="5.150501">
        <ele>157.116487</ele>
        <time>2017-06-08T08:45:51.000Z</time>
      </trkpt>
      <trkpt lat="43.755150" lon="5.150649">
        <ele>157.262965</ele>
        <time>2017-06-08T08:45:54.000Z</time>
      </trkpt>
      <trkpt lat="43.755108" lon="5.150787">
        <ele>157.305541</ele>
        <time>2017-06-08T08:45:57.000Z</time>
      </trkpt>
      <trkpt lat="43.755077" lon="5.150930">
        <ele>157.316500</ele>
        <time>2017-06-08T08:46:00.000Z</time>
      </trkpt>
      <trkpt lat="43.755040" lon="5.151094">
        <ele>157.329110</ele>
        <time>2017-06-08T08:46:03.000Z</time>
      </trkpt>
      <trkpt lat="43.754997" lon="5.151254">
        <ele>157.341641</ele>
        <time>2017-06-08T08:46:06.000Z</time>
      </trkpt>
      <trkpt lat="43.754963" lon="5.151398">
        <ele>157.352760</ele>
        <time>2017-06-08T08:46:09.000Z</time>
      </trkpt>
      <trkpt lat="43.754936" lon="5.151523">
        <ele>157.362336</ele>
        <time>2017-06-08T08:46:12.000Z</time>
      </trkpt>
      <trkpt lat="43.754910" lon="5.151646">
        <ele>157.371743</ele>
        <time>2017-06-08T08:46:15.000Z</time>
      </trkpt>
      <trkpt lat="43.754856" lon="5.151793">
        <ele>157.383848</ele>
        <time>2017-06-08T08:46:19.000Z</time>
      </trkpt>
      <trkpt lat="43.754814" lon="5.151924">
        <ele>157.394368</ele>
        <time>2017-06-08T08:46:22.000Z</time>
      </trkpt>
      <trkpt lat="43.754760" lon="5.152058">
        <ele>157.405630</ele>
        <time>2017-06-08T08:46:25.000Z</time>
      </trkpt>
      <trkpt lat="43.754704" lon="5.152167">
        <ele>157.415448</ele>
        <time>2017-06-08T08:46:28.000Z</time>
      </trkpt>
      <trkpt lat="43.754650" lon="5.152309">
        <ele>157.427227</ele>
        <time>2017-06-08T08:46:31.000Z</time>
      </trkpt>
      <trkpt lat="43.754627" lon="5.152444">
        <ele>157.437407</ele>
        <time>2017-06-08T08:46:34.000Z</time>
      </trkpt>
      <trkpt lat="43.754590" lon="5.152577">
        <ele>157.447868</ele>
        <time>2017-06-08T08:46:37.000Z</time>
      </trkpt>
      <trkpt lat="43.754536" lon="5.152701">
        <ele>157.458496</ele>
        <time>2017-06-08T08:46:40.000Z</time>
      </trkpt>
      <trkpt lat="43.754482" lon="5.152862">
        <ele>157.471525</ele>
        <time>2017-06-08T08:46:43.000Z</time>
      </trkpt>
      <trkpt lat="43.754440" lon="5.153025">
        <ele>157.471351</ele>
        <time>2017-06-08T08:46:46.000Z</time>
      </trkpt>
      <trkpt lat="43.754400" lon="5.153150">
        <ele>157.450547</ele>
        <time>2017-06-08T08:46:48.000Z</time>
      </trkpt>
      <trkpt lat="43.754340" lon="5.153321">
        <ele>157.421619</ele>
        <time>2017-06-08T08:46:51.000Z</time>
      </trkpt>
      <trkpt lat="43.754280" lon="5.153486">
        <ele>157.393509</ele>
        <time>2017-06-08T08:46:54.000Z</time>
      </trkpt>
      <trkpt lat="43.754220" lon="5.153637">
        <ele>157.367284</ele>
        <time>2017-06-08T08:46:57.000Z</time>
      </trkpt>
      <trkpt lat="43.754173" lon="5.153808">
        <ele>157.339444</ele>
        <time>2017-06-08T08:47:00.000Z</time>
      </trkpt>
      <trkpt lat="43.754140" lon="5.153923">
        <ele>157.320614</ele>
        <time>2017-06-08T08:47:02.000Z</time>
      </trkpt>
      <trkpt lat="43.754093" lon="5.154077">
        <ele>157.295174</ele>
        <time>2017-06-08T08:47:05.000Z</time>
      </trkpt>
      <trkpt lat="43.754055" lon="5.154242">
        <ele>157.268821</ele>
        <time>2017-06-08T08:47:08.000Z</time>
      </trkpt>
      <trkpt lat="43.754010" lon="5.154355">
        <ele>157.249186</ele>
        <time>2017-06-08T08:47:10.000Z</time>
      </trkpt>
      <trkpt lat="43.753960" lon="5.154513">
        <ele>157.222937</ele>
        <time>2017-06-08T08:47:13.000Z</time>
      </trkpt>
      <trkpt lat="43.753910" lon="5.154638">
        <ele>157.201194</ele>
        <time>2017-06-08T08:47:16.000Z</time>
      </trkpt>
      <trkpt lat="43.753883" lon="5.154766">
        <ele>157.180903</ele>
        <time>2017-06-08T08:47:19.000Z</time>
      </trkpt>
      <trkpt lat="43.753838" lon="5.154883">
        <ele>157.160732</ele>
        <time>2017-06-08T08:47:22.000Z</time>
      </trkpt>
      <trkpt lat="43.753750" lon="5.155027">
        <ele>157.132030</ele>
        <time>2017-06-08T08:47:25.000Z</time>
      </trkpt>
      <trkpt lat="43.753704" lon="5.155151">
        <ele>157.110818</ele>
        <time>2017-06-08T08:47:27.000Z</time>
      </trkpt>
      <trkpt lat="43.753670" lon="5.155288">
        <ele>157.150351</ele>
        <time>2017-06-08T08:47:29.000Z</time>
      </trkpt>
      <trkpt lat="43.753635" lon="5.155424">
        <ele>157.237947</ele>
        <time>2017-06-08T08:47:31.000Z</time>
      </trkpt>
      <trkpt lat="43.753593" lon="5.155549">
        <ele>157.321593</ele>
        <time>2017-06-08T08:47:33.000Z</time>
      </trkpt>
      <trkpt lat="43.753567" lon="5.155676">
        <ele>157.401683</ele>
        <time>2017-06-08T08:47:35.000Z</time>
      </trkpt>
      <trkpt lat="43.753532" lon="5.155804">
        <ele>157.484723</ele>
        <time>2017-06-08T08:47:37.000Z</time>
      </trkpt>
      <trkpt lat="43.753500" lon="5.155933">
        <ele>157.567478</ele>
        <time>2017-06-08T08:47:39.000Z</time>
      </trkpt>
      <trkpt lat="43.753475" lon="5.156060">
        <ele>157.647343</ele>
        <time>2017-06-08T08:47:41.000Z</time>
      </trkpt>
      <trkpt lat="43.753445" lon="5.156188">
        <ele>157.728991</ele>
        <time>2017-06-08T08:47:43.000Z</time>
      </trkpt>
      <trkpt lat="43.753410" lon="5.156321">
        <ele>157.814875</ele>
        <time>2017-06-08T08:47:45.000Z</time>
      </trkpt>
      <trkpt lat="43.753330" lon="5.156493">
        <ele>157.938997</ele>
        <time>2017-06-08T08:47:48.000Z</time>
      </trkpt>
      <trkpt lat="43.753254" lon="5.156610">
        <ele>158.034467</ele>
        <time>2017-06-08T08:47:50.000Z</time>
      </trkpt>
      <trkpt lat="43.753190" lon="5.156743">
        <ele>158.131430</ele>
        <time>2017-06-08T08:47:52.000Z</time>
      </trkpt>
      <trkpt lat="43.753155" lon="5.156888">
        <ele>158.224189</ele>
        <time>2017-06-08T08:47:54.000Z</time>
      </trkpt>
      <trkpt lat="43.753130" lon="5.157025">
        <ele>158.309923</ele>
        <time>2017-06-08T08:47:56.000Z</time>
      </trkpt>
      <trkpt lat="43.753143" lon="5.157148">
        <ele>158.385346</ele>
        <time>2017-06-08T08:47:58.000Z</time>
      </trkpt>
      <trkpt lat="43.753212" lon="5.157233">
        <ele>158.462928</ele>
        <time>2017-06-08T08:48:00.000Z</time>
      </trkpt>
      <trkpt lat="43.753290" lon="5.157323">
        <ele>158.548218</ele>
        <time>2017-06-08T08:48:03.000Z</time>
      </trkpt>
      <trkpt lat="43.753277" lon="5.157482">
        <ele>158.633739</ele>
        <time>2017-06-08T08:48:06.000Z</time>
      </trkpt>
      <trkpt lat="43.753227" lon="5.157641">
        <ele>158.702484</ele>
        <time>2017-06-08T08:48:09.000Z</time>
      </trkpt>
      <trkpt lat="43.753166" lon="5.157789">
        <ele>158.770035</ele>
        <time>2017-06-08T08:48:12.000Z</time>
      </trkpt>
      <trkpt lat="43.753113" lon="5.157930">
        <ele>158.833046</ele>
        <time>2017-06-08T08:48:15.000Z</time>
      </trkpt>
      <trkpt lat="43.753036" lon="5.158086">
        <ele>158.907948</ele>
        <time>2017-06-08T08:48:18.000Z</time>
      </trkpt>
      <trkpt lat="43.752980" lon="5.158218">
        <ele>158.968634</ele>
        <time>2017-06-08T08:48:20.000Z</time>
      </trkpt>
      <trkpt lat="43.752953" lon="5.158405">
        <ele>159.044232</ele>
        <time>2017-06-08T08:48:22.000Z</time>
      </trkpt>
      <trkpt lat="43.752930" lon="5.158549">
        <ele>159.102696</ele>
        <time>2017-06-08T08:48:24.000Z</time>
      </trkpt>
      <trkpt lat="43.752888" lon="5.158683">
        <ele>159.160603</ele>
        <time>2017-06-08T08:48:26.000Z</time>
      </trkpt>
      <trkpt lat="43.752857" lon="5.158832">
        <ele>159.222072</ele>
        <time>2017-06-08T08:48:28.000Z</time>
      </trkpt>
      <trkpt lat="43.752815" lon="5.158971">
        <ele>159.281802</ele>
        <time>2017-06-08T08:48:30.000Z</time>
      </trkpt>
      <trkpt lat="43.752773" lon="5.159104">
        <ele>159.339345</ele>
        <time>2017-06-08T08:48:32.000Z</time>
      </trkpt>
      <trkpt lat="43.752728" lon="5.159245">
        <ele>159.400455</ele>
        <time>2017-06-08T08:48:34.000Z</time>
      </trkpt>
      <trkpt lat="43.752686" lon="5.159366">
        <ele>159.453673</ele>
        <time>2017-06-08T08:48:36.000Z</time>
      </trkpt>
      <trkpt lat="43.752640" lon="5.159478">
        <ele>159.504749</ele>
        <time>2017-06-08T08:48:38.000Z</time>
      </trkpt>
      <trkpt lat="43.752600" lon="5.159594">
        <ele>159.555706</ele>
        <time>2017-06-08T08:48:40.000Z</time>
      </trkpt>
      <trkpt lat="43.752570" lon="5.159728">
        <ele>159.589175</ele>
        <time>2017-06-08T08:48:42.000Z</time>
      </trkpt>
      <trkpt lat="43.752530" lon="5.159873">
        <ele>159.539533</ele>
        <time>2017-06-08T08:48:44.000Z</time>
      </trkpt>
      <trkpt lat="43.752506" lon="5.160020">
        <ele>159.491333</ele>
        <time>2017-06-08T08:48:46.000Z</time>
      </trkpt>
      <trkpt lat="43.752464" lon="5.160147">
        <ele>159.446660</ele>
        <time>2017-06-08T08:48:48.000Z</time>
      </trkpt>
      <trkpt lat="43.752420" lon="5.160273">
        <ele>159.401899</ele>
        <time>2017-06-08T08:48:50.000Z</time>
      </trkpt>
      <trkpt lat="43.752370" lon="5.160397">
        <ele>159.356480</ele>
        <time>2017-06-08T08:48:52.000Z</time>
      </trkpt>
      <trkpt lat="43.752316" lon="5.160523">
        <ele>159.309622</ele>
        <time>2017-06-08T08:48:54.000Z</time>
      </trkpt>
      <trkpt lat="43.752274" lon="5.160660">
        <ele>159.262022</ele>
        <time>2017-06-08T08:48:56.000Z</time>
      </trkpt>
      <trkpt lat="43.752250" lon="5.160821">
        <ele>159.209445</ele>
        <time>2017-06-08T08:48:58.000Z</time>
      </trkpt>
      <trkpt lat="43.752213" lon="5.160957">
        <ele>159.162965</ele>
        <time>2017-06-08T08:49:00.000Z</time>
      </trkpt>
      <trkpt lat="43.752170" lon="5.161089">
        <ele>159.116653</ele>
        <time>2017-06-08T08:49:02.000Z</time>
      </trkpt>
      <trkpt lat="43.752125" lon="5.161230">
        <ele>159.067351</ele>
        <time>2017-06-08T08:49:04.000Z</time>
      </trkpt>
      <trkpt lat="43.752080" lon="5.161377">
        <ele>159.016288</ele>
        <time>2017-06-08T08:49:06.000Z</time>
      </trkpt>
      <trkpt lat="43.752037" lon="5.161506">
        <ele>158.970849</ele>
        <time>2017-06-08T08:49:08.000Z</time>
      </trkpt>
      <trkpt lat="43.751995" lon="5.161636">
        <ele>158.925302</ele>
        <time>2017-06-08T08:49:10.000Z</time>
      </trkpt>
      <trkpt lat="43.751960" lon="5.161762">
        <ele>158.882126</ele>
        <time>2017-06-08T08:49:12.000Z</time>
      </trkpt>
      <trkpt lat="43.751920" lon="5.161935">
        <ele>158.824030</ele>
        <time>2017-06-08T08:49:15.000Z</time>
      </trkpt>
      <trkpt lat="43.751860" lon="5.162098">
        <ele>158.815031</ele>
        <time>2017-06-08T08:49:18.000Z</time>
      </trkpt>
      <trkpt lat="43.751823" lon="5.162214">
        <ele>158.828515</ele>
        <time>2017-06-08T08:49:20.000Z</time>
      </trkpt>
      <trkpt lat="43.751793" lon="5.162335">
        <ele>158.842119</ele>
        <time>2017-06-08T08:49:22.000Z</time>
      </trkpt>
      <trkpt lat="43.751743" lon="5.162458">
        <ele>158.857127</ele>
        <time>2017-06-08T08:49:24.000Z</time>
      </trkpt>
      <trkpt lat="43.751698" lon="5.162589">
        <ele>158.872552</ele>
        <time>2017-06-08T08:49:26.000Z</time>
      </trkpt>
      <trkpt lat="43.751667" lon="5.162705">
        <ele>158.885705</ele>
        <time>2017-06-08T08:49:28.000Z</time>
      </trkpt>
      <trkpt lat="43.751633" lon="5.162826">
        <ele>158.899511</ele>
        <time>2017-06-08T08:49:30.000Z</time>
      </trkpt>
      <trkpt lat="43.751590" lon="5.162962">
        <ele>158.915298</ele>
        <time>2017-06-08T08:49:32.000Z</time>
      </trkpt>
      <trkpt lat="43.751550" lon="5.163096">
        <ele>158.930716</ele>
        <time>2017-06-08T08:49:34.000Z</time>
      </trkpt>
      <trkpt lat="43.751514" lon="5.163232">
        <ele>158.946118</ele>
        <time>2017-06-08T08:49:36.000Z</time>
      </trkpt>
      <trkpt lat="43.751465" lon="5.163353">
        <ele>158.960869</ele>
        <time>2017-06-08T08:49:38.000Z</time>
      </trkpt>
      <trkpt lat="43.751420" lon="5.163469">
        <ele>158.974871</ele>
        <time>2017-06-08T08:49:40.000Z</time>
      </trkpt>
      <trkpt lat="43.751385" lon="5.163590">
        <ele>158.988731</ele>
        <time>2017-06-08T08:49:42.000Z</time>
      </trkpt>
      <trkpt lat="43.751343" lon="5.163743">
        <ele>159.006136</ele>
        <time>2017-06-08T08:49:45.000Z</time>
      </trkpt>
      <trkpt lat="43.751320" lon="5.163878">
        <ele>159.020886</ele>
        <time>2017-06-08T08:49:47.000Z</time>
      </trkpt>
      <trkpt lat="43.751280" lon="5.164007">
        <ele>159.035814</ele>
        <time>2017-06-08T08:49:49.000Z</time>
      </trkpt>
      <trkpt lat="43.751230" lon="5.164153">
        <ele>159.052996</ele>
        <time>2017-06-08T08:49:51.000Z</time>
      </trkpt>
      <trkpt lat="43.751186" lon="5.164303">
        <ele>159.073623</ele>
        <time>2017-06-08T08:49:53.000Z</time>
      </trkpt>
      <trkpt lat="43.751144" lon="5.164443">
        <ele>159.109725</ele>
        <time>2017-06-08T08:49:55.000Z</time>
      </trkpt>
      <trkpt lat="43.751095" lon="5.164589">
        <ele>159.148065</ele>
        <time>2017-06-08T08:49:57.000Z</time>
      </trkpt>
      <trkpt lat="43.751045" lon="5.164738">
        <ele>159.187192</ele>
        <time>2017-06-08T08:49:59.000Z</time>
      </trkpt>
      <trkpt lat="43.751007" lon="5.164873">
        <ele>159.221698</ele>
        <time>2017-06-08T08:50:01.000Z</time>
      </trkpt>
      <trkpt lat="43.750965" lon="5.165011">
        <ele>159.257361</ele>
        <time>2017-06-08T08:50:03.000Z</time>
      </trkpt>
      <trkpt lat="43.750927" lon="5.165135">
        <ele>159.289439</ele>
        <time>2017-06-08T08:50:05.000Z</time>
      </trkpt>
      <trkpt lat="43.750890" lon="5.165271">
        <ele>159.324049</ele>
        <time>2017-06-08T08:50:07.000Z</time>
      </trkpt>
      <trkpt lat="43.750847" lon="5.165403">
        <ele>159.358534</ele>
        <time>2017-06-08T08:50:09.000Z</time>
      </trkpt>
      <trkpt lat="43.750797" lon="5.165523">
        <ele>159.391526</ele>
        <time>2017-06-08T08:50:11.000Z</time>
      </trkpt>
      <trkpt lat="43.750755" lon="5.165664">
        <ele>159.427849</ele>
        <time>2017-06-08T08:50:13.000Z</time>
      </trkpt>
      <trkpt lat="43.750710" lon="5.165786">
        <ele>159.460472</ele>
        <time>2017-06-08T08:50:15.000Z</time>
      </trkpt>
      <trkpt lat="43.750664" lon="5.165905">
        <ele>159.492615</ele>
        <time>2017-06-08T08:50:17.000Z</time>
      </trkpt>
      <trkpt lat="43.750626" lon="5.166035">
        <ele>159.526014</ele>
        <time>2017-06-08T08:50:19.000Z</time>
      </trkpt>
      <trkpt lat="43.750580" lon="5.166199">
        <ele>159.567912</ele>
        <time>2017-06-08T08:50:22.000Z</time>
      </trkpt>
      <trkpt lat="43.750550" lon="5.166368">
        <ele>159.609358</ele>
        <time>2017-06-08T08:50:25.000Z</time>
      </trkpt>
      <trkpt lat="43.750510" lon="5.166525">
        <ele>159.649006</ele>
        <time>2017-06-08T08:50:28.000Z</time>
      </trkpt>
      <trkpt lat="43.750470" lon="5.166662">
        <ele>159.688061</ele>
        <time>2017-06-08T08:50:30.000Z</time>
      </trkpt>
      <trkpt lat="43.750412" lon="5.166783">
        <ele>159.728272</ele>
        <time>2017-06-08T08:50:32.000Z</time>
      </trkpt>
      <trkpt lat="43.750374" lon="5.166916">
        <ele>159.767876</ele>
        <time>2017-06-08T08:50:34.000Z</time>
      </trkpt>
      <trkpt lat="43.750324" lon="5.167066">
        <ele>159.813621</ele>
        <time>2017-06-08T08:50:36.000Z</time>
      </trkpt>
      <trkpt lat="43.750290" lon="5.167198">
        <ele>159.852427</ele>
        <time>2017-06-08T08:50:38.000Z</time>
      </trkpt>
      <trkpt lat="43.750248" lon="5.167320">
        <ele>159.889850</ele>
        <time>2017-06-08T08:50:40.000Z</time>
      </trkpt>
      <trkpt lat="43.750210" lon="5.167445">
        <ele>159.927404</ele>
        <time>2017-06-08T08:50:42.000Z</time>
      </trkpt>
      <trkpt lat="43.750175" lon="5.167577">
        <ele>159.966340</ele>
        <time>2017-06-08T08:50:44.000Z</time>
      </trkpt>
      <trkpt lat="43.750145" lon="5.167698">
        <ele>160.001764</ele>
        <time>2017-06-08T08:50:46.000Z</time>
      </trkpt>
      <trkpt lat="43.750110" lon="5.167832">
        <ele>160.041221</ele>
        <time>2017-06-08T08:50:48.000Z</time>
      </trkpt>
      <trkpt lat="43.750065" lon="5.167960">
        <ele>160.080640</ele>
        <time>2017-06-08T08:50:50.000Z</time>
      </trkpt>
      <trkpt lat="43.750023" lon="5.168085">
        <ele>160.118814</ele>
        <time>2017-06-08T08:50:52.000Z</time>
      </trkpt>
      <trkpt lat="43.749990" lon="5.168212">
        <ele>160.156188</ele>
        <time>2017-06-08T08:50:54.000Z</time>
      </trkpt>
      <trkpt lat="43.749947" lon="5.168335">
        <ele>160.194026</ele>
        <time>2017-06-08T08:50:56.000Z</time>
      </trkpt>
      <trkpt lat="43.749912" lon="5.168464">
        <ele>160.232184</ele>
        <time>2017-06-08T08:50:58.000Z</time>
      </trkpt>
      <trkpt lat="43.749866" lon="5.168593">
        <ele>160.272020</ele>
        <time>2017-06-08T08:51:00.000Z</time>
      </trkpt>
      <trkpt lat="43.749832" lon="5.168717">
        <ele>160.308747</ele>
        <time>2017-06-08T08:51:02.000Z</time>
      </trkpt>
      <trkpt lat="43.749794" lon="5.168837">
        <ele>160.345029</ele>
        <time>2017-06-08T08:51:04.000Z</time>
      </trkpt>
      <trkpt lat="43.749744" lon="5.168999">
        <ele>160.380384</ele>
        <time>2017-06-08T08:51:07.000Z</time>
      </trkpt>
      <trkpt lat="43.749702" lon="5.169116">
        <ele>160.405490</ele>
        <time>2017-06-08T08:51:09.000Z</time>
      </trkpt>
      <trkpt lat="43.749670" lon="5.169249">
        <ele>160.432428</ele>
        <time>2017-06-08T08:51:11.000Z</time>
      </trkpt>
      <trkpt lat="43.749645" lon="5.169376">
        <ele>160.457722</ele>
        <time>2017-06-08T08:51:13.000Z</time>
      </trkpt>
      <trkpt lat="43.749622" lon="5.169561">
        <ele>160.493794</ele>
        <time>2017-06-08T08:51:16.000Z</time>
      </trkpt>
      <trkpt lat="43.749626" lon="5.169690">
        <ele>160.518606</ele>
        <time>2017-06-08T08:51:18.000Z</time>
      </trkpt>
      <trkpt lat="43.749626" lon="5.169819">
        <ele>160.543394</ele>
        <time>2017-06-08T08:51:20.000Z</time>
      </trkpt>
      <trkpt lat="43.749622" lon="5.169949">
        <ele>160.568398</ele>
        <time>2017-06-08T08:51:22.000Z</time>
      </trkpt>
      <trkpt lat="43.749588" lon="5.170078">
        <ele>160.594785</ele>
        <time>2017-06-08T08:51:24.000Z</time>
      </trkpt>
      <trkpt lat="43.749550" lon="5.170210">
        <ele>160.622090</ele>
        <time>2017-06-08T08:51:26.000Z</time>
      </trkpt>
      <trkpt lat="43.749523" lon="5.170336">
        <ele>160.647345</ele>
        <time>2017-06-08T08:51:28.000Z</time>
      </trkpt>
      <trkpt lat="43.749496" lon="5.170465">
        <ele>160.673153</ele>
        <time>2017-06-08T08:51:30.000Z</time>
      </trkpt>
      <trkpt lat="43.749470" lon="5.170600">
        <ele>160.700001</ele>
        <time>2017-06-08T08:51:32.000Z</time>
      </trkpt>
      <trkpt lat="43.749454" lon="5.170734">
        <ele>160.726100</ele>
        <time>2017-06-08T08:51:34.000Z</time>
      </trkpt>
      <trkpt lat="43.749435" lon="5.170865">
        <ele>160.751776</ele>
        <time>2017-06-08T08:51:36.000Z</time>
      </trkpt>
      <trkpt lat="43.749416" lon="5.171007">
        <ele>160.779527</ele>
        <time>2017-06-08T08:51:38.000Z</time>
      </trkpt>
      <trkpt lat="43.749405" lon="5.171140">
        <ele>160.805251</ele>
        <time>2017-06-08T08:51:40.000Z</time>
      </trkpt>
      <trkpt lat="43.749382" lon="5.171273">
        <ele>160.826858</ele>
        <time>2017-06-08T08:51:42.000Z</time>
      </trkpt>
      <trkpt lat="43.749370" lon="5.171411">
        <ele>160.813651</ele>
        <time>2017-06-08T08:51:44.000Z</time>
      </trkpt>
      <trkpt lat="43.749348" lon="5.171546">
        <ele>160.800502</ele>
        <time>2017-06-08T08:51:46.000Z</time>
      </trkpt>
      <trkpt lat="43.749317" lon="5.171667">
        <ele>160.788304</ele>
        <time>2017-06-08T08:51:48.000Z</time>
      </trkpt>
      <trkpt lat="43.749260" lon="5.171798">
        <ele>160.773773</ele>
        <time>2017-06-08T08:51:51.000Z</time>
      </trkpt>
      <trkpt lat="43.749176" lon="5.171905">
        <ele>160.758759</ele>
        <time>2017-06-08T08:51:54.000Z</time>
      </trkpt>
      <trkpt lat="43.749092" lon="5.172041">
        <ele>160.741758</ele>
        <time>2017-06-08T08:51:57.000Z</time>
      </trkpt>
      <trkpt lat="43.749012" lon="5.172176">
        <ele>160.725167</ele>
        <time>2017-06-08T08:52:00.000Z</time>
      </trkpt>
      <trkpt lat="43.748930" lon="5.172318">
        <ele>160.707894</ele>
        <time>2017-06-08T08:52:03.000Z</time>
      </trkpt>
      <trkpt lat="43.748875" lon="5.172421">
        <ele>160.695724</ele>
        <time>2017-06-08T08:52:05.000Z</time>
      </trkpt>
      <trkpt lat="43.748820" lon="5.172524">
        <ele>160.683554</ele>
        <time>2017-06-08T08:52:07.000Z</time>
      </trkpt>
      <trkpt lat="43.748750" lon="5.172667">
        <ele>160.667141</ele>
        <time>2017-06-08T08:52:10.000Z</time>
      </trkpt>
      <trkpt lat="43.748672" lon="5.172772">
        <ele>160.652830</ele>
        <time>2017-06-08T08:52:13.000Z</time>
      </trkpt>
      <trkpt lat="43.748610" lon="5.172879">
        <ele>160.639797</ele>
        <time>2017-06-08T08:52:16.000Z</time>
      </trkpt>
      <trkpt lat="43.748547" lon="5.172981">
        <ele>160.627046</ele>
        <time>2017-06-08T08:52:19.000Z</time>
      </trkpt>
      <trkpt lat="43.748497" lon="5.173089">
        <ele>160.614858</ele>
        <time>2017-06-08T08:52:22.000Z</time>
      </trkpt>
      <trkpt lat="43.748447" lon="5.173194">
        <ele>160.602909</ele>
        <time>2017-06-08T08:52:25.000Z</time>
      </trkpt>
      <trkpt lat="43.748400" lon="5.173307">
        <ele>160.598259</ele>
        <time>2017-06-08T08:52:29.000Z</time>
      </trkpt>
      <trkpt lat="43.748350" lon="5.173462">
        <ele>160.677569</ele>
        <time>2017-06-08T08:52:33.000Z</time>
      </trkpt>
      <trkpt lat="43.748310" lon="5.173597">
        <ele>160.745742</ele>
        <time>2017-06-08T08:52:36.000Z</time>
      </trkpt>
      <trkpt lat="43.748264" lon="5.173716">
        <ele>160.808800</ele>
        <time>2017-06-08T08:52:38.000Z</time>
      </trkpt>
      <trkpt lat="43.748220" lon="5.173838">
        <ele>160.872509</ele>
        <time>2017-06-08T08:52:40.000Z</time>
      </trkpt>
      <trkpt lat="43.748180" lon="5.173954">
        <ele>160.932564</ele>
        <time>2017-06-08T08:52:42.000Z</time>
      </trkpt>
      <trkpt lat="43.748142" lon="5.174078">
        <ele>160.995496</ele>
        <time>2017-06-08T08:52:44.000Z</time>
      </trkpt>
      <trkpt lat="43.748108" lon="5.174200">
        <ele>161.056591</ele>
        <time>2017-06-08T08:52:46.000Z</time>
      </trkpt>
      <trkpt lat="43.748070" lon="5.174330">
        <ele>161.122113</ele>
        <time>2017-06-08T08:52:48.000Z</time>
      </trkpt>
      <trkpt lat="43.748028" lon="5.174470">
        <ele>161.192939</ele>
        <time>2017-06-08T08:52:50.000Z</time>
      </trkpt>
      <trkpt lat="43.747997" lon="5.174604">
        <ele>161.258678</ele>
        <time>2017-06-08T08:52:52.000Z</time>
      </trkpt>
      <trkpt lat="43.747955" lon="5.174728">
        <ele>161.322665</ele>
        <time>2017-06-08T08:52:54.000Z</time>
      </trkpt>
      <trkpt lat="43.747910" lon="5.174869">
        <ele>161.394686</ele>
        <time>2017-06-08T08:52:56.000Z</time>
      </trkpt>
      <trkpt lat="43.747868" lon="5.175005">
        <ele>161.463790</ele>
        <time>2017-06-08T08:52:58.000Z</time>
      </trkpt>
      <trkpt lat="43.747830" lon="5.175143">
        <ele>161.532791</ele>
        <time>2017-06-08T08:53:00.000Z</time>
      </trkpt>
      <trkpt lat="43.747787" lon="5.175275">
        <ele>161.600444</ele>
        <time>2017-06-08T08:53:02.000Z</time>
      </trkpt>
      <trkpt lat="43.747738" lon="5.175415">
        <ele>161.673128</ele>
        <time>2017-06-08T08:53:04.000Z</time>
      </trkpt>
      <trkpt lat="43.747700" lon="5.175562">
        <ele>161.746074</ele>
        <time>2017-06-08T08:53:06.000Z</time>
      </trkpt>
      <trkpt lat="43.747660" lon="5.175694">
        <ele>161.768288</ele>
        <time>2017-06-08T08:53:08.000Z</time>
      </trkpt>
      <trkpt lat="43.747620" lon="5.175834">
        <ele>161.784297</ele>
        <time>2017-06-08T08:53:10.000Z</time>
      </trkpt>
      <trkpt lat="43.747574" lon="5.175979">
        <ele>161.801136</ele>
        <time>2017-06-08T08:53:12.000Z</time>
      </trkpt>
      <trkpt lat="43.747528" lon="5.176120">
        <ele>161.817588</ele>
        <time>2017-06-08T08:53:14.000Z</time>
      </trkpt>
      <trkpt lat="43.747486" lon="5.176256">
        <ele>161.833315</ele>
        <time>2017-06-08T08:53:16.000Z</time>
      </trkpt>
      <trkpt lat="43.747456" lon="5.176384">
        <ele>161.847624</ele>
        <time>2017-06-08T08:53:18.000Z</time>
      </trkpt>
      <trkpt lat="43.747437" lon="5.176537">
        <ele>161.864132</ele>
        <time>2017-06-08T08:53:20.000Z</time>
      </trkpt>
      <trkpt lat="43.747433" lon="5.176674">
        <ele>161.878711</ele>
        <time>2017-06-08T08:53:22.000Z</time>
      </trkpt>
      <trkpt lat="43.747450" lon="5.176815">
        <ele>161.893912</ele>
        <time>2017-06-08T08:53:24.000Z</time>
      </trkpt>
      <trkpt lat="43.747482" lon="5.176950">
        <ele>161.909020</ele>
        <time>2017-06-08T08:53:26.000Z</time>
      </trkpt>
      <trkpt lat="43.747513" lon="5.177087">
        <ele>161.924286</ele>
        <time>2017-06-08T08:53:28.000Z</time>
      </trkpt>
      <trkpt lat="43.747555" lon="5.177218">
        <ele>161.939526</ele>
        <time>2017-06-08T08:53:30.000Z</time>
      </trkpt>
      <trkpt lat="43.747610" lon="5.177417">
        <ele>161.962182</ele>
        <time>2017-06-08T08:53:34.000Z</time>
      </trkpt>
      <trkpt lat="43.747643" lon="5.177558">
        <ele>161.977942</ele>
        <time>2017-06-08T08:53:35.000Z</time>
      </trkpt>
      <trkpt lat="43.747680" lon="5.177697">
        <ele>161.993694</ele>
        <time>2017-06-08T08:53:37.000Z</time>
      </trkpt>
      <trkpt lat="43.747696" lon="5.177841">
        <ele>162.009186</ele>
        <time>2017-06-08T08:53:39.000Z</time>
      </trkpt>
      <trkpt lat="43.747692" lon="5.177988">
        <ele>162.073344</ele>
        <time>2017-06-08T08:53:41.000Z</time>
      </trkpt>
      <trkpt lat="43.747673" lon="5.178129">
        <ele>162.238176</ele>
        <time>2017-06-08T08:53:43.000Z</time>
      </trkpt>
      <trkpt lat="43.747650" lon="5.178265">
        <ele>162.398694</ele>
        <time>2017-06-08T08:53:45.000Z</time>
      </trkpt>
      <trkpt lat="43.747627" lon="5.178410">
        <ele>162.569298</ele>
        <time>2017-06-08T08:53:47.000Z</time>
      </trkpt>
      <trkpt lat="43.747604" lon="5.178566">
        <ele>162.752269</ele>
        <time>2017-06-08T08:53:49.000Z</time>
      </trkpt>
      <trkpt lat="43.747578" lon="5.178717">
        <ele>162.930660</ele>
        <time>2017-06-08T08:53:51.000Z</time>
      </trkpt>
      <trkpt lat="43.747555" lon="5.178872">
        <ele>163.112506</ele>
        <time>2017-06-08T08:53:53.000Z</time>
      </trkpt>
      <trkpt lat="43.747530" lon="5.179035">
        <ele>163.304002</ele>
        <time>2017-06-08T08:53:55.000Z</time>
      </trkpt>
      <trkpt lat="43.747513" lon="5.179190">
        <ele>163.484170</ele>
        <time>2017-06-08T08:53:57.000Z</time>
      </trkpt>
      <trkpt lat="43.747486" lon="5.179353">
        <ele>163.676352</ele>
        <time>2017-06-08T08:53:59.000Z</time>
      </trkpt>
      <trkpt lat="43.747460" lon="5.179517">
        <ele>163.869307</ele>
        <time>2017-06-08T08:54:01.000Z</time>
      </trkpt>
      <trkpt lat="43.747433" lon="5.179678">
        <ele>164.059249</ele>
        <time>2017-06-08T08:54:03.000Z</time>
      </trkpt>
      <trkpt lat="43.747414" lon="5.179844">
        <ele>164.252397</ele>
        <time>2017-06-08T08:54:05.000Z</time>
      </trkpt>
      <trkpt lat="43.747380" lon="5.180002">
        <ele>164.441857</ele>
        <time>2017-06-08T08:54:07.000Z</time>
      </trkpt>
      <trkpt lat="43.747356" lon="5.180145">
        <ele>164.610570</ele>
        <time>2017-06-08T08:54:09.000Z</time>
      </trkpt>
      <trkpt lat="43.747334" lon="5.180283">
        <ele>164.772977</ele>
        <time>2017-06-08T08:54:11.000Z</time>
      </trkpt>
      <trkpt lat="43.747295" lon="5.180441">
        <ele>164.922630</ele>
        <time>2017-06-08T08:54:14.000Z</time>
      </trkpt>
      <trkpt lat="43.747253" lon="5.180561">
        <ele>164.998505</ele>
        <time>2017-06-08T08:54:18.000Z</time>
      </trkpt>
      <trkpt lat="43.747227" lon="5.180680">
        <ele>165.069247</ele>
        <time>2017-06-08T08:54:22.000Z</time>
      </trkpt>
      <trkpt lat="43.747250" lon="5.180845">
        <ele>165.164867</ele>
        <time>2017-06-08T08:54:26.000Z</time>
      </trkpt>
      <trkpt lat="43.747242" lon="5.180996">
        <ele>165.251020</ele>
        <time>2017-06-08T08:54:29.000Z</time>
      </trkpt>
      <trkpt lat="43.747210" lon="5.181178">
        <ele>165.357604</ele>
        <time>2017-06-08T08:54:32.000Z</time>
      </trkpt>
      <trkpt lat="43.747192" lon="5.181320">
        <ele>165.439640</ele>
        <time>2017-06-08T08:54:34.000Z</time>
      </trkpt>
      <trkpt lat="43.747177" lon="5.181465">
        <ele>165.522989</ele>
        <time>2017-06-08T08:54:36.000Z</time>
      </trkpt>
      <trkpt lat="43.747166" lon="5.181604">
        <ele>165.602556</ele>
        <time>2017-06-08T08:54:38.000Z</time>
      </trkpt>
      <trkpt lat="43.747150" lon="5.181728">
        <ele>165.674231</ele>
        <time>2017-06-08T08:54:40.000Z</time>
      </trkpt>
      <trkpt lat="43.747166" lon="5.181891">
        <ele>165.767833</ele>
        <time>2017-06-08T08:54:43.000Z</time>
      </trkpt>
      <trkpt lat="43.747208" lon="5.182029">
        <ele>165.853042</ele>
        <time>2017-06-08T08:54:46.000Z</time>
      </trkpt>
      <trkpt lat="43.747240" lon="5.182168">
        <ele>165.936055</ele>
        <time>2017-06-08T08:54:49.000Z</time>
      </trkpt>
      <trkpt lat="43.747208" lon="5.182015">
        <ele>166.026691</ele>
        <time>2017-06-08T08:55:34.000Z</time>
      </trkpt>
      <trkpt lat="43.747196" lon="5.181862">
        <ele>166.114262</ele>
        <time>2017-06-08T08:55:37.000Z</time>
      </trkpt>
      <trkpt lat="43.747180" lon="5.181689">
        <ele>166.213506</ele>
        <time>2017-06-08T08:55:40.000Z</time>
      </trkpt>
      <trkpt lat="43.747177" lon="5.181508">
        <ele>166.294593</ele>
        <time>2017-06-08T08:55:43.000Z</time>
      </trkpt>
      <trkpt lat="43.747180" lon="5.181371">
        <ele>166.280389</ele>
        <time>2017-06-08T08:55:45.000Z</time>
      </trkpt>
      <trkpt lat="43.747190" lon="5.181246">
        <ele>166.267357</ele>
        <time>2017-06-08T08:55:47.000Z</time>
      </trkpt>
      <trkpt lat="43.747210" lon="5.181068">
        <ele>166.248689</ele>
        <time>2017-06-08T08:55:50.000Z</time>
      </trkpt>
      <trkpt lat="43.747227" lon="5.180908">
        <ele>166.231930</ele>
        <time>2017-06-08T08:55:53.000Z</time>
      </trkpt>
      <trkpt lat="43.747240" lon="5.180752">
        <ele>166.215657</ele>
        <time>2017-06-08T08:55:57.000Z</time>
      </trkpt>
      <trkpt lat="43.747200" lon="5.180605">
        <ele>166.199379</ele>
        <time>2017-06-08T08:56:02.000Z</time>
      </trkpt>
      <trkpt lat="43.747147" lon="5.180500">
        <ele>166.186105</ele>
        <time>2017-06-08T08:56:05.000Z</time>
      </trkpt>
      <trkpt lat="43.747032" lon="5.180366">
        <ele>166.164542</ele>
        <time>2017-06-08T08:56:09.000Z</time>
      </trkpt>
      <trkpt lat="43.746952" lon="5.180308">
        <ele>166.151587</ele>
        <time>2017-06-08T08:56:11.000Z</time>
      </trkpt>
      <trkpt lat="43.746834" lon="5.180224">
        <ele>166.132553</ele>
        <time>2017-06-08T08:56:14.000Z</time>
      </trkpt>
      <trkpt lat="43.746758" lon="5.180160">
        <ele>166.119792</ele>
        <time>2017-06-08T08:56:16.000Z</time>
      </trkpt>
      <trkpt lat="43.746670" lon="5.180095">
        <ele>166.105484</ele>
        <time>2017-06-08T08:56:18.000Z</time>
      </trkpt>
      <trkpt lat="43.746582" lon="5.180026">
        <ele>166.090976</ele>
        <time>2017-06-08T08:56:20.000Z</time>
      </trkpt>
      <trkpt lat="43.746494" lon="5.179959">
        <ele>166.076569</ele>
        <time>2017-06-08T08:56:22.000Z</time>
      </trkpt>
      <trkpt lat="43.746380" lon="5.179882">
        <ele>166.058373</ele>
        <time>2017-06-08T08:56:25.000Z</time>
      </trkpt>
      <trkpt lat="43.746260" lon="5.179808">
        <ele>166.040199</ele>
        <time>2017-06-08T08:56:28.000Z</time>
      </trkpt>
      <trkpt lat="43.746155" lon="5.179731">
        <ele>166.049805</ele>
        <time>2017-06-08T08:56:31.000Z</time>
      </trkpt>
      <trkpt lat="43.746075" lon="5.179667">
        <ele>166.057276</ele>
        <time>2017-06-08T08:56:33.000Z</time>
      </trkpt>
      <trkpt lat="43.745987" lon="5.179596">
        <ele>166.065510</ele>
        <time>2017-06-08T08:56:35.000Z</time>
      </trkpt>
      <trkpt lat="43.745907" lon="5.179530">
        <ele>166.073040</ele>
        <time>2017-06-08T08:56:37.000Z</time>
      </trkpt>
      <trkpt lat="43.745827" lon="5.179458">
        <ele>166.080754</ele>
        <time>2017-06-08T08:56:39.000Z</time>
      </trkpt>
      <trkpt lat="43.745705" lon="5.179379">
        <ele>166.091643</ele>
        <time>2017-06-08T08:56:42.000Z</time>
      </trkpt>
      <trkpt lat="43.745620" lon="5.179322">
        <ele>166.099279</ele>
        <time>2017-06-08T08:56:44.000Z</time>
      </trkpt>
      <trkpt lat="43.745530" lon="5.179260">
        <ele>166.107407</ele>
        <time>2017-06-08T08:56:46.000Z</time>
      </trkpt>
      <trkpt lat="43.745438" lon="5.179196">
        <ele>166.115731</ele>
        <time>2017-06-08T08:56:48.000Z</time>
      </trkpt>
      <trkpt lat="43.745346" lon="5.179127">
        <ele>166.124191</ele>
        <time>2017-06-08T08:56:50.000Z</time>
      </trkpt>
      <trkpt lat="43.745262" lon="5.179059">
        <ele>166.132058</ele>
        <time>2017-06-08T08:56:52.000Z</time>
      </trkpt>
      <trkpt lat="43.745180" lon="5.178986">
        <ele>166.139940</ele>
        <time>2017-06-08T08:56:54.000Z</time>
      </trkpt>
      <trkpt lat="43.745087" lon="5.178914">
        <ele>166.148555</ele>
        <time>2017-06-08T08:56:56.000Z</time>
      </trkpt>
      <trkpt lat="43.745000" lon="5.178842">
        <ele>166.156750</ele>
        <time>2017-06-08T08:56:58.000Z</time>
      </trkpt>
      <trkpt lat="43.744907" lon="5.178764">
        <ele>166.165541</ele>
        <time>2017-06-08T08:57:00.000Z</time>
      </trkpt>
      <trkpt lat="43.744812" lon="5.178698">
        <ele>166.174134</ele>
        <time>2017-06-08T08:57:02.000Z</time>
      </trkpt>
      <trkpt lat="43.744717" lon="5.178627">
        <ele>166.182863</ele>
        <time>2017-06-08T08:57:05.000Z</time>
      </trkpt>
      <trkpt lat="43.744620" lon="5.178556">
        <ele>166.135902</ele>
        <time>2017-06-08T08:57:06.000Z</time>
      </trkpt>
      <trkpt lat="43.744534" lon="5.178488">
        <ele>166.073643</ele>
        <time>2017-06-08T08:57:08.000Z</time>
      </trkpt>
      <trkpt lat="43.744440" lon="5.178415">
        <ele>166.005888</ele>
        <time>2017-06-08T08:57:10.000Z</time>
      </trkpt>
      <trkpt lat="43.744340" lon="5.178339">
        <ele>165.934175</ele>
        <time>2017-06-08T08:57:12.000Z</time>
      </trkpt>
      <trkpt lat="43.744247" lon="5.178273">
        <ele>165.868478</ele>
        <time>2017-06-08T08:57:14.000Z</time>
      </trkpt>
      <trkpt lat="43.744144" lon="5.178196">
        <ele>165.794891</ele>
        <time>2017-06-08T08:57:16.000Z</time>
      </trkpt>
      <trkpt lat="43.744040" lon="5.178119">
        <ele>165.720750</ele>
        <time>2017-06-08T08:57:18.000Z</time>
      </trkpt>
      <trkpt lat="43.743942" lon="5.178041">
        <ele>165.649688</ele>
        <time>2017-06-08T08:57:20.000Z</time>
      </trkpt>
      <trkpt lat="43.743847" lon="5.177970">
        <ele>165.581820</ele>
        <time>2017-06-08T08:57:22.000Z</time>
      </trkpt>
      <trkpt lat="43.743740" lon="5.177892">
        <ele>165.505801</ele>
        <time>2017-06-08T08:57:24.000Z</time>
      </trkpt>
      <trkpt lat="43.743640" lon="5.177817">
        <ele>165.434305</ele>
        <time>2017-06-08T08:57:26.000Z</time>
      </trkpt>
      <trkpt lat="43.743534" lon="5.177739">
        <ele>165.358841</ele>
        <time>2017-06-08T08:57:28.000Z</time>
      </trkpt>
      <trkpt lat="43.743427" lon="5.177667">
        <ele>165.284052</ele>
        <time>2017-06-08T08:57:30.000Z</time>
      </trkpt>
      <trkpt lat="43.743317" lon="5.177595">
        <ele>165.207563</ele>
        <time>2017-06-08T08:57:32.000Z</time>
      </trkpt>
      <trkpt lat="43.743210" lon="5.177519">
        <ele>165.131962</ele>
        <time>2017-06-08T08:57:34.000Z</time>
      </trkpt>
      <trkpt lat="43.743100" lon="5.177448">
        <ele>165.055666</ele>
        <time>2017-06-08T08:57:36.000Z</time>
      </trkpt>
      <trkpt lat="43.742985" lon="5.177380">
        <ele>165.131796</ele>
        <time>2017-06-08T08:57:38.000Z</time>
      </trkpt>
      <trkpt lat="43.742874" lon="5.177305">
        <ele>165.208868</ele>
        <time>2017-06-08T08:57:40.000Z</time>
      </trkpt>
      <trkpt lat="43.742767" lon="5.177229">
        <ele>165.283910</ele>
        <time>2017-06-08T08:57:42.000Z</time>
      </trkpt>
      <trkpt lat="43.742650" lon="5.177149">
        <ele>165.365336</ele>
        <time>2017-06-08T08:57:44.000Z</time>
      </trkpt>
      <trkpt lat="43.742530" lon="5.177068">
        <ele>165.448641</ele>
        <time>2017-06-08T08:57:46.000Z</time>
      </trkpt>
      <trkpt lat="43.742420" lon="5.176995">
        <ele>165.524759</ele>
        <time>2017-06-08T08:57:48.000Z</time>
      </trkpt>
      <trkpt lat="43.742310" lon="5.176916">
        <ele>165.602084</ele>
        <time>2017-06-08T08:57:50.000Z</time>
      </trkpt>
      <trkpt lat="43.742195" lon="5.176841">
        <ele>165.681407</ele>
        <time>2017-06-08T08:57:52.000Z</time>
      </trkpt>
      <trkpt lat="43.742080" lon="5.176767">
        <ele>165.760538</ele>
        <time>2017-06-08T08:57:54.000Z</time>
      </trkpt>
      <trkpt lat="43.741966" lon="5.176683">
        <ele>165.841122</ele>
        <time>2017-06-08T08:57:56.000Z</time>
      </trkpt>
      <trkpt lat="43.741848" lon="5.176617">
        <ele>165.920535</ele>
        <time>2017-06-08T08:57:58.000Z</time>
      </trkpt>
      <trkpt lat="43.741730" lon="5.176546">
        <ele>166.000819</ele>
        <time>2017-06-08T08:58:00.000Z</time>
      </trkpt>
      <trkpt lat="43.741604" lon="5.176464">
        <ele>166.087695</ele>
        <time>2017-06-08T08:58:02.000Z</time>
      </trkpt>
      <trkpt lat="43.741478" lon="5.176393">
        <ele>166.172581</ele>
        <time>2017-06-08T08:58:04.000Z</time>
      </trkpt>
      <trkpt lat="43.741350" lon="5.176325">
        <ele>166.371652</ele>
        <time>2017-06-08T08:58:06.000Z</time>
      </trkpt>
      <trkpt lat="43.741222" lon="5.176255">
        <ele>166.577707</ele>
        <time>2017-06-08T08:58:08.000Z</time>
      </trkpt>
      <trkpt lat="43.741096" lon="5.176185">
        <ele>166.780981</ele>
        <time>2017-06-08T08:58:10.000Z</time>
      </trkpt>
      <trkpt lat="43.740974" lon="5.176125">
        <ele>166.974825</ele>
        <time>2017-06-08T08:58:12.000Z</time>
      </trkpt>
      <trkpt lat="43.740852" lon="5.176053">
        <ele>167.173393</ele>
        <time>2017-06-08T08:58:14.000Z</time>
      </trkpt>
      <trkpt lat="43.740734" lon="5.175982">
        <ele>167.366032</ele>
        <time>2017-06-08T08:58:16.000Z</time>
      </trkpt>
      <trkpt lat="43.740620" lon="5.175914">
        <ele>167.551886</ele>
        <time>2017-06-08T08:58:18.000Z</time>
      </trkpt>
      <trkpt lat="43.740500" lon="5.175836">
        <ele>167.750373</ele>
        <time>2017-06-08T08:58:20.000Z</time>
      </trkpt>
      <trkpt lat="43.740390" lon="5.175769">
        <ele>167.930304</ele>
        <time>2017-06-08T08:58:22.000Z</time>
      </trkpt>
      <trkpt lat="43.740280" lon="5.175702">
        <ele>168.110236</ele>
        <time>2017-06-08T08:58:24.000Z</time>
      </trkpt>
      <trkpt lat="43.740166" lon="5.175627">
        <ele>168.299215</ele>
        <time>2017-06-08T08:58:26.000Z</time>
      </trkpt>
      <trkpt lat="43.740055" lon="5.175563">
        <ele>168.479245</ele>
        <time>2017-06-08T08:58:28.000Z</time>
      </trkpt>
      <trkpt lat="43.739944" lon="5.175496">
        <ele>168.660548</ele>
        <time>2017-06-08T08:58:30.000Z</time>
      </trkpt>
      <trkpt lat="43.739834" lon="5.175436">
        <ele>168.837566</ele>
        <time>2017-06-08T08:58:32.000Z</time>
      </trkpt>
      <trkpt lat="43.739727" lon="5.175360">
        <ele>169.044734</ele>
        <time>2017-06-08T08:58:34.000Z</time>
      </trkpt>
      <trkpt lat="43.739635" lon="5.175290">
        <ele>169.230761</ele>
        <time>2017-06-08T08:58:36.000Z</time>
      </trkpt>
      <trkpt lat="43.739525" lon="5.175219">
        <ele>169.445827</ele>
        <time>2017-06-08T08:58:39.000Z</time>
      </trkpt>
      <trkpt lat="43.739414" lon="5.175126">
        <ele>169.675741</ele>
        <time>2017-06-08T08:58:42.000Z</time>
      </trkpt>
      <trkpt lat="43.739296" lon="5.175047">
        <ele>169.908006</ele>
        <time>2017-06-08T08:58:45.000Z</time>
      </trkpt>
      <trkpt lat="43.739200" lon="5.174991">
        <ele>170.092603</ele>
        <time>2017-06-08T08:58:47.000Z</time>
      </trkpt>
      <trkpt lat="43.739117" lon="5.174923">
        <ele>170.263509</ele>
        <time>2017-06-08T08:58:49.000Z</time>
      </trkpt>
      <trkpt lat="43.739025" lon="5.174856">
        <ele>170.447716</ele>
        <time>2017-06-08T08:58:51.000Z</time>
      </trkpt>
      <trkpt lat="43.738934" lon="5.174796">
        <ele>170.626325</ele>
        <time>2017-06-08T08:58:53.000Z</time>
      </trkpt>
      <trkpt lat="43.738850" lon="5.174738">
        <ele>170.792661</ele>
        <time>2017-06-08T08:58:55.000Z</time>
      </trkpt>
      <trkpt lat="43.738773" lon="5.174673">
        <ele>170.952475</ele>
        <time>2017-06-08T08:58:57.000Z</time>
      </trkpt>
      <trkpt lat="43.738686" lon="5.174601">
        <ele>171.132090</ele>
        <time>2017-06-08T08:58:59.000Z</time>
      </trkpt>
      <trkpt lat="43.738598" lon="5.174533">
        <ele>171.310677</ele>
        <time>2017-06-08T08:59:01.000Z</time>
      </trkpt>
      <trkpt lat="43.738510" lon="5.174464">
        <ele>171.489891</ele>
        <time>2017-06-08T08:59:03.000Z</time>
      </trkpt>
      <trkpt lat="43.738415" lon="5.174393">
        <ele>171.681199</ele>
        <time>2017-06-08T08:59:05.000Z</time>
      </trkpt>
      <trkpt lat="43.738327" lon="5.174326">
        <ele>171.859166</ele>
        <time>2017-06-08T08:59:07.000Z</time>
      </trkpt>
      <trkpt lat="43.738247" lon="5.174265">
        <ele>172.021010</ele>
        <time>2017-06-08T08:59:09.000Z</time>
      </trkpt>
      <trkpt lat="43.738163" lon="5.174208">
        <ele>171.974375</ele>
        <time>2017-06-08T08:59:11.000Z</time>
      </trkpt>
      <trkpt lat="43.738083" lon="5.174152">
        <ele>171.873211</ele>
        <time>2017-06-08T08:59:13.000Z</time>
      </trkpt>
      <trkpt lat="43.737972" lon="5.174061">
        <ele>171.727631</ele>
        <time>2017-06-08T08:59:16.000Z</time>
      </trkpt>
      <trkpt lat="43.737870" lon="5.173980">
        <ele>171.594931</ele>
        <time>2017-06-08T08:59:19.000Z</time>
      </trkpt>
      <trkpt lat="43.737762" lon="5.173900">
        <ele>171.456704</ele>
        <time>2017-06-08T08:59:22.000Z</time>
      </trkpt>
      <trkpt lat="43.737644" lon="5.173809">
        <ele>171.304275</ele>
        <time>2017-06-08T08:59:25.000Z</time>
      </trkpt>
      <trkpt lat="43.737556" lon="5.173741">
        <ele>171.190544</ele>
        <time>2017-06-08T08:59:27.000Z</time>
      </trkpt>
      <trkpt lat="43.737465" lon="5.173672">
        <ele>171.073457</ele>
        <time>2017-06-08T08:59:29.000Z</time>
      </trkpt>
      <trkpt lat="43.737366" lon="5.173601">
        <ele>170.947635</ele>
        <time>2017-06-08T08:59:31.000Z</time>
      </trkpt>
      <trkpt lat="43.737270" lon="5.173525">
        <ele>170.822836</ele>
        <time>2017-06-08T08:59:33.000Z</time>
      </trkpt>
      <trkpt lat="43.737175" lon="5.173452">
        <ele>170.700221</ele>
        <time>2017-06-08T08:59:35.000Z</time>
      </trkpt>
      <trkpt lat="43.737080" lon="5.173372">
        <ele>170.574737</ele>
        <time>2017-06-08T08:59:37.000Z</time>
      </trkpt>
      <trkpt lat="43.736984" lon="5.173297">
        <ele>170.450340</ele>
        <time>2017-06-08T08:59:39.000Z</time>
      </trkpt>
      <trkpt lat="43.736885" lon="5.173231">
        <ele>170.326341</ele>
        <time>2017-06-08T08:59:41.000Z</time>
      </trkpt>
      <trkpt lat="43.736780" lon="5.173144">
        <ele>170.188246</ele>
        <time>2017-06-08T08:59:43.000Z</time>
      </trkpt>
      <trkpt lat="43.736670" lon="5.173075">
        <ele>170.051965</ele>
        <time>2017-06-08T08:59:45.000Z</time>
      </trkpt>
      <trkpt lat="43.736565" lon="5.172994">
        <ele>169.759113</ele>
        <time>2017-06-08T08:59:47.000Z</time>
      </trkpt>
      <trkpt lat="43.736470" lon="5.172930">
        <ele>169.471106</ele>
        <time>2017-06-08T08:59:49.000Z</time>
      </trkpt>
      <trkpt lat="43.736374" lon="5.172871">
        <ele>169.184782</ele>
        <time>2017-06-08T08:59:51.000Z</time>
      </trkpt>
      <trkpt lat="43.736282" lon="5.172811">
        <ele>168.907553</ele>
        <time>2017-06-08T08:59:53.000Z</time>
      </trkpt>
      <trkpt lat="43.736187" lon="5.172761">
        <ele>168.630502</ele>
        <time>2017-06-08T08:59:55.000Z</time>
      </trkpt>
      <trkpt lat="43.736088" lon="5.172717">
        <ele>168.347067</ele>
        <time>2017-06-08T08:59:57.000Z</time>
      </trkpt>
      <trkpt lat="43.735985" lon="5.172674">
        <ele>168.053806</ele>
        <time>2017-06-08T08:59:59.000Z</time>
      </trkpt>
      <trkpt lat="43.735878" lon="5.172633">
        <ele>167.751165</ele>
        <time>2017-06-08T09:00:01.000Z</time>
      </trkpt>
      <trkpt lat="43.735767" lon="5.172596">
        <ele>167.439940</ele>
        <time>2017-06-08T09:00:03.000Z</time>
      </trkpt>
      <trkpt lat="43.735650" lon="5.172550">
        <ele>167.108394</ele>
        <time>2017-06-08T09:00:05.000Z</time>
      </trkpt>
      <trkpt lat="43.735527" lon="5.172523">
        <ele>166.768919</ele>
        <time>2017-06-08T09:00:07.000Z</time>
      </trkpt>
      <trkpt lat="43.735405" lon="5.172483">
        <ele>166.427158</ele>
        <time>2017-06-08T09:00:09.000Z</time>
      </trkpt>
      <trkpt lat="43.735290" lon="5.172431">
        <ele>166.097375</ele>
        <time>2017-06-08T09:00:11.000Z</time>
      </trkpt>
      <trkpt lat="43.735180" lon="5.172380">
        <ele>165.781150</ele>
        <time>2017-06-08T09:00:13.000Z</time>
      </trkpt>
      <trkpt lat="43.735073" lon="5.172327">
        <ele>165.471364</ele>
        <time>2017-06-08T09:00:15.000Z</time>
      </trkpt>
      <trkpt lat="43.734980" lon="5.172260">
        <ele>165.185568</ele>
        <time>2017-06-08T09:00:17.000Z</time>
      </trkpt>
      <trkpt lat="43.734886" lon="5.172211">
        <ele>165.244223</ele>
        <time>2017-06-08T09:00:19.000Z</time>
      </trkpt>
      <trkpt lat="43.734800" lon="5.172185">
        <ele>165.379299</ele>
        <time>2017-06-08T09:00:21.000Z</time>
      </trkpt>
      <trkpt lat="43.734700" lon="5.172128">
        <ele>165.545251</ele>
        <time>2017-06-08T09:00:24.000Z</time>
      </trkpt>
      <trkpt lat="43.734610" lon="5.172073">
        <ele>165.696217</ele>
        <time>2017-06-08T09:00:30.000Z</time>
      </trkpt>
      <trkpt lat="43.734535" lon="5.172002">
        <ele>165.835649</ele>
        <time>2017-06-08T09:00:35.000Z</time>
      </trkpt>
      <trkpt lat="43.734447" lon="5.171932">
        <ele>165.991397</ele>
        <time>2017-06-08T09:00:42.000Z</time>
      </trkpt>
      <trkpt lat="43.734340" lon="5.171879">
        <ele>166.165784</ele>
        <time>2017-06-08T09:00:46.000Z</time>
      </trkpt>
      <trkpt lat="43.734245" lon="5.171857">
        <ele>166.313585</ele>
        <time>2017-06-08T09:00:49.000Z</time>
      </trkpt>
      <trkpt lat="43.734158" lon="5.171899">
        <ele>166.454973</ele>
        <time>2017-06-08T09:00:52.000Z</time>
      </trkpt>
      <trkpt lat="43.734047" lon="5.171937">
        <ele>166.630432</ele>
        <time>2017-06-08T09:00:56.000Z</time>
      </trkpt>
      <trkpt lat="43.733940" lon="5.171939">
        <ele>166.794635</ele>
        <time>2017-06-08T09:01:00.000Z</time>
      </trkpt>
      <trkpt lat="43.733837" lon="5.171892">
        <ele>166.961055</ele>
        <time>2017-06-08T09:01:04.000Z</time>
      </trkpt>
      <trkpt lat="43.733780" lon="5.171791">
        <ele>167.103147</ele>
        <time>2017-06-08T09:01:08.000Z</time>
      </trkpt>
      <trkpt lat="43.733692" lon="5.171834">
        <ele>167.246350</ele>
        <time>2017-06-08T09:01:17.000Z</time>
      </trkpt>
      <trkpt lat="43.733654" lon="5.171997">
        <ele>167.436249</ele>
        <time>2017-06-08T09:01:21.000Z</time>
      </trkpt>
      <trkpt lat="43.733593" lon="5.172142">
        <ele>167.622281</ele>
        <time>2017-06-08T09:01:24.000Z</time>
      </trkpt>
      <trkpt lat="43.733536" lon="5.172276">
        <ele>167.794687</ele>
        <time>2017-06-08T09:01:27.000Z</time>
      </trkpt>
      <trkpt lat="43.733482" lon="5.172413">
        <ele>167.865289</ele>
        <time>2017-06-08T09:01:30.000Z</time>
      </trkpt>
      <trkpt lat="43.733430" lon="5.172546">
        <ele>167.826730</ele>
        <time>2017-06-08T09:01:33.000Z</time>
      </trkpt>
      <trkpt lat="43.733353" lon="5.172824">
        <ele>167.750816</ele>
        <time>2017-06-08T09:02:23.000Z</time>
      </trkpt>
      <trkpt lat="43.733303" lon="5.172947">
        <ele>167.714831</ele>
        <time>2017-06-08T09:02:26.000Z</time>
      </trkpt>
      <trkpt lat="43.733270" lon="5.173097">
        <ele>167.674851</ele>
        <time>2017-06-08T09:02:29.000Z</time>
      </trkpt>
      <trkpt lat="43.733208" lon="5.173242">
        <ele>167.631890</ele>
        <time>2017-06-08T09:02:32.000Z</time>
      </trkpt>
      <trkpt lat="43.733150" lon="5.173365">
        <ele>167.594440</ele>
        <time>2017-06-08T09:02:35.000Z</time>
      </trkpt>
      <trkpt lat="43.733093" lon="5.173462">
        <ele>167.562560</ele>
        <time>2017-06-08T09:02:38.000Z</time>
      </trkpt>
      <trkpt lat="43.733047" lon="5.173588">
        <ele>167.526565</ele>
        <time>2017-06-08T09:02:42.000Z</time>
      </trkpt>
      <trkpt lat="43.732980" lon="5.173697">
        <ele>167.490076</ele>
        <time>2017-06-08T09:24:32.000Z</time>
      </trkpt>
      <trkpt lat="43.732937" lon="5.173830">
        <ele>167.452923</ele>
        <time>2017-06-08T09:24:37.000Z</time>
      </trkpt>
      <trkpt lat="43.732880" lon="5.173963">
        <ele>167.413494</ele>
        <time>2017-06-08T09:24:41.000Z</time>
      </trkpt>
      <trkpt lat="43.732830" lon="5.174088">
        <ele>167.377063</ele>
        <time>2017-06-08T09:24:44.000Z</time>
      </trkpt>
      <trkpt lat="43.732765" lon="5.174218">
        <ele>167.336753</ele>
        <time>2017-06-08T09:24:47.000Z</time>
      </trkpt>
      <trkpt lat="43.732716" lon="5.174336">
        <ele>167.302051</ele>
        <time>2017-06-08T09:24:50.000Z</time>
      </trkpt>
      <trkpt lat="43.732655" lon="5.174439">
        <ele>167.268093</ele>
        <time>2017-06-08T09:24:53.000Z</time>
      </trkpt>
      <trkpt lat="43.732594" lon="5.174569">
        <ele>167.307477</ele>
        <time>2017-06-08T09:24:57.000Z</time>
      </trkpt>
      <trkpt lat="43.732540" lon="5.174715">
        <ele>167.421599</ele>
        <time>2017-06-08T09:25:01.000Z</time>
      </trkpt>
      <trkpt lat="43.732510" lon="5.174855">
        <ele>167.523204</ele>
        <time>2017-06-08T09:25:04.000Z</time>
      </trkpt>
      <trkpt lat="43.732464" lon="5.174972">
        <ele>167.615883</ele>
        <time>2017-06-08T09:25:07.000Z</time>
      </trkpt>
      <trkpt lat="43.732418" lon="5.175096">
        <ele>167.712868</ele>
        <time>2017-06-08T09:25:10.000Z</time>
      </trkpt>
      <trkpt lat="43.732360" lon="5.175216">
        <ele>167.813321</ele>
        <time>2017-06-08T09:25:13.000Z</time>
      </trkpt>
      <trkpt lat="43.732307" lon="5.175345">
        <ele>167.916575</ele>
        <time>2017-06-08T09:25:16.000Z</time>
      </trkpt>
      <trkpt lat="43.732240" lon="5.175459">
        <ele>168.018821</ele>
        <time>2017-06-08T09:25:19.000Z</time>
      </trkpt>
      <trkpt lat="43.732185" lon="5.175566">
        <ele>168.110188</ele>
        <time>2017-06-08T09:25:22.000Z</time>
      </trkpt>
      <trkpt lat="43.732140" lon="5.175682">
        <ele>168.201797</ele>
        <time>2017-06-08T09:25:25.000Z</time>
      </trkpt>
      <trkpt lat="43.732082" lon="5.175805">
        <ele>168.303992</ele>
        <time>2017-06-08T09:25:28.000Z</time>
      </trkpt>
      <trkpt lat="43.732025" lon="5.175938">
        <ele>168.411587</ele>
        <time>2017-06-08T09:25:31.000Z</time>
      </trkpt>
      <trkpt lat="43.731976" lon="5.176061">
        <ele>168.509316</ele>
        <time>2017-06-08T09:25:34.000Z</time>
      </trkpt>
      <trkpt lat="43.731922" lon="5.176178">
        <ele>168.605915</ele>
        <time>2017-06-08T09:25:37.000Z</time>
      </trkpt>
      <trkpt lat="43.731870" lon="5.176306">
        <ele>168.708089</ele>
        <time>2017-06-08T09:25:40.000Z</time>
      </trkpt>
      <trkpt lat="43.731810" lon="5.176431">
        <ele>168.812506</ele>
        <time>2017-06-08T09:25:43.000Z</time>
      </trkpt>
      <trkpt lat="43.731762" lon="5.176547">
        <ele>168.905517</ele>
        <time>2017-06-08T09:25:46.000Z</time>
      </trkpt>
      <trkpt lat="43.731705" lon="5.176689">
        <ele>169.194577</ele>
        <time>2017-06-08T09:25:50.000Z</time>
      </trkpt>
      <trkpt lat="43.731640" lon="5.176780">
        <ele>169.709234</ele>
        <time>2017-06-08T09:25:53.000Z</time>
      </trkpt>
      <trkpt lat="43.731544" lon="5.176876">
        <ele>170.368506</ele>
        <time>2017-06-08T09:25:57.000Z</time>
      </trkpt>
      <trkpt lat="43.731472" lon="5.176962">
        <ele>170.897911</ele>
        <time>2017-06-08T09:26:00.000Z</time>
      </trkpt>
      <trkpt lat="43.731422" lon="5.177071">
        <ele>171.417205</ele>
        <time>2017-06-08T09:26:04.000Z</time>
      </trkpt>
      <trkpt lat="43.731453" lon="5.177209">
        <ele>171.998465</ele>
        <time>2017-06-08T09:26:09.000Z</time>
      </trkpt>
      <trkpt lat="43.731464" lon="5.177341">
        <ele>172.532907</ele>
        <time>2017-06-08T09:26:13.000Z</time>
      </trkpt>
      <trkpt lat="43.731472" lon="5.177467">
        <ele>173.041650</ele>
        <time>2017-06-08T09:26:17.000Z</time>
      </trkpt>
      <trkpt lat="43.731420" lon="5.177595">
        <ele>173.632272</ele>
        <time>2017-06-08T09:26:22.000Z</time>
      </trkpt>
      <trkpt lat="43.731407" lon="5.177727">
        <ele>174.168105</ele>
        <time>2017-06-08T09:26:27.000Z</time>
      </trkpt>
      <trkpt lat="43.731390" lon="5.177862">
        <ele>174.719278</ele>
        <time>2017-06-08T09:26:33.000Z</time>
      </trkpt>
      <trkpt lat="43.731370" lon="5.177986">
        <ele>175.230299</ele>
        <time>2017-06-08T09:26:42.000Z</time>
      </trkpt>
      <trkpt lat="43.731434" lon="5.178104">
        <ele>175.823736</ele>
        <time>2017-06-08T09:26:51.000Z</time>
      </trkpt>
      <trkpt lat="43.731470" lon="5.178225">
        <ele>176.350055</ele>
        <time>2017-06-08T09:26:55.000Z</time>
      </trkpt>
      <trkpt lat="43.731500" lon="5.178348">
        <ele>176.872202</ele>
        <time>2017-06-08T09:26:59.000Z</time>
      </trkpt>
      <trkpt lat="43.731533" lon="5.178466">
        <ele>177.381121</ele>
        <time>2017-06-08T09:27:03.000Z</time>
      </trkpt>
      <trkpt lat="43.731583" lon="5.178585">
        <ele>177.934791</ele>
        <time>2017-06-08T09:27:07.000Z</time>
      </trkpt>
      <trkpt lat="43.731630" lon="5.178700">
        <ele>178.466196</ele>
        <time>2017-06-08T09:27:11.000Z</time>
      </trkpt>
      <trkpt lat="43.731674" lon="5.178815">
        <ele>178.989582</ele>
        <time>2017-06-08T09:27:15.000Z</time>
      </trkpt>
      <trkpt lat="43.731710" lon="5.178932">
        <ele>179.888620</ele>
        <time>2017-06-08T09:27:19.000Z</time>
      </trkpt>
      <trkpt lat="43.731750" lon="5.179067">
        <ele>180.923620</ele>
        <time>2017-06-08T09:27:24.000Z</time>
      </trkpt>
      <trkpt lat="43.731804" lon="5.179176">
        <ele>181.861081</ele>
        <time>2017-06-08T09:27:29.000Z</time>
      </trkpt>
      <trkpt lat="43.731846" lon="5.179305">
        <ele>182.864737</ele>
        <time>2017-06-08T09:27:35.000Z</time>
      </trkpt>
      <trkpt lat="43.731900" lon="5.179424">
        <ele>183.861509</ele>
        <time>2017-06-08T09:27:42.000Z</time>
      </trkpt>
      <trkpt lat="43.731850" lon="5.179527">
        <ele>184.741701</ele>
        <time>2017-06-08T09:27:50.000Z</time>
      </trkpt>
      <trkpt lat="43.731773" lon="5.179596">
        <ele>185.642221</ele>
        <time>2017-06-08T09:27:55.000Z</time>
      </trkpt>
      <trkpt lat="43.731712" lon="5.179694">
        <ele>186.559738</ele>
        <time>2017-06-08T09:28:00.000Z</time>
      </trkpt>
      <trkpt lat="43.731686" lon="5.179816">
        <ele>187.461997</ele>
        <time>2017-06-08T09:28:05.000Z</time>
      </trkpt>
      <trkpt lat="43.731644" lon="5.179930">
        <ele>188.369698</ele>
        <time>2017-06-08T09:28:10.000Z</time>
      </trkpt>
      <trkpt lat="43.731630" lon="5.180079">
        <ele>189.435525</ele>
        <time>2017-06-08T09:28:16.000Z</time>
      </trkpt>
      <trkpt lat="43.731613" lon="5.180206">
        <ele>190.351725</ele>
        <time>2017-06-08T09:28:21.000Z</time>
      </trkpt>
      <trkpt lat="43.731610" lon="5.180341">
        <ele>191.309798</ele>
        <time>2017-06-08T09:28:26.000Z</time>
      </trkpt>
      <trkpt lat="43.731586" lon="5.180470">
        <ele>192.254702</ele>
        <time>2017-06-08T09:28:32.000Z</time>
      </trkpt>
      <trkpt lat="43.731686" lon="5.180461">
        <ele>193.238456</ele>
        <time>2017-06-08T09:28:40.000Z</time>
      </trkpt>
      <trkpt lat="43.731770" lon="5.180406">
        <ele>194.150703</ele>
        <time>2017-06-08T09:28:46.000Z</time>
      </trkpt>
      <trkpt lat="43.731827" lon="5.180507">
        <ele>195.059763</ele>
        <time>2017-06-08T09:28:52.000Z</time>
      </trkpt>
      <trkpt lat="43.731910" lon="5.180560">
        <ele>195.957110</ele>
        <time>2017-06-08T09:28:58.000Z</time>
      </trkpt>
      <trkpt lat="43.732000" lon="5.180513">
        <ele>196.728030</ele>
        <time>2017-06-08T09:29:04.000Z</time>
      </trkpt>
      <trkpt lat="43.732197" lon="5.180419">
        <ele>197.360333</ele>
        <time>2017-06-08T09:30:03.000Z</time>
      </trkpt>
      <trkpt lat="43.732296" lon="5.180390">
        <ele>197.667390</ele>
        <time>2017-06-08T09:30:07.000Z</time>
      </trkpt>
      <trkpt lat="43.732357" lon="5.180502">
        <ele>197.974902</ele>
        <time>2017-06-08T09:30:12.000Z</time>
      </trkpt>
      <trkpt lat="43.732390" lon="5.180624">
        <ele>198.260522</ele>
        <time>2017-06-08T09:30:17.000Z</time>
      </trkpt>
      <trkpt lat="43.732480" lon="5.180682">
        <ele>198.561772</ele>
        <time>2017-06-08T09:30:25.000Z</time>
      </trkpt>
      <trkpt lat="43.732574" lon="5.180680">
        <ele>198.847036</ele>
        <time>2017-06-08T09:30:33.000Z</time>
      </trkpt>
      <trkpt lat="43.732660" lon="5.180610">
        <ele>199.149779</ele>
        <time>2017-06-08T09:30:40.000Z</time>
      </trkpt>
      <trkpt lat="43.732643" lon="5.180452">
        <ele>199.500021</ele>
        <time>2017-06-08T09:31:17.000Z</time>
      </trkpt>
      <trkpt lat="43.732590" lon="5.180347">
        <ele>199.780848</ele>
        <time>2017-06-08T09:31:27.000Z</time>
      </trkpt>
      <trkpt lat="43.732563" lon="5.180226">
        <ele>200.058509</ele>
        <time>2017-06-08T09:31:47.000Z</time>
      </trkpt>
      <trkpt lat="43.732470" lon="5.180215">
        <ele>200.341733</ele>
        <time>2017-06-08T09:36:58.000Z</time>
      </trkpt>
      <trkpt lat="43.732403" lon="5.180300">
        <ele>200.617531</ele>
        <time>2017-06-08T09:37:11.000Z</time>
      </trkpt>
      <trkpt lat="43.732338" lon="5.180403">
        <ele>200.917368</ele>
        <time>2017-06-08T09:37:38.000Z</time>
      </trkpt>
      <trkpt lat="43.732185" lon="5.180449">
        <ele>201.392454</ele>
        <time>2017-06-08T09:38:11.000Z</time>
      </trkpt>
      <trkpt lat="43.732100" lon="5.180522">
        <ele>201.696003</ele>
        <time>2017-06-08T09:38:14.000Z</time>
      </trkpt>
      <trkpt lat="43.732014" lon="5.180547">
        <ele>201.962653</ele>
        <time>2017-06-08T09:38:17.000Z</time>
      </trkpt>
      <trkpt lat="43.731920" lon="5.180518">
        <ele>201.797030</ele>
        <time>2017-06-08T09:38:24.000Z</time>
      </trkpt>
      <trkpt lat="43.731873" lon="5.180408">
        <ele>201.202708</ele>
        <time>2017-06-08T09:38:27.000Z</time>
      </trkpt>
      <trkpt lat="43.731876" lon="5.180276">
        <ele>200.588512</ele>
        <time>2017-06-08T09:38:37.000Z</time>
      </trkpt>
      <trkpt lat="43.731808" lon="5.180369">
        <ele>199.973192</ele>
        <time>2017-06-08T09:39:54.000Z</time>
      </trkpt>
      <trkpt lat="43.731724" lon="5.180427">
        <ele>199.368994</ele>
        <time>2017-06-08T09:40:01.000Z</time>
      </trkpt>
      <trkpt lat="43.731630" lon="5.180448">
        <ele>198.756157</ele>
        <time>2017-06-08T09:40:14.000Z</time>
      </trkpt>
      <trkpt lat="43.731457" lon="5.180471">
        <ele>197.637564</ele>
        <time>2017-06-08T10:38:20.000Z</time>
      </trkpt>
      <trkpt lat="43.731410" lon="5.180579">
        <ele>197.051226</ele>
        <time>2017-06-08T10:44:40.000Z</time>
      </trkpt>
      <trkpt lat="43.731304" lon="5.180586">
        <ele>196.368210</ele>
        <time>2017-06-08T10:44:45.000Z</time>
      </trkpt>
      <trkpt lat="43.731213" lon="5.180619">
        <ele>195.762739</ele>
        <time>2017-06-08T10:44:50.000Z</time>
      </trkpt>
      <trkpt lat="43.731117" lon="5.180609">
        <ele>195.143114</ele>
        <time>2017-06-08T10:44:55.000Z</time>
      </trkpt>
      <trkpt lat="43.731026" lon="5.180599">
        <ele>194.555574</ele>
        <time>2017-06-08T10:44:58.000Z</time>
      </trkpt>
      <trkpt lat="43.730907" lon="5.180594">
        <ele>193.789311</ele>
        <time>2017-06-08T10:45:01.000Z</time>
      </trkpt>
      <trkpt lat="43.730800" lon="5.180642">
        <ele>193.065357</ele>
        <time>2017-06-08T10:45:04.000Z</time>
      </trkpt>
      <trkpt lat="43.730675" lon="5.180643">
        <ele>192.260816</ele>
        <time>2017-06-08T10:45:07.000Z</time>
      </trkpt>
      <trkpt lat="43.730550" lon="5.180664">
        <ele>191.450381</ele>
        <time>2017-06-08T10:45:10.000Z</time>
      </trkpt>
      <trkpt lat="43.730453" lon="5.180660">
        <ele>190.825790</ele>
        <time>2017-06-08T10:45:12.000Z</time>
      </trkpt>
      <trkpt lat="43.730343" lon="5.180665">
        <ele>190.304277</ele>
        <time>2017-06-08T10:45:15.000Z</time>
      </trkpt>
      <trkpt lat="43.730232" lon="5.180689">
        <ele>189.907312</ele>
        <time>2017-06-08T10:45:19.000Z</time>
      </trkpt>
      <trkpt lat="43.730130" lon="5.180707">
        <ele>189.543987</ele>
        <time>2017-06-08T10:45:23.000Z</time>
      </trkpt>
      <trkpt lat="43.730030" lon="5.180748">
        <ele>189.175466</ele>
        <time>2017-06-08T10:45:27.000Z</time>
      </trkpt>
      <trkpt lat="43.729935" lon="5.180792">
        <ele>188.821493</ele>
        <time>2017-06-08T10:45:31.000Z</time>
      </trkpt>
      <trkpt lat="43.729830" lon="5.180826">
        <ele>188.440465</ele>
        <time>2017-06-08T10:45:34.000Z</time>
      </trkpt>
      <trkpt lat="43.729720" lon="5.180832">
        <ele>188.051489</ele>
        <time>2017-06-08T10:45:37.000Z</time>
      </trkpt>
      <trkpt lat="43.729620" lon="5.180870">
        <ele>187.685071</ele>
        <time>2017-06-08T10:45:41.000Z</time>
      </trkpt>
      <trkpt lat="43.729530" lon="5.180899">
        <ele>187.358558</ele>
        <time>2017-06-08T10:45:48.000Z</time>
      </trkpt>
      <trkpt lat="43.729385" lon="5.180920">
        <ele>186.843417</ele>
        <time>2017-06-08T10:46:31.000Z</time>
      </trkpt>
      <trkpt lat="43.729280" lon="5.180935">
        <ele>186.470439</ele>
        <time>2017-06-08T10:46:34.000Z</time>
      </trkpt>
      <trkpt lat="43.729168" lon="5.180949">
        <ele>186.073087</ele>
        <time>2017-06-08T10:46:37.000Z</time>
      </trkpt>
      <trkpt lat="43.729076" lon="5.180966">
        <ele>185.745130</ele>
        <time>2017-06-08T10:46:39.000Z</time>
      </trkpt>
      <trkpt lat="43.728980" lon="5.180982">
        <ele>185.403472</ele>
        <time>2017-06-08T10:46:41.000Z</time>
      </trkpt>
      <trkpt lat="43.728880" lon="5.180996">
        <ele>185.048329</ele>
        <time>2017-06-08T10:46:43.000Z</time>
      </trkpt>
      <trkpt lat="43.728775" lon="5.181000">
        <ele>184.677181</ele>
        <time>2017-06-08T10:46:45.000Z</time>
      </trkpt>
      <trkpt lat="43.728670" lon="5.180992">
        <ele>184.305613</ele>
        <time>2017-06-08T10:46:47.000Z</time>
      </trkpt>
      <trkpt lat="43.728570" lon="5.180985">
        <ele>183.904198</ele>
        <time>2017-06-08T10:46:49.000Z</time>
      </trkpt>
      <trkpt lat="43.728462" lon="5.180989">
        <ele>183.441503</ele>
        <time>2017-06-08T10:46:51.000Z</time>
      </trkpt>
      <trkpt lat="43.728355" lon="5.181004">
        <ele>182.980910</ele>
        <time>2017-06-08T10:46:53.000Z</time>
      </trkpt>
      <trkpt lat="43.728245" lon="5.181017">
        <ele>182.508100</ele>
        <time>2017-06-08T10:46:55.000Z</time>
      </trkpt>
      <trkpt lat="43.728138" lon="5.181025">
        <ele>182.049185</ele>
        <time>2017-06-08T10:46:57.000Z</time>
      </trkpt>
      <trkpt lat="43.728024" lon="5.181024">
        <ele>181.560949</ele>
        <time>2017-06-08T10:46:59.000Z</time>
      </trkpt>
      <trkpt lat="43.727913" lon="5.181027">
        <ele>181.085480</ele>
        <time>2017-06-08T10:47:01.000Z</time>
      </trkpt>
      <trkpt lat="43.727795" lon="5.181037">
        <ele>180.579177</ele>
        <time>2017-06-08T10:47:03.000Z</time>
      </trkpt>
      <trkpt lat="43.727680" lon="5.181040">
        <ele>180.086581</ele>
        <time>2017-06-08T10:47:05.000Z</time>
      </trkpt>
      <trkpt lat="43.727573" lon="5.181037">
        <ele>179.628240</ele>
        <time>2017-06-08T10:47:07.000Z</time>
      </trkpt>
      <trkpt lat="43.727450" lon="5.181048">
        <ele>179.100371</ele>
        <time>2017-06-08T10:47:09.000Z</time>
      </trkpt>
      <trkpt lat="43.727333" lon="5.181074">
        <ele>178.592877</ele>
        <time>2017-06-08T10:47:11.000Z</time>
      </trkpt>
      <trkpt lat="43.727210" lon="5.181101">
        <ele>178.059521</ele>
        <time>2017-06-08T10:47:13.000Z</time>
      </trkpt>
      <trkpt lat="43.727097" lon="5.181130">
        <ele>177.567325</ele>
        <time>2017-06-08T10:47:15.000Z</time>
      </trkpt>
      <trkpt lat="43.726980" lon="5.181164">
        <ele>177.055322</ele>
        <time>2017-06-08T10:47:17.000Z</time>
      </trkpt>
      <trkpt lat="43.726870" lon="5.181208">
        <ele>176.564941</ele>
        <time>2017-06-08T10:47:19.000Z</time>
      </trkpt>
      <trkpt lat="43.726765" lon="5.181244">
        <ele>176.266277</ele>
        <time>2017-06-08T10:47:21.000Z</time>
      </trkpt>
      <trkpt lat="43.726665" lon="5.181293">
        <ele>176.013151</ele>
        <time>2017-06-08T10:47:23.000Z</time>
      </trkpt>
      <trkpt lat="43.726578" lon="5.181366">
        <ele>175.770380</ele>
        <time>2017-06-08T10:47:25.000Z</time>
      </trkpt>
      <trkpt lat="43.726482" lon="5.181428">
        <ele>175.517596</ele>
        <time>2017-06-08T10:47:27.000Z</time>
      </trkpt>
      <trkpt lat="43.726390" lon="5.181483">
        <ele>175.278466</ele>
        <time>2017-06-08T10:47:29.000Z</time>
      </trkpt>
      <trkpt lat="43.726295" lon="5.181541">
        <ele>175.030706</ele>
        <time>2017-06-08T10:47:31.000Z</time>
      </trkpt>
      <trkpt lat="43.726208" lon="5.181619">
        <ele>174.783355</ele>
        <time>2017-06-08T10:47:33.000Z</time>
      </trkpt>
      <trkpt lat="43.726130" lon="5.181687">
        <ele>174.563384</ele>
        <time>2017-06-08T10:47:35.000Z</time>
      </trkpt>
      <trkpt lat="43.726040" lon="5.181749">
        <ele>174.323497</ele>
        <time>2017-06-08T10:47:37.000Z</time>
      </trkpt>
      <trkpt lat="43.725950" lon="5.181823">
        <ele>174.073700</ele>
        <time>2017-06-08T10:47:39.000Z</time>
      </trkpt>
      <trkpt lat="43.725857" lon="5.181908">
        <ele>173.807760</ele>
        <time>2017-06-08T10:47:41.000Z</time>
      </trkpt>
      <trkpt lat="43.725765" lon="5.182004">
        <ele>173.532822</ele>
        <time>2017-06-08T10:47:43.000Z</time>
      </trkpt>
      <trkpt lat="43.725680" lon="5.182107">
        <ele>173.263232</ele>
        <time>2017-06-08T10:47:45.000Z</time>
      </trkpt>
      <trkpt lat="43.725600" lon="5.182234">
        <ele>172.972725</ele>
        <time>2017-06-08T10:47:47.000Z</time>
      </trkpt>
      <trkpt lat="43.725533" lon="5.182365">
        <ele>172.695989</ele>
        <time>2017-06-08T10:47:49.000Z</time>
      </trkpt>
      <trkpt lat="43.725456" lon="5.182504">
        <ele>172.393990</ele>
        <time>2017-06-08T10:47:51.000Z</time>
      </trkpt>
      <trkpt lat="43.725380" lon="5.182641">
        <ele>172.116228</ele>
        <time>2017-06-08T10:47:53.000Z</time>
      </trkpt>
      <trkpt lat="43.725304" lon="5.182777">
        <ele>171.889317</ele>
        <time>2017-06-08T10:47:55.000Z</time>
      </trkpt>
      <trkpt lat="43.725227" lon="5.182928">
        <ele>171.645393</ele>
        <time>2017-06-08T10:47:57.000Z</time>
      </trkpt>
      <trkpt lat="43.725155" lon="5.183073">
        <ele>171.413187</ele>
        <time>2017-06-08T10:47:59.000Z</time>
      </trkpt>
      <trkpt lat="43.725086" lon="5.183227">
        <ele>171.174029</ele>
        <time>2017-06-08T10:48:01.000Z</time>
      </trkpt>
      <trkpt lat="43.725020" lon="5.183375">
        <ele>170.944488</ele>
        <time>2017-06-08T10:48:03.000Z</time>
      </trkpt>
      <trkpt lat="43.724960" lon="5.183520">
        <ele>170.723952</ele>
        <time>2017-06-08T10:48:05.000Z</time>
      </trkpt>
      <trkpt lat="43.724920" lon="5.183672">
        <ele>170.510442</ele>
        <time>2017-06-08T10:48:07.000Z</time>
      </trkpt>
      <trkpt lat="43.724876" lon="5.183827">
        <ele>170.290643</ele>
        <time>2017-06-08T10:48:09.000Z</time>
      </trkpt>
      <trkpt lat="43.724846" lon="5.183965">
        <ele>170.100436</ele>
        <time>2017-06-08T10:48:11.000Z</time>
      </trkpt>
      <trkpt lat="43.724804" lon="5.184102">
        <ele>169.904014</ele>
        <time>2017-06-08T10:48:13.000Z</time>
      </trkpt>
      <trkpt lat="43.724762" lon="5.184236">
        <ele>169.711231</ele>
        <time>2017-06-08T10:48:15.000Z</time>
      </trkpt>
      <trkpt lat="43.724720" lon="5.184373">
        <ele>169.514808</ele>
        <time>2017-06-08T10:48:17.000Z</time>
      </trkpt>
      <trkpt lat="43.724674" lon="5.184518">
        <ele>169.305796</ele>
        <time>2017-06-08T10:48:19.000Z</time>
      </trkpt>
      <trkpt lat="43.724620" lon="5.184665">
        <ele>169.088144</ele>
        <time>2017-06-08T10:48:21.000Z</time>
      </trkpt>
      <trkpt lat="43.724570" lon="5.184810">
        <ele>168.891818</ele>
        <time>2017-06-08T10:48:23.000Z</time>
      </trkpt>
      <trkpt lat="43.724503" lon="5.184946">
        <ele>168.841149</ele>
        <time>2017-06-08T10:48:25.000Z</time>
      </trkpt>
      <trkpt lat="43.724430" lon="5.185067">
        <ele>168.792626</ele>
        <time>2017-06-08T10:48:27.000Z</time>
      </trkpt>
      <trkpt lat="43.724360" lon="5.185192">
        <ele>168.743945</ele>
        <time>2017-06-08T10:48:29.000Z</time>
      </trkpt>
      <trkpt lat="43.724297" lon="5.185297">
        <ele>168.701934</ele>
        <time>2017-06-08T10:48:31.000Z</time>
      </trkpt>
      <trkpt lat="43.724230" lon="5.185400">
        <ele>168.659273</ele>
        <time>2017-06-08T10:48:33.000Z</time>
      </trkpt>
      <trkpt lat="43.724163" lon="5.185489">
        <ele>168.619711</ele>
        <time>2017-06-08T10:48:35.000Z</time>
      </trkpt>
      <trkpt lat="43.724090" lon="5.185573">
        <ele>168.579268</ele>
        <time>2017-06-08T10:48:37.000Z</time>
      </trkpt>
      <trkpt lat="43.724020" lon="5.185656">
        <ele>168.540000</ele>
        <time>2017-06-08T10:48:39.000Z</time>
      </trkpt>
      <trkpt lat="43.723938" lon="5.185743">
        <ele>168.495984</ele>
        <time>2017-06-08T10:48:41.000Z</time>
      </trkpt>
      <trkpt lat="43.723866" lon="5.185829">
        <ele>168.455468</ele>
        <time>2017-06-08T10:48:43.000Z</time>
      </trkpt>
      <trkpt lat="43.723763" lon="5.185943">
        <ele>168.399284</ele>
        <time>2017-06-08T10:48:46.000Z</time>
      </trkpt>
      <trkpt lat="43.723656" lon="5.186042">
        <ele>168.344454</ele>
        <time>2017-06-08T10:48:49.000Z</time>
      </trkpt>
      <trkpt lat="43.723545" lon="5.186072">
        <ele>168.296278</ele>
        <time>2017-06-08T10:48:52.000Z</time>
      </trkpt>
      <trkpt lat="43.723430" lon="5.185986">
        <ele>168.240595</ele>
        <time>2017-06-08T10:48:55.000Z</time>
      </trkpt>
      <trkpt lat="43.723343" lon="5.185953">
        <ele>168.202168</ele>
        <time>2017-06-08T10:48:57.000Z</time>
      </trkpt>
      <trkpt lat="43.723248" lon="5.185951">
        <ele>168.161695</ele>
        <time>2017-06-08T10:48:59.000Z</time>
      </trkpt>
      <trkpt lat="43.723160" lon="5.185974">
        <ele>168.126872</ele>
        <time>2017-06-08T10:49:01.000Z</time>
      </trkpt>
      <trkpt lat="43.723057" lon="5.185984">
        <ele>168.104151</ele>
        <time>2017-06-08T10:49:03.000Z</time>
      </trkpt>
      <trkpt lat="43.722923" lon="5.186008">
        <ele>168.074417</ele>
        <time>2017-06-08T10:49:06.000Z</time>
      </trkpt>
      <trkpt lat="43.722805" lon="5.186046">
        <ele>168.047756</ele>
        <time>2017-06-08T10:49:09.000Z</time>
      </trkpt>
      <trkpt lat="43.722702" lon="5.186078">
        <ele>168.024525</ele>
        <time>2017-06-08T10:49:12.000Z</time>
      </trkpt>
      <trkpt lat="43.722600" lon="5.186136">
        <ele>168.000258</ele>
        <time>2017-06-08T10:49:15.000Z</time>
      </trkpt>
      <trkpt lat="43.722492" lon="5.186200">
        <ele>167.974404</ele>
        <time>2017-06-08T10:49:18.000Z</time>
      </trkpt>
      <trkpt lat="43.722366" lon="5.186260">
        <ele>167.945080</ele>
        <time>2017-06-08T10:49:21.000Z</time>
      </trkpt>
      <trkpt lat="43.722267" lon="5.186300">
        <ele>167.922385</ele>
        <time>2017-06-08T10:49:23.000Z</time>
      </trkpt>
      <trkpt lat="43.722170" lon="5.186341">
        <ele>167.900065</ele>
        <time>2017-06-08T10:49:25.000Z</time>
      </trkpt>
      <trkpt lat="43.722073" lon="5.186382">
        <ele>167.877746</ele>
        <time>2017-06-08T10:49:27.000Z</time>
      </trkpt>
      <trkpt lat="43.721970" lon="5.186422">
        <ele>167.854204</ele>
        <time>2017-06-08T10:49:29.000Z</time>
      </trkpt>
      <trkpt lat="43.721867" lon="5.186464">
        <ele>167.830574</ele>
        <time>2017-06-08T10:49:31.000Z</time>
      </trkpt>
      <trkpt lat="43.721764" lon="5.186507">
        <ele>167.806899</ele>
        <time>2017-06-08T10:49:33.000Z</time>
      </trkpt>
      <trkpt lat="43.721650" lon="5.186546">
        <ele>167.781057</ele>
        <time>2017-06-08T10:49:35.000Z</time>
      </trkpt>
      <trkpt lat="43.721540" lon="5.186601">
        <ele>167.755318</ele>
        <time>2017-06-08T10:49:37.000Z</time>
      </trkpt>
      <trkpt lat="43.721430" lon="5.186651">
        <ele>167.751936</ele>
        <time>2017-06-08T10:49:39.000Z</time>
      </trkpt>
      <trkpt lat="43.721325" lon="5.186702">
        <ele>167.840667</ele>
        <time>2017-06-08T10:49:41.000Z</time>
      </trkpt>
      <trkpt lat="43.721220" lon="5.186754">
        <ele>167.929590</ele>
        <time>2017-06-08T10:49:43.000Z</time>
      </trkpt>
      <trkpt lat="43.721115" lon="5.186800">
        <ele>168.017408</ele>
        <time>2017-06-08T10:49:45.000Z</time>
      </trkpt>
      <trkpt lat="43.721010" lon="5.186844">
        <ele>168.104886</ele>
        <time>2017-06-08T10:49:47.000Z</time>
      </trkpt>
      <trkpt lat="43.720905" lon="5.186890">
        <ele>168.192704</ele>
        <time>2017-06-08T10:49:49.000Z</time>
      </trkpt>
      <trkpt lat="43.720800" lon="5.186940">
        <ele>168.281246</ele>
        <time>2017-06-08T10:49:51.000Z</time>
      </trkpt>
      <trkpt lat="43.720695" lon="5.186987">
        <ele>168.369240</ele>
        <time>2017-06-08T10:49:53.000Z</time>
      </trkpt>
      <trkpt lat="43.720596" lon="5.187031">
        <ele>168.452150</ele>
        <time>2017-06-08T10:49:55.000Z</time>
      </trkpt>
      <trkpt lat="43.720497" lon="5.187086">
        <ele>168.537213</ele>
        <time>2017-06-08T10:49:57.000Z</time>
      </trkpt>
      <trkpt lat="43.720398" lon="5.187137">
        <ele>168.621445</ele>
        <time>2017-06-08T10:49:59.000Z</time>
      </trkpt>
      <trkpt lat="43.720300" lon="5.187193">
        <ele>168.705987</ele>
        <time>2017-06-08T10:50:01.000Z</time>
      </trkpt>
      <trkpt lat="43.720200" lon="5.187265">
        <ele>168.795872</ele>
        <time>2017-06-08T10:50:03.000Z</time>
      </trkpt>
      <trkpt lat="43.720097" lon="5.187336">
        <ele>168.887627</ele>
        <time>2017-06-08T10:50:05.000Z</time>
      </trkpt>
      <trkpt lat="43.720000" lon="5.187403">
        <ele>168.974072</ele>
        <time>2017-06-08T10:50:07.000Z</time>
      </trkpt>
      <trkpt lat="43.719906" lon="5.187473">
        <ele>169.059189</ele>
        <time>2017-06-08T10:50:09.000Z</time>
      </trkpt>
      <trkpt lat="43.719810" lon="5.187542">
        <ele>169.145446</ele>
        <time>2017-06-08T10:50:11.000Z</time>
      </trkpt>
      <trkpt lat="43.719720" lon="5.187614">
        <ele>169.247113</ele>
        <time>2017-06-08T10:50:13.000Z</time>
      </trkpt>
      <trkpt lat="43.719627" lon="5.187697">
        <ele>169.363166</ele>
        <time>2017-06-08T10:50:15.000Z</time>
      </trkpt>
      <trkpt lat="43.719543" lon="5.187783">
        <ele>169.472746</ele>
        <time>2017-06-08T10:50:17.000Z</time>
      </trkpt>
      <trkpt lat="43.719450" lon="5.187861">
        <ele>169.586790</ele>
        <time>2017-06-08T10:50:19.000Z</time>
      </trkpt>
      <trkpt lat="43.719364" lon="5.187938">
        <ele>169.694209</ele>
        <time>2017-06-08T10:50:21.000Z</time>
      </trkpt>
      <trkpt lat="43.719276" lon="5.188014">
        <ele>169.802993</ele>
        <time>2017-06-08T10:50:23.000Z</time>
      </trkpt>
      <trkpt lat="43.719200" lon="5.188105">
        <ele>169.908390</ele>
        <time>2017-06-08T10:50:25.000Z</time>
      </trkpt>
      <trkpt lat="43.719120" lon="5.188195">
        <ele>170.016514</ele>
        <time>2017-06-08T10:50:27.000Z</time>
      </trkpt>
      <trkpt lat="43.719040" lon="5.188295">
        <ele>170.129572</ele>
        <time>2017-06-08T10:50:29.000Z</time>
      </trkpt>
      <trkpt lat="43.718964" lon="5.188400">
        <ele>170.242199</ele>
        <time>2017-06-08T10:50:31.000Z</time>
      </trkpt>
      <trkpt lat="43.718884" lon="5.188497">
        <ele>170.353747</ele>
        <time>2017-06-08T10:50:33.000Z</time>
      </trkpt>
      <trkpt lat="43.718807" lon="5.188594">
        <ele>170.462947</ele>
        <time>2017-06-08T10:50:35.000Z</time>
      </trkpt>
      <trkpt lat="43.718730" lon="5.188691">
        <ele>170.572148</ele>
        <time>2017-06-08T10:50:37.000Z</time>
      </trkpt>
      <trkpt lat="43.718655" lon="5.188783">
        <ele>170.677256</ele>
        <time>2017-06-08T10:50:39.000Z</time>
      </trkpt>
      <trkpt lat="43.718575" lon="5.188870">
        <ele>170.783961</ele>
        <time>2017-06-08T10:50:41.000Z</time>
      </trkpt>
      <trkpt lat="43.718494" lon="5.188962">
        <ele>170.893857</ele>
        <time>2017-06-08T10:50:43.000Z</time>
      </trkpt>
      <trkpt lat="43.718420" lon="5.189048">
        <ele>170.995200</ele>
        <time>2017-06-08T10:50:45.000Z</time>
      </trkpt>
      <trkpt lat="43.718340" lon="5.189134">
        <ele>171.110985</ele>
        <time>2017-06-08T10:50:47.000Z</time>
      </trkpt>
      <trkpt lat="43.718270" lon="5.189223">
        <ele>171.231148</ele>
        <time>2017-06-08T10:50:49.000Z</time>
      </trkpt>
      <trkpt lat="43.718190" lon="5.189302">
        <ele>171.355380</ele>
        <time>2017-06-08T10:50:51.000Z</time>
      </trkpt>
      <trkpt lat="43.718113" lon="5.189379">
        <ele>171.475467</ele>
        <time>2017-06-08T10:50:53.000Z</time>
      </trkpt>
      <trkpt lat="43.718030" lon="5.189447">
        <ele>171.597390</ele>
        <time>2017-06-08T10:50:55.000Z</time>
      </trkpt>
      <trkpt lat="43.717945" lon="5.189512">
        <ele>171.720147</ele>
        <time>2017-06-08T10:50:57.000Z</time>
      </trkpt>
      <trkpt lat="43.717860" lon="5.189569">
        <ele>171.839540</ele>
        <time>2017-06-08T10:50:59.000Z</time>
      </trkpt>
      <trkpt lat="43.717747" lon="5.189651">
        <ele>172.000824</ele>
        <time>2017-06-08T10:51:02.000Z</time>
      </trkpt>
      <trkpt lat="43.717663" lon="5.189715">
        <ele>172.122033</ele>
        <time>2017-06-08T10:51:04.000Z</time>
      </trkpt>
      <trkpt lat="43.717583" lon="5.189783">
        <ele>172.240710</ele>
        <time>2017-06-08T10:51:06.000Z</time>
      </trkpt>
      <trkpt lat="43.717500" lon="5.189842">
        <ele>172.358657</ele>
        <time>2017-06-08T10:51:08.000Z</time>
      </trkpt>
      <trkpt lat="43.717415" lon="5.189905">
        <ele>172.480540</ele>
        <time>2017-06-08T10:51:10.000Z</time>
      </trkpt>
      <trkpt lat="43.717335" lon="5.189970">
        <ele>172.597806</ele>
        <time>2017-06-08T10:51:12.000Z</time>
      </trkpt>
      <trkpt lat="43.717220" lon="5.190059">
        <ele>172.764359</ele>
        <time>2017-06-08T10:51:15.000Z</time>
      </trkpt>
      <trkpt lat="43.717140" lon="5.190125">
        <ele>172.882090</ele>
        <time>2017-06-08T10:51:17.000Z</time>
      </trkpt>
      <trkpt lat="43.717060" lon="5.190195">
        <ele>173.001734</ele>
        <time>2017-06-08T10:51:19.000Z</time>
      </trkpt>
      <trkpt lat="43.716976" lon="5.190265">
        <ele>173.125680</ele>
        <time>2017-06-08T10:51:21.000Z</time>
      </trkpt>
      <trkpt lat="43.716892" lon="5.190329">
        <ele>173.246890</ele>
        <time>2017-06-08T10:51:23.000Z</time>
      </trkpt>
      <trkpt lat="43.716812" lon="5.190391">
        <ele>173.418818</ele>
        <time>2017-06-08T10:51:25.000Z</time>
      </trkpt>
      <trkpt lat="43.716732" lon="5.190453">
        <ele>173.723573</ele>
        <time>2017-06-08T10:51:27.000Z</time>
      </trkpt>
      <trkpt lat="43.716652" lon="5.190512">
        <ele>174.024871</ele>
        <time>2017-06-08T10:51:29.000Z</time>
      </trkpt>
      <trkpt lat="43.716568" lon="5.190574">
        <ele>174.341292</ele>
        <time>2017-06-08T10:51:31.000Z</time>
      </trkpt>
      <trkpt lat="43.716457" lon="5.190671">
        <ele>174.777630</ele>
        <time>2017-06-08T10:51:34.000Z</time>
      </trkpt>
      <trkpt lat="43.716377" lon="5.190734">
        <ele>175.083567</ele>
        <time>2017-06-08T10:51:36.000Z</time>
      </trkpt>
      <trkpt lat="43.716297" lon="5.190794">
        <ele>175.386003</ele>
        <time>2017-06-08T10:51:38.000Z</time>
      </trkpt>
      <trkpt lat="43.716187" lon="5.190890">
        <ele>175.818250</ele>
        <time>2017-06-08T10:51:41.000Z</time>
      </trkpt>
      <trkpt lat="43.716076" lon="5.190966">
        <ele>176.229866</ele>
        <time>2017-06-08T10:51:44.000Z</time>
      </trkpt>
      <trkpt lat="43.715970" lon="5.191038">
        <ele>176.622329</ele>
        <time>2017-06-08T10:51:47.000Z</time>
      </trkpt>
      <trkpt lat="43.715880" lon="5.191105">
        <ele>176.962000</ele>
        <time>2017-06-08T10:51:50.000Z</time>
      </trkpt>
      <trkpt lat="43.715790" lon="5.191156">
        <ele>177.285236</ele>
        <time>2017-06-08T10:51:53.000Z</time>
      </trkpt>
      <trkpt lat="43.715700" lon="5.191200">
        <ele>177.602481</ele>
        <time>2017-06-08T10:51:56.000Z</time>
      </trkpt>
      <trkpt lat="43.715590" lon="5.191231">
        <ele>177.975579</ele>
        <time>2017-06-08T10:51:59.000Z</time>
      </trkpt>
      <trkpt lat="43.715485" lon="5.191314">
        <ele>178.377494</ele>
        <time>2017-06-08T10:52:02.000Z</time>
      </trkpt>
      <trkpt lat="43.715366" lon="5.191390">
        <ele>178.813101</ele>
        <time>2017-06-08T10:52:05.000Z</time>
      </trkpt>
      <trkpt lat="43.715270" lon="5.191468">
        <ele>179.183112</ele>
        <time>2017-06-08T10:52:08.000Z</time>
      </trkpt>
      <trkpt lat="43.715160" lon="5.191550">
        <ele>179.382869</ele>
        <time>2017-06-08T10:52:11.000Z</time>
      </trkpt>
      <trkpt lat="43.715070" lon="5.191641">
        <ele>179.479993</ele>
        <time>2017-06-08T10:52:14.000Z</time>
      </trkpt>
      <trkpt lat="43.714990" lon="5.191716">
        <ele>179.564190</ele>
        <time>2017-06-08T10:52:17.000Z</time>
      </trkpt>
      <trkpt lat="43.714905" lon="5.191788">
        <ele>179.651026</ele>
        <time>2017-06-08T10:52:20.000Z</time>
      </trkpt>
      <trkpt lat="43.714790" lon="5.191874">
        <ele>179.764923</ele>
        <time>2017-06-08T10:52:23.000Z</time>
      </trkpt>
      <trkpt lat="43.714706" lon="5.191935">
        <ele>179.847580</ele>
        <time>2017-06-08T10:52:25.000Z</time>
      </trkpt>
      <trkpt lat="43.714590" lon="5.192029">
        <ele>179.964708</ele>
        <time>2017-06-08T10:52:28.000Z</time>
      </trkpt>
      <trkpt lat="43.714485" lon="5.192126">
        <ele>180.074712</ele>
        <time>2017-06-08T10:52:31.000Z</time>
      </trkpt>
      <trkpt lat="43.714386" lon="5.192231">
        <ele>180.183397</ele>
        <time>2017-06-08T10:52:34.000Z</time>
      </trkpt>
      <trkpt lat="43.714290" lon="5.192343">
        <ele>180.292809</ele>
        <time>2017-06-08T10:52:38.000Z</time>
      </trkpt>
      <trkpt lat="43.714195" lon="5.192456">
        <ele>180.401966</ele>
        <time>2017-06-08T10:52:40.000Z</time>
      </trkpt>
      <trkpt lat="43.714096" lon="5.192555">
        <ele>180.508395</ele>
        <time>2017-06-08T10:52:43.000Z</time>
      </trkpt>
      <trkpt lat="43.713993" lon="5.192650">
        <ele>180.616250</ele>
        <time>2017-06-08T10:52:46.000Z</time>
      </trkpt>
      <trkpt lat="43.713917" lon="5.192715">
        <ele>180.694098</ele>
        <time>2017-06-08T10:52:48.000Z</time>
      </trkpt>
      <trkpt lat="43.713840" lon="5.192787">
        <ele>180.775072</ele>
        <time>2017-06-08T10:52:50.000Z</time>
      </trkpt>
      <trkpt lat="43.713768" lon="5.192861">
        <ele>180.853220</ele>
        <time>2017-06-08T10:52:52.000Z</time>
      </trkpt>
      <trkpt lat="43.713660" lon="5.192975">
        <ele>180.952162</ele>
        <time>2017-06-08T10:52:55.000Z</time>
      </trkpt>
      <trkpt lat="43.713560" lon="5.193093">
        <ele>181.044026</ele>
        <time>2017-06-08T10:52:58.000Z</time>
      </trkpt>
      <trkpt lat="43.713455" lon="5.193212">
        <ele>181.138896</ele>
        <time>2017-06-08T10:53:01.000Z</time>
      </trkpt>
      <trkpt lat="43.713387" lon="5.193295">
        <ele>181.202278</ele>
        <time>2017-06-08T10:53:03.000Z</time>
      </trkpt>
      <trkpt lat="43.713310" lon="5.193367">
        <ele>181.267236</ele>
        <time>2017-06-08T10:53:05.000Z</time>
      </trkpt>
      <trkpt lat="43.713234" lon="5.193441">
        <ele>181.332193</ele>
        <time>2017-06-08T10:53:07.000Z</time>
      </trkpt>
      <trkpt lat="43.713130" lon="5.193566">
        <ele>181.428484</ele>
        <time>2017-06-08T10:53:10.000Z</time>
      </trkpt>
      <trkpt lat="43.713030" lon="5.193695">
        <ele>181.524048</ele>
        <time>2017-06-08T10:53:13.000Z</time>
      </trkpt>
      <trkpt lat="43.712933" lon="5.193804">
        <ele>181.611392</ele>
        <time>2017-06-08T10:53:16.000Z</time>
      </trkpt>
      <trkpt lat="43.712830" lon="5.193914">
        <ele>181.702338</ele>
        <time>2017-06-08T10:53:19.000Z</time>
      </trkpt>
      <trkpt lat="43.712753" lon="5.193991">
        <ele>181.768744</ele>
        <time>2017-06-08T10:53:21.000Z</time>
      </trkpt>
      <trkpt lat="43.712670" lon="5.194056">
        <ele>181.835406</ele>
        <time>2017-06-08T10:53:23.000Z</time>
      </trkpt>
      <trkpt lat="43.712560" lon="5.194159">
        <ele>181.928245</ele>
        <time>2017-06-08T10:53:26.000Z</time>
      </trkpt>
      <trkpt lat="43.712480" lon="5.194223">
        <ele>181.992836</ele>
        <time>2017-06-08T10:53:28.000Z</time>
      </trkpt>
      <trkpt lat="43.712400" lon="5.194292">
        <ele>182.058728</ele>
        <time>2017-06-08T10:53:30.000Z</time>
      </trkpt>
      <trkpt lat="43.712320" lon="5.194359">
        <ele>182.124091</ele>
        <time>2017-06-08T10:53:32.000Z</time>
      </trkpt>
      <trkpt lat="43.712240" lon="5.194428">
        <ele>182.519057</ele>
        <time>2017-06-08T10:53:34.000Z</time>
      </trkpt>
      <trkpt lat="43.712154" lon="5.194491">
        <ele>182.963786</ele>
        <time>2017-06-08T10:53:36.000Z</time>
      </trkpt>
      <trkpt lat="43.712070" lon="5.194544">
        <ele>183.385715</ele>
        <time>2017-06-08T10:53:38.000Z</time>
      </trkpt>
      <trkpt lat="43.711952" lon="5.194634">
        <ele>184.001512</ele>
        <time>2017-06-08T10:53:41.000Z</time>
      </trkpt>
      <trkpt lat="43.711826" lon="5.194689">
        <ele>184.605330</ele>
        <time>2017-06-08T10:53:44.000Z</time>
      </trkpt>
      <trkpt lat="43.711704" lon="5.194739">
        <ele>185.186836</ele>
        <time>2017-06-08T10:53:47.000Z</time>
      </trkpt>
      <trkpt lat="43.711580" lon="5.194796">
        <ele>185.783994</ele>
        <time>2017-06-08T10:53:50.000Z</time>
      </trkpt>
      <trkpt lat="43.711487" lon="5.194833">
        <ele>186.226240</ele>
        <time>2017-06-08T10:53:52.000Z</time>
      </trkpt>
      <trkpt lat="43.711370" lon="5.194891">
        <ele>186.794235</ele>
        <time>2017-06-08T10:53:55.000Z</time>
      </trkpt>
      <trkpt lat="43.711258" lon="5.194933">
        <ele>187.324560</ele>
        <time>2017-06-08T10:53:58.000Z</time>
      </trkpt>
      <trkpt lat="43.711150" lon="5.194976">
        <ele>187.838166</ele>
        <time>2017-06-08T10:54:01.000Z</time>
      </trkpt>
      <trkpt lat="43.711063" lon="5.195006">
        <ele>188.247931</ele>
        <time>2017-06-08T10:54:04.000Z</time>
      </trkpt>
      <trkpt lat="43.710945" lon="5.195011">
        <ele>188.787458</ele>
        <time>2017-06-08T10:54:08.000Z</time>
      </trkpt>
      <trkpt lat="43.710842" lon="5.195006">
        <ele>189.258470</ele>
        <time>2017-06-08T10:54:12.000Z</time>
      </trkpt>
      <trkpt lat="43.710750" lon="5.194989">
        <ele>189.682655</ele>
        <time>2017-06-08T10:54:16.000Z</time>
      </trkpt>
      <trkpt lat="43.710674" lon="5.194918">
        <ele>190.101760</ele>
        <time>2017-06-08T10:54:20.000Z</time>
      </trkpt>
      <trkpt lat="43.710636" lon="5.194792">
        <ele>190.479696</ele>
        <time>2017-06-08T10:54:24.000Z</time>
      </trkpt>
      <trkpt lat="43.710606" lon="5.194661">
        <ele>190.769577</ele>
        <time>2017-06-08T10:54:28.000Z</time>
      </trkpt>
      <trkpt lat="43.710537" lon="5.194563">
        <ele>191.058170</ele>
        <time>2017-06-08T10:54:31.000Z</time>
      </trkpt>
      <trkpt lat="43.710453" lon="5.194503">
        <ele>191.334057</ele>
        <time>2017-06-08T10:54:34.000Z</time>
      </trkpt>
      <trkpt lat="43.710354" lon="5.194482">
        <ele>191.626350</ele>
        <time>2017-06-08T10:54:37.000Z</time>
      </trkpt>
      <trkpt lat="43.710236" lon="5.194504">
        <ele>191.973829</ele>
        <time>2017-06-08T10:54:40.000Z</time>
      </trkpt>
      <trkpt lat="43.710130" lon="5.194584">
        <ele>192.326212</ele>
        <time>2017-06-08T10:54:43.000Z</time>
      </trkpt>
      <trkpt lat="43.710056" lon="5.194706">
        <ele>192.662177</ele>
        <time>2017-06-08T10:54:46.000Z</time>
      </trkpt>
      <trkpt lat="43.710030" lon="5.194853">
        <ele>192.981424</ele>
        <time>2017-06-08T10:54:49.000Z</time>
      </trkpt>
      <trkpt lat="43.710045" lon="5.195005">
        <ele>193.305045</ele>
        <time>2017-06-08T10:54:52.000Z</time>
      </trkpt>
      <trkpt lat="43.710056" lon="5.195159">
        <ele>193.631493</ele>
        <time>2017-06-08T10:54:55.000Z</time>
      </trkpt>
      <trkpt lat="43.710010" lon="5.195311">
        <ele>193.979107</ele>
        <time>2017-06-08T10:54:58.000Z</time>
      </trkpt>
      <trkpt lat="43.709950" lon="5.195457">
        <ele>194.333392</ele>
        <time>2017-06-08T10:55:01.000Z</time>
      </trkpt>
      <trkpt lat="43.709908" lon="5.195586">
        <ele>194.631850</ele>
        <time>2017-06-08T10:55:04.000Z</time>
      </trkpt>
      <trkpt lat="43.709860" lon="5.195711">
        <ele>194.930438</ele>
        <time>2017-06-08T10:55:08.000Z</time>
      </trkpt>
      <trkpt lat="43.709810" lon="5.195842">
        <ele>195.242944</ele>
        <time>2017-06-08T10:55:12.000Z</time>
      </trkpt>
      <trkpt lat="43.709763" lon="5.195950">
        <ele>195.508875</ele>
        <time>2017-06-08T10:55:15.000Z</time>
      </trkpt>
      <trkpt lat="43.709710" lon="5.196067">
        <ele>195.599499</ele>
        <time>2017-06-08T10:55:18.000Z</time>
      </trkpt>
      <trkpt lat="43.709656" lon="5.196196">
        <ele>195.599263</ele>
        <time>2017-06-08T10:55:21.000Z</time>
      </trkpt>
      <trkpt lat="43.709610" lon="5.196316">
        <ele>195.599048</ele>
        <time>2017-06-08T10:55:24.000Z</time>
      </trkpt>
      <trkpt lat="43.709557" lon="5.196439">
        <ele>195.598821</ele>
        <time>2017-06-08T10:55:28.000Z</time>
      </trkpt>
      <trkpt lat="43.709503" lon="5.196557">
        <ele>195.598600</ele>
        <time>2017-06-08T10:55:32.000Z</time>
      </trkpt>
      <trkpt lat="43.709442" lon="5.196678">
        <ele>195.598366</ele>
        <time>2017-06-08T10:55:35.000Z</time>
      </trkpt>
      <trkpt lat="43.709373" lon="5.196814">
        <ele>195.598103</ele>
        <time>2017-06-08T10:55:38.000Z</time>
      </trkpt>
      <trkpt lat="43.709305" lon="5.196954">
        <ele>195.597836</ele>
        <time>2017-06-08T10:55:41.000Z</time>
      </trkpt>
      <trkpt lat="43.709230" lon="5.197099">
        <ele>195.597553</ele>
        <time>2017-06-08T10:55:44.000Z</time>
      </trkpt>
      <trkpt lat="43.709160" lon="5.197245">
        <ele>195.597276</ele>
        <time>2017-06-08T10:55:47.000Z</time>
      </trkpt>
      <trkpt lat="43.709100" lon="5.197405">
        <ele>195.596990</ele>
        <time>2017-06-08T10:55:50.000Z</time>
      </trkpt>
      <trkpt lat="43.709040" lon="5.197550">
        <ele>195.596725</ele>
        <time>2017-06-08T10:55:53.000Z</time>
      </trkpt>
      <trkpt lat="43.708990" lon="5.197652">
        <ele>195.596530</ele>
        <time>2017-06-08T10:55:55.000Z</time>
      </trkpt>
      <trkpt lat="43.708930" lon="5.197748">
        <ele>195.596329</ele>
        <time>2017-06-08T10:55:57.000Z</time>
      </trkpt>
      <trkpt lat="43.708878" lon="5.197853">
        <ele>195.596128</ele>
        <time>2017-06-08T10:55:59.000Z</time>
      </trkpt>
      <trkpt lat="43.708813" lon="5.197960">
        <ele>195.595906</ele>
        <time>2017-06-08T10:56:01.000Z</time>
      </trkpt>
      <trkpt lat="43.708750" lon="5.198062">
        <ele>195.587976</ele>
        <time>2017-06-08T10:56:03.000Z</time>
      </trkpt>
      <trkpt lat="43.708683" lon="5.198167">
        <ele>195.468637</ele>
        <time>2017-06-08T10:56:05.000Z</time>
      </trkpt>
      <trkpt lat="43.708610" lon="5.198278">
        <ele>195.340770</ele>
        <time>2017-06-08T10:56:07.000Z</time>
      </trkpt>
      <trkpt lat="43.708546" lon="5.198386">
        <ele>195.221775</ele>
        <time>2017-06-08T10:56:09.000Z</time>
      </trkpt>
      <trkpt lat="43.708473" lon="5.198502">
        <ele>195.090725</ele>
        <time>2017-06-08T10:56:11.000Z</time>
      </trkpt>
      <trkpt lat="43.708397" lon="5.198613">
        <ele>194.960451</ele>
        <time>2017-06-08T10:56:13.000Z</time>
      </trkpt>
      <trkpt lat="43.708320" lon="5.198726">
        <ele>194.828130</ele>
        <time>2017-06-08T10:56:15.000Z</time>
      </trkpt>
      <trkpt lat="43.708244" lon="5.198835">
        <ele>194.699088</ele>
        <time>2017-06-08T10:56:17.000Z</time>
      </trkpt>
      <trkpt lat="43.708160" lon="5.198931">
        <ele>194.570654</ele>
        <time>2017-06-08T10:56:19.000Z</time>
      </trkpt>
      <trkpt lat="43.708084" lon="5.199038">
        <ele>194.442833</ele>
        <time>2017-06-08T10:56:21.000Z</time>
      </trkpt>
      <trkpt lat="43.708008" lon="5.199145">
        <ele>194.315013</ele>
        <time>2017-06-08T10:56:23.000Z</time>
      </trkpt>
      <trkpt lat="43.707924" lon="5.199260">
        <ele>194.175707</ele>
        <time>2017-06-08T10:56:25.000Z</time>
      </trkpt>
      <trkpt lat="43.707836" lon="5.199376">
        <ele>194.032424</ele>
        <time>2017-06-08T10:56:27.000Z</time>
      </trkpt>
      <trkpt lat="43.707760" lon="5.199497">
        <ele>193.895838</ele>
        <time>2017-06-08T10:56:29.000Z</time>
      </trkpt>
      <trkpt lat="43.707676" lon="5.199619">
        <ele>193.752273</ele>
        <time>2017-06-08T10:56:31.000Z</time>
      </trkpt>
      <trkpt lat="43.707600" lon="5.199733">
        <ele>193.620132</ele>
        <time>2017-06-08T10:56:33.000Z</time>
      </trkpt>
      <trkpt lat="43.707516" lon="5.199852">
        <ele>193.478407</ele>
        <time>2017-06-08T10:56:35.000Z</time>
      </trkpt>
      <trkpt lat="43.707436" lon="5.199974">
        <ele>193.476140</ele>
        <time>2017-06-08T10:56:37.000Z</time>
      </trkpt>
      <trkpt lat="43.707350" lon="5.200103">
        <ele>193.476786</ele>
        <time>2017-06-08T10:56:39.000Z</time>
      </trkpt>
      <trkpt lat="43.707275" lon="5.200238">
        <ele>193.477413</ele>
        <time>2017-06-08T10:56:41.000Z</time>
      </trkpt>
      <trkpt lat="43.707195" lon="5.200374">
        <ele>193.478059</ele>
        <time>2017-06-08T10:56:43.000Z</time>
      </trkpt>
      <trkpt lat="43.707115" lon="5.200511">
        <ele>193.478707</ele>
        <time>2017-06-08T10:56:45.000Z</time>
      </trkpt>
      <trkpt lat="43.707035" lon="5.200656">
        <ele>193.479379</ele>
        <time>2017-06-08T10:56:47.000Z</time>
      </trkpt>
      <trkpt lat="43.706950" lon="5.200797">
        <ele>193.480055</ele>
        <time>2017-06-08T10:56:49.000Z</time>
      </trkpt>
      <trkpt lat="43.706867" lon="5.200940">
        <ele>193.480730</ele>
        <time>2017-06-08T10:56:51.000Z</time>
      </trkpt>
      <trkpt lat="43.706783" lon="5.201077">
        <ele>193.481392</ele>
        <time>2017-06-08T10:56:53.000Z</time>
      </trkpt>
      <trkpt lat="43.706710" lon="5.201211">
        <ele>193.482010</ele>
        <time>2017-06-08T10:56:55.000Z</time>
      </trkpt>
      <trkpt lat="43.706635" lon="5.201335">
        <ele>193.482605</ele>
        <time>2017-06-08T10:56:57.000Z</time>
      </trkpt>
      <trkpt lat="43.706562" lon="5.201466">
        <ele>193.483214</ele>
        <time>2017-06-08T10:56:59.000Z</time>
      </trkpt>
      <trkpt lat="43.706490" lon="5.201599">
        <ele>193.483826</ele>
        <time>2017-06-08T10:57:01.000Z</time>
      </trkpt>
      <trkpt lat="43.706420" lon="5.201735">
        <ele>193.484440</ele>
        <time>2017-06-08T10:57:03.000Z</time>
      </trkpt>
      <trkpt lat="43.706352" lon="5.201865">
        <ele>193.647896</ele>
        <time>2017-06-08T10:57:05.000Z</time>
      </trkpt>
      <trkpt lat="43.706284" lon="5.201997">
        <ele>193.948833</ele>
        <time>2017-06-08T10:57:07.000Z</time>
      </trkpt>
      <trkpt lat="43.706220" lon="5.202126">
        <ele>194.239318</ele>
        <time>2017-06-08T10:57:09.000Z</time>
      </trkpt>
      <trkpt lat="43.706154" lon="5.202258">
        <ele>194.537303</ele>
        <time>2017-06-08T10:57:11.000Z</time>
      </trkpt>
      <trkpt lat="43.706097" lon="5.202395">
        <ele>194.830782</ele>
        <time>2017-06-08T10:57:13.000Z</time>
      </trkpt>
      <trkpt lat="43.706036" lon="5.202525">
        <ele>195.118534</ele>
        <time>2017-06-08T10:57:15.000Z</time>
      </trkpt>
      <trkpt lat="43.705980" lon="5.202653">
        <ele>195.396317</ele>
        <time>2017-06-08T10:57:17.000Z</time>
      </trkpt>
      <trkpt lat="43.705917" lon="5.202786">
        <ele>195.691540</ele>
        <time>2017-06-08T10:57:19.000Z</time>
      </trkpt>
      <trkpt lat="43.705864" lon="5.202920">
        <ele>195.975134</ele>
        <time>2017-06-08T10:57:21.000Z</time>
      </trkpt>
      <trkpt lat="43.705814" lon="5.203053">
        <ele>196.253462</ele>
        <time>2017-06-08T10:57:23.000Z</time>
      </trkpt>
      <trkpt lat="43.705770" lon="5.203181">
        <ele>196.516613</ele>
        <time>2017-06-08T10:57:25.000Z</time>
      </trkpt>
      <trkpt lat="43.705723" lon="5.203303">
        <ele>196.773281</ele>
        <time>2017-06-08T10:57:27.000Z</time>
      </trkpt>
      <trkpt lat="43.705677" lon="5.203427">
        <ele>197.032049</ele>
        <time>2017-06-08T10:57:29.000Z</time>
      </trkpt>
      <trkpt lat="43.705635" lon="5.203547">
        <ele>197.279586</ele>
        <time>2017-06-08T10:57:31.000Z</time>
      </trkpt>
      <trkpt lat="43.705585" lon="5.203658">
        <ele>197.522409</ele>
        <time>2017-06-08T10:57:33.000Z</time>
      </trkpt>
      <trkpt lat="43.705540" lon="5.203775">
        <ele>197.768470</ele>
        <time>2017-06-08T10:57:35.000Z</time>
      </trkpt>
      <trkpt lat="43.705494" lon="5.203902">
        <ele>198.032206</ele>
        <time>2017-06-08T10:57:37.000Z</time>
      </trkpt>
      <trkpt lat="43.705444" lon="5.204024">
        <ele>198.239662</ele>
        <time>2017-06-08T10:57:39.000Z</time>
      </trkpt>
      <trkpt lat="43.705402" lon="5.204145">
        <ele>198.418851</ele>
        <time>2017-06-08T10:57:41.000Z</time>
      </trkpt>
      <trkpt lat="43.705360" lon="5.204257">
        <ele>198.587288</ele>
        <time>2017-06-08T10:57:43.000Z</time>
      </trkpt>
      <trkpt lat="43.705315" lon="5.204378">
        <ele>198.768944</ele>
        <time>2017-06-08T10:57:45.000Z</time>
      </trkpt>
      <trkpt lat="43.705270" lon="5.204496">
        <ele>198.947047</ele>
        <time>2017-06-08T10:57:47.000Z</time>
      </trkpt>
      <trkpt lat="43.705215" lon="5.204611">
        <ele>199.131127</ele>
        <time>2017-06-08T10:57:49.000Z</time>
      </trkpt>
      <trkpt lat="43.705162" lon="5.204731">
        <ele>199.318858</ele>
        <time>2017-06-08T10:57:51.000Z</time>
      </trkpt>
      <trkpt lat="43.705110" lon="5.204845">
        <ele>199.498809</ele>
        <time>2017-06-08T10:57:53.000Z</time>
      </trkpt>
      <trkpt lat="43.705055" lon="5.204958">
        <ele>199.680669</ele>
        <time>2017-06-08T10:57:55.000Z</time>
      </trkpt>
      <trkpt lat="43.704998" lon="5.205072">
        <ele>199.865713</ele>
        <time>2017-06-08T10:57:57.000Z</time>
      </trkpt>
      <trkpt lat="43.704940" lon="5.205175">
        <ele>200.040010</ele>
        <time>2017-06-08T10:57:59.000Z</time>
      </trkpt>
      <trkpt lat="43.704876" lon="5.205277">
        <ele>200.220317</ele>
        <time>2017-06-08T10:58:01.000Z</time>
      </trkpt>
      <trkpt lat="43.704807" lon="5.205368">
        <ele>200.396370</ele>
        <time>2017-06-08T10:58:03.000Z</time>
      </trkpt>
      <trkpt lat="43.704742" lon="5.205457">
        <ele>200.565264</ele>
        <time>2017-06-08T10:58:05.000Z</time>
      </trkpt>
      <trkpt lat="43.704674" lon="5.205548">
        <ele>200.739986</ele>
        <time>2017-06-08T10:58:07.000Z</time>
      </trkpt>
      <trkpt lat="43.704605" lon="5.205633">
        <ele>200.910610</ele>
        <time>2017-06-08T10:58:09.000Z</time>
      </trkpt>
      <trkpt lat="43.704536" lon="5.205716">
        <ele>201.079471</ele>
        <time>2017-06-08T10:58:11.000Z</time>
      </trkpt>
      <trkpt lat="43.704430" lon="5.205825">
        <ele>201.323382</ele>
        <time>2017-06-08T10:58:14.000Z</time>
      </trkpt>
      <trkpt lat="43.704357" lon="5.205899">
        <ele>201.563724</ele>
        <time>2017-06-08T10:58:16.000Z</time>
      </trkpt>
      <trkpt lat="43.704277" lon="5.205975">
        <ele>201.945604</ele>
        <time>2017-06-08T10:58:18.000Z</time>
      </trkpt>
      <trkpt lat="43.704197" lon="5.206045">
        <ele>202.318087</ele>
        <time>2017-06-08T10:58:20.000Z</time>
      </trkpt>
      <trkpt lat="43.704117" lon="5.206115">
        <ele>202.690570</ele>
        <time>2017-06-08T10:58:22.000Z</time>
      </trkpt>
      <trkpt lat="43.704037" lon="5.206176">
        <ele>203.050019</ele>
        <time>2017-06-08T10:58:24.000Z</time>
      </trkpt>
      <trkpt lat="43.703950" lon="5.206242">
        <ele>203.440458</ele>
        <time>2017-06-08T10:58:26.000Z</time>
      </trkpt>
      <trkpt lat="43.703865" lon="5.206301">
        <ele>203.814671</ele>
        <time>2017-06-08T10:58:28.000Z</time>
      </trkpt>
      <trkpt lat="43.703773" lon="5.206352">
        <ele>204.204670</ele>
        <time>2017-06-08T10:58:30.000Z</time>
      </trkpt>
      <trkpt lat="43.703686" lon="5.206399">
        <ele>204.572187</ele>
        <time>2017-06-08T10:58:32.000Z</time>
      </trkpt>
      <trkpt lat="43.703594" lon="5.206442">
        <ele>204.954305</ele>
        <time>2017-06-08T10:58:34.000Z</time>
      </trkpt>
      <trkpt lat="43.703506" lon="5.206485">
        <ele>205.321545</ele>
        <time>2017-06-08T10:58:36.000Z</time>
      </trkpt>
      <trkpt lat="43.703415" lon="5.206513">
        <ele>205.688373</ele>
        <time>2017-06-08T10:58:38.000Z</time>
      </trkpt>
      <trkpt lat="43.703316" lon="5.206552">
        <ele>206.093418</ele>
        <time>2017-06-08T10:58:40.000Z</time>
      </trkpt>
      <trkpt lat="43.703228" lon="5.206581">
        <ele>206.449380</ele>
        <time>2017-06-08T10:58:42.000Z</time>
      </trkpt>
      <trkpt lat="43.703133" lon="5.206613">
        <ele>206.834119</ele>
        <time>2017-06-08T10:58:44.000Z</time>
      </trkpt>
      <trkpt lat="43.703037" lon="5.206639">
        <ele>207.219042</ele>
        <time>2017-06-08T10:58:46.000Z</time>
      </trkpt>
      <trkpt lat="43.702953" lon="5.206676">
        <ele>207.565927</ele>
        <time>2017-06-08T10:58:48.000Z</time>
      </trkpt>
      <trkpt lat="43.702860" lon="5.206708">
        <ele>207.943025</ele>
        <time>2017-06-08T10:58:50.000Z</time>
      </trkpt>
      <trkpt lat="43.702774" lon="5.206739">
        <ele>208.292728</ele>
        <time>2017-06-08T10:58:52.000Z</time>
      </trkpt>
      <trkpt lat="43.702682" lon="5.206768">
        <ele>208.606118</ele>
        <time>2017-06-08T10:58:54.000Z</time>
      </trkpt>
      <trkpt lat="43.702583" lon="5.206780">
        <ele>208.856329</ele>
        <time>2017-06-08T10:58:56.000Z</time>
      </trkpt>
      <trkpt lat="43.702488" lon="5.206779">
        <ele>209.095521</ele>
        <time>2017-06-08T10:58:58.000Z</time>
      </trkpt>
      <trkpt lat="43.702390" lon="5.206793">
        <ele>209.343571</ele>
        <time>2017-06-08T10:59:00.000Z</time>
      </trkpt>
      <trkpt lat="43.702286" lon="5.206806">
        <ele>209.606482</ele>
        <time>2017-06-08T10:59:02.000Z</time>
      </trkpt>
      <trkpt lat="43.702180" lon="5.206815">
        <ele>209.873864</ele>
        <time>2017-06-08T10:59:04.000Z</time>
      </trkpt>
      <trkpt lat="43.702080" lon="5.206815">
        <ele>210.125638</ele>
        <time>2017-06-08T10:59:06.000Z</time>
      </trkpt>
      <trkpt lat="43.701980" lon="5.206820">
        <ele>210.377576</ele>
        <time>2017-06-08T10:59:08.000Z</time>
      </trkpt>
      <trkpt lat="43.701874" lon="5.206832">
        <ele>210.645348</ele>
        <time>2017-06-08T10:59:10.000Z</time>
      </trkpt>
      <trkpt lat="43.701775" lon="5.206837">
        <ele>210.894770</ele>
        <time>2017-06-08T10:59:12.000Z</time>
      </trkpt>
      <trkpt lat="43.701675" lon="5.206840">
        <ele>211.146602</ele>
        <time>2017-06-08T10:59:14.000Z</time>
      </trkpt>
      <trkpt lat="43.701576" lon="5.206841">
        <ele>211.395865</ele>
        <time>2017-06-08T10:59:16.000Z</time>
      </trkpt>
      <trkpt lat="43.701477" lon="5.206848">
        <ele>211.645446</ele>
        <time>2017-06-08T10:59:18.000Z</time>
      </trkpt>
      <trkpt lat="43.701385" lon="5.206858">
        <ele>211.877791</ele>
        <time>2017-06-08T10:59:20.000Z</time>
      </trkpt>
      <trkpt lat="43.701294" lon="5.206864">
        <ele>212.107165</ele>
        <time>2017-06-08T10:59:22.000Z</time>
      </trkpt>
      <trkpt lat="43.701200" lon="5.206865">
        <ele>212.343839</ele>
        <time>2017-06-08T10:59:24.000Z</time>
      </trkpt>
      <trkpt lat="43.701100" lon="5.206878">
        <ele>212.596722</ele>
        <time>2017-06-08T10:59:26.000Z</time>
      </trkpt>
      <trkpt lat="43.701000" lon="5.206878">
        <ele>212.848496</ele>
        <time>2017-06-08T10:59:28.000Z</time>
      </trkpt>
      <trkpt lat="43.700905" lon="5.206913">
        <ele>213.047906</ele>
        <time>2017-06-08T10:59:30.000Z</time>
      </trkpt>
      <trkpt lat="43.700820" lon="5.206964">
        <ele>213.106527</ele>
        <time>2017-06-08T10:59:32.000Z</time>
      </trkpt>
      <trkpt lat="43.700690" lon="5.206997">
        <ele>213.190151</ele>
        <time>2017-06-08T10:59:35.000Z</time>
      </trkpt>
      <trkpt lat="43.700600" lon="5.207015">
        <ele>213.247686</ele>
        <time>2017-06-08T10:59:37.000Z</time>
      </trkpt>
      <trkpt lat="43.700510" lon="5.207024">
        <ele>213.304778</ele>
        <time>2017-06-08T10:59:39.000Z</time>
      </trkpt>
      <trkpt lat="43.700370" lon="5.207033">
        <ele>213.393451</ele>
        <time>2017-06-08T10:59:42.000Z</time>
      </trkpt>
      <trkpt lat="43.700245" lon="5.207050">
        <ele>213.472920</ele>
        <time>2017-06-08T10:59:45.000Z</time>
      </trkpt>
      <trkpt lat="43.700120" lon="5.207058">
        <ele>213.552091</ele>
        <time>2017-06-08T10:59:48.000Z</time>
      </trkpt>
      <trkpt lat="43.699993" lon="5.207058">
        <ele>213.632444</ele>
        <time>2017-06-08T10:59:51.000Z</time>
      </trkpt>
      <trkpt lat="43.699856" lon="5.207066">
        <ele>213.719201</ele>
        <time>2017-06-08T10:59:54.000Z</time>
      </trkpt>
      <trkpt lat="43.699764" lon="5.207068">
        <ele>213.777416</ele>
        <time>2017-06-08T10:59:56.000Z</time>
      </trkpt>
      <trkpt lat="43.699670" lon="5.207073">
        <ele>213.836934</ele>
        <time>2017-06-08T10:59:58.000Z</time>
      </trkpt>
      <trkpt lat="43.699577" lon="5.207085">
        <ele>213.896030</ele>
        <time>2017-06-08T11:00:00.000Z</time>
      </trkpt>
      <trkpt lat="43.699486" lon="5.207099">
        <ele>213.953961</ele>
        <time>2017-06-08T11:00:02.000Z</time>
      </trkpt>
      <trkpt lat="43.699356" lon="5.207106">
        <ele>214.036274</ele>
        <time>2017-06-08T11:00:05.000Z</time>
      </trkpt>
      <trkpt lat="43.699220" lon="5.207104">
        <ele>214.122326</ele>
        <time>2017-06-08T11:00:08.000Z</time>
      </trkpt>
      <trkpt lat="43.699093" lon="5.207115">
        <ele>214.300822</ele>
        <time>2017-06-08T11:00:11.000Z</time>
      </trkpt>
      <trkpt lat="43.698963" lon="5.207131">
        <ele>214.627989</ele>
        <time>2017-06-08T11:00:14.000Z</time>
      </trkpt>
      <trkpt lat="43.698837" lon="5.207140">
        <ele>214.944262</ele>
        <time>2017-06-08T11:00:17.000Z</time>
      </trkpt>
      <trkpt lat="43.698746" lon="5.207144">
        <ele>215.172493</ele>
        <time>2017-06-08T11:00:19.000Z</time>
      </trkpt>
      <trkpt lat="43.698616" lon="5.207153">
        <ele>215.498780</ele>
        <time>2017-06-08T11:00:22.000Z</time>
      </trkpt>
      <trkpt lat="43.698524" lon="5.207161">
        <ele>215.729858</ele>
        <time>2017-06-08T11:00:24.000Z</time>
      </trkpt>
      <trkpt lat="43.698433" lon="5.207138">
        <ele>215.961751</ele>
        <time>2017-06-08T11:00:26.000Z</time>
      </trkpt>
      <trkpt lat="43.698350" lon="5.207094">
        <ele>216.184571</ele>
        <time>2017-06-08T11:00:28.000Z</time>
      </trkpt>
      <trkpt lat="43.698257" lon="5.207092">
        <ele>216.417728</ele>
        <time>2017-06-08T11:00:30.000Z</time>
      </trkpt>
      <trkpt lat="43.698166" lon="5.207100">
        <ele>216.646304</ele>
        <time>2017-06-08T11:00:32.000Z</time>
      </trkpt>
      <trkpt lat="43.698074" lon="5.207104">
        <ele>216.877040</ele>
        <time>2017-06-08T11:00:34.000Z</time>
      </trkpt>
      <trkpt lat="43.697975" lon="5.207110">
        <ele>217.125448</ele>
        <time>2017-06-08T11:00:36.000Z</time>
      </trkpt>
      <trkpt lat="43.697880" lon="5.207129">
        <ele>217.366068</ele>
        <time>2017-06-08T11:00:38.000Z</time>
      </trkpt>
      <trkpt lat="43.697790" lon="5.207135">
        <ele>217.591938</ele>
        <time>2017-06-08T11:00:40.000Z</time>
      </trkpt>
      <trkpt lat="43.697697" lon="5.207136">
        <ele>217.825075</ele>
        <time>2017-06-08T11:00:42.000Z</time>
      </trkpt>
      <trkpt lat="43.697605" lon="5.207151">
        <ele>218.057294</ele>
        <time>2017-06-08T11:00:44.000Z</time>
      </trkpt>
      <trkpt lat="43.697514" lon="5.207145">
        <ele>218.285668</ele>
        <time>2017-06-08T11:00:46.000Z</time>
      </trkpt>
      <trkpt lat="43.697384" lon="5.207163">
        <ele>218.613177</ele>
        <time>2017-06-08T11:00:49.000Z</time>
      </trkpt>
      <trkpt lat="43.697250" lon="5.207142">
        <ele>218.746408</ele>
        <time>2017-06-08T11:00:52.000Z</time>
      </trkpt>
      <trkpt lat="43.697132" lon="5.207138">
        <ele>218.820056</ele>
        <time>2017-06-08T11:00:55.000Z</time>
      </trkpt>
      <trkpt lat="43.697002" lon="5.207161">
        <ele>218.901830</ele>
        <time>2017-06-08T11:00:58.000Z</time>
      </trkpt>
      <trkpt lat="43.696915" lon="5.207181">
        <ele>218.956858</ele>
        <time>2017-06-08T11:01:00.000Z</time>
      </trkpt>
      <trkpt lat="43.696790" lon="5.207216">
        <ele>219.036433</ele>
        <time>2017-06-08T11:01:03.000Z</time>
      </trkpt>
      <trkpt lat="43.696660" lon="5.207222">
        <ele>219.117591</ele>
        <time>2017-06-08T11:01:06.000Z</time>
      </trkpt>
      <trkpt lat="43.696564" lon="5.207209">
        <ele>219.177776</ele>
        <time>2017-06-08T11:01:08.000Z</time>
      </trkpt>
      <trkpt lat="43.696470" lon="5.207195">
        <ele>219.236766</ele>
        <time>2017-06-08T11:01:10.000Z</time>
      </trkpt>
      <trkpt lat="43.696370" lon="5.207191">
        <ele>219.299187</ele>
        <time>2017-06-08T11:01:12.000Z</time>
      </trkpt>
      <trkpt lat="43.696278" lon="5.207184">
        <ele>219.356677</ele>
        <time>2017-06-08T11:01:14.000Z</time>
      </trkpt>
      <trkpt lat="43.696180" lon="5.207181">
        <ele>219.417839</ele>
        <time>2017-06-08T11:01:16.000Z</time>
      </trkpt>
      <trkpt lat="43.696080" lon="5.207173">
        <ele>219.480338</ele>
        <time>2017-06-08T11:01:18.000Z</time>
      </trkpt>
      <trkpt lat="43.695988" lon="5.207170">
        <ele>219.537757</ele>
        <time>2017-06-08T11:01:20.000Z</time>
      </trkpt>
      <trkpt lat="43.695890" lon="5.207174">
        <ele>219.598930</ele>
        <time>2017-06-08T11:01:22.000Z</time>
      </trkpt>
      <trkpt lat="43.695790" lon="5.207168">
        <ele>219.661383</ele>
        <time>2017-06-08T11:01:24.000Z</time>
      </trkpt>
      <trkpt lat="43.695698" lon="5.207185">
        <ele>219.719296</ele>
        <time>2017-06-08T11:01:26.000Z</time>
      </trkpt>
      <trkpt lat="43.695602" lon="5.207203">
        <ele>219.779743</ele>
        <time>2017-06-08T11:01:28.000Z</time>
      </trkpt>
      <trkpt lat="43.695510" lon="5.207213">
        <ele>219.878300</ele>
        <time>2017-06-08T11:01:30.000Z</time>
      </trkpt>
      <trkpt lat="43.695380" lon="5.207243">
        <ele>220.052764</ele>
        <time>2017-06-08T11:01:33.000Z</time>
      </trkpt>
      <trkpt lat="43.695293" lon="5.207263">
        <ele>220.169509</ele>
        <time>2017-06-08T11:01:35.000Z</time>
      </trkpt>
      <trkpt lat="43.695160" lon="5.207293">
        <ele>220.347893</ele>
        <time>2017-06-08T11:01:38.000Z</time>
      </trkpt>
      <trkpt lat="43.695060" lon="5.207312">
        <ele>220.481510</ele>
        <time>2017-06-08T11:01:40.000Z</time>
      </trkpt>
      <trkpt lat="43.694954" lon="5.207334">
        <ele>220.623397</ele>
        <time>2017-06-08T11:01:42.000Z</time>
      </trkpt>
      <trkpt lat="43.694850" lon="5.207339">
        <ele>220.761149</ele>
        <time>2017-06-08T11:01:44.000Z</time>
      </trkpt>
      <trkpt lat="43.694756" lon="5.207346">
        <ele>220.885760</ele>
        <time>2017-06-08T11:01:46.000Z</time>
      </trkpt>
      <trkpt lat="43.694664" lon="5.207341">
        <ele>221.007638</ele>
        <time>2017-06-08T11:01:48.000Z</time>
      </trkpt>
      <trkpt lat="43.694565" lon="5.207336">
        <ele>221.138775</ele>
        <time>2017-06-08T11:01:50.000Z</time>
      </trkpt>
      <trkpt lat="43.694470" lon="5.207335">
        <ele>221.264534</ele>
        <time>2017-06-08T11:01:52.000Z</time>
      </trkpt>
      <trkpt lat="43.694370" lon="5.207326">
        <ele>221.397188</ele>
        <time>2017-06-08T11:01:54.000Z</time>
      </trkpt>
      <trkpt lat="43.694270" lon="5.207311">
        <ele>221.530338</ele>
        <time>2017-06-08T11:01:56.000Z</time>
      </trkpt>
      <trkpt lat="43.694170" lon="5.207306">
        <ele>221.662798</ele>
        <time>2017-06-08T11:01:58.000Z</time>
      </trkpt>
      <trkpt lat="43.694070" lon="5.207289">
        <ele>221.796168</ele>
        <time>2017-06-08T11:02:00.000Z</time>
      </trkpt>
      <trkpt lat="43.693966" lon="5.207268">
        <ele>221.935296</ele>
        <time>2017-06-08T11:02:02.000Z</time>
      </trkpt>
      <trkpt lat="43.693867" lon="5.207256">
        <ele>222.066849</ele>
        <time>2017-06-08T11:02:04.000Z</time>
      </trkpt>
      <trkpt lat="43.693768" lon="5.207240">
        <ele>222.189342</ele>
        <time>2017-06-08T11:02:06.000Z</time>
      </trkpt>
      <trkpt lat="43.693672" lon="5.207223">
        <ele>222.246545</ele>
        <time>2017-06-08T11:02:08.000Z</time>
      </trkpt>
      <trkpt lat="43.693573" lon="5.207208">
        <ele>222.305409</ele>
        <time>2017-06-08T11:02:10.000Z</time>
      </trkpt>
      <trkpt lat="43.693474" lon="5.207190">
        <ele>222.364426</ele>
        <time>2017-06-08T11:02:12.000Z</time>
      </trkpt>
      <trkpt lat="43.693375" lon="5.207178">
        <ele>222.423164</ele>
        <time>2017-06-08T11:02:14.000Z</time>
      </trkpt>
      <trkpt lat="43.693275" lon="5.207150">
        <ele>222.483468</ele>
        <time>2017-06-08T11:02:16.000Z</time>
      </trkpt>
      <trkpt lat="43.693180" lon="5.207114">
        <ele>222.541687</ele>
        <time>2017-06-08T11:02:18.000Z</time>
      </trkpt>
      <trkpt lat="43.693080" lon="5.207085">
        <ele>222.602077</ele>
        <time>2017-06-08T11:02:20.000Z</time>
      </trkpt>
      <trkpt lat="43.692986" lon="5.207067">
        <ele>222.658165</ele>
        <time>2017-06-08T11:02:22.000Z</time>
      </trkpt>
      <trkpt lat="43.692894" lon="5.207045">
        <ele>222.713348</ele>
        <time>2017-06-08T11:02:24.000Z</time>
      </trkpt>
      <trkpt lat="43.692772" lon="5.206996">
        <ele>222.788435</ele>
        <time>2017-06-08T11:02:27.000Z</time>
      </trkpt>
      <trkpt lat="43.692665" lon="5.206897">
        <ele>222.864524</ele>
        <time>2017-06-08T11:02:30.000Z</time>
      </trkpt>
      <trkpt lat="43.692550" lon="5.206827">
        <ele>222.938786</ele>
        <time>2017-06-08T11:02:33.000Z</time>
      </trkpt>
      <trkpt lat="43.692448" lon="5.206892">
        <ele>223.005165</ele>
        <time>2017-06-08T11:02:36.000Z</time>
      </trkpt>
      <trkpt lat="43.692364" lon="5.206994">
        <ele>223.071234</ele>
        <time>2017-06-08T11:02:40.000Z</time>
      </trkpt>
      <trkpt lat="43.692270" lon="5.207003">
        <ele>223.126925</ele>
        <time>2017-06-08T11:02:44.000Z</time>
      </trkpt>
      <trkpt lat="43.692177" lon="5.207001">
        <ele>223.181899</ele>
        <time>2017-06-08T11:02:47.000Z</time>
      </trkpt>
      <trkpt lat="43.692078" lon="5.207014">
        <ele>223.240676</ele>
        <time>2017-06-08T11:02:50.000Z</time>
      </trkpt>
      <trkpt lat="43.691970" lon="5.207010">
        <ele>223.556188</ele>
        <time>2017-06-08T11:02:53.000Z</time>
      </trkpt>
      <trkpt lat="43.691868" lon="5.206996">
        <ele>223.872019</ele>
        <time>2017-06-08T11:02:56.000Z</time>
      </trkpt>
      <trkpt lat="43.691760" lon="5.207005">
        <ele>224.205396</ele>
        <time>2017-06-08T11:02:59.000Z</time>
      </trkpt>
      <trkpt lat="43.691650" lon="5.206995">
        <ele>224.545064</ele>
        <time>2017-06-08T11:03:02.000Z</time>
      </trkpt>
      <trkpt lat="43.691544" lon="5.206977">
        <ele>224.874128</ele>
        <time>2017-06-08T11:03:05.000Z</time>
      </trkpt>
      <trkpt lat="43.691430" lon="5.206959">
        <ele>225.227672</ele>
        <time>2017-06-08T11:03:08.000Z</time>
      </trkpt>
      <trkpt lat="43.691315" lon="5.206949">
        <ele>225.582714</ele>
        <time>2017-06-08T11:03:11.000Z</time>
      </trkpt>
      <trkpt lat="43.691200" lon="5.206931">
        <ele>225.939319</ele>
        <time>2017-06-08T11:03:14.000Z</time>
      </trkpt>
      <trkpt lat="43.691074" lon="5.206926">
        <ele>226.327715</ele>
        <time>2017-06-08T11:03:17.000Z</time>
      </trkpt>
      <trkpt lat="43.690960" lon="5.206908">
        <ele>226.681258</ele>
        <time>2017-06-08T11:03:20.000Z</time>
      </trkpt>
      <trkpt lat="43.690840" lon="5.206883">
        <ele>227.055179</ele>
        <time>2017-06-08T11:03:23.000Z</time>
      </trkpt>
      <trkpt lat="43.690727" lon="5.206857">
        <ele>227.408145</ele>
        <time>2017-06-08T11:03:26.000Z</time>
      </trkpt>
      <trkpt lat="43.690620" lon="5.206837">
        <ele>227.740835</ele>
        <time>2017-06-08T11:03:29.000Z</time>
      </trkpt>
      <trkpt lat="43.690510" lon="5.206826">
        <ele>228.080657</ele>
        <time>2017-06-08T11:03:32.000Z</time>
      </trkpt>
      <trkpt lat="43.690390" lon="5.206816">
        <ele>228.451076</ele>
        <time>2017-06-08T11:03:35.000Z</time>
      </trkpt>
      <trkpt lat="43.690273" lon="5.206804">
        <ele>228.821162</ele>
        <time>2017-06-08T11:03:38.000Z</time>
      </trkpt>
      <trkpt lat="43.690163" lon="5.206797">
        <ele>229.273794</ele>
        <time>2017-06-08T11:03:41.000Z</time>
      </trkpt>
      <trkpt lat="43.690060" lon="5.206801">
        <ele>229.697341</ele>
        <time>2017-06-08T11:03:44.000Z</time>
      </trkpt>
      <trkpt lat="43.689950" lon="5.206801">
        <ele>230.149495</ele>
        <time>2017-06-08T11:03:47.000Z</time>
      </trkpt>
      <trkpt lat="43.689846" lon="5.206780">
        <ele>230.581518</ele>
        <time>2017-06-08T11:03:50.000Z</time>
      </trkpt>
      <trkpt lat="43.689743" lon="5.206718">
        <ele>231.043265</ele>
        <time>2017-06-08T11:03:54.000Z</time>
      </trkpt>
      <trkpt lat="43.689598" lon="5.206738">
        <ele>231.642242</ele>
        <time>2017-06-08T11:07:25.000Z</time>
      </trkpt>
      <trkpt lat="43.689487" lon="5.206697">
        <ele>232.114500</ele>
        <time>2017-06-08T11:07:29.000Z</time>
      </trkpt>
      <trkpt lat="43.689392" lon="5.206670">
        <ele>232.513157</ele>
        <time>2017-06-08T11:07:32.000Z</time>
      </trkpt>
      <trkpt lat="43.689297" lon="5.206661">
        <ele>232.904569</ele>
        <time>2017-06-08T11:07:35.000Z</time>
      </trkpt>
      <trkpt lat="43.689198" lon="5.206650">
        <ele>233.312818</ele>
        <time>2017-06-08T11:07:38.000Z</time>
      </trkpt>
      <trkpt lat="43.689100" lon="5.206646">
        <ele>233.715821</ele>
        <time>2017-06-08T11:07:41.000Z</time>
      </trkpt>
      <trkpt lat="43.689003" lon="5.206634">
        <ele>234.116131</ele>
        <time>2017-06-08T11:07:44.000Z</time>
      </trkpt>
      <trkpt lat="43.688908" lon="5.206616">
        <ele>234.510275</ele>
        <time>2017-06-08T11:07:47.000Z</time>
      </trkpt>
      <trkpt lat="43.688793" lon="5.206583">
        <ele>234.993050</ele>
        <time>2017-06-08T11:07:51.000Z</time>
      </trkpt>
      <trkpt lat="43.688705" lon="5.206554">
        <ele>235.364902</ele>
        <time>2017-06-08T11:07:54.000Z</time>
      </trkpt>
      <trkpt lat="43.688606" lon="5.206502">
        <ele>235.800203</ele>
        <time>2017-06-08T11:07:58.000Z</time>
      </trkpt>
      <trkpt lat="43.688522" lon="5.206441">
        <ele>236.187466</ele>
        <time>2017-06-08T11:08:02.000Z</time>
      </trkpt>
      <trkpt lat="43.688440" lon="5.206389">
        <ele>236.457531</ele>
        <time>2017-06-08T11:08:06.000Z</time>
      </trkpt>
      <trkpt lat="43.688390" lon="5.206277">
        <ele>236.742472</ele>
        <time>2017-06-08T11:08:10.000Z</time>
      </trkpt>
      <trkpt lat="43.688330" lon="5.206170">
        <ele>237.035591</ele>
        <time>2017-06-08T11:08:14.000Z</time>
      </trkpt>
      <trkpt lat="43.688267" lon="5.206083">
        <ele>237.302130</ele>
        <time>2017-06-08T11:08:19.000Z</time>
      </trkpt>
      <trkpt lat="43.688194" lon="5.205991">
        <ele>237.597809</ele>
        <time>2017-06-08T11:08:23.000Z</time>
      </trkpt>
      <trkpt lat="43.688133" lon="5.205891">
        <ele>237.881027</ele>
        <time>2017-06-08T11:08:26.000Z</time>
      </trkpt>
      <trkpt lat="43.688060" lon="5.205818">
        <ele>238.150721</ele>
        <time>2017-06-08T11:08:29.000Z</time>
      </trkpt>
      <trkpt lat="43.687943" lon="5.205813">
        <ele>238.501155</ele>
        <time>2017-06-08T11:08:32.000Z</time>
      </trkpt>
      <trkpt lat="43.687847" lon="5.205891">
        <ele>238.834487</ele>
        <time>2017-06-08T11:08:35.000Z</time>
      </trkpt>
      <trkpt lat="43.687763" lon="5.205988">
        <ele>239.162105</ele>
        <time>2017-06-08T11:08:38.000Z</time>
      </trkpt>
      <trkpt lat="43.687706" lon="5.206105">
        <ele>239.467509</ele>
        <time>2017-06-08T11:08:41.000Z</time>
      </trkpt>
      <trkpt lat="43.687620" lon="5.206212">
        <ele>239.813834</ele>
        <time>2017-06-08T11:08:45.000Z</time>
      </trkpt>
      <trkpt lat="43.687542" lon="5.206279">
        <ele>240.088725</ele>
        <time>2017-06-08T11:08:48.000Z</time>
      </trkpt>
      <trkpt lat="43.687430" lon="5.206347">
        <ele>240.454915</ele>
        <time>2017-06-08T11:08:52.000Z</time>
      </trkpt>
      <trkpt lat="43.687344" lon="5.206380">
        <ele>240.722104</ele>
        <time>2017-06-08T11:08:55.000Z</time>
      </trkpt>
      <trkpt lat="43.687237" lon="5.206412">
        <ele>241.049839</ele>
        <time>2017-06-08T11:08:59.000Z</time>
      </trkpt>
      <trkpt lat="43.687138" lon="5.206444">
        <ele>241.354207</ele>
        <time>2017-06-08T11:09:03.000Z</time>
      </trkpt>
      <trkpt lat="43.687027" lon="5.206454">
        <ele>241.817302</ele>
        <time>2017-06-08T11:09:07.000Z</time>
      </trkpt>
      <trkpt lat="43.686913" lon="5.206453">
        <ele>242.521315</ele>
        <time>2017-06-08T11:09:11.000Z</time>
      </trkpt>
      <trkpt lat="43.686794" lon="5.206443">
        <ele>243.257547</ele>
        <time>2017-06-08T11:09:15.000Z</time>
      </trkpt>
      <trkpt lat="43.686684" lon="5.206426">
        <ele>243.941073</ele>
        <time>2017-06-08T11:09:19.000Z</time>
      </trkpt>
      <trkpt lat="43.686577" lon="5.206422">
        <ele>244.602085</ele>
        <time>2017-06-08T11:09:23.000Z</time>
      </trkpt>
      <trkpt lat="43.686474" lon="5.206426">
        <ele>245.238405</ele>
        <time>2017-06-08T11:09:27.000Z</time>
      </trkpt>
      <trkpt lat="43.686375" lon="5.206401">
        <ele>245.859882</ele>
        <time>2017-06-08T11:09:31.000Z</time>
      </trkpt>
      <trkpt lat="43.686280" lon="5.206382">
        <ele>246.452652</ele>
        <time>2017-06-08T11:09:35.000Z</time>
      </trkpt>
      <trkpt lat="43.686176" lon="5.206364">
        <ele>247.099907</ele>
        <time>2017-06-08T11:09:39.000Z</time>
      </trkpt>
      <trkpt lat="43.686080" lon="5.206358">
        <ele>247.693353</ele>
        <time>2017-06-08T11:09:43.000Z</time>
      </trkpt>
      <trkpt lat="43.685978" lon="5.206342">
        <ele>248.327286</ele>
        <time>2017-06-08T11:09:47.000Z</time>
      </trkpt>
      <trkpt lat="43.685875" lon="5.206335">
        <ele>248.964123</ele>
        <time>2017-06-08T11:09:51.000Z</time>
      </trkpt>
      <trkpt lat="43.685750" lon="5.206324">
        <ele>249.737613</ele>
        <time>2017-06-08T11:09:56.000Z</time>
      </trkpt>
      <trkpt lat="43.685650" lon="5.206329">
        <ele>250.355559</ele>
        <time>2017-06-08T11:10:00.000Z</time>
      </trkpt>
      <trkpt lat="43.685543" lon="5.206320">
        <ele>251.017551</ele>
        <time>2017-06-08T11:10:04.000Z</time>
      </trkpt>
      <trkpt lat="43.685436" lon="5.206318">
        <ele>251.678383</ele>
        <time>2017-06-08T11:10:08.000Z</time>
      </trkpt>
      <trkpt lat="43.685333" lon="5.206322">
        <ele>252.314703</ele>
        <time>2017-06-08T11:10:12.000Z</time>
      </trkpt>
      <trkpt lat="43.685207" lon="5.206337">
        <ele>253.119301</ele>
        <time>2017-06-08T11:10:17.000Z</time>
      </trkpt>
      <trkpt lat="43.685100" lon="5.206360">
        <ele>253.825300</ele>
        <time>2017-06-08T11:10:21.000Z</time>
      </trkpt>
      <trkpt lat="43.684994" lon="5.206400">
        <ele>254.541671</ele>
        <time>2017-06-08T11:10:25.000Z</time>
      </trkpt>
      <trkpt lat="43.684895" lon="5.206439">
        <ele>255.212813</ele>
        <time>2017-06-08T11:10:29.000Z</time>
      </trkpt>
      <trkpt lat="43.684800" lon="5.206490">
        <ele>255.877233</ele>
        <time>2017-06-08T11:10:33.000Z</time>
      </trkpt>
      <trkpt lat="43.684710" lon="5.206555">
        <ele>256.539226</ele>
        <time>2017-06-08T11:10:37.000Z</time>
      </trkpt>
      <trkpt lat="43.684630" lon="5.206638">
        <ele>257.191293</ele>
        <time>2017-06-08T11:10:41.000Z</time>
      </trkpt>
      <trkpt lat="43.684560" lon="5.206730">
        <ele>257.820928</ele>
        <time>2017-06-08T11:10:45.000Z</time>
      </trkpt>
      <trkpt lat="43.684510" lon="5.206852">
        <ele>258.482091</ele>
        <time>2017-06-08T11:10:49.000Z</time>
      </trkpt>
      <trkpt lat="43.684464" lon="5.206997">
        <ele>259.228634</ele>
        <time>2017-06-08T11:10:53.000Z</time>
      </trkpt>
      <trkpt lat="43.684414" lon="5.207133">
        <ele>259.947961</ele>
        <time>2017-06-08T11:10:57.000Z</time>
      </trkpt>
      <trkpt lat="43.684372" lon="5.207263">
        <ele>260.619278</ele>
        <time>2017-06-08T11:11:01.000Z</time>
      </trkpt>
      <trkpt lat="43.684326" lon="5.207400">
        <ele>261.331442</ele>
        <time>2017-06-08T11:11:05.000Z</time>
      </trkpt>
      <trkpt lat="43.684290" lon="5.207543">
        <ele>262.045352</ele>
        <time>2017-06-08T11:11:09.000Z</time>
      </trkpt>
      <trkpt lat="43.684260" lon="5.207688">
        <ele>262.756435</ele>
        <time>2017-06-08T11:11:13.000Z</time>
      </trkpt>
      <trkpt lat="43.684210" lon="5.207817">
        <ele>263.446506</ele>
        <time>2017-06-08T11:11:17.000Z</time>
      </trkpt>
      <trkpt lat="43.684166" lon="5.207958">
        <ele>264.170556</ele>
        <time>2017-06-08T11:11:21.000Z</time>
      </trkpt>
      <trkpt lat="43.684140" lon="5.208107">
        <ele>264.878408</ele>
        <time>2017-06-08T11:11:25.000Z</time>
      </trkpt>
      <trkpt lat="43.684105" lon="5.208248">
        <ele>265.560194</ele>
        <time>2017-06-08T11:11:29.000Z</time>
      </trkpt>
      <trkpt lat="43.684067" lon="5.208376">
        <ele>266.193003</ele>
        <time>2017-06-08T11:11:33.000Z</time>
      </trkpt>
      <trkpt lat="43.684055" lon="5.208500">
        <ele>266.765164</ele>
        <time>2017-06-08T11:11:37.000Z</time>
      </trkpt>
      <trkpt lat="43.684032" lon="5.208630">
        <ele>267.377245</ele>
        <time>2017-06-08T11:11:41.000Z</time>
      </trkpt>
      <trkpt lat="43.683980" lon="5.208760">
        <ele>268.056683</ele>
        <time>2017-06-08T11:11:45.000Z</time>
      </trkpt>
      <trkpt lat="43.683937" lon="5.208899">
        <ele>268.748115</ele>
        <time>2017-06-08T11:11:49.000Z</time>
      </trkpt>
      <trkpt lat="43.683900" lon="5.209041">
        <ele>269.438415</ele>
        <time>2017-06-08T11:11:53.000Z</time>
      </trkpt>
      <trkpt lat="43.683865" lon="5.209173">
        <ele>270.081410</ele>
        <time>2017-06-08T11:11:57.000Z</time>
      </trkpt>
      <trkpt lat="43.683807" lon="5.209290">
        <ele>270.730157</ele>
        <time>2017-06-08T11:12:01.000Z</time>
      </trkpt>
      <trkpt lat="43.683760" lon="5.209411">
        <ele>271.358321</ele>
        <time>2017-06-08T11:12:05.000Z</time>
      </trkpt>
      <trkpt lat="43.683710" lon="5.209535">
        <ele>272.007630</ele>
        <time>2017-06-08T11:12:09.000Z</time>
      </trkpt>
      <trkpt lat="43.683650" lon="5.209637">
        <ele>272.608964</ele>
        <time>2017-06-08T11:12:13.000Z</time>
      </trkpt>
      <trkpt lat="43.683610" lon="5.209759">
        <ele>273.221594</ele>
        <time>2017-06-08T11:12:17.000Z</time>
      </trkpt>
      <trkpt lat="43.683548" lon="5.209860">
        <ele>273.827495</ele>
        <time>2017-06-08T11:12:22.000Z</time>
      </trkpt>
      <trkpt lat="43.683502" lon="5.209971">
        <ele>274.412599</ele>
        <time>2017-06-08T11:12:27.000Z</time>
      </trkpt>
      <trkpt lat="43.683464" lon="5.210099">
        <ele>275.045413</ele>
        <time>2017-06-08T11:12:32.000Z</time>
      </trkpt>
      <trkpt lat="43.683502" lon="5.210217">
        <ele>275.636174</ele>
        <time>2017-06-08T11:13:17.000Z</time>
      </trkpt>
      <trkpt lat="43.683480" lon="5.210342">
        <ele>276.120673</ele>
        <time>2017-06-08T11:13:26.000Z</time>
      </trkpt>
      <trkpt lat="43.683506" lon="5.210465">
        <ele>276.571602</ele>
        <time>2017-06-08T11:13:33.000Z</time>
      </trkpt>
      <trkpt lat="43.683445" lon="5.210560">
        <ele>277.018650</ele>
        <time>2017-06-08T11:13:40.000Z</time>
      </trkpt>
      <trkpt lat="43.683384" lon="5.210668">
        <ele>277.500862</ele>
        <time>2017-06-08T11:13:47.000Z</time>
      </trkpt>
      <trkpt lat="43.683372" lon="5.210794">
        <ele>277.948066</ele>
        <time>2017-06-08T11:13:55.000Z</time>
      </trkpt>
      <trkpt lat="43.683422" lon="5.210907">
        <ele>278.414222</ele>
        <time>2017-06-08T11:14:06.000Z</time>
      </trkpt>
      <trkpt lat="43.683407" lon="5.211038">
        <ele>278.880934</ele>
        <time>2017-06-08T11:14:56.000Z</time>
      </trkpt>
      <trkpt lat="43.683370" lon="5.211156">
        <ele>279.333510</ele>
        <time>2017-06-08T11:15:00.000Z</time>
      </trkpt>
      <trkpt lat="43.683340" lon="5.211273">
        <ele>279.770329</ele>
        <time>2017-06-08T11:15:03.000Z</time>
      </trkpt>
      <trkpt lat="43.683308" lon="5.211427">
        <ele>280.334159</ele>
        <time>2017-06-08T11:15:07.000Z</time>
      </trkpt>
      <trkpt lat="43.683258" lon="5.211578">
        <ele>280.918558</ele>
        <time>2017-06-08T11:15:11.000Z</time>
      </trkpt>
      <trkpt lat="43.683216" lon="5.211730">
        <ele>281.491139</ele>
        <time>2017-06-08T11:15:15.000Z</time>
      </trkpt>
      <trkpt lat="43.683193" lon="5.211882">
        <ele>282.037589</ele>
        <time>2017-06-08T11:15:19.000Z</time>
      </trkpt>
      <trkpt lat="43.683160" lon="5.212032">
        <ele>282.589302</ele>
        <time>2017-06-08T11:15:23.000Z</time>
      </trkpt>
      <trkpt lat="43.683120" lon="5.212181">
        <ele>283.148574</ele>
        <time>2017-06-08T11:15:27.000Z</time>
      </trkpt>
      <trkpt lat="43.683080" lon="5.212324">
        <ele>283.688103</ele>
        <time>2017-06-08T11:15:31.000Z</time>
      </trkpt>
      <trkpt lat="43.683040" lon="5.212462">
        <ele>284.211261</ele>
        <time>2017-06-08T11:15:35.000Z</time>
      </trkpt>
      <trkpt lat="43.683002" lon="5.212607">
        <ele>284.671098</ele>
        <time>2017-06-08T11:15:39.000Z</time>
      </trkpt>
      <trkpt lat="43.682970" lon="5.212748">
        <ele>285.002008</ele>
        <time>2017-06-08T11:15:43.000Z</time>
      </trkpt>
      <trkpt lat="43.682934" lon="5.212894">
        <ele>285.347413</ele>
        <time>2017-06-08T11:15:47.000Z</time>
      </trkpt>
      <trkpt lat="43.682888" lon="5.213033">
        <ele>285.689705</ele>
        <time>2017-06-08T11:15:51.000Z</time>
      </trkpt>
      <trkpt lat="43.682854" lon="5.213177">
        <ele>286.028902</ele>
        <time>2017-06-08T11:15:55.000Z</time>
      </trkpt>
      <trkpt lat="43.682830" lon="5.213324">
        <ele>286.366350</ele>
        <time>2017-06-08T11:15:59.000Z</time>
      </trkpt>
      <trkpt lat="43.682790" lon="5.213462">
        <ele>286.699258</ele>
        <time>2017-06-08T11:16:03.000Z</time>
      </trkpt>
      <trkpt lat="43.682755" lon="5.213616">
        <ele>287.060725</ele>
        <time>2017-06-08T11:16:07.000Z</time>
      </trkpt>
      <trkpt lat="43.682730" lon="5.213738">
        <ele>287.344664</ele>
        <time>2017-06-08T11:16:10.000Z</time>
      </trkpt>
      <trkpt lat="43.682690" lon="5.213893">
        <ele>287.713179</ele>
        <time>2017-06-08T11:16:14.000Z</time>
      </trkpt>
      <trkpt lat="43.682660" lon="5.214017">
        <ele>288.005968</ele>
        <time>2017-06-08T11:16:17.000Z</time>
      </trkpt>
      <trkpt lat="43.682625" lon="5.214135">
        <ele>288.291557</ele>
        <time>2017-06-08T11:16:20.000Z</time>
      </trkpt>
      <trkpt lat="43.682594" lon="5.214258">
        <ele>288.583227</ele>
        <time>2017-06-08T11:16:23.000Z</time>
      </trkpt>
      <trkpt lat="43.682560" lon="5.214382">
        <ele>288.880179</ele>
        <time>2017-06-08T11:16:26.000Z</time>
      </trkpt>
      <trkpt lat="43.682526" lon="5.214505">
        <ele>289.175037</ele>
        <time>2017-06-08T11:16:29.000Z</time>
      </trkpt>
      <trkpt lat="43.682495" lon="5.214625">
        <ele>289.460373</ele>
        <time>2017-06-08T11:16:32.000Z</time>
      </trkpt>
      <trkpt lat="43.682470" lon="5.214748">
        <ele>289.746469</ele>
        <time>2017-06-08T11:16:35.000Z</time>
      </trkpt>
      <trkpt lat="43.682438" lon="5.214870">
        <ele>290.037068</ele>
        <time>2017-06-08T11:16:38.000Z</time>
      </trkpt>
      <trkpt lat="43.682392" lon="5.215021">
        <ele>290.506265</ele>
        <time>2017-06-08T11:16:42.000Z</time>
      </trkpt>
      <trkpt lat="43.682354" lon="5.215168">
        <ele>290.971698</ele>
        <time>2017-06-08T11:16:46.000Z</time>
      </trkpt>
      <trkpt lat="43.682304" lon="5.215316">
        <ele>291.458728</ele>
        <time>2017-06-08T11:16:50.000Z</time>
      </trkpt>
      <trkpt lat="43.682236" lon="5.215443">
        <ele>291.929860</ele>
        <time>2017-06-08T11:16:54.000Z</time>
      </trkpt>
      <trkpt lat="43.682167" lon="5.215570">
        <ele>292.403458</ele>
        <time>2017-06-08T11:16:58.000Z</time>
      </trkpt>
      <trkpt lat="43.682106" lon="5.215688">
        <ele>292.835913</ele>
        <time>2017-06-08T11:17:02.000Z</time>
      </trkpt>
      <trkpt lat="43.682050" lon="5.215832">
        <ele>293.323384</ele>
        <time>2017-06-08T11:17:06.000Z</time>
      </trkpt>
      <trkpt lat="43.681995" lon="5.215936">
        <ele>293.707520</ele>
        <time>2017-06-08T11:17:09.000Z</time>
      </trkpt>
      <trkpt lat="43.681934" lon="5.216037">
        <ele>294.099851</ele>
        <time>2017-06-08T11:17:12.000Z</time>
      </trkpt>
      <trkpt lat="43.681847" lon="5.216149">
        <ele>294.589907</ele>
        <time>2017-06-08T11:17:16.000Z</time>
      </trkpt>
      <trkpt lat="43.681750" lon="5.216250">
        <ele>295.090508</ele>
        <time>2017-06-08T11:17:20.000Z</time>
      </trkpt>
      <trkpt lat="43.681670" lon="5.216310">
        <ele>295.465715</ele>
        <time>2017-06-08T11:17:23.000Z</time>
      </trkpt>
      <trkpt lat="43.681590" lon="5.216364">
        <ele>295.832731</ele>
        <time>2017-06-08T11:17:26.000Z</time>
      </trkpt>
      <trkpt lat="43.681488" lon="5.216448">
        <ele>296.322176</ele>
        <time>2017-06-08T11:17:30.000Z</time>
      </trkpt>
      <trkpt lat="43.681385" lon="5.216507">
        <ele>296.781809</ele>
        <time>2017-06-08T11:17:34.000Z</time>
      </trkpt>
      <trkpt lat="43.681270" lon="5.216564">
        <ele>297.285459</ele>
        <time>2017-06-08T11:17:38.000Z</time>
      </trkpt>
      <trkpt lat="43.681190" lon="5.216623">
        <ele>297.624165</ele>
        <time>2017-06-08T11:17:41.000Z</time>
      </trkpt>
      <trkpt lat="43.681100" lon="5.216674">
        <ele>297.930488</ele>
        <time>2017-06-08T11:17:44.000Z</time>
      </trkpt>
      <trkpt lat="43.680996" lon="5.216706">
        <ele>298.266036</ele>
        <time>2017-06-08T11:17:48.000Z</time>
      </trkpt>
      <trkpt lat="43.680893" lon="5.216754">
        <ele>298.608351</ele>
        <time>2017-06-08T11:17:52.000Z</time>
      </trkpt>
      <trkpt lat="43.680805" lon="5.216812">
        <ele>298.915372</ele>
        <time>2017-06-08T11:17:55.000Z</time>
      </trkpt>
      <trkpt lat="43.680706" lon="5.216857">
        <ele>299.243576</ele>
        <time>2017-06-08T11:17:58.000Z</time>
      </trkpt>
      <trkpt lat="43.680607" lon="5.216901">
        <ele>299.571076</ele>
        <time>2017-06-08T11:18:01.000Z</time>
      </trkpt>
      <trkpt lat="43.680510" lon="5.216941">
        <ele>299.889863</ele>
        <time>2017-06-08T11:18:04.000Z</time>
      </trkpt>
      <trkpt lat="43.680435" lon="5.217015">
        <ele>300.180036</ele>
        <time>2017-06-08T11:18:07.000Z</time>
      </trkpt>
      <trkpt lat="43.680360" lon="5.217092">
        <ele>300.474230</ele>
        <time>2017-06-08T11:18:10.000Z</time>
      </trkpt>
      <trkpt lat="43.680275" lon="5.217160">
        <ele>300.783504</ele>
        <time>2017-06-08T11:18:13.000Z</time>
      </trkpt>
      <trkpt lat="43.680195" lon="5.217228">
        <ele>301.079253</ele>
        <time>2017-06-08T11:18:16.000Z</time>
      </trkpt>
      <trkpt lat="43.680110" lon="5.217319">
        <ele>301.417812</ele>
        <time>2017-06-08T11:18:21.000Z</time>
      </trkpt>
      <trkpt lat="43.680042" lon="5.217426">
        <ele>301.742248</ele>
        <time>2017-06-08T11:18:29.000Z</time>
      </trkpt>
      <trkpt lat="43.679950" lon="5.217448">
        <ele>302.036293</ele>
        <time>2017-06-08T11:18:54.000Z</time>
      </trkpt>
      <trkpt lat="43.679850" lon="5.217443">
        <ele>302.351438</ele>
        <time>2017-06-08T11:18:59.000Z</time>
      </trkpt>
      <trkpt lat="43.679783" lon="5.217522">
        <ele>302.628751</ele>
        <time>2017-06-08T11:19:03.000Z</time>
      </trkpt>
      <trkpt lat="43.679707" lon="5.217606">
        <ele>302.935174</ele>
        <time>2017-06-08T11:19:07.000Z</time>
      </trkpt>
      <trkpt lat="43.679623" lon="5.217683">
        <ele>303.250193</ele>
        <time>2017-06-08T11:19:12.000Z</time>
      </trkpt>
      <trkpt lat="43.679510" lon="5.217672">
        <ele>303.595954</ele>
        <time>2017-06-08T11:19:16.000Z</time>
      </trkpt>
      <trkpt lat="43.679424" lon="5.217714">
        <ele>303.874342</ele>
        <time>2017-06-08T11:19:20.000Z</time>
      </trkpt>
      <trkpt lat="43.679344" lon="5.217798">
        <ele>304.180949</ele>
        <time>2017-06-08T11:19:24.000Z</time>
      </trkpt>
      <trkpt lat="43.679276" lon="5.217878">
        <ele>304.453466</ele>
        <time>2017-06-08T11:19:28.000Z</time>
      </trkpt>
      <trkpt lat="43.679207" lon="5.217965">
        <ele>304.738489</ele>
        <time>2017-06-08T11:19:32.000Z</time>
      </trkpt>
      <trkpt lat="43.679120" lon="5.218022">
        <ele>305.032339</ele>
        <time>2017-06-08T11:19:37.000Z</time>
      </trkpt>
      <trkpt lat="43.679040" lon="5.218083">
        <ele>305.311189</ele>
        <time>2017-06-08T11:19:42.000Z</time>
      </trkpt>
      <trkpt lat="43.679010" lon="5.217964">
        <ele>305.589380</ele>
        <time>2017-06-08T11:19:52.000Z</time>
      </trkpt>
      <trkpt lat="43.678932" lon="5.217891">
        <ele>305.876867</ele>
        <time>2017-06-08T11:19:56.000Z</time>
      </trkpt>
      <trkpt lat="43.678820" lon="5.217938">
        <ele>306.234119</ele>
        <time>2017-06-08T11:20:00.000Z</time>
      </trkpt>
      <trkpt lat="43.678730" lon="5.217963">
        <ele>306.514313</ele>
        <time>2017-06-08T11:20:03.000Z</time>
      </trkpt>
      <trkpt lat="43.678640" lon="5.218042">
        <ele>306.839697</ele>
        <time>2017-06-08T11:20:07.000Z</time>
      </trkpt>
      <trkpt lat="43.678530" lon="5.218079">
        <ele>307.185240</ele>
        <time>2017-06-08T11:20:11.000Z</time>
      </trkpt>
      <trkpt lat="43.678444" lon="5.218106">
        <ele>307.454417</ele>
        <time>2017-06-08T11:20:14.000Z</time>
      </trkpt>
      <trkpt lat="43.678360" lon="5.218146">
        <ele>307.725588</ele>
        <time>2017-06-08T11:20:17.000Z</time>
      </trkpt>
      <trkpt lat="43.678272" lon="5.218184">
        <ele>308.006982</ele>
        <time>2017-06-08T11:20:20.000Z</time>
      </trkpt>
      <trkpt lat="43.678173" lon="5.218214">
        <ele>308.316330</ele>
        <time>2017-06-08T11:20:23.000Z</time>
      </trkpt>
      <trkpt lat="43.678085" lon="5.218253">
        <ele>308.598390</ele>
        <time>2017-06-08T11:20:26.000Z</time>
      </trkpt>
      <trkpt lat="43.677990" lon="5.218286">
        <ele>308.966147</ele>
        <time>2017-06-08T11:20:29.000Z</time>
      </trkpt>
      <trkpt lat="43.677895" lon="5.218301">
        <ele>309.344466</ele>
        <time>2017-06-08T11:20:32.000Z</time>
      </trkpt>
      <trkpt lat="43.677803" lon="5.218320">
        <ele>309.712511</ele>
        <time>2017-06-08T11:20:35.000Z</time>
      </trkpt>
      <trkpt lat="43.677715" lon="5.218336">
        <ele>310.063688</ele>
        <time>2017-06-08T11:20:38.000Z</time>
      </trkpt>
      <trkpt lat="43.677605" lon="5.218367">
        <ele>310.507862</ele>
        <time>2017-06-08T11:20:42.000Z</time>
      </trkpt>
      <trkpt lat="43.677498" lon="5.218375">
        <ele>310.931836</ele>
        <time>2017-06-08T11:20:46.000Z</time>
      </trkpt>
      <trkpt lat="43.677402" lon="5.218425">
        <ele>311.337723</ele>
        <time>2017-06-08T11:20:50.000Z</time>
      </trkpt>
      <trkpt lat="43.677303" lon="5.218482">
        <ele>311.762029</ele>
        <time>2017-06-08T11:20:54.000Z</time>
      </trkpt>
      <trkpt lat="43.677210" lon="5.218575">
        <ele>312.216143</ele>
        <time>2017-06-08T11:20:58.000Z</time>
      </trkpt>
      <trkpt lat="43.677113" lon="5.218667">
        <ele>312.681549</ele>
        <time>2017-06-08T11:21:02.000Z</time>
      </trkpt>
      <trkpt lat="43.677017" lon="5.218768">
        <ele>313.158839</ele>
        <time>2017-06-08T11:21:06.000Z</time>
      </trkpt>
      <trkpt lat="43.676945" lon="5.218890">
        <ele>313.609431</ele>
        <time>2017-06-08T11:21:10.000Z</time>
      </trkpt>
      <trkpt lat="43.676888" lon="5.219010">
        <ele>314.020258</ele>
        <time>2017-06-08T11:21:14.000Z</time>
      </trkpt>
      <trkpt lat="43.676834" lon="5.219122">
        <ele>314.405444</ele>
        <time>2017-06-08T11:21:18.000Z</time>
      </trkpt>
      <trkpt lat="43.676790" lon="5.219243">
        <ele>314.792998</ele>
        <time>2017-06-08T11:21:22.000Z</time>
      </trkpt>
      <trkpt lat="43.676740" lon="5.219370">
        <ele>315.206776</ele>
        <time>2017-06-08T11:21:26.000Z</time>
      </trkpt>
      <trkpt lat="43.676693" lon="5.219492">
        <ele>315.602329</ele>
        <time>2017-06-08T11:21:30.000Z</time>
      </trkpt>
      <trkpt lat="43.676660" lon="5.219625">
        <ele>315.650089</ele>
        <time>2017-06-08T11:21:36.000Z</time>
      </trkpt>
      <trkpt lat="43.676685" lon="5.219780">
        <ele>315.381827</ele>
        <time>2017-06-08T11:22:35.000Z</time>
      </trkpt>
      <trkpt lat="43.676693" lon="5.219911">
        <ele>315.159752</ele>
        <time>2017-06-08T11:22:40.000Z</time>
      </trkpt>
      <trkpt lat="43.676700" lon="5.220104">
        <ele>314.833322</ele>
        <time>2017-06-08T11:23:05.000Z</time>
      </trkpt>
      <trkpt lat="43.676712" lon="5.220257">
        <ele>314.573355</ele>
        <time>2017-06-08T11:23:08.000Z</time>
      </trkpt>
      <trkpt lat="43.676723" lon="5.220443">
        <ele>314.258111</ele>
        <time>2017-06-08T11:23:11.000Z</time>
      </trkpt>
      <trkpt lat="43.676730" lon="5.220589">
        <ele>314.010944</ele>
        <time>2017-06-08T11:23:13.000Z</time>
      </trkpt>
      <trkpt lat="43.676735" lon="5.220746">
        <ele>313.745479</ele>
        <time>2017-06-08T11:23:15.000Z</time>
      </trkpt>
      <trkpt lat="43.676746" lon="5.220922">
        <ele>313.447067</ele>
        <time>2017-06-08T11:23:17.000Z</time>
      </trkpt>
      <trkpt lat="43.676758" lon="5.221111">
        <ele>313.126577</ele>
        <time>2017-06-08T11:23:19.000Z</time>
      </trkpt>
      <trkpt lat="43.676773" lon="5.221298">
        <ele>312.808755</ele>
        <time>2017-06-08T11:23:21.000Z</time>
      </trkpt>
      <trkpt lat="43.676792" lon="5.221499">
        <ele>312.466334</ele>
        <time>2017-06-08T11:23:23.000Z</time>
      </trkpt>
      <trkpt lat="43.676807" lon="5.221708">
        <ele>312.111553</ele>
        <time>2017-06-08T11:23:25.000Z</time>
      </trkpt>
      <trkpt lat="43.676826" lon="5.221930">
        <ele>311.733930</ele>
        <time>2017-06-08T11:23:27.000Z</time>
      </trkpt>
      <trkpt lat="43.676857" lon="5.222162">
        <ele>311.150846</ele>
        <time>2017-06-08T11:23:29.000Z</time>
      </trkpt>
      <trkpt lat="43.676884" lon="5.222400">
        <ele>310.437842</ele>
        <time>2017-06-08T11:23:31.000Z</time>
      </trkpt>
      <trkpt lat="43.676918" lon="5.222634">
        <ele>309.731451</ele>
        <time>2017-06-08T11:23:33.000Z</time>
      </trkpt>
      <trkpt lat="43.676968" lon="5.222845">
        <ele>309.074305</ele>
        <time>2017-06-08T11:23:35.000Z</time>
      </trkpt>
      <trkpt lat="43.677010" lon="5.223009">
        <ele>308.559396</ele>
        <time>2017-06-08T11:23:37.000Z</time>
      </trkpt>
      <trkpt lat="43.677044" lon="5.223147">
        <ele>308.127921</ele>
        <time>2017-06-08T11:23:40.000Z</time>
      </trkpt>
      <trkpt lat="43.677044" lon="5.223287">
        <ele>307.713574</ele>
        <time>2017-06-08T11:23:45.000Z</time>
      </trkpt>
      <trkpt lat="43.677017" lon="5.223434">
        <ele>307.264699</ele>
        <time>2017-06-08T11:23:49.000Z</time>
      </trkpt>
      <trkpt lat="43.676990" lon="5.223593">
        <ele>306.781322</ele>
        <time>2017-06-08T11:23:52.000Z</time>
      </trkpt>
      <trkpt lat="43.676964" lon="5.223760">
        <ele>306.275743</ele>
        <time>2017-06-08T11:23:55.000Z</time>
      </trkpt>
      <trkpt lat="43.676945" lon="5.223896">
        <ele>305.865794</ele>
        <time>2017-06-08T11:23:57.000Z</time>
      </trkpt>
      <trkpt lat="43.676914" lon="5.224058">
        <ele>305.369836</ele>
        <time>2017-06-08T11:23:59.000Z</time>
      </trkpt>
      <trkpt lat="43.676888" lon="5.224232">
        <ele>304.843985</ele>
        <time>2017-06-08T11:24:01.000Z</time>
      </trkpt>
      <trkpt lat="43.676857" lon="5.224423">
        <ele>304.264637</ele>
        <time>2017-06-08T11:24:03.000Z</time>
      </trkpt>
      <trkpt lat="43.676823" lon="5.224633">
        <ele>303.495330</ele>
        <time>2017-06-08T11:24:05.000Z</time>
      </trkpt>
      <trkpt lat="43.676792" lon="5.224845">
        <ele>302.712205</ele>
        <time>2017-06-08T11:24:07.000Z</time>
      </trkpt>
      <trkpt lat="43.676754" lon="5.225062">
        <ele>301.903805</ele>
        <time>2017-06-08T11:24:09.000Z</time>
      </trkpt>
      <trkpt lat="43.676720" lon="5.225294">
        <ele>301.046725</ele>
        <time>2017-06-08T11:24:11.000Z</time>
      </trkpt>
      <trkpt lat="43.676690" lon="5.225521">
        <ele>300.211210</ele>
        <time>2017-06-08T11:24:13.000Z</time>
      </trkpt>
      <trkpt lat="43.676660" lon="5.225747">
        <ele>299.379256</ele>
        <time>2017-06-08T11:24:15.000Z</time>
      </trkpt>
      <trkpt lat="43.676624" lon="5.225958">
        <ele>298.594311</ele>
        <time>2017-06-08T11:24:17.000Z</time>
      </trkpt>
      <trkpt lat="43.676598" lon="5.226177">
        <ele>297.790758</ele>
        <time>2017-06-08T11:24:19.000Z</time>
      </trkpt>
      <trkpt lat="43.676567" lon="5.226389">
        <ele>297.007630</ele>
        <time>2017-06-08T11:24:21.000Z</time>
      </trkpt>
      <trkpt lat="43.676544" lon="5.226597">
        <ele>296.245765</ele>
        <time>2017-06-08T11:24:23.000Z</time>
      </trkpt>
      <trkpt lat="43.676506" lon="5.226799">
        <ele>295.490040</ele>
        <time>2017-06-08T11:24:25.000Z</time>
      </trkpt>
      <trkpt lat="43.676476" lon="5.227001">
        <ele>295.218706</ele>
        <time>2017-06-08T11:24:27.000Z</time>
      </trkpt>
      <trkpt lat="43.676445" lon="5.227195">
        <ele>295.222678</ele>
        <time>2017-06-08T11:24:29.000Z</time>
      </trkpt>
      <trkpt lat="43.676410" lon="5.227379">
        <ele>295.226482</ele>
        <time>2017-06-08T11:24:31.000Z</time>
      </trkpt>
      <trkpt lat="43.676370" lon="5.227562">
        <ele>295.230304</ele>
        <time>2017-06-08T11:24:33.000Z</time>
      </trkpt>
      <trkpt lat="43.676340" lon="5.227743">
        <ele>295.234017</ele>
        <time>2017-06-08T11:24:35.000Z</time>
      </trkpt>
      <trkpt lat="43.676300" lon="5.227910">
        <ele>295.237534</ele>
        <time>2017-06-08T11:24:37.000Z</time>
      </trkpt>
      <trkpt lat="43.676260" lon="5.228045">
        <ele>295.240451</ele>
        <time>2017-06-08T11:24:39.000Z</time>
      </trkpt>
      <trkpt lat="43.676224" lon="5.228161">
        <ele>295.242974</ele>
        <time>2017-06-08T11:24:41.000Z</time>
      </trkpt>
      <trkpt lat="43.676190" lon="5.228276">
        <ele>295.245458</ele>
        <time>2017-06-08T11:24:43.000Z</time>
      </trkpt>
      <trkpt lat="43.676140" lon="5.228401">
        <ele>295.248314</ele>
        <time>2017-06-08T11:24:46.000Z</time>
      </trkpt>
      <trkpt lat="43.676186" lon="5.228578">
        <ele>295.252074</ele>
        <time>2017-06-08T11:25:16.000Z</time>
      </trkpt>
      <trkpt lat="43.676270" lon="5.228622">
        <ele>295.254558</ele>
        <time>2017-06-08T11:25:19.000Z</time>
      </trkpt>
      <trkpt lat="43.676370" lon="5.228678">
        <ele>295.257540</ele>
        <time>2017-06-08T11:25:23.000Z</time>
      </trkpt>
      <trkpt lat="43.676450" lon="5.228773">
        <ele>295.260455</ele>
        <time>2017-06-08T11:25:29.000Z</time>
      </trkpt>
      <trkpt lat="43.676544" lon="5.228793">
        <ele>295.263084</ele>
        <time>2017-06-08T11:25:35.000Z</time>
      </trkpt>
      <trkpt lat="43.676650" lon="5.228762">
        <ele>295.274439</ele>
        <time>2017-06-08T11:25:40.000Z</time>
      </trkpt>
      <trkpt lat="43.676743" lon="5.228715">
        <ele>295.364173</ele>
        <time>2017-06-08T11:25:44.000Z</time>
      </trkpt>
      <trkpt lat="43.676838" lon="5.228728">
        <ele>295.450688</ele>
        <time>2017-06-08T11:25:48.000Z</time>
      </trkpt>
      <trkpt lat="43.676940" lon="5.228774">
        <ele>295.547918</ele>
        <time>2017-06-08T11:25:53.000Z</time>
      </trkpt>
      <trkpt lat="43.677032" lon="5.228827">
        <ele>295.638240</ele>
        <time>2017-06-08T11:25:58.000Z</time>
      </trkpt>
      <trkpt lat="43.677140" lon="5.228849">
        <ele>295.737171</ele>
        <time>2017-06-08T11:26:03.000Z</time>
      </trkpt>
      <trkpt lat="43.677250" lon="5.228873">
        <ele>295.838092</ele>
        <time>2017-06-08T11:26:08.000Z</time>
      </trkpt>
      <trkpt lat="43.677345" lon="5.228892">
        <ele>295.925082</ele>
        <time>2017-06-08T11:26:12.000Z</time>
      </trkpt>
      <trkpt lat="43.677246" lon="5.228870">
        <ele>296.015952</ele>
        <time>2017-06-08T11:26:46.000Z</time>
      </trkpt>
      <trkpt lat="43.677128" lon="5.228843">
        <ele>296.124344</ele>
        <time>2017-06-08T11:26:49.000Z</time>
      </trkpt>
      <trkpt lat="43.677010" lon="5.228813">
        <ele>296.233074</ele>
        <time>2017-06-08T11:26:52.000Z</time>
      </trkpt>
      <trkpt lat="43.676895" lon="5.228777">
        <ele>296.339930</ele>
        <time>2017-06-08T11:26:55.000Z</time>
      </trkpt>
      <trkpt lat="43.676760" lon="5.228723">
        <ele>296.467290</ele>
        <time>2017-06-08T11:26:58.000Z</time>
      </trkpt>
      <trkpt lat="43.676666" lon="5.228744">
        <ele>296.553583</ele>
        <time>2017-06-08T11:27:00.000Z</time>
      </trkpt>
      <trkpt lat="43.676582" lon="5.228790">
        <ele>296.635461</ele>
        <time>2017-06-08T11:27:02.000Z</time>
      </trkpt>
      <trkpt lat="43.676456" lon="5.228787">
        <ele>296.749665</ele>
        <time>2017-06-08T11:27:05.000Z</time>
      </trkpt>
      <trkpt lat="43.676376" lon="5.228700">
        <ele>296.841904</ele>
        <time>2017-06-08T11:27:08.000Z</time>
      </trkpt>
      <trkpt lat="43.676277" lon="5.228634">
        <ele>296.826052</ele>
        <time>2017-06-08T11:27:12.000Z</time>
      </trkpt>
      <trkpt lat="43.676212" lon="5.228738">
        <ele>296.688401</ele>
        <time>2017-06-08T11:27:16.000Z</time>
      </trkpt>
      <trkpt lat="43.676193" lon="5.228871">
        <ele>296.552634</ele>
        <time>2017-06-08T11:27:21.000Z</time>
      </trkpt>
      <trkpt lat="43.676170" lon="5.229020">
        <ele>296.400057</ele>
        <time>2017-06-08T11:27:26.000Z</time>
      </trkpt>
      <trkpt lat="43.676132" lon="5.229163">
        <ele>296.247489</ele>
        <time>2017-06-08T11:27:30.000Z</time>
      </trkpt>
      <trkpt lat="43.676083" lon="5.229311">
        <ele>296.084483</ele>
        <time>2017-06-08T11:27:34.000Z</time>
      </trkpt>
      <trkpt lat="43.676067" lon="5.229435">
        <ele>295.958342</ele>
        <time>2017-06-08T11:27:37.000Z</time>
      </trkpt>
      <trkpt lat="43.676060" lon="5.229587">
        <ele>295.805813</ele>
        <time>2017-06-08T11:27:41.000Z</time>
      </trkpt>
      <trkpt lat="43.676060" lon="5.229745">
        <ele>295.647583</ele>
        <time>2017-06-08T11:27:45.000Z</time>
      </trkpt>
      <trkpt lat="43.676060" lon="5.229891">
        <ele>295.501371</ele>
        <time>2017-06-08T11:27:49.000Z</time>
      </trkpt>
      <trkpt lat="43.676052" lon="5.230053">
        <ele>295.338757</ele>
        <time>2017-06-08T11:27:53.000Z</time>
      </trkpt>
      <trkpt lat="43.676044" lon="5.230184">
        <ele>295.207100</ele>
        <time>2017-06-08T11:27:56.000Z</time>
      </trkpt>
      <trkpt lat="43.676044" lon="5.230328">
        <ele>295.062890</ele>
        <time>2017-06-08T11:27:59.000Z</time>
      </trkpt>
      <trkpt lat="43.676037" lon="5.230478">
        <ele>294.912360</ele>
        <time>2017-06-08T11:28:02.000Z</time>
      </trkpt>
      <trkpt lat="43.676044" lon="5.230623">
        <ele>294.766826</ele>
        <time>2017-06-08T11:28:05.000Z</time>
      </trkpt>
      <trkpt lat="43.676050" lon="5.230779">
        <ele>294.610378</ele>
        <time>2017-06-08T11:28:08.000Z</time>
      </trkpt>
      <trkpt lat="43.676067" lon="5.230920">
        <ele>294.467224</ele>
        <time>2017-06-08T11:28:11.000Z</time>
      </trkpt>
      <trkpt lat="43.676080" lon="5.231069">
        <ele>294.438688</ele>
        <time>2017-06-08T11:28:14.000Z</time>
      </trkpt>
      <trkpt lat="43.676086" lon="5.231215">
        <ele>294.493909</ele>
        <time>2017-06-08T11:28:17.000Z</time>
      </trkpt>
      <trkpt lat="43.676117" lon="5.231355">
        <ele>294.549198</ele>
        <time>2017-06-08T11:28:20.000Z</time>
      </trkpt>
      <trkpt lat="43.676150" lon="5.231494">
        <ele>294.604443</ele>
        <time>2017-06-08T11:28:23.000Z</time>
      </trkpt>
      <trkpt lat="43.676180" lon="5.231616">
        <ele>294.653102</ele>
        <time>2017-06-08T11:28:26.000Z</time>
      </trkpt>
      <trkpt lat="43.676193" lon="5.231751">
        <ele>294.704530</ele>
        <time>2017-06-08T11:28:29.000Z</time>
      </trkpt>
      <trkpt lat="43.676178" lon="5.231897">
        <ele>294.760216</ele>
        <time>2017-06-08T11:28:32.000Z</time>
      </trkpt>
      <trkpt lat="43.676167" lon="5.232047">
        <ele>294.817149</ele>
        <time>2017-06-08T11:28:35.000Z</time>
      </trkpt>
      <trkpt lat="43.676160" lon="5.232186">
        <ele>294.869765</ele>
        <time>2017-06-08T11:28:38.000Z</time>
      </trkpt>
      <trkpt lat="43.676125" lon="5.232340">
        <ele>294.930722</ele>
        <time>2017-06-08T11:28:42.000Z</time>
      </trkpt>
      <trkpt lat="43.676083" lon="5.232478">
        <ele>294.987259</ele>
        <time>2017-06-08T11:28:46.000Z</time>
      </trkpt>
      <trkpt lat="43.676040" lon="5.232634">
        <ele>295.050301</ele>
        <time>2017-06-08T11:28:50.000Z</time>
      </trkpt>
      <trkpt lat="43.676014" lon="5.232759">
        <ele>295.099416</ele>
        <time>2017-06-08T11:28:53.000Z</time>
      </trkpt>
      <trkpt lat="43.675990" lon="5.232887">
        <ele>295.149350</ele>
        <time>2017-06-08T11:28:56.000Z</time>
      </trkpt>
      <trkpt lat="43.675983" lon="5.233017">
        <ele>295.198576</ele>
        <time>2017-06-08T11:28:59.000Z</time>
      </trkpt>
      <trkpt lat="43.675983" lon="5.233141">
        <ele>295.245401</ele>
        <time>2017-06-08T11:29:02.000Z</time>
      </trkpt>
      <trkpt lat="43.675983" lon="5.233288">
        <ele>295.300911</ele>
        <time>2017-06-08T11:29:05.000Z</time>
      </trkpt>
      <trkpt lat="43.675995" lon="5.233428">
        <ele>295.314820</ele>
        <time>2017-06-08T11:29:08.000Z</time>
      </trkpt>
      <trkpt lat="43.676018" lon="5.233563">
        <ele>295.155096</ele>
        <time>2017-06-08T11:29:11.000Z</time>
      </trkpt>
      <trkpt lat="43.676052" lon="5.233683">
        <ele>295.006675</ele>
        <time>2017-06-08T11:29:14.000Z</time>
      </trkpt>
      <trkpt lat="43.676086" lon="5.233805">
        <ele>294.856108</ele>
        <time>2017-06-08T11:29:17.000Z</time>
      </trkpt>
      <trkpt lat="43.676120" lon="5.233935">
        <ele>294.696909</ele>
        <time>2017-06-08T11:29:20.000Z</time>
      </trkpt>
      <trkpt lat="43.676163" lon="5.234066">
        <ele>294.531237</ele>
        <time>2017-06-08T11:29:23.000Z</time>
      </trkpt>
      <trkpt lat="43.676200" lon="5.234199">
        <ele>294.367131</ele>
        <time>2017-06-08T11:29:26.000Z</time>
      </trkpt>
      <trkpt lat="43.676243" lon="5.234329">
        <ele>294.202507</ele>
        <time>2017-06-08T11:29:29.000Z</time>
      </trkpt>
      <trkpt lat="43.676296" lon="5.234488">
        <ele>294.000888</ele>
        <time>2017-06-08T11:29:32.000Z</time>
      </trkpt>
      <trkpt lat="43.676346" lon="5.234654">
        <ele>293.793804</ele>
        <time>2017-06-08T11:29:35.000Z</time>
      </trkpt>
      <trkpt lat="43.676400" lon="5.234816">
        <ele>293.588382</ele>
        <time>2017-06-08T11:29:38.000Z</time>
      </trkpt>
      <trkpt lat="43.676440" lon="5.234942">
        <ele>293.429915</ele>
        <time>2017-06-08T11:29:41.000Z</time>
      </trkpt>
      <trkpt lat="43.676480" lon="5.235058">
        <ele>293.281921</ele>
        <time>2017-06-08T11:29:44.000Z</time>
      </trkpt>
      <trkpt lat="43.676520" lon="5.235187">
        <ele>293.120286</ele>
        <time>2017-06-08T11:29:47.000Z</time>
      </trkpt>
      <trkpt lat="43.676563" lon="5.235302">
        <ele>292.971198</ele>
        <time>2017-06-08T11:29:50.000Z</time>
      </trkpt>
      <trkpt lat="43.676620" lon="5.235428">
        <ele>292.800048</ele>
        <time>2017-06-08T11:29:54.000Z</time>
      </trkpt>
      <trkpt lat="43.676650" lon="5.235550">
        <ele>292.651653</ele>
        <time>2017-06-08T11:29:57.000Z</time>
      </trkpt>
      <trkpt lat="43.676624" lon="5.235718">
        <ele>292.508424</ele>
        <time>2017-06-08T11:30:00.000Z</time>
      </trkpt>
      <trkpt lat="43.676598" lon="5.235878">
        <ele>292.705972</ele>
        <time>2017-06-08T11:30:03.000Z</time>
      </trkpt>
      <trkpt lat="43.676575" lon="5.236044">
        <ele>292.909580</ele>
        <time>2017-06-08T11:30:06.000Z</time>
      </trkpt>
      <trkpt lat="43.676563" lon="5.236172">
        <ele>293.065065</ele>
        <time>2017-06-08T11:30:08.000Z</time>
      </trkpt>
      <trkpt lat="43.676544" lon="5.236312">
        <ele>293.236659</ele>
        <time>2017-06-08T11:30:10.000Z</time>
      </trkpt>
      <trkpt lat="43.676530" lon="5.236460">
        <ele>293.416465</ele>
        <time>2017-06-08T11:30:12.000Z</time>
      </trkpt>
      <trkpt lat="43.676514" lon="5.236608">
        <ele>293.596734</ele>
        <time>2017-06-08T11:30:14.000Z</time>
      </trkpt>
      <trkpt lat="43.676495" lon="5.236756">
        <ele>293.777809</ele>
        <time>2017-06-08T11:30:16.000Z</time>
      </trkpt>
      <trkpt lat="43.676480" lon="5.236894">
        <ele>293.945917</ele>
        <time>2017-06-08T11:30:18.000Z</time>
      </trkpt>
      <trkpt lat="43.676450" lon="5.237029">
        <ele>294.116048</ele>
        <time>2017-06-08T11:30:20.000Z</time>
      </trkpt>
      <trkpt lat="43.676414" lon="5.237145">
        <ele>294.268109</ele>
        <time>2017-06-08T11:30:22.000Z</time>
      </trkpt>
      <trkpt lat="43.676380" lon="5.237260">
        <ele>294.417771</ele>
        <time>2017-06-08T11:30:24.000Z</time>
      </trkpt>
      <trkpt lat="43.676330" lon="5.237417">
        <ele>294.624425</ele>
        <time>2017-06-08T11:30:27.000Z</time>
      </trkpt>
      <trkpt lat="43.676290" lon="5.237561">
        <ele>294.810249</ele>
        <time>2017-06-08T11:30:30.000Z</time>
      </trkpt>
      <trkpt lat="43.676240" lon="5.237690">
        <ele>294.986558</ele>
        <time>2017-06-08T11:30:34.000Z</time>
      </trkpt>
      <trkpt lat="43.676304" lon="5.237854">
        <ele>295.211045</ele>
        <time>2017-06-08T11:31:35.000Z</time>
      </trkpt>
      <trkpt lat="43.676360" lon="5.237964">
        <ele>295.373093</ele>
        <time>2017-06-08T11:31:41.000Z</time>
      </trkpt>
      <trkpt lat="43.676346" lon="5.238106">
        <ele>295.523664</ele>
        <time>2017-06-08T11:31:45.000Z</time>
      </trkpt>
      <trkpt lat="43.676346" lon="5.238242">
        <ele>295.635402</ele>
        <time>2017-06-08T11:31:48.000Z</time>
      </trkpt>
      <trkpt lat="43.676357" lon="5.238403">
        <ele>295.768268</ele>
        <time>2017-06-08T11:31:51.000Z</time>
      </trkpt>
      <trkpt lat="43.676365" lon="5.238557">
        <ele>295.895121</ele>
        <time>2017-06-08T11:31:54.000Z</time>
      </trkpt>
      <trkpt lat="43.676376" lon="5.238706">
        <ele>296.018175</ele>
        <time>2017-06-08T11:31:57.000Z</time>
      </trkpt>
      <trkpt lat="43.676370" lon="5.238846">
        <ele>296.133401</ele>
        <time>2017-06-08T11:32:00.000Z</time>
      </trkpt>
      <trkpt lat="43.676357" lon="5.238983">
        <ele>296.246925</ele>
        <time>2017-06-08T11:32:03.000Z</time>
      </trkpt>
      <trkpt lat="43.676340" lon="5.239127">
        <ele>296.366801</ele>
        <time>2017-06-08T11:32:06.000Z</time>
      </trkpt>
      <trkpt lat="43.676300" lon="5.239276">
        <ele>296.497380</ele>
        <time>2017-06-08T11:32:09.000Z</time>
      </trkpt>
      <trkpt lat="43.676254" lon="5.239420">
        <ele>296.626717</ele>
        <time>2017-06-08T11:32:12.000Z</time>
      </trkpt>
      <trkpt lat="43.676193" lon="5.239563">
        <ele>296.763119</ele>
        <time>2017-06-08T11:32:15.000Z</time>
      </trkpt>
      <trkpt lat="43.676130" lon="5.239708">
        <ele>296.902095</ele>
        <time>2017-06-08T11:32:18.000Z</time>
      </trkpt>
      <trkpt lat="43.676075" lon="5.239861">
        <ele>297.042471</ele>
        <time>2017-06-08T11:32:21.000Z</time>
      </trkpt>
      <trkpt lat="43.676033" lon="5.240019">
        <ele>297.180774</ele>
        <time>2017-06-08T11:32:24.000Z</time>
      </trkpt>
      <trkpt lat="43.676000" lon="5.240170">
        <ele>297.310377</ele>
        <time>2017-06-08T11:32:27.000Z</time>
      </trkpt>
      <trkpt lat="43.675972" lon="5.240293">
        <ele>297.416321</ele>
        <time>2017-06-08T11:32:30.000Z</time>
      </trkpt>
      <trkpt lat="43.675920" lon="5.240444">
        <ele>297.605954</ele>
        <time>2017-06-08T11:32:34.000Z</time>
      </trkpt>
      <trkpt lat="43.675865" lon="5.240583">
        <ele>297.935018</ele>
        <time>2017-06-08T11:32:38.000Z</time>
      </trkpt>
      <trkpt lat="43.675820" lon="5.240722">
        <ele>298.251305</ele>
        <time>2017-06-08T11:32:42.000Z</time>
      </trkpt>
      <trkpt lat="43.675793" lon="5.240874">
        <ele>298.576372</ele>
        <time>2017-06-08T11:32:46.000Z</time>
      </trkpt>
      <trkpt lat="43.675793" lon="5.241007">
        <ele>298.852597</ele>
        <time>2017-06-08T11:32:49.000Z</time>
      </trkpt>
      <trkpt lat="43.675800" lon="5.241140">
        <ele>299.129552</ele>
        <time>2017-06-08T11:32:52.000Z</time>
      </trkpt>
      <trkpt lat="43.675827" lon="5.241264">
        <ele>299.398502</ele>
        <time>2017-06-08T11:32:55.000Z</time>
      </trkpt>
      <trkpt lat="43.675870" lon="5.241421">
        <ele>299.747169</ele>
        <time>2017-06-08T11:32:59.000Z</time>
      </trkpt>
      <trkpt lat="43.675888" lon="5.241548">
        <ele>300.015949</ele>
        <time>2017-06-08T11:33:02.000Z</time>
      </trkpt>
      <trkpt lat="43.675888" lon="5.241676">
        <ele>300.281789</ele>
        <time>2017-06-08T11:33:05.000Z</time>
      </trkpt>
      <trkpt lat="43.675888" lon="5.241811">
        <ele>300.562167</ele>
        <time>2017-06-08T11:33:08.000Z</time>
      </trkpt>
      <trkpt lat="43.675880" lon="5.241957">
        <ele>300.866260</ele>
        <time>2017-06-08T11:33:12.000Z</time>
      </trkpt>
      <trkpt lat="43.675888" lon="5.242112">
        <ele>301.188994</ele>
        <time>2017-06-08T11:33:17.000Z</time>
      </trkpt>
      <trkpt lat="43.675900" lon="5.242274">
        <ele>301.527208</ele>
        <time>2017-06-08T11:33:21.000Z</time>
      </trkpt>
      <trkpt lat="43.675930" lon="5.242413">
        <ele>301.828473</ele>
        <time>2017-06-08T11:33:25.000Z</time>
      </trkpt>
      <trkpt lat="43.676030" lon="5.242594">
        <ele>302.301516</ele>
        <time>2017-06-08T11:34:22.000Z</time>
      </trkpt>
      <trkpt lat="43.676083" lon="5.242698">
        <ele>302.565744</ele>
        <time>2017-06-08T11:34:27.000Z</time>
      </trkpt>
      <trkpt lat="43.676083" lon="5.242827">
        <ele>302.688368</ele>
        <time>2017-06-08T11:37:19.000Z</time>
      </trkpt>
      <trkpt lat="43.676094" lon="5.242957">
        <ele>302.695500</ele>
        <time>2017-06-08T11:37:22.000Z</time>
      </trkpt>
      <trkpt lat="43.676100" lon="5.243110">
        <ele>302.703850</ele>
        <time>2017-06-08T11:37:25.000Z</time>
      </trkpt>
      <trkpt lat="43.676090" lon="5.243299">
        <ele>302.714176</ele>
        <time>2017-06-08T11:37:28.000Z</time>
      </trkpt>
      <trkpt lat="43.676075" lon="5.243475">
        <ele>302.723833</ele>
        <time>2017-06-08T11:37:31.000Z</time>
      </trkpt>
      <trkpt lat="43.676052" lon="5.243646">
        <ele>302.733311</ele>
        <time>2017-06-08T11:37:34.000Z</time>
      </trkpt>
      <trkpt lat="43.676037" lon="5.243791">
        <ele>302.741293</ele>
        <time>2017-06-08T11:37:37.000Z</time>
      </trkpt>
      <trkpt lat="43.676025" lon="5.243936">
        <ele>302.749246</ele>
        <time>2017-06-08T11:37:40.000Z</time>
      </trkpt>
      <trkpt lat="43.676014" lon="5.244108">
        <ele>302.758655</ele>
        <time>2017-06-08T11:37:43.000Z</time>
      </trkpt>
      <trkpt lat="43.675987" lon="5.244276">
        <ele>302.768033</ele>
        <time>2017-06-08T11:37:46.000Z</time>
      </trkpt>
      <trkpt lat="43.675957" lon="5.244413">
        <ele>302.775833</ele>
        <time>2017-06-08T11:37:50.000Z</time>
      </trkpt>
      <trkpt lat="43.675900" lon="5.244531">
        <ele>302.783565</ele>
        <time>2017-06-08T11:37:54.000Z</time>
      </trkpt>
      <trkpt lat="43.675858" lon="5.244665">
        <ele>302.791523</ele>
        <time>2017-06-08T11:37:58.000Z</time>
      </trkpt>
      <trkpt lat="43.675827" lon="5.244809">
        <ele>302.799710</ele>
        <time>2017-06-08T11:38:02.000Z</time>
      </trkpt>
      <trkpt lat="43.675800" lon="5.244955">
        <ele>302.807922</ele>
        <time>2017-06-08T11:38:06.000Z</time>
      </trkpt>
      <trkpt lat="43.675785" lon="5.245099">
        <ele>302.815850</ele>
        <time>2017-06-08T11:38:10.000Z</time>
      </trkpt>
      <trkpt lat="43.675777" lon="5.245233">
        <ele>302.723655</ele>
        <time>2017-06-08T11:38:14.000Z</time>
      </trkpt>
      <trkpt lat="43.675766" lon="5.245365">
        <ele>302.506364</ele>
        <time>2017-06-08T11:38:18.000Z</time>
      </trkpt>
      <trkpt lat="43.675755" lon="5.245515">
        <ele>302.259808</ele>
        <time>2017-06-08T11:38:22.000Z</time>
      </trkpt>
      <trkpt lat="43.675735" lon="5.245686">
        <ele>301.976535</ele>
        <time>2017-06-08T11:38:26.000Z</time>
      </trkpt>
      <trkpt lat="43.675724" lon="5.245831">
        <ele>301.738112</ele>
        <time>2017-06-08T11:38:29.000Z</time>
      </trkpt>
      <trkpt lat="43.675716" lon="5.245991">
        <ele>301.475836</ele>
        <time>2017-06-08T11:38:32.000Z</time>
      </trkpt>
      <trkpt lat="43.675720" lon="5.246174">
        <ele>301.176435</ele>
        <time>2017-06-08T11:38:35.000Z</time>
      </trkpt>
      <trkpt lat="43.675730" lon="5.246306">
        <ele>300.959391</ele>
        <time>2017-06-08T11:38:37.000Z</time>
      </trkpt>
      <trkpt lat="43.675728" lon="5.246446">
        <ele>300.730401</ele>
        <time>2017-06-08T11:38:39.000Z</time>
      </trkpt>
      <trkpt lat="43.675700" lon="5.246591">
        <ele>300.484973</ele>
        <time>2017-06-08T11:38:41.000Z</time>
      </trkpt>
      <trkpt lat="43.675674" lon="5.246729">
        <ele>300.251767</ele>
        <time>2017-06-08T11:38:43.000Z</time>
      </trkpt>
      <trkpt lat="43.675644" lon="5.246868">
        <ele>300.014552</ele>
        <time>2017-06-08T11:38:45.000Z</time>
      </trkpt>
      <trkpt lat="43.675617" lon="5.247000">
        <ele>299.790222</ele>
        <time>2017-06-08T11:38:47.000Z</time>
      </trkpt>
      <trkpt lat="43.675568" lon="5.247125">
        <ele>299.557713</ele>
        <time>2017-06-08T11:38:49.000Z</time>
      </trkpt>
      <trkpt lat="43.675488" lon="5.247211">
        <ele>299.328589</ele>
        <time>2017-06-08T11:38:51.000Z</time>
      </trkpt>
      <trkpt lat="43.675385" lon="5.247240">
        <ele>299.090921</ele>
        <time>2017-06-08T11:38:53.000Z</time>
      </trkpt>
      <trkpt lat="43.675274" lon="5.247237">
        <ele>298.839897</ele>
        <time>2017-06-08T11:38:55.000Z</time>
      </trkpt>
      <trkpt lat="43.675170" lon="5.247230">
        <ele>298.539739</ele>
        <time>2017-06-08T11:38:57.000Z</time>
      </trkpt>
      <trkpt lat="43.675076" lon="5.247232">
        <ele>298.234633</ele>
        <time>2017-06-08T11:38:59.000Z</time>
      </trkpt>
      <trkpt lat="43.674980" lon="5.247232">
        <ele>297.923072</ele>
        <time>2017-06-08T11:39:01.000Z</time>
      </trkpt>
      <trkpt lat="43.674892" lon="5.247225">
        <ele>297.637002</ele>
        <time>2017-06-08T11:39:03.000Z</time>
      </trkpt>
      <trkpt lat="43.674755" lon="5.247223">
        <ele>297.192354</ele>
        <time>2017-06-08T11:39:06.000Z</time>
      </trkpt>
      <trkpt lat="43.674660" lon="5.247215">
        <ele>296.883468</ele>
        <time>2017-06-08T11:39:08.000Z</time>
      </trkpt>
      <trkpt lat="43.674570" lon="5.247205">
        <ele>296.590438</ele>
        <time>2017-06-08T11:39:10.000Z</time>
      </trkpt>
      <trkpt lat="43.674473" lon="5.247192">
        <ele>296.274156</ele>
        <time>2017-06-08T11:39:12.000Z</time>
      </trkpt>
      <trkpt lat="43.674380" lon="5.247200">
        <ele>295.971748</ele>
        <time>2017-06-08T11:39:14.000Z</time>
      </trkpt>
      <trkpt lat="43.674286" lon="5.247232">
        <ele>295.657567</ele>
        <time>2017-06-08T11:39:16.000Z</time>
      </trkpt>
      <trkpt lat="43.674194" lon="5.247293">
        <ele>295.326429</ele>
        <time>2017-06-08T11:39:18.000Z</time>
      </trkpt>
      <trkpt lat="43.674103" lon="5.247365">
        <ele>294.986155</ele>
        <time>2017-06-08T11:39:20.000Z</time>
      </trkpt>
      <trkpt lat="43.674010" lon="5.247445">
        <ele>294.630680</ele>
        <time>2017-06-08T11:39:22.000Z</time>
      </trkpt>
      <trkpt lat="43.673916" lon="5.247530">
        <ele>294.266156</ele>
        <time>2017-06-08T11:39:24.000Z</time>
      </trkpt>
      <trkpt lat="43.673817" lon="5.247609">
        <ele>293.895184</ele>
        <time>2017-06-08T11:39:26.000Z</time>
      </trkpt>
      <trkpt lat="43.673710" lon="5.247695">
        <ele>293.493509</ele>
        <time>2017-06-08T11:39:28.000Z</time>
      </trkpt>
      <trkpt lat="43.673607" lon="5.247780">
        <ele>293.104211</ele>
        <time>2017-06-08T11:39:30.000Z</time>
      </trkpt>
      <trkpt lat="43.673504" lon="5.247866">
        <ele>292.781199</ele>
        <time>2017-06-08T11:39:32.000Z</time>
      </trkpt>
      <trkpt lat="43.673405" lon="5.247959">
        <ele>292.522490</ele>
        <time>2017-06-08T11:39:34.000Z</time>
      </trkpt>
      <trkpt lat="43.673310" lon="5.248060">
        <ele>292.263458</ele>
        <time>2017-06-08T11:39:36.000Z</time>
      </trkpt>
      <trkpt lat="43.673200" lon="5.248165">
        <ele>291.974531</ele>
        <time>2017-06-08T11:39:38.000Z</time>
      </trkpt>
      <trkpt lat="43.673077" lon="5.248240">
        <ele>291.683960</ele>
        <time>2017-06-08T11:39:40.000Z</time>
      </trkpt>
      <trkpt lat="43.672935" lon="5.248288">
        <ele>291.367988</ele>
        <time>2017-06-08T11:39:42.000Z</time>
      </trkpt>
      <trkpt lat="43.672790" lon="5.248334">
        <ele>291.046426</ele>
        <time>2017-06-08T11:39:44.000Z</time>
      </trkpt>
      <trkpt lat="43.672650" lon="5.248382">
        <ele>290.734652</ele>
        <time>2017-06-08T11:39:46.000Z</time>
      </trkpt>
      <trkpt lat="43.672510" lon="5.248437">
        <ele>290.420064</ele>
        <time>2017-06-08T11:39:48.000Z</time>
      </trkpt>
      <trkpt lat="43.672363" lon="5.248489">
        <ele>290.092089</ele>
        <time>2017-06-08T11:39:50.000Z</time>
      </trkpt>
      <trkpt lat="43.672215" lon="5.248523">
        <ele>289.767802</ele>
        <time>2017-06-08T11:39:52.000Z</time>
      </trkpt>
      <trkpt lat="43.672070" lon="5.248557">
        <ele>289.449911</ele>
        <time>2017-06-08T11:39:54.000Z</time>
      </trkpt>
      <trkpt lat="43.671925" lon="5.248581">
        <ele>289.134257</ele>
        <time>2017-06-08T11:39:56.000Z</time>
      </trkpt>
      <trkpt lat="43.671780" lon="5.248615">
        <ele>288.718523</ele>
        <time>2017-06-08T11:39:58.000Z</time>
      </trkpt>
      <trkpt lat="43.671646" lon="5.248664">
        <ele>288.280441</ele>
        <time>2017-06-08T11:40:00.000Z</time>
      </trkpt>
      <trkpt lat="43.671513" lon="5.248718">
        <ele>287.842332</ele>
        <time>2017-06-08T11:40:02.000Z</time>
      </trkpt>
      <trkpt lat="43.671387" lon="5.248769">
        <ele>287.427382</ele>
        <time>2017-06-08T11:40:04.000Z</time>
      </trkpt>
      <trkpt lat="43.671265" lon="5.248828">
        <ele>287.018881</ele>
        <time>2017-06-08T11:40:06.000Z</time>
      </trkpt>
      <trkpt lat="43.671150" lon="5.248883">
        <ele>286.634281</ele>
        <time>2017-06-08T11:40:08.000Z</time>
      </trkpt>
      <trkpt lat="43.671047" lon="5.248929">
        <ele>286.292177</ele>
        <time>2017-06-08T11:40:10.000Z</time>
      </trkpt>
      <trkpt lat="43.670940" lon="5.248981">
        <ele>285.933709</ele>
        <time>2017-06-08T11:40:12.000Z</time>
      </trkpt>
      <trkpt lat="43.670834" lon="5.249028">
        <ele>285.581879</ele>
        <time>2017-06-08T11:40:14.000Z</time>
      </trkpt>
      <trkpt lat="43.670730" lon="5.249076">
        <ele>285.235346</ele>
        <time>2017-06-08T11:40:16.000Z</time>
      </trkpt>
      <trkpt lat="43.670640" lon="5.249126">
        <ele>284.928786</ele>
        <time>2017-06-08T11:40:18.000Z</time>
      </trkpt>
      <trkpt lat="43.670547" lon="5.249158">
        <ele>284.625885</ele>
        <time>2017-06-08T11:40:20.000Z</time>
      </trkpt>
      <trkpt lat="43.670433" lon="5.249173">
        <ele>284.263950</ele>
        <time>2017-06-08T11:40:22.000Z</time>
      </trkpt>
      <trkpt lat="43.670330" lon="5.249147">
        <ele>283.933028</ele>
        <time>2017-06-08T11:40:24.000Z</time>
      </trkpt>
      <trkpt lat="43.670240" lon="5.249093">
        <ele>283.622942</ele>
        <time>2017-06-08T11:40:26.000Z</time>
      </trkpt>
      <trkpt lat="43.670128" lon="5.249058">
        <ele>283.188465</ele>
        <time>2017-06-08T11:40:28.000Z</time>
      </trkpt>
      <trkpt lat="43.670006" lon="5.249029">
        <ele>282.460915</ele>
        <time>2017-06-08T11:40:30.000Z</time>
      </trkpt>
      <trkpt lat="43.669888" lon="5.249010">
        <ele>281.762709</ele>
        <time>2017-06-08T11:40:32.000Z</time>
      </trkpt>
      <trkpt lat="43.669760" lon="5.248988">
        <ele>281.004626</ele>
        <time>2017-06-08T11:40:34.000Z</time>
      </trkpt>
      <trkpt lat="43.669630" lon="5.248967">
        <ele>280.235383</ele>
        <time>2017-06-08T11:40:36.000Z</time>
      </trkpt>
      <trkpt lat="43.669490" lon="5.248943">
        <ele>279.406262</ele>
        <time>2017-06-08T11:40:38.000Z</time>
      </trkpt>
      <trkpt lat="43.669342" lon="5.248915">
        <ele>278.528319</ele>
        <time>2017-06-08T11:40:40.000Z</time>
      </trkpt>
      <trkpt lat="43.669180" lon="5.248859">
        <ele>277.546888</ele>
        <time>2017-06-08T11:40:42.000Z</time>
      </trkpt>
      <trkpt lat="43.669020" lon="5.248788">
        <ele>276.559268</ele>
        <time>2017-06-08T11:40:44.000Z</time>
      </trkpt>
      <trkpt lat="43.668860" lon="5.248714">
        <ele>275.567677</ele>
        <time>2017-06-08T11:40:46.000Z</time>
      </trkpt>
      <trkpt lat="43.668710" lon="5.248645">
        <ele>274.638564</ele>
        <time>2017-06-08T11:40:48.000Z</time>
      </trkpt>
      <trkpt lat="43.668568" lon="5.248591">
        <ele>273.772992</ele>
        <time>2017-06-08T11:40:50.000Z</time>
      </trkpt>
      <trkpt lat="43.668457" lon="5.248544">
        <ele>273.090701</ele>
        <time>2017-06-08T11:40:52.000Z</time>
      </trkpt>
      <trkpt lat="43.668370" lon="5.248509">
        <ele>272.756107</ele>
        <time>2017-06-08T11:40:54.000Z</time>
      </trkpt>
      <trkpt lat="43.668280" lon="5.248484">
        <ele>272.715631</ele>
        <time>2017-06-08T11:40:56.000Z</time>
      </trkpt>
      <trkpt lat="43.668150" lon="5.248432">
        <ele>272.655960</ele>
        <time>2017-06-08T11:40:59.000Z</time>
      </trkpt>
      <trkpt lat="43.668034" lon="5.248405">
        <ele>272.604094</ele>
        <time>2017-06-08T11:41:02.000Z</time>
      </trkpt>
      <trkpt lat="43.667904" lon="5.248361">
        <ele>272.545082</ele>
        <time>2017-06-08T11:41:05.000Z</time>
      </trkpt>
      <trkpt lat="43.667812" lon="5.248343">
        <ele>272.504113</ele>
        <time>2017-06-08T11:41:07.000Z</time>
      </trkpt>
      <trkpt lat="43.667694" lon="5.248339">
        <ele>272.452069</ele>
        <time>2017-06-08T11:41:10.000Z</time>
      </trkpt>
      <trkpt lat="43.667595" lon="5.248392">
        <ele>272.405259</ele>
        <time>2017-06-08T11:41:14.000Z</time>
      </trkpt>
      <trkpt lat="43.667500" lon="5.248466">
        <ele>272.357180</ele>
        <time>2017-06-08T11:41:20.000Z</time>
      </trkpt>
      <trkpt lat="43.667390" lon="5.248532">
        <ele>272.304308</ele>
        <time>2017-06-08T11:41:24.000Z</time>
      </trkpt>
      <trkpt lat="43.667316" lon="5.248638">
        <ele>272.257324</ele>
        <time>2017-06-08T11:41:27.000Z</time>
      </trkpt>
      <trkpt lat="43.667240" lon="5.248769">
        <ele>272.203764</ele>
        <time>2017-06-08T11:41:30.000Z</time>
      </trkpt>
      <trkpt lat="43.667168" lon="5.248907">
        <ele>272.149496</ele>
        <time>2017-06-08T11:41:33.000Z</time>
      </trkpt>
      <trkpt lat="43.667110" lon="5.249005">
        <ele>272.109110</ele>
        <time>2017-06-08T11:41:35.000Z</time>
      </trkpt>
      <trkpt lat="43.667046" lon="5.249107">
        <ele>272.066045</ele>
        <time>2017-06-08T11:41:37.000Z</time>
      </trkpt>
      <trkpt lat="43.666977" lon="5.249219">
        <ele>272.019123</ele>
        <time>2017-06-08T11:41:39.000Z</time>
      </trkpt>
      <trkpt lat="43.666912" lon="5.249333">
        <ele>271.938425</ele>
        <time>2017-06-08T11:41:41.000Z</time>
      </trkpt>
      <trkpt lat="43.666790" lon="5.249506">
        <ele>271.439200</ele>
        <time>2017-06-08T11:41:44.000Z</time>
      </trkpt>
      <trkpt lat="43.666706" lon="5.249614">
        <ele>271.111523</ele>
        <time>2017-06-08T11:41:46.000Z</time>
      </trkpt>
      <trkpt lat="43.666607" lon="5.249727">
        <ele>270.744798</ele>
        <time>2017-06-08T11:41:48.000Z</time>
      </trkpt>
      <trkpt lat="43.666504" lon="5.249837">
        <ele>270.373013</ele>
        <time>2017-06-08T11:41:50.000Z</time>
      </trkpt>
      <trkpt lat="43.666390" lon="5.249942">
        <ele>269.981719</ele>
        <time>2017-06-08T11:41:52.000Z</time>
      </trkpt>
      <trkpt lat="43.666264" lon="5.250033">
        <ele>269.575646</ele>
        <time>2017-06-08T11:41:54.000Z</time>
      </trkpt>
      <trkpt lat="43.666134" lon="5.250117">
        <ele>269.165744</ele>
        <time>2017-06-08T11:41:56.000Z</time>
      </trkpt>
      <trkpt lat="43.666000" lon="5.250197">
        <ele>268.748808</ele>
        <time>2017-06-08T11:41:58.000Z</time>
      </trkpt>
      <trkpt lat="43.665880" lon="5.250260">
        <ele>268.382146</ele>
        <time>2017-06-08T11:42:01.000Z</time>
      </trkpt>
      <trkpt lat="43.665756" lon="5.250318">
        <ele>268.008218</ele>
        <time>2017-06-08T11:42:02.000Z</time>
      </trkpt>
      <trkpt lat="43.665634" lon="5.250378">
        <ele>267.638333</ele>
        <time>2017-06-08T11:42:04.000Z</time>
      </trkpt>
      <trkpt lat="43.665510" lon="5.250440">
        <ele>267.261675</ele>
        <time>2017-06-08T11:42:06.000Z</time>
      </trkpt>
      <trkpt lat="43.665390" lon="5.250500">
        <ele>266.897167</ele>
        <time>2017-06-08T11:42:08.000Z</time>
      </trkpt>
      <trkpt lat="43.665270" lon="5.250562">
        <ele>266.529937</ele>
        <time>2017-06-08T11:42:10.000Z</time>
      </trkpt>
      <trkpt lat="43.665150" lon="5.250619">
        <ele>266.165977</ele>
        <time>2017-06-08T11:42:12.000Z</time>
      </trkpt>
      <trkpt lat="43.665028" lon="5.250684">
        <ele>265.790941</ele>
        <time>2017-06-08T11:42:14.000Z</time>
      </trkpt>
      <trkpt lat="43.664898" lon="5.250747">
        <ele>265.395800</ele>
        <time>2017-06-08T11:42:16.000Z</time>
      </trkpt>
      <trkpt lat="43.664764" lon="5.250819">
        <ele>264.983422</ele>
        <time>2017-06-08T11:42:18.000Z</time>
      </trkpt>
      <trkpt lat="43.664635" lon="5.250889">
        <ele>264.585912</ele>
        <time>2017-06-08T11:42:20.000Z</time>
      </trkpt>
      <trkpt lat="43.664497" lon="5.250960">
        <ele>264.163547</ele>
        <time>2017-06-08T11:42:22.000Z</time>
      </trkpt>
      <trkpt lat="43.664356" lon="5.251038">
        <ele>263.727921</ele>
        <time>2017-06-08T11:42:24.000Z</time>
      </trkpt>
      <trkpt lat="43.664210" lon="5.251110">
        <ele>263.283285</ele>
        <time>2017-06-08T11:42:26.000Z</time>
      </trkpt>
      <trkpt lat="43.664063" lon="5.251185">
        <ele>262.833828</ele>
        <time>2017-06-08T11:42:28.000Z</time>
      </trkpt>
      <trkpt lat="43.663920" lon="5.251257">
        <ele>262.397287</ele>
        <time>2017-06-08T11:42:30.000Z</time>
      </trkpt>
      <trkpt lat="43.663788" lon="5.251322">
        <ele>261.995353</ele>
        <time>2017-06-08T11:42:32.000Z</time>
      </trkpt>
      <trkpt lat="43.663662" lon="5.251378">
        <ele>261.590900</ele>
        <time>2017-06-08T11:42:34.000Z</time>
      </trkpt>
      <trkpt lat="43.663536" lon="5.251426">
        <ele>261.075928</ele>
        <time>2017-06-08T11:42:36.000Z</time>
      </trkpt>
      <trkpt lat="43.663414" lon="5.251472">
        <ele>260.577663</ele>
        <time>2017-06-08T11:42:38.000Z</time>
      </trkpt>
      <trkpt lat="43.663290" lon="5.251514">
        <ele>260.074626</ele>
        <time>2017-06-08T11:42:40.000Z</time>
      </trkpt>
      <trkpt lat="43.663166" lon="5.251549">
        <ele>259.575960</ele>
        <time>2017-06-08T11:42:42.000Z</time>
      </trkpt>
      <trkpt lat="43.663040" lon="5.251604">
        <ele>259.055331</ele>
        <time>2017-06-08T11:42:44.000Z</time>
      </trkpt>
      <trkpt lat="43.662907" lon="5.251659">
        <ele>258.508338</ele>
        <time>2017-06-08T11:42:46.000Z</time>
      </trkpt>
      <trkpt lat="43.662777" lon="5.251713">
        <ele>257.973486</ele>
        <time>2017-06-08T11:42:48.000Z</time>
      </trkpt>
      <trkpt lat="43.662632" lon="5.251775">
        <ele>257.375449</ele>
        <time>2017-06-08T11:42:50.000Z</time>
      </trkpt>
      <trkpt lat="43.662500" lon="5.251843">
        <ele>256.820400</ele>
        <time>2017-06-08T11:42:52.000Z</time>
      </trkpt>
      <trkpt lat="43.662370" lon="5.251905">
        <ele>256.278545</ele>
        <time>2017-06-08T11:42:54.000Z</time>
      </trkpt>
      <trkpt lat="43.662240" lon="5.251977">
        <ele>255.726735</ele>
        <time>2017-06-08T11:42:56.000Z</time>
      </trkpt>
      <trkpt lat="43.662110" lon="5.252049">
        <ele>255.174924</ele>
        <time>2017-06-08T11:42:58.000Z</time>
      </trkpt>
      <trkpt lat="43.661972" lon="5.252118">
        <ele>254.596700</ele>
        <time>2017-06-08T11:43:00.000Z</time>
      </trkpt>
      <trkpt lat="43.661846" lon="5.252187">
        <ele>254.216923</ele>
        <time>2017-06-08T11:43:02.000Z</time>
      </trkpt>
      <trkpt lat="43.661724" lon="5.252258">
        <ele>253.846438</ele>
        <time>2017-06-08T11:43:04.000Z</time>
      </trkpt>
      <trkpt lat="43.661613" lon="5.252314">
        <ele>253.515723</ele>
        <time>2017-06-08T11:43:06.000Z</time>
      </trkpt>
      <trkpt lat="43.661507" lon="5.252376">
        <ele>253.193580</ele>
        <time>2017-06-08T11:43:08.000Z</time>
      </trkpt>
      <trkpt lat="43.661396" lon="5.252422">
        <ele>252.869249</ele>
        <time>2017-06-08T11:43:10.000Z</time>
      </trkpt>
      <trkpt lat="43.661297" lon="5.252474">
        <ele>252.572835</ele>
        <time>2017-06-08T11:43:12.000Z</time>
      </trkpt>
      <trkpt lat="43.661194" lon="5.252529">
        <ele>252.263793</ele>
        <time>2017-06-08T11:43:14.000Z</time>
      </trkpt>
      <trkpt lat="43.661090" lon="5.252585">
        <ele>251.951410</ele>
        <time>2017-06-08T11:43:16.000Z</time>
      </trkpt>
      <trkpt lat="43.660973" lon="5.252642">
        <ele>251.604204</ele>
        <time>2017-06-08T11:43:18.000Z</time>
      </trkpt>
      <trkpt lat="43.660854" lon="5.252699">
        <ele>251.251713</ele>
        <time>2017-06-08T11:43:21.000Z</time>
      </trkpt>
      <trkpt lat="43.660744" lon="5.252749">
        <ele>250.927623</ele>
        <time>2017-06-08T11:43:22.000Z</time>
      </trkpt>
      <trkpt lat="43.660630" lon="5.252803">
        <ele>250.590342</ele>
        <time>2017-06-08T11:43:24.000Z</time>
      </trkpt>
      <trkpt lat="43.660522" lon="5.252864">
        <ele>250.263808</ele>
        <time>2017-06-08T11:43:26.000Z</time>
      </trkpt>
      <trkpt lat="43.660430" lon="5.252925">
        <ele>249.978224</ele>
        <time>2017-06-08T11:43:28.000Z</time>
      </trkpt>
      <trkpt lat="43.660324" lon="5.253023">
        <ele>249.621305</ele>
        <time>2017-06-08T11:43:31.000Z</time>
      </trkpt>
      <trkpt lat="43.660248" lon="5.253127">
        <ele>249.511404</ele>
        <time>2017-06-08T11:43:34.000Z</time>
      </trkpt>
      <trkpt lat="43.660194" lon="5.253232">
        <ele>249.457260</ele>
        <time>2017-06-08T11:43:37.000Z</time>
      </trkpt>
      <trkpt lat="43.660140" lon="5.253357">
        <ele>249.396071</ele>
        <time>2017-06-08T11:43:41.000Z</time>
      </trkpt>
      <trkpt lat="43.660034" lon="5.253398">
        <ele>249.332126</ele>
        <time>2017-06-08T11:43:46.000Z</time>
      </trkpt>
      <trkpt lat="43.659920" lon="5.253406">
        <ele>249.265813</ele>
        <time>2017-06-08T11:43:50.000Z</time>
      </trkpt>
      <trkpt lat="43.659798" lon="5.253446">
        <ele>249.192971</ele>
        <time>2017-06-08T11:43:53.000Z</time>
      </trkpt>
      <trkpt lat="43.659702" lon="5.253498">
        <ele>249.133071</ele>
        <time>2017-06-08T11:43:55.000Z</time>
      </trkpt>
      <trkpt lat="43.659615" lon="5.253555">
        <ele>249.077138</ele>
        <time>2017-06-08T11:43:57.000Z</time>
      </trkpt>
      <trkpt lat="43.659527" lon="5.253609">
        <ele>249.021204</ele>
        <time>2017-06-08T11:43:59.000Z</time>
      </trkpt>
      <trkpt lat="43.659440" lon="5.253653">
        <ele>248.967385</ele>
        <time>2017-06-08T11:44:01.000Z</time>
      </trkpt>
      <trkpt lat="43.659313" lon="5.253723">
        <ele>248.887956</ele>
        <time>2017-06-08T11:44:04.000Z</time>
      </trkpt>
      <trkpt lat="43.659220" lon="5.253763">
        <ele>248.831372</ele>
        <time>2017-06-08T11:44:06.000Z</time>
      </trkpt>
      <trkpt lat="43.659122" lon="5.253820">
        <ele>248.769605</ele>
        <time>2017-06-08T11:44:08.000Z</time>
      </trkpt>
      <trkpt lat="43.659035" lon="5.253859">
        <ele>248.716471</ele>
        <time>2017-06-08T11:44:10.000Z</time>
      </trkpt>
      <trkpt lat="43.658916" lon="5.253921">
        <ele>248.642591</ele>
        <time>2017-06-08T11:44:13.000Z</time>
      </trkpt>
      <trkpt lat="43.658825" lon="5.253974">
        <ele>248.585223</ele>
        <time>2017-06-08T11:44:15.000Z</time>
      </trkpt>
      <trkpt lat="43.658700" lon="5.254034">
        <ele>248.531737</ele>
        <time>2017-06-08T11:44:18.000Z</time>
      </trkpt>
      <trkpt lat="43.658580" lon="5.254090">
        <ele>248.680047</ele>
        <time>2017-06-08T11:44:21.000Z</time>
      </trkpt>
      <trkpt lat="43.658493" lon="5.254135">
        <ele>248.788822</ele>
        <time>2017-06-08T11:44:23.000Z</time>
      </trkpt>
      <trkpt lat="43.658386" lon="5.254188">
        <ele>248.921919</ele>
        <time>2017-06-08T11:44:26.000Z</time>
      </trkpt>
      <trkpt lat="43.658287" lon="5.254248">
        <ele>249.048500</ele>
        <time>2017-06-08T11:44:28.000Z</time>
      </trkpt>
      <trkpt lat="43.658180" lon="5.254295">
        <ele>249.179969</ele>
        <time>2017-06-08T11:44:30.000Z</time>
      </trkpt>
      <trkpt lat="43.658066" lon="5.254337">
        <ele>249.318122</ele>
        <time>2017-06-08T11:44:33.000Z</time>
      </trkpt>
      <trkpt lat="43.657936" lon="5.254413">
        <ele>249.483405</ele>
        <time>2017-06-08T11:44:36.000Z</time>
      </trkpt>
      <trkpt lat="43.657850" lon="5.254460">
        <ele>249.591695</ele>
        <time>2017-06-08T11:44:38.000Z</time>
      </trkpt>
      <trkpt lat="43.657734" lon="5.254524">
        <ele>249.737950</ele>
        <time>2017-06-08T11:44:41.000Z</time>
      </trkpt>
      <trkpt lat="43.657623" lon="5.254584">
        <ele>249.877515</ele>
        <time>2017-06-08T11:44:44.000Z</time>
      </trkpt>
      <trkpt lat="43.657500" lon="5.254650">
        <ele>250.032018</ele>
        <time>2017-06-08T11:44:47.000Z</time>
      </trkpt>
      <trkpt lat="43.657375" lon="5.254715">
        <ele>250.188406</ele>
        <time>2017-06-08T11:44:50.000Z</time>
      </trkpt>
      <trkpt lat="43.657250" lon="5.254777">
        <ele>250.343917</ele>
        <time>2017-06-08T11:44:53.000Z</time>
      </trkpt>
      <trkpt lat="43.657166" lon="5.254826">
        <ele>250.450680</ele>
        <time>2017-06-08T11:44:55.000Z</time>
      </trkpt>
      <trkpt lat="43.657078" lon="5.254867">
        <ele>250.559423</ele>
        <time>2017-06-08T11:44:57.000Z</time>
      </trkpt>
      <trkpt lat="43.656963" lon="5.254942">
        <ele>250.624822</ele>
        <time>2017-06-08T11:45:00.000Z</time>
      </trkpt>
      <trkpt lat="43.656876" lon="5.255007">
        <ele>250.628241</ele>
        <time>2017-06-08T11:45:03.000Z</time>
      </trkpt>
      <trkpt lat="43.656788" lon="5.255037">
        <ele>250.631374</ele>
        <time>2017-06-08T11:45:06.000Z</time>
      </trkpt>
      <trkpt lat="43.656696" lon="5.255073">
        <ele>250.634680</ele>
        <time>2017-06-08T11:45:09.000Z</time>
      </trkpt>
      <trkpt lat="43.656605" lon="5.255116">
        <ele>250.638005</ele>
        <time>2017-06-08T11:45:12.000Z</time>
      </trkpt>
      <trkpt lat="43.656510" lon="5.255160">
        <ele>250.641469</ele>
        <time>2017-06-08T11:45:15.000Z</time>
      </trkpt>
      <trkpt lat="43.656403" lon="5.255206">
        <ele>250.645343</ele>
        <time>2017-06-08T11:45:18.000Z</time>
      </trkpt>
      <trkpt lat="43.656307" lon="5.255271">
        <ele>250.649039</ele>
        <time>2017-06-08T11:45:21.000Z</time>
      </trkpt>
      <trkpt lat="43.656204" lon="5.255336">
        <ele>250.652953</ele>
        <time>2017-06-08T11:45:24.000Z</time>
      </trkpt>
      <trkpt lat="43.656124" lon="5.255401">
        <ele>250.656162</ele>
        <time>2017-06-08T11:45:26.000Z</time>
      </trkpt>
      <trkpt lat="43.656030" lon="5.255477">
        <ele>250.659927</ele>
        <time>2017-06-08T11:45:29.000Z</time>
      </trkpt>
      <trkpt lat="43.655940" lon="5.255584">
        <ele>250.664031</ele>
        <time>2017-06-08T11:45:32.000Z</time>
      </trkpt>
      <trkpt lat="43.655860" lon="5.255694">
        <ele>250.667932</ele>
        <time>2017-06-08T11:45:35.000Z</time>
      </trkpt>
      <trkpt lat="43.655766" lon="5.255803">
        <ele>250.672174</ele>
        <time>2017-06-08T11:45:38.000Z</time>
      </trkpt>
      <trkpt lat="43.655704" lon="5.255890">
        <ele>250.675229</ele>
        <time>2017-06-08T11:45:40.000Z</time>
      </trkpt>
      <trkpt lat="43.655630" lon="5.256008">
        <ele>250.679135</ele>
        <time>2017-06-08T11:45:43.000Z</time>
      </trkpt>
      <trkpt lat="43.655575" lon="5.256116">
        <ele>250.682439</ele>
        <time>2017-06-08T11:45:46.000Z</time>
      </trkpt>
      <trkpt lat="43.655537" lon="5.256232">
        <ele>250.642060</ele>
        <time>2017-06-08T11:45:49.000Z</time>
      </trkpt>
      <trkpt lat="43.655490" lon="5.256346">
        <ele>250.521901</ele>
        <time>2017-06-08T11:45:52.000Z</time>
      </trkpt>
      <trkpt lat="43.655450" lon="5.256484">
        <ele>250.385759</ele>
        <time>2017-06-08T11:45:55.000Z</time>
      </trkpt>
      <trkpt lat="43.655410" lon="5.256623">
        <ele>250.248767</ele>
        <time>2017-06-08T11:45:58.000Z</time>
      </trkpt>
      <trkpt lat="43.655373" lon="5.256761">
        <ele>250.113991</ele>
        <time>2017-06-08T11:46:01.000Z</time>
      </trkpt>
      <trkpt lat="43.655340" lon="5.256896">
        <ele>249.983495</ele>
        <time>2017-06-08T11:46:04.000Z</time>
      </trkpt>
      <trkpt lat="43.655330" lon="5.257073">
        <ele>249.820909</ele>
        <time>2017-06-08T11:46:07.000Z</time>
      </trkpt>
      <trkpt lat="43.655327" lon="5.257206">
        <ele>249.699051</ele>
        <time>2017-06-08T11:46:09.000Z</time>
      </trkpt>
      <trkpt lat="43.655320" lon="5.257347">
        <ele>249.569623</ele>
        <time>2017-06-08T11:46:11.000Z</time>
      </trkpt>
      <trkpt lat="43.655308" lon="5.257501">
        <ele>249.427777</ele>
        <time>2017-06-08T11:46:13.000Z</time>
      </trkpt>
      <trkpt lat="43.655296" lon="5.257658">
        <ele>249.283200</ele>
        <time>2017-06-08T11:46:15.000Z</time>
      </trkpt>
      <trkpt lat="43.655290" lon="5.257803">
        <ele>249.150195</ele>
        <time>2017-06-08T11:46:17.000Z</time>
      </trkpt>
      <trkpt lat="43.655270" lon="5.257938">
        <ele>249.023999</ele>
        <time>2017-06-08T11:46:19.000Z</time>
      </trkpt>
      <trkpt lat="43.655254" lon="5.258068">
        <ele>248.903238</ele>
        <time>2017-06-08T11:46:21.000Z</time>
      </trkpt>
      <trkpt lat="43.655240" lon="5.258198">
        <ele>248.782875</ele>
        <time>2017-06-08T11:46:23.000Z</time>
      </trkpt>
      <trkpt lat="43.655230" lon="5.258340">
        <ele>248.652219</ele>
        <time>2017-06-08T11:46:25.000Z</time>
      </trkpt>
      <trkpt lat="43.655230" lon="5.258487">
        <ele>248.517600</ele>
        <time>2017-06-08T11:46:27.000Z</time>
      </trkpt>
      <trkpt lat="43.655230" lon="5.258637">
        <ele>248.418723</ele>
        <time>2017-06-08T11:46:29.000Z</time>
      </trkpt>
      <trkpt lat="43.655228" lon="5.258794">
        <ele>248.475491</ele>
        <time>2017-06-08T11:46:31.000Z</time>
      </trkpt>
      <trkpt lat="43.655224" lon="5.258950">
        <ele>248.531924</ele>
        <time>2017-06-08T11:46:33.000Z</time>
      </trkpt>
      <trkpt lat="43.655210" lon="5.259091">
        <ele>248.583377</ele>
        <time>2017-06-08T11:46:35.000Z</time>
      </trkpt>
      <trkpt lat="43.655193" lon="5.259227">
        <ele>248.633273</ele>
        <time>2017-06-08T11:46:37.000Z</time>
      </trkpt>
      <trkpt lat="43.655160" lon="5.259403">
        <ele>248.699003</ele>
        <time>2017-06-08T11:46:40.000Z</time>
      </trkpt>
      <trkpt lat="43.655150" lon="5.259534">
        <ele>248.746626</ele>
        <time>2017-06-08T11:46:42.000Z</time>
      </trkpt>
      <trkpt lat="43.655148" lon="5.259658">
        <ele>248.791466</ele>
        <time>2017-06-08T11:46:44.000Z</time>
      </trkpt>
      <trkpt lat="43.655150" lon="5.259824">
        <ele>248.851487</ele>
        <time>2017-06-08T11:46:47.000Z</time>
      </trkpt>
      <trkpt lat="43.655155" lon="5.259974">
        <ele>248.905774</ele>
        <time>2017-06-08T11:46:50.000Z</time>
      </trkpt>
      <trkpt lat="43.655150" lon="5.260108">
        <ele>248.954282</ele>
        <time>2017-06-08T11:46:53.000Z</time>
      </trkpt>
      <trkpt lat="43.655140" lon="5.260245">
        <ele>249.004063</ele>
        <time>2017-06-08T11:46:57.000Z</time>
      </trkpt>
      <trkpt lat="43.655117" lon="5.260364">
        <ele>249.048593</ele>
        <time>2017-06-08T11:47:03.000Z</time>
      </trkpt>
      <trkpt lat="43.655045" lon="5.260467">
        <ele>249.100371</ele>
        <time>2017-06-08T11:47:48.000Z</time>
      </trkpt>
      <trkpt lat="43.654984" lon="5.260578">
        <ele>249.150764</ele>
        <time>2017-06-08T11:47:53.000Z</time>
      </trkpt>
      <trkpt lat="43.654907" lon="5.260684">
        <ele>249.205068</ele>
        <time>2017-06-08T11:47:58.000Z</time>
      </trkpt>
      <trkpt lat="43.654820" lon="5.260752">
        <ele>249.255010</ele>
        <time>2017-06-08T11:48:04.000Z</time>
      </trkpt>
      <trkpt lat="43.654736" lon="5.260816">
        <ele>249.302938</ele>
        <time>2017-06-08T11:48:09.000Z</time>
      </trkpt>
      <trkpt lat="43.654640" lon="5.260879">
        <ele>249.451010</ele>
        <time>2017-06-08T11:48:14.000Z</time>
      </trkpt>
      <trkpt lat="43.654552" lon="5.260933">
        <ele>249.591501</ele>
        <time>2017-06-08T11:48:18.000Z</time>
      </trkpt>
      <trkpt lat="43.654470" lon="5.260984">
        <ele>249.722708</ele>
        <time>2017-06-08T11:48:22.000Z</time>
      </trkpt>
      <trkpt lat="43.654385" lon="5.261063">
        <ele>249.872169</ele>
        <time>2017-06-08T11:48:27.000Z</time>
      </trkpt>
      <trkpt lat="43.654310" lon="5.261139">
        <ele>250.007867</ele>
        <time>2017-06-08T11:48:33.000Z</time>
      </trkpt>
      <trkpt lat="43.654300" lon="5.261285">
        <ele>250.162691</ele>
        <time>2017-06-08T11:48:39.000Z</time>
      </trkpt>
      <trkpt lat="43.654373" lon="5.261375">
        <ele>250.305429</ele>
        <time>2017-06-08T11:48:43.000Z</time>
      </trkpt>
      <trkpt lat="43.654450" lon="5.261443">
        <ele>250.438760</ele>
        <time>2017-06-08T11:48:47.000Z</time>
      </trkpt>
      <trkpt lat="43.654522" lon="5.261529">
        <ele>250.577614</ele>
        <time>2017-06-08T11:48:53.000Z</time>
      </trkpt>
      <trkpt lat="43.654580" lon="5.261629">
        <ele>250.712920</ele>
        <time>2017-06-08T11:49:00.000Z</time>
      </trkpt>
      <trkpt lat="43.654556" lon="5.261752">
        <ele>250.847412</ele>
        <time>2017-06-08T11:49:06.000Z</time>
      </trkpt>
      <trkpt lat="43.654545" lon="5.261891">
        <ele>250.995032</ele>
        <time>2017-06-08T11:49:10.000Z</time>
      </trkpt>
      <trkpt lat="43.654510" lon="5.262013">
        <ele>251.133585</ele>
        <time>2017-06-08T11:49:14.000Z</time>
      </trkpt>
      <trkpt lat="43.654420" lon="5.262066">
        <ele>251.276332</ele>
        <time>2017-06-08T11:49:19.000Z</time>
      </trkpt>
      <trkpt lat="43.654324" lon="5.262049">
        <ele>251.417556</ele>
        <time>2017-06-08T11:49:24.000Z</time>
      </trkpt>
      <trkpt lat="43.654232" lon="5.262020">
        <ele>251.555244</ele>
        <time>2017-06-08T11:49:29.000Z</time>
      </trkpt>
      <trkpt lat="43.654163" lon="5.262118">
        <ele>251.699608</ele>
        <time>2017-06-08T11:49:34.000Z</time>
      </trkpt>
      <trkpt lat="43.654163" lon="5.262247">
        <ele>251.835797</ele>
        <time>2017-06-08T11:49:39.000Z</time>
      </trkpt>
      <trkpt lat="43.654247" lon="5.262430">
        <ele>252.009609</ele>
        <time>2017-06-08T11:51:44.000Z</time>
      </trkpt>
      <trkpt lat="43.654327" lon="5.262502">
        <ele>252.091544</ele>
        <time>2017-06-08T11:51:49.000Z</time>
      </trkpt>
      <trkpt lat="43.654380" lon="5.262621">
        <ele>252.178318</ele>
        <time>2017-06-08T11:51:56.000Z</time>
      </trkpt>
      <trkpt lat="43.654370" lon="5.262759">
        <ele>252.264440</ele>
        <time>2017-06-08T11:52:05.000Z</time>
      </trkpt>
      <trkpt lat="43.654360" lon="5.262899">
        <ele>252.351799</ele>
        <time>2017-06-08T11:52:13.000Z</time>
      </trkpt>
      <trkpt lat="43.654380" lon="5.263026">
        <ele>252.432509</ele>
        <time>2017-06-08T11:52:19.000Z</time>
      </trkpt>
      <trkpt lat="43.654385" lon="5.263170">
        <ele>252.522031</ele>
        <time>2017-06-08T11:52:25.000Z</time>
      </trkpt>
      <trkpt lat="43.654396" lon="5.263307">
        <ele>252.607626</ele>
        <time>2017-06-08T11:52:30.000Z</time>
      </trkpt>
      <trkpt lat="43.654373" lon="5.263436">
        <ele>252.690128</ele>
        <time>2017-06-08T11:52:36.000Z</time>
      </trkpt>
      <trkpt lat="43.654346" lon="5.263576">
        <ele>252.780099</ele>
        <time>2017-06-08T11:52:41.000Z</time>
      </trkpt>
      <trkpt lat="43.654312" lon="5.263704">
        <ele>252.864771</ele>
        <time>2017-06-08T11:52:47.000Z</time>
      </trkpt>
      <trkpt lat="43.654266" lon="5.263831">
        <ele>252.952964</ele>
        <time>2017-06-08T11:52:53.000Z</time>
      </trkpt>
      <trkpt lat="43.654243" lon="5.263953">
        <ele>253.031252</ele>
        <time>2017-06-08T11:52:57.000Z</time>
      </trkpt>
      <trkpt lat="43.654213" lon="5.264100">
        <ele>253.126097</ele>
        <time>2017-06-08T11:53:02.000Z</time>
      </trkpt>
      <trkpt lat="43.654140" lon="5.264272">
        <ele>253.249924</ele>
        <time>2017-06-08T11:53:40.000Z</time>
      </trkpt>
      <trkpt lat="43.654060" lon="5.264381">
        <ele>253.346339</ele>
        <time>2017-06-08T11:53:44.000Z</time>
      </trkpt>
      <trkpt lat="43.653988" lon="5.264467">
        <ele>253.428013</ele>
        <time>2017-06-08T11:53:47.000Z</time>
      </trkpt>
      <trkpt lat="43.653885" lon="5.264526">
        <ele>253.791875</ele>
        <time>2017-06-08T11:53:51.000Z</time>
      </trkpt>
      <trkpt lat="43.653780" lon="5.264556">
        <ele>254.388356</ele>
        <time>2017-06-08T11:53:55.000Z</time>
      </trkpt>
      <trkpt lat="43.653687" lon="5.264569">
        <ele>254.908369</ele>
        <time>2017-06-08T11:54:02.000Z</time>
      </trkpt>
      <trkpt lat="43.653576" lon="5.264553">
        <ele>255.529228</ele>
        <time>2017-06-08T11:54:07.000Z</time>
      </trkpt>
      <trkpt lat="43.653484" lon="5.264555">
        <ele>256.041101</ele>
        <time>2017-06-08T11:54:10.000Z</time>
      </trkpt>
      <trkpt lat="43.653380" lon="5.264602">
        <ele>256.649813</ele>
        <time>2017-06-08T11:54:15.000Z</time>
      </trkpt>
      <trkpt lat="43.653310" lon="5.264701">
        <ele>257.206983</ele>
        <time>2017-06-08T11:54:19.000Z</time>
      </trkpt>
      <trkpt lat="43.653270" lon="5.264845">
        <ele>257.827847</ele>
        <time>2017-06-08T11:54:23.000Z</time>
      </trkpt>
      <trkpt lat="43.653244" lon="5.265007">
        <ele>258.495765</ele>
        <time>2017-06-08T11:54:27.000Z</time>
      </trkpt>
      <trkpt lat="43.653220" lon="5.265163">
        <ele>259.137720</ele>
        <time>2017-06-08T11:54:31.000Z</time>
      </trkpt>
      <trkpt lat="43.653217" lon="5.265297">
        <ele>259.677343</ele>
        <time>2017-06-08T11:54:35.000Z</time>
      </trkpt>
      <trkpt lat="43.653122" lon="5.265331">
        <ele>260.223274</ele>
        <time>2017-06-08T11:54:40.000Z</time>
      </trkpt>
      <trkpt lat="43.653010" lon="5.265344">
        <ele>260.848541</ele>
        <time>2017-06-08T11:54:45.000Z</time>
      </trkpt>
      <trkpt lat="43.652900" lon="5.265363">
        <ele>261.465248</ele>
        <time>2017-06-08T11:54:50.000Z</time>
      </trkpt>
      <trkpt lat="43.652794" lon="5.265383">
        <ele>262.060412</ele>
        <time>2017-06-08T11:54:55.000Z</time>
      </trkpt>
      <trkpt lat="43.652695" lon="5.265400">
        <ele>262.615398</ele>
        <time>2017-06-08T11:55:00.000Z</time>
      </trkpt>
      <trkpt lat="43.652590" lon="5.265418">
        <ele>263.204005</ele>
        <time>2017-06-08T11:55:05.000Z</time>
      </trkpt>
      <trkpt lat="43.652477" lon="5.265446">
        <ele>264.071973</ele>
        <time>2017-06-08T11:55:11.000Z</time>
      </trkpt>
      <trkpt lat="43.652380" lon="5.265460">
        <ele>264.958451</ele>
        <time>2017-06-08T11:55:16.000Z</time>
      </trkpt>
      <trkpt lat="43.652280" lon="5.265473">
        <ele>265.871416</ele>
        <time>2017-06-08T11:55:22.000Z</time>
      </trkpt>
      <trkpt lat="43.652180" lon="5.265502">
        <ele>266.800162</ele>
        <time>2017-06-08T11:55:28.000Z</time>
      </trkpt>
      <trkpt lat="43.652090" lon="5.265522">
        <ele>267.628726</ele>
        <time>2017-06-08T11:55:33.000Z</time>
      </trkpt>
      <trkpt lat="43.651978" lon="5.265538">
        <ele>268.652177</ele>
        <time>2017-06-08T11:55:38.000Z</time>
      </trkpt>
      <trkpt lat="43.651882" lon="5.265550">
        <ele>269.528333</ele>
        <time>2017-06-08T11:55:42.000Z</time>
      </trkpt>
      <trkpt lat="43.651770" lon="5.265564">
        <ele>270.550515</ele>
        <time>2017-06-08T11:55:47.000Z</time>
      </trkpt>
      <trkpt lat="43.651670" lon="5.265580">
        <ele>271.465538</ele>
        <time>2017-06-08T11:55:52.000Z</time>
      </trkpt>
      <trkpt lat="43.651577" lon="5.265588">
        <ele>272.312499</ele>
        <time>2017-06-08T11:55:57.000Z</time>
      </trkpt>
      <trkpt lat="43.651490" lon="5.265594">
        <ele>273.104272</ele>
        <time>2017-06-08T11:56:02.000Z</time>
      </trkpt>
      <trkpt lat="43.651382" lon="5.265621">
        <ele>274.101872</ele>
        <time>2017-06-08T11:56:08.000Z</time>
      </trkpt>
      <trkpt lat="43.651280" lon="5.265614">
        <ele>275.030145</ele>
        <time>2017-06-08T11:56:14.000Z</time>
      </trkpt>
      <trkpt lat="43.651180" lon="5.265624">
        <ele>275.941474</ele>
        <time>2017-06-08T11:56:19.000Z</time>
      </trkpt>
      <trkpt lat="43.651090" lon="5.265626">
        <ele>276.759637</ele>
        <time>2017-06-08T11:56:23.000Z</time>
      </trkpt>
      <trkpt lat="43.650990" lon="5.265635">
        <ele>277.670515</ele>
        <time>2017-06-08T11:56:27.000Z</time>
      </trkpt>
      <trkpt lat="43.650890" lon="5.265661">
        <ele>278.595412</ele>
        <time>2017-06-08T11:56:31.000Z</time>
      </trkpt>
      <trkpt lat="43.650795" lon="5.265678">
        <ele>279.466125</ele>
        <time>2017-06-08T11:56:35.000Z</time>
      </trkpt>
      <trkpt lat="43.650680" lon="5.265702">
        <ele>279.951334</ele>
        <time>2017-06-08T11:56:40.000Z</time>
      </trkpt>
      <trkpt lat="43.650590" lon="5.265733">
        <ele>280.099166</ele>
        <time>2017-06-08T11:56:44.000Z</time>
      </trkpt>
      <trkpt lat="43.650490" lon="5.265773">
        <ele>280.265089</ele>
        <time>2017-06-08T11:56:49.000Z</time>
      </trkpt>
      <trkpt lat="43.650402" lon="5.265822">
        <ele>280.416301</ele>
        <time>2017-06-08T11:56:53.000Z</time>
      </trkpt>
      <trkpt lat="43.650300" lon="5.265874">
        <ele>280.589579</ele>
        <time>2017-06-08T11:56:58.000Z</time>
      </trkpt>
      <trkpt lat="43.650192" lon="5.265922">
        <ele>280.770393</ele>
        <time>2017-06-08T11:57:03.000Z</time>
      </trkpt>
      <trkpt lat="43.650100" lon="5.265962">
        <ele>280.924110</ele>
        <time>2017-06-08T11:57:07.000Z</time>
      </trkpt>
      <trkpt lat="43.650010" lon="5.265997">
        <ele>281.073124</ele>
        <time>2017-06-08T11:57:12.000Z</time>
      </trkpt>
      <trkpt lat="43.649910" lon="5.266054">
        <ele>281.245530</ele>
        <time>2017-06-08T11:57:16.000Z</time>
      </trkpt>
      <trkpt lat="43.649822" lon="5.266094">
        <ele>281.393177</ele>
        <time>2017-06-08T11:57:19.000Z</time>
      </trkpt>
      <trkpt lat="43.649727" lon="5.266133">
        <ele>281.551129</ele>
        <time>2017-06-08T11:57:22.000Z</time>
      </trkpt>
      <trkpt lat="43.649630" lon="5.266158">
        <ele>281.708395</ele>
        <time>2017-06-08T11:57:25.000Z</time>
      </trkpt>
      <trkpt lat="43.649530" lon="5.266144">
        <ele>281.868593</ele>
        <time>2017-06-08T11:57:29.000Z</time>
      </trkpt>
      <trkpt lat="43.649426" lon="5.266116">
        <ele>282.037467</ele>
        <time>2017-06-08T11:57:33.000Z</time>
      </trkpt>
      <trkpt lat="43.649334" lon="5.266072">
        <ele>282.192630</ele>
        <time>2017-06-08T11:57:37.000Z</time>
      </trkpt>
      <trkpt lat="43.649250" lon="5.265989">
        <ele>282.357210</ele>
        <time>2017-06-08T11:57:41.000Z</time>
      </trkpt>
      <trkpt lat="43.649170" lon="5.265861">
        <ele>282.552270</ele>
        <time>2017-06-08T11:57:45.000Z</time>
      </trkpt>
      <trkpt lat="43.649110" lon="5.265715">
        <ele>282.650391</ele>
        <time>2017-06-08T11:57:48.000Z</time>
      </trkpt>
      <trkpt lat="43.649048" lon="5.265561">
        <ele>282.461204</ele>
        <time>2017-06-08T11:57:51.000Z</time>
      </trkpt>
      <trkpt lat="43.649014" lon="5.265417">
        <ele>282.298597</ele>
        <time>2017-06-08T11:57:54.000Z</time>
      </trkpt>
      <trkpt lat="43.648987" lon="5.265273">
        <ele>282.138906</ele>
        <time>2017-06-08T11:57:57.000Z</time>
      </trkpt>
      <trkpt lat="43.648975" lon="5.265112">
        <ele>281.965156</ele>
        <time>2017-06-08T11:58:00.000Z</time>
      </trkpt>
      <trkpt lat="43.649014" lon="5.264933">
        <ele>281.764476</ele>
        <time>2017-06-08T11:58:03.000Z</time>
      </trkpt>
      <trkpt lat="43.649050" lon="5.264801">
        <ele>281.613041</ele>
        <time>2017-06-08T11:58:05.000Z</time>
      </trkpt>
      <trkpt lat="43.649036" lon="5.264673">
        <ele>281.474071</ele>
        <time>2017-06-08T11:58:07.000Z</time>
      </trkpt>
      <trkpt lat="43.648970" lon="5.264571">
        <ele>281.327178</ele>
        <time>2017-06-08T11:58:09.000Z</time>
      </trkpt>
      <trkpt lat="43.648876" lon="5.264529">
        <ele>281.180612</ele>
        <time>2017-06-08T11:58:11.000Z</time>
      </trkpt>
      <trkpt lat="43.648790" lon="5.264503">
        <ele>281.050004</ele>
        <time>2017-06-08T11:58:13.000Z</time>
      </trkpt>
      <trkpt lat="43.648678" lon="5.264457">
        <ele>280.876658</ele>
        <time>2017-06-08T11:58:16.000Z</time>
      </trkpt>
      <trkpt lat="43.648630" lon="5.264350">
        <ele>280.741508</ele>
        <time>2017-06-08T11:58:19.000Z</time>
      </trkpt>
      <trkpt lat="43.648544" lon="5.264254">
        <ele>280.577495</ele>
        <time>2017-06-08T11:58:23.000Z</time>
      </trkpt>
      <trkpt lat="43.648445" lon="5.264223">
        <ele>280.426896</ele>
        <time>2017-06-08T11:58:27.000Z</time>
      </trkpt>
      <trkpt lat="43.648360" lon="5.264124">
        <ele>280.261978</ele>
        <time>2017-06-08T11:58:32.000Z</time>
      </trkpt>
      <trkpt lat="43.648182" lon="5.264154">
        <ele>280.000282</ele>
        <time>2017-06-08T11:59:35.000Z</time>
      </trkpt>
      <trkpt lat="43.648094" lon="5.264179">
        <ele>279.885070</ele>
        <time>2017-06-08T11:59:38.000Z</time>
      </trkpt>
      <trkpt lat="43.648003" lon="5.264203">
        <ele>279.766264</ele>
        <time>2017-06-08T11:59:41.000Z</time>
      </trkpt>
      <trkpt lat="43.647903" lon="5.264212">
        <ele>279.637751</ele>
        <time>2017-06-08T11:59:44.000Z</time>
      </trkpt>
      <trkpt lat="43.647797" lon="5.264236">
        <ele>279.500003</ele>
        <time>2017-06-08T11:59:47.000Z</time>
      </trkpt>
      <trkpt lat="43.647680" lon="5.264276">
        <ele>279.345437</ele>
        <time>2017-06-08T11:59:50.000Z</time>
      </trkpt>
      <trkpt lat="43.647583" lon="5.264318">
        <ele>279.215081</ele>
        <time>2017-06-08T11:59:52.000Z</time>
      </trkpt>
      <trkpt lat="43.647484" lon="5.264358">
        <ele>279.082807</ele>
        <time>2017-06-08T11:59:54.000Z</time>
      </trkpt>
      <trkpt lat="43.647373" lon="5.264391">
        <ele>278.937202</ele>
        <time>2017-06-08T11:59:56.000Z</time>
      </trkpt>
      <trkpt lat="43.647260" lon="5.264426">
        <ele>278.788694</ele>
        <time>2017-06-08T11:59:58.000Z</time>
      </trkpt>
      <trkpt lat="43.647150" lon="5.264463">
        <ele>278.643511</ele>
        <time>2017-06-08T12:00:00.000Z</time>
      </trkpt>
      <trkpt lat="43.647034" lon="5.264506">
        <ele>278.489492</ele>
        <time>2017-06-08T12:00:02.000Z</time>
      </trkpt>
      <trkpt lat="43.646910" lon="5.264557">
        <ele>278.323580</ele>
        <time>2017-06-08T12:00:04.000Z</time>
      </trkpt>
      <trkpt lat="43.646797" lon="5.264625">
        <ele>278.165524</ele>
        <time>2017-06-08T12:00:06.000Z</time>
      </trkpt>
      <trkpt lat="43.646690" lon="5.264681">
        <ele>278.018795</ele>
        <time>2017-06-08T12:00:08.000Z</time>
      </trkpt>
      <trkpt lat="43.646572" lon="5.264705">
        <ele>277.865840</ele>
        <time>2017-06-08T12:00:10.000Z</time>
      </trkpt>
      <trkpt lat="43.646446" lon="5.264712">
        <ele>277.673738</ele>
        <time>2017-06-08T12:00:12.000Z</time>
      </trkpt>
      <trkpt lat="43.646320" lon="5.264716">
        <ele>277.227084</ele>
        <time>2017-06-08T12:00:14.000Z</time>
      </trkpt>
      <trkpt lat="43.646210" lon="5.264689">
        <ele>276.831149</ele>
        <time>2017-06-08T12:00:16.000Z</time>
      </trkpt>
      <trkpt lat="43.646100" lon="5.264653">
        <ele>276.430533</ele>
        <time>2017-06-08T12:00:18.000Z</time>
      </trkpt>
      <trkpt lat="43.645996" lon="5.264607">
        <ele>276.043545</ele>
        <time>2017-06-08T12:00:20.000Z</time>
      </trkpt>
      <trkpt lat="43.645885" lon="5.264563">
        <ele>275.634304</ele>
        <time>2017-06-08T12:00:22.000Z</time>
      </trkpt>
      <trkpt lat="43.645780" lon="5.264495">
        <ele>275.223356</ele>
        <time>2017-06-08T12:00:24.000Z</time>
      </trkpt>
      <trkpt lat="43.645660" lon="5.264429">
        <ele>274.765640</ele>
        <time>2017-06-08T12:00:26.000Z</time>
      </trkpt>
      <trkpt lat="43.645550" lon="5.264374">
        <ele>274.351075</ele>
        <time>2017-06-08T12:00:28.000Z</time>
      </trkpt>
      <trkpt lat="43.645443" lon="5.264304">
        <ele>273.931528</ele>
        <time>2017-06-08T12:00:30.000Z</time>
      </trkpt>
      <trkpt lat="43.645332" lon="5.264246">
        <ele>273.510970</ele>
        <time>2017-06-08T12:00:32.000Z</time>
      </trkpt>
      <trkpt lat="43.645220" lon="5.264218">
        <ele>273.107606</ele>
        <time>2017-06-08T12:00:34.000Z</time>
      </trkpt>
      <trkpt lat="43.645107" lon="5.264197">
        <ele>272.703535</ele>
        <time>2017-06-08T12:00:36.000Z</time>
      </trkpt>
      <trkpt lat="43.644997" lon="5.264157">
        <ele>272.300431</ele>
        <time>2017-06-08T12:00:38.000Z</time>
      </trkpt>
      <trkpt lat="43.644897" lon="5.264111">
        <ele>271.926919</ele>
        <time>2017-06-08T12:00:40.000Z</time>
      </trkpt>
      <trkpt lat="43.644814" lon="5.264073">
        <ele>271.617049</ele>
        <time>2017-06-08T12:00:42.000Z</time>
      </trkpt>
      <trkpt lat="43.644688" lon="5.264006">
        <ele>271.223387</ele>
        <time>2017-06-08T12:00:45.000Z</time>
      </trkpt>
      <trkpt lat="43.644600" lon="5.263967">
        <ele>271.029081</ele>
        <time>2017-06-08T12:00:47.000Z</time>
      </trkpt>
      <trkpt lat="43.644500" lon="5.263932">
        <ele>270.812188</ele>
        <time>2017-06-08T12:00:49.000Z</time>
      </trkpt>
      <trkpt lat="43.644400" lon="5.263902">
        <ele>270.597037</ele>
        <time>2017-06-08T12:00:51.000Z</time>
      </trkpt>
      <trkpt lat="43.644325" lon="5.263832">
        <ele>270.406749</ele>
        <time>2017-06-08T12:00:53.000Z</time>
      </trkpt>
      <trkpt lat="43.644295" lon="5.263705">
        <ele>270.203486</ele>
        <time>2017-06-08T12:00:55.000Z</time>
      </trkpt>
      <trkpt lat="43.644320" lon="5.263568">
        <ele>269.988518</ele>
        <time>2017-06-08T12:00:57.000Z</time>
      </trkpt>
      <trkpt lat="43.644386" lon="5.263460">
        <ele>269.773443</ele>
        <time>2017-06-08T12:00:59.000Z</time>
      </trkpt>
      <trkpt lat="43.644455" lon="5.263379">
        <ele>269.583088</ele>
        <time>2017-06-08T12:01:01.000Z</time>
      </trkpt>
      <trkpt lat="43.644527" lon="5.263304">
        <ele>269.393515</ele>
        <time>2017-06-08T12:01:03.000Z</time>
      </trkpt>
      <trkpt lat="43.644640" lon="5.263219">
        <ele>269.123010</ele>
        <time>2017-06-08T12:01:06.000Z</time>
      </trkpt>
      <trkpt lat="43.644753" lon="5.263133">
        <ele>268.851775</ele>
        <time>2017-06-08T12:01:09.000Z</time>
      </trkpt>
      <trkpt lat="43.644863" lon="5.263055">
        <ele>268.591825</ele>
        <time>2017-06-08T12:01:12.000Z</time>
      </trkpt>
      <trkpt lat="43.644966" lon="5.262962">
        <ele>268.333136</ele>
        <time>2017-06-08T12:01:15.000Z</time>
      </trkpt>
      <trkpt lat="43.645046" lon="5.262866">
        <ele>268.110367</ele>
        <time>2017-06-08T12:01:18.000Z</time>
      </trkpt>
      <trkpt lat="43.645123" lon="5.262785">
        <ele>267.906902</ele>
        <time>2017-06-08T12:01:21.000Z</time>
      </trkpt>
      <trkpt lat="43.645195" lon="5.262662">
        <ele>267.666199</ele>
        <time>2017-06-08T12:01:25.000Z</time>
      </trkpt>
      <trkpt lat="43.645090" lon="5.262571">
        <ele>267.438172</ele>
        <time>2017-06-08T12:01:30.000Z</time>
      </trkpt>
      <trkpt lat="43.644985" lon="5.262618">
        <ele>267.253419</ele>
        <time>2017-06-08T12:01:32.000Z</time>
      </trkpt>
      <trkpt lat="43.644875" lon="5.262648">
        <ele>267.065735</ele>
        <time>2017-06-08T12:01:34.000Z</time>
      </trkpt>
      <trkpt lat="43.644695" lon="5.262703">
        <ele>266.757150</ele>
        <time>2017-06-08T12:01:37.000Z</time>
      </trkpt>
      <trkpt lat="43.644577" lon="5.262730">
        <ele>266.556937</ele>
        <time>2017-06-08T12:01:39.000Z</time>
      </trkpt>
      <trkpt lat="43.644455" lon="5.262756">
        <ele>266.350303</ele>
        <time>2017-06-08T12:01:41.000Z</time>
      </trkpt>
      <trkpt lat="43.644264" lon="5.262807">
        <ele>266.024669</ele>
        <time>2017-06-08T12:01:44.000Z</time>
      </trkpt>
      <trkpt lat="43.644142" lon="5.262849">
        <ele>265.814207</ele>
        <time>2017-06-08T12:01:46.000Z</time>
      </trkpt>
      <trkpt lat="43.644016" lon="5.262888">
        <ele>265.598066</ele>
        <time>2017-06-08T12:01:48.000Z</time>
      </trkpt>
      <trkpt lat="43.643845" lon="5.262944">
        <ele>265.303896</ele>
        <time>2017-06-08T12:01:51.000Z</time>
      </trkpt>
      <trkpt lat="43.643720" lon="5.262970">
        <ele>265.092298</ele>
        <time>2017-06-08T12:01:53.000Z</time>
      </trkpt>
      <trkpt lat="43.643600" lon="5.262982">
        <ele>264.890901</ele>
        <time>2017-06-08T12:01:55.000Z</time>
      </trkpt>
      <trkpt lat="43.643482" lon="5.262971">
        <ele>264.692928</ele>
        <time>2017-06-08T12:01:57.000Z</time>
      </trkpt>
      <trkpt lat="43.643370" lon="5.262966">
        <ele>264.473188</ele>
        <time>2017-06-08T12:01:59.000Z</time>
      </trkpt>
      <trkpt lat="43.643260" lon="5.262957">
        <ele>264.168141</ele>
        <time>2017-06-08T12:02:01.000Z</time>
      </trkpt>
      <trkpt lat="43.643154" lon="5.262950">
        <ele>263.874365</ele>
        <time>2017-06-08T12:02:03.000Z</time>
      </trkpt>
      <trkpt lat="43.643050" lon="5.262948">
        <ele>263.586432</ele>
        <time>2017-06-08T12:02:05.000Z</time>
      </trkpt>
      <trkpt lat="43.642950" lon="5.262947">
        <ele>263.309594</ele>
        <time>2017-06-08T12:02:07.000Z</time>
      </trkpt>
      <trkpt lat="43.642845" lon="5.262940">
        <ele>263.018583</ele>
        <time>2017-06-08T12:02:09.000Z</time>
      </trkpt>
      <trkpt lat="43.642746" lon="5.262945">
        <ele>262.744337</ele>
        <time>2017-06-08T12:02:11.000Z</time>
      </trkpt>
      <trkpt lat="43.642643" lon="5.262948">
        <ele>262.459137</ele>
        <time>2017-06-08T12:02:13.000Z</time>
      </trkpt>
      <trkpt lat="43.642536" lon="5.262949">
        <ele>262.162921</ele>
        <time>2017-06-08T12:02:15.000Z</time>
      </trkpt>
      <trkpt lat="43.642430" lon="5.262959">
        <ele>261.868797</ele>
        <time>2017-06-08T12:02:17.000Z</time>
      </trkpt>
      <trkpt lat="43.642334" lon="5.262984">
        <ele>261.598361</ele>
        <time>2017-06-08T12:02:19.000Z</time>
      </trkpt>
      <trkpt lat="43.642227" lon="5.263026">
        <ele>261.290433</ele>
        <time>2017-06-08T12:02:22.000Z</time>
      </trkpt>
      <trkpt lat="43.642124" lon="5.263059">
        <ele>260.997733</ele>
        <time>2017-06-08T12:02:24.000Z</time>
      </trkpt>
      <trkpt lat="43.642036" lon="5.263092">
        <ele>260.745311</ele>
        <time>2017-06-08T12:02:26.000Z</time>
      </trkpt>
      <trkpt lat="43.641940" lon="5.263113">
        <ele>260.476243</ele>
        <time>2017-06-08T12:02:28.000Z</time>
      </trkpt>
      <trkpt lat="43.641846" lon="5.263135">
        <ele>260.212316</ele>
        <time>2017-06-08T12:02:30.000Z</time>
      </trkpt>
      <trkpt lat="43.641735" lon="5.263152">
        <ele>259.903152</ele>
        <time>2017-06-08T12:02:32.000Z</time>
      </trkpt>
      <trkpt lat="43.641644" lon="5.263162">
        <ele>259.650440</ele>
        <time>2017-06-08T12:02:34.000Z</time>
      </trkpt>
      <trkpt lat="43.641533" lon="5.263167">
        <ele>258.995926</ele>
        <time>2017-06-08T12:02:36.000Z</time>
      </trkpt>
      <trkpt lat="43.641407" lon="5.263160">
        <ele>258.125374</ele>
        <time>2017-06-08T12:02:38.000Z</time>
      </trkpt>
      <trkpt lat="43.641285" lon="5.263153">
        <ele>257.282413</ele>
        <time>2017-06-08T12:02:40.000Z</time>
      </trkpt>
      <trkpt lat="43.641160" lon="5.263155">
        <ele>256.419410</ele>
        <time>2017-06-08T12:02:42.000Z</time>
      </trkpt>
      <trkpt lat="43.641030" lon="5.263156">
        <ele>255.521932</ele>
        <time>2017-06-08T12:02:44.000Z</time>
      </trkpt>
      <trkpt lat="43.640900" lon="5.263148">
        <ele>254.623580</ele>
        <time>2017-06-08T12:02:46.000Z</time>
      </trkpt>
      <trkpt lat="43.640770" lon="5.263140">
        <ele>253.725227</ele>
        <time>2017-06-08T12:02:48.000Z</time>
      </trkpt>
      <trkpt lat="43.640633" lon="5.263127">
        <ele>252.777211</ele>
        <time>2017-06-08T12:02:50.000Z</time>
      </trkpt>
      <trkpt lat="43.640495" lon="5.263120">
        <ele>251.823877</ele>
        <time>2017-06-08T12:02:52.000Z</time>
      </trkpt>
      <trkpt lat="43.640343" lon="5.263116">
        <ele>250.774345</ele>
        <time>2017-06-08T12:02:54.000Z</time>
      </trkpt>
      <trkpt lat="43.640175" lon="5.263111">
        <ele>249.614277</ele>
        <time>2017-06-08T12:02:56.000Z</time>
      </trkpt>
      <trkpt lat="43.640080" lon="5.263095">
        <ele>248.953585</ele>
        <time>2017-06-08T12:02:57.000Z</time>
      </trkpt>
      <trkpt lat="43.639984" lon="5.263086">
        <ele>248.289320</ele>
        <time>2017-06-08T12:02:58.000Z</time>
      </trkpt>
      <trkpt lat="43.639890" lon="5.263088">
        <ele>247.640308</ele>
        <time>2017-06-08T12:02:59.000Z</time>
      </trkpt>
      <trkpt lat="43.639793" lon="5.263089">
        <ele>247.057608</ele>
        <time>2017-06-08T12:03:00.000Z</time>
      </trkpt>
      <trkpt lat="43.639694" lon="5.263090">
        <ele>246.690896</ele>
        <time>2017-06-08T12:03:01.000Z</time>
      </trkpt>
      <trkpt lat="43.639600" lon="5.263091">
        <ele>246.342704</ele>
        <time>2017-06-08T12:03:02.000Z</time>
      </trkpt>
      <trkpt lat="43.639500" lon="5.263088">
        <ele>245.972211</ele>
        <time>2017-06-08T12:03:03.000Z</time>
      </trkpt>
      <trkpt lat="43.639397" lon="5.263084">
        <ele>245.590542</ele>
        <time>2017-06-08T12:03:04.000Z</time>
      </trkpt>
      <trkpt lat="43.639290" lon="5.263079">
        <ele>245.193981</ele>
        <time>2017-06-08T12:03:05.000Z</time>
      </trkpt>
      <trkpt lat="43.639187" lon="5.263070">
        <ele>244.811700</ele>
        <time>2017-06-08T12:03:06.000Z</time>
      </trkpt>
      <trkpt lat="43.639080" lon="5.263053">
        <ele>244.412755</ele>
        <time>2017-06-08T12:03:07.000Z</time>
      </trkpt>
      <trkpt lat="43.638977" lon="5.263025">
        <ele>244.023923</ele>
        <time>2017-06-08T12:03:08.000Z</time>
      </trkpt>
      <trkpt lat="43.638880" lon="5.262999">
        <ele>243.657932</ele>
        <time>2017-06-08T12:03:09.000Z</time>
      </trkpt>
      <trkpt lat="43.638783" lon="5.262975">
        <ele>243.292923</ele>
        <time>2017-06-08T12:03:10.000Z</time>
      </trkpt>
      <trkpt lat="43.638690" lon="5.262950">
        <ele>242.941987</ele>
        <time>2017-06-08T12:03:11.000Z</time>
      </trkpt>
      <trkpt lat="43.638596" lon="5.262928">
        <ele>242.588847</ele>
        <time>2017-06-08T12:03:12.000Z</time>
      </trkpt>
      <trkpt lat="43.638420" lon="5.262893">
        <ele>241.930215</ele>
        <time>2017-06-08T12:03:14.000Z</time>
      </trkpt>
      <trkpt lat="43.638256" lon="5.262875">
        <ele>241.320836</ele>
        <time>2017-06-08T12:03:16.000Z</time>
      </trkpt>
      <trkpt lat="43.638107" lon="5.262878">
        <ele>240.768872</ele>
        <time>2017-06-08T12:03:18.000Z</time>
      </trkpt>
      <trkpt lat="43.637974" lon="5.262889">
        <ele>240.570447</ele>
        <time>2017-06-08T12:03:20.000Z</time>
      </trkpt>
      <trkpt lat="43.637848" lon="5.262922">
        <ele>240.730711</ele>
        <time>2017-06-08T12:03:22.000Z</time>
      </trkpt>
      <trkpt lat="43.637726" lon="5.262962">
        <ele>240.887405</ele>
        <time>2017-06-08T12:03:24.000Z</time>
      </trkpt>
      <trkpt lat="43.637608" lon="5.263005">
        <ele>241.039909</ele>
        <time>2017-06-08T12:03:26.000Z</time>
      </trkpt>
      <trkpt lat="43.637493" lon="5.263051">
        <ele>241.189523</ele>
        <time>2017-06-08T12:03:28.000Z</time>
      </trkpt>
      <trkpt lat="43.637394" lon="5.263101">
        <ele>241.321247</ele>
        <time>2017-06-08T12:03:30.000Z</time>
      </trkpt>
      <trkpt lat="43.637300" lon="5.263135">
        <ele>241.442675</ele>
        <time>2017-06-08T12:03:32.000Z</time>
      </trkpt>
      <trkpt lat="43.637188" lon="5.263178">
        <ele>241.587942</ele>
        <time>2017-06-08T12:03:35.000Z</time>
      </trkpt>
      <trkpt lat="43.637093" lon="5.263198">
        <ele>241.708032</ele>
        <time>2017-06-08T12:03:37.000Z</time>
      </trkpt>
      <trkpt lat="43.637005" lon="5.263203">
        <ele>241.818097</ele>
        <time>2017-06-08T12:03:39.000Z</time>
      </trkpt>
      <trkpt lat="43.636906" lon="5.263199">
        <ele>241.941868</ele>
        <time>2017-06-08T12:03:41.000Z</time>
      </trkpt>
      <trkpt lat="43.636814" lon="5.263177">
        <ele>242.058548</ele>
        <time>2017-06-08T12:03:43.000Z</time>
      </trkpt>
      <trkpt lat="43.636710" lon="5.263153">
        <ele>242.190315</ele>
        <time>2017-06-08T12:03:45.000Z</time>
      </trkpt>
      <trkpt lat="43.636590" lon="5.263107">
        <ele>242.345941</ele>
        <time>2017-06-08T12:03:48.000Z</time>
      </trkpt>
      <trkpt lat="43.636470" lon="5.263055">
        <ele>242.503104</ele>
        <time>2017-06-08T12:03:51.000Z</time>
      </trkpt>
      <trkpt lat="43.636353" lon="5.263005">
        <ele>242.656151</ele>
        <time>2017-06-08T12:03:54.000Z</time>
      </trkpt>
      <trkpt lat="43.636240" lon="5.262960">
        <ele>242.683004</ele>
        <time>2017-06-08T12:03:57.000Z</time>
      </trkpt>
      <trkpt lat="43.636127" lon="5.262886">
        <ele>242.523178</ele>
        <time>2017-06-08T12:04:00.000Z</time>
      </trkpt>
      <trkpt lat="43.635998" lon="5.262829">
        <ele>242.350077</ele>
        <time>2017-06-08T12:04:03.000Z</time>
      </trkpt>
      <trkpt lat="43.635900" lon="5.262799">
        <ele>242.221785</ele>
        <time>2017-06-08T12:04:05.000Z</time>
      </trkpt>
      <trkpt lat="43.635796" lon="5.262757">
        <ele>242.083301</ele>
        <time>2017-06-08T12:04:07.000Z</time>
      </trkpt>
      <trkpt lat="43.635680" lon="5.262715">
        <ele>241.930035</ele>
        <time>2017-06-08T12:04:09.000Z</time>
      </trkpt>
      <trkpt lat="43.635560" lon="5.262684">
        <ele>241.774005</ele>
        <time>2017-06-08T12:04:11.000Z</time>
      </trkpt>
      <trkpt lat="43.635433" lon="5.262655">
        <ele>241.609484</ele>
        <time>2017-06-08T12:04:13.000Z</time>
      </trkpt>
      <trkpt lat="43.635296" lon="5.262631">
        <ele>241.432982</ele>
        <time>2017-06-08T12:04:15.000Z</time>
      </trkpt>
      <trkpt lat="43.635150" lon="5.262623">
        <ele>241.246232</ele>
        <time>2017-06-08T12:04:17.000Z</time>
      </trkpt>
      <trkpt lat="43.635002" lon="5.262616">
        <ele>241.056962</ele>
        <time>2017-06-08T12:04:19.000Z</time>
      </trkpt>
      <trkpt lat="43.634853" lon="5.262606">
        <ele>240.866300</ele>
        <time>2017-06-08T12:04:21.000Z</time>
      </trkpt>
      <trkpt lat="43.634705" lon="5.262586">
        <ele>240.676238</ele>
        <time>2017-06-08T12:04:23.000Z</time>
      </trkpt>
      <trkpt lat="43.634560" lon="5.262576">
        <ele>240.490682</ele>
        <time>2017-06-08T12:04:25.000Z</time>
      </trkpt>
      <trkpt lat="43.634415" lon="5.262562">
        <ele>240.477389</ele>
        <time>2017-06-08T12:04:27.000Z</time>
      </trkpt>
      <trkpt lat="43.634277" lon="5.262542">
        <ele>240.518578</ele>
        <time>2017-06-08T12:04:29.000Z</time>
      </trkpt>
      <trkpt lat="43.634150" lon="5.262498">
        <ele>240.557444</ele>
        <time>2017-06-08T12:04:31.000Z</time>
      </trkpt>
      <trkpt lat="43.634033" lon="5.262460">
        <ele>240.593121</ele>
        <time>2017-06-08T12:04:33.000Z</time>
      </trkpt>
      <trkpt lat="43.633923" lon="5.262441">
        <ele>240.626028</ele>
        <time>2017-06-08T12:04:35.000Z</time>
      </trkpt>
      <trkpt lat="43.633816" lon="5.262417">
        <ele>240.658206</ele>
        <time>2017-06-08T12:04:37.000Z</time>
      </trkpt>
      <trkpt lat="43.633717" lon="5.262384">
        <ele>240.688437</ele>
        <time>2017-06-08T12:04:39.000Z</time>
      </trkpt>
      <trkpt lat="43.633606" lon="5.262360">
        <ele>240.721787</ele>
        <time>2017-06-08T12:04:41.000Z</time>
      </trkpt>
      <trkpt lat="43.633495" lon="5.262323">
        <ele>240.755682</ele>
        <time>2017-06-08T12:04:43.000Z</time>
      </trkpt>
      <trkpt lat="43.633390" lon="5.262288">
        <ele>240.787745</ele>
        <time>2017-06-08T12:04:45.000Z</time>
      </trkpt>
      <trkpt lat="43.633280" lon="5.262263">
        <ele>240.820836</ele>
        <time>2017-06-08T12:04:47.000Z</time>
      </trkpt>
      <trkpt lat="43.633175" lon="5.262232">
        <ele>240.852708</ele>
        <time>2017-06-08T12:04:49.000Z</time>
      </trkpt>
      <trkpt lat="43.633064" lon="5.262209">
        <ele>240.886026</ele>
        <time>2017-06-08T12:04:51.000Z</time>
      </trkpt>
      <trkpt lat="43.632954" lon="5.262173">
        <ele>240.919583</ele>
        <time>2017-06-08T12:04:53.000Z</time>
      </trkpt>
      <trkpt lat="43.632847" lon="5.262141">
        <ele>240.952080</ele>
        <time>2017-06-08T12:04:55.000Z</time>
      </trkpt>
      <trkpt lat="43.632740" lon="5.262111">
        <ele>241.001797</ele>
        <time>2017-06-08T12:04:57.000Z</time>
      </trkpt>
      <trkpt lat="43.632633" lon="5.262078">
        <ele>241.133215</ele>
        <time>2017-06-08T12:04:59.000Z</time>
      </trkpt>
      <trkpt lat="43.632523" lon="5.262054">
        <ele>241.266706</ele>
        <time>2017-06-08T12:05:01.000Z</time>
      </trkpt>
      <trkpt lat="43.632420" lon="5.262025">
        <ele>241.392709</ele>
        <time>2017-06-08T12:05:03.000Z</time>
      </trkpt>
      <trkpt lat="43.632317" lon="5.261998">
        <ele>241.518378</ele>
        <time>2017-06-08T12:05:05.000Z</time>
      </trkpt>
      <trkpt lat="43.632217" lon="5.261969">
        <ele>241.640860</ele>
        <time>2017-06-08T12:05:07.000Z</time>
      </trkpt>
      <trkpt lat="43.632120" lon="5.261941">
        <ele>241.759645</ele>
        <time>2017-06-08T12:05:09.000Z</time>
      </trkpt>
      <trkpt lat="43.632027" lon="5.261910">
        <ele>241.874323</ele>
        <time>2017-06-08T12:05:11.000Z</time>
      </trkpt>
      <trkpt lat="43.631930" lon="5.261880">
        <ele>241.993474</ele>
        <time>2017-06-08T12:05:13.000Z</time>
      </trkpt>
      <trkpt lat="43.631840" lon="5.261850">
        <ele>242.104453</ele>
        <time>2017-06-08T12:05:15.000Z</time>
      </trkpt>
      <trkpt lat="43.631740" lon="5.261824">
        <ele>242.226427</ele>
        <time>2017-06-08T12:05:17.000Z</time>
      </trkpt>
      <trkpt lat="43.631645" lon="5.261799">
        <ele>242.342351</ele>
        <time>2017-06-08T12:05:19.000Z</time>
      </trkpt>
      <trkpt lat="43.631520" lon="5.261764">
        <ele>242.495235</ele>
        <time>2017-06-08T12:05:22.000Z</time>
      </trkpt>
      <trkpt lat="43.631390" lon="5.261740">
        <ele>242.652451</ele>
        <time>2017-06-08T12:05:25.000Z</time>
      </trkpt>
      <trkpt lat="43.631275" lon="5.261705">
        <ele>242.793607</ele>
        <time>2017-06-08T12:05:28.000Z</time>
      </trkpt>
      <trkpt lat="43.631165" lon="5.261668">
        <ele>242.929315</ele>
        <time>2017-06-08T12:05:31.000Z</time>
      </trkpt>
      <trkpt lat="43.631070" lon="5.261622">
        <ele>243.049983</ele>
        <time>2017-06-08T12:05:34.000Z</time>
      </trkpt>
      <trkpt lat="43.630955" lon="5.261590">
        <ele>243.260536</ele>
        <time>2017-06-08T12:05:37.000Z</time>
      </trkpt>
      <trkpt lat="43.630848" lon="5.261556">
        <ele>243.557172</ele>
        <time>2017-06-08T12:05:40.000Z</time>
      </trkpt>
      <trkpt lat="43.630733" lon="5.261522">
        <ele>243.874909</ele>
        <time>2017-06-08T12:05:43.000Z</time>
      </trkpt>
      <trkpt lat="43.630630" lon="5.261490">
        <ele>244.160140</ele>
        <time>2017-06-08T12:05:46.000Z</time>
      </trkpt>
      <trkpt lat="43.630530" lon="5.261457">
        <ele>244.437916</ele>
        <time>2017-06-08T12:05:49.000Z</time>
      </trkpt>
      <trkpt lat="43.630432" lon="5.261409">
        <ele>244.718836</ele>
        <time>2017-06-08T12:05:52.000Z</time>
      </trkpt>
      <trkpt lat="43.630337" lon="5.261369">
        <ele>244.987158</ele>
        <time>2017-06-08T12:05:55.000Z</time>
      </trkpt>
      <trkpt lat="43.630245" lon="5.261315">
        <ele>245.257222</ele>
        <time>2017-06-08T12:05:58.000Z</time>
      </trkpt>
      <trkpt lat="43.630146" lon="5.261282">
        <ele>245.532371</ele>
        <time>2017-06-08T12:06:01.000Z</time>
      </trkpt>
      <trkpt lat="43.630050" lon="5.261223">
        <ele>245.816246</ele>
        <time>2017-06-08T12:06:04.000Z</time>
      </trkpt>
      <trkpt lat="43.629944" lon="5.261176">
        <ele>246.117020</ele>
        <time>2017-06-08T12:06:07.000Z</time>
      </trkpt>
      <trkpt lat="43.629833" lon="5.261149">
        <ele>246.421528</ele>
        <time>2017-06-08T12:06:10.000Z</time>
      </trkpt>
      <trkpt lat="43.629730" lon="5.261118">
        <ele>246.706337</ele>
        <time>2017-06-08T12:06:13.000Z</time>
      </trkpt>
      <trkpt lat="43.629635" lon="5.261044">
        <ele>247.000989</ele>
        <time>2017-06-08T12:06:16.000Z</time>
      </trkpt>
      <trkpt lat="43.629536" lon="5.261006">
        <ele>247.278595</ele>
        <time>2017-06-08T12:06:19.000Z</time>
      </trkpt>
      <trkpt lat="43.629430" lon="5.260962">
        <ele>247.577629</ele>
        <time>2017-06-08T12:06:22.000Z</time>
      </trkpt>
      <trkpt lat="43.629333" lon="5.260916">
        <ele>247.854709</ele>
        <time>2017-06-08T12:06:25.000Z</time>
      </trkpt>
      <trkpt lat="43.629223" lon="5.260881">
        <ele>247.998565</ele>
        <time>2017-06-08T12:06:28.000Z</time>
      </trkpt>
      <trkpt lat="43.629116" lon="5.260833">
        <ele>248.006334</ele>
        <time>2017-06-08T12:06:31.000Z</time>
      </trkpt>
      <trkpt lat="43.628998" lon="5.260793">
        <ele>248.014725</ele>
        <time>2017-06-08T12:06:34.000Z</time>
      </trkpt>
      <trkpt lat="43.628876" lon="5.260748">
        <ele>248.023445</ele>
        <time>2017-06-08T12:06:37.000Z</time>
      </trkpt>
      <trkpt lat="43.628765" lon="5.260696">
        <ele>248.031540</ele>
        <time>2017-06-08T12:06:40.000Z</time>
      </trkpt>
      <trkpt lat="43.628654" lon="5.260659">
        <ele>248.039426</ele>
        <time>2017-06-08T12:06:43.000Z</time>
      </trkpt>
      <trkpt lat="43.628548" lon="5.260623">
        <ele>248.046964</ele>
        <time>2017-06-08T12:06:46.000Z</time>
      </trkpt>
      <trkpt lat="43.628456" lon="5.260577">
        <ele>248.053721</ele>
        <time>2017-06-08T12:06:49.000Z</time>
      </trkpt>
      <trkpt lat="43.628350" lon="5.260528">
        <ele>248.061440</ele>
        <time>2017-06-08T12:06:53.000Z</time>
      </trkpt>
      <trkpt lat="43.628260" lon="5.260491">
        <ele>248.067925</ele>
        <time>2017-06-08T12:07:09.000Z</time>
      </trkpt>
      <trkpt lat="43.628166" lon="5.260456">
        <ele>248.074649</ele>
        <time>2017-06-08T12:07:15.000Z</time>
      </trkpt>
      <trkpt lat="43.628080" lon="5.260430">
        <ele>248.080728</ele>
        <time>2017-06-08T12:07:19.000Z</time>
      </trkpt>
      <trkpt lat="43.627970" lon="5.260421">
        <ele>248.088338</ele>
        <time>2017-06-08T12:07:23.000Z</time>
      </trkpt>
      <trkpt lat="43.627880" lon="5.260430">
        <ele>248.094570</ele>
        <time>2017-06-08T12:07:26.000Z</time>
      </trkpt>
      <trkpt lat="43.627780" lon="5.260398">
        <ele>248.101659</ele>
        <time>2017-06-08T12:07:29.000Z</time>
      </trkpt>
      <trkpt lat="43.627647" lon="5.260381">
        <ele>248.110884</ele>
        <time>2017-06-08T12:07:32.000Z</time>
      </trkpt>
      <trkpt lat="43.627514" lon="5.260377">
        <ele>248.091316</ele>
        <time>2017-06-08T12:07:35.000Z</time>
      </trkpt>
      <trkpt lat="43.627426" lon="5.260377">
        <ele>247.982155</ele>
        <time>2017-06-08T12:07:37.000Z</time>
      </trkpt>
      <trkpt lat="43.627330" lon="5.260357">
        <ele>247.861723</ele>
        <time>2017-06-08T12:07:39.000Z</time>
      </trkpt>
      <trkpt lat="43.627224" lon="5.260367">
        <ele>247.729927</ele>
        <time>2017-06-08T12:07:41.000Z</time>
      </trkpt>
      <trkpt lat="43.627136" lon="5.260346">
        <ele>247.619149</ele>
        <time>2017-06-08T12:07:43.000Z</time>
      </trkpt>
      <trkpt lat="43.627033" lon="5.260333">
        <ele>247.490849</ele>
        <time>2017-06-08T12:07:45.000Z</time>
      </trkpt>
      <trkpt lat="43.626920" lon="5.260339">
        <ele>247.350572</ele>
        <time>2017-06-08T12:07:47.000Z</time>
      </trkpt>
      <trkpt lat="43.626830" lon="5.260320">
        <ele>247.237634</ele>
        <time>2017-06-08T12:07:49.000Z</time>
      </trkpt>
      <trkpt lat="43.626717" lon="5.260301">
        <ele>247.096427</ele>
        <time>2017-06-08T12:07:51.000Z</time>
      </trkpt>
      <trkpt lat="43.626602" lon="5.260298">
        <ele>246.953747</ele>
        <time>2017-06-08T12:07:53.000Z</time>
      </trkpt>
      <trkpt lat="43.626503" lon="5.260281">
        <ele>246.829996</ele>
        <time>2017-06-08T12:07:55.000Z</time>
      </trkpt>
      <trkpt lat="43.626400" lon="5.260253">
        <ele>246.699777</ele>
        <time>2017-06-08T12:07:57.000Z</time>
      </trkpt>
      <trkpt lat="43.626297" lon="5.260243">
        <ele>246.571694</ele>
        <time>2017-06-08T12:07:59.000Z</time>
      </trkpt>
      <trkpt lat="43.626198" lon="5.260213">
        <ele>246.445968</ele>
        <time>2017-06-08T12:08:01.000Z</time>
      </trkpt>
      <trkpt lat="43.626102" lon="5.260193">
        <ele>246.325536</ele>
        <time>2017-06-08T12:08:03.000Z</time>
      </trkpt>
      <trkpt lat="43.626000" lon="5.260184">
        <ele>246.198750</ele>
        <time>2017-06-08T12:08:05.000Z</time>
      </trkpt>
      <trkpt lat="43.625885" lon="5.260196">
        <ele>246.055690</ele>
        <time>2017-06-08T12:08:07.000Z</time>
      </trkpt>
      <trkpt lat="43.625767" lon="5.260200">
        <ele>245.909271</ele>
        <time>2017-06-08T12:08:09.000Z</time>
      </trkpt>
      <trkpt lat="43.625633" lon="5.260206">
        <ele>245.350961</ele>
        <time>2017-06-08T12:08:11.000Z</time>
      </trkpt>
      <trkpt lat="43.625504" lon="5.260205">
        <ele>244.756624</ele>
        <time>2017-06-08T12:08:13.000Z</time>
      </trkpt>
      <trkpt lat="43.625355" lon="5.260215">
        <ele>244.069342</ele>
        <time>2017-06-08T12:08:15.000Z</time>
      </trkpt>
      <trkpt lat="43.625206" lon="5.260219">
        <ele>243.382741</ele>
        <time>2017-06-08T12:08:17.000Z</time>
      </trkpt>
      <trkpt lat="43.625057" lon="5.260227">
        <ele>242.695750</ele>
        <time>2017-06-08T12:08:19.000Z</time>
      </trkpt>
      <trkpt lat="43.624897" lon="5.260243">
        <ele>241.956671</ele>
        <time>2017-06-08T12:08:21.000Z</time>
      </trkpt>
      <trkpt lat="43.624730" lon="5.260264">
        <ele>241.184088</ele>
        <time>2017-06-08T12:08:23.000Z</time>
      </trkpt>
      <trkpt lat="43.624560" lon="5.260301">
        <ele>240.391205</ele>
        <time>2017-06-08T12:08:25.000Z</time>
      </trkpt>
      <trkpt lat="43.624390" lon="5.260332">
        <ele>239.601188</ele>
        <time>2017-06-08T12:08:27.000Z</time>
      </trkpt>
      <trkpt lat="43.624226" lon="5.260374">
        <ele>238.832734</ele>
        <time>2017-06-08T12:08:29.000Z</time>
      </trkpt>
      <trkpt lat="43.624058" lon="5.260428">
        <ele>238.038050</ele>
        <time>2017-06-08T12:08:31.000Z</time>
      </trkpt>
      <trkpt lat="43.623890" lon="5.260494">
        <ele>237.229896</ele>
        <time>2017-06-08T12:08:33.000Z</time>
      </trkpt>
      <trkpt lat="43.623730" lon="5.260560">
        <ele>236.453348</ele>
        <time>2017-06-08T12:08:35.000Z</time>
      </trkpt>
      <trkpt lat="43.623573" lon="5.260635">
        <ele>235.680793</ele>
        <time>2017-06-08T12:08:37.000Z</time>
      </trkpt>
      <trkpt lat="43.623417" lon="5.260724">
        <ele>234.895877</ele>
        <time>2017-06-08T12:08:39.000Z</time>
      </trkpt>
      <trkpt lat="43.623264" lon="5.260818">
        <ele>234.117151</ele>
        <time>2017-06-08T12:08:41.000Z</time>
      </trkpt>
      <trkpt lat="43.623108" lon="5.260928">
        <ele>233.302623</ele>
        <time>2017-06-08T12:08:43.000Z</time>
      </trkpt>
      <trkpt lat="43.622944" lon="5.261039">
        <ele>232.453313</ele>
        <time>2017-06-08T12:08:45.000Z</time>
      </trkpt>
      <trkpt lat="43.622787" lon="5.261142">
        <ele>231.645026</ele>
        <time>2017-06-08T12:08:47.000Z</time>
      </trkpt>
      <trkpt lat="43.622643" lon="5.261237">
        <ele>230.902902</ele>
        <time>2017-06-08T12:08:49.000Z</time>
      </trkpt>
      <trkpt lat="43.622498" lon="5.261325">
        <ele>230.166368</ele>
        <time>2017-06-08T12:08:51.000Z</time>
      </trkpt>
      <trkpt lat="43.622356" lon="5.261426">
        <ele>229.423598</ele>
        <time>2017-06-08T12:08:53.000Z</time>
      </trkpt>
      <trkpt lat="43.622208" lon="5.261526">
        <ele>228.591460</ele>
        <time>2017-06-08T12:08:55.000Z</time>
      </trkpt>
      <trkpt lat="43.622055" lon="5.261626">
        <ele>227.714609</ele>
        <time>2017-06-08T12:08:57.000Z</time>
      </trkpt>
      <trkpt lat="43.621906" lon="5.261732">
        <ele>226.846374</ele>
        <time>2017-06-08T12:08:59.000Z</time>
      </trkpt>
      <trkpt lat="43.621758" lon="5.261842">
        <ele>225.975735</ele>
        <time>2017-06-08T12:09:01.000Z</time>
      </trkpt>
      <trkpt lat="43.621600" lon="5.261952">
        <ele>225.059146</ele>
        <time>2017-06-08T12:09:03.000Z</time>
      </trkpt>
      <trkpt lat="43.621517" lon="5.262008">
        <ele>224.580622</ele>
        <time>2017-06-08T12:09:04.000Z</time>
      </trkpt>
      <trkpt lat="43.621433" lon="5.262060">
        <ele>224.103766</ele>
        <time>2017-06-08T12:09:05.000Z</time>
      </trkpt>
      <trkpt lat="43.621340" lon="5.262117">
        <ele>223.576690</ele>
        <time>2017-06-08T12:09:06.000Z</time>
      </trkpt>
      <trkpt lat="43.621250" lon="5.262178">
        <ele>223.057351</ele>
        <time>2017-06-08T12:09:07.000Z</time>
      </trkpt>
      <trkpt lat="43.621155" lon="5.262227">
        <ele>222.532020</ele>
        <time>2017-06-08T12:09:08.000Z</time>
      </trkpt>
      <trkpt lat="43.621060" lon="5.262285">
        <ele>221.993952</ele>
        <time>2017-06-08T12:09:09.000Z</time>
      </trkpt>
      <trkpt lat="43.620960" lon="5.262339">
        <ele>221.437731</ele>
        <time>2017-06-08T12:09:10.000Z</time>
      </trkpt>
      <trkpt lat="43.620860" lon="5.262389">
        <ele>220.886793</ele>
        <time>2017-06-08T12:09:11.000Z</time>
      </trkpt>
      <trkpt lat="43.620766" lon="5.262435">
        <ele>220.370177</ele>
        <time>2017-06-08T12:09:12.000Z</time>
      </trkpt>
      <trkpt lat="43.620670" lon="5.262480">
        <ele>219.857539</ele>
        <time>2017-06-08T12:09:13.000Z</time>
      </trkpt>
      <trkpt lat="43.620580" lon="5.262527">
        <ele>219.444400</ele>
        <time>2017-06-08T12:09:14.000Z</time>
      </trkpt>
      <trkpt lat="43.620487" lon="5.262576">
        <ele>219.017012</ele>
        <time>2017-06-08T12:09:15.000Z</time>
      </trkpt>
      <trkpt lat="43.620388" lon="5.262622">
        <ele>218.568518</ele>
        <time>2017-06-08T12:09:16.000Z</time>
      </trkpt>
      <trkpt lat="43.620293" lon="5.262666">
        <ele>218.138285</ele>
        <time>2017-06-08T12:09:17.000Z</time>
      </trkpt>
      <trkpt lat="43.620200" lon="5.262712">
        <ele>217.714130</ele>
        <time>2017-06-08T12:09:18.000Z</time>
      </trkpt>
      <trkpt lat="43.620106" lon="5.262762">
        <ele>217.281619</ele>
        <time>2017-06-08T12:09:19.000Z</time>
      </trkpt>
      <trkpt lat="43.620014" lon="5.262811">
        <ele>216.858239</ele>
        <time>2017-06-08T12:09:20.000Z</time>
      </trkpt>
      <trkpt lat="43.619920" lon="5.262861">
        <ele>216.425728</ele>
        <time>2017-06-08T12:09:21.000Z</time>
      </trkpt>
      <trkpt lat="43.619830" lon="5.262909">
        <ele>216.011479</ele>
        <time>2017-06-08T12:09:22.000Z</time>
      </trkpt>
      <trkpt lat="43.619736" lon="5.262956">
        <ele>215.582231</ele>
        <time>2017-06-08T12:09:23.000Z</time>
      </trkpt>
      <trkpt lat="43.619648" lon="5.263004">
        <ele>215.175981</ele>
        <time>2017-06-08T12:09:24.000Z</time>
      </trkpt>
      <trkpt lat="43.619560" lon="5.263041">
        <ele>214.781007</ele>
        <time>2017-06-08T12:09:25.000Z</time>
      </trkpt>
      <trkpt lat="43.619473" lon="5.263080">
        <ele>214.388264</ele>
        <time>2017-06-08T12:09:26.000Z</time>
      </trkpt>
      <trkpt lat="43.619310" lon="5.263149">
        <ele>213.656241</ele>
        <time>2017-06-08T12:09:28.000Z</time>
      </trkpt>
      <trkpt lat="43.619150" lon="5.263212">
        <ele>212.941861</ele>
        <time>2017-06-08T12:09:30.000Z</time>
      </trkpt>
      <trkpt lat="43.618990" lon="5.263269">
        <ele>212.232366</ele>
        <time>2017-06-08T12:09:32.000Z</time>
      </trkpt>
      <trkpt lat="43.618840" lon="5.263312">
        <ele>212.082240</ele>
        <time>2017-06-08T12:09:34.000Z</time>
      </trkpt>
      <trkpt lat="43.618694" lon="5.263343">
        <ele>211.966808</ele>
        <time>2017-06-08T12:09:36.000Z</time>
      </trkpt>
      <trkpt lat="43.618560" lon="5.263366">
        <ele>211.861289</ele>
        <time>2017-06-08T12:09:38.000Z</time>
      </trkpt>
      <trkpt lat="43.618435" lon="5.263382">
        <ele>211.763189</ele>
        <time>2017-06-08T12:09:40.000Z</time>
      </trkpt>
      <trkpt lat="43.618310" lon="5.263392">
        <ele>211.665345</ele>
        <time>2017-06-08T12:09:42.000Z</time>
      </trkpt>
      <trkpt lat="43.618200" lon="5.263397">
        <ele>211.579339</ele>
        <time>2017-06-08T12:09:44.000Z</time>
      </trkpt>
      <trkpt lat="43.618088" lon="5.263407">
        <ele>211.491634</ele>
        <time>2017-06-08T12:09:46.000Z</time>
      </trkpt>
      <trkpt lat="43.617990" lon="5.263417">
        <ele>211.414844</ele>
        <time>2017-06-08T12:09:48.000Z</time>
      </trkpt>
      <trkpt lat="43.617860" lon="5.263377">
        <ele>211.310765</ele>
        <time>2017-06-08T12:09:51.000Z</time>
      </trkpt>
      <trkpt lat="43.617744" lon="5.263282">
        <ele>211.205382</ele>
        <time>2017-06-08T12:09:54.000Z</time>
      </trkpt>
      <trkpt lat="43.617664" lon="5.263216">
        <ele>211.132565</ele>
        <time>2017-06-08T12:09:56.000Z</time>
      </trkpt>
      <trkpt lat="43.617550" lon="5.263169">
        <ele>211.039596</ele>
        <time>2017-06-08T12:09:59.000Z</time>
      </trkpt>
      <trkpt lat="43.617447" lon="5.263126">
        <ele>210.955511</ele>
        <time>2017-06-08T12:10:02.000Z</time>
      </trkpt>
      <trkpt lat="43.617410" lon="5.262996">
        <ele>210.876486</ele>
        <time>2017-06-08T12:10:05.000Z</time>
      </trkpt>
      <trkpt lat="43.617390" lon="5.262850">
        <ele>210.792422</ele>
        <time>2017-06-08T12:10:08.000Z</time>
      </trkpt>
      <trkpt lat="43.617363" lon="5.262668">
        <ele>210.725369</ele>
        <time>2017-06-08T12:10:11.000Z</time>
      </trkpt>
      <trkpt lat="43.617336" lon="5.262490">
        <ele>210.660742</ele>
        <time>2017-06-08T12:10:14.000Z</time>
      </trkpt>
      <trkpt lat="43.617306" lon="5.262315">
        <ele>210.596834</ele>
        <time>2017-06-08T12:10:17.000Z</time>
      </trkpt>
      <trkpt lat="43.617287" lon="5.262140">
        <ele>210.533951</ele>
        <time>2017-06-08T12:10:20.000Z</time>
      </trkpt>
      <trkpt lat="43.617264" lon="5.261966">
        <ele>210.471096</ele>
        <time>2017-06-08T12:10:23.000Z</time>
      </trkpt>
      <trkpt lat="43.617250" lon="5.261843">
        <ele>210.426850</ele>
        <time>2017-06-08T12:10:25.000Z</time>
      </trkpt>
      <trkpt lat="43.617230" lon="5.261712">
        <ele>210.379274</ele>
        <time>2017-06-08T12:10:27.000Z</time>
      </trkpt>
      <trkpt lat="43.617207" lon="5.261587">
        <ele>210.333442</ele>
        <time>2017-06-08T12:10:29.000Z</time>
      </trkpt>
      <trkpt lat="43.617195" lon="5.261453">
        <ele>210.285461</ele>
        <time>2017-06-08T12:10:31.000Z</time>
      </trkpt>
      <trkpt lat="43.617176" lon="5.261312">
        <ele>210.234494</ele>
        <time>2017-06-08T12:10:33.000Z</time>
      </trkpt>
      <trkpt lat="43.617153" lon="5.261186">
        <ele>210.188317</ele>
        <time>2017-06-08T12:10:35.000Z</time>
      </trkpt>
      <trkpt lat="43.617123" lon="5.261058">
        <ele>210.140507</ele>
        <time>2017-06-08T12:10:37.000Z</time>
      </trkpt>
      <trkpt lat="43.617090" lon="5.260942">
        <ele>210.096217</ele>
        <time>2017-06-08T12:10:39.000Z</time>
      </trkpt>
      <trkpt lat="43.617058" lon="5.260824">
        <ele>210.051439</ele>
        <time>2017-06-08T12:10:41.000Z</time>
      </trkpt>
      <trkpt lat="43.617023" lon="5.260706">
        <ele>210.006123</ele>
        <time>2017-06-08T12:10:43.000Z</time>
      </trkpt>
      <trkpt lat="43.616997" lon="5.260587">
        <ele>209.961952</ele>
        <time>2017-06-08T12:10:45.000Z</time>
      </trkpt>
      <trkpt lat="43.616966" lon="5.260465">
        <ele>209.916005</ele>
        <time>2017-06-08T12:10:47.000Z</time>
      </trkpt>
      <trkpt lat="43.616930" lon="5.260344">
        <ele>210.084492</ele>
        <time>2017-06-08T12:10:49.000Z</time>
      </trkpt>
      <trkpt lat="43.616890" lon="5.260231">
        <ele>210.297713</ele>
        <time>2017-06-08T12:10:51.000Z</time>
      </trkpt>
      <trkpt lat="43.616833" lon="5.260126">
        <ele>210.520181</ele>
        <time>2017-06-08T12:10:53.000Z</time>
      </trkpt>
      <trkpt lat="43.616745" lon="5.259998">
        <ele>210.819403</ele>
        <time>2017-06-08T12:10:56.000Z</time>
      </trkpt>
      <trkpt lat="43.616653" lon="5.259902">
        <ele>211.089375</ele>
        <time>2017-06-08T12:10:59.000Z</time>
      </trkpt>
      <trkpt lat="43.616560" lon="5.259816">
        <ele>211.351423</ele>
        <time>2017-06-08T12:11:02.000Z</time>
      </trkpt>
      <trkpt lat="43.616480" lon="5.259723">
        <ele>211.596249</ele>
        <time>2017-06-08T12:11:05.000Z</time>
      </trkpt>
      <trkpt lat="43.616400" lon="5.259644">
        <ele>211.826511</ele>
        <time>2017-06-08T12:11:08.000Z</time>
      </trkpt>
      <trkpt lat="43.616310" lon="5.259541">
        <ele>212.100175</ele>
        <time>2017-06-08T12:11:11.000Z</time>
      </trkpt>
      <trkpt lat="43.616230" lon="5.259442">
        <ele>212.351671</ele>
        <time>2017-06-08T12:11:14.000Z</time>
      </trkpt>
      <trkpt lat="43.616146" lon="5.259378">
        <ele>212.576290</ele>
        <time>2017-06-08T12:11:17.000Z</time>
      </trkpt>
      <trkpt lat="43.616050" lon="5.259311">
        <ele>212.828132</ele>
        <time>2017-06-08T12:11:20.000Z</time>
      </trkpt>
      <trkpt lat="43.615944" lon="5.259285">
        <ele>213.080207</ele>
        <time>2017-06-08T12:11:23.000Z</time>
      </trkpt>
      <trkpt lat="43.615830" lon="5.259293">
        <ele>213.347476</ele>
        <time>2017-06-08T12:11:26.000Z</time>
      </trkpt>
      <trkpt lat="43.615726" lon="5.259326">
        <ele>213.597329</ele>
        <time>2017-06-08T12:11:29.000Z</time>
      </trkpt>
      <trkpt lat="43.615604" lon="5.259429">
        <ele>213.932119</ele>
        <time>2017-06-08T12:11:33.000Z</time>
      </trkpt>
      <trkpt lat="43.615524" lon="5.259520">
        <ele>214.211886</ele>
        <time>2017-06-08T12:11:36.000Z</time>
      </trkpt>
      <trkpt lat="43.615448" lon="5.259615">
        <ele>214.609262</ele>
        <time>2017-06-08T12:11:39.000Z</time>
      </trkpt>
      <trkpt lat="43.615376" lon="5.259704">
        <ele>214.983847</ele>
        <time>2017-06-08T12:11:42.000Z</time>
      </trkpt>
      <trkpt lat="43.615303" lon="5.259805">
        <ele>215.384414</ele>
        <time>2017-06-08T12:11:45.000Z</time>
      </trkpt>
      <trkpt lat="43.615230" lon="5.259901">
        <ele>215.775177</ele>
        <time>2017-06-08T12:11:48.000Z</time>
      </trkpt>
      <trkpt lat="43.615154" lon="5.259990">
        <ele>216.161456</ele>
        <time>2017-06-08T12:11:51.000Z</time>
      </trkpt>
      <trkpt lat="43.615080" lon="5.260092">
        <ele>216.566750</ele>
        <time>2017-06-08T12:11:54.000Z</time>
      </trkpt>
      <trkpt lat="43.615005" lon="5.260187">
        <ele>216.961262</ele>
        <time>2017-06-08T12:11:57.000Z</time>
      </trkpt>
      <trkpt lat="43.614925" lon="5.260283">
        <ele>217.372106</ele>
        <time>2017-06-08T12:12:00.000Z</time>
      </trkpt>
      <trkpt lat="43.614838" lon="5.260355">
        <ele>217.765295</ele>
        <time>2017-06-08T12:12:03.000Z</time>
      </trkpt>
      <trkpt lat="43.614758" lon="5.260408">
        <ele>218.109270</ele>
        <time>2017-06-08T12:12:06.000Z</time>
      </trkpt>
      <trkpt lat="43.614640" lon="5.260449">
        <ele>218.580984</ele>
        <time>2017-06-08T12:12:10.000Z</time>
      </trkpt>
      <trkpt lat="43.614530" lon="5.260464">
        <ele>219.009505</ele>
        <time>2017-06-08T12:12:14.000Z</time>
      </trkpt>
      <trkpt lat="43.614410" lon="5.260456">
        <ele>219.475263</ele>
        <time>2017-06-08T12:12:18.000Z</time>
      </trkpt>
      <trkpt lat="43.614310" lon="5.260434">
        <ele>219.867829</ele>
        <time>2017-06-08T12:12:22.000Z</time>
      </trkpt>
      <trkpt lat="43.614170" lon="5.260417">
        <ele>220.412675</ele>
        <time>2017-06-08T12:16:09.000Z</time>
      </trkpt>
      <trkpt lat="43.614070" lon="5.260377">
        <ele>220.816284</ele>
        <time>2017-06-08T12:16:14.000Z</time>
      </trkpt>
      <trkpt lat="43.613968" lon="5.260349">
        <ele>221.202769</ele>
        <time>2017-06-08T12:16:19.000Z</time>
      </trkpt>
      <trkpt lat="43.613860" lon="5.260330">
        <ele>221.569958</ele>
        <time>2017-06-08T12:16:24.000Z</time>
      </trkpt>
      <trkpt lat="43.613766" lon="5.260314">
        <ele>221.889385</ele>
        <time>2017-06-08T12:16:28.000Z</time>
      </trkpt>
      <trkpt lat="43.613674" lon="5.260299">
        <ele>222.201824</ele>
        <time>2017-06-08T12:16:32.000Z</time>
      </trkpt>
      <trkpt lat="43.613586" lon="5.260274">
        <ele>222.504830</ele>
        <time>2017-06-08T12:16:36.000Z</time>
      </trkpt>
      <trkpt lat="43.613490" lon="5.260258">
        <ele>222.830953</ele>
        <time>2017-06-08T12:16:40.000Z</time>
      </trkpt>
      <trkpt lat="43.613400" lon="5.260246">
        <ele>223.135903</ele>
        <time>2017-06-08T12:16:44.000Z</time>
      </trkpt>
      <trkpt lat="43.613293" lon="5.260221">
        <ele>223.501903</ele>
        <time>2017-06-08T12:16:49.000Z</time>
      </trkpt>
      <trkpt lat="43.613182" lon="5.260192">
        <ele>223.882906</ele>
        <time>2017-06-08T12:16:54.000Z</time>
      </trkpt>
      <trkpt lat="43.613090" lon="5.260171">
        <ele>224.197399</ele>
        <time>2017-06-08T12:16:58.000Z</time>
      </trkpt>
      <trkpt lat="43.612995" lon="5.260158">
        <ele>224.519369</ele>
        <time>2017-06-08T12:17:02.000Z</time>
      </trkpt>
      <trkpt lat="43.612907" lon="5.260134">
        <ele>224.821893</ele>
        <time>2017-06-08T12:17:06.000Z</time>
      </trkpt>
      <trkpt lat="43.612812" lon="5.260119">
        <ele>225.144382</ele>
        <time>2017-06-08T12:17:10.000Z</time>
      </trkpt>
      <trkpt lat="43.612717" lon="5.260094">
        <ele>225.470547</ele>
        <time>2017-06-08T12:17:14.000Z</time>
      </trkpt>
      <trkpt lat="43.612625" lon="5.260080">
        <ele>225.782709</ele>
        <time>2017-06-08T12:17:18.000Z</time>
      </trkpt>
      <trkpt lat="43.612530" lon="5.260054">
        <ele>226.109340</ele>
        <time>2017-06-08T12:17:22.000Z</time>
      </trkpt>
      <trkpt lat="43.612423" lon="5.260017">
        <ele>226.481352</ele>
        <time>2017-06-08T12:17:27.000Z</time>
      </trkpt>
      <trkpt lat="43.612330" lon="5.259977">
        <ele>226.809865</ele>
        <time>2017-06-08T12:17:31.000Z</time>
      </trkpt>
      <trkpt lat="43.612244" lon="5.259919">
        <ele>227.132644</ele>
        <time>2017-06-08T12:17:35.000Z</time>
      </trkpt>
      <trkpt lat="43.612156" lon="5.259870">
        <ele>227.847422</ele>
        <time>2017-06-08T12:17:39.000Z</time>
      </trkpt>
      <trkpt lat="43.612070" lon="5.259818">
        <ele>228.587344</ele>
        <time>2017-06-08T12:17:43.000Z</time>
      </trkpt>
      <trkpt lat="43.611990" lon="5.259743">
        <ele>229.349402</ele>
        <time>2017-06-08T12:17:47.000Z</time>
      </trkpt>
      <trkpt lat="43.611904" lon="5.259664">
        <ele>230.163442</ele>
        <time>2017-06-08T12:17:51.000Z</time>
      </trkpt>
      <trkpt lat="43.611810" lon="5.259589">
        <ele>231.019045</ele>
        <time>2017-06-08T12:17:56.000Z</time>
      </trkpt>
      <trkpt lat="43.611725" lon="5.259532">
        <ele>231.763766</ele>
        <time>2017-06-08T12:18:00.000Z</time>
      </trkpt>
      <trkpt lat="43.611652" lon="5.259452">
        <ele>232.498233</ele>
        <time>2017-06-08T12:18:04.000Z</time>
      </trkpt>
      <trkpt lat="43.611572" lon="5.259379">
        <ele>233.253942</ele>
        <time>2017-06-08T12:18:08.000Z</time>
      </trkpt>
      <trkpt lat="43.611504" lon="5.259275">
        <ele>234.053600</ele>
        <time>2017-06-08T12:18:13.000Z</time>
      </trkpt>
      <trkpt lat="43.611427" lon="5.259179">
        <ele>234.871167</ele>
        <time>2017-06-08T12:18:17.000Z</time>
      </trkpt>
      <trkpt lat="43.611343" lon="5.259107">
        <ele>235.650350</ele>
        <time>2017-06-08T12:18:21.000Z</time>
      </trkpt>
      <trkpt lat="43.611275" lon="5.259028">
        <ele>236.350687</ele>
        <time>2017-06-08T12:18:25.000Z</time>
      </trkpt>
      <trkpt lat="43.611202" lon="5.258947">
        <ele>237.088717</ele>
        <time>2017-06-08T12:18:29.000Z</time>
      </trkpt>
      <trkpt lat="43.611110" lon="5.258860">
        <ele>237.967499</ele>
        <time>2017-06-08T12:18:34.000Z</time>
      </trkpt>
      <trkpt lat="43.611027" lon="5.258762">
        <ele>238.828132</ele>
        <time>2017-06-08T12:18:39.000Z</time>
      </trkpt>
      <trkpt lat="43.610935" lon="5.258680">
        <ele>239.691116</ele>
        <time>2017-06-08T12:18:44.000Z</time>
      </trkpt>
      <trkpt lat="43.610863" lon="5.258599">
        <ele>240.423019</ele>
        <time>2017-06-08T12:18:48.000Z</time>
      </trkpt>
      <trkpt lat="43.610780" lon="5.258528">
        <ele>241.192498</ele>
        <time>2017-06-08T12:18:52.000Z</time>
      </trkpt>
      <trkpt lat="43.610710" lon="5.258440">
        <ele>241.772794</ele>
        <time>2017-06-08T12:18:56.000Z</time>
      </trkpt>
      <trkpt lat="43.610650" lon="5.258347">
        <ele>242.288917</ele>
        <time>2017-06-08T12:19:00.000Z</time>
      </trkpt>
      <trkpt lat="43.610580" lon="5.258261">
        <ele>242.825055</ele>
        <time>2017-06-08T12:19:04.000Z</time>
      </trkpt>
      <trkpt lat="43.610508" lon="5.258165">
        <ele>243.397760</ele>
        <time>2017-06-08T12:19:08.000Z</time>
      </trkpt>
      <trkpt lat="43.610435" lon="5.258072">
        <ele>243.966096</ele>
        <time>2017-06-08T12:19:12.000Z</time>
      </trkpt>
      <trkpt lat="43.610350" lon="5.257999">
        <ele>244.538895</ele>
        <time>2017-06-08T12:19:16.000Z</time>
      </trkpt>
      <trkpt lat="43.610260" lon="5.257913">
        <ele>245.165186</ele>
        <time>2017-06-08T12:19:21.000Z</time>
      </trkpt>
      <trkpt lat="43.610165" lon="5.257835">
        <ele>245.797649</ele>
        <time>2017-06-08T12:19:26.000Z</time>
      </trkpt>
      <trkpt lat="43.610073" lon="5.257773">
        <ele>246.383465</ele>
        <time>2017-06-08T12:19:30.000Z</time>
      </trkpt>
      <trkpt lat="43.609974" lon="5.257693">
        <ele>247.039855</ele>
        <time>2017-06-08T12:19:34.000Z</time>
      </trkpt>
      <trkpt lat="43.609894" lon="5.257634">
        <ele>247.558849</ele>
        <time>2017-06-08T12:19:37.000Z</time>
      </trkpt>
      <trkpt lat="43.609806" lon="5.257561">
        <ele>248.146299</ele>
        <time>2017-06-08T12:19:40.000Z</time>
      </trkpt>
      <trkpt lat="43.609695" lon="5.257476">
        <ele>248.872618</ele>
        <time>2017-06-08T12:19:43.000Z</time>
      </trkpt>
      <trkpt lat="43.609592" lon="5.257381">
        <ele>249.581405</ele>
        <time>2017-06-08T12:19:46.000Z</time>
      </trkpt>
      <trkpt lat="43.609493" lon="5.257311">
        <ele>250.217877</ele>
        <time>2017-06-08T12:19:49.000Z</time>
      </trkpt>
      <trkpt lat="43.609394" lon="5.257247">
        <ele>250.843411</ele>
        <time>2017-06-08T12:19:52.000Z</time>
      </trkpt>
      <trkpt lat="43.609310" lon="5.257176">
        <ele>251.406991</ele>
        <time>2017-06-08T12:19:55.000Z</time>
      </trkpt>
      <trkpt lat="43.609220" lon="5.257095">
        <ele>251.711044</ele>
        <time>2017-06-08T12:19:58.000Z</time>
      </trkpt>
      <trkpt lat="43.609104" lon="5.257009">
        <ele>251.872255</ele>
        <time>2017-06-08T12:20:01.000Z</time>
      </trkpt>
      <trkpt lat="43.609024" lon="5.256942">
        <ele>251.986818</ele>
        <time>2017-06-08T12:20:03.000Z</time>
      </trkpt>
      <trkpt lat="43.608944" lon="5.256877">
        <ele>252.100471</ele>
        <time>2017-06-08T12:20:05.000Z</time>
      </trkpt>
      <trkpt lat="43.608856" lon="5.256822">
        <ele>252.218746</ele>
        <time>2017-06-08T12:20:07.000Z</time>
      </trkpt>
      <trkpt lat="43.608776" lon="5.256764">
        <ele>252.329382</ele>
        <time>2017-06-08T12:20:09.000Z</time>
      </trkpt>
      <trkpt lat="43.608692" lon="5.256703">
        <ele>252.445591</ele>
        <time>2017-06-08T12:20:11.000Z</time>
      </trkpt>
      <trkpt lat="43.608570" lon="5.256621">
        <ele>252.611730</ele>
        <time>2017-06-08T12:20:14.000Z</time>
      </trkpt>
      <trkpt lat="43.608480" lon="5.256575">
        <ele>252.729238</ele>
        <time>2017-06-08T12:20:16.000Z</time>
      </trkpt>
      <trkpt lat="43.608390" lon="5.256526">
        <ele>252.847696</ele>
        <time>2017-06-08T12:20:18.000Z</time>
      </trkpt>
      <trkpt lat="43.608303" lon="5.256476">
        <ele>252.963082</ele>
        <time>2017-06-08T12:20:20.000Z</time>
      </trkpt>
      <trkpt lat="43.608210" lon="5.256427">
        <ele>253.084964</ele>
        <time>2017-06-08T12:20:22.000Z</time>
      </trkpt>
      <trkpt lat="43.608120" lon="5.256383">
        <ele>253.201869</ele>
        <time>2017-06-08T12:20:24.000Z</time>
      </trkpt>
      <trkpt lat="43.608036" lon="5.256342">
        <ele>253.310961</ele>
        <time>2017-06-08T12:20:26.000Z</time>
      </trkpt>
      <trkpt lat="43.607940" lon="5.256310">
        <ele>253.431887</ele>
        <time>2017-06-08T12:20:28.000Z</time>
      </trkpt>
      <trkpt lat="43.607850" lon="5.256270">
        <ele>253.547656</ele>
        <time>2017-06-08T12:20:30.000Z</time>
      </trkpt>
      <trkpt lat="43.607758" lon="5.256236">
        <ele>253.664273</ele>
        <time>2017-06-08T12:20:32.000Z</time>
      </trkpt>
      <trkpt lat="43.607666" lon="5.256191">
        <ele>253.783782</ele>
        <time>2017-06-08T12:20:34.000Z</time>
      </trkpt>
      <trkpt lat="43.607570" lon="5.256152">
        <ele>253.886713</ele>
        <time>2017-06-08T12:20:36.000Z</time>
      </trkpt>
      <trkpt lat="43.607475" lon="5.256109">
        <ele>253.978142</ele>
        <time>2017-06-08T12:20:38.000Z</time>
      </trkpt>
      <trkpt lat="43.607380" lon="5.256068">
        <ele>254.069168</ele>
        <time>2017-06-08T12:20:40.000Z</time>
      </trkpt>
      <trkpt lat="43.607290" lon="5.256027">
        <ele>254.155839</ele>
        <time>2017-06-08T12:20:42.000Z</time>
      </trkpt>
      <trkpt lat="43.607200" lon="5.255986">
        <ele>254.242511</ele>
        <time>2017-06-08T12:20:44.000Z</time>
      </trkpt>
      <trkpt lat="43.607075" lon="5.255940">
        <ele>254.360818</ele>
        <time>2017-06-08T12:20:47.000Z</time>
      </trkpt>
      <trkpt lat="43.606960" lon="5.255895">
        <ele>254.470131</ele>
        <time>2017-06-08T12:20:50.000Z</time>
      </trkpt>
      <trkpt lat="43.606846" lon="5.255849">
        <ele>254.578748</ele>
        <time>2017-06-08T12:20:53.000Z</time>
      </trkpt>
      <trkpt lat="43.606735" lon="5.255810">
        <ele>254.683496</ele>
        <time>2017-06-08T12:20:56.000Z</time>
      </trkpt>
      <trkpt lat="43.606636" lon="5.255760">
        <ele>254.779901</ele>
        <time>2017-06-08T12:20:59.000Z</time>
      </trkpt>
      <trkpt lat="43.606530" lon="5.255715">
        <ele>254.881319</ele>
        <time>2017-06-08T12:21:02.000Z</time>
      </trkpt>
      <trkpt lat="43.606430" lon="5.255667">
        <ele>254.978140</ele>
        <time>2017-06-08T12:21:05.000Z</time>
      </trkpt>
      <trkpt lat="43.606330" lon="5.255624">
        <ele>255.073926</ele>
        <time>2017-06-08T12:21:08.000Z</time>
      </trkpt>
      <trkpt lat="43.606230" lon="5.255587">
        <ele>255.168606</ele>
        <time>2017-06-08T12:21:11.000Z</time>
      </trkpt>
      <trkpt lat="43.606140" lon="5.255548">
        <ele>255.254871</ele>
        <time>2017-06-08T12:21:14.000Z</time>
      </trkpt>
      <trkpt lat="43.606040" lon="5.255504">
        <ele>255.350856</ele>
        <time>2017-06-08T12:21:17.000Z</time>
      </trkpt>
      <trkpt lat="43.605940" lon="5.255457">
        <ele>255.447461</ele>
        <time>2017-06-08T12:21:20.000Z</time>
      </trkpt>
      <trkpt lat="43.605840" lon="5.255412">
        <ele>255.489610</ele>
        <time>2017-06-08T12:21:23.000Z</time>
      </trkpt>
      <trkpt lat="43.605747" lon="5.255354">
        <ele>255.510710</ele>
        <time>2017-06-08T12:21:26.000Z</time>
      </trkpt>
      <trkpt lat="43.605648" lon="5.255307">
        <ele>255.532358</ele>
        <time>2017-06-08T12:21:29.000Z</time>
      </trkpt>
      <trkpt lat="43.605530" lon="5.255280">
        <ele>255.557090</ele>
        <time>2017-06-08T12:21:32.000Z</time>
      </trkpt>
      <trkpt lat="43.605410" lon="5.255239">
        <ele>255.582652</ele>
        <time>2017-06-08T12:21:35.000Z</time>
      </trkpt>
      <trkpt lat="43.605293" lon="5.255195">
        <ele>255.607726</ele>
        <time>2017-06-08T12:21:38.000Z</time>
      </trkpt>
      <trkpt lat="43.605164" lon="5.255148">
        <ele>255.635314</ele>
        <time>2017-06-08T12:21:41.000Z</time>
      </trkpt>
      <trkpt lat="43.605072" lon="5.255111">
        <ele>255.655128</ele>
        <time>2017-06-08T12:21:43.000Z</time>
      </trkpt>
      <trkpt lat="43.604977" lon="5.255082">
        <ele>255.675246</ele>
        <time>2017-06-08T12:21:45.000Z</time>
      </trkpt>
      <trkpt lat="43.604885" lon="5.255064">
        <ele>255.694460</ele>
        <time>2017-06-08T12:21:47.000Z</time>
      </trkpt>
      <trkpt lat="43.604750" lon="5.255024">
        <ele>255.723010</ele>
        <time>2017-06-08T12:21:50.000Z</time>
      </trkpt>
      <trkpt lat="43.604618" lon="5.254995">
        <ele>255.750649</ele>
        <time>2017-06-08T12:21:53.000Z</time>
      </trkpt>
      <trkpt lat="43.604492" lon="5.254968">
        <ele>255.777015</ele>
        <time>2017-06-08T12:21:56.000Z</time>
      </trkpt>
      <trkpt lat="43.604380" lon="5.254947">
        <ele>255.800387</ele>
        <time>2017-06-08T12:21:59.000Z</time>
      </trkpt>
      <trkpt lat="43.604267" lon="5.254924">
        <ele>255.824005</ele>
        <time>2017-06-08T12:22:02.000Z</time>
      </trkpt>
      <trkpt lat="43.604168" lon="5.254916">
        <ele>255.844511</ele>
        <time>2017-06-08T12:22:05.000Z</time>
      </trkpt>
      <trkpt lat="43.604073" lon="5.254908">
        <ele>255.857843</ele>
        <time>2017-06-08T12:22:08.000Z</time>
      </trkpt>
      <trkpt lat="43.603977" lon="5.254904">
        <ele>255.870868</ele>
        <time>2017-06-08T12:22:11.000Z</time>
      </trkpt>
      <trkpt lat="43.603880" lon="5.254909">
        <ele>255.884032</ele>
        <time>2017-06-08T12:22:14.000Z</time>
      </trkpt>
      <trkpt lat="43.603786" lon="5.254891">
        <ele>255.896901</ele>
        <time>2017-06-08T12:22:17.000Z</time>
      </trkpt>
      <trkpt lat="43.603683" lon="5.254898">
        <ele>255.910886</ele>
        <time>2017-06-08T12:22:20.000Z</time>
      </trkpt>
      <trkpt lat="43.603584" lon="5.254909">
        <ele>255.924355</ele>
        <time>2017-06-08T12:22:23.000Z</time>
      </trkpt>
      <trkpt lat="43.603480" lon="5.254921">
        <ele>255.938508</ele>
        <time>2017-06-08T12:22:26.000Z</time>
      </trkpt>
      <trkpt lat="43.603374" lon="5.254933">
        <ele>255.952931</ele>
        <time>2017-06-08T12:22:29.000Z</time>
      </trkpt>
      <trkpt lat="43.603270" lon="5.254941">
        <ele>255.967056</ele>
        <time>2017-06-08T12:22:32.000Z</time>
      </trkpt>
      <trkpt lat="43.603172" lon="5.254943">
        <ele>255.980348</ele>
        <time>2017-06-08T12:22:35.000Z</time>
      </trkpt>
      <trkpt lat="43.603080" lon="5.254950">
        <ele>255.992843</ele>
        <time>2017-06-08T12:22:38.000Z</time>
      </trkpt>
      <trkpt lat="43.602990" lon="5.254957">
        <ele>256.005067</ele>
        <time>2017-06-08T12:22:41.000Z</time>
      </trkpt>
      <trkpt lat="43.602870" lon="5.254961">
        <ele>256.021346</ele>
        <time>2017-06-08T12:22:45.000Z</time>
      </trkpt>
      <trkpt lat="43.602760" lon="5.254962">
        <ele>256.036263</ele>
        <time>2017-06-08T12:22:49.000Z</time>
      </trkpt>
      <trkpt lat="43.602665" lon="5.254959">
        <ele>256.049150</ele>
        <time>2017-06-08T12:22:52.000Z</time>
      </trkpt>
      <trkpt lat="43.602540" lon="5.254948">
        <ele>256.066136</ele>
        <time>2017-06-08T12:22:55.000Z</time>
      </trkpt>
      <trkpt lat="43.602440" lon="5.254956">
        <ele>256.079720</ele>
        <time>2017-06-08T12:22:57.000Z</time>
      </trkpt>
      <trkpt lat="43.602345" lon="5.254970">
        <ele>256.049337</ele>
        <time>2017-06-08T12:22:59.000Z</time>
      </trkpt>
      <trkpt lat="43.602250" lon="5.254978">
        <ele>255.876550</ele>
        <time>2017-06-08T12:23:01.000Z</time>
      </trkpt>
      <trkpt lat="43.602116" lon="5.254988">
        <ele>255.632926</ele>
        <time>2017-06-08T12:23:04.000Z</time>
      </trkpt>
      <trkpt lat="43.602024" lon="5.254997">
        <ele>255.465487</ele>
        <time>2017-06-08T12:23:06.000Z</time>
      </trkpt>
      <trkpt lat="43.601930" lon="5.254992">
        <ele>255.294709</ele>
        <time>2017-06-08T12:23:08.000Z</time>
      </trkpt>
      <trkpt lat="43.601820" lon="5.254994">
        <ele>255.094993</ele>
        <time>2017-06-08T12:23:10.000Z</time>
      </trkpt>
      <trkpt lat="43.601710" lon="5.255000">
        <ele>254.895139</ele>
        <time>2017-06-08T12:23:12.000Z</time>
      </trkpt>
      <trkpt lat="43.601590" lon="5.255006">
        <ele>254.677143</ele>
        <time>2017-06-08T12:23:14.000Z</time>
      </trkpt>
      <trkpt lat="43.601460" lon="5.255027">
        <ele>254.439527</ele>
        <time>2017-06-08T12:23:16.000Z</time>
      </trkpt>
      <trkpt lat="43.601322" lon="5.255050">
        <ele>254.187178</ele>
        <time>2017-06-08T12:23:18.000Z</time>
      </trkpt>
      <trkpt lat="43.601177" lon="5.255078">
        <ele>253.921378</ele>
        <time>2017-06-08T12:23:20.000Z</time>
      </trkpt>
      <trkpt lat="43.601025" lon="5.255100">
        <ele>253.643919</ele>
        <time>2017-06-08T12:23:22.000Z</time>
      </trkpt>
      <trkpt lat="43.600876" lon="5.255120">
        <ele>253.372144</ele>
        <time>2017-06-08T12:23:24.000Z</time>
      </trkpt>
      <trkpt lat="43.600727" lon="5.255145">
        <ele>253.099654</ele>
        <time>2017-06-08T12:23:26.000Z</time>
      </trkpt>
      <trkpt lat="43.600586" lon="5.255162">
        <ele>252.842703</ele>
        <time>2017-06-08T12:23:28.000Z</time>
      </trkpt>
      <trkpt lat="43.600456" lon="5.255187">
        <ele>252.749626</ele>
        <time>2017-06-08T12:23:30.000Z</time>
      </trkpt>
      <trkpt lat="43.600330" lon="5.255210">
        <ele>252.671243</ele>
        <time>2017-06-08T12:23:32.000Z</time>
      </trkpt>
      <trkpt lat="43.600216" lon="5.255233">
        <ele>252.600190</ele>
        <time>2017-06-08T12:23:34.000Z</time>
      </trkpt>
      <trkpt lat="43.600105" lon="5.255256">
        <ele>252.530967</ele>
        <time>2017-06-08T12:23:36.000Z</time>
      </trkpt>
      <trkpt lat="43.600002" lon="5.255274">
        <ele>252.466938</ele>
        <time>2017-06-08T12:23:38.000Z</time>
      </trkpt>
      <trkpt lat="43.599907" lon="5.255294">
        <ele>252.407672</ele>
        <time>2017-06-08T12:23:40.000Z</time>
      </trkpt>
      <trkpt lat="43.599810" lon="5.255316">
        <ele>252.347048</ele>
        <time>2017-06-08T12:23:42.000Z</time>
      </trkpt>
      <trkpt lat="43.599720" lon="5.255339">
        <ele>252.290600</ele>
        <time>2017-06-08T12:23:44.000Z</time>
      </trkpt>
      <trkpt lat="43.599590" lon="5.255371">
        <ele>252.209162</ele>
        <time>2017-06-08T12:23:47.000Z</time>
      </trkpt>
      <trkpt lat="43.599460" lon="5.255408">
        <ele>252.127303</ele>
        <time>2017-06-08T12:23:50.000Z</time>
      </trkpt>
      <trkpt lat="43.599365" lon="5.255443">
        <ele>252.066665</ele>
        <time>2017-06-08T12:23:52.000Z</time>
      </trkpt>
      <trkpt lat="43.599262" lon="5.255476">
        <ele>252.001455</ele>
        <time>2017-06-08T12:23:54.000Z</time>
      </trkpt>
      <trkpt lat="43.599155" lon="5.255509">
        <ele>251.933839</ele>
        <time>2017-06-08T12:23:56.000Z</time>
      </trkpt>
      <trkpt lat="43.599050" lon="5.255544">
        <ele>251.867223</ele>
        <time>2017-06-08T12:23:58.000Z</time>
      </trkpt>
      <trkpt lat="43.598938" lon="5.255582">
        <ele>251.796096</ele>
        <time>2017-06-08T12:24:00.000Z</time>
      </trkpt>
      <trkpt lat="43.598830" lon="5.255613">
        <ele>251.728066</ele>
        <time>2017-06-08T12:24:02.000Z</time>
      </trkpt>
      <trkpt lat="43.598730" lon="5.255632">
        <ele>251.631171</ele>
        <time>2017-06-08T12:24:04.000Z</time>
      </trkpt>
      <trkpt lat="43.598620" lon="5.255645">
        <ele>251.515196</ele>
        <time>2017-06-08T12:24:06.000Z</time>
      </trkpt>
      <trkpt lat="43.598520" lon="5.255647">
        <ele>251.410138</ele>
        <time>2017-06-08T12:24:08.000Z</time>
      </trkpt>
      <trkpt lat="43.598410" lon="5.255635">
        <ele>251.294226</ele>
        <time>2017-06-08T12:24:10.000Z</time>
      </trkpt>
      <trkpt lat="43.598310" lon="5.255608">
        <ele>251.187189</ele>
        <time>2017-06-08T12:24:12.000Z</time>
      </trkpt>
      <trkpt lat="43.598213" lon="5.255574">
        <ele>251.082062</ele>
        <time>2017-06-08T12:24:14.000Z</time>
      </trkpt>
      <trkpt lat="43.598114" lon="5.255543">
        <ele>250.975425</ele>
        <time>2017-06-08T12:24:16.000Z</time>
      </trkpt>
      <trkpt lat="43.598015" lon="5.255508">
        <ele>250.868074</ele>
        <time>2017-06-08T12:24:18.000Z</time>
      </trkpt>
      <trkpt lat="43.597920" lon="5.255476">
        <ele>250.765352</ele>
        <time>2017-06-08T12:24:20.000Z</time>
      </trkpt>
      <trkpt lat="43.597828" lon="5.255449">
        <ele>250.666550</ele>
        <time>2017-06-08T12:24:22.000Z</time>
      </trkpt>
      <trkpt lat="43.597733" lon="5.255423">
        <ele>250.564814</ele>
        <time>2017-06-08T12:24:24.000Z</time>
      </trkpt>
      <trkpt lat="43.597645" lon="5.255384">
        <ele>250.467728</ele>
        <time>2017-06-08T12:24:26.000Z</time>
      </trkpt>
      <trkpt lat="43.597557" lon="5.255337">
        <ele>250.368612</ele>
        <time>2017-06-08T12:24:28.000Z</time>
      </trkpt>
      <trkpt lat="43.597466" lon="5.255320">
        <ele>250.272148</ele>
        <time>2017-06-08T12:24:30.000Z</time>
      </trkpt>
      <trkpt lat="43.597366" lon="5.255293">
        <ele>250.165112</ele>
        <time>2017-06-08T12:24:32.000Z</time>
      </trkpt>
      <trkpt lat="43.597270" lon="5.255264">
        <ele>250.061881</ele>
        <time>2017-06-08T12:24:34.000Z</time>
      </trkpt>
      <trkpt lat="43.597170" lon="5.255237">
        <ele>249.954844</ele>
        <time>2017-06-08T12:24:36.000Z</time>
      </trkpt>
      <trkpt lat="43.597073" lon="5.255207">
        <ele>249.850424</ele>
        <time>2017-06-08T12:24:38.000Z</time>
      </trkpt>
      <trkpt lat="43.596977" lon="5.255174">
        <ele>249.767526</ele>
        <time>2017-06-08T12:24:40.000Z</time>
      </trkpt>
      <trkpt lat="43.596878" lon="5.255143">
        <ele>249.689218</ele>
        <time>2017-06-08T12:24:42.000Z</time>
      </trkpt>
      <trkpt lat="43.596775" lon="5.255105">
        <ele>249.606977</ele>
        <time>2017-06-08T12:24:44.000Z</time>
      </trkpt>
      <trkpt lat="43.596676" lon="5.255064">
        <ele>249.527248</ele>
        <time>2017-06-08T12:24:46.000Z</time>
      </trkpt>
      <trkpt lat="43.596565" lon="5.255024">
        <ele>249.438755</ele>
        <time>2017-06-08T12:24:48.000Z</time>
      </trkpt>
      <trkpt lat="43.596462" lon="5.254982">
        <ele>249.355910</ele>
        <time>2017-06-08T12:24:50.000Z</time>
      </trkpt>
      <trkpt lat="43.596363" lon="5.254948">
        <ele>249.277215</ele>
        <time>2017-06-08T12:24:52.000Z</time>
      </trkpt>
      <trkpt lat="43.596264" lon="5.254912">
        <ele>249.198243</ele>
        <time>2017-06-08T12:24:54.000Z</time>
      </trkpt>
      <trkpt lat="43.596170" lon="5.254879">
        <ele>249.123425</ele>
        <time>2017-06-08T12:24:56.000Z</time>
      </trkpt>
      <trkpt lat="43.596077" lon="5.254849">
        <ele>249.049753</ele>
        <time>2017-06-08T12:24:58.000Z</time>
      </trkpt>
      <trkpt lat="43.595950" lon="5.254807">
        <ele>248.949015</ele>
        <time>2017-06-08T12:25:01.000Z</time>
      </trkpt>
      <trkpt lat="43.595837" lon="5.254762">
        <ele>248.858295</ele>
        <time>2017-06-08T12:25:04.000Z</time>
      </trkpt>
      <trkpt lat="43.595720" lon="5.254725">
        <ele>248.765704</ele>
        <time>2017-06-08T12:25:07.000Z</time>
      </trkpt>
      <trkpt lat="43.595604" lon="5.254680">
        <ele>248.672758</ele>
        <time>2017-06-08T12:25:10.000Z</time>
      </trkpt>
      <trkpt lat="43.595478" lon="5.254652">
        <ele>248.574311</ele>
        <time>2017-06-08T12:25:13.000Z</time>
      </trkpt>
      <trkpt lat="43.595375" lon="5.254640">
        <ele>248.494575</ele>
        <time>2017-06-08T12:25:15.000Z</time>
      </trkpt>
      <trkpt lat="43.595260" lon="5.254639">
        <ele>248.271421</ele>
        <time>2017-06-08T12:25:17.000Z</time>
      </trkpt>
      <trkpt lat="43.595146" lon="5.254640">
        <ele>247.817576</ele>
        <time>2017-06-08T12:25:19.000Z</time>
      </trkpt>
      <trkpt lat="43.595020" lon="5.254639">
        <ele>247.315960</ele>
        <time>2017-06-08T12:25:21.000Z</time>
      </trkpt>
      <trkpt lat="43.594887" lon="5.254642">
        <ele>246.786414</ele>
        <time>2017-06-08T12:25:23.000Z</time>
      </trkpt>
      <trkpt lat="43.594746" lon="5.254647">
        <ele>246.224906</ele>
        <time>2017-06-08T12:25:25.000Z</time>
      </trkpt>
      <trkpt lat="43.594597" lon="5.254649">
        <ele>245.631707</ele>
        <time>2017-06-08T12:25:27.000Z</time>
      </trkpt>
      <trkpt lat="43.594444" lon="5.254645">
        <ele>245.022503</ele>
        <time>2017-06-08T12:25:29.000Z</time>
      </trkpt>
      <trkpt lat="43.594288" lon="5.254651">
        <ele>244.401223</ele>
        <time>2017-06-08T12:25:31.000Z</time>
      </trkpt>
      <trkpt lat="43.594124" lon="5.254654">
        <ele>243.748280</ele>
        <time>2017-06-08T12:25:33.000Z</time>
      </trkpt>
      <trkpt lat="43.593960" lon="5.254654">
        <ele>243.095393</ele>
        <time>2017-06-08T12:25:35.000Z</time>
      </trkpt>
      <trkpt lat="43.593796" lon="5.254650">
        <ele>242.442405</ele>
        <time>2017-06-08T12:25:37.000Z</time>
      </trkpt>
      <trkpt lat="43.593636" lon="5.254644">
        <ele>241.805208</ele>
        <time>2017-06-08T12:25:39.000Z</time>
      </trkpt>
      <trkpt lat="43.593480" lon="5.254629">
        <ele>241.181831</ele>
        <time>2017-06-08T12:25:41.000Z</time>
      </trkpt>
      <trkpt lat="43.593346" lon="5.254596">
        <ele>240.635203</ele>
        <time>2017-06-08T12:25:43.000Z</time>
      </trkpt>
      <trkpt lat="43.593224" lon="5.254560">
        <ele>240.134195</ele>
        <time>2017-06-08T12:25:45.000Z</time>
      </trkpt>
      <trkpt lat="43.593100" lon="5.254521">
        <ele>239.623462</ele>
        <time>2017-06-08T12:25:47.000Z</time>
      </trkpt>
      <trkpt lat="43.592980" lon="5.254483">
        <ele>239.129038</ele>
        <time>2017-06-08T12:25:49.000Z</time>
      </trkpt>
      <trkpt lat="43.592870" lon="5.254447">
        <ele>238.675045</ele>
        <time>2017-06-08T12:25:51.000Z</time>
      </trkpt>
      <trkpt lat="43.592770" lon="5.254408">
        <ele>238.257738</ele>
        <time>2017-06-08T12:25:53.000Z</time>
      </trkpt>
      <trkpt lat="43.592674" lon="5.254375">
        <ele>237.860439</ele>
        <time>2017-06-08T12:25:55.000Z</time>
      </trkpt>
      <trkpt lat="43.592587" lon="5.254338">
        <ele>237.494854</ele>
        <time>2017-06-08T12:25:57.000Z</time>
      </trkpt>
      <trkpt lat="43.592460" lon="5.254296">
        <ele>236.970404</ele>
        <time>2017-06-08T12:26:00.000Z</time>
      </trkpt>
      <trkpt lat="43.592377" lon="5.254262">
        <ele>236.622721</ele>
        <time>2017-06-08T12:26:03.000Z</time>
      </trkpt>
      <trkpt lat="43.592213" lon="5.254231">
        <ele>235.957964</ele>
        <time>2017-06-08T12:27:13.000Z</time>
      </trkpt>
      <trkpt lat="43.592120" lon="5.254182">
        <ele>235.558212</ele>
        <time>2017-06-08T12:27:21.000Z</time>
      </trkpt>
      <trkpt lat="43.592020" lon="5.254156">
        <ele>235.149560</ele>
        <time>2017-06-08T12:27:26.000Z</time>
      </trkpt>
      <trkpt lat="43.591920" lon="5.254125">
        <ele>234.737968</ele>
        <time>2017-06-08T12:27:30.000Z</time>
      </trkpt>
      <trkpt lat="43.591820" lon="5.254094">
        <ele>234.326376</ele>
        <time>2017-06-08T12:27:34.000Z</time>
      </trkpt>
      <trkpt lat="43.591713" lon="5.254067">
        <ele>234.062927</ele>
        <time>2017-06-08T12:27:38.000Z</time>
      </trkpt>
      <trkpt lat="43.591620" lon="5.254036">
        <ele>234.082529</ele>
        <time>2017-06-08T12:27:42.000Z</time>
      </trkpt>
      <trkpt lat="43.591530" lon="5.254012">
        <ele>234.101310</ele>
        <time>2017-06-08T12:27:47.000Z</time>
      </trkpt>
      <trkpt lat="43.591434" lon="5.253994">
        <ele>234.121159</ele>
        <time>2017-06-08T12:27:52.000Z</time>
      </trkpt>
      <trkpt lat="43.591324" lon="5.253952">
        <ele>234.144543</ele>
        <time>2017-06-08T12:27:57.000Z</time>
      </trkpt>
      <trkpt lat="43.591232" lon="5.253920">
        <ele>234.163982</ele>
        <time>2017-06-08T12:28:00.000Z</time>
      </trkpt>
      <trkpt lat="43.591120" lon="5.253889">
        <ele>234.187386</ele>
        <time>2017-06-08T12:28:04.000Z</time>
      </trkpt>
      <trkpt lat="43.591003" lon="5.253850">
        <ele>234.212047</ele>
        <time>2017-06-08T12:28:08.000Z</time>
      </trkpt>
      <trkpt lat="43.590920" lon="5.253813">
        <ele>234.229917</ele>
        <time>2017-06-08T12:28:11.000Z</time>
      </trkpt>
      <trkpt lat="43.590828" lon="5.253769">
        <ele>234.249866</ele>
        <time>2017-06-08T12:28:14.000Z</time>
      </trkpt>
      <trkpt lat="43.590720" lon="5.253716">
        <ele>234.273350</ele>
        <time>2017-06-08T12:28:18.000Z</time>
      </trkpt>
      <trkpt lat="43.590620" lon="5.253646">
        <ele>234.296322</ele>
        <time>2017-06-08T12:28:22.000Z</time>
      </trkpt>
      <trkpt lat="43.590520" lon="5.253585">
        <ele>234.318721</ele>
        <time>2017-06-08T12:28:26.000Z</time>
      </trkpt>
      <trkpt lat="43.590412" lon="5.253518">
        <ele>234.342980</ele>
        <time>2017-06-08T12:28:30.000Z</time>
      </trkpt>
      <trkpt lat="43.590332" lon="5.253461">
        <ele>234.361426</ele>
        <time>2017-06-08T12:28:33.000Z</time>
      </trkpt>
      <trkpt lat="43.590250" lon="5.253402">
        <ele>234.380371</ele>
        <time>2017-06-08T12:28:36.000Z</time>
      </trkpt>
      <trkpt lat="43.590160" lon="5.253328">
        <ele>234.401833</ele>
        <time>2017-06-08T12:28:39.000Z</time>
      </trkpt>
      <trkpt lat="43.590070" lon="5.253272">
        <ele>234.422059</ele>
        <time>2017-06-08T12:28:42.000Z</time>
      </trkpt>
      <trkpt lat="43.589973" lon="5.253209">
        <ele>234.554406</ele>
        <time>2017-06-08T12:28:45.000Z</time>
      </trkpt>
      <trkpt lat="43.589874" lon="5.253142">
        <ele>234.695794</ele>
        <time>2017-06-08T12:28:48.000Z</time>
      </trkpt>
      <trkpt lat="43.589787" lon="5.253069">
        <ele>234.826349</ele>
        <time>2017-06-08T12:28:51.000Z</time>
      </trkpt>
      <trkpt lat="43.589703" lon="5.253004">
        <ele>234.949835</ele>
        <time>2017-06-08T12:28:54.000Z</time>
      </trkpt>
      <trkpt lat="43.589615" lon="5.252923">
        <ele>235.085464</ele>
        <time>2017-06-08T12:28:57.000Z</time>
      </trkpt>
      <trkpt lat="43.589516" lon="5.252837">
        <ele>235.235459</ele>
        <time>2017-06-08T12:29:00.000Z</time>
      </trkpt>
      <trkpt lat="43.589420" lon="5.252751">
        <ele>235.382213</ele>
        <time>2017-06-08T12:29:03.000Z</time>
      </trkpt>
      <trkpt lat="43.589325" lon="5.252672">
        <ele>235.524431</ele>
        <time>2017-06-08T12:29:06.000Z</time>
      </trkpt>
      <trkpt lat="43.589230" lon="5.252591">
        <ele>235.667617</ele>
        <time>2017-06-08T12:29:10.000Z</time>
      </trkpt>
      <trkpt lat="43.589127" lon="5.252516">
        <ele>235.816947</ele>
        <time>2017-06-08T12:29:12.000Z</time>
      </trkpt>
      <trkpt lat="43.589030" lon="5.252429">
        <ele>235.965282</ele>
        <time>2017-06-08T12:29:15.000Z</time>
      </trkpt>
      <trkpt lat="43.588920" lon="5.252358">
        <ele>236.120998</ele>
        <time>2017-06-08T12:29:18.000Z</time>
      </trkpt>
      <trkpt lat="43.588814" lon="5.252279">
        <ele>236.275472</ele>
        <time>2017-06-08T12:29:21.000Z</time>
      </trkpt>
      <trkpt lat="43.588703" lon="5.252196">
        <ele>236.437353</ele>
        <time>2017-06-08T12:29:24.000Z</time>
      </trkpt>
      <trkpt lat="43.588604" lon="5.252111">
        <ele>236.586856</ele>
        <time>2017-06-08T12:29:27.000Z</time>
      </trkpt>
      <trkpt lat="43.588500" lon="5.252026">
        <ele>236.752055</ele>
        <time>2017-06-08T12:29:30.000Z</time>
      </trkpt>
      <trkpt lat="43.588400" lon="5.251931">
        <ele>237.037449</ele>
        <time>2017-06-08T12:29:33.000Z</time>
      </trkpt>
      <trkpt lat="43.588295" lon="5.251852">
        <ele>237.318594</ele>
        <time>2017-06-08T12:29:36.000Z</time>
      </trkpt>
      <trkpt lat="43.588196" lon="5.251762">
        <ele>237.597284</ele>
        <time>2017-06-08T12:29:39.000Z</time>
      </trkpt>
      <trkpt lat="43.588097" lon="5.251673">
        <ele>237.875040</ele>
        <time>2017-06-08T12:29:42.000Z</time>
      </trkpt>
      <trkpt lat="43.588005" lon="5.251585">
        <ele>238.138185</ele>
        <time>2017-06-08T12:29:45.000Z</time>
      </trkpt>
      <trkpt lat="43.587914" lon="5.251500">
        <ele>238.396503</ele>
        <time>2017-06-08T12:29:48.000Z</time>
      </trkpt>
      <trkpt lat="43.587807" lon="5.251417">
        <ele>238.685061</ele>
        <time>2017-06-08T12:29:51.000Z</time>
      </trkpt>
      <trkpt lat="43.587727" lon="5.251368">
        <ele>238.890830</ele>
        <time>2017-06-08T12:29:53.000Z</time>
      </trkpt>
      <trkpt lat="43.587610" lon="5.251284">
        <ele>239.200882</ele>
        <time>2017-06-08T12:29:56.000Z</time>
      </trkpt>
      <trkpt lat="43.587500" lon="5.251197">
        <ele>239.498937</ele>
        <time>2017-06-08T12:29:59.000Z</time>
      </trkpt>
      <trkpt lat="43.587383" lon="5.251125">
        <ele>239.800107</ele>
        <time>2017-06-08T12:30:02.000Z</time>
      </trkpt>
      <trkpt lat="43.587265" lon="5.251068">
        <ele>240.094031</ele>
        <time>2017-06-08T12:30:05.000Z</time>
      </trkpt>
      <trkpt lat="43.587160" lon="5.251044">
        <ele>240.344258</ele>
        <time>2017-06-08T12:30:08.000Z</time>
      </trkpt>
      <trkpt lat="43.587044" lon="5.251065">
        <ele>240.619323</ele>
        <time>2017-06-08T12:30:11.000Z</time>
      </trkpt>
      <trkpt lat="43.586937" lon="5.251111">
        <ele>240.882807</ele>
        <time>2017-06-08T12:30:14.000Z</time>
      </trkpt>
      <trkpt lat="43.586826" lon="5.251176">
        <ele>241.306683</ele>
        <time>2017-06-08T12:30:17.000Z</time>
      </trkpt>
      <trkpt lat="43.586730" lon="5.251268">
        <ele>241.767005</ele>
        <time>2017-06-08T12:30:20.000Z</time>
      </trkpt>
      <trkpt lat="43.586640" lon="5.251369">
        <ele>242.223864</ele>
        <time>2017-06-08T12:30:23.000Z</time>
      </trkpt>
      <trkpt lat="43.586540" lon="5.251478">
        <ele>242.725738</ele>
        <time>2017-06-08T12:30:26.000Z</time>
      </trkpt>
      <trkpt lat="43.586445" lon="5.251596">
        <ele>243.229107</ele>
        <time>2017-06-08T12:30:29.000Z</time>
      </trkpt>
      <trkpt lat="43.586360" lon="5.251713">
        <ele>243.701907</ele>
        <time>2017-06-08T12:30:32.000Z</time>
      </trkpt>
      <trkpt lat="43.586273" lon="5.251826">
        <ele>244.172425</ele>
        <time>2017-06-08T12:30:35.000Z</time>
      </trkpt>
      <trkpt lat="43.586180" lon="5.251940">
        <ele>244.662316</ele>
        <time>2017-06-08T12:30:38.000Z</time>
      </trkpt>
      <trkpt lat="43.586090" lon="5.252055">
        <ele>245.145369</ele>
        <time>2017-06-08T12:30:41.000Z</time>
      </trkpt>
      <trkpt lat="43.586006" lon="5.252177">
        <ele>245.625625</ele>
        <time>2017-06-08T12:30:44.000Z</time>
      </trkpt>
      <trkpt lat="43.585922" lon="5.252298">
        <ele>246.103819</ele>
        <time>2017-06-08T12:30:47.000Z</time>
      </trkpt>
      <trkpt lat="43.585846" lon="5.252430">
        <ele>246.584926</ele>
        <time>2017-06-08T12:30:50.000Z</time>
      </trkpt>
      <trkpt lat="43.585766" lon="5.252561">
        <ele>247.073808</ele>
        <time>2017-06-08T12:30:53.000Z</time>
      </trkpt>
      <trkpt lat="43.585690" lon="5.252704">
        <ele>247.579863</ele>
        <time>2017-06-08T12:30:56.000Z</time>
      </trkpt>
      <trkpt lat="43.585613" lon="5.252845">
        <ele>248.061239</ele>
        <time>2017-06-08T12:30:59.000Z</time>
      </trkpt>
      <trkpt lat="43.585537" lon="5.252983">
        <ele>248.280850</ele>
        <time>2017-06-08T12:31:02.000Z</time>
      </trkpt>
      <trkpt lat="43.585457" lon="5.253118">
        <ele>248.501810</ele>
        <time>2017-06-08T12:31:05.000Z</time>
      </trkpt>
      <trkpt lat="43.585392" lon="5.253205">
        <ele>248.660144</ele>
        <time>2017-06-08T12:31:07.000Z</time>
      </trkpt>
      <trkpt lat="43.585297" lon="5.253331">
        <ele>248.890541</ele>
        <time>2017-06-08T12:31:10.000Z</time>
      </trkpt>
      <trkpt lat="43.585228" lon="5.253418">
        <ele>249.053971</ele>
        <time>2017-06-08T12:31:12.000Z</time>
      </trkpt>
      <trkpt lat="43.585130" lon="5.253524">
        <ele>249.271703</ele>
        <time>2017-06-08T12:31:15.000Z</time>
      </trkpt>
      <trkpt lat="43.585026" lon="5.253627">
        <ele>249.495552</ele>
        <time>2017-06-08T12:31:18.000Z</time>
      </trkpt>
      <trkpt lat="43.584930" lon="5.253715">
        <ele>249.697088</ele>
        <time>2017-06-08T12:31:21.000Z</time>
      </trkpt>
      <trkpt lat="43.584824" lon="5.253785">
        <ele>249.902589</ele>
        <time>2017-06-08T12:31:24.000Z</time>
      </trkpt>
      <trkpt lat="43.584717" lon="5.253859">
        <ele>250.111890</ele>
        <time>2017-06-08T12:31:27.000Z</time>
      </trkpt>
      <trkpt lat="43.584614" lon="5.253947">
        <ele>250.323734</ele>
        <time>2017-06-08T12:31:30.000Z</time>
      </trkpt>
      <trkpt lat="43.584510" lon="5.254024">
        <ele>250.530126</ele>
        <time>2017-06-08T12:31:33.000Z</time>
      </trkpt>
      <trkpt lat="43.584408" lon="5.254101">
        <ele>250.733443</ele>
        <time>2017-06-08T12:31:36.000Z</time>
      </trkpt>
      <trkpt lat="43.584293" lon="5.254170">
        <ele>250.952741</ele>
        <time>2017-06-08T12:31:39.000Z</time>
      </trkpt>
      <trkpt lat="43.584198" lon="5.254248">
        <ele>251.146051</ele>
        <time>2017-06-08T12:31:42.000Z</time>
      </trkpt>
      <trkpt lat="43.584087" lon="5.254319">
        <ele>251.431360</ele>
        <time>2017-06-08T12:31:45.000Z</time>
      </trkpt>
      <trkpt lat="43.583980" lon="5.254391">
        <ele>251.726390</ele>
        <time>2017-06-08T12:31:48.000Z</time>
      </trkpt>
      <trkpt lat="43.583870" lon="5.254467">
        <ele>252.031268</ele>
        <time>2017-06-08T12:31:51.000Z</time>
      </trkpt>
      <trkpt lat="43.583767" lon="5.254551">
        <ele>252.327776</ele>
        <time>2017-06-08T12:31:54.000Z</time>
      </trkpt>
      <trkpt lat="43.583668" lon="5.254637">
        <ele>252.617689</ele>
        <time>2017-06-08T12:31:57.000Z</time>
      </trkpt>
      <trkpt lat="43.583570" lon="5.254735">
        <ele>252.917616</ele>
        <time>2017-06-08T12:32:00.000Z</time>
      </trkpt>
      <trkpt lat="43.583477" lon="5.254849">
        <ele>253.225875</ele>
        <time>2017-06-08T12:32:03.000Z</time>
      </trkpt>
      <trkpt lat="43.583412" lon="5.254964">
        <ele>253.487762</ele>
        <time>2017-06-08T12:32:06.000Z</time>
      </trkpt>
      <trkpt lat="43.583332" lon="5.255083">
        <ele>253.779246</ele>
        <time>2017-06-08T12:32:09.000Z</time>
      </trkpt>
      <trkpt lat="43.583250" lon="5.255201">
        <ele>254.072827</ele>
        <time>2017-06-08T12:32:12.000Z</time>
      </trkpt>
      <trkpt lat="43.583153" lon="5.255303">
        <ele>254.375048</ele>
        <time>2017-06-08T12:32:15.000Z</time>
      </trkpt>
      <trkpt lat="43.583057" lon="5.255408">
        <ele>254.678617</ele>
        <time>2017-06-08T12:32:18.000Z</time>
      </trkpt>
      <trkpt lat="43.582954" lon="5.255498">
        <ele>254.980747</ele>
        <time>2017-06-08T12:32:21.000Z</time>
      </trkpt>
      <trkpt lat="43.582844" lon="5.255565">
        <ele>255.278745</ele>
        <time>2017-06-08T12:32:24.000Z</time>
      </trkpt>
      <trkpt lat="43.582730" lon="5.255611">
        <ele>255.573122</ele>
        <time>2017-06-08T12:32:27.000Z</time>
      </trkpt>
      <trkpt lat="43.582623" lon="5.255644">
        <ele>255.821788</ele>
        <time>2017-06-08T12:32:30.000Z</time>
      </trkpt>
      <trkpt lat="43.582520" lon="5.255664">
        <ele>256.049528</ele>
        <time>2017-06-08T12:32:33.000Z</time>
      </trkpt>
      <trkpt lat="43.582424" lon="5.255670">
        <ele>256.259937</ele>
        <time>2017-06-08T12:32:36.000Z</time>
      </trkpt>
      <trkpt lat="43.582330" lon="5.255682">
        <ele>256.466630</ele>
        <time>2017-06-08T12:32:39.000Z</time>
      </trkpt>
      <trkpt lat="43.582230" lon="5.255688">
        <ele>256.685788</ele>
        <time>2017-06-08T12:32:42.000Z</time>
      </trkpt>
      <trkpt lat="43.582130" lon="5.255694">
        <ele>256.904946</ele>
        <time>2017-06-08T12:32:45.000Z</time>
      </trkpt>
      <trkpt lat="43.582035" lon="5.255704">
        <ele>257.113554</ele>
        <time>2017-06-08T12:32:48.000Z</time>
      </trkpt>
      <trkpt lat="43.581940" lon="5.255711">
        <ele>257.321854</ele>
        <time>2017-06-08T12:32:51.000Z</time>
      </trkpt>
      <trkpt lat="43.581850" lon="5.255709">
        <ele>257.518936</ele>
        <time>2017-06-08T12:32:54.000Z</time>
      </trkpt>
      <trkpt lat="43.581757" lon="5.255710">
        <ele>257.722567</ele>
        <time>2017-06-08T12:32:57.000Z</time>
      </trkpt>
      <trkpt lat="43.581657" lon="5.255722">
        <ele>257.942344</ele>
        <time>2017-06-08T12:33:00.000Z</time>
      </trkpt>
      <trkpt lat="43.581562" lon="5.255734">
        <ele>258.151217</ele>
        <time>2017-06-08T12:33:03.000Z</time>
      </trkpt>
      <trkpt lat="43.581440" lon="5.255747">
        <ele>258.419133</ele>
        <time>2017-06-08T12:33:07.000Z</time>
      </trkpt>
      <trkpt lat="43.581350" lon="5.255758">
        <ele>258.616960</ele>
        <time>2017-06-08T12:33:10.000Z</time>
      </trkpt>
      <trkpt lat="43.581253" lon="5.255768">
        <ele>258.829934</ele>
        <time>2017-06-08T12:33:13.000Z</time>
      </trkpt>
      <trkpt lat="43.581142" lon="5.255767">
        <ele>259.072976</ele>
        <time>2017-06-08T12:33:17.000Z</time>
      </trkpt>
      <trkpt lat="43.581047" lon="5.255756">
        <ele>259.281710</ele>
        <time>2017-06-08T12:33:20.000Z</time>
      </trkpt>
      <trkpt lat="43.580944" lon="5.255709">
        <ele>259.519231</ele>
        <time>2017-06-08T12:33:24.000Z</time>
      </trkpt>
      <trkpt lat="43.580850" lon="5.255650">
        <ele>259.968797</ele>
        <time>2017-06-08T12:33:28.000Z</time>
      </trkpt>
      <trkpt lat="43.580772" lon="5.255570">
        <ele>260.478388</ele>
        <time>2017-06-08T12:33:32.000Z</time>
      </trkpt>
      <trkpt lat="43.580710" lon="5.255469">
        <ele>260.981315</ele>
        <time>2017-06-08T12:33:36.000Z</time>
      </trkpt>
      <trkpt lat="43.580670" lon="5.255349">
        <ele>261.483132</ele>
        <time>2017-06-08T12:33:40.000Z</time>
      </trkpt>
      <trkpt lat="43.580660" lon="5.255213">
        <ele>262.002440</ele>
        <time>2017-06-08T12:33:44.000Z</time>
      </trkpt>
      <trkpt lat="43.580673" lon="5.255081">
        <ele>262.508511</ele>
        <time>2017-06-08T12:33:48.000Z</time>
      </trkpt>
      <trkpt lat="43.580704" lon="5.254944">
        <ele>263.053763</ele>
        <time>2017-06-08T12:33:52.000Z</time>
      </trkpt>
      <trkpt lat="43.580734" lon="5.254797">
        <ele>263.633943</ele>
        <time>2017-06-08T12:33:56.000Z</time>
      </trkpt>
      <trkpt lat="43.580765" lon="5.254661">
        <ele>264.175569</ele>
        <time>2017-06-08T12:34:00.000Z</time>
      </trkpt>
      <trkpt lat="43.580790" lon="5.254525">
        <ele>264.708597</ele>
        <time>2017-06-08T12:34:04.000Z</time>
      </trkpt>
      <trkpt lat="43.580820" lon="5.254392">
        <ele>265.237780</ele>
        <time>2017-06-08T12:34:08.000Z</time>
      </trkpt>
      <trkpt lat="43.580830" lon="5.254255">
        <ele>265.760867</ele>
        <time>2017-06-08T12:34:12.000Z</time>
      </trkpt>
      <trkpt lat="43.580840" lon="5.254117">
        <ele>266.287733</ele>
        <time>2017-06-08T12:34:16.000Z</time>
      </trkpt>
      <trkpt lat="43.580853" lon="5.253985">
        <ele>266.793803</ele>
        <time>2017-06-08T12:34:20.000Z</time>
      </trkpt>
      <trkpt lat="43.580850" lon="5.253851">
        <ele>267.303100</ele>
        <time>2017-06-08T12:34:24.000Z</time>
      </trkpt>
      <trkpt lat="43.580833" lon="5.253715">
        <ele>267.827387</ele>
        <time>2017-06-08T12:34:28.000Z</time>
      </trkpt>
      <trkpt lat="43.580800" lon="5.253566">
        <ele>268.419290</ele>
        <time>2017-06-08T12:34:32.000Z</time>
      </trkpt>
      <trkpt lat="43.580746" lon="5.253429">
        <ele>269.011797</ele>
        <time>2017-06-08T12:34:36.000Z</time>
      </trkpt>
      <trkpt lat="43.580700" lon="5.253308">
        <ele>269.227518</ele>
        <time>2017-06-08T12:34:40.000Z</time>
      </trkpt>
      <trkpt lat="43.580654" lon="5.253184">
        <ele>269.443955</ele>
        <time>2017-06-08T12:34:44.000Z</time>
      </trkpt>
      <trkpt lat="43.580600" lon="5.253037">
        <ele>269.700019</ele>
        <time>2017-06-08T12:34:48.000Z</time>
      </trkpt>
      <trkpt lat="43.580547" lon="5.252933">
        <ele>269.897569</ele>
        <time>2017-06-08T12:34:51.000Z</time>
      </trkpt>
      <trkpt lat="43.580486" lon="5.252791">
        <ele>270.154053</ele>
        <time>2017-06-08T12:34:55.000Z</time>
      </trkpt>
      <trkpt lat="43.580440" lon="5.252673">
        <ele>270.362236</ele>
        <time>2017-06-08T12:34:58.000Z</time>
      </trkpt>
      <trkpt lat="43.580390" lon="5.252555">
        <ele>270.574619</ele>
        <time>2017-06-08T12:35:01.000Z</time>
      </trkpt>
      <trkpt lat="43.580338" lon="5.252444">
        <ele>270.779987</ele>
        <time>2017-06-08T12:35:04.000Z</time>
      </trkpt>
      <trkpt lat="43.580288" lon="5.252328">
        <ele>270.989695</ele>
        <time>2017-06-08T12:35:07.000Z</time>
      </trkpt>
      <trkpt lat="43.580242" lon="5.252204">
        <ele>271.206132</ele>
        <time>2017-06-08T12:35:10.000Z</time>
      </trkpt>
      <trkpt lat="43.580193" lon="5.252084">
        <ele>271.420143</ele>
        <time>2017-06-08T12:35:13.000Z</time>
      </trkpt>
      <trkpt lat="43.580140" lon="5.251967">
        <ele>271.634528</ele>
        <time>2017-06-08T12:35:16.000Z</time>
      </trkpt>
      <trkpt lat="43.580082" lon="5.251854">
        <ele>271.849686</ele>
        <time>2017-06-08T12:35:19.000Z</time>
      </trkpt>
      <trkpt lat="43.580036" lon="5.251742">
        <ele>272.049711</ele>
        <time>2017-06-08T12:35:22.000Z</time>
      </trkpt>
      <trkpt lat="43.579980" lon="5.251632">
        <ele>272.258589</ele>
        <time>2017-06-08T12:35:25.000Z</time>
      </trkpt>
      <trkpt lat="43.579918" lon="5.251540">
        <ele>272.453807</ele>
        <time>2017-06-08T12:35:28.000Z</time>
      </trkpt>
      <trkpt lat="43.579857" lon="5.251444">
        <ele>272.652199</ele>
        <time>2017-06-08T12:35:31.000Z</time>
      </trkpt>
      <trkpt lat="43.579765" lon="5.251320">
        <ele>272.855480</ele>
        <time>2017-06-08T12:35:34.000Z</time>
      </trkpt>
      <trkpt lat="43.579693" lon="5.251230">
        <ele>272.778473</ele>
        <time>2017-06-08T12:35:36.000Z</time>
      </trkpt>
      <trkpt lat="43.579617" lon="5.251134">
        <ele>272.696802</ele>
        <time>2017-06-08T12:35:38.000Z</time>
      </trkpt>
      <trkpt lat="43.579530" lon="5.251034">
        <ele>272.607047</ele>
        <time>2017-06-08T12:35:40.000Z</time>
      </trkpt>
      <trkpt lat="43.579426" lon="5.250944">
        <ele>272.509733</ele>
        <time>2017-06-08T12:35:42.000Z</time>
      </trkpt>
      <trkpt lat="43.579330" lon="5.250832">
        <ele>272.410083</ele>
        <time>2017-06-08T12:35:44.000Z</time>
      </trkpt>
      <trkpt lat="43.579210" lon="5.250729">
        <ele>272.298055</ele>
        <time>2017-06-08T12:35:46.000Z</time>
      </trkpt>
      <trkpt lat="43.579094" lon="5.250642">
        <ele>272.193393</ele>
        <time>2017-06-08T12:35:48.000Z</time>
      </trkpt>
      <trkpt lat="43.578964" lon="5.250585">
        <ele>272.085254</ele>
        <time>2017-06-08T12:35:50.000Z</time>
      </trkpt>
      <trkpt lat="43.578830" lon="5.250546">
        <ele>271.976683</ele>
        <time>2017-06-08T12:35:52.000Z</time>
      </trkpt>
      <trkpt lat="43.578710" lon="5.250523">
        <ele>271.880634</ele>
        <time>2017-06-08T12:35:54.000Z</time>
      </trkpt>
      <trkpt lat="43.578594" lon="5.250521">
        <ele>271.788662</ele>
        <time>2017-06-08T12:35:56.000Z</time>
      </trkpt>
      <trkpt lat="43.578495" lon="5.250536">
        <ele>271.709703</ele>
        <time>2017-06-08T12:35:58.000Z</time>
      </trkpt>
      <trkpt lat="43.578407" lon="5.250557">
        <ele>271.638901</ele>
        <time>2017-06-08T12:36:00.000Z</time>
      </trkpt>
      <trkpt lat="43.578278" lon="5.250581">
        <ele>271.535705</ele>
        <time>2017-06-08T12:36:03.000Z</time>
      </trkpt>
      <trkpt lat="43.578140" lon="5.250607">
        <ele>271.548815</ele>
        <time>2017-06-08T12:36:06.000Z</time>
      </trkpt>
      <trkpt lat="43.578053" lon="5.250618">
        <ele>271.839226</ele>
        <time>2017-06-08T12:36:08.000Z</time>
      </trkpt>
      <trkpt lat="43.577923" lon="5.250636">
        <ele>272.273535</ele>
        <time>2017-06-08T12:36:11.000Z</time>
      </trkpt>
      <trkpt lat="43.577793" lon="5.250661">
        <ele>272.709848</ele>
        <time>2017-06-08T12:36:14.000Z</time>
      </trkpt>
      <trkpt lat="43.577670" lon="5.250681">
        <ele>273.121545</ele>
        <time>2017-06-08T12:36:17.000Z</time>
      </trkpt>
      <trkpt lat="43.577545" lon="5.250700">
        <ele>273.539576</ele>
        <time>2017-06-08T12:36:20.000Z</time>
      </trkpt>
      <trkpt lat="43.577423" lon="5.250721">
        <ele>273.948263</ele>
        <time>2017-06-08T12:36:23.000Z</time>
      </trkpt>
      <trkpt lat="43.577305" lon="5.250743">
        <ele>274.344075</ele>
        <time>2017-06-08T12:36:26.000Z</time>
      </trkpt>
      <trkpt lat="43.577194" lon="5.250764">
        <ele>274.716505</ele>
        <time>2017-06-08T12:36:29.000Z</time>
      </trkpt>
      <trkpt lat="43.577100" lon="5.250779">
        <ele>275.031056</ele>
        <time>2017-06-08T12:36:32.000Z</time>
      </trkpt>
      <trkpt lat="43.576996" lon="5.250823">
        <ele>275.392641</ele>
        <time>2017-06-08T12:36:37.000Z</time>
      </trkpt>
      <trkpt lat="43.576897" lon="5.250856">
        <ele>275.731192</ele>
        <time>2017-06-08T12:36:42.000Z</time>
      </trkpt>
      <trkpt lat="43.576893" lon="5.250981">
        <ele>276.032508</ele>
        <time>2017-06-08T12:36:49.000Z</time>
      </trkpt>
      <trkpt lat="43.576992" lon="5.250952">
        <ele>276.368927</ele>
        <time>2017-06-08T12:36:55.000Z</time>
      </trkpt>
      <trkpt lat="43.576897" lon="5.250897">
        <ele>276.711373</ele>
        <time>2017-06-08T12:49:44.000Z</time>
      </trkpt>
      <trkpt lat="43.576810" lon="5.250847">
        <ele>277.024639</ele>
        <time>2017-06-08T12:49:52.000Z</time>
      </trkpt>
      <trkpt lat="43.576710" lon="5.250865">
        <ele>277.359869</ele>
        <time>2017-06-08T12:49:59.000Z</time>
      </trkpt>
      <trkpt lat="43.576603" lon="5.250877">
        <ele>277.744418</ele>
        <time>2017-06-08T12:50:05.000Z</time>
      </trkpt>
      <trkpt lat="43.576508" lon="5.250897">
        <ele>278.094507</ele>
        <time>2017-06-08T12:50:10.000Z</time>
      </trkpt>
      <trkpt lat="43.576405" lon="5.250909">
        <ele>278.471072</ele>
        <time>2017-06-08T12:50:15.000Z</time>
      </trkpt>
      <trkpt lat="43.576298" lon="5.250939">
        <ele>278.868836</ele>
        <time>2017-06-08T12:50:20.000Z</time>
      </trkpt>
      <trkpt lat="43.576190" lon="5.250969">
        <ele>279.270170</ele>
        <time>2017-06-08T12:50:25.000Z</time>
      </trkpt>
      <trkpt lat="43.576084" lon="5.251000">
        <ele>279.664902</ele>
        <time>2017-06-08T12:50:30.000Z</time>
      </trkpt>
      <trkpt lat="43.575977" lon="5.251029">
        <ele>280.062149</ele>
        <time>2017-06-08T12:50:35.000Z</time>
      </trkpt>
      <trkpt lat="43.575867" lon="5.251048">
        <ele>280.466006</ele>
        <time>2017-06-08T12:50:40.000Z</time>
      </trkpt>
      <trkpt lat="43.575775" lon="5.251074">
        <ele>280.808117</ele>
        <time>2017-06-08T12:50:44.000Z</time>
      </trkpt>
      <trkpt lat="43.575687" lon="5.251115">
        <ele>281.146473</ele>
        <time>2017-06-08T12:50:48.000Z</time>
      </trkpt>
      <trkpt lat="43.575590" lon="5.251138">
        <ele>281.505022</ele>
        <time>2017-06-08T12:50:52.000Z</time>
      </trkpt>
      <trkpt lat="43.575493" lon="5.251154">
        <ele>281.860909</ele>
        <time>2017-06-08T12:50:56.000Z</time>
      </trkpt>
      <trkpt lat="43.575397" lon="5.251173">
        <ele>282.214216</ele>
        <time>2017-06-08T12:51:00.000Z</time>
      </trkpt>
      <trkpt lat="43.575300" lon="5.251188">
        <ele>282.569800</ele>
        <time>2017-06-08T12:51:04.000Z</time>
      </trkpt>
      <trkpt lat="43.575195" lon="5.251197">
        <ele>282.953054</ele>
        <time>2017-06-08T12:51:08.000Z</time>
      </trkpt>
      <trkpt lat="43.575090" lon="5.251214">
        <ele>283.338194</ele>
        <time>2017-06-08T12:51:12.000Z</time>
      </trkpt>
      <trkpt lat="43.574978" lon="5.251219">
        <ele>283.746426</ele>
        <time>2017-06-08T12:51:16.000Z</time>
      </trkpt>
      <trkpt lat="43.574863" lon="5.251230">
        <ele>284.094375</ele>
        <time>2017-06-08T12:51:20.000Z</time>
      </trkpt>
      <trkpt lat="43.574753" lon="5.251212">
        <ele>284.341568</ele>
        <time>2017-06-08T12:51:24.000Z</time>
      </trkpt>
      <trkpt lat="43.574642" lon="5.251197">
        <ele>284.590458</ele>
        <time>2017-06-08T12:51:28.000Z</time>
      </trkpt>
      <trkpt lat="43.574540" lon="5.251169">
        <ele>284.822537</ele>
        <time>2017-06-08T12:51:32.000Z</time>
      </trkpt>
      <trkpt lat="43.574436" lon="5.251144">
        <ele>285.058115</ele>
        <time>2017-06-08T12:51:36.000Z</time>
      </trkpt>
      <trkpt lat="43.574320" lon="5.251125">
        <ele>285.318794</ele>
        <time>2017-06-08T12:51:40.000Z</time>
      </trkpt>
      <trkpt lat="43.574220" lon="5.251093">
        <ele>285.547871</ele>
        <time>2017-06-08T12:51:44.000Z</time>
      </trkpt>
      <trkpt lat="43.574104" lon="5.251071">
        <ele>285.809167</ele>
        <time>2017-06-08T12:51:48.000Z</time>
      </trkpt>
      <trkpt lat="43.574017" lon="5.251059">
        <ele>286.004282</ele>
        <time>2017-06-08T12:51:51.000Z</time>
      </trkpt>
      <trkpt lat="43.573925" lon="5.251038">
        <ele>286.212375</ele>
        <time>2017-06-08T12:51:54.000Z</time>
      </trkpt>
      <trkpt lat="43.573833" lon="5.251023">
        <ele>286.419108</ele>
        <time>2017-06-08T12:51:57.000Z</time>
      </trkpt>
      <trkpt lat="43.573715" lon="5.251003">
        <ele>286.684413</ele>
        <time>2017-06-08T12:52:01.000Z</time>
      </trkpt>
      <trkpt lat="43.573597" lon="5.250980">
        <ele>286.950352</ele>
        <time>2017-06-08T12:52:05.000Z</time>
      </trkpt>
      <trkpt lat="43.573505" lon="5.250959">
        <ele>287.158446</ele>
        <time>2017-06-08T12:52:08.000Z</time>
      </trkpt>
      <trkpt lat="43.573410" lon="5.250941">
        <ele>287.372435</ele>
        <time>2017-06-08T12:52:11.000Z</time>
      </trkpt>
      <trkpt lat="43.573320" lon="5.250915">
        <ele>287.577629</ele>
        <time>2017-06-08T12:52:14.000Z</time>
      </trkpt>
      <trkpt lat="43.573227" lon="5.250876">
        <ele>287.794533</ele>
        <time>2017-06-08T12:52:17.000Z</time>
      </trkpt>
      <trkpt lat="43.573124" lon="5.250839">
        <ele>288.019566</ele>
        <time>2017-06-08T12:52:20.000Z</time>
      </trkpt>
      <trkpt lat="43.573030" lon="5.250787">
        <ele>288.170744</ele>
        <time>2017-06-08T12:52:23.000Z</time>
      </trkpt>
      <trkpt lat="43.572937" lon="5.250721">
        <ele>288.326853</ele>
        <time>2017-06-08T12:52:26.000Z</time>
      </trkpt>
      <trkpt lat="43.572850" lon="5.250649">
        <ele>288.478287</ele>
        <time>2017-06-08T12:52:29.000Z</time>
      </trkpt>
      <trkpt lat="43.572765" lon="5.250589">
        <ele>288.620809</ele>
        <time>2017-06-08T12:52:32.000Z</time>
      </trkpt>
      <trkpt lat="43.572680" lon="5.250531">
        <ele>288.762359</ele>
        <time>2017-06-08T12:52:35.000Z</time>
      </trkpt>
      <trkpt lat="43.572582" lon="5.250478">
        <ele>288.919487</ele>
        <time>2017-06-08T12:52:38.000Z</time>
      </trkpt>
      <trkpt lat="43.572490" lon="5.250422">
        <ele>289.069590</ele>
        <time>2017-06-08T12:52:41.000Z</time>
      </trkpt>
      <trkpt lat="43.572384" lon="5.250359">
        <ele>289.241877</ele>
        <time>2017-06-08T12:52:44.000Z</time>
      </trkpt>
      <trkpt lat="43.572280" lon="5.250294">
        <ele>289.412308</ele>
        <time>2017-06-08T12:52:47.000Z</time>
      </trkpt>
      <trkpt lat="43.572174" lon="5.250228">
        <ele>289.585904</ele>
        <time>2017-06-08T12:52:50.000Z</time>
      </trkpt>
      <trkpt lat="43.572070" lon="5.250152">
        <ele>289.761577</ele>
        <time>2017-06-08T12:52:53.000Z</time>
      </trkpt>
      <trkpt lat="43.571964" lon="5.250095">
        <ele>289.931403</ele>
        <time>2017-06-08T12:52:56.000Z</time>
      </trkpt>
      <trkpt lat="43.571857" lon="5.250023">
        <ele>290.109108</ele>
        <time>2017-06-08T12:52:59.000Z</time>
      </trkpt>
      <trkpt lat="43.571762" lon="5.249952">
        <ele>290.270383</ele>
        <time>2017-06-08T12:53:02.000Z</time>
      </trkpt>
      <trkpt lat="43.571663" lon="5.249882">
        <ele>290.436438</ele>
        <time>2017-06-08T12:53:05.000Z</time>
      </trkpt>
      <trkpt lat="43.571552" lon="5.249809">
        <ele>290.619992</ele>
        <time>2017-06-08T12:53:08.000Z</time>
      </trkpt>
      <trkpt lat="43.571438" lon="5.249742">
        <ele>290.472025</ele>
        <time>2017-06-08T12:53:11.000Z</time>
      </trkpt>
      <trkpt lat="43.571358" lon="5.249682">
        <ele>290.247445</ele>
        <time>2017-06-08T12:53:14.000Z</time>
      </trkpt>
      <trkpt lat="43.571285" lon="5.249606">
        <ele>290.021902</ele>
        <time>2017-06-08T12:53:17.000Z</time>
      </trkpt>
      <trkpt lat="43.571200" lon="5.249495">
        <ele>289.733270</ele>
        <time>2017-06-08T12:53:20.000Z</time>
      </trkpt>
      <trkpt lat="43.571133" lon="5.249411">
        <ele>289.510005</ele>
        <time>2017-06-08T12:53:22.000Z</time>
      </trkpt>
      <trkpt lat="43.571064" lon="5.249313">
        <ele>289.265793</ele>
        <time>2017-06-08T12:53:24.000Z</time>
      </trkpt>
      <trkpt lat="43.570988" lon="5.249200">
        <ele>288.990250</ele>
        <time>2017-06-08T12:53:26.000Z</time>
      </trkpt>
      <trkpt lat="43.570896" lon="5.249091">
        <ele>288.691182</ele>
        <time>2017-06-08T12:53:28.000Z</time>
      </trkpt>
      <trkpt lat="43.570805" lon="5.248980">
        <ele>288.391626</ele>
        <time>2017-06-08T12:53:30.000Z</time>
      </trkpt>
      <trkpt lat="43.570698" lon="5.248871">
        <ele>288.063596</ele>
        <time>2017-06-08T12:53:32.000Z</time>
      </trkpt>
      <trkpt lat="43.570590" lon="5.248777">
        <ele>287.748657</ele>
        <time>2017-06-08T12:53:34.000Z</time>
      </trkpt>
      <trkpt lat="43.570484" lon="5.248706">
        <ele>287.458034</ele>
        <time>2017-06-08T12:53:36.000Z</time>
      </trkpt>
      <trkpt lat="43.570374" lon="5.248649">
        <ele>287.168214</ele>
        <time>2017-06-08T12:53:38.000Z</time>
      </trkpt>
      <trkpt lat="43.570260" lon="5.248596">
        <ele>286.871496</ele>
        <time>2017-06-08T12:53:40.000Z</time>
      </trkpt>
      <trkpt lat="43.570145" lon="5.248542">
        <ele>286.571868</ele>
        <time>2017-06-08T12:53:42.000Z</time>
      </trkpt>
      <trkpt lat="43.570026" lon="5.248484">
        <ele>286.260577</ele>
        <time>2017-06-08T12:53:44.000Z</time>
      </trkpt>
      <trkpt lat="43.569912" lon="5.248428">
        <ele>286.086951</ele>
        <time>2017-06-08T12:53:46.000Z</time>
      </trkpt>
      <trkpt lat="43.569790" lon="5.248384">
        <ele>285.914222</ele>
        <time>2017-06-08T12:53:48.000Z</time>
      </trkpt>
      <trkpt lat="43.569670" lon="5.248335">
        <ele>285.742802</ele>
        <time>2017-06-08T12:53:50.000Z</time>
      </trkpt>
      <trkpt lat="43.569550" lon="5.248292">
        <ele>285.572975</ele>
        <time>2017-06-08T12:53:52.000Z</time>
      </trkpt>
      <trkpt lat="43.569435" lon="5.248251">
        <ele>285.410275</ele>
        <time>2017-06-08T12:53:54.000Z</time>
      </trkpt>
      <trkpt lat="43.569330" lon="5.248212">
        <ele>285.261328</ele>
        <time>2017-06-08T12:53:56.000Z</time>
      </trkpt>
      <trkpt lat="43.569220" lon="5.248164">
        <ele>285.103297</ele>
        <time>2017-06-08T12:53:58.000Z</time>
      </trkpt>
      <trkpt lat="43.569122" lon="5.248121">
        <ele>284.962435</ele>
        <time>2017-06-08T12:54:00.000Z</time>
      </trkpt>
      <trkpt lat="43.569030" lon="5.248082">
        <ele>284.830601</ele>
        <time>2017-06-08T12:54:02.000Z</time>
      </trkpt>
      <trkpt lat="43.568940" lon="5.248042">
        <ele>284.701084</ele>
        <time>2017-06-08T12:54:04.000Z</time>
      </trkpt>
      <trkpt lat="43.568848" lon="5.248006">
        <ele>284.570094</ele>
        <time>2017-06-08T12:54:06.000Z</time>
      </trkpt>
      <trkpt lat="43.568764" lon="5.247959">
        <ele>284.445934</ele>
        <time>2017-06-08T12:54:08.000Z</time>
      </trkpt>
      <trkpt lat="43.568634" lon="5.247900">
        <ele>284.258477</ele>
        <time>2017-06-08T12:54:11.000Z</time>
      </trkpt>
      <trkpt lat="43.568542" lon="5.247862">
        <ele>284.126932</ele>
        <time>2017-06-08T12:54:13.000Z</time>
      </trkpt>
      <trkpt lat="43.568455" lon="5.247816">
        <ele>283.999313</ele>
        <time>2017-06-08T12:54:15.000Z</time>
      </trkpt>
      <trkpt lat="43.568363" lon="5.247739">
        <ele>283.851928</ele>
        <time>2017-06-08T12:54:17.000Z</time>
      </trkpt>
      <trkpt lat="43.568268" lon="5.247655">
        <ele>283.750891</ele>
        <time>2017-06-08T12:54:19.000Z</time>
      </trkpt>
      <trkpt lat="43.568172" lon="5.247559">
        <ele>283.694875</ele>
        <time>2017-06-08T12:54:21.000Z</time>
      </trkpt>
      <trkpt lat="43.568080" lon="5.247451">
        <ele>283.637806</ele>
        <time>2017-06-08T12:54:23.000Z</time>
      </trkpt>
      <trkpt lat="43.567997" lon="5.247354">
        <ele>283.586416</ele>
        <time>2017-06-08T12:54:25.000Z</time>
      </trkpt>
      <trkpt lat="43.567910" lon="5.247261">
        <ele>283.534419</ele>
        <time>2017-06-08T12:54:27.000Z</time>
      </trkpt>
      <trkpt lat="43.567818" lon="5.247168">
        <ele>283.480535</ele>
        <time>2017-06-08T12:54:29.000Z</time>
      </trkpt>
      <trkpt lat="43.567722" lon="5.247086">
        <ele>283.427189</ele>
        <time>2017-06-08T12:54:31.000Z</time>
      </trkpt>
      <trkpt lat="43.567623" lon="5.247004">
        <ele>283.372633</ele>
        <time>2017-06-08T12:54:33.000Z</time>
      </trkpt>
      <trkpt lat="43.567528" lon="5.246920">
        <ele>283.319322</ele>
        <time>2017-06-08T12:54:35.000Z</time>
      </trkpt>
      <trkpt lat="43.567436" lon="5.246835">
        <ele>283.267010</ele>
        <time>2017-06-08T12:54:37.000Z</time>
      </trkpt>
      <trkpt lat="43.567356" lon="5.246755">
        <ele>283.220329</ele>
        <time>2017-06-08T12:54:39.000Z</time>
      </trkpt>
      <trkpt lat="43.567276" lon="5.246676">
        <ele>283.173849</ele>
        <time>2017-06-08T12:54:41.000Z</time>
      </trkpt>
      <trkpt lat="43.567190" lon="5.246593">
        <ele>283.124263</ele>
        <time>2017-06-08T12:54:43.000Z</time>
      </trkpt>
      <trkpt lat="43.567097" lon="5.246502">
        <ele>283.070395</ele>
        <time>2017-06-08T12:54:45.000Z</time>
      </trkpt>
      <trkpt lat="43.567005" lon="5.246407">
        <ele>283.016104</ele>
        <time>2017-06-08T12:54:47.000Z</time>
      </trkpt>
      <trkpt lat="43.566910" lon="5.246305">
        <ele>282.959231</ele>
        <time>2017-06-08T12:54:49.000Z</time>
      </trkpt>
      <trkpt lat="43.566820" lon="5.246201">
        <ele>282.668482</ele>
        <time>2017-06-08T12:54:51.000Z</time>
      </trkpt>
      <trkpt lat="43.566727" lon="5.246100">
        <ele>282.095069</ele>
        <time>2017-06-08T12:54:53.000Z</time>
      </trkpt>
      <trkpt lat="43.566650" lon="5.246019">
        <ele>281.625947</ele>
        <time>2017-06-08T12:54:55.000Z</time>
      </trkpt>
      <trkpt lat="43.566566" lon="5.245966">
        <ele>281.178412</ele>
        <time>2017-06-08T12:54:57.000Z</time>
      </trkpt>
      <trkpt lat="43.566444" lon="5.245968">
        <ele>280.587227</ele>
        <time>2017-06-08T12:55:00.000Z</time>
      </trkpt>
      <trkpt lat="43.566340" lon="5.246040">
        <ele>280.023453</ele>
        <time>2017-06-08T12:55:03.000Z</time>
      </trkpt>
      <trkpt lat="43.566257" lon="5.246104">
        <ele>279.562768</ele>
        <time>2017-06-08T12:55:05.000Z</time>
      </trkpt>
      <trkpt lat="43.566170" lon="5.246171">
        <ele>279.080026</ele>
        <time>2017-06-08T12:55:07.000Z</time>
      </trkpt>
      <trkpt lat="43.566060" lon="5.246211">
        <ele>278.528836</ele>
        <time>2017-06-08T12:55:09.000Z</time>
      </trkpt>
      <trkpt lat="43.565940" lon="5.246224">
        <ele>277.945595</ele>
        <time>2017-06-08T12:55:11.000Z</time>
      </trkpt>
      <trkpt lat="43.565830" lon="5.246220">
        <ele>277.412412</ele>
        <time>2017-06-08T12:55:13.000Z</time>
      </trkpt>
      <trkpt lat="43.565720" lon="5.246211">
        <ele>276.878478</ele>
        <time>2017-06-08T12:55:15.000Z</time>
      </trkpt>
      <trkpt lat="43.565605" lon="5.246200">
        <ele>276.319916</ele>
        <time>2017-06-08T12:55:17.000Z</time>
      </trkpt>
      <trkpt lat="43.565490" lon="5.246185">
        <ele>275.760207</ele>
        <time>2017-06-08T12:55:19.000Z</time>
      </trkpt>
      <trkpt lat="43.565376" lon="5.246164">
        <ele>275.202928</ele>
        <time>2017-06-08T12:55:21.000Z</time>
      </trkpt>
      <trkpt lat="43.565270" lon="5.246149">
        <ele>274.686618</ele>
        <time>2017-06-08T12:55:23.000Z</time>
      </trkpt>
      <trkpt lat="43.565163" lon="5.246136">
        <ele>274.144050</ele>
        <time>2017-06-08T12:55:25.000Z</time>
      </trkpt>
      <trkpt lat="43.565052" lon="5.246125">
        <ele>273.355618</ele>
        <time>2017-06-08T12:55:27.000Z</time>
      </trkpt>
      <trkpt lat="43.564945" lon="5.246115">
        <ele>272.595814</ele>
        <time>2017-06-08T12:55:29.000Z</time>
      </trkpt>
      <trkpt lat="43.564842" lon="5.246128">
        <ele>271.863040</ele>
        <time>2017-06-08T12:55:31.000Z</time>
      </trkpt>
      <trkpt lat="43.564730" lon="5.246201">
        <ele>270.985505</ele>
        <time>2017-06-08T12:55:34.000Z</time>
      </trkpt>
      <trkpt lat="43.564613" lon="5.246298">
        <ele>270.018519</ele>
        <time>2017-06-08T12:55:37.000Z</time>
      </trkpt>
      <trkpt lat="43.564530" lon="5.246362">
        <ele>269.344925</ele>
        <time>2017-06-08T12:55:39.000Z</time>
      </trkpt>
      <trkpt lat="43.564404" lon="5.246394">
        <ele>268.437257</ele>
        <time>2017-06-08T12:55:42.000Z</time>
      </trkpt>
      <trkpt lat="43.564293" lon="5.246336">
        <ele>267.596371</ele>
        <time>2017-06-08T12:55:45.000Z</time>
      </trkpt>
      <trkpt lat="43.564190" lon="5.246234">
        <ele>266.698210</ele>
        <time>2017-06-08T12:55:48.000Z</time>
      </trkpt>
      <trkpt lat="43.564114" lon="5.246156">
        <ele>266.027198</ele>
        <time>2017-06-08T12:55:50.000Z</time>
      </trkpt>
      <trkpt lat="43.564034" lon="5.246093">
        <ele>265.374635</ele>
        <time>2017-06-08T12:55:52.000Z</time>
      </trkpt>
      <trkpt lat="43.563950" lon="5.246037">
        <ele>264.713716</ele>
        <time>2017-06-08T12:55:54.000Z</time>
      </trkpt>
      <trkpt lat="43.563860" lon="5.245991">
        <ele>264.033764</ele>
        <time>2017-06-08T12:55:56.000Z</time>
      </trkpt>
      <trkpt lat="43.563774" lon="5.245957">
        <ele>263.399968</ele>
        <time>2017-06-08T12:55:58.000Z</time>
      </trkpt>
      <trkpt lat="43.563670" lon="5.245926">
        <ele>262.646164</ele>
        <time>2017-06-08T12:56:01.000Z</time>
      </trkpt>
      <trkpt lat="43.563590" lon="5.245867">
        <ele>262.003529</ele>
        <time>2017-06-08T12:56:06.000Z</time>
      </trkpt>
      <trkpt lat="43.563460" lon="5.245987">
        <ele>261.122474</ele>
        <time>2017-06-08T12:57:49.000Z</time>
      </trkpt>
      <trkpt lat="43.563377" lon="5.246048">
        <ele>260.719003</ele>
        <time>2017-06-08T12:58:04.000Z</time>
      </trkpt>
      <trkpt lat="43.563377" lon="5.246175">
        <ele>260.324158</ele>
        <time>2017-06-08T12:58:16.000Z</time>
      </trkpt>
      <trkpt lat="43.563420" lon="5.246055">
        <ele>259.907950</ele>
        <time>2017-06-08T13:03:27.000Z</time>
      </trkpt>
      <trkpt lat="43.563488" lon="5.245970">
        <ele>259.514299</ele>
        <time>2017-06-08T13:03:49.000Z</time>
      </trkpt>
      <trkpt lat="43.563576" lon="5.245848">
        <ele>258.979108</ele>
        <time>2017-06-08T13:05:17.000Z</time>
      </trkpt>
      <trkpt lat="43.563553" lon="5.245673">
        <ele>258.426154</ele>
        <time>2017-06-08T13:05:32.000Z</time>
      </trkpt>
      <trkpt lat="43.563500" lon="5.245539">
        <ele>257.951524</ele>
        <time>2017-06-08T13:05:35.000Z</time>
      </trkpt>
      <trkpt lat="43.563460" lon="5.245424">
        <ele>257.554929</ele>
        <time>2017-06-08T13:05:37.000Z</time>
      </trkpt>
      <trkpt lat="43.563420" lon="5.245312">
        <ele>257.166721</ele>
        <time>2017-06-08T13:05:39.000Z</time>
      </trkpt>
      <trkpt lat="43.563350" lon="5.245171">
        <ele>256.635332</ele>
        <time>2017-06-08T13:05:42.000Z</time>
      </trkpt>
      <trkpt lat="43.563300" lon="5.245047">
        <ele>256.194142</ele>
        <time>2017-06-08T13:05:46.000Z</time>
      </trkpt>
      <trkpt lat="43.563267" lon="5.244917">
        <ele>255.765886</ele>
        <time>2017-06-08T13:05:50.000Z</time>
      </trkpt>
      <trkpt lat="43.563230" lon="5.244769">
        <ele>255.279134</ele>
        <time>2017-06-08T13:05:53.000Z</time>
      </trkpt>
      <trkpt lat="43.563213" lon="5.244597">
        <ele>254.739429</ele>
        <time>2017-06-08T13:05:56.000Z</time>
      </trkpt>
      <trkpt lat="43.563263" lon="5.244466">
        <ele>254.279101</ele>
        <time>2017-06-08T13:05:59.000Z</time>
      </trkpt>
      <trkpt lat="43.563340" lon="5.244343">
        <ele>253.773743</ele>
        <time>2017-06-08T13:06:02.000Z</time>
      </trkpt>
      <trkpt lat="43.563408" lon="5.244182">
        <ele>253.079050</ele>
        <time>2017-06-08T13:06:05.000Z</time>
      </trkpt>
      <trkpt lat="43.563440" lon="5.244063">
        <ele>252.603075</ele>
        <time>2017-06-08T13:06:07.000Z</time>
      </trkpt>
      <trkpt lat="43.563480" lon="5.243949">
        <ele>252.128106</ele>
        <time>2017-06-08T13:06:09.000Z</time>
      </trkpt>
      <trkpt lat="43.563534" lon="5.243840">
        <ele>251.632969</ele>
        <time>2017-06-08T13:06:11.000Z</time>
      </trkpt>
      <trkpt lat="43.563595" lon="5.243733">
        <ele>251.122435</ele>
        <time>2017-06-08T13:06:13.000Z</time>
      </trkpt>
      <trkpt lat="43.563667" lon="5.243633">
        <ele>250.593805</ele>
        <time>2017-06-08T13:06:15.000Z</time>
      </trkpt>
      <trkpt lat="43.563755" lon="5.243545">
        <ele>250.031412</ele>
        <time>2017-06-08T13:06:17.000Z</time>
      </trkpt>
      <trkpt lat="43.563847" lon="5.243464">
        <ele>249.466670</ele>
        <time>2017-06-08T13:06:19.000Z</time>
      </trkpt>
      <trkpt lat="43.563940" lon="5.243399">
        <ele>248.927189</ele>
        <time>2017-06-08T13:06:21.000Z</time>
      </trkpt>
      <trkpt lat="43.564026" lon="5.243345">
        <ele>248.438235</ele>
        <time>2017-06-08T13:06:23.000Z</time>
      </trkpt>
      <trkpt lat="43.564114" lon="5.243304">
        <ele>247.957579</ele>
        <time>2017-06-08T13:06:25.000Z</time>
      </trkpt>
      <trkpt lat="43.564210" lon="5.243268">
        <ele>247.442761</ele>
        <time>2017-06-08T13:06:27.000Z</time>
      </trkpt>
      <trkpt lat="43.564300" lon="5.243241">
        <ele>246.966129</ele>
        <time>2017-06-08T13:06:29.000Z</time>
      </trkpt>
      <trkpt lat="43.564392" lon="5.243255">
        <ele>246.487139</ele>
        <time>2017-06-08T13:06:31.000Z</time>
      </trkpt>
      <trkpt lat="43.564484" lon="5.243311">
        <ele>245.966782</ele>
        <time>2017-06-08T13:06:33.000Z</time>
      </trkpt>
      <trkpt lat="43.564575" lon="5.243384">
        <ele>245.422075</ele>
        <time>2017-06-08T13:06:35.000Z</time>
      </trkpt>
      <trkpt lat="43.564670" lon="5.243447">
        <ele>244.876631</ele>
        <time>2017-06-08T13:06:37.000Z</time>
      </trkpt>
      <trkpt lat="43.564762" lon="5.243429">
        <ele>244.362912</ele>
        <time>2017-06-08T13:06:39.000Z</time>
      </trkpt>
      <trkpt lat="43.564823" lon="5.243306">
        <ele>243.436451</ele>
        <time>2017-06-08T13:06:41.000Z</time>
      </trkpt>
      <trkpt lat="43.564823" lon="5.243169">
        <ele>242.584895</ele>
        <time>2017-06-08T13:06:43.000Z</time>
      </trkpt>
      <trkpt lat="43.564785" lon="5.243048">
        <ele>241.765188</ele>
        <time>2017-06-08T13:06:45.000Z</time>
      </trkpt>
      <trkpt lat="43.564713" lon="5.242929">
        <ele>240.801556</ele>
        <time>2017-06-08T13:06:48.000Z</time>
      </trkpt>
      <trkpt lat="43.564630" lon="5.242850">
        <ele>239.936653</ele>
        <time>2017-06-08T13:06:52.000Z</time>
      </trkpt>
      <trkpt lat="43.564530" lon="5.242874">
        <ele>239.065956</ele>
        <time>2017-06-08T13:06:56.000Z</time>
      </trkpt>
      <trkpt lat="43.564415" lon="5.242965">
        <ele>237.928803</ele>
        <time>2017-06-08T13:06:59.000Z</time>
      </trkpt>
      <trkpt lat="43.564327" lon="5.243004">
        <ele>237.135951</ele>
        <time>2017-06-08T13:07:01.000Z</time>
      </trkpt>
      <trkpt lat="43.564230" lon="5.242984">
        <ele>236.294628</ele>
        <time>2017-06-08T13:07:03.000Z</time>
      </trkpt>
      <trkpt lat="43.564130" lon="5.242963">
        <ele>235.426931</ele>
        <time>2017-06-08T13:07:05.000Z</time>
      </trkpt>
      <trkpt lat="43.564040" lon="5.242929">
        <ele>234.626488</ele>
        <time>2017-06-08T13:07:07.000Z</time>
      </trkpt>
      <trkpt lat="43.563908" lon="5.242919">
        <ele>233.492457</ele>
        <time>2017-06-08T13:07:10.000Z</time>
      </trkpt>
      <trkpt lat="43.563816" lon="5.242944">
        <ele>232.688107</ele>
        <time>2017-06-08T13:07:12.000Z</time>
      </trkpt>
      <trkpt lat="43.563720" lon="5.242977">
        <ele>231.839436</ele>
        <time>2017-06-08T13:07:14.000Z</time>
      </trkpt>
      <trkpt lat="43.563630" lon="5.243003">
        <ele>231.050662</ele>
        <time>2017-06-08T13:07:16.000Z</time>
      </trkpt>
      <trkpt lat="43.563534" lon="5.243050">
        <ele>230.176868</ele>
        <time>2017-06-08T13:07:18.000Z</time>
      </trkpt>
      <trkpt lat="43.563435" lon="5.243109">
        <ele>229.251821</ele>
        <time>2017-06-08T13:07:20.000Z</time>
      </trkpt>
      <trkpt lat="43.563330" lon="5.243202">
        <ele>228.246238</ele>
        <time>2017-06-08T13:07:22.000Z</time>
      </trkpt>
      <trkpt lat="43.563244" lon="5.243298">
        <ele>227.370881</ele>
        <time>2017-06-08T13:07:24.000Z</time>
      </trkpt>
      <trkpt lat="43.563152" lon="5.243387">
        <ele>226.481750</ele>
        <time>2017-06-08T13:07:26.000Z</time>
      </trkpt>
      <trkpt lat="43.563070" lon="5.243474">
        <ele>225.663211</ele>
        <time>2017-06-08T13:07:28.000Z</time>
      </trkpt>
      <trkpt lat="43.562992" lon="5.243555">
        <ele>224.890696</ele>
        <time>2017-06-08T13:07:30.000Z</time>
      </trkpt>
      <trkpt lat="43.562897" lon="5.243665">
        <ele>223.909314</ele>
        <time>2017-06-08T13:07:33.000Z</time>
      </trkpt>
      <trkpt lat="43.562786" lon="5.243704">
        <ele>223.002863</ele>
        <time>2017-06-08T13:07:37.000Z</time>
      </trkpt>
      <trkpt lat="43.562695" lon="5.243650">
        <ele>222.218955</ele>
        <time>2017-06-08T13:07:42.000Z</time>
      </trkpt>
      <trkpt lat="43.562590" lon="5.243599">
        <ele>221.338045</ele>
        <time>2017-06-08T13:07:46.000Z</time>
      </trkpt>
      <trkpt lat="43.562492" lon="5.243601">
        <ele>220.562411</ele>
        <time>2017-06-08T13:07:49.000Z</time>
      </trkpt>
      <trkpt lat="43.562366" lon="5.243638">
        <ele>219.542951</ele>
        <time>2017-06-08T13:07:52.000Z</time>
      </trkpt>
      <trkpt lat="43.562256" lon="5.243669">
        <ele>218.654471</ele>
        <time>2017-06-08T13:07:55.000Z</time>
      </trkpt>
      <trkpt lat="43.562153" lon="5.243739">
        <ele>217.745871</ele>
        <time>2017-06-08T13:07:58.000Z</time>
      </trkpt>
      <trkpt lat="43.562050" lon="5.243816">
        <ele>216.818837</ele>
        <time>2017-06-08T13:08:01.000Z</time>
      </trkpt>
      <trkpt lat="43.561954" lon="5.243915">
        <ele>215.870426</ele>
        <time>2017-06-08T13:08:04.000Z</time>
      </trkpt>
      <trkpt lat="43.561890" lon="5.244016">
        <ele>215.101020</ele>
        <time>2017-06-08T13:08:07.000Z</time>
      </trkpt>
      <trkpt lat="43.561832" lon="5.244134">
        <ele>214.383870</ele>
        <time>2017-06-08T13:08:10.000Z</time>
      </trkpt>
      <trkpt lat="43.561800" lon="5.244267">
        <ele>213.742055</ele>
        <time>2017-06-08T13:08:13.000Z</time>
      </trkpt>
      <trkpt lat="43.561780" lon="5.244415">
        <ele>213.052554</ele>
        <time>2017-06-08T13:08:16.000Z</time>
      </trkpt>
      <trkpt lat="43.561756" lon="5.244575">
        <ele>212.304246</ele>
        <time>2017-06-08T13:08:19.000Z</time>
      </trkpt>
      <trkpt lat="43.561690" lon="5.244737">
        <ele>211.453091</ele>
        <time>2017-06-08T13:08:22.000Z</time>
      </trkpt>
      <trkpt lat="43.561623" lon="5.244886">
        <ele>210.649986</ele>
        <time>2017-06-08T13:08:25.000Z</time>
      </trkpt>
      <trkpt lat="43.561584" lon="5.245051">
        <ele>209.855127</ele>
        <time>2017-06-08T13:08:28.000Z</time>
      </trkpt>
      <trkpt lat="43.561615" lon="5.245220">
        <ele>209.056721</ele>
        <time>2017-06-08T13:08:31.000Z</time>
      </trkpt>
      <trkpt lat="43.561672" lon="5.245314">
        <ele>208.495368</ele>
        <time>2017-06-08T13:08:33.000Z</time>
      </trkpt>
      <trkpt lat="43.561756" lon="5.245389">
        <ele>207.863042</ele>
        <time>2017-06-08T13:08:35.000Z</time>
      </trkpt>
      <trkpt lat="43.561850" lon="5.245456">
        <ele>207.194378</ele>
        <time>2017-06-08T13:08:37.000Z</time>
      </trkpt>
      <trkpt lat="43.561928" lon="5.245568">
        <ele>206.482948</ele>
        <time>2017-06-08T13:08:39.000Z</time>
      </trkpt>
      <trkpt lat="43.561930" lon="5.245716">
        <ele>205.805017</ele>
        <time>2017-06-08T13:08:41.000Z</time>
      </trkpt>
      <trkpt lat="43.561848" lon="5.245838">
        <ele>205.042928</ele>
        <time>2017-06-08T13:08:43.000Z</time>
      </trkpt>
      <trkpt lat="43.561745" lon="5.245915">
        <ele>204.302564</ele>
        <time>2017-06-08T13:08:45.000Z</time>
      </trkpt>
      <trkpt lat="43.561657" lon="5.245998">
        <ele>203.628895</ele>
        <time>2017-06-08T13:08:47.000Z</time>
      </trkpt>
      <trkpt lat="43.561580" lon="5.246081">
        <ele>203.031035</ele>
        <time>2017-06-08T13:08:49.000Z</time>
      </trkpt>
      <trkpt lat="43.561512" lon="5.246178">
        <ele>202.443056</ele>
        <time>2017-06-08T13:08:51.000Z</time>
      </trkpt>
      <trkpt lat="43.561455" lon="5.246300">
        <ele>201.810652</ele>
        <time>2017-06-08T13:08:53.000Z</time>
      </trkpt>
      <trkpt lat="43.561436" lon="5.246432">
        <ele>201.224345</ele>
        <time>2017-06-08T13:08:55.000Z</time>
      </trkpt>
      <trkpt lat="43.561462" lon="5.246558">
        <ele>200.653590</ele>
        <time>2017-06-08T13:08:58.000Z</time>
      </trkpt>
      <trkpt lat="43.561500" lon="5.246710">
        <ele>199.953085</ele>
        <time>2017-06-08T13:09:02.000Z</time>
      </trkpt>
      <trkpt lat="43.561460" lon="5.246830">
        <ele>199.377633</ele>
        <time>2017-06-08T13:09:04.000Z</time>
      </trkpt>
      <trkpt lat="43.561367" lon="5.246927">
        <ele>198.676772</ele>
        <time>2017-06-08T13:09:06.000Z</time>
      </trkpt>
      <trkpt lat="43.561270" lon="5.247006">
        <ele>197.999609</ele>
        <time>2017-06-08T13:09:08.000Z</time>
      </trkpt>
      <trkpt lat="43.561200" lon="5.247158">
        <ele>197.214988</ele>
        <time>2017-06-08T13:09:11.000Z</time>
      </trkpt>
      <trkpt lat="43.561188" lon="5.247305">
        <ele>196.570514</ele>
        <time>2017-06-08T13:09:13.000Z</time>
      </trkpt>
      <trkpt lat="43.561184" lon="5.247466">
        <ele>195.868685</ele>
        <time>2017-06-08T13:09:15.000Z</time>
      </trkpt>
      <trkpt lat="43.561180" lon="5.247613">
        <ele>195.227811</ele>
        <time>2017-06-08T13:09:17.000Z</time>
      </trkpt>
      <trkpt lat="43.561165" lon="5.247750">
        <ele>194.624179</ele>
        <time>2017-06-08T13:09:19.000Z</time>
      </trkpt>
      <trkpt lat="43.561153" lon="5.247899">
        <ele>193.971045</ele>
        <time>2017-06-08T13:09:21.000Z</time>
      </trkpt>
      <trkpt lat="43.561188" lon="5.248045">
        <ele>193.301075</ele>
        <time>2017-06-08T13:09:23.000Z</time>
      </trkpt>
      <trkpt lat="43.561287" lon="5.248149">
        <ele>192.544740</ele>
        <time>2017-06-08T13:09:25.000Z</time>
      </trkpt>
      <trkpt lat="43.561398" lon="5.248201">
        <ele>191.718059</ele>
        <time>2017-06-08T13:09:27.000Z</time>
      </trkpt>
      <trkpt lat="43.561493" lon="5.248294">
        <ele>190.896638</ele>
        <time>2017-06-08T13:09:29.000Z</time>
      </trkpt>
      <trkpt lat="43.561480" lon="5.248461">
        <ele>190.038300</ele>
        <time>2017-06-08T13:09:32.000Z</time>
      </trkpt>
      <trkpt lat="43.561390" lon="5.248528">
        <ele>189.317130</ele>
        <time>2017-06-08T13:09:34.000Z</time>
      </trkpt>
      <trkpt lat="43.561280" lon="5.248582">
        <ele>188.493755</ele>
        <time>2017-06-08T13:09:36.000Z</time>
      </trkpt>
      <trkpt lat="43.561165" lon="5.248631">
        <ele>187.644962</ele>
        <time>2017-06-08T13:09:38.000Z</time>
      </trkpt>
      <trkpt lat="43.561050" lon="5.248711">
        <ele>186.736729</ele>
        <time>2017-06-08T13:09:40.000Z</time>
      </trkpt>
      <trkpt lat="43.560950" lon="5.248830">
        <ele>185.805505</ele>
        <time>2017-06-08T13:09:42.000Z</time>
      </trkpt>
      <trkpt lat="43.560898" lon="5.248992">
        <ele>184.900035</ele>
        <time>2017-06-08T13:09:44.000Z</time>
      </trkpt>
      <trkpt lat="43.560867" lon="5.249173">
        <ele>183.949569</ele>
        <time>2017-06-08T13:09:46.000Z</time>
      </trkpt>
      <trkpt lat="43.560818" lon="5.249337">
        <ele>183.043018</ele>
        <time>2017-06-08T13:09:48.000Z</time>
      </trkpt>
      <trkpt lat="43.560745" lon="5.249469">
        <ele>182.194438</ele>
        <time>2017-06-08T13:09:50.000Z</time>
      </trkpt>
      <trkpt lat="43.560670" lon="5.249595">
        <ele>181.361142</ele>
        <time>2017-06-08T13:09:52.000Z</time>
      </trkpt>
      <trkpt lat="43.560608" lon="5.249724">
        <ele>180.570078</ele>
        <time>2017-06-08T13:09:54.000Z</time>
      </trkpt>
      <trkpt lat="43.560516" lon="5.249843">
        <ele>179.648618</ele>
        <time>2017-06-08T13:09:56.000Z</time>
      </trkpt>
      <trkpt lat="43.560394" lon="5.249903">
        <ele>178.610437</ele>
        <time>2017-06-08T13:09:58.000Z</time>
      </trkpt>
      <trkpt lat="43.560260" lon="5.249919">
        <ele>177.532300</ele>
        <time>2017-06-08T13:10:00.000Z</time>
      </trkpt>
      <trkpt lat="43.560135" lon="5.249919">
        <ele>176.530319</ele>
        <time>2017-06-08T13:10:02.000Z</time>
      </trkpt>
      <trkpt lat="43.560020" lon="5.249919">
        <ele>175.608497</ele>
        <time>2017-06-08T13:10:04.000Z</time>
      </trkpt>
      <trkpt lat="43.559910" lon="5.249918">
        <ele>174.726735</ele>
        <time>2017-06-08T13:10:06.000Z</time>
      </trkpt>
      <trkpt lat="43.559807" lon="5.249918">
        <ele>173.901103</ele>
        <time>2017-06-08T13:10:08.000Z</time>
      </trkpt>
      <trkpt lat="43.559708" lon="5.249906">
        <ele>173.104479</ele>
        <time>2017-06-08T13:10:10.000Z</time>
      </trkpt>
      <trkpt lat="43.559610" lon="5.249902">
        <ele>172.318582</ele>
        <time>2017-06-08T13:10:12.000Z</time>
      </trkpt>
      <trkpt lat="43.559505" lon="5.249898">
        <ele>171.476598</ele>
        <time>2017-06-08T13:10:14.000Z</time>
      </trkpt>
      <trkpt lat="43.559410" lon="5.249906">
        <ele>170.713676</ele>
        <time>2017-06-08T13:10:16.000Z</time>
      </trkpt>
      <trkpt lat="43.559284" lon="5.249920">
        <ele>169.700411</ele>
        <time>2017-06-08T13:10:19.000Z</time>
      </trkpt>
      <trkpt lat="43.559174" lon="5.249917">
        <ele>168.818495</ele>
        <time>2017-06-08T13:10:21.000Z</time>
      </trkpt>
      <trkpt lat="43.559055" lon="5.249917">
        <ele>167.864610</ele>
        <time>2017-06-08T13:10:23.000Z</time>
      </trkpt>
      <trkpt lat="43.558930" lon="5.249915">
        <ele>166.862562</ele>
        <time>2017-06-08T13:10:25.000Z</time>
      </trkpt>
      <trkpt lat="43.558807" lon="5.249918">
        <ele>165.876459</ele>
        <time>2017-06-08T13:10:27.000Z</time>
      </trkpt>
      <trkpt lat="43.558700" lon="5.249919">
        <ele>165.214545</ele>
        <time>2017-06-08T13:10:29.000Z</time>
      </trkpt>
      <trkpt lat="43.558605" lon="5.249912">
        <ele>164.762989</ele>
        <time>2017-06-08T13:10:31.000Z</time>
      </trkpt>
      <trkpt lat="43.558495" lon="5.249918">
        <ele>164.240471</ele>
        <time>2017-06-08T13:10:34.000Z</time>
      </trkpt>
      <trkpt lat="43.558395" lon="5.249929">
        <ele>163.764319</ele>
        <time>2017-06-08T13:10:37.000Z</time>
      </trkpt>
      <trkpt lat="43.558304" lon="5.249943">
        <ele>163.329715</ele>
        <time>2017-06-08T13:10:41.000Z</time>
      </trkpt>
      <trkpt lat="43.558273" lon="5.250149">
        <ele>162.606034</ele>
        <time>2017-06-08T13:11:17.000Z</time>
      </trkpt>
      <trkpt lat="43.558300" lon="5.250275">
        <ele>162.154089</ele>
        <time>2017-06-08T13:11:21.000Z</time>
      </trkpt>
      <trkpt lat="43.558315" lon="5.250418">
        <ele>161.657096</ele>
        <time>2017-06-08T13:11:25.000Z</time>
      </trkpt>
      <trkpt lat="43.558315" lon="5.250572">
        <ele>161.127392</ele>
        <time>2017-06-08T13:11:29.000Z</time>
      </trkpt>
      <trkpt lat="43.558340" lon="5.250701">
        <ele>160.668086</ele>
        <time>2017-06-08T13:11:32.000Z</time>
      </trkpt>
      <trkpt lat="43.558370" lon="5.250830">
        <ele>160.202086</ele>
        <time>2017-06-08T13:11:35.000Z</time>
      </trkpt>
      <trkpt lat="43.558388" lon="5.250954">
        <ele>159.767099</ele>
        <time>2017-06-08T13:11:38.000Z</time>
      </trkpt>
      <trkpt lat="43.558403" lon="5.251112">
        <ele>159.218994</ele>
        <time>2017-06-08T13:11:42.000Z</time>
      </trkpt>
      <trkpt lat="43.558426" lon="5.251239">
        <ele>158.768726</ele>
        <time>2017-06-08T13:11:46.000Z</time>
      </trkpt>
      <trkpt lat="43.558372" lon="5.251340">
        <ele>158.337006</ele>
        <time>2017-06-08T13:11:53.000Z</time>
      </trkpt>
      <trkpt lat="43.558460" lon="5.251279">
        <ele>157.869580</ele>
        <time>2017-06-08T13:13:52.000Z</time>
      </trkpt>
      <trkpt lat="43.558384" lon="5.251061">
        <ele>157.037483</ele>
        <time>2017-06-08T13:14:53.000Z</time>
      </trkpt>
      <trkpt lat="43.558372" lon="5.250930">
        <ele>156.929708</ele>
        <time>2017-06-08T13:14:57.000Z</time>
      </trkpt>
      <trkpt lat="43.558350" lon="5.250782">
        <ele>156.885873</ele>
        <time>2017-06-08T13:15:02.000Z</time>
      </trkpt>
      <trkpt lat="43.558296" lon="5.250666">
        <ele>156.845871</ele>
        <time>2017-06-08T13:15:07.000Z</time>
      </trkpt>
      <trkpt lat="43.558270" lon="5.250538">
        <ele>156.807302</ele>
        <time>2017-06-08T13:15:13.000Z</time>
      </trkpt>
      <trkpt lat="43.558193" lon="5.250464">
        <ele>156.769734</ele>
        <time>2017-06-08T13:15:20.000Z</time>
      </trkpt>
      <trkpt lat="43.558100" lon="5.250457">
        <ele>156.732444</ele>
        <time>2017-06-08T13:16:23.000Z</time>
      </trkpt>
      <trkpt lat="43.558193" lon="5.250471">
        <ele>156.694989</ele>
        <time>2017-06-08T13:43:45.000Z</time>
      </trkpt>
      <trkpt lat="43.558330" lon="5.250575">
        <ele>156.632386</ele>
        <time>2017-06-08T13:46:59.000Z</time>
      </trkpt>
      <trkpt lat="43.558346" lon="5.250707">
        <ele>156.593555</ele>
        <time>2017-06-08T13:47:04.000Z</time>
      </trkpt>
      <trkpt lat="43.558372" lon="5.250850">
        <ele>156.550780</ele>
        <time>2017-06-08T13:47:08.000Z</time>
      </trkpt>
      <trkpt lat="43.558388" lon="5.251008">
        <ele>156.504492</ele>
        <time>2017-06-08T13:47:12.000Z</time>
      </trkpt>
      <trkpt lat="43.558422" lon="5.251152">
        <ele>156.460551</ele>
        <time>2017-06-08T13:47:16.000Z</time>
      </trkpt>
      <trkpt lat="43.558422" lon="5.251291">
        <ele>156.420222</ele>
        <time>2017-06-08T13:47:20.000Z</time>
      </trkpt>
      <trkpt lat="43.558340" lon="5.251363">
        <ele>156.381309</ele>
        <time>2017-06-08T13:47:24.000Z</time>
      </trkpt>
      <trkpt lat="43.558230" lon="5.251368">
        <ele>156.337244</ele>
        <time>2017-06-08T13:47:27.000Z</time>
      </trkpt>
      <trkpt lat="43.558105" lon="5.251402">
        <ele>156.286234</ele>
        <time>2017-06-08T13:47:30.000Z</time>
      </trkpt>
      <trkpt lat="43.558010" lon="5.251421">
        <ele>156.247802</ele>
        <time>2017-06-08T13:47:32.000Z</time>
      </trkpt>
      <trkpt lat="43.557884" lon="5.251459">
        <ele>155.621883</ele>
        <time>2017-06-08T13:47:35.000Z</time>
      </trkpt>
      <trkpt lat="43.557762" lon="5.251477">
        <ele>154.950410</ele>
        <time>2017-06-08T13:47:38.000Z</time>
      </trkpt>
      <trkpt lat="43.557640" lon="5.251494">
        <ele>154.279347</ele>
        <time>2017-06-08T13:47:41.000Z</time>
      </trkpt>
      <trkpt lat="43.557510" lon="5.251512">
        <ele>153.564326</ele>
        <time>2017-06-08T13:47:44.000Z</time>
      </trkpt>
      <trkpt lat="43.557415" lon="5.251531">
        <ele>153.038989</ele>
        <time>2017-06-08T13:47:46.000Z</time>
      </trkpt>
      <trkpt lat="43.557312" lon="5.251545">
        <ele>152.472575</ele>
        <time>2017-06-08T13:47:48.000Z</time>
      </trkpt>
      <trkpt lat="43.557200" lon="5.251524">
        <ele>151.854002</ele>
        <time>2017-06-08T13:47:50.000Z</time>
      </trkpt>
      <trkpt lat="43.557083" lon="5.251489">
        <ele>151.198825</ele>
        <time>2017-06-08T13:47:52.000Z</time>
      </trkpt>
      <trkpt lat="43.556970" lon="5.251465">
        <ele>150.573129</ele>
        <time>2017-06-08T13:47:54.000Z</time>
      </trkpt>
      <trkpt lat="43.556843" lon="5.251436">
        <ele>149.868647</ele>
        <time>2017-06-08T13:47:57.000Z</time>
      </trkpt>
      <trkpt lat="43.556717" lon="5.251416">
        <ele>149.174542</ele>
        <time>2017-06-08T13:48:00.000Z</time>
      </trkpt>
      <trkpt lat="43.556625" lon="5.251397">
        <ele>148.665447</ele>
        <time>2017-06-08T13:48:02.000Z</time>
      </trkpt>
      <trkpt lat="43.556526" lon="5.251369">
        <ele>148.112388</ele>
        <time>2017-06-08T13:48:04.000Z</time>
      </trkpt>
      <trkpt lat="43.556410" lon="5.251343">
        <ele>147.469237</ele>
        <time>2017-06-08T13:48:06.000Z</time>
      </trkpt>
      <trkpt lat="43.556297" lon="5.251326">
        <ele>146.847159</ele>
        <time>2017-06-08T13:48:08.000Z</time>
      </trkpt>
      <trkpt lat="43.556180" lon="5.251307">
        <ele>146.244935</ele>
        <time>2017-06-08T13:48:10.000Z</time>
      </trkpt>
      <trkpt lat="43.556050" lon="5.251288">
        <ele>145.684906</ele>
        <time>2017-06-08T13:48:12.000Z</time>
      </trkpt>
      <trkpt lat="43.555923" lon="5.251260">
        <ele>145.133944</ele>
        <time>2017-06-08T13:48:14.000Z</time>
      </trkpt>
      <trkpt lat="43.555810" lon="5.251231">
        <ele>144.641556</ele>
        <time>2017-06-08T13:48:16.000Z</time>
      </trkpt>
      <trkpt lat="43.555706" lon="5.251229">
        <ele>144.195982</ele>
        <time>2017-06-08T13:48:18.000Z</time>
      </trkpt>
      <trkpt lat="43.555626" lon="5.251315">
        <ele>143.761539</ele>
        <time>2017-06-08T13:48:20.000Z</time>
      </trkpt>
      <trkpt lat="43.555614" lon="5.251455">
        <ele>143.323865</ele>
        <time>2017-06-08T13:48:22.000Z</time>
      </trkpt>
      <trkpt lat="43.555610" lon="5.251599">
        <ele>142.876474</ele>
        <time>2017-06-08T13:48:24.000Z</time>
      </trkpt>
      <trkpt lat="43.555607" lon="5.251748">
        <ele>142.413709</ele>
        <time>2017-06-08T13:48:26.000Z</time>
      </trkpt>
      <trkpt lat="43.555595" lon="5.251898">
        <ele>141.945190</ele>
        <time>2017-06-08T13:48:28.000Z</time>
      </trkpt>
      <trkpt lat="43.555584" lon="5.252040">
        <ele>141.501825</ele>
        <time>2017-06-08T13:48:30.000Z</time>
      </trkpt>
      <trkpt lat="43.555570" lon="5.252184">
        <ele>141.050756</ele>
        <time>2017-06-08T13:48:32.000Z</time>
      </trkpt>
      <trkpt lat="43.555570" lon="5.252335">
        <ele>140.581961</ele>
        <time>2017-06-08T13:48:34.000Z</time>
      </trkpt>
      <trkpt lat="43.555553" lon="5.252487">
        <ele>140.104474</ele>
        <time>2017-06-08T13:48:36.000Z</time>
      </trkpt>
      <trkpt lat="43.555550" lon="5.252638">
        <ele>139.635503</ele>
        <time>2017-06-08T13:48:38.000Z</time>
      </trkpt>
      <trkpt lat="43.555542" lon="5.252797">
        <ele>139.140682</ele>
        <time>2017-06-08T13:48:40.000Z</time>
      </trkpt>
      <trkpt lat="43.555523" lon="5.252949">
        <ele>138.694430</ele>
        <time>2017-06-08T13:48:42.000Z</time>
      </trkpt>
      <trkpt lat="43.555510" lon="5.253088">
        <ele>138.717404</ele>
        <time>2017-06-08T13:48:44.000Z</time>
      </trkpt>
      <trkpt lat="43.555496" lon="5.253236">
        <ele>138.741871</ele>
        <time>2017-06-08T13:48:46.000Z</time>
      </trkpt>
      <trkpt lat="43.555490" lon="5.253379">
        <ele>138.765351</ele>
        <time>2017-06-08T13:48:48.000Z</time>
      </trkpt>
      <trkpt lat="43.555473" lon="5.253521">
        <ele>138.788944</ele>
        <time>2017-06-08T13:48:50.000Z</time>
      </trkpt>
      <trkpt lat="43.555466" lon="5.253655">
        <ele>138.810967</ele>
        <time>2017-06-08T13:48:52.000Z</time>
      </trkpt>
      <trkpt lat="43.555450" lon="5.253790">
        <ele>138.833391</ele>
        <time>2017-06-08T13:48:54.000Z</time>
      </trkpt>
      <trkpt lat="43.555440" lon="5.253918">
        <ele>138.854495</ele>
        <time>2017-06-08T13:48:56.000Z</time>
      </trkpt>
      <trkpt lat="43.555430" lon="5.254043">
        <ele>138.875110</ele>
        <time>2017-06-08T13:48:58.000Z</time>
      </trkpt>
      <trkpt lat="43.555430" lon="5.254201">
        <ele>138.901011</ele>
        <time>2017-06-08T13:49:01.000Z</time>
      </trkpt>
      <trkpt lat="43.555325" lon="5.254284">
        <ele>138.928382</ele>
        <time>2017-06-08T13:49:05.000Z</time>
      </trkpt>
      <trkpt lat="43.555225" lon="5.254280">
        <ele>138.951011</ele>
        <time>2017-06-08T13:49:07.000Z</time>
      </trkpt>
      <trkpt lat="43.555120" lon="5.254276">
        <ele>138.974771</ele>
        <time>2017-06-08T13:49:09.000Z</time>
      </trkpt>
      <trkpt lat="43.555004" lon="5.254283">
        <ele>139.001034</ele>
        <time>2017-06-08T13:49:11.000Z</time>
      </trkpt>
      <trkpt lat="43.554890" lon="5.254301">
        <ele>139.026989</ele>
        <time>2017-06-08T13:49:13.000Z</time>
      </trkpt>
      <trkpt lat="43.554764" lon="5.254326">
        <ele>139.055783</ele>
        <time>2017-06-08T13:49:15.000Z</time>
      </trkpt>
      <trkpt lat="43.554640" lon="5.254352">
        <ele>139.084153</ele>
        <time>2017-06-08T13:49:17.000Z</time>
      </trkpt>
      <trkpt lat="43.554523" lon="5.254377">
        <ele>139.041901</ele>
        <time>2017-06-08T13:49:19.000Z</time>
      </trkpt>
      <trkpt lat="43.554400" lon="5.254416">
        <ele>138.895976</ele>
        <time>2017-06-08T13:49:21.000Z</time>
      </trkpt>
      <trkpt lat="43.554283" lon="5.254455">
        <ele>138.756804</ele>
        <time>2017-06-08T13:49:23.000Z</time>
      </trkpt>
      <trkpt lat="43.554170" lon="5.254500">
        <ele>138.620816</ele>
        <time>2017-06-08T13:49:25.000Z</time>
      </trkpt>
      <trkpt lat="43.554054" lon="5.254542">
        <ele>138.482150</ele>
        <time>2017-06-08T13:49:27.000Z</time>
      </trkpt>
      <trkpt lat="43.553940" lon="5.254586">
        <ele>138.345279</ele>
        <time>2017-06-08T13:49:29.000Z</time>
      </trkpt>
      <trkpt lat="43.553833" lon="5.254630">
        <ele>138.216183</ele>
        <time>2017-06-08T13:49:31.000Z</time>
      </trkpt>
      <trkpt lat="43.553726" lon="5.254673">
        <ele>138.087324</ele>
        <time>2017-06-08T13:49:33.000Z</time>
      </trkpt>
      <trkpt lat="43.553610" lon="5.254715">
        <ele>137.948659</ele>
        <time>2017-06-08T13:49:35.000Z</time>
      </trkpt>
      <trkpt lat="43.553510" lon="5.254756">
        <ele>137.828038</ele>
        <time>2017-06-08T13:49:37.000Z</time>
      </trkpt>
      <trkpt lat="43.553402" lon="5.254797">
        <ele>137.698523</ele>
        <time>2017-06-08T13:49:39.000Z</time>
      </trkpt>
      <trkpt lat="43.553307" lon="5.254836">
        <ele>137.583921</ele>
        <time>2017-06-08T13:49:41.000Z</time>
      </trkpt>
      <trkpt lat="43.553210" lon="5.254877">
        <ele>137.466621</ele>
        <time>2017-06-08T13:49:43.000Z</time>
      </trkpt>
      <trkpt lat="43.553116" lon="5.254912">
        <ele>137.354046</ele>
        <time>2017-06-08T13:49:45.000Z</time>
      </trkpt>
      <trkpt lat="43.553013" lon="5.254944">
        <ele>137.231971</ele>
        <time>2017-06-08T13:49:47.000Z</time>
      </trkpt>
      <trkpt lat="43.552914" lon="5.254974">
        <ele>137.114775</ele>
        <time>2017-06-08T13:49:49.000Z</time>
      </trkpt>
      <trkpt lat="43.552807" lon="5.255010">
        <ele>136.909922</ele>
        <time>2017-06-08T13:49:51.000Z</time>
      </trkpt>
      <trkpt lat="43.552704" lon="5.255056">
        <ele>136.486497</ele>
        <time>2017-06-08T13:49:53.000Z</time>
      </trkpt>
      <trkpt lat="43.552586" lon="5.255110">
        <ele>136.000259</ele>
        <time>2017-06-08T13:49:55.000Z</time>
      </trkpt>
      <trkpt lat="43.552456" lon="5.255163">
        <ele>135.470079</ele>
        <time>2017-06-08T13:49:57.000Z</time>
      </trkpt>
      <trkpt lat="43.552307" lon="5.255229">
        <ele>134.858024</ele>
        <time>2017-06-08T13:49:59.000Z</time>
      </trkpt>
      <trkpt lat="43.552150" lon="5.255295">
        <ele>134.216106</ele>
        <time>2017-06-08T13:50:01.000Z</time>
      </trkpt>
      <trkpt lat="43.551983" lon="5.255374">
        <ele>133.525622</ele>
        <time>2017-06-08T13:50:03.000Z</time>
      </trkpt>
      <trkpt lat="43.551900" lon="5.255418">
        <ele>133.177861</ele>
        <time>2017-06-08T13:50:04.000Z</time>
      </trkpt>
      <trkpt lat="43.551807" lon="5.255463">
        <ele>132.792406</ele>
        <time>2017-06-08T13:50:05.000Z</time>
      </trkpt>
      <trkpt lat="43.551720" lon="5.255509">
        <ele>132.428008</ele>
        <time>2017-06-08T13:50:06.000Z</time>
      </trkpt>
      <trkpt lat="43.551624" lon="5.255556">
        <ele>132.029601</ele>
        <time>2017-06-08T13:50:07.000Z</time>
      </trkpt>
      <trkpt lat="43.551530" lon="5.255599">
        <ele>131.642274</ele>
        <time>2017-06-08T13:50:08.000Z</time>
      </trkpt>
      <trkpt lat="43.551434" lon="5.255639">
        <ele>131.250057</ele>
        <time>2017-06-08T13:50:09.000Z</time>
      </trkpt>
      <trkpt lat="43.551340" lon="5.255685">
        <ele>130.859970</ele>
        <time>2017-06-08T13:50:10.000Z</time>
      </trkpt>
      <trkpt lat="43.551247" lon="5.255729">
        <ele>130.475443</ele>
        <time>2017-06-08T13:50:11.000Z</time>
      </trkpt>
      <trkpt lat="43.551155" lon="5.255771">
        <ele>130.096433</ele>
        <time>2017-06-08T13:50:12.000Z</time>
      </trkpt>
      <trkpt lat="43.551064" lon="5.255816">
        <ele>129.818753</ele>
        <time>2017-06-08T13:50:13.000Z</time>
      </trkpt>
      <trkpt lat="43.550970" lon="5.255856">
        <ele>129.578778</ele>
        <time>2017-06-08T13:50:14.000Z</time>
      </trkpt>
      <trkpt lat="43.550880" lon="5.255896">
        <ele>129.348111</ele>
        <time>2017-06-08T13:50:15.000Z</time>
      </trkpt>
      <trkpt lat="43.550790" lon="5.255934">
        <ele>129.118502</ele>
        <time>2017-06-08T13:50:16.000Z</time>
      </trkpt>
      <trkpt lat="43.550700" lon="5.255978">
        <ele>128.885569</ele>
        <time>2017-06-08T13:50:17.000Z</time>
      </trkpt>
      <trkpt lat="43.550530" lon="5.256062">
        <ele>128.445055</ele>
        <time>2017-06-08T13:50:19.000Z</time>
      </trkpt>
      <trkpt lat="43.550360" lon="5.256135">
        <ele>128.010713</ele>
        <time>2017-06-08T13:50:21.000Z</time>
      </trkpt>
      <trkpt lat="43.550194" lon="5.256203">
        <ele>127.588279</ele>
        <time>2017-06-08T13:50:23.000Z</time>
      </trkpt>
      <trkpt lat="43.550034" lon="5.256274">
        <ele>127.178263</ele>
        <time>2017-06-08T13:50:25.000Z</time>
      </trkpt>
      <trkpt lat="43.549885" lon="5.256349">
        <ele>126.791338</ele>
        <time>2017-06-08T13:50:27.000Z</time>
      </trkpt>
      <trkpt lat="43.549736" lon="5.256426">
        <ele>126.403187</ele>
        <time>2017-06-08T13:50:29.000Z</time>
      </trkpt>
      <trkpt lat="43.549600" lon="5.256489">
        <ele>126.053210</ele>
        <time>2017-06-08T13:50:31.000Z</time>
      </trkpt>
      <trkpt lat="43.549465" lon="5.256547">
        <ele>125.708275</ele>
        <time>2017-06-08T13:50:33.000Z</time>
      </trkpt>
      <trkpt lat="43.549330" lon="5.256599">
        <ele>125.288519</ele>
        <time>2017-06-08T13:50:35.000Z</time>
      </trkpt>
      <trkpt lat="43.549206" lon="5.256636">
        <ele>124.874748</ele>
        <time>2017-06-08T13:50:37.000Z</time>
      </trkpt>
      <trkpt lat="43.549080" lon="5.256647">
        <ele>124.462982</ele>
        <time>2017-06-08T13:50:39.000Z</time>
      </trkpt>
      <trkpt lat="43.548954" lon="5.256652">
        <ele>124.051868</ele>
        <time>2017-06-08T13:50:41.000Z</time>
      </trkpt>
      <trkpt lat="43.548824" lon="5.256656">
        <ele>123.627773</ele>
        <time>2017-06-08T13:50:43.000Z</time>
      </trkpt>
      <trkpt lat="43.548690" lon="5.256660">
        <ele>123.190635</ele>
        <time>2017-06-08T13:50:45.000Z</time>
      </trkpt>
      <trkpt lat="43.548557" lon="5.256667">
        <ele>122.756545</ele>
        <time>2017-06-08T13:50:47.000Z</time>
      </trkpt>
      <trkpt lat="43.548420" lon="5.256665">
        <ele>122.309700</ele>
        <time>2017-06-08T13:50:49.000Z</time>
      </trkpt>
      <trkpt lat="43.548290" lon="5.256661">
        <ele>121.885605</ele>
        <time>2017-06-08T13:50:51.000Z</time>
      </trkpt>
      <trkpt lat="43.548164" lon="5.256674">
        <ele>121.473514</ele>
        <time>2017-06-08T13:50:53.000Z</time>
      </trkpt>
      <trkpt lat="43.548035" lon="5.256681">
        <ele>121.052460</ele>
        <time>2017-06-08T13:50:55.000Z</time>
      </trkpt>
      <trkpt lat="43.547910" lon="5.256687">
        <ele>120.644531</ele>
        <time>2017-06-08T13:50:57.000Z</time>
      </trkpt>
      <trkpt lat="43.547775" lon="5.256690">
        <ele>120.204176</ele>
        <time>2017-06-08T13:50:59.000Z</time>
      </trkpt>
      <trkpt lat="43.547646" lon="5.256702">
        <ele>119.782493</ele>
        <time>2017-06-08T13:51:01.000Z</time>
      </trkpt>
      <trkpt lat="43.547512" lon="5.256708">
        <ele>119.522651</ele>
        <time>2017-06-08T13:51:03.000Z</time>
      </trkpt>
      <trkpt lat="43.547380" lon="5.256712">
        <ele>119.290014</ele>
        <time>2017-06-08T13:51:05.000Z</time>
      </trkpt>
      <trkpt lat="43.547240" lon="5.256718">
        <ele>119.043218</ele>
        <time>2017-06-08T13:51:07.000Z</time>
      </trkpt>
      <trkpt lat="43.547100" lon="5.256727">
        <ele>118.796274</ele>
        <time>2017-06-08T13:51:09.000Z</time>
      </trkpt>
      <trkpt lat="43.546960" lon="5.256741">
        <ele>118.548950</ele>
        <time>2017-06-08T13:51:11.000Z</time>
      </trkpt>
      <trkpt lat="43.546818" lon="5.256760">
        <ele>118.297576</ele>
        <time>2017-06-08T13:51:13.000Z</time>
      </trkpt>
      <trkpt lat="43.546684" lon="5.256775">
        <ele>118.060695</ele>
        <time>2017-06-08T13:51:15.000Z</time>
      </trkpt>
      <trkpt lat="43.546555" lon="5.256795">
        <ele>117.831969</ele>
        <time>2017-06-08T13:51:17.000Z</time>
      </trkpt>
      <trkpt lat="43.546430" lon="5.256808">
        <ele>117.611098</ele>
        <time>2017-06-08T13:51:19.000Z</time>
      </trkpt>
      <trkpt lat="43.546303" lon="5.256821">
        <ele>117.386712</ele>
        <time>2017-06-08T13:51:21.000Z</time>
      </trkpt>
      <trkpt lat="43.546190" lon="5.256826">
        <ele>117.187506</ele>
        <time>2017-06-08T13:51:23.000Z</time>
      </trkpt>
      <trkpt lat="43.546074" lon="5.256846">
        <ele>116.981527</ele>
        <time>2017-06-08T13:51:25.000Z</time>
      </trkpt>
      <trkpt lat="43.545963" lon="5.256857">
        <ele>116.785444</ele>
        <time>2017-06-08T13:51:27.000Z</time>
      </trkpt>
      <trkpt lat="43.545856" lon="5.256877">
        <ele>116.595190</ele>
        <time>2017-06-08T13:51:29.000Z</time>
      </trkpt>
      <trkpt lat="43.545742" lon="5.256903">
        <ele>116.374471</ele>
        <time>2017-06-08T13:51:31.000Z</time>
      </trkpt>
      <trkpt lat="43.545628" lon="5.256932">
        <ele>116.149687</ele>
        <time>2017-06-08T13:51:33.000Z</time>
      </trkpt>
      <trkpt lat="43.545525" lon="5.256958">
        <ele>115.946643</ele>
        <time>2017-06-08T13:51:35.000Z</time>
      </trkpt>
      <trkpt lat="43.545420" lon="5.256950">
        <ele>115.742727</ele>
        <time>2017-06-08T13:51:37.000Z</time>
      </trkpt>
      <trkpt lat="43.545303" lon="5.256907">
        <ele>115.507940</ele>
        <time>2017-06-08T13:51:40.000Z</time>
      </trkpt>
      <trkpt lat="43.545120" lon="5.256853">
        <ele>115.145057</ele>
        <time>2017-06-08T13:52:15.000Z</time>
      </trkpt>
      <trkpt lat="43.545033" lon="5.256947">
        <ele>114.930777</ele>
        <time>2017-06-08T13:52:18.000Z</time>
      </trkpt>
      <trkpt lat="43.544940" lon="5.257053">
        <ele>114.696858</ele>
        <time>2017-06-08T13:52:21.000Z</time>
      </trkpt>
      <trkpt lat="43.544840" lon="5.257172">
        <ele>114.440778</ele>
        <time>2017-06-08T13:52:24.000Z</time>
      </trkpt>
      <trkpt lat="43.544740" lon="5.257275">
        <ele>114.198787</ele>
        <time>2017-06-08T13:52:27.000Z</time>
      </trkpt>
      <trkpt lat="43.544630" lon="5.257390">
        <ele>113.931161</ele>
        <time>2017-06-08T13:52:30.000Z</time>
      </trkpt>
      <trkpt lat="43.544556" lon="5.257469">
        <ele>113.749722</ele>
        <time>2017-06-08T13:52:32.000Z</time>
      </trkpt>
      <trkpt lat="43.544480" lon="5.257549">
        <ele>113.564353</ele>
        <time>2017-06-08T13:52:34.000Z</time>
      </trkpt>
      <trkpt lat="43.544407" lon="5.257634">
        <ele>113.379120</ele>
        <time>2017-06-08T13:52:36.000Z</time>
      </trkpt>
      <trkpt lat="43.544327" lon="5.257715">
        <ele>113.186697</ele>
        <time>2017-06-08T13:52:38.000Z</time>
      </trkpt>
      <trkpt lat="43.544243" lon="5.257799">
        <ele>113.044827</ele>
        <time>2017-06-08T13:52:40.000Z</time>
      </trkpt>
      <trkpt lat="43.544160" lon="5.257886">
        <ele>112.977862</ele>
        <time>2017-06-08T13:52:42.000Z</time>
      </trkpt>
      <trkpt lat="43.544080" lon="5.257972">
        <ele>112.912708</ele>
        <time>2017-06-08T13:52:44.000Z</time>
      </trkpt>
      <trkpt lat="43.544000" lon="5.258059">
        <ele>112.847267</ele>
        <time>2017-06-08T13:52:46.000Z</time>
      </trkpt>
      <trkpt lat="43.543915" lon="5.258145">
        <ele>112.779551</ele>
        <time>2017-06-08T13:52:48.000Z</time>
      </trkpt>
      <trkpt lat="43.543830" lon="5.258231">
        <ele>112.711834</ele>
        <time>2017-06-08T13:52:50.000Z</time>
      </trkpt>
      <trkpt lat="43.543743" lon="5.258322">
        <ele>112.641696</ele>
        <time>2017-06-08T13:52:52.000Z</time>
      </trkpt>
      <trkpt lat="43.543650" lon="5.258405">
        <ele>112.570540</ele>
        <time>2017-06-08T13:52:54.000Z</time>
      </trkpt>
      <trkpt lat="43.543564" lon="5.258479">
        <ele>112.505426</ele>
        <time>2017-06-08T13:52:56.000Z</time>
      </trkpt>
      <trkpt lat="43.543472" lon="5.258550">
        <ele>112.437705</ele>
        <time>2017-06-08T13:52:58.000Z</time>
      </trkpt>
      <trkpt lat="43.543380" lon="5.258626">
        <ele>112.368817</ele>
        <time>2017-06-08T13:53:00.000Z</time>
      </trkpt>
      <trkpt lat="43.543285" lon="5.258699">
        <ele>112.298958</ele>
        <time>2017-06-08T13:53:02.000Z</time>
      </trkpt>
      <trkpt lat="43.543198" lon="5.258762">
        <ele>112.235837</ele>
        <time>2017-06-08T13:53:04.000Z</time>
      </trkpt>
      <trkpt lat="43.543118" lon="5.258818">
        <ele>112.178206</ele>
        <time>2017-06-08T13:53:06.000Z</time>
      </trkpt>
      <trkpt lat="43.543015" lon="5.258913">
        <ele>112.098611</ele>
        <time>2017-06-08T13:53:09.000Z</time>
      </trkpt>
      <trkpt lat="43.542896" lon="5.259000">
        <ele>112.012092</ele>
        <time>2017-06-08T13:53:12.000Z</time>
      </trkpt>
      <trkpt lat="43.542797" lon="5.259111">
        <ele>111.930137</ele>
        <time>2017-06-08T13:53:15.000Z</time>
      </trkpt>
      <trkpt lat="43.542694" lon="5.259210">
        <ele>111.951356</ele>
        <time>2017-06-08T13:53:18.000Z</time>
      </trkpt>
      <trkpt lat="43.542583" lon="5.259256">
        <ele>111.986451</ele>
        <time>2017-06-08T13:53:21.000Z</time>
      </trkpt>
      <trkpt lat="43.542460" lon="5.259248">
        <ele>112.023737</ele>
        <time>2017-06-08T13:53:24.000Z</time>
      </trkpt>
      <trkpt lat="43.542336" lon="5.259275">
        <ele>112.061749</ele>
        <time>2017-06-08T13:53:27.000Z</time>
      </trkpt>
      <trkpt lat="43.542240" lon="5.259279">
        <ele>112.090832</ele>
        <time>2017-06-08T13:53:29.000Z</time>
      </trkpt>
      <trkpt lat="43.542140" lon="5.259226">
        <ele>112.123270</ele>
        <time>2017-06-08T13:53:31.000Z</time>
      </trkpt>
      <trkpt lat="43.542040" lon="5.259113">
        <ele>112.162411</ele>
        <time>2017-06-08T13:53:33.000Z</time>
      </trkpt>
      <trkpt lat="43.541960" lon="5.258978">
        <ele>112.200684</ele>
        <time>2017-06-08T13:53:35.000Z</time>
      </trkpt>
      <trkpt lat="43.541885" lon="5.258834">
        <ele>112.239604</ele>
        <time>2017-06-08T13:53:37.000Z</time>
      </trkpt>
      <trkpt lat="43.541810" lon="5.258693">
        <ele>112.277991</ele>
        <time>2017-06-08T13:53:39.000Z</time>
      </trkpt>
      <trkpt lat="43.541748" lon="5.258562">
        <ele>112.312331</ele>
        <time>2017-06-08T13:53:41.000Z</time>
      </trkpt>
      <trkpt lat="43.541687" lon="5.258429">
        <ele>112.346876</ele>
        <time>2017-06-08T13:53:43.000Z</time>
      </trkpt>
      <trkpt lat="43.541622" lon="5.258293">
        <ele>112.382632</ele>
        <time>2017-06-08T13:53:45.000Z</time>
      </trkpt>
      <trkpt lat="43.541557" lon="5.258158">
        <ele>112.418205</ele>
        <time>2017-06-08T13:53:47.000Z</time>
      </trkpt>
      <trkpt lat="43.541492" lon="5.258025">
        <ele>112.453413</ele>
        <time>2017-06-08T13:53:49.000Z</time>
      </trkpt>
      <trkpt lat="43.541424" lon="5.257893">
        <ele>112.525453</ele>
        <time>2017-06-08T13:53:51.000Z</time>
      </trkpt>
      <trkpt lat="43.541350" lon="5.257780">
        <ele>112.606529</ele>
        <time>2017-06-08T13:53:53.000Z</time>
      </trkpt>
      <trkpt lat="43.541264" lon="5.257684">
        <ele>112.687783</ele>
        <time>2017-06-08T13:53:55.000Z</time>
      </trkpt>
      <trkpt lat="43.541170" lon="5.257599">
        <ele>112.770333</ele>
        <time>2017-06-08T13:53:57.000Z</time>
      </trkpt>
      <trkpt lat="43.541073" lon="5.257541">
        <ele>112.847981</ele>
        <time>2017-06-08T13:53:59.000Z</time>
      </trkpt>
      <trkpt lat="43.540966" lon="5.257490">
        <ele>112.931128</ele>
        <time>2017-06-08T13:54:01.000Z</time>
      </trkpt>
      <trkpt lat="43.540860" lon="5.257463">
        <ele>113.010298</ele>
        <time>2017-06-08T13:54:03.000Z</time>
      </trkpt>
      <trkpt lat="43.540750" lon="5.257460">
        <ele>113.091106</ele>
        <time>2017-06-08T13:54:05.000Z</time>
      </trkpt>
      <trkpt lat="43.540646" lon="5.257489">
        <ele>113.169036</ele>
        <time>2017-06-08T13:54:07.000Z</time>
      </trkpt>
      <trkpt lat="43.540540" lon="5.257537">
        <ele>113.250977</ele>
        <time>2017-06-08T13:54:09.000Z</time>
      </trkpt>
      <trkpt lat="43.540443" lon="5.257604">
        <ele>113.330652</ele>
        <time>2017-06-08T13:54:11.000Z</time>
      </trkpt>
      <trkpt lat="43.540348" lon="5.257684">
        <ele>113.412400</ele>
        <time>2017-06-08T13:54:13.000Z</time>
      </trkpt>
      <trkpt lat="43.540253" lon="5.257768">
        <ele>113.495277</ele>
        <time>2017-06-08T13:54:15.000Z</time>
      </trkpt>
      <trkpt lat="43.540150" lon="5.257862">
        <ele>113.585984</ele>
        <time>2017-06-08T13:54:17.000Z</time>
      </trkpt>
      <trkpt lat="43.540047" lon="5.257949">
        <ele>113.674689</ele>
        <time>2017-06-08T13:54:19.000Z</time>
      </trkpt>
      <trkpt lat="43.539944" lon="5.258020">
        <ele>113.759259</ele>
        <time>2017-06-08T13:54:21.000Z</time>
      </trkpt>
      <trkpt lat="43.539840" lon="5.258082">
        <ele>113.885553</ele>
        <time>2017-06-08T13:54:23.000Z</time>
      </trkpt>
      <trkpt lat="43.539726" lon="5.258137">
        <ele>114.040075</ele>
        <time>2017-06-08T13:54:25.000Z</time>
      </trkpt>
      <trkpt lat="43.539616" lon="5.258192">
        <ele>114.189776</ele>
        <time>2017-06-08T13:54:27.000Z</time>
      </trkpt>
      <trkpt lat="43.539505" lon="5.258231">
        <ele>114.336331</ele>
        <time>2017-06-08T13:54:29.000Z</time>
      </trkpt>
      <trkpt lat="43.539383" lon="5.258269">
        <ele>114.496356</ele>
        <time>2017-06-08T13:54:31.000Z</time>
      </trkpt>
      <trkpt lat="43.539260" lon="5.258301">
        <ele>114.656505</ele>
        <time>2017-06-08T13:54:33.000Z</time>
      </trkpt>
      <trkpt lat="43.539140" lon="5.258313">
        <ele>114.810445</ele>
        <time>2017-06-08T13:54:35.000Z</time>
      </trkpt>
      <trkpt lat="43.539020" lon="5.258317">
        <ele>114.964026</ele>
        <time>2017-06-08T13:54:37.000Z</time>
      </trkpt>
      <trkpt lat="43.538902" lon="5.258327">
        <ele>115.115288</ele>
        <time>2017-06-08T13:54:39.000Z</time>
      </trkpt>
      <trkpt lat="43.538784" lon="5.258334">
        <ele>115.266405</ele>
        <time>2017-06-08T13:54:41.000Z</time>
      </trkpt>
      <trkpt lat="43.538666" lon="5.258335">
        <ele>115.417385</ele>
        <time>2017-06-08T13:54:43.000Z</time>
      </trkpt>
      <trkpt lat="43.538560" lon="5.258332">
        <ele>115.553037</ele>
        <time>2017-06-08T13:54:45.000Z</time>
      </trkpt>
      <trkpt lat="43.538452" lon="5.258320">
        <ele>115.691668</ele>
        <time>2017-06-08T13:54:47.000Z</time>
      </trkpt>
      <trkpt lat="43.538345" lon="5.258317">
        <ele>115.828599</ele>
        <time>2017-06-08T13:54:49.000Z</time>
      </trkpt>
      <trkpt lat="43.538240" lon="5.258314">
        <ele>115.962972</ele>
        <time>2017-06-08T13:54:51.000Z</time>
      </trkpt>
      <trkpt lat="43.538136" lon="5.258306">
        <ele>116.105743</ele>
        <time>2017-06-08T13:54:53.000Z</time>
      </trkpt>
      <trkpt lat="43.538040" lon="5.258296">
        <ele>116.340118</ele>
        <time>2017-06-08T13:54:55.000Z</time>
      </trkpt>
      <trkpt lat="43.537907" lon="5.258286">
        <ele>116.664384</ele>
        <time>2017-06-08T13:54:58.000Z</time>
      </trkpt>
      <trkpt lat="43.537780" lon="5.258270">
        <ele>116.974849</ele>
        <time>2017-06-08T13:55:01.000Z</time>
      </trkpt>
      <trkpt lat="43.537650" lon="5.258246">
        <ele>117.294153</ele>
        <time>2017-06-08T13:55:04.000Z</time>
      </trkpt>
      <trkpt lat="43.537533" lon="5.258207">
        <ele>117.587184</ele>
        <time>2017-06-08T13:55:07.000Z</time>
      </trkpt>
      <trkpt lat="43.537415" lon="5.258183">
        <ele>117.877558</ele>
        <time>2017-06-08T13:55:10.000Z</time>
      </trkpt>
      <trkpt lat="43.537304" lon="5.258145">
        <ele>118.155983</ele>
        <time>2017-06-08T13:55:13.000Z</time>
      </trkpt>
      <trkpt lat="43.537197" lon="5.258102">
        <ele>118.427300</ele>
        <time>2017-06-08T13:55:16.000Z</time>
      </trkpt>
      <trkpt lat="43.537094" lon="5.258054">
        <ele>118.691974</ele>
        <time>2017-06-08T13:55:19.000Z</time>
      </trkpt>
      <trkpt lat="43.536983" lon="5.258004">
        <ele>118.976244</ele>
        <time>2017-06-08T13:55:22.000Z</time>
      </trkpt>
      <trkpt lat="43.536870" lon="5.257950">
        <ele>119.267379</ele>
        <time>2017-06-08T13:55:25.000Z</time>
      </trkpt>
      <trkpt lat="43.536766" lon="5.257901">
        <ele>119.534926</ele>
        <time>2017-06-08T13:55:28.000Z</time>
      </trkpt>
      <trkpt lat="43.536660" lon="5.257827">
        <ele>119.824145</ele>
        <time>2017-06-08T13:55:31.000Z</time>
      </trkpt>
      <trkpt lat="43.536556" lon="5.257720">
        <ele>120.139997</ele>
        <time>2017-06-08T13:55:34.000Z</time>
      </trkpt>
      <trkpt lat="43.536457" lon="5.257644">
        <ele>120.415819</ele>
        <time>2017-06-08T13:55:37.000Z</time>
      </trkpt>
      <trkpt lat="43.536350" lon="5.257567">
        <ele>120.688819</ele>
        <time>2017-06-08T13:55:40.000Z</time>
      </trkpt>
      <trkpt lat="43.536247" lon="5.257479">
        <ele>120.958738</ele>
        <time>2017-06-08T13:55:43.000Z</time>
      </trkpt>
      <trkpt lat="43.536140" lon="5.257387">
        <ele>121.239636</ele>
        <time>2017-06-08T13:55:46.000Z</time>
      </trkpt>
      <trkpt lat="43.536064" lon="5.257319">
        <ele>121.441453</ele>
        <time>2017-06-08T13:55:48.000Z</time>
      </trkpt>
      <trkpt lat="43.535965" lon="5.257226">
        <ele>121.708299</ele>
        <time>2017-06-08T13:55:51.000Z</time>
      </trkpt>
      <trkpt lat="43.535873" lon="5.257129">
        <ele>121.966278</ele>
        <time>2017-06-08T13:55:54.000Z</time>
      </trkpt>
      <trkpt lat="43.535780" lon="5.257023">
        <ele>122.235048</ele>
        <time>2017-06-08T13:55:57.000Z</time>
      </trkpt>
      <trkpt lat="43.535690" lon="5.256923">
        <ele>122.492514</ele>
        <time>2017-06-08T13:56:00.000Z</time>
      </trkpt>
      <trkpt lat="43.535610" lon="5.256829">
        <ele>122.726638</ele>
        <time>2017-06-08T13:56:03.000Z</time>
      </trkpt>
      <trkpt lat="43.535534" lon="5.256721">
        <ele>122.969731</ele>
        <time>2017-06-08T13:56:06.000Z</time>
      </trkpt>
      <trkpt lat="43.535446" lon="5.256618">
        <ele>123.226850</ele>
        <time>2017-06-08T13:56:09.000Z</time>
      </trkpt>
      <trkpt lat="43.535360" lon="5.256512">
        <ele>123.483791</ele>
        <time>2017-06-08T13:56:12.000Z</time>
      </trkpt>
      <trkpt lat="43.535267" lon="5.256412">
        <ele>123.746495</ele>
        <time>2017-06-08T13:56:15.000Z</time>
      </trkpt>
      <trkpt lat="43.535180" lon="5.256309">
        <ele>124.001920</ele>
        <time>2017-06-08T13:56:18.000Z</time>
      </trkpt>
      <trkpt lat="43.535090" lon="5.256208">
        <ele>124.260403</ele>
        <time>2017-06-08T13:56:21.000Z</time>
      </trkpt>
      <trkpt lat="43.535015" lon="5.256090">
        <ele>124.465167</ele>
        <time>2017-06-08T13:56:24.000Z</time>
      </trkpt>
      <trkpt lat="43.534950" lon="5.255961">
        <ele>124.426437</ele>
        <time>2017-06-08T13:56:27.000Z</time>
      </trkpt>
      <trkpt lat="43.534885" lon="5.255833">
        <ele>124.387908</ele>
        <time>2017-06-08T13:56:30.000Z</time>
      </trkpt>
      <trkpt lat="43.534813" lon="5.255710">
        <ele>124.348933</ele>
        <time>2017-06-08T13:56:33.000Z</time>
      </trkpt>
      <trkpt lat="43.534750" lon="5.255585">
        <ele>124.311400</ele>
        <time>2017-06-08T13:56:36.000Z</time>
      </trkpt>
      <trkpt lat="43.534702" lon="5.255417">
        <ele>124.266881</ele>
        <time>2017-06-08T13:56:39.000Z</time>
      </trkpt>
      <trkpt lat="43.534706" lon="5.255257">
        <ele>124.227411</ele>
        <time>2017-06-08T13:56:42.000Z</time>
      </trkpt>
      <trkpt lat="43.534706" lon="5.255114">
        <ele>124.192156</ele>
        <time>2017-06-08T13:56:45.000Z</time>
      </trkpt>
      <trkpt lat="43.534687" lon="5.254945">
        <ele>124.149993</ele>
        <time>2017-06-08T13:56:48.000Z</time>
      </trkpt>
      <trkpt lat="43.534645" lon="5.254794">
        <ele>124.110120</ele>
        <time>2017-06-08T13:56:51.000Z</time>
      </trkpt>
      <trkpt lat="43.534584" lon="5.254646">
        <ele>124.068147</ele>
        <time>2017-06-08T13:56:54.000Z</time>
      </trkpt>
      <trkpt lat="43.534515" lon="5.254498">
        <ele>124.024766</ele>
        <time>2017-06-08T13:56:57.000Z</time>
      </trkpt>
      <trkpt lat="43.534443" lon="5.254360">
        <ele>123.982848</ele>
        <time>2017-06-08T13:57:00.000Z</time>
      </trkpt>
      <trkpt lat="43.534367" lon="5.254226">
        <ele>123.940903</ele>
        <time>2017-06-08T13:57:03.000Z</time>
      </trkpt>
      <trkpt lat="43.534270" lon="5.254143">
        <ele>123.902085</ele>
        <time>2017-06-08T13:57:06.000Z</time>
      </trkpt>
      <trkpt lat="43.534157" lon="5.254126">
        <ele>123.863429</ele>
        <time>2017-06-08T13:57:09.000Z</time>
      </trkpt>
      <trkpt lat="43.534035" lon="5.254170">
        <ele>123.858362</ele>
        <time>2017-06-08T13:57:12.000Z</time>
      </trkpt>
      <trkpt lat="43.533960" lon="5.254320">
        <ele>123.856557</ele>
        <time>2017-06-08T13:57:15.000Z</time>
      </trkpt>
      <trkpt lat="43.533928" lon="5.254492">
        <ele>123.854798</ele>
        <time>2017-06-08T13:57:18.000Z</time>
      </trkpt>
      <trkpt lat="43.533900" lon="5.254662">
        <ele>123.853071</ele>
        <time>2017-06-08T13:57:21.000Z</time>
      </trkpt>
      <trkpt lat="43.533790" lon="5.254743">
        <ele>123.851367</ele>
        <time>2017-06-08T13:57:24.000Z</time>
      </trkpt>
      <trkpt lat="43.533680" lon="5.254650">
        <ele>123.849604</ele>
        <time>2017-06-08T13:57:27.000Z</time>
      </trkpt>
      <trkpt lat="43.533600" lon="5.254550">
        <ele>123.848129</ele>
        <time>2017-06-08T13:57:30.000Z</time>
      </trkpt>
      <trkpt lat="43.533520" lon="5.254430">
        <ele>123.846514</ele>
        <time>2017-06-08T13:57:33.000Z</time>
      </trkpt>
      <trkpt lat="43.533424" lon="5.254317">
        <ele>123.844790</ele>
        <time>2017-06-08T13:57:36.000Z</time>
      </trkpt>
      <trkpt lat="43.533350" lon="5.254235">
        <ele>123.843493</ele>
        <time>2017-06-08T13:57:38.000Z</time>
      </trkpt>
      <trkpt lat="43.533250" lon="5.254126">
        <ele>123.841751</ele>
        <time>2017-06-08T13:57:41.000Z</time>
      </trkpt>
      <trkpt lat="43.533176" lon="5.254050">
        <ele>123.840491</ele>
        <time>2017-06-08T13:57:43.000Z</time>
      </trkpt>
      <trkpt lat="43.533096" lon="5.253974">
        <ele>123.839163</ele>
        <time>2017-06-08T13:57:45.000Z</time>
      </trkpt>
      <trkpt lat="43.533012" lon="5.253905">
        <ele>123.837827</ele>
        <time>2017-06-08T13:57:47.000Z</time>
      </trkpt>
      <trkpt lat="43.532932" lon="5.253839">
        <ele>123.836554</ele>
        <time>2017-06-08T13:57:49.000Z</time>
      </trkpt>
      <trkpt lat="43.532837" lon="5.253715">
        <ele>123.759521</ele>
        <time>2017-06-08T13:57:52.000Z</time>
      </trkpt>
      <trkpt lat="43.532790" lon="5.253606">
        <ele>123.601206</ele>
        <time>2017-06-08T13:57:54.000Z</time>
      </trkpt>
      <trkpt lat="43.532740" lon="5.253490">
        <ele>123.432739</ele>
        <time>2017-06-08T13:57:56.000Z</time>
      </trkpt>
      <trkpt lat="43.532696" lon="5.253377">
        <ele>123.272619</ele>
        <time>2017-06-08T13:57:58.000Z</time>
      </trkpt>
      <trkpt lat="43.532654" lon="5.253254">
        <ele>123.102895</ele>
        <time>2017-06-08T13:58:00.000Z</time>
      </trkpt>
      <trkpt lat="43.532597" lon="5.253138">
        <ele>122.927962</ele>
        <time>2017-06-08T13:58:02.000Z</time>
      </trkpt>
      <trkpt lat="43.532540" lon="5.253020">
        <ele>122.750955</ele>
        <time>2017-06-08T13:58:04.000Z</time>
      </trkpt>
      <trkpt lat="43.532482" lon="5.252901">
        <ele>122.571954</ele>
        <time>2017-06-08T13:58:06.000Z</time>
      </trkpt>
      <trkpt lat="43.532430" lon="5.252786">
        <ele>122.402761</ele>
        <time>2017-06-08T13:58:08.000Z</time>
      </trkpt>
      <trkpt lat="43.532370" lon="5.252662">
        <ele>122.216657</ele>
        <time>2017-06-08T13:58:10.000Z</time>
      </trkpt>
      <trkpt lat="43.532320" lon="5.252546">
        <ele>122.048189</ele>
        <time>2017-06-08T13:58:12.000Z</time>
      </trkpt>
      <trkpt lat="43.532265" lon="5.252422">
        <ele>121.866723</ele>
        <time>2017-06-08T13:58:14.000Z</time>
      </trkpt>
      <trkpt lat="43.532210" lon="5.252298">
        <ele>121.685257</ele>
        <time>2017-06-08T13:58:16.000Z</time>
      </trkpt>
      <trkpt lat="43.532154" lon="5.252178">
        <ele>121.507105</ele>
        <time>2017-06-08T13:58:18.000Z</time>
      </trkpt>
      <trkpt lat="43.532093" lon="5.252048">
        <ele>121.313795</ele>
        <time>2017-06-08T13:58:20.000Z</time>
      </trkpt>
      <trkpt lat="43.532043" lon="5.251929">
        <ele>121.142097</ele>
        <time>2017-06-08T13:58:22.000Z</time>
      </trkpt>
      <trkpt lat="43.531986" lon="5.251804">
        <ele>120.957754</ele>
        <time>2017-06-08T13:58:24.000Z</time>
      </trkpt>
      <trkpt lat="43.531930" lon="5.251692">
        <ele>120.787912</ele>
        <time>2017-06-08T13:58:26.000Z</time>
      </trkpt>
      <trkpt lat="43.531870" lon="5.251581">
        <ele>120.723879</ele>
        <time>2017-06-08T13:58:28.000Z</time>
      </trkpt>
      <trkpt lat="43.531810" lon="5.251475">
        <ele>120.704211</ele>
        <time>2017-06-08T13:58:30.000Z</time>
      </trkpt>
      <trkpt lat="43.531742" lon="5.251369">
        <ele>120.683512</ele>
        <time>2017-06-08T13:58:32.000Z</time>
      </trkpt>
      <trkpt lat="43.531680" lon="5.251267">
        <ele>120.664045</ele>
        <time>2017-06-08T13:58:34.000Z</time>
      </trkpt>
      <trkpt lat="43.531616" lon="5.251173">
        <ele>120.645186</ele>
        <time>2017-06-08T13:58:36.000Z</time>
      </trkpt>
      <trkpt lat="43.531544" lon="5.251078">
        <ele>120.625087</ele>
        <time>2017-06-08T13:58:38.000Z</time>
      </trkpt>
      <trkpt lat="43.531467" lon="5.250984">
        <ele>120.604344</ele>
        <time>2017-06-08T13:58:40.000Z</time>
      </trkpt>
      <trkpt lat="43.531384" lon="5.250892">
        <ele>120.582865</ele>
        <time>2017-06-08T13:58:42.000Z</time>
      </trkpt>
      <trkpt lat="43.531300" lon="5.250795">
        <ele>120.560765</ele>
        <time>2017-06-08T13:58:44.000Z</time>
      </trkpt>
      <trkpt lat="43.531220" lon="5.250701">
        <ele>120.539566</ele>
        <time>2017-06-08T13:58:46.000Z</time>
      </trkpt>
      <trkpt lat="43.531140" lon="5.250604">
        <ele>120.518079</ele>
        <time>2017-06-08T13:58:48.000Z</time>
      </trkpt>
      <trkpt lat="43.531067" lon="5.250515">
        <ele>120.498425</ele>
        <time>2017-06-08T13:58:50.000Z</time>
      </trkpt>
      <trkpt lat="43.530994" lon="5.250430">
        <ele>120.479154</ele>
        <time>2017-06-08T13:58:52.000Z</time>
      </trkpt>
      <trkpt lat="43.530920" lon="5.250345">
        <ele>120.459728</ele>
        <time>2017-06-08T13:58:54.000Z</time>
      </trkpt>
      <trkpt lat="43.530846" lon="5.250253">
        <ele>120.439632</ele>
        <time>2017-06-08T13:58:56.000Z</time>
      </trkpt>
      <trkpt lat="43.530780" lon="5.250147">
        <ele>120.419197</ele>
        <time>2017-06-08T13:58:58.000Z</time>
      </trkpt>
      <trkpt lat="43.530674" lon="5.250041">
        <ele>120.392786</ele>
        <time>2017-06-08T13:59:01.000Z</time>
      </trkpt>
      <trkpt lat="43.530575" lon="5.249919">
        <ele>120.295642</ele>
        <time>2017-06-08T13:59:04.000Z</time>
      </trkpt>
      <trkpt lat="43.530502" lon="5.249829">
        <ele>120.129352</ele>
        <time>2017-06-08T13:59:06.000Z</time>
      </trkpt>
      <trkpt lat="43.530430" lon="5.249737">
        <ele>119.962662</ele>
        <time>2017-06-08T13:59:08.000Z</time>
      </trkpt>
      <trkpt lat="43.530354" lon="5.249643">
        <ele>119.789291</ele>
        <time>2017-06-08T13:59:10.000Z</time>
      </trkpt>
      <trkpt lat="43.530280" lon="5.249538">
        <ele>119.608983</ele>
        <time>2017-06-08T13:59:12.000Z</time>
      </trkpt>
      <trkpt lat="43.530212" lon="5.249435">
        <ele>119.437452</ele>
        <time>2017-06-08T13:59:14.000Z</time>
      </trkpt>
      <trkpt lat="43.530155" lon="5.249332">
        <ele>119.277900</ele>
        <time>2017-06-08T13:59:16.000Z</time>
      </trkpt>
      <trkpt lat="43.530113" lon="5.249218">
        <ele>119.120444</ele>
        <time>2017-06-08T13:59:18.000Z</time>
      </trkpt>
      <trkpt lat="43.530094" lon="5.249041">
        <ele>118.900122</ele>
        <time>2017-06-08T13:59:21.000Z</time>
      </trkpt>
      <trkpt lat="43.530067" lon="5.248882">
        <ele>118.699041</ele>
        <time>2017-06-08T13:59:24.000Z</time>
      </trkpt>
      <trkpt lat="43.529995" lon="5.248781">
        <ele>118.524628</ele>
        <time>2017-06-08T13:59:27.000Z</time>
      </trkpt>
      <trkpt lat="43.529926" lon="5.248671">
        <ele>118.345523</ele>
        <time>2017-06-08T13:59:30.000Z</time>
      </trkpt>
      <trkpt lat="43.529873" lon="5.248529">
        <ele>118.148863</ele>
        <time>2017-06-08T13:59:33.000Z</time>
      </trkpt>
      <trkpt lat="43.529840" lon="5.248393">
        <ele>117.972271</ele>
        <time>2017-06-08T13:59:36.000Z</time>
      </trkpt>
      <trkpt lat="43.529793" lon="5.248255">
        <ele>117.784531</ele>
        <time>2017-06-08T13:59:39.000Z</time>
      </trkpt>
      <trkpt lat="43.529755" lon="5.248121">
        <ele>117.607359</ele>
        <time>2017-06-08T13:59:42.000Z</time>
      </trkpt>
      <trkpt lat="43.529716" lon="5.247982">
        <ele>117.423833</ele>
        <time>2017-06-08T13:59:45.000Z</time>
      </trkpt>
      <trkpt lat="43.529682" lon="5.247850">
        <ele>117.238057</ele>
        <time>2017-06-08T13:59:48.000Z</time>
      </trkpt>
      <trkpt lat="43.529640" lon="5.247726">
        <ele>117.037265</ele>
        <time>2017-06-08T13:59:51.000Z</time>
      </trkpt>
      <trkpt lat="43.529590" lon="5.247601">
        <ele>116.827821</ele>
        <time>2017-06-08T13:59:54.000Z</time>
      </trkpt>
      <trkpt lat="43.529540" lon="5.247449">
        <ele>116.582944</ele>
        <time>2017-06-08T13:59:57.000Z</time>
      </trkpt>
      <trkpt lat="43.529495" lon="5.247315">
        <ele>116.366289</ele>
        <time>2017-06-08T14:00:00.000Z</time>
      </trkpt>
      <trkpt lat="43.529484" lon="5.247184">
        <ele>116.172816</ele>
        <time>2017-06-08T14:00:03.000Z</time>
      </trkpt>
      <trkpt lat="43.529410" lon="5.247057">
        <ele>115.933781</ele>
        <time>2017-06-08T14:00:07.000Z</time>
      </trkpt>
      <trkpt lat="43.529300" lon="5.247067">
        <ele>115.710711</ele>
        <time>2017-06-08T14:00:10.000Z</time>
      </trkpt>
      <trkpt lat="43.529182" lon="5.247043">
        <ele>115.469354</ele>
        <time>2017-06-08T14:00:13.000Z</time>
      </trkpt>
      <trkpt lat="43.529057" lon="5.246965">
        <ele>115.191733</ele>
        <time>2017-06-08T14:00:16.000Z</time>
      </trkpt>
      <trkpt lat="43.528970" lon="5.246903">
        <ele>114.993576</ele>
        <time>2017-06-08T14:00:18.000Z</time>
      </trkpt>
      <trkpt lat="43.528873" lon="5.246831">
        <ele>114.770676</ele>
        <time>2017-06-08T14:00:20.000Z</time>
      </trkpt>
      <trkpt lat="43.528780" lon="5.246762">
        <ele>114.556990</ele>
        <time>2017-06-08T14:00:22.000Z</time>
      </trkpt>
      <trkpt lat="43.528683" lon="5.246691">
        <ele>114.334781</ele>
        <time>2017-06-08T14:00:24.000Z</time>
      </trkpt>
      <trkpt lat="43.528576" lon="5.246637">
        <ele>114.104226</ele>
        <time>2017-06-08T14:00:26.000Z</time>
      </trkpt>
      <trkpt lat="43.528465" lon="5.246591">
        <ele>113.869695</ele>
        <time>2017-06-08T14:00:28.000Z</time>
      </trkpt>
      <trkpt lat="43.528347" lon="5.246553">
        <ele>113.623243</ele>
        <time>2017-06-08T14:00:30.000Z</time>
      </trkpt>
      <trkpt lat="43.528225" lon="5.246523">
        <ele>113.366927</ele>
        <time>2017-06-08T14:00:32.000Z</time>
      </trkpt>
      <trkpt lat="43.528103" lon="5.246490">
        <ele>113.109783</ele>
        <time>2017-06-08T14:00:34.000Z</time>
      </trkpt>
      <trkpt lat="43.527980" lon="5.246447">
        <ele>112.847332</ele>
        <time>2017-06-08T14:00:36.000Z</time>
      </trkpt>
      <trkpt lat="43.527855" lon="5.246409">
        <ele>112.582585</ele>
        <time>2017-06-08T14:00:38.000Z</time>
      </trkpt>
      <trkpt lat="43.527720" lon="5.246354">
        <ele>112.291432</ele>
        <time>2017-06-08T14:00:40.000Z</time>
      </trkpt>
      <trkpt lat="43.527580" lon="5.246305">
        <ele>111.992687</ele>
        <time>2017-06-08T14:00:42.000Z</time>
      </trkpt>
      <trkpt lat="43.527443" lon="5.246263">
        <ele>111.702409</ele>
        <time>2017-06-08T14:00:44.000Z</time>
      </trkpt>
      <trkpt lat="43.527300" lon="5.246221">
        <ele>111.400004</ele>
        <time>2017-06-08T14:00:46.000Z</time>
      </trkpt>
      <trkpt lat="43.527160" lon="5.246170">
        <ele>111.100507</ele>
        <time>2017-06-08T14:00:48.000Z</time>
      </trkpt>
      <trkpt lat="43.527027" lon="5.246116">
        <ele>110.813746</ele>
        <time>2017-06-08T14:00:50.000Z</time>
      </trkpt>
      <trkpt lat="43.526894" lon="5.246076">
        <ele>110.532193</ele>
        <time>2017-06-08T14:00:52.000Z</time>
      </trkpt>
      <trkpt lat="43.526764" lon="5.246043">
        <ele>110.258793</ele>
        <time>2017-06-08T14:00:54.000Z</time>
      </trkpt>
      <trkpt lat="43.526638" lon="5.246013">
        <ele>109.994327</ele>
        <time>2017-06-08T14:00:56.000Z</time>
      </trkpt>
      <trkpt lat="43.526520" lon="5.245981">
        <ele>109.605749</ele>
        <time>2017-06-08T14:00:58.000Z</time>
      </trkpt>
      <trkpt lat="43.526400" lon="5.245950">
        <ele>109.189262</ele>
        <time>2017-06-08T14:01:00.000Z</time>
      </trkpt>
      <trkpt lat="43.526287" lon="5.245917">
        <ele>108.795227</ele>
        <time>2017-06-08T14:01:02.000Z</time>
      </trkpt>
      <trkpt lat="43.526176" lon="5.245892">
        <ele>108.411546</ele>
        <time>2017-06-08T14:01:04.000Z</time>
      </trkpt>
      <trkpt lat="43.526054" lon="5.245870">
        <ele>107.991814</ele>
        <time>2017-06-08T14:01:06.000Z</time>
      </trkpt>
      <trkpt lat="43.525936" lon="5.245849">
        <ele>107.585931</ele>
        <time>2017-06-08T14:01:08.000Z</time>
      </trkpt>
      <trkpt lat="43.525814" lon="5.245834">
        <ele>107.168090</ele>
        <time>2017-06-08T14:01:10.000Z</time>
      </trkpt>
      <trkpt lat="43.525684" lon="5.245820">
        <ele>106.723259</ele>
        <time>2017-06-08T14:01:12.000Z</time>
      </trkpt>
      <trkpt lat="43.525560" lon="5.245812">
        <ele>106.299783</ele>
        <time>2017-06-08T14:01:14.000Z</time>
      </trkpt>
      <trkpt lat="43.525436" lon="5.245813">
        <ele>105.876763</ele>
        <time>2017-06-08T14:01:16.000Z</time>
      </trkpt>
      <trkpt lat="43.525320" lon="5.245807">
        <ele>105.480762</ele>
        <time>2017-06-08T14:01:18.000Z</time>
      </trkpt>
      <trkpt lat="43.525204" lon="5.245811">
        <ele>105.084917</ele>
        <time>2017-06-08T14:01:20.000Z</time>
      </trkpt>
      <trkpt lat="43.525090" lon="5.245806">
        <ele>104.695821</ele>
        <time>2017-06-08T14:01:22.000Z</time>
      </trkpt>
      <trkpt lat="43.524980" lon="5.245806">
        <ele>104.320567</ele>
        <time>2017-06-08T14:01:24.000Z</time>
      </trkpt>
      <trkpt lat="43.524868" lon="5.245805">
        <ele>103.938483</ele>
        <time>2017-06-08T14:01:26.000Z</time>
      </trkpt>
      <trkpt lat="43.524750" lon="5.245808">
        <ele>103.662257</ele>
        <time>2017-06-08T14:01:28.000Z</time>
      </trkpt>
      <trkpt lat="43.524630" lon="5.245799">
        <ele>103.431457</ele>
        <time>2017-06-08T14:01:30.000Z</time>
      </trkpt>
      <trkpt lat="43.524510" lon="5.245809">
        <ele>103.200576</ele>
        <time>2017-06-08T14:01:32.000Z</time>
      </trkpt>
      <trkpt lat="43.524390" lon="5.245807">
        <ele>102.970100</ele>
        <time>2017-06-08T14:01:34.000Z</time>
      </trkpt>
      <trkpt lat="43.524280" lon="5.245798">
        <ele>102.758473</ele>
        <time>2017-06-08T14:01:36.000Z</time>
      </trkpt>
      <trkpt lat="43.524174" lon="5.245780">
        <ele>102.553363</ele>
        <time>2017-06-08T14:01:38.000Z</time>
      </trkpt>
      <trkpt lat="43.524067" lon="5.245763">
        <ele>102.346511</ele>
        <time>2017-06-08T14:01:40.000Z</time>
      </trkpt>
      <trkpt lat="43.523960" lon="5.245746">
        <ele>102.139658</ele>
        <time>2017-06-08T14:01:42.000Z</time>
      </trkpt>
      <trkpt lat="43.523846" lon="5.245725">
        <ele>101.918777</ele>
        <time>2017-06-08T14:01:44.000Z</time>
      </trkpt>
      <trkpt lat="43.523735" lon="5.245699">
        <ele>101.702549</ele>
        <time>2017-06-08T14:01:46.000Z</time>
      </trkpt>
      <trkpt lat="43.523620" lon="5.245667">
        <ele>101.477241</ele>
        <time>2017-06-08T14:01:48.000Z</time>
      </trkpt>
      <trkpt lat="43.523502" lon="5.245631">
        <ele>101.245143</ele>
        <time>2017-06-08T14:01:50.000Z</time>
      </trkpt>
      <trkpt lat="43.523390" lon="5.245593">
        <ele>101.023634</ele>
        <time>2017-06-08T14:01:52.000Z</time>
      </trkpt>
      <trkpt lat="43.523273" lon="5.245565">
        <ele>100.795578</ele>
        <time>2017-06-08T14:01:54.000Z</time>
      </trkpt>
      <trkpt lat="43.523163" lon="5.245535">
        <ele>100.580232</ele>
        <time>2017-06-08T14:01:56.000Z</time>
      </trkpt>
      <trkpt lat="43.523040" lon="5.245519">
        <ele>100.371450</ele>
        <time>2017-06-08T14:01:58.000Z</time>
      </trkpt>
      <trkpt lat="43.522920" lon="5.245504">
        <ele>100.377102</ele>
        <time>2017-06-08T14:02:00.000Z</time>
      </trkpt>
      <trkpt lat="43.522793" lon="5.245494">
        <ele>100.383070</ele>
        <time>2017-06-08T14:02:02.000Z</time>
      </trkpt>
      <trkpt lat="43.522667" lon="5.245480">
        <ele>100.389000</ele>
        <time>2017-06-08T14:02:04.000Z</time>
      </trkpt>
      <trkpt lat="43.522545" lon="5.245462">
        <ele>100.394756</ele>
        <time>2017-06-08T14:02:06.000Z</time>
      </trkpt>
      <trkpt lat="43.522427" lon="5.245435">
        <ele>100.400368</ele>
        <time>2017-06-08T14:02:08.000Z</time>
      </trkpt>
      <trkpt lat="43.522310" lon="5.245404">
        <ele>100.405957</ele>
        <time>2017-06-08T14:02:10.000Z</time>
      </trkpt>
      <trkpt lat="43.522190" lon="5.245370">
        <ele>100.411704</ele>
        <time>2017-06-08T14:02:12.000Z</time>
      </trkpt>
      <trkpt lat="43.522076" lon="5.245336">
        <ele>100.417176</ele>
        <time>2017-06-08T14:02:14.000Z</time>
      </trkpt>
      <trkpt lat="43.521957" lon="5.245299">
        <ele>100.422899</ele>
        <time>2017-06-08T14:02:16.000Z</time>
      </trkpt>
      <trkpt lat="43.521843" lon="5.245264">
        <ele>100.428378</ele>
        <time>2017-06-08T14:02:18.000Z</time>
      </trkpt>
      <trkpt lat="43.521730" lon="5.245226">
        <ele>100.433834</ele>
        <time>2017-06-08T14:02:20.000Z</time>
      </trkpt>
      <trkpt lat="43.521614" lon="5.245185">
        <ele>100.439452</ele>
        <time>2017-06-08T14:02:22.000Z</time>
      </trkpt>
      <trkpt lat="43.521507" lon="5.245142">
        <ele>100.444680</ele>
        <time>2017-06-08T14:02:24.000Z</time>
      </trkpt>
      <trkpt lat="43.521397" lon="5.245103">
        <ele>100.450008</ele>
        <time>2017-06-08T14:02:26.000Z</time>
      </trkpt>
      <trkpt lat="43.521294" lon="5.245065">
        <ele>100.455010</ele>
        <time>2017-06-08T14:02:28.000Z</time>
      </trkpt>
      <trkpt lat="43.521183" lon="5.245028">
        <ele>100.570262</ele>
        <time>2017-06-08T14:02:30.000Z</time>
      </trkpt>
      <trkpt lat="43.521080" lon="5.244999">
        <ele>100.679066</ele>
        <time>2017-06-08T14:02:32.000Z</time>
      </trkpt>
      <trkpt lat="43.520977" lon="5.244975">
        <ele>100.787183</ele>
        <time>2017-06-08T14:02:34.000Z</time>
      </trkpt>
      <trkpt lat="43.520874" lon="5.244964">
        <ele>100.894108</ele>
        <time>2017-06-08T14:02:36.000Z</time>
      </trkpt>
      <trkpt lat="43.520775" lon="5.244958">
        <ele>100.996673</ele>
        <time>2017-06-08T14:02:38.000Z</time>
      </trkpt>
      <trkpt lat="43.520670" lon="5.244957">
        <ele>101.105351</ele>
        <time>2017-06-08T14:02:40.000Z</time>
      </trkpt>
      <trkpt lat="43.520576" lon="5.244951">
        <ele>101.202746</ele>
        <time>2017-06-08T14:02:42.000Z</time>
      </trkpt>
      <trkpt lat="43.520462" lon="5.244942">
        <ele>101.320930</ele>
        <time>2017-06-08T14:02:44.000Z</time>
      </trkpt>
      <trkpt lat="43.520355" lon="5.244946">
        <ele>101.431717</ele>
        <time>2017-06-08T14:02:46.000Z</time>
      </trkpt>
      <trkpt lat="43.520256" lon="5.244959">
        <ele>101.534646</ele>
        <time>2017-06-08T14:02:48.000Z</time>
      </trkpt>
      <trkpt lat="43.520145" lon="5.244961">
        <ele>101.649541</ele>
        <time>2017-06-08T14:02:50.000Z</time>
      </trkpt>
      <trkpt lat="43.520042" lon="5.244966">
        <ele>101.756213</ele>
        <time>2017-06-08T14:02:52.000Z</time>
      </trkpt>
      <trkpt lat="43.519930" lon="5.244968">
        <ele>101.872144</ele>
        <time>2017-06-08T14:02:54.000Z</time>
      </trkpt>
      <trkpt lat="43.519830" lon="5.244971">
        <ele>101.975669</ele>
        <time>2017-06-08T14:02:56.000Z</time>
      </trkpt>
      <trkpt lat="43.519726" lon="5.244972">
        <ele>102.083312</ele>
        <time>2017-06-08T14:02:58.000Z</time>
      </trkpt>
      <trkpt lat="43.519630" lon="5.244972">
        <ele>102.182673</ele>
        <time>2017-06-08T14:03:00.000Z</time>
      </trkpt>
      <trkpt lat="43.519530" lon="5.244970">
        <ele>102.286185</ele>
        <time>2017-06-08T14:03:02.000Z</time>
      </trkpt>
      <trkpt lat="43.519440" lon="5.244966">
        <ele>102.422040</ele>
        <time>2017-06-08T14:03:04.000Z</time>
      </trkpt>
      <trkpt lat="43.519310" lon="5.244962">
        <ele>102.648295</ele>
        <time>2017-06-08T14:03:07.000Z</time>
      </trkpt>
      <trkpt lat="43.519188" lon="5.244952">
        <ele>102.860949</ele>
        <time>2017-06-08T14:03:10.000Z</time>
      </trkpt>
      <trkpt lat="43.519062" lon="5.244932">
        <ele>103.081636</ele>
        <time>2017-06-08T14:03:13.000Z</time>
      </trkpt>
      <trkpt lat="43.518948" lon="5.244906">
        <ele>103.282689</ele>
        <time>2017-06-08T14:03:16.000Z</time>
      </trkpt>
      <trkpt lat="43.518833" lon="5.244875">
        <ele>103.486576</ele>
        <time>2017-06-08T14:03:19.000Z</time>
      </trkpt>
      <trkpt lat="43.518715" lon="5.244832">
        <ele>103.698942</ele>
        <time>2017-06-08T14:03:22.000Z</time>
      </trkpt>
      <trkpt lat="43.518600" lon="5.244791">
        <ele>103.905620</ele>
        <time>2017-06-08T14:03:25.000Z</time>
      </trkpt>
      <trkpt lat="43.518480" lon="5.244756">
        <ele>104.119039</ele>
        <time>2017-06-08T14:03:28.000Z</time>
      </trkpt>
      <trkpt lat="43.518360" lon="5.244714">
        <ele>104.334458</ele>
        <time>2017-06-08T14:03:31.000Z</time>
      </trkpt>
      <trkpt lat="43.518238" lon="5.244678">
        <ele>104.551543</ele>
        <time>2017-06-08T14:03:34.000Z</time>
      </trkpt>
      <trkpt lat="43.518116" lon="5.244647">
        <ele>104.767395</ele>
        <time>2017-06-08T14:03:37.000Z</time>
      </trkpt>
      <trkpt lat="43.517990" lon="5.244622">
        <ele>104.988892</ele>
        <time>2017-06-08T14:03:40.000Z</time>
      </trkpt>
      <trkpt lat="43.517870" lon="5.244598">
        <ele>105.199876</ele>
        <time>2017-06-08T14:03:43.000Z</time>
      </trkpt>
      <trkpt lat="43.517757" lon="5.244589">
        <ele>105.396823</ele>
        <time>2017-06-08T14:03:46.000Z</time>
      </trkpt>
      <trkpt lat="43.517635" lon="5.244587">
        <ele>105.699526</ele>
        <time>2017-06-08T14:03:49.000Z</time>
      </trkpt>
      <trkpt lat="43.517510" lon="5.244590">
        <ele>106.037913</ele>
        <time>2017-06-08T14:03:52.000Z</time>
      </trkpt>
      <trkpt lat="43.517380" lon="5.244602">
        <ele>106.390569</ele>
        <time>2017-06-08T14:03:55.000Z</time>
      </trkpt>
      <trkpt lat="43.517254" lon="5.244619">
        <ele>106.733240</ele>
        <time>2017-06-08T14:03:58.000Z</time>
      </trkpt>
      <trkpt lat="43.517120" lon="5.244659">
        <ele>107.104337</ele>
        <time>2017-06-08T14:04:01.000Z</time>
      </trkpt>
      <trkpt lat="43.517030" lon="5.244683">
        <ele>107.352452</ele>
        <time>2017-06-08T14:04:03.000Z</time>
      </trkpt>
      <trkpt lat="43.516937" lon="5.244704">
        <ele>107.607526</ele>
        <time>2017-06-08T14:04:05.000Z</time>
      </trkpt>
      <trkpt lat="43.516840" lon="5.244724">
        <ele>107.872993</ele>
        <time>2017-06-08T14:04:07.000Z</time>
      </trkpt>
      <trkpt lat="43.516754" lon="5.244753">
        <ele>108.112627</ele>
        <time>2017-06-08T14:04:09.000Z</time>
      </trkpt>
      <trkpt lat="43.516663" lon="5.244781">
        <ele>108.364992</ele>
        <time>2017-06-08T14:04:11.000Z</time>
      </trkpt>
      <trkpt lat="43.516570" lon="5.244809">
        <ele>108.622644</ele>
        <time>2017-06-08T14:04:13.000Z</time>
      </trkpt>
      <trkpt lat="43.516480" lon="5.244837">
        <ele>108.872369</ele>
        <time>2017-06-08T14:04:15.000Z</time>
      </trkpt>
      <trkpt lat="43.516390" lon="5.244859">
        <ele>109.119768</ele>
        <time>2017-06-08T14:04:17.000Z</time>
      </trkpt>
      <trkpt lat="43.516304" lon="5.244885">
        <ele>109.358072</ele>
        <time>2017-06-08T14:04:19.000Z</time>
      </trkpt>
      <trkpt lat="43.516170" lon="5.244921">
        <ele>109.727587</ele>
        <time>2017-06-08T14:04:22.000Z</time>
      </trkpt>
      <trkpt lat="43.516083" lon="5.244953">
        <ele>109.971302</ele>
        <time>2017-06-08T14:04:24.000Z</time>
      </trkpt>
      <trkpt lat="43.515990" lon="5.244985">
        <ele>110.230742</ele>
        <time>2017-06-08T14:04:26.000Z</time>
      </trkpt>
      <trkpt lat="43.515860" lon="5.245020">
        <ele>110.320343</ele>
        <time>2017-06-08T14:04:29.000Z</time>
      </trkpt>
      <trkpt lat="43.515770" lon="5.245043">
        <ele>110.325391</ele>
        <time>2017-06-08T14:04:31.000Z</time>
      </trkpt>
      <trkpt lat="43.515680" lon="5.245059">
        <ele>110.330396</ele>
        <time>2017-06-08T14:04:33.000Z</time>
      </trkpt>
      <trkpt lat="43.515550" lon="5.245073">
        <ele>110.337587</ele>
        <time>2017-06-08T14:04:36.000Z</time>
      </trkpt>
      <trkpt lat="43.515415" lon="5.245088">
        <ele>110.345057</ele>
        <time>2017-06-08T14:04:39.000Z</time>
      </trkpt>
      <trkpt lat="43.515324" lon="5.245082">
        <ele>110.350081</ele>
        <time>2017-06-08T14:04:41.000Z</time>
      </trkpt>
      <trkpt lat="43.515232" lon="5.245082">
        <ele>110.355155</ele>
        <time>2017-06-08T14:04:43.000Z</time>
      </trkpt>
      <trkpt lat="43.515137" lon="5.245075">
        <ele>110.360402</ele>
        <time>2017-06-08T14:04:45.000Z</time>
      </trkpt>
      <trkpt lat="43.515050" lon="5.245057">
        <ele>110.365254</ele>
        <time>2017-06-08T14:04:47.000Z</time>
      </trkpt>
      <trkpt lat="43.514957" lon="5.245037">
        <ele>110.370445</ele>
        <time>2017-06-08T14:04:49.000Z</time>
      </trkpt>
      <trkpt lat="43.514835" lon="5.244985">
        <ele>110.377487</ele>
        <time>2017-06-08T14:04:52.000Z</time>
      </trkpt>
      <trkpt lat="43.514760" lon="5.244861">
        <ele>110.383945</ele>
        <time>2017-06-08T14:04:55.000Z</time>
      </trkpt>
      <trkpt lat="43.514656" lon="5.244751">
        <ele>110.391174</ele>
        <time>2017-06-08T14:04:58.000Z</time>
      </trkpt>
      <trkpt lat="43.514557" lon="5.244726">
        <ele>110.396724</ele>
        <time>2017-06-08T14:05:00.000Z</time>
      </trkpt>
      <trkpt lat="43.514454" lon="5.244750">
        <ele>110.402486</ele>
        <time>2017-06-08T14:05:02.000Z</time>
      </trkpt>
      <trkpt lat="43.514350" lon="5.244787">
        <ele>110.408409</ele>
        <time>2017-06-08T14:05:04.000Z</time>
      </trkpt>
      <trkpt lat="43.514240" lon="5.244795">
        <ele>110.408908</ele>
        <time>2017-06-08T14:05:06.000Z</time>
      </trkpt>
      <trkpt lat="43.514126" lon="5.244762">
        <ele>110.348709</ele>
        <time>2017-06-08T14:05:08.000Z</time>
      </trkpt>
      <trkpt lat="43.514023" lon="5.244711">
        <ele>110.292152</ele>
        <time>2017-06-08T14:05:10.000Z</time>
      </trkpt>
      <trkpt lat="43.513916" lon="5.244661">
        <ele>110.233766</ele>
        <time>2017-06-08T14:05:12.000Z</time>
      </trkpt>
      <trkpt lat="43.513813" lon="5.244604">
        <ele>110.176409</ele>
        <time>2017-06-08T14:05:14.000Z</time>
      </trkpt>
      <trkpt lat="43.513710" lon="5.244539">
        <ele>110.117870</ele>
        <time>2017-06-08T14:05:16.000Z</time>
      </trkpt>
      <trkpt lat="43.513620" lon="5.244463">
        <ele>110.063330</ele>
        <time>2017-06-08T14:05:18.000Z</time>
      </trkpt>
      <trkpt lat="43.513515" lon="5.244390">
        <ele>110.002559</ele>
        <time>2017-06-08T14:05:20.000Z</time>
      </trkpt>
      <trkpt lat="43.513416" lon="5.244316">
        <ele>109.944363</ele>
        <time>2017-06-08T14:05:22.000Z</time>
      </trkpt>
      <trkpt lat="43.513317" lon="5.244233">
        <ele>109.884486</ele>
        <time>2017-06-08T14:05:24.000Z</time>
      </trkpt>
      <trkpt lat="43.513218" lon="5.244161">
        <ele>109.826643</ele>
        <time>2017-06-08T14:05:26.000Z</time>
      </trkpt>
      <trkpt lat="43.513120" lon="5.244088">
        <ele>109.769080</ele>
        <time>2017-06-08T14:05:28.000Z</time>
      </trkpt>
      <trkpt lat="43.513016" lon="5.244012">
        <ele>109.708252</ele>
        <time>2017-06-08T14:05:30.000Z</time>
      </trkpt>
      <trkpt lat="43.512917" lon="5.243939">
        <ele>109.650233</ele>
        <time>2017-06-08T14:05:32.000Z</time>
      </trkpt>
      <trkpt lat="43.512814" lon="5.243865">
        <ele>109.590211</ele>
        <time>2017-06-08T14:05:34.000Z</time>
      </trkpt>
      <trkpt lat="43.512710" lon="5.243788">
        <ele>109.529207</ele>
        <time>2017-06-08T14:05:36.000Z</time>
      </trkpt>
      <trkpt lat="43.512615" lon="5.243707">
        <ele>109.477708</ele>
        <time>2017-06-08T14:05:38.000Z</time>
      </trkpt>
      <trkpt lat="43.512520" lon="5.243616">
        <ele>109.446697</ele>
        <time>2017-06-08T14:05:40.000Z</time>
      </trkpt>
      <trkpt lat="43.512424" lon="5.243521">
        <ele>109.415018</ele>
        <time>2017-06-08T14:05:42.000Z</time>
      </trkpt>
      <trkpt lat="43.512333" lon="5.243421">
        <ele>109.383822</ele>
        <time>2017-06-08T14:05:44.000Z</time>
      </trkpt>
      <trkpt lat="43.512245" lon="5.243312">
        <ele>109.352109</ele>
        <time>2017-06-08T14:05:46.000Z</time>
      </trkpt>
      <trkpt lat="43.512170" lon="5.243202">
        <ele>109.322754</ele>
        <time>2017-06-08T14:05:48.000Z</time>
      </trkpt>
      <trkpt lat="43.512093" lon="5.243088">
        <ele>109.292465</ele>
        <time>2017-06-08T14:05:50.000Z</time>
      </trkpt>
      <trkpt lat="43.512024" lon="5.242982">
        <ele>109.264772</ele>
        <time>2017-06-08T14:05:52.000Z</time>
      </trkpt>
      <trkpt lat="43.511955" lon="5.242873">
        <ele>109.236641</ele>
        <time>2017-06-08T14:05:54.000Z</time>
      </trkpt>
      <trkpt lat="43.511887" lon="5.242769">
        <ele>109.209416</ele>
        <time>2017-06-08T14:05:56.000Z</time>
      </trkpt>
      <trkpt lat="43.511818" lon="5.242665">
        <ele>109.182011</ele>
        <time>2017-06-08T14:05:58.000Z</time>
      </trkpt>
      <trkpt lat="43.511740" lon="5.242559">
        <ele>109.152650</ele>
        <time>2017-06-08T14:06:00.000Z</time>
      </trkpt>
      <trkpt lat="43.511677" lon="5.242448">
        <ele>109.125245</ele>
        <time>2017-06-08T14:06:02.000Z</time>
      </trkpt>
      <trkpt lat="43.511610" lon="5.242342">
        <ele>109.097907</ele>
        <time>2017-06-08T14:06:04.000Z</time>
      </trkpt>
      <trkpt lat="43.511543" lon="5.242245">
        <ele>109.071862</ele>
        <time>2017-06-08T14:06:06.000Z</time>
      </trkpt>
      <trkpt lat="43.511480" lon="5.242145">
        <ele>109.046107</ele>
        <time>2017-06-08T14:06:08.000Z</time>
      </trkpt>
      <trkpt lat="43.511417" lon="5.242047">
        <ele>109.020645</ele>
        <time>2017-06-08T14:06:10.000Z</time>
      </trkpt>
      <trkpt lat="43.511345" lon="5.241938">
        <ele>108.878359</ele>
        <time>2017-06-08T14:06:12.000Z</time>
      </trkpt>
      <trkpt lat="43.511265" lon="5.241831">
        <ele>108.516818</ele>
        <time>2017-06-08T14:06:14.000Z</time>
      </trkpt>
      <trkpt lat="43.511185" lon="5.241727">
        <ele>108.160155</ele>
        <time>2017-06-08T14:06:16.000Z</time>
      </trkpt>
      <trkpt lat="43.511093" lon="5.241621">
        <ele>107.771243</ele>
        <time>2017-06-08T14:06:18.000Z</time>
      </trkpt>
      <trkpt lat="43.511005" lon="5.241508">
        <ele>107.381166</ele>
        <time>2017-06-08T14:06:20.000Z</time>
      </trkpt>
      <trkpt lat="43.510906" lon="5.241401">
        <ele>106.973121</ele>
        <time>2017-06-08T14:06:22.000Z</time>
      </trkpt>
      <trkpt lat="43.510796" lon="5.241291">
        <ele>106.532331</ele>
        <time>2017-06-08T14:06:24.000Z</time>
      </trkpt>
      <trkpt lat="43.510690" lon="5.241178">
        <ele>106.097697</ele>
        <time>2017-06-08T14:06:26.000Z</time>
      </trkpt>
      <trkpt lat="43.510574" lon="5.241065">
        <ele>105.636972</ele>
        <time>2017-06-08T14:06:28.000Z</time>
      </trkpt>
      <trkpt lat="43.510464" lon="5.240952">
        <ele>105.192001</ele>
        <time>2017-06-08T14:06:30.000Z</time>
      </trkpt>
      <trkpt lat="43.510353" lon="5.240834">
        <ele>104.737339</ele>
        <time>2017-06-08T14:06:32.000Z</time>
      </trkpt>
      <trkpt lat="43.510240" lon="5.240725">
        <ele>104.289987</ele>
        <time>2017-06-08T14:06:34.000Z</time>
      </trkpt>
      <trkpt lat="43.510128" lon="5.240619">
        <ele>103.849320</ele>
        <time>2017-06-08T14:06:36.000Z</time>
      </trkpt>
      <trkpt lat="43.510017" lon="5.240526">
        <ele>103.427987</ele>
        <time>2017-06-08T14:06:38.000Z</time>
      </trkpt>
      <trkpt lat="43.509910" lon="5.240439">
        <ele>103.019911</ele>
        <time>2017-06-08T14:06:40.000Z</time>
      </trkpt>
      <trkpt lat="43.509800" lon="5.240356">
        <ele>102.598526</ele>
        <time>2017-06-08T14:06:42.000Z</time>
      </trkpt>
      <trkpt lat="43.509690" lon="5.240285">
        <ele>102.190374</ele>
        <time>2017-06-08T14:06:44.000Z</time>
      </trkpt>
      <trkpt lat="43.509583" lon="5.240216">
        <ele>101.793420</ele>
        <time>2017-06-08T14:06:46.000Z</time>
      </trkpt>
      <trkpt lat="43.509460" lon="5.240146">
        <ele>101.346254</ele>
        <time>2017-06-08T14:06:48.000Z</time>
      </trkpt>
      <trkpt lat="43.509340" lon="5.240080">
        <ele>100.912097</ele>
        <time>2017-06-08T14:06:50.000Z</time>
      </trkpt>
      <trkpt lat="43.509210" lon="5.240014">
        <ele>100.446559</ele>
        <time>2017-06-08T14:06:52.000Z</time>
      </trkpt>
      <trkpt lat="43.509070" lon="5.239936">
        <ele>99.939133</ele>
        <time>2017-06-08T14:06:54.000Z</time>
      </trkpt>
      <trkpt lat="43.508934" lon="5.239861">
        <ele>99.446906</ele>
        <time>2017-06-08T14:06:56.000Z</time>
      </trkpt>
      <trkpt lat="43.508793" lon="5.239781">
        <ele>98.934528</ele>
        <time>2017-06-08T14:06:58.000Z</time>
      </trkpt>
      <trkpt lat="43.508648" lon="5.239698">
        <ele>98.406934</ele>
        <time>2017-06-08T14:07:00.000Z</time>
      </trkpt>
      <trkpt lat="43.508507" lon="5.239605">
        <ele>97.881680</ele>
        <time>2017-06-08T14:07:02.000Z</time>
      </trkpt>
      <trkpt lat="43.508370" lon="5.239512">
        <ele>97.368519</ele>
        <time>2017-06-08T14:07:04.000Z</time>
      </trkpt>
      <trkpt lat="43.508236" lon="5.239419">
        <ele>96.889832</ele>
        <time>2017-06-08T14:07:06.000Z</time>
      </trkpt>
      <trkpt lat="43.508106" lon="5.239321">
        <ele>96.440871</ele>
        <time>2017-06-08T14:07:08.000Z</time>
      </trkpt>
      <trkpt lat="43.507984" lon="5.239224">
        <ele>96.014124</ele>
        <time>2017-06-08T14:07:10.000Z</time>
      </trkpt>
      <trkpt lat="43.507860" lon="5.239129">
        <ele>95.584268</ele>
        <time>2017-06-08T14:07:12.000Z</time>
      </trkpt>
      <trkpt lat="43.507732" lon="5.239029">
        <ele>95.138464</ele>
        <time>2017-06-08T14:07:14.000Z</time>
      </trkpt>
      <trkpt lat="43.507614" lon="5.238921">
        <ele>94.709289</ele>
        <time>2017-06-08T14:07:16.000Z</time>
      </trkpt>
      <trkpt lat="43.507490" lon="5.238815">
        <ele>94.267185</ele>
        <time>2017-06-08T14:07:18.000Z</time>
      </trkpt>
      <trkpt lat="43.507370" lon="5.238728">
        <ele>93.856354</ele>
        <time>2017-06-08T14:07:20.000Z</time>
      </trkpt>
      <trkpt lat="43.507256" lon="5.238644">
        <ele>93.464674</ele>
        <time>2017-06-08T14:07:22.000Z</time>
      </trkpt>
      <trkpt lat="43.507150" lon="5.238573">
        <ele>93.107576</ele>
        <time>2017-06-08T14:07:24.000Z</time>
      </trkpt>
      <trkpt lat="43.507053" lon="5.238530">
        <ele>92.798827</ele>
        <time>2017-06-08T14:07:26.000Z</time>
      </trkpt>
      <trkpt lat="43.506927" lon="5.238476">
        <ele>92.399001</ele>
        <time>2017-06-08T14:07:29.000Z</time>
      </trkpt>
      <trkpt lat="43.506832" lon="5.238423">
        <ele>92.088458</ele>
        <time>2017-06-08T14:07:32.000Z</time>
      </trkpt>
      <trkpt lat="43.506737" lon="5.238397">
        <ele>91.794972</ele>
        <time>2017-06-08T14:07:37.000Z</time>
      </trkpt>
      <trkpt lat="43.506596" lon="5.238408">
        <ele>91.543422</ele>
        <time>2017-06-08T14:08:49.000Z</time>
      </trkpt>
      <trkpt lat="43.506480" lon="5.238397">
        <ele>91.394172</ele>
        <time>2017-06-08T14:08:52.000Z</time>
      </trkpt>
      <trkpt lat="43.506344" lon="5.238392">
        <ele>91.219540</ele>
        <time>2017-06-08T14:08:55.000Z</time>
      </trkpt>
      <trkpt lat="43.506245" lon="5.238392">
        <ele>91.092463</ele>
        <time>2017-06-08T14:08:57.000Z</time>
      </trkpt>
      <trkpt lat="43.506140" lon="5.238390">
        <ele>90.957672</ele>
        <time>2017-06-08T14:08:59.000Z</time>
      </trkpt>
      <trkpt lat="43.506040" lon="5.238390">
        <ele>90.829311</ele>
        <time>2017-06-08T14:09:01.000Z</time>
      </trkpt>
      <trkpt lat="43.505928" lon="5.238393">
        <ele>90.685521</ele>
        <time>2017-06-08T14:09:03.000Z</time>
      </trkpt>
      <trkpt lat="43.505820" lon="5.238391">
        <ele>90.546879</ele>
        <time>2017-06-08T14:09:05.000Z</time>
      </trkpt>
      <trkpt lat="43.505707" lon="5.238401">
        <ele>90.401533</ele>
        <time>2017-06-08T14:09:07.000Z</time>
      </trkpt>
      <trkpt lat="43.505596" lon="5.238403">
        <ele>90.259041</ele>
        <time>2017-06-08T14:09:09.000Z</time>
      </trkpt>
      <trkpt lat="43.505480" lon="5.238401">
        <ele>90.110131</ele>
        <time>2017-06-08T14:09:11.000Z</time>
      </trkpt>
      <trkpt lat="43.505367" lon="5.238389">
        <ele>89.964654</ele>
        <time>2017-06-08T14:09:13.000Z</time>
      </trkpt>
      <trkpt lat="43.505253" lon="5.238383">
        <ele>89.818217</ele>
        <time>2017-06-08T14:09:15.000Z</time>
      </trkpt>
      <trkpt lat="43.505140" lon="5.238362">
        <ele>89.671858</ele>
        <time>2017-06-08T14:09:17.000Z</time>
      </trkpt>
      <trkpt lat="43.505028" lon="5.238339">
        <ele>89.526508</ele>
        <time>2017-06-08T14:09:19.000Z</time>
      </trkpt>
      <trkpt lat="43.504917" lon="5.238316">
        <ele>89.382428</ele>
        <time>2017-06-08T14:09:21.000Z</time>
      </trkpt>
      <trkpt lat="43.504807" lon="5.238282">
        <ele>89.251064</ele>
        <time>2017-06-08T14:09:23.000Z</time>
      </trkpt>
      <trkpt lat="43.504692" lon="5.238247">
        <ele>89.115823</ele>
        <time>2017-06-08T14:09:25.000Z</time>
      </trkpt>
      <trkpt lat="43.504585" lon="5.238199">
        <ele>88.986607</ele>
        <time>2017-06-08T14:09:27.000Z</time>
      </trkpt>
      <trkpt lat="43.504470" lon="5.238157">
        <ele>88.849990</ele>
        <time>2017-06-08T14:09:29.000Z</time>
      </trkpt>
      <trkpt lat="43.504356" lon="5.238115">
        <ele>88.714483</ele>
        <time>2017-06-08T14:09:31.000Z</time>
      </trkpt>
      <trkpt lat="43.504246" lon="5.238062">
        <ele>88.580672</ele>
        <time>2017-06-08T14:09:33.000Z</time>
      </trkpt>
      <trkpt lat="43.504130" lon="5.238007">
        <ele>88.439804</ele>
        <time>2017-06-08T14:09:35.000Z</time>
      </trkpt>
      <trkpt lat="43.504020" lon="5.237946">
        <ele>88.303649</ele>
        <time>2017-06-08T14:09:37.000Z</time>
      </trkpt>
      <trkpt lat="43.503920" lon="5.237887">
        <ele>88.178739</ele>
        <time>2017-06-08T14:09:39.000Z</time>
      </trkpt>
      <trkpt lat="43.503826" lon="5.237820">
        <ele>88.057221</ele>
        <time>2017-06-08T14:09:41.000Z</time>
      </trkpt>
      <trkpt lat="43.503730" lon="5.237758">
        <ele>87.935482</ele>
        <time>2017-06-08T14:09:43.000Z</time>
      </trkpt>
      <trkpt lat="43.503635" lon="5.237691">
        <ele>87.812942</ele>
        <time>2017-06-08T14:09:45.000Z</time>
      </trkpt>
      <trkpt lat="43.503560" lon="5.237596">
        <ele>87.695983</ele>
        <time>2017-06-08T14:09:47.000Z</time>
      </trkpt>
      <trkpt lat="43.503470" lon="5.237524">
        <ele>87.576490</ele>
        <time>2017-06-08T14:09:49.000Z</time>
      </trkpt>
      <trkpt lat="43.503350" lon="5.237487">
        <ele>87.435283</ele>
        <time>2017-06-08T14:09:51.000Z</time>
      </trkpt>
      <trkpt lat="43.503242" lon="5.237410">
        <ele>87.294506</ele>
        <time>2017-06-08T14:09:53.000Z</time>
      </trkpt>
      <trkpt lat="43.503130" lon="5.237355">
        <ele>87.108216</ele>
        <time>2017-06-08T14:09:55.000Z</time>
      </trkpt>
      <trkpt lat="43.503033" lon="5.237305">
        <ele>86.945953</ele>
        <time>2017-06-08T14:09:57.000Z</time>
      </trkpt>
      <trkpt lat="43.502930" lon="5.237229">
        <ele>86.762904</ele>
        <time>2017-06-08T14:09:59.000Z</time>
      </trkpt>
      <trkpt lat="43.502830" lon="5.237142">
        <ele>86.577626</ele>
        <time>2017-06-08T14:10:01.000Z</time>
      </trkpt>
      <trkpt lat="43.502728" lon="5.237050">
        <ele>86.386640</ele>
        <time>2017-06-08T14:10:03.000Z</time>
      </trkpt>
      <trkpt lat="43.502630" lon="5.236954">
        <ele>86.198270</ele>
        <time>2017-06-08T14:10:05.000Z</time>
      </trkpt>
      <trkpt lat="43.502525" lon="5.236857">
        <ele>86.000227</ele>
        <time>2017-06-08T14:10:07.000Z</time>
      </trkpt>
      <trkpt lat="43.502426" lon="5.236754">
        <ele>85.805892</ele>
        <time>2017-06-08T14:10:09.000Z</time>
      </trkpt>
      <trkpt lat="43.502335" lon="5.236650">
        <ele>85.620685</ele>
        <time>2017-06-08T14:10:11.000Z</time>
      </trkpt>
      <trkpt lat="43.502240" lon="5.236535">
        <ele>85.422594</ele>
        <time>2017-06-08T14:10:13.000Z</time>
      </trkpt>
      <trkpt lat="43.502144" lon="5.236411">
        <ele>85.216469</ele>
        <time>2017-06-08T14:10:15.000Z</time>
      </trkpt>
      <trkpt lat="43.502056" lon="5.236287">
        <ele>85.019305</ele>
        <time>2017-06-08T14:10:17.000Z</time>
      </trkpt>
      <trkpt lat="43.501965" lon="5.236161">
        <ele>84.817220</ele>
        <time>2017-06-08T14:10:19.000Z</time>
      </trkpt>
      <trkpt lat="43.501880" lon="5.236027">
        <ele>84.614903</ele>
        <time>2017-06-08T14:10:21.000Z</time>
      </trkpt>
      <trkpt lat="43.501800" lon="5.235899">
        <ele>84.468887</ele>
        <time>2017-06-08T14:10:23.000Z</time>
      </trkpt>
      <trkpt lat="43.501724" lon="5.235766">
        <ele>84.429952</ele>
        <time>2017-06-08T14:10:25.000Z</time>
      </trkpt>
      <trkpt lat="43.501648" lon="5.235634">
        <ele>84.391197</ele>
        <time>2017-06-08T14:10:27.000Z</time>
      </trkpt>
      <trkpt lat="43.501575" lon="5.235515">
        <ele>84.355358</ele>
        <time>2017-06-08T14:10:29.000Z</time>
      </trkpt>
      <trkpt lat="43.501510" lon="5.235407">
        <ele>84.323086</ele>
        <time>2017-06-08T14:10:31.000Z</time>
      </trkpt>
      <trkpt lat="43.501450" lon="5.235295">
        <ele>84.291068</ele>
        <time>2017-06-08T14:10:33.000Z</time>
      </trkpt>
      <trkpt lat="43.501392" lon="5.235196">
        <ele>84.261804</ele>
        <time>2017-06-08T14:10:35.000Z</time>
      </trkpt>
      <trkpt lat="43.501330" lon="5.235089">
        <ele>84.230311</ele>
        <time>2017-06-08T14:10:37.000Z</time>
      </trkpt>
      <trkpt lat="43.501270" lon="5.234989">
        <ele>84.200467</ele>
        <time>2017-06-08T14:10:39.000Z</time>
      </trkpt>
      <trkpt lat="43.501217" lon="5.234880">
        <ele>84.170291</ele>
        <time>2017-06-08T14:10:41.000Z</time>
      </trkpt>
      <trkpt lat="43.501156" lon="5.234777">
        <ele>84.139713</ele>
        <time>2017-06-08T14:10:43.000Z</time>
      </trkpt>
      <trkpt lat="43.501095" lon="5.234674">
        <ele>84.109135</ele>
        <time>2017-06-08T14:10:45.000Z</time>
      </trkpt>
      <trkpt lat="43.501034" lon="5.234565">
        <ele>84.077476</ele>
        <time>2017-06-08T14:10:47.000Z</time>
      </trkpt>
      <trkpt lat="43.500965" lon="5.234461">
        <ele>84.045065</ele>
        <time>2017-06-08T14:10:49.000Z</time>
      </trkpt>
      <trkpt lat="43.500900" lon="5.234347">
        <ele>84.011720</ele>
        <time>2017-06-08T14:10:51.000Z</time>
      </trkpt>
      <trkpt lat="43.500835" lon="5.234234">
        <ele>83.978555</ele>
        <time>2017-06-08T14:10:53.000Z</time>
      </trkpt>
      <trkpt lat="43.500774" lon="5.234120">
        <ele>83.945978</ele>
        <time>2017-06-08T14:10:55.000Z</time>
      </trkpt>
      <trkpt lat="43.500706" lon="5.234013">
        <ele>83.913264</ele>
        <time>2017-06-08T14:10:57.000Z</time>
      </trkpt>
      <trkpt lat="43.500640" lon="5.233899">
        <ele>83.897559</ele>
        <time>2017-06-08T14:10:59.000Z</time>
      </trkpt>
      <trkpt lat="43.500576" lon="5.233782">
        <ele>83.883494</ele>
        <time>2017-06-08T14:11:01.000Z</time>
      </trkpt>
      <trkpt lat="43.500510" lon="5.233664">
        <ele>83.869193</ele>
        <time>2017-06-08T14:11:03.000Z</time>
      </trkpt>
      <trkpt lat="43.500443" lon="5.233551">
        <ele>83.855185</ele>
        <time>2017-06-08T14:11:05.000Z</time>
      </trkpt>
      <trkpt lat="43.500374" lon="5.233437">
        <ele>83.840934</ele>
        <time>2017-06-08T14:11:07.000Z</time>
      </trkpt>
      <trkpt lat="43.500310" lon="5.233321">
        <ele>83.826946</ele>
        <time>2017-06-08T14:11:09.000Z</time>
      </trkpt>
      <trkpt lat="43.500240" lon="5.233207">
        <ele>83.812611</ele>
        <time>2017-06-08T14:11:11.000Z</time>
      </trkpt>
      <trkpt lat="43.500170" lon="5.233101">
        <ele>83.798852</ele>
        <time>2017-06-08T14:11:13.000Z</time>
      </trkpt>
      <trkpt lat="43.500100" lon="5.232986">
        <ele>83.784443</ele>
        <time>2017-06-08T14:11:15.000Z</time>
      </trkpt>
      <trkpt lat="43.500027" lon="5.232871">
        <ele>83.769776</ele>
        <time>2017-06-08T14:11:17.000Z</time>
      </trkpt>
      <trkpt lat="43.499943" lon="5.232767">
        <ele>83.754837</ele>
        <time>2017-06-08T14:11:19.000Z</time>
      </trkpt>
      <trkpt lat="43.499860" lon="5.232664">
        <ele>83.740060</ele>
        <time>2017-06-08T14:11:21.000Z</time>
      </trkpt>
      <trkpt lat="43.499780" lon="5.232557">
        <ele>83.725312</ele>
        <time>2017-06-08T14:11:23.000Z</time>
      </trkpt>
      <trkpt lat="43.499695" lon="5.232465">
        <ele>83.711012</ele>
        <time>2017-06-08T14:11:25.000Z</time>
      </trkpt>
      <trkpt lat="43.499607" lon="5.232378">
        <ele>83.696684</ele>
        <time>2017-06-08T14:11:27.000Z</time>
      </trkpt>
      <trkpt lat="43.499523" lon="5.232297">
        <ele>83.683120</ele>
        <time>2017-06-08T14:11:29.000Z</time>
      </trkpt>
      <trkpt lat="43.499440" lon="5.232218">
        <ele>83.627804</ele>
        <time>2017-06-08T14:11:31.000Z</time>
      </trkpt>
      <trkpt lat="43.499350" lon="5.232142">
        <ele>83.385729</ele>
        <time>2017-06-08T14:11:33.000Z</time>
      </trkpt>
      <trkpt lat="43.499268" lon="5.232063">
        <ele>83.156275</ele>
        <time>2017-06-08T14:11:35.000Z</time>
      </trkpt>
      <trkpt lat="43.499184" lon="5.231978">
        <ele>82.917279</ele>
        <time>2017-06-08T14:11:37.000Z</time>
      </trkpt>
      <trkpt lat="43.499090" lon="5.231903">
        <ele>82.668171</ele>
        <time>2017-06-08T14:11:39.000Z</time>
      </trkpt>
      <trkpt lat="43.498993" lon="5.231834">
        <ele>82.417817</ele>
        <time>2017-06-08T14:11:41.000Z</time>
      </trkpt>
      <trkpt lat="43.498882" lon="5.231768">
        <ele>82.140552</ele>
        <time>2017-06-08T14:11:43.000Z</time>
      </trkpt>
      <trkpt lat="43.498756" lon="5.231690">
        <ele>81.823755</ele>
        <time>2017-06-08T14:11:45.000Z</time>
      </trkpt>
      <trkpt lat="43.498623" lon="5.231611">
        <ele>81.491590</ele>
        <time>2017-06-08T14:11:47.000Z</time>
      </trkpt>
      <trkpt lat="43.498474" lon="5.231542">
        <ele>81.131073</ele>
        <time>2017-06-08T14:11:49.000Z</time>
      </trkpt>
      <trkpt lat="43.498318" lon="5.231468">
        <ele>80.752676</ele>
        <time>2017-06-08T14:11:51.000Z</time>
      </trkpt>
      <trkpt lat="43.498230" lon="5.231429">
        <ele>80.540663</ele>
        <time>2017-06-08T14:11:52.000Z</time>
      </trkpt>
      <trkpt lat="43.498050" lon="5.231368">
        <ele>80.115518</ele>
        <time>2017-06-08T14:11:54.000Z</time>
      </trkpt>
      <trkpt lat="43.497960" lon="5.231330">
        <ele>79.899626</ele>
        <time>2017-06-08T14:11:55.000Z</time>
      </trkpt>
      <trkpt lat="43.497864" lon="5.231278">
        <ele>79.663050</ele>
        <time>2017-06-08T14:11:56.000Z</time>
      </trkpt>
      <trkpt lat="43.497765" lon="5.231237">
        <ele>79.605152</ele>
        <time>2017-06-08T14:11:57.000Z</time>
      </trkpt>
      <trkpt lat="43.497680" lon="5.231190">
        <ele>79.706269</ele>
        <time>2017-06-08T14:11:58.000Z</time>
      </trkpt>
      <trkpt lat="43.497517" lon="5.231131">
        <ele>79.892338</ele>
        <time>2017-06-08T14:12:00.000Z</time>
      </trkpt>
      <trkpt lat="43.497380" lon="5.231081">
        <ele>80.048811</ele>
        <time>2017-06-08T14:12:02.000Z</time>
      </trkpt>
      <trkpt lat="43.497253" lon="5.231024">
        <ele>80.196277</ele>
        <time>2017-06-08T14:12:04.000Z</time>
      </trkpt>
      <trkpt lat="43.497147" lon="5.230975">
        <ele>80.319717</ele>
        <time>2017-06-08T14:12:06.000Z</time>
      </trkpt>
      <trkpt lat="43.497040" lon="5.230928">
        <ele>80.443709</ele>
        <time>2017-06-08T14:12:08.000Z</time>
      </trkpt>
      <trkpt lat="43.496952" lon="5.230894">
        <ele>80.544614</ele>
        <time>2017-06-08T14:12:10.000Z</time>
      </trkpt>
      <trkpt lat="43.496857" lon="5.230876">
        <ele>80.650490</ele>
        <time>2017-06-08T14:12:12.000Z</time>
      </trkpt>
      <trkpt lat="43.496770" lon="5.230849">
        <ele>80.748951</ele>
        <time>2017-06-08T14:12:14.000Z</time>
      </trkpt>
      <trkpt lat="43.496677" lon="5.230836">
        <ele>80.852159</ele>
        <time>2017-06-08T14:12:16.000Z</time>
      </trkpt>
      <trkpt lat="43.496582" lon="5.230830">
        <ele>80.957159</ele>
        <time>2017-06-08T14:12:18.000Z</time>
      </trkpt>
      <trkpt lat="43.496452" lon="5.230821">
        <ele>81.100873</ele>
        <time>2017-06-08T14:12:21.000Z</time>
      </trkpt>
      <trkpt lat="43.496323" lon="5.230830">
        <ele>81.243485</ele>
        <time>2017-06-08T14:12:24.000Z</time>
      </trkpt>
      <trkpt lat="43.496230" lon="5.230835">
        <ele>81.346245</ele>
        <time>2017-06-08T14:12:26.000Z</time>
      </trkpt>
      <trkpt lat="43.496100" lon="5.230841">
        <ele>81.489859</ele>
        <time>2017-06-08T14:12:29.000Z</time>
      </trkpt>
      <trkpt lat="43.495970" lon="5.230848">
        <ele>81.446783</ele>
        <time>2017-06-08T14:12:32.000Z</time>
      </trkpt>
      <trkpt lat="43.495842" lon="5.230868">
        <ele>81.325267</ele>
        <time>2017-06-08T14:12:35.000Z</time>
      </trkpt>
      <trkpt lat="43.495747" lon="5.230886">
        <ele>81.234810</ele>
        <time>2017-06-08T14:12:37.000Z</time>
      </trkpt>
      <trkpt lat="43.495644" lon="5.230906">
        <ele>81.136690</ele>
        <time>2017-06-08T14:12:39.000Z</time>
      </trkpt>
      <trkpt lat="43.495544" lon="5.230930">
        <ele>81.040941</ele>
        <time>2017-06-08T14:12:41.000Z</time>
      </trkpt>
      <trkpt lat="43.495434" lon="5.230960">
        <ele>80.935166</ele>
        <time>2017-06-08T14:12:43.000Z</time>
      </trkpt>
      <trkpt lat="43.495316" lon="5.230995">
        <ele>80.821308</ele>
        <time>2017-06-08T14:12:45.000Z</time>
      </trkpt>
      <trkpt lat="43.495205" lon="5.231022">
        <ele>80.714983</ele>
        <time>2017-06-08T14:12:47.000Z</time>
      </trkpt>
      <trkpt lat="43.495090" lon="5.231072">
        <ele>80.601235</ele>
        <time>2017-06-08T14:12:49.000Z</time>
      </trkpt>
      <trkpt lat="43.494984" lon="5.231117">
        <ele>80.496610</ele>
        <time>2017-06-08T14:12:51.000Z</time>
      </trkpt>
      <trkpt lat="43.494890" lon="5.231184">
        <ele>80.396788</ele>
        <time>2017-06-08T14:12:53.000Z</time>
      </trkpt>
      <trkpt lat="43.494810" lon="5.231271">
        <ele>80.300666</ele>
        <time>2017-06-08T14:12:55.000Z</time>
      </trkpt>
      <trkpt lat="43.494736" lon="5.231365">
        <ele>80.205743</ele>
        <time>2017-06-08T14:12:57.000Z</time>
      </trkpt>
      <trkpt lat="43.494656" lon="5.231466">
        <ele>80.103411</ele>
        <time>2017-06-08T14:12:59.000Z</time>
      </trkpt>
      <trkpt lat="43.494587" lon="5.231576">
        <ele>80.003899</ele>
        <time>2017-06-08T14:13:01.000Z</time>
      </trkpt>
      <trkpt lat="43.494507" lon="5.231637">
        <ele>79.917659</ele>
        <time>2017-06-08T14:13:03.000Z</time>
      </trkpt>
      <trkpt lat="43.494390" lon="5.231652">
        <ele>79.841725</ele>
        <time>2017-06-08T14:13:06.000Z</time>
      </trkpt>
      <trkpt lat="43.494293" lon="5.231631">
        <ele>79.859368</ele>
        <time>2017-06-08T14:13:10.000Z</time>
      </trkpt>
      <trkpt lat="43.494316" lon="5.231769">
        <ele>79.877826</ele>
        <time>2017-06-08T14:13:33.000Z</time>
      </trkpt>
      <trkpt lat="43.494286" lon="5.231919">
        <ele>79.898109</ele>
        <time>2017-06-08T14:13:37.000Z</time>
      </trkpt>
      <trkpt lat="43.494286" lon="5.232083">
        <ele>79.919487</ele>
        <time>2017-06-08T14:13:41.000Z</time>
      </trkpt>
      <trkpt lat="43.494240" lon="5.232201">
        <ele>79.936950</ele>
        <time>2017-06-08T14:13:44.000Z</time>
      </trkpt>
      <trkpt lat="43.494180" lon="5.232311">
        <ele>79.954890</ele>
        <time>2017-06-08T14:13:47.000Z</time>
      </trkpt>
      <trkpt lat="43.494118" lon="5.232431">
        <ele>79.974095</ele>
        <time>2017-06-08T14:13:50.000Z</time>
      </trkpt>
      <trkpt lat="43.494050" lon="5.232562">
        <ele>79.995093</ele>
        <time>2017-06-08T14:13:53.000Z</time>
      </trkpt>
      <trkpt lat="43.493980" lon="5.232702">
        <ele>80.017257</ele>
        <time>2017-06-08T14:13:56.000Z</time>
      </trkpt>
      <trkpt lat="43.493916" lon="5.232829">
        <ele>80.037415</ele>
        <time>2017-06-08T14:13:59.000Z</time>
      </trkpt>
      <trkpt lat="43.493843" lon="5.232959">
        <ele>80.058845</ele>
        <time>2017-06-08T14:14:02.000Z</time>
      </trkpt>
      <trkpt lat="43.493763" lon="5.233081">
        <ele>80.080283</ele>
        <time>2017-06-08T14:14:05.000Z</time>
      </trkpt>
      <trkpt lat="43.493680" lon="5.233190">
        <ele>80.100882</ele>
        <time>2017-06-08T14:14:08.000Z</time>
      </trkpt>
      <trkpt lat="43.493590" lon="5.233292">
        <ele>80.121819</ele>
        <time>2017-06-08T14:14:11.000Z</time>
      </trkpt>
      <trkpt lat="43.493496" lon="5.233366">
        <ele>80.141271</ele>
        <time>2017-06-08T14:14:14.000Z</time>
      </trkpt>
      <trkpt lat="43.493393" lon="5.233460">
        <ele>80.161129</ele>
        <time>2017-06-08T14:14:17.000Z</time>
      </trkpt>
      <trkpt lat="43.493275" lon="5.233532">
        <ele>80.171181</ele>
        <time>2017-06-08T14:14:20.000Z</time>
      </trkpt>
      <trkpt lat="43.493150" lon="5.233595">
        <ele>80.181547</ele>
        <time>2017-06-08T14:14:23.000Z</time>
      </trkpt>
      <trkpt lat="43.493027" lon="5.233651">
        <ele>80.191637</ele>
        <time>2017-06-08T14:14:26.000Z</time>
      </trkpt>
      <trkpt lat="43.492940" lon="5.233679">
        <ele>80.198595</ele>
        <time>2017-06-08T14:14:28.000Z</time>
      </trkpt>
      <trkpt lat="43.492847" lon="5.233707">
        <ele>80.206010</ele>
        <time>2017-06-08T14:14:30.000Z</time>
      </trkpt>
      <trkpt lat="43.492756" lon="5.233727">
        <ele>80.213187</ele>
        <time>2017-06-08T14:14:32.000Z</time>
      </trkpt>
      <trkpt lat="43.492660" lon="5.233723">
        <ele>80.220668</ele>
        <time>2017-06-08T14:14:34.000Z</time>
      </trkpt>
      <trkpt lat="43.492560" lon="5.233745">
        <ele>80.228556</ele>
        <time>2017-06-08T14:14:36.000Z</time>
      </trkpt>
      <trkpt lat="43.492455" lon="5.233761">
        <ele>80.236784</ele>
        <time>2017-06-08T14:14:38.000Z</time>
      </trkpt>
      <trkpt lat="43.492355" lon="5.233762">
        <ele>80.244573</ele>
        <time>2017-06-08T14:14:40.000Z</time>
      </trkpt>
      <trkpt lat="43.492226" lon="5.233759">
        <ele>80.254622</ele>
        <time>2017-06-08T14:14:43.000Z</time>
      </trkpt>
      <trkpt lat="43.492126" lon="5.233699">
        <ele>80.263117</ele>
        <time>2017-06-08T14:14:46.000Z</time>
      </trkpt>
      <trkpt lat="43.492080" lon="5.233523">
        <ele>80.273688</ele>
        <time>2017-06-08T14:14:49.000Z</time>
      </trkpt>
      <trkpt lat="43.492046" lon="5.233398">
        <ele>80.281232</ele>
        <time>2017-06-08T14:14:51.000Z</time>
      </trkpt>
      <trkpt lat="43.491974" lon="5.233317">
        <ele>80.288470</ele>
        <time>2017-06-08T14:14:53.000Z</time>
      </trkpt>
      <trkpt lat="43.491840" lon="5.233351">
        <ele>80.299083</ele>
        <time>2017-06-08T14:14:56.000Z</time>
      </trkpt>
      <trkpt lat="43.491764" lon="5.233429">
        <ele>80.348365</ele>
        <time>2017-06-08T14:14:58.000Z</time>
      </trkpt>
      <trkpt lat="43.491684" lon="5.233560">
        <ele>80.415739</ele>
        <time>2017-06-08T14:15:01.000Z</time>
      </trkpt>
      <trkpt lat="43.491566" lon="5.233635">
        <ele>80.486212</ele>
        <time>2017-06-08T14:15:04.000Z</time>
      </trkpt>
      <trkpt lat="43.491440" lon="5.233664">
        <ele>80.555495</ele>
        <time>2017-06-08T14:15:07.000Z</time>
      </trkpt>
      <trkpt lat="43.491314" lon="5.233679">
        <ele>80.624085</ele>
        <time>2017-06-08T14:15:10.000Z</time>
      </trkpt>
      <trkpt lat="43.491196" lon="5.233666">
        <ele>80.688287</ele>
        <time>2017-06-08T14:15:13.000Z</time>
      </trkpt>
      <trkpt lat="43.491096" lon="5.233658">
        <ele>80.742613</ele>
        <time>2017-06-08T14:15:16.000Z</time>
      </trkpt>
      <trkpt lat="43.490986" lon="5.233655">
        <ele>80.802283</ele>
        <time>2017-06-08T14:15:20.000Z</time>
      </trkpt>
      <trkpt lat="43.490880" lon="5.233601">
        <ele>80.863573</ele>
        <time>2017-06-08T14:15:24.000Z</time>
      </trkpt>
      <trkpt lat="43.490780" lon="5.233544">
        <ele>80.922262</ele>
        <time>2017-06-08T14:15:27.000Z</time>
      </trkpt>
      <trkpt lat="43.490658" lon="5.233482">
        <ele>80.992783</ele>
        <time>2017-06-08T14:15:30.000Z</time>
      </trkpt>
      <trkpt lat="43.490570" lon="5.233442">
        <ele>81.043038</ele>
        <time>2017-06-08T14:15:32.000Z</time>
      </trkpt>
      <trkpt lat="43.490460" lon="5.233384">
        <ele>81.106912</ele>
        <time>2017-06-08T14:15:35.000Z</time>
      </trkpt>
      <trkpt lat="43.490350" lon="5.233331">
        <ele>81.170111</ele>
        <time>2017-06-08T14:15:38.000Z</time>
      </trkpt>
      <trkpt lat="43.490257" lon="5.233273">
        <ele>81.225472</ele>
        <time>2017-06-08T14:15:41.000Z</time>
      </trkpt>
      <trkpt lat="43.490215" lon="5.233151">
        <ele>81.263001</ele>
        <time>2017-06-08T14:15:45.000Z</time>
      </trkpt>
      <trkpt lat="43.490265" lon="5.233010">
        <ele>81.062494</ele>
        <time>2017-06-08T14:15:49.000Z</time>
      </trkpt>
      <trkpt lat="43.490230" lon="5.232895">
        <ele>80.903166</ele>
        <time>2017-06-08T14:15:52.000Z</time>
      </trkpt>
      <trkpt lat="43.490147" lon="5.232846">
        <ele>80.744161</ele>
        <time>2017-06-08T14:15:55.000Z</time>
      </trkpt>
      <trkpt lat="43.490050" lon="5.232779">
        <ele>80.553096</ele>
        <time>2017-06-08T14:16:00.000Z</time>
      </trkpt>
      <trkpt lat="43.489980" lon="5.232697">
        <ele>80.391323</ele>
        <time>2017-06-08T14:16:05.000Z</time>
      </trkpt>
      <trkpt lat="43.489883" lon="5.232644">
        <ele>80.207574</ele>
        <time>2017-06-08T14:16:11.000Z</time>
      </trkpt>
      <trkpt lat="43.489796" lon="5.232544">
        <ele>80.008087</ele>
        <time>2017-06-08T14:16:15.000Z</time>
      </trkpt>
      <trkpt lat="43.489710" lon="5.232473">
        <ele>79.831553</ele>
        <time>2017-06-08T14:16:18.000Z</time>
      </trkpt>
      <trkpt lat="43.489635" lon="5.232406">
        <ele>79.674165</ele>
        <time>2017-06-08T14:16:21.000Z</time>
      </trkpt>
      <trkpt lat="43.489536" lon="5.232315">
        <ele>79.464616</ele>
        <time>2017-06-08T14:16:25.000Z</time>
      </trkpt>
      <trkpt lat="43.489456" lon="5.232250">
        <ele>79.301081</ele>
        <time>2017-06-08T14:16:28.000Z</time>
      </trkpt>
      <trkpt lat="43.489365" lon="5.232202">
        <ele>79.129496</ele>
        <time>2017-06-08T14:16:31.000Z</time>
      </trkpt>
      <trkpt lat="43.489260" lon="5.232128">
        <ele>78.921823</ele>
        <time>2017-06-08T14:16:35.000Z</time>
      </trkpt>
      <trkpt lat="43.489220" lon="5.231997">
        <ele>78.740237</ele>
        <time>2017-06-08T14:16:40.000Z</time>
      </trkpt>
      <trkpt lat="43.489240" lon="5.231870">
        <ele>78.574201</ele>
        <time>2017-06-08T14:16:43.000Z</time>
      </trkpt>
      <trkpt lat="43.489246" lon="5.231745">
        <ele>78.414150</ele>
        <time>2017-06-08T14:16:46.000Z</time>
      </trkpt>
      <trkpt lat="43.489140" lon="5.231667">
        <ele>78.202549</ele>
        <time>2017-06-08T14:16:50.000Z</time>
      </trkpt>
      <trkpt lat="43.489033" lon="5.231619">
        <ele>78.084217</ele>
        <time>2017-06-08T14:16:53.000Z</time>
      </trkpt>
      <trkpt lat="43.488934" lon="5.231563">
        <ele>78.041635</ele>
        <time>2017-06-08T14:16:56.000Z</time>
      </trkpt>
      <trkpt lat="43.488850" lon="5.231481">
        <ele>78.000676</ele>
        <time>2017-06-08T14:16:59.000Z</time>
      </trkpt>
      <trkpt lat="43.488754" lon="5.231385">
        <ele>77.953482</ele>
        <time>2017-06-08T14:17:03.000Z</time>
      </trkpt>
      <trkpt lat="43.488663" lon="5.231353">
        <ele>77.916112</ele>
        <time>2017-06-08T14:17:06.000Z</time>
      </trkpt>
      <trkpt lat="43.488544" lon="5.231354">
        <ele>77.868759</ele>
        <time>2017-06-08T14:17:09.000Z</time>
      </trkpt>
      <trkpt lat="43.488420" lon="5.231350">
        <ele>77.819404</ele>
        <time>2017-06-08T14:17:12.000Z</time>
      </trkpt>
      <trkpt lat="43.488308" lon="5.231343">
        <ele>77.774792</ele>
        <time>2017-06-08T14:17:15.000Z</time>
      </trkpt>
      <trkpt lat="43.488200" lon="5.231344">
        <ele>77.731817</ele>
        <time>2017-06-08T14:17:18.000Z</time>
      </trkpt>
      <trkpt lat="43.488090" lon="5.231352">
        <ele>77.687985</ele>
        <time>2017-06-08T14:17:22.000Z</time>
      </trkpt>
      <trkpt lat="43.487990" lon="5.231391">
        <ele>77.646632</ele>
        <time>2017-06-08T14:17:28.000Z</time>
      </trkpt>
      <trkpt lat="43.487823" lon="5.231406">
        <ele>77.580039</ele>
        <time>2017-06-08T14:18:03.000Z</time>
      </trkpt>
      <trkpt lat="43.487730" lon="5.231405">
        <ele>77.543032</ele>
        <time>2017-06-08T14:18:06.000Z</time>
      </trkpt>
      <trkpt lat="43.487606" lon="5.231396">
        <ele>77.493622</ele>
        <time>2017-06-08T14:18:09.000Z</time>
      </trkpt>
      <trkpt lat="43.487480" lon="5.231386">
        <ele>77.443402</ele>
        <time>2017-06-08T14:18:12.000Z</time>
      </trkpt>
      <trkpt lat="43.487362" lon="5.231383">
        <ele>77.396440</ele>
        <time>2017-06-08T14:18:16.000Z</time>
      </trkpt>
      <trkpt lat="43.487260" lon="5.231381">
        <ele>77.215323</ele>
        <time>2017-06-08T14:18:18.000Z</time>
      </trkpt>
      <trkpt lat="43.487160" lon="5.231373">
        <ele>77.019724</ele>
        <time>2017-06-08T14:18:21.000Z</time>
      </trkpt>
      <trkpt lat="43.487057" lon="5.231375">
        <ele>76.818575</ele>
        <time>2017-06-08T14:18:24.000Z</time>
      </trkpt>
      <trkpt lat="43.486940" lon="5.231371">
        <ele>76.590039</ele>
        <time>2017-06-08T14:18:27.000Z</time>
      </trkpt>
      <trkpt lat="43.486830" lon="5.231371">
        <ele>76.375242</ele>
        <time>2017-06-08T14:18:30.000Z</time>
      </trkpt>
      <trkpt lat="43.486730" lon="5.231368">
        <ele>76.179925</ele>
        <time>2017-06-08T14:18:33.000Z</time>
      </trkpt>
      <trkpt lat="43.486630" lon="5.231371">
        <ele>75.984609</ele>
        <time>2017-06-08T14:18:36.000Z</time>
      </trkpt>
      <trkpt lat="43.486515" lon="5.231381">
        <ele>75.759601</ele>
        <time>2017-06-08T14:18:39.000Z</time>
      </trkpt>
      <trkpt lat="43.486385" lon="5.231380">
        <ele>75.505746</ele>
        <time>2017-06-08T14:18:42.000Z</time>
      </trkpt>
      <trkpt lat="43.486294" lon="5.231377">
        <ele>75.327999</ele>
        <time>2017-06-08T14:18:44.000Z</time>
      </trkpt>
      <trkpt lat="43.486168" lon="5.231400">
        <ele>75.079810</ele>
        <time>2017-06-08T14:18:47.000Z</time>
      </trkpt>
      <trkpt lat="43.486057" lon="5.231407">
        <ele>74.862834</ele>
        <time>2017-06-08T14:18:50.000Z</time>
      </trkpt>
      <trkpt lat="43.486004" lon="5.231259">
        <ele>74.629002</ele>
        <time>2017-06-08T14:18:54.000Z</time>
      </trkpt>
      <trkpt lat="43.486034" lon="5.231121">
        <ele>74.424900</ele>
        <time>2017-06-08T14:18:56.000Z</time>
      </trkpt>
      <trkpt lat="43.486088" lon="5.230999">
        <ele>74.222429</ele>
        <time>2017-06-08T14:18:58.000Z</time>
      </trkpt>
      <trkpt lat="43.486115" lon="5.230850">
        <ele>74.004847</ele>
        <time>2017-06-08T14:19:00.000Z</time>
      </trkpt>
      <trkpt lat="43.486160" lon="5.230686">
        <ele>73.891086</ele>
        <time>2017-06-08T14:19:02.000Z</time>
      </trkpt>
      <trkpt lat="43.486217" lon="5.230570">
        <ele>73.909599</ele>
        <time>2017-06-08T14:19:04.000Z</time>
      </trkpt>
      <trkpt lat="43.486286" lon="5.230451">
        <ele>73.929729</ele>
        <time>2017-06-08T14:19:08.000Z</time>
      </trkpt>
      <trkpt lat="43.486313" lon="5.230323">
        <ele>73.947344</ele>
        <time>2017-06-08T14:19:12.000Z</time>
      </trkpt>
      <trkpt lat="43.486210" lon="5.230252">
        <ele>73.968319</ele>
        <time>2017-06-08T14:19:15.000Z</time>
      </trkpt>
      <trkpt lat="43.486080" lon="5.230243">
        <ele>73.992027</ele>
        <time>2017-06-08T14:19:18.000Z</time>
      </trkpt>
      <trkpt lat="43.485947" lon="5.230214">
        <ele>74.016552</ele>
        <time>2017-06-08T14:19:21.000Z</time>
      </trkpt>
      <trkpt lat="43.485855" lon="5.230189">
        <ele>74.033631</ele>
        <time>2017-06-08T14:19:23.000Z</time>
      </trkpt>
      <trkpt lat="43.485760" lon="5.230169">
        <ele>74.051134</ele>
        <time>2017-06-08T14:19:25.000Z</time>
      </trkpt>
      <trkpt lat="43.485660" lon="5.230164">
        <ele>74.069359</ele>
        <time>2017-06-08T14:19:27.000Z</time>
      </trkpt>
      <trkpt lat="43.485565" lon="5.230163">
        <ele>74.086663</ele>
        <time>2017-06-08T14:19:29.000Z</time>
      </trkpt>
      <trkpt lat="43.485466" lon="5.230167">
        <ele>74.104702</ele>
        <time>2017-06-08T14:19:31.000Z</time>
      </trkpt>
      <trkpt lat="43.485363" lon="5.230169">
        <ele>74.123463</ele>
        <time>2017-06-08T14:19:33.000Z</time>
      </trkpt>
      <trkpt lat="43.485256" lon="5.230175">
        <ele>74.142968</ele>
        <time>2017-06-08T14:19:35.000Z</time>
      </trkpt>
      <trkpt lat="43.485150" lon="5.230183">
        <ele>74.162303</ele>
        <time>2017-06-08T14:19:37.000Z</time>
      </trkpt>
      <trkpt lat="43.485043" lon="5.230183">
        <ele>74.181791</ele>
        <time>2017-06-08T14:19:39.000Z</time>
      </trkpt>
      <trkpt lat="43.484947" lon="5.230182">
        <ele>74.199276</ele>
        <time>2017-06-08T14:19:41.000Z</time>
      </trkpt>
      <trkpt lat="43.484844" lon="5.230179">
        <ele>74.174874</ele>
        <time>2017-06-08T14:19:43.000Z</time>
      </trkpt>
      <trkpt lat="43.484750" lon="5.230184">
        <ele>74.123835</ele>
        <time>2017-06-08T14:19:45.000Z</time>
      </trkpt>
      <trkpt lat="43.484646" lon="5.230180">
        <ele>74.067386</ele>
        <time>2017-06-08T14:19:47.000Z</time>
      </trkpt>
      <trkpt lat="43.484547" lon="5.230177">
        <ele>74.013659</ele>
        <time>2017-06-08T14:19:49.000Z</time>
      </trkpt>
      <trkpt lat="43.484447" lon="5.230176">
        <ele>73.959401</ele>
        <time>2017-06-08T14:19:51.000Z</time>
      </trkpt>
      <trkpt lat="43.484350" lon="5.230175">
        <ele>73.906770</ele>
        <time>2017-06-08T14:19:53.000Z</time>
      </trkpt>
      <trkpt lat="43.484250" lon="5.230176">
        <ele>73.852512</ele>
        <time>2017-06-08T14:19:55.000Z</time>
      </trkpt>
      <trkpt lat="43.484158" lon="5.230173">
        <ele>73.802582</ele>
        <time>2017-06-08T14:19:57.000Z</time>
      </trkpt>
      <trkpt lat="43.484062" lon="5.230156">
        <ele>73.750067</ele>
        <time>2017-06-08T14:19:59.000Z</time>
      </trkpt>
      <trkpt lat="43.483932" lon="5.230128">
        <ele>73.678678</ele>
        <time>2017-06-08T14:20:02.000Z</time>
      </trkpt>
      <trkpt lat="43.483820" lon="5.230121">
        <ele>73.617848</ele>
        <time>2017-06-08T14:20:06.000Z</time>
      </trkpt>
      <trkpt lat="43.483707" lon="5.230132">
        <ele>73.556385</ele>
        <time>2017-06-08T14:20:10.000Z</time>
      </trkpt>
      <trkpt lat="43.483585" lon="5.230141">
        <ele>73.490097</ele>
        <time>2017-06-08T14:20:13.000Z</time>
      </trkpt>
      <trkpt lat="43.483498" lon="5.230134">
        <ele>73.442813</ele>
        <time>2017-06-08T14:20:15.000Z</time>
      </trkpt>
      <trkpt lat="43.483402" lon="5.230137">
        <ele>73.390713</ele>
        <time>2017-06-08T14:20:17.000Z</time>
      </trkpt>
      <trkpt lat="43.483307" lon="5.230132">
        <ele>73.339132</ele>
        <time>2017-06-08T14:20:19.000Z</time>
      </trkpt>
      <trkpt lat="43.483210" lon="5.230134">
        <ele>73.286497</ele>
        <time>2017-06-08T14:20:21.000Z</time>
      </trkpt>
      <trkpt lat="43.483120" lon="5.230138">
        <ele>73.237640</ele>
        <time>2017-06-08T14:20:23.000Z</time>
      </trkpt>
      <trkpt lat="43.482998" lon="5.230143">
        <ele>73.322548</ele>
        <time>2017-06-08T14:20:26.000Z</time>
      </trkpt>
      <trkpt lat="43.482864" lon="5.230150">
        <ele>73.433392</ele>
        <time>2017-06-08T14:20:29.000Z</time>
      </trkpt>
      <trkpt lat="43.482727" lon="5.230160">
        <ele>73.546795</ele>
        <time>2017-06-08T14:20:32.000Z</time>
      </trkpt>
      <trkpt lat="43.482613" lon="5.230177">
        <ele>73.641577</ele>
        <time>2017-06-08T14:20:35.000Z</time>
      </trkpt>
      <trkpt lat="43.482502" lon="5.230189">
        <ele>73.733612</ele>
        <time>2017-06-08T14:20:38.000Z</time>
      </trkpt>
      <trkpt lat="43.482384" lon="5.230198">
        <ele>73.831300</ele>
        <time>2017-06-08T14:20:41.000Z</time>
      </trkpt>
      <trkpt lat="43.482258" lon="5.230202">
        <ele>73.935480</ele>
        <time>2017-06-08T14:20:44.000Z</time>
      </trkpt>
      <trkpt lat="43.482130" lon="5.230214">
        <ele>74.041529</ele>
        <time>2017-06-08T14:20:47.000Z</time>
      </trkpt>
      <trkpt lat="43.482037" lon="5.230210">
        <ele>74.118441</ele>
        <time>2017-06-08T14:20:49.000Z</time>
      </trkpt>
      <trkpt lat="43.481940" lon="5.230210">
        <ele>74.198621</ele>
        <time>2017-06-08T14:20:51.000Z</time>
      </trkpt>
      <trkpt lat="43.481850" lon="5.230215">
        <ele>74.273076</ele>
        <time>2017-06-08T14:20:53.000Z</time>
      </trkpt>
      <trkpt lat="43.481754" lon="5.230221">
        <ele>74.352511</ele>
        <time>2017-06-08T14:20:55.000Z</time>
      </trkpt>
      <trkpt lat="43.481660" lon="5.230227">
        <ele>74.430295</ele>
        <time>2017-06-08T14:20:57.000Z</time>
      </trkpt>
      <trkpt lat="43.481564" lon="5.230235">
        <ele>74.509793</ele>
        <time>2017-06-08T14:20:59.000Z</time>
      </trkpt>
      <trkpt lat="43.481472" lon="5.230249">
        <ele>74.586303</ele>
        <time>2017-06-08T14:21:01.000Z</time>
      </trkpt>
      <trkpt lat="43.481373" lon="5.230250">
        <ele>74.668139</ele>
        <time>2017-06-08T14:21:03.000Z</time>
      </trkpt>
      <trkpt lat="43.481277" lon="5.230260">
        <ele>74.734354</ele>
        <time>2017-06-08T14:21:05.000Z</time>
      </trkpt>
      <trkpt lat="43.481186" lon="5.230269">
        <ele>74.775775</ele>
        <time>2017-06-08T14:21:07.000Z</time>
      </trkpt>
      <trkpt lat="43.481094" lon="5.230281">
        <ele>74.817730</ele>
        <time>2017-06-08T14:21:09.000Z</time>
      </trkpt>
      <trkpt lat="43.481003" lon="5.230300">
        <ele>74.859516</ele>
        <time>2017-06-08T14:21:11.000Z</time>
      </trkpt>
      <trkpt lat="43.480907" lon="5.230322">
        <ele>74.903699</ele>
        <time>2017-06-08T14:21:13.000Z</time>
      </trkpt>
      <trkpt lat="43.480812" lon="5.230350">
        <ele>74.947806</ele>
        <time>2017-06-08T14:21:15.000Z</time>
      </trkpt>
      <trkpt lat="43.480724" lon="5.230377">
        <ele>74.988736</ele>
        <time>2017-06-08T14:21:17.000Z</time>
      </trkpt>
      <trkpt lat="43.480630" lon="5.230404">
        <ele>75.032330</ele>
        <time>2017-06-08T14:21:19.000Z</time>
      </trkpt>
      <trkpt lat="43.480530" lon="5.230429">
        <ele>75.078472</ele>
        <time>2017-06-08T14:21:21.000Z</time>
      </trkpt>
      <trkpt lat="43.480430" lon="5.230448">
        <ele>75.124302</ele>
        <time>2017-06-08T14:21:23.000Z</time>
      </trkpt>
      <trkpt lat="43.480330" lon="5.230474">
        <ele>75.170504</ele>
        <time>2017-06-08T14:21:25.000Z</time>
      </trkpt>
      <trkpt lat="43.480232" lon="5.230505">
        <ele>75.216154</ele>
        <time>2017-06-08T14:21:27.000Z</time>
      </trkpt>
      <trkpt lat="43.480133" lon="5.230532">
        <ele>75.261972</ele>
        <time>2017-06-08T14:21:29.000Z</time>
      </trkpt>
      <trkpt lat="43.480034" lon="5.230571">
        <ele>75.308719</ele>
        <time>2017-06-08T14:21:31.000Z</time>
      </trkpt>
      <trkpt lat="43.479930" lon="5.230603">
        <ele>75.357099</ele>
        <time>2017-06-08T14:21:33.000Z</time>
      </trkpt>
      <trkpt lat="43.479816" lon="5.230632">
        <ele>75.409730</ele>
        <time>2017-06-08T14:21:35.000Z</time>
      </trkpt>
      <trkpt lat="43.479710" lon="5.230658">
        <ele>75.458611</ele>
        <time>2017-06-08T14:21:37.000Z</time>
      </trkpt>
      <trkpt lat="43.479603" lon="5.230680">
        <ele>75.507728</ele>
        <time>2017-06-08T14:21:39.000Z</time>
      </trkpt>
      <trkpt lat="43.479496" lon="5.230703">
        <ele>75.429368</ele>
        <time>2017-06-08T14:21:41.000Z</time>
      </trkpt>
      <trkpt lat="43.479393" lon="5.230718">
        <ele>75.206599</ele>
        <time>2017-06-08T14:21:43.000Z</time>
      </trkpt>
      <trkpt lat="43.479294" lon="5.230740">
        <ele>74.990916</ele>
        <time>2017-06-08T14:21:45.000Z</time>
      </trkpt>
      <trkpt lat="43.479200" lon="5.230751">
        <ele>74.788010</ele>
        <time>2017-06-08T14:21:47.000Z</time>
      </trkpt>
      <trkpt lat="43.479073" lon="5.230775">
        <ele>74.512297</ele>
        <time>2017-06-08T14:21:50.000Z</time>
      </trkpt>
      <trkpt lat="43.478943" lon="5.230798">
        <ele>74.230394</ele>
        <time>2017-06-08T14:21:53.000Z</time>
      </trkpt>
      <trkpt lat="43.478820" lon="5.230817">
        <ele>73.964185</ele>
        <time>2017-06-08T14:21:56.000Z</time>
      </trkpt>
      <trkpt lat="43.478714" lon="5.230825">
        <ele>73.735855</ele>
        <time>2017-06-08T14:21:59.000Z</time>
      </trkpt>
      <trkpt lat="43.478607" lon="5.230831">
        <ele>73.505525</ele>
        <time>2017-06-08T14:22:03.000Z</time>
      </trkpt>
      <trkpt lat="43.478600" lon="5.230692">
        <ele>73.288064</ele>
        <time>2017-06-08T14:22:11.000Z</time>
      </trkpt>
      <trkpt lat="43.478638" lon="5.230577">
        <ele>73.090849</ele>
        <time>2017-06-08T14:22:18.000Z</time>
      </trkpt>
      <trkpt lat="43.478664" lon="5.230325">
        <ele>72.693594</ele>
        <time>2017-06-08T14:22:37.000Z</time>
      </trkpt>
      <trkpt lat="43.478687" lon="5.230187">
        <ele>72.472607</ele>
        <time>2017-06-08T14:22:40.000Z</time>
      </trkpt>
      <trkpt lat="43.478706" lon="5.230037">
        <ele>72.234961</ele>
        <time>2017-06-08T14:22:43.000Z</time>
      </trkpt>
      <trkpt lat="43.478730" lon="5.229866">
        <ele>71.963133</ele>
        <time>2017-06-08T14:22:46.000Z</time>
      </trkpt>
      <trkpt lat="43.478745" lon="5.229738">
        <ele>71.760774</ele>
        <time>2017-06-08T14:22:48.000Z</time>
      </trkpt>
      <trkpt lat="43.478767" lon="5.229605">
        <ele>71.461843</ele>
        <time>2017-06-08T14:22:50.000Z</time>
      </trkpt>
      <trkpt lat="43.478790" lon="5.229462">
        <ele>71.066873</ele>
        <time>2017-06-08T14:22:52.000Z</time>
      </trkpt>
      <trkpt lat="43.478810" lon="5.229322">
        <ele>70.682106</ele>
        <time>2017-06-08T14:22:54.000Z</time>
      </trkpt>
      <trkpt lat="43.478825" lon="5.229180">
        <ele>70.295155</ele>
        <time>2017-06-08T14:22:56.000Z</time>
      </trkpt>
      <trkpt lat="43.478840" lon="5.229036">
        <ele>69.902868</ele>
        <time>2017-06-08T14:22:58.000Z</time>
      </trkpt>
      <trkpt lat="43.478867" lon="5.228904">
        <ele>69.533048</ele>
        <time>2017-06-08T14:23:00.000Z</time>
      </trkpt>
      <trkpt lat="43.478878" lon="5.228768">
        <ele>69.164042</ele>
        <time>2017-06-08T14:23:02.000Z</time>
      </trkpt>
      <trkpt lat="43.478890" lon="5.228629">
        <ele>68.786575</ele>
        <time>2017-06-08T14:23:04.000Z</time>
      </trkpt>
      <trkpt lat="43.478897" lon="5.228472">
        <ele>68.362414</ele>
        <time>2017-06-08T14:23:06.000Z</time>
      </trkpt>
      <trkpt lat="43.478905" lon="5.228324">
        <ele>67.962216</ele>
        <time>2017-06-08T14:23:08.000Z</time>
      </trkpt>
      <trkpt lat="43.478912" lon="5.228169">
        <ele>67.543438</ele>
        <time>2017-06-08T14:23:10.000Z</time>
      </trkpt>
      <trkpt lat="43.478912" lon="5.228036">
        <ele>67.184794</ele>
        <time>2017-06-08T14:23:12.000Z</time>
      </trkpt>
      <trkpt lat="43.478900" lon="5.227908">
        <ele>66.836763</ele>
        <time>2017-06-08T14:23:14.000Z</time>
      </trkpt>
      <trkpt lat="43.478893" lon="5.227773">
        <ele>66.471798</ele>
        <time>2017-06-08T14:23:16.000Z</time>
      </trkpt>
      <trkpt lat="43.478874" lon="5.227606">
        <ele>66.015968</ele>
        <time>2017-06-08T14:23:19.000Z</time>
      </trkpt>
      <trkpt lat="43.478817" lon="5.227500">
        <ele>65.660199</ele>
        <time>2017-06-08T14:23:22.000Z</time>
      </trkpt>
      <trkpt lat="43.478706" lon="5.227506">
        <ele>65.247384</ele>
        <time>2017-06-08T14:23:26.000Z</time>
      </trkpt>
      <trkpt lat="43.478620" lon="5.227554">
        <ele>64.971215</ele>
        <time>2017-06-08T14:23:29.000Z</time>
      </trkpt>
      <trkpt lat="43.478523" lon="5.227605">
        <ele>64.918932</ele>
        <time>2017-06-08T14:23:32.000Z</time>
      </trkpt>
      <trkpt lat="43.478428" lon="5.227656">
        <ele>64.867589</ele>
        <time>2017-06-08T14:23:35.000Z</time>
      </trkpt>
      <trkpt lat="43.478416" lon="5.227823">
        <ele>64.806264</ele>
        <time>2017-06-08T14:23:39.000Z</time>
      </trkpt>
      <trkpt lat="43.478400" lon="5.227966">
        <ele>64.753390</ele>
        <time>2017-06-08T14:23:42.000Z</time>
      </trkpt>
      <trkpt lat="43.478290" lon="5.228018">
        <ele>64.694826</ele>
        <time>2017-06-08T14:23:45.000Z</time>
      </trkpt>
      <trkpt lat="43.478160" lon="5.228034">
        <ele>64.629098</ele>
        <time>2017-06-08T14:23:48.000Z</time>
      </trkpt>
      <trkpt lat="43.478060" lon="5.228049">
        <ele>64.578441</ele>
        <time>2017-06-08T14:23:51.000Z</time>
      </trkpt>
      <trkpt lat="43.477950" lon="5.228056">
        <ele>64.522987</ele>
        <time>2017-06-08T14:23:55.000Z</time>
      </trkpt>
      <trkpt lat="43.477898" lon="5.228161">
        <ele>64.476532</ele>
        <time>2017-06-08T14:24:00.000Z</time>
      </trkpt>
      <trkpt lat="43.477882" lon="5.228026">
        <ele>64.426546</ele>
        <time>2017-06-08T14:43:12.000Z</time>
      </trkpt>
      <trkpt lat="43.477848" lon="5.227902">
        <ele>64.378105</ele>
        <time>2017-06-08T14:43:16.000Z</time>
      </trkpt>
      <trkpt lat="43.477760" lon="5.227842">
        <ele>64.328662</ele>
        <time>2017-06-08T14:43:20.000Z</time>
      </trkpt>
      <trkpt lat="43.477654" lon="5.227855">
        <ele>64.275069</ele>
        <time>2017-06-08T14:43:23.000Z</time>
      </trkpt>
      <trkpt lat="43.477530" lon="5.227855">
        <ele>64.212624</ele>
        <time>2017-06-08T14:43:26.000Z</time>
      </trkpt>
      <trkpt lat="43.477398" lon="5.227856">
        <ele>64.146148</ele>
        <time>2017-06-08T14:43:29.000Z</time>
      </trkpt>
      <trkpt lat="43.477264" lon="5.227861">
        <ele>64.078641</ele>
        <time>2017-06-08T14:43:32.000Z</time>
      </trkpt>
      <trkpt lat="43.477130" lon="5.227880">
        <ele>64.111056</ele>
        <time>2017-06-08T14:43:35.000Z</time>
      </trkpt>
      <trkpt lat="43.477036" lon="5.227887">
        <ele>64.136340</ele>
        <time>2017-06-08T14:43:37.000Z</time>
      </trkpt>
      <trkpt lat="43.476940" lon="5.227891">
        <ele>64.162135</ele>
        <time>2017-06-08T14:43:39.000Z</time>
      </trkpt>
      <trkpt lat="43.476837" lon="5.227892">
        <ele>64.189800</ele>
        <time>2017-06-08T14:43:41.000Z</time>
      </trkpt>
      <trkpt lat="43.476740" lon="5.227901">
        <ele>64.215911</ele>
        <time>2017-06-08T14:43:43.000Z</time>
      </trkpt>
      <trkpt lat="43.476646" lon="5.227905">
        <ele>64.241170</ele>
        <time>2017-06-08T14:43:45.000Z</time>
      </trkpt>
      <trkpt lat="43.476547" lon="5.227914">
        <ele>64.267818</ele>
        <time>2017-06-08T14:43:47.000Z</time>
      </trkpt>
      <trkpt lat="43.476450" lon="5.227916">
        <ele>64.293873</ele>
        <time>2017-06-08T14:43:49.000Z</time>
      </trkpt>
      <trkpt lat="43.476357" lon="5.227922">
        <ele>64.318878</ele>
        <time>2017-06-08T14:43:51.000Z</time>
      </trkpt>
      <trkpt lat="43.476260" lon="5.227930">
        <ele>64.344978</ele>
        <time>2017-06-08T14:43:53.000Z</time>
      </trkpt>
      <trkpt lat="43.476170" lon="5.227933">
        <ele>64.369157</ele>
        <time>2017-06-08T14:43:55.000Z</time>
      </trkpt>
      <trkpt lat="43.476078" lon="5.227933">
        <ele>64.393867</ele>
        <time>2017-06-08T14:43:57.000Z</time>
      </trkpt>
      <trkpt lat="43.475986" lon="5.227933">
        <ele>64.418576</ele>
        <time>2017-06-08T14:43:59.000Z</time>
      </trkpt>
      <trkpt lat="43.475900" lon="5.227936">
        <ele>64.441682</ele>
        <time>2017-06-08T14:44:01.000Z</time>
      </trkpt>
      <trkpt lat="43.475773" lon="5.227945">
        <ele>64.475837</ele>
        <time>2017-06-08T14:44:04.000Z</time>
      </trkpt>
      <trkpt lat="43.475660" lon="5.227960">
        <ele>64.506327</ele>
        <time>2017-06-08T14:44:07.000Z</time>
      </trkpt>
      <trkpt lat="43.475550" lon="5.227980">
        <ele>64.536127</ele>
        <time>2017-06-08T14:44:10.000Z</time>
      </trkpt>
      <trkpt lat="43.475445" lon="5.227998">
        <ele>64.575230</ele>
        <time>2017-06-08T14:44:13.000Z</time>
      </trkpt>
      <trkpt lat="43.475323" lon="5.228021">
        <ele>64.675271</ele>
        <time>2017-06-08T14:44:16.000Z</time>
      </trkpt>
      <trkpt lat="43.475197" lon="5.228045">
        <ele>64.778613</ele>
        <time>2017-06-08T14:44:19.000Z</time>
      </trkpt>
      <trkpt lat="43.475070" lon="5.228078">
        <ele>64.883612</ele>
        <time>2017-06-08T14:44:22.000Z</time>
      </trkpt>
      <trkpt lat="43.474940" lon="5.228120">
        <ele>64.992094</ele>
        <time>2017-06-08T14:44:25.000Z</time>
      </trkpt>
      <trkpt lat="43.474854" lon="5.228136">
        <ele>65.062599</ele>
        <time>2017-06-08T14:44:27.000Z</time>
      </trkpt>
      <trkpt lat="43.474730" lon="5.228183">
        <ele>65.167084</ele>
        <time>2017-06-08T14:44:30.000Z</time>
      </trkpt>
      <trkpt lat="43.474640" lon="5.228227">
        <ele>65.244669</ele>
        <time>2017-06-08T14:44:32.000Z</time>
      </trkpt>
      <trkpt lat="43.474550" lon="5.228267">
        <ele>65.321499</ele>
        <time>2017-06-08T14:44:34.000Z</time>
      </trkpt>
      <trkpt lat="43.474438" lon="5.228324">
        <ele>65.418500</ele>
        <time>2017-06-08T14:44:37.000Z</time>
      </trkpt>
      <trkpt lat="43.474323" lon="5.228383">
        <ele>65.518197</ele>
        <time>2017-06-08T14:44:40.000Z</time>
      </trkpt>
      <trkpt lat="43.474213" lon="5.228448">
        <ele>65.615436</ele>
        <time>2017-06-08T14:44:43.000Z</time>
      </trkpt>
      <trkpt lat="43.474106" lon="5.228512">
        <ele>65.710204</ele>
        <time>2017-06-08T14:44:46.000Z</time>
      </trkpt>
      <trkpt lat="43.474020" lon="5.228559">
        <ele>65.785369</ele>
        <time>2017-06-08T14:44:51.000Z</time>
      </trkpt>
      <trkpt lat="43.473870" lon="5.228674">
        <ele>65.924827</ele>
        <time>2017-06-08T14:45:11.000Z</time>
      </trkpt>
      <trkpt lat="43.473780" lon="5.228744">
        <ele>66.008791</ele>
        <time>2017-06-08T14:45:14.000Z</time>
      </trkpt>
      <trkpt lat="43.473680" lon="5.228815">
        <ele>66.136668</ele>
        <time>2017-06-08T14:45:17.000Z</time>
      </trkpt>
      <trkpt lat="43.473564" lon="5.228905">
        <ele>66.294384</ele>
        <time>2017-06-08T14:45:20.000Z</time>
      </trkpt>
      <trkpt lat="43.473488" lon="5.228975">
        <ele>66.402686</ele>
        <time>2017-06-08T14:45:22.000Z</time>
      </trkpt>
      <trkpt lat="43.473408" lon="5.229044">
        <ele>66.514500</ele>
        <time>2017-06-08T14:45:24.000Z</time>
      </trkpt>
      <trkpt lat="43.473330" lon="5.229115">
        <ele>66.625252</ele>
        <time>2017-06-08T14:45:26.000Z</time>
      </trkpt>
      <trkpt lat="43.473225" lon="5.229215">
        <ele>66.776470</ele>
        <time>2017-06-08T14:45:29.000Z</time>
      </trkpt>
      <trkpt lat="43.473118" lon="5.229293">
        <ele>66.919883</ele>
        <time>2017-06-08T14:45:32.000Z</time>
      </trkpt>
      <trkpt lat="43.473015" lon="5.229384">
        <ele>67.064839</ele>
        <time>2017-06-08T14:45:35.000Z</time>
      </trkpt>
      <trkpt lat="43.472904" lon="5.229465">
        <ele>67.213647</ele>
        <time>2017-06-08T14:45:38.000Z</time>
      </trkpt>
      <trkpt lat="43.472824" lon="5.229527">
        <ele>67.322388</ele>
        <time>2017-06-08T14:45:40.000Z</time>
      </trkpt>
      <trkpt lat="43.472717" lon="5.229631">
        <ele>67.477518</ele>
        <time>2017-06-08T14:45:43.000Z</time>
      </trkpt>
      <trkpt lat="43.472637" lon="5.229705">
        <ele>67.591672</ele>
        <time>2017-06-08T14:45:45.000Z</time>
      </trkpt>
      <trkpt lat="43.472557" lon="5.229773">
        <ele>67.703032</ele>
        <time>2017-06-08T14:45:47.000Z</time>
      </trkpt>
      <trkpt lat="43.472460" lon="5.229877">
        <ele>67.848641</ele>
        <time>2017-06-08T14:45:50.000Z</time>
      </trkpt>
      <trkpt lat="43.472390" lon="5.229951">
        <ele>67.953167</ele>
        <time>2017-06-08T14:45:52.000Z</time>
      </trkpt>
      <trkpt lat="43.472313" lon="5.230015">
        <ele>68.059703</ele>
        <time>2017-06-08T14:45:54.000Z</time>
      </trkpt>
      <trkpt lat="43.472233" lon="5.230075">
        <ele>68.133438</ele>
        <time>2017-06-08T14:45:56.000Z</time>
      </trkpt>
      <trkpt lat="43.472126" lon="5.230168">
        <ele>67.965337</ele>
        <time>2017-06-08T14:45:59.000Z</time>
      </trkpt>
      <trkpt lat="43.472015" lon="5.230266">
        <ele>67.790164</ele>
        <time>2017-06-08T14:46:02.000Z</time>
      </trkpt>
      <trkpt lat="43.471910" lon="5.230351">
        <ele>67.628346</ele>
        <time>2017-06-08T14:46:05.000Z</time>
      </trkpt>
      <trkpt lat="43.471806" lon="5.230433">
        <ele>67.469129</ele>
        <time>2017-06-08T14:46:08.000Z</time>
      </trkpt>
      <trkpt lat="43.471700" lon="5.230523">
        <ele>67.303686</ele>
        <time>2017-06-08T14:46:11.000Z</time>
      </trkpt>
      <trkpt lat="43.471590" lon="5.230626">
        <ele>67.126966</ele>
        <time>2017-06-08T14:46:14.000Z</time>
      </trkpt>
      <trkpt lat="43.471510" lon="5.230693">
        <ele>67.002569</ele>
        <time>2017-06-08T14:46:16.000Z</time>
      </trkpt>
      <trkpt lat="43.471430" lon="5.230758">
        <ele>66.879163</ele>
        <time>2017-06-08T14:46:18.000Z</time>
      </trkpt>
      <trkpt lat="43.471320" lon="5.230832">
        <ele>66.716507</ele>
        <time>2017-06-08T14:46:21.000Z</time>
      </trkpt>
      <trkpt lat="43.471230" lon="5.230954">
        <ele>66.548749</ele>
        <time>2017-06-08T14:46:24.000Z</time>
      </trkpt>
      <trkpt lat="43.471134" lon="5.231072">
        <ele>66.377808</ele>
        <time>2017-06-08T14:46:27.000Z</time>
      </trkpt>
      <trkpt lat="43.471043" lon="5.231172">
        <ele>66.223145</ele>
        <time>2017-06-08T14:46:30.000Z</time>
      </trkpt>
      <trkpt lat="43.470963" lon="5.231265">
        <ele>66.084065</ele>
        <time>2017-06-08T14:46:33.000Z</time>
      </trkpt>
      <trkpt lat="43.470882" lon="5.231334">
        <ele>65.957527</ele>
        <time>2017-06-08T14:46:39.000Z</time>
      </trkpt>
      <trkpt lat="43.470810" lon="5.231216">
        <ele>65.808861</ele>
        <time>2017-06-08T14:47:01.000Z</time>
      </trkpt>
      <trkpt lat="43.470715" lon="5.231093">
        <ele>65.859149</ele>
        <time>2017-06-08T14:47:04.000Z</time>
      </trkpt>
      <trkpt lat="43.470604" lon="5.231051">
        <ele>65.977834</ele>
        <time>2017-06-08T14:47:07.000Z</time>
      </trkpt>
      <trkpt lat="43.470486" lon="5.231091">
        <ele>66.103126</ele>
        <time>2017-06-08T14:47:10.000Z</time>
      </trkpt>
      <trkpt lat="43.470390" lon="5.231202">
        <ele>66.232339</ele>
        <time>2017-06-08T14:47:13.000Z</time>
      </trkpt>
      <trkpt lat="43.470310" lon="5.231338">
        <ele>66.363335</ele>
        <time>2017-06-08T14:47:16.000Z</time>
      </trkpt>
      <trkpt lat="43.470207" lon="5.231445">
        <ele>66.496334</ele>
        <time>2017-06-08T14:47:19.000Z</time>
      </trkpt>
      <trkpt lat="43.470097" lon="5.231539">
        <ele>66.629791</ele>
        <time>2017-06-08T14:47:22.000Z</time>
      </trkpt>
      <trkpt lat="43.469975" lon="5.231612">
        <ele>66.766928</ele>
        <time>2017-06-08T14:47:25.000Z</time>
      </trkpt>
      <trkpt lat="43.469856" lon="5.231669">
        <ele>66.896827</ele>
        <time>2017-06-08T14:47:28.000Z</time>
      </trkpt>
      <trkpt lat="43.469770" lon="5.231710">
        <ele>66.990655</ele>
        <time>2017-06-08T14:47:30.000Z</time>
      </trkpt>
      <trkpt lat="43.469680" lon="5.231750">
        <ele>67.088158</ele>
        <time>2017-06-08T14:47:32.000Z</time>
      </trkpt>
      <trkpt lat="43.469593" lon="5.231783">
        <ele>67.181197</ele>
        <time>2017-06-08T14:47:34.000Z</time>
      </trkpt>
      <trkpt lat="43.469498" lon="5.231807">
        <ele>67.280781</ele>
        <time>2017-06-08T14:47:36.000Z</time>
      </trkpt>
      <trkpt lat="43.469406" lon="5.231834">
        <ele>67.377766</ele>
        <time>2017-06-08T14:47:38.000Z</time>
      </trkpt>
      <trkpt lat="43.469310" lon="5.231857">
        <ele>67.478233</ele>
        <time>2017-06-08T14:47:40.000Z</time>
      </trkpt>
      <trkpt lat="43.469220" lon="5.231878">
        <ele>67.572349</ele>
        <time>2017-06-08T14:47:42.000Z</time>
      </trkpt>
      <trkpt lat="43.469120" lon="5.231894">
        <ele>67.648153</ele>
        <time>2017-06-08T14:47:44.000Z</time>
      </trkpt>
      <trkpt lat="43.468980" lon="5.231912">
        <ele>67.725644</ele>
        <time>2017-06-08T14:47:47.000Z</time>
      </trkpt>
      <trkpt lat="43.468884" lon="5.231919">
        <ele>67.778626</ele>
        <time>2017-06-08T14:47:49.000Z</time>
      </trkpt>
      <trkpt lat="43.468792" lon="5.231923">
        <ele>67.829354</ele>
        <time>2017-06-08T14:47:51.000Z</time>
      </trkpt>
      <trkpt lat="43.468693" lon="5.231928">
        <ele>67.883951</ele>
        <time>2017-06-08T14:47:53.000Z</time>
      </trkpt>
      <trkpt lat="43.468600" lon="5.231928">
        <ele>67.935205</ele>
        <time>2017-06-08T14:47:55.000Z</time>
      </trkpt>
      <trkpt lat="43.468468" lon="5.231935">
        <ele>68.008007</ele>
        <time>2017-06-08T14:47:58.000Z</time>
      </trkpt>
      <trkpt lat="43.468376" lon="5.231937">
        <ele>68.058716</ele>
        <time>2017-06-08T14:48:00.000Z</time>
      </trkpt>
      <trkpt lat="43.468254" lon="5.231923">
        <ele>68.126186</ele>
        <time>2017-06-08T14:48:03.000Z</time>
      </trkpt>
      <trkpt lat="43.468132" lon="5.231944">
        <ele>68.193945</ele>
        <time>2017-06-08T14:48:06.000Z</time>
      </trkpt>
      <trkpt lat="43.468010" lon="5.231951">
        <ele>68.261240</ele>
        <time>2017-06-08T14:48:09.000Z</time>
      </trkpt>
      <trkpt lat="43.467876" lon="5.231941">
        <ele>68.335198</ele>
        <time>2017-06-08T14:48:12.000Z</time>
      </trkpt>
      <trkpt lat="43.467754" lon="5.231931">
        <ele>68.402553</ele>
        <time>2017-06-08T14:48:15.000Z</time>
      </trkpt>
      <trkpt lat="43.467650" lon="5.231951">
        <ele>68.460425</ele>
        <time>2017-06-08T14:48:17.000Z</time>
      </trkpt>
      <trkpt lat="43.467550" lon="5.231968">
        <ele>68.515955</ele>
        <time>2017-06-08T14:48:19.000Z</time>
      </trkpt>
      <trkpt lat="43.467430" lon="5.231920">
        <ele>68.584820</ele>
        <time>2017-06-08T14:48:22.000Z</time>
      </trkpt>
      <trkpt lat="43.467335" lon="5.231834">
        <ele>68.632193</ele>
        <time>2017-06-08T14:48:25.000Z</time>
      </trkpt>
      <trkpt lat="43.467236" lon="5.231739">
        <ele>68.673420</ele>
        <time>2017-06-08T14:48:28.000Z</time>
      </trkpt>
      <trkpt lat="43.467120" lon="5.231660">
        <ele>68.717638</ele>
        <time>2017-06-08T14:48:31.000Z</time>
      </trkpt>
      <trkpt lat="43.467026" lon="5.231606">
        <ele>68.752440</ele>
        <time>2017-06-08T14:48:34.000Z</time>
      </trkpt>
      <trkpt lat="43.466934" lon="5.231589">
        <ele>68.784160</ele>
        <time>2017-06-08T14:48:36.000Z</time>
      </trkpt>
      <trkpt lat="43.466824" lon="5.231575">
        <ele>68.821909</ele>
        <time>2017-06-08T14:48:39.000Z</time>
      </trkpt>
      <trkpt lat="43.466694" lon="5.231555">
        <ele>68.866609</ele>
        <time>2017-06-08T14:48:42.000Z</time>
      </trkpt>
      <trkpt lat="43.466595" lon="5.231560">
        <ele>68.900462</ele>
        <time>2017-06-08T14:48:44.000Z</time>
      </trkpt>
      <trkpt lat="43.466503" lon="5.231556">
        <ele>68.931917</ele>
        <time>2017-06-08T14:48:46.000Z</time>
      </trkpt>
      <trkpt lat="43.466404" lon="5.231559">
        <ele>68.965755</ele>
        <time>2017-06-08T14:48:48.000Z</time>
      </trkpt>
      <trkpt lat="43.466310" lon="5.231559">
        <ele>68.997877</ele>
        <time>2017-06-08T14:48:50.000Z</time>
      </trkpt>
      <trkpt lat="43.466187" lon="5.231567">
        <ele>69.039956</ele>
        <time>2017-06-08T14:48:53.000Z</time>
      </trkpt>
      <trkpt lat="43.466060" lon="5.231587">
        <ele>69.083637</ele>
        <time>2017-06-08T14:48:56.000Z</time>
      </trkpt>
      <trkpt lat="43.465946" lon="5.231605">
        <ele>69.122849</ele>
        <time>2017-06-08T14:48:59.000Z</time>
      </trkpt>
      <trkpt lat="43.465820" lon="5.231614">
        <ele>69.165963</ele>
        <time>2017-06-08T14:49:02.000Z</time>
      </trkpt>
      <trkpt lat="43.465710" lon="5.231647">
        <ele>69.204434</ele>
        <time>2017-06-08T14:49:05.000Z</time>
      </trkpt>
      <trkpt lat="43.465595" lon="5.231669">
        <ele>69.256133</ele>
        <time>2017-06-08T14:49:08.000Z</time>
      </trkpt>
      <trkpt lat="43.465480" lon="5.231689">
        <ele>69.317197</ele>
        <time>2017-06-08T14:49:12.000Z</time>
      </trkpt>
      <trkpt lat="43.465347" lon="5.231736">
        <ele>69.389530</ele>
        <time>2017-06-08T14:49:34.000Z</time>
      </trkpt>
      <trkpt lat="43.465233" lon="5.231758">
        <ele>69.450172</ele>
        <time>2017-06-08T14:49:37.000Z</time>
      </trkpt>
      <trkpt lat="43.465145" lon="5.231774">
        <ele>69.496933</ele>
        <time>2017-06-08T14:49:39.000Z</time>
      </trkpt>
      <trkpt lat="43.465046" lon="5.231796">
        <ele>69.549761</ele>
        <time>2017-06-08T14:49:41.000Z</time>
      </trkpt>
      <trkpt lat="43.464950" lon="5.231821">
        <ele>69.601230</ele>
        <time>2017-06-08T14:49:43.000Z</time>
      </trkpt>
      <trkpt lat="43.464848" lon="5.231845">
        <ele>69.655742</ele>
        <time>2017-06-08T14:49:45.000Z</time>
      </trkpt>
      <trkpt lat="43.464750" lon="5.231868">
        <ele>69.708113</ele>
        <time>2017-06-08T14:49:47.000Z</time>
      </trkpt>
      <trkpt lat="43.464650" lon="5.231895">
        <ele>69.761796</ele>
        <time>2017-06-08T14:49:49.000Z</time>
      </trkpt>
      <trkpt lat="43.464550" lon="5.231925">
        <ele>69.815711</ele>
        <time>2017-06-08T14:49:51.000Z</time>
      </trkpt>
      <trkpt lat="43.464450" lon="5.231956">
        <ele>69.869709</ele>
        <time>2017-06-08T14:49:53.000Z</time>
      </trkpt>
      <trkpt lat="43.464350" lon="5.231967">
        <ele>69.922557</ele>
        <time>2017-06-08T14:49:56.000Z</time>
      </trkpt>
      <trkpt lat="43.464245" lon="5.231974">
        <ele>69.977937</ele>
        <time>2017-06-08T14:49:57.000Z</time>
      </trkpt>
      <trkpt lat="43.464146" lon="5.231979">
        <ele>70.030126</ele>
        <time>2017-06-08T14:49:59.000Z</time>
      </trkpt>
      <trkpt lat="43.464043" lon="5.231979">
        <ele>70.084387</ele>
        <time>2017-06-08T14:50:01.000Z</time>
      </trkpt>
      <trkpt lat="43.463940" lon="5.231987">
        <ele>70.138734</ele>
        <time>2017-06-08T14:50:03.000Z</time>
      </trkpt>
      <trkpt lat="43.463844" lon="5.231994">
        <ele>70.173841</ele>
        <time>2017-06-08T14:50:05.000Z</time>
      </trkpt>
      <trkpt lat="43.463710" lon="5.232019">
        <ele>70.189545</ele>
        <time>2017-06-08T14:50:08.000Z</time>
      </trkpt>
      <trkpt lat="43.463590" lon="5.232026">
        <ele>70.203493</ele>
        <time>2017-06-08T14:50:11.000Z</time>
      </trkpt>
      <trkpt lat="43.463455" lon="5.232029">
        <ele>70.219173</ele>
        <time>2017-06-08T14:50:14.000Z</time>
      </trkpt>
      <trkpt lat="43.463320" lon="5.232004">
        <ele>70.234992</ele>
        <time>2017-06-08T14:50:17.000Z</time>
      </trkpt>
      <trkpt lat="43.463200" lon="5.231962">
        <ele>70.249370</ele>
        <time>2017-06-08T14:50:20.000Z</time>
      </trkpt>
      <trkpt lat="43.463078" lon="5.231963">
        <ele>70.263538</ele>
        <time>2017-06-08T14:50:23.000Z</time>
      </trkpt>
      <trkpt lat="43.462982" lon="5.232028">
        <ele>70.275960</ele>
        <time>2017-06-08T14:50:27.000Z</time>
      </trkpt>
      <trkpt lat="43.462900" lon="5.232076">
        <ele>70.286307</ele>
        <time>2017-06-08T14:50:29.000Z</time>
      </trkpt>
      <trkpt lat="43.462720" lon="5.232061">
        <ele>70.307249</ele>
        <time>2017-06-08T14:51:34.000Z</time>
      </trkpt>
      <trkpt lat="43.462600" lon="5.232074">
        <ele>70.321228</ele>
        <time>2017-06-08T14:51:38.000Z</time>
      </trkpt>
      <trkpt lat="43.462500" lon="5.232080">
        <ele>70.332852</ele>
        <time>2017-06-08T14:51:41.000Z</time>
      </trkpt>
      <trkpt lat="43.462402" lon="5.232092">
        <ele>70.344278</ele>
        <time>2017-06-08T14:51:44.000Z</time>
      </trkpt>
      <trkpt lat="43.462300" lon="5.232104">
        <ele>70.356166</ele>
        <time>2017-06-08T14:51:47.000Z</time>
      </trkpt>
      <trkpt lat="43.462170" lon="5.232104">
        <ele>70.371263</ele>
        <time>2017-06-08T14:51:50.000Z</time>
      </trkpt>
      <trkpt lat="43.462050" lon="5.232120">
        <ele>70.571917</ele>
        <time>2017-06-08T14:51:53.000Z</time>
      </trkpt>
      <trkpt lat="43.461950" lon="5.232130">
        <ele>70.896831</ele>
        <time>2017-06-08T14:51:56.000Z</time>
      </trkpt>
      <trkpt lat="43.461838" lon="5.232144">
        <ele>71.261270</ele>
        <time>2017-06-08T14:51:59.000Z</time>
      </trkpt>
      <trkpt lat="43.461740" lon="5.232162">
        <ele>71.581660</ele>
        <time>2017-06-08T14:52:02.000Z</time>
      </trkpt>
      <trkpt lat="43.461617" lon="5.232170">
        <ele>71.980699</ele>
        <time>2017-06-08T14:52:05.000Z</time>
      </trkpt>
      <trkpt lat="43.461502" lon="5.232198">
        <ele>72.359144</ele>
        <time>2017-06-08T14:52:08.000Z</time>
      </trkpt>
      <trkpt lat="43.461390" lon="5.232224">
        <ele>72.727209</ele>
        <time>2017-06-08T14:52:11.000Z</time>
      </trkpt>
      <trkpt lat="43.461277" lon="5.232245">
        <ele>73.096714</ele>
        <time>2017-06-08T14:52:14.000Z</time>
      </trkpt>
      <trkpt lat="43.461174" lon="5.232288">
        <ele>73.445485</ele>
        <time>2017-06-08T14:52:17.000Z</time>
      </trkpt>
      <trkpt lat="43.461070" lon="5.232322">
        <ele>73.791868</ele>
        <time>2017-06-08T14:52:20.000Z</time>
      </trkpt>
      <trkpt lat="43.460980" lon="5.232352">
        <ele>74.091938</ele>
        <time>2017-06-08T14:52:23.000Z</time>
      </trkpt>
      <trkpt lat="43.460880" lon="5.232374">
        <ele>74.420105</ele>
        <time>2017-06-08T14:52:26.000Z</time>
      </trkpt>
      <trkpt lat="43.460777" lon="5.232423">
        <ele>74.773227</ele>
        <time>2017-06-08T14:52:29.000Z</time>
      </trkpt>
      <trkpt lat="43.460663" lon="5.232468">
        <ele>75.157521</ele>
        <time>2017-06-08T14:52:32.000Z</time>
      </trkpt>
      <trkpt lat="43.460545" lon="5.232523">
        <ele>75.561205</ele>
        <time>2017-06-08T14:52:35.000Z</time>
      </trkpt>
      <trkpt lat="43.460423" lon="5.232572">
        <ele>75.973017</ele>
        <time>2017-06-08T14:52:38.000Z</time>
      </trkpt>
      <trkpt lat="43.460297" lon="5.232626">
        <ele>76.217270</ele>
        <time>2017-06-08T14:52:41.000Z</time>
      </trkpt>
      <trkpt lat="43.460180" lon="5.232695">
        <ele>76.239082</ele>
        <time>2017-06-08T14:52:44.000Z</time>
      </trkpt>
      <trkpt lat="43.460064" lon="5.232768">
        <ele>76.260938</ele>
        <time>2017-06-08T14:52:47.000Z</time>
      </trkpt>
      <trkpt lat="43.459938" lon="5.232827">
        <ele>76.283746</ele>
        <time>2017-06-08T14:52:50.000Z</time>
      </trkpt>
      <trkpt lat="43.459846" lon="5.232861">
        <ele>76.300071</ele>
        <time>2017-06-08T14:52:52.000Z</time>
      </trkpt>
      <trkpt lat="43.459750" lon="5.232867">
        <ele>76.316541</ele>
        <time>2017-06-08T14:52:54.000Z</time>
      </trkpt>
      <trkpt lat="43.459633" lon="5.232820">
        <ele>76.337428</ele>
        <time>2017-06-08T14:52:57.000Z</time>
      </trkpt>
      <trkpt lat="43.459538" lon="5.232799">
        <ele>76.353918</ele>
        <time>2017-06-08T14:53:00.000Z</time>
      </trkpt>
      <trkpt lat="43.459440" lon="5.232789">
        <ele>76.370760</ele>
        <time>2017-06-08T14:53:03.000Z</time>
      </trkpt>
      <trkpt lat="43.459340" lon="5.232733">
        <ele>76.389260</ele>
        <time>2017-06-08T14:53:06.000Z</time>
      </trkpt>
      <trkpt lat="43.459220" lon="5.232680">
        <ele>76.410857</ele>
        <time>2017-06-08T14:53:09.000Z</time>
      </trkpt>
      <trkpt lat="43.459090" lon="5.232675">
        <ele>76.433146</ele>
        <time>2017-06-08T14:53:12.000Z</time>
      </trkpt>
      <trkpt lat="43.459003" lon="5.232718">
        <ele>76.448987</ele>
        <time>2017-06-08T14:53:14.000Z</time>
      </trkpt>
      <trkpt lat="43.458920" lon="5.232772">
        <ele>76.464718</ele>
        <time>2017-06-08T14:53:16.000Z</time>
      </trkpt>
      <trkpt lat="43.458836" lon="5.232817">
        <ele>76.480165</ele>
        <time>2017-06-08T14:53:18.000Z</time>
      </trkpt>
      <trkpt lat="43.458748" lon="5.232863">
        <ele>76.496296</ele>
        <time>2017-06-08T14:53:20.000Z</time>
      </trkpt>
      <trkpt lat="43.458656" lon="5.232908">
        <ele>76.513028</ele>
        <time>2017-06-08T14:53:22.000Z</time>
      </trkpt>
      <trkpt lat="43.458557" lon="5.232940">
        <ele>76.422193</ele>
        <time>2017-06-08T14:53:24.000Z</time>
      </trkpt>
      <trkpt lat="43.458458" lon="5.232963">
        <ele>76.316554</ele>
        <time>2017-06-08T14:53:26.000Z</time>
      </trkpt>
      <trkpt lat="43.458360" lon="5.232976">
        <ele>76.212961</ele>
        <time>2017-06-08T14:53:28.000Z</time>
      </trkpt>
      <trkpt lat="43.458256" lon="5.232984">
        <ele>76.103361</ele>
        <time>2017-06-08T14:53:30.000Z</time>
      </trkpt>
      <trkpt lat="43.458153" lon="5.232981">
        <ele>75.994959</ele>
        <time>2017-06-08T14:53:32.000Z</time>
      </trkpt>
      <trkpt lat="43.458054" lon="5.232980">
        <ele>75.890788</ele>
        <time>2017-06-08T14:53:34.000Z</time>
      </trkpt>
      <trkpt lat="43.457962" lon="5.232965">
        <ele>75.793310</ele>
        <time>2017-06-08T14:53:36.000Z</time>
      </trkpt>
      <trkpt lat="43.457867" lon="5.232957">
        <ele>75.693164</ele>
        <time>2017-06-08T14:53:38.000Z</time>
      </trkpt>
      <trkpt lat="43.457737" lon="5.232928">
        <ele>75.554595</ele>
        <time>2017-06-08T14:53:41.000Z</time>
      </trkpt>
      <trkpt lat="43.457607" lon="5.232896">
        <ele>75.415642</ele>
        <time>2017-06-08T14:53:44.000Z</time>
      </trkpt>
      <trkpt lat="43.457490" lon="5.232861">
        <ele>75.289665</ele>
        <time>2017-06-08T14:53:47.000Z</time>
      </trkpt>
      <trkpt lat="43.457363" lon="5.232822">
        <ele>75.152755</ele>
        <time>2017-06-08T14:53:50.000Z</time>
      </trkpt>
      <trkpt lat="43.457270" lon="5.232795">
        <ele>75.052751</ele>
        <time>2017-06-08T14:53:52.000Z</time>
      </trkpt>
      <trkpt lat="43.457138" lon="5.232761">
        <ele>74.911453</ele>
        <time>2017-06-08T14:53:55.000Z</time>
      </trkpt>
      <trkpt lat="43.457047" lon="5.232729">
        <ele>74.812632</ele>
        <time>2017-06-08T14:53:57.000Z</time>
      </trkpt>
      <trkpt lat="43.456924" lon="5.232683">
        <ele>74.678527</ele>
        <time>2017-06-08T14:54:00.000Z</time>
      </trkpt>
      <trkpt lat="43.456800" lon="5.232658">
        <ele>74.340064</ele>
        <time>2017-06-08T14:54:03.000Z</time>
      </trkpt>
      <trkpt lat="43.456673" lon="5.232614">
        <ele>73.828123</ele>
        <time>2017-06-08T14:54:06.000Z</time>
      </trkpt>
      <trkpt lat="43.456543" lon="5.232571">
        <ele>73.305469</ele>
        <time>2017-06-08T14:54:09.000Z</time>
      </trkpt>
      <trkpt lat="43.456455" lon="5.232546">
        <ele>72.954212</ele>
        <time>2017-06-08T14:54:11.000Z</time>
      </trkpt>
      <trkpt lat="43.456360" lon="5.232522">
        <ele>72.576635</ele>
        <time>2017-06-08T14:54:13.000Z</time>
      </trkpt>
      <trkpt lat="43.456260" lon="5.232489">
        <ele>72.174645</ele>
        <time>2017-06-08T14:54:15.000Z</time>
      </trkpt>
      <trkpt lat="43.456158" lon="5.232453">
        <ele>71.763018</ele>
        <time>2017-06-08T14:54:17.000Z</time>
      </trkpt>
      <trkpt lat="43.456055" lon="5.232423">
        <ele>71.351459</ele>
        <time>2017-06-08T14:54:19.000Z</time>
      </trkpt>
      <trkpt lat="43.455944" lon="5.232389">
        <ele>70.906929</ele>
        <time>2017-06-08T14:54:21.000Z</time>
      </trkpt>
      <trkpt lat="43.455833" lon="5.232352">
        <ele>70.460474</ele>
        <time>2017-06-08T14:54:23.000Z</time>
      </trkpt>
      <trkpt lat="43.455720" lon="5.232317">
        <ele>70.007695</ele>
        <time>2017-06-08T14:54:25.000Z</time>
      </trkpt>
      <trkpt lat="43.455597" lon="5.232276">
        <ele>69.512975</ele>
        <time>2017-06-08T14:54:27.000Z</time>
      </trkpt>
      <trkpt lat="43.455475" lon="5.232235">
        <ele>69.022053</ele>
        <time>2017-06-08T14:54:29.000Z</time>
      </trkpt>
      <trkpt lat="43.455350" lon="5.232202">
        <ele>68.524498</ele>
        <time>2017-06-08T14:54:31.000Z</time>
      </trkpt>
      <trkpt lat="43.455230" lon="5.232165">
        <ele>68.043775</ele>
        <time>2017-06-08T14:54:33.000Z</time>
      </trkpt>
      <trkpt lat="43.455116" lon="5.232133">
        <ele>67.589038</ele>
        <time>2017-06-08T14:54:35.000Z</time>
      </trkpt>
      <trkpt lat="43.455006" lon="5.232093">
        <ele>67.159560</ele>
        <time>2017-06-08T14:54:37.000Z</time>
      </trkpt>
      <trkpt lat="43.454890" lon="5.232069">
        <ele>66.716745</ele>
        <time>2017-06-08T14:54:39.000Z</time>
      </trkpt>
      <trkpt lat="43.454773" lon="5.232042">
        <ele>66.268912</ele>
        <time>2017-06-08T14:54:41.000Z</time>
      </trkpt>
      <trkpt lat="43.454647" lon="5.232003">
        <ele>65.781399</ele>
        <time>2017-06-08T14:54:43.000Z</time>
      </trkpt>
      <trkpt lat="43.454530" lon="5.231972">
        <ele>65.331625</ele>
        <time>2017-06-08T14:54:45.000Z</time>
      </trkpt>
      <trkpt lat="43.454400" lon="5.231929">
        <ele>64.826922</ele>
        <time>2017-06-08T14:54:47.000Z</time>
      </trkpt>
      <trkpt lat="43.454273" lon="5.231895">
        <ele>64.338523</ele>
        <time>2017-06-08T14:54:49.000Z</time>
      </trkpt>
      <trkpt lat="43.454144" lon="5.231852">
        <ele>63.837490</ele>
        <time>2017-06-08T14:54:51.000Z</time>
      </trkpt>
      <trkpt lat="43.454014" lon="5.231811">
        <ele>63.334038</ele>
        <time>2017-06-08T14:54:53.000Z</time>
      </trkpt>
      <trkpt lat="43.453888" lon="5.231778">
        <ele>62.849863</ele>
        <time>2017-06-08T14:54:55.000Z</time>
      </trkpt>
      <trkpt lat="43.453770" lon="5.231737">
        <ele>62.390458</ele>
        <time>2017-06-08T14:54:57.000Z</time>
      </trkpt>
      <trkpt lat="43.453648" lon="5.231703">
        <ele>61.920574</ele>
        <time>2017-06-08T14:54:59.000Z</time>
      </trkpt>
      <trkpt lat="43.453520" lon="5.231662">
        <ele>61.424478</ele>
        <time>2017-06-08T14:55:01.000Z</time>
      </trkpt>
      <trkpt lat="43.453384" lon="5.231625">
        <ele>60.901157</ele>
        <time>2017-06-08T14:55:03.000Z</time>
      </trkpt>
      <trkpt lat="43.453250" lon="5.231584">
        <ele>60.502385</ele>
        <time>2017-06-08T14:55:05.000Z</time>
      </trkpt>
      <trkpt lat="43.453110" lon="5.231542">
        <ele>60.115861</ele>
        <time>2017-06-08T14:55:07.000Z</time>
      </trkpt>
      <trkpt lat="43.452970" lon="5.231495">
        <ele>59.727136</ele>
        <time>2017-06-08T14:55:09.000Z</time>
      </trkpt>
      <trkpt lat="43.452816" lon="5.231448">
        <ele>59.301624</ele>
        <time>2017-06-08T14:55:11.000Z</time>
      </trkpt>
      <trkpt lat="43.452667" lon="5.231404">
        <ele>58.890542</ele>
        <time>2017-06-08T14:55:13.000Z</time>
      </trkpt>
      <trkpt lat="43.452515" lon="5.231360">
        <ele>58.471543</ele>
        <time>2017-06-08T14:55:15.000Z</time>
      </trkpt>
      <trkpt lat="43.452362" lon="5.231314">
        <ele>58.049086</ele>
        <time>2017-06-08T14:55:17.000Z</time>
      </trkpt>
      <trkpt lat="43.452213" lon="5.231269">
        <ele>57.637589</ele>
        <time>2017-06-08T14:55:19.000Z</time>
      </trkpt>
      <trkpt lat="43.452070" lon="5.231231">
        <ele>57.244712</ele>
        <time>2017-06-08T14:55:21.000Z</time>
      </trkpt>
      <trkpt lat="43.451930" lon="5.231189">
        <ele>56.858188</ele>
        <time>2017-06-08T14:55:23.000Z</time>
      </trkpt>
      <trkpt lat="43.451800" lon="5.231156">
        <ele>56.501589</ele>
        <time>2017-06-08T14:55:25.000Z</time>
      </trkpt>
      <trkpt lat="43.451683" lon="5.231129">
        <ele>56.181565</ele>
        <time>2017-06-08T14:55:27.000Z</time>
      </trkpt>
      <trkpt lat="43.451570" lon="5.231096">
        <ele>55.969618</ele>
        <time>2017-06-08T14:55:29.000Z</time>
      </trkpt>
      <trkpt lat="43.451454" lon="5.231070">
        <ele>56.050994</ele>
        <time>2017-06-08T14:55:31.000Z</time>
      </trkpt>
      <trkpt lat="43.451340" lon="5.231038">
        <ele>56.131550</ele>
        <time>2017-06-08T14:55:33.000Z</time>
      </trkpt>
      <trkpt lat="43.451220" lon="5.231017">
        <ele>56.215307</ele>
        <time>2017-06-08T14:55:35.000Z</time>
      </trkpt>
      <trkpt lat="43.451107" lon="5.230990">
        <ele>56.294717</ele>
        <time>2017-06-08T14:55:37.000Z</time>
      </trkpt>
      <trkpt lat="43.450993" lon="5.230962">
        <ele>56.374896</ele>
        <time>2017-06-08T14:55:39.000Z</time>
      </trkpt>
      <trkpt lat="43.450874" lon="5.230938">
        <ele>56.458171</ele>
        <time>2017-06-08T14:55:41.000Z</time>
      </trkpt>
      <trkpt lat="43.450760" lon="5.230910">
        <ele>56.538350</ele>
        <time>2017-06-08T14:55:43.000Z</time>
      </trkpt>
      <trkpt lat="43.450645" lon="5.230883">
        <ele>56.619125</ele>
        <time>2017-06-08T14:55:45.000Z</time>
      </trkpt>
      <trkpt lat="43.450540" lon="5.230856">
        <ele>56.693084</ele>
        <time>2017-06-08T14:55:47.000Z</time>
      </trkpt>
      <trkpt lat="43.450420" lon="5.230832">
        <ele>56.777044</ele>
        <time>2017-06-08T14:55:49.000Z</time>
      </trkpt>
      <trkpt lat="43.450306" lon="5.230809">
        <ele>56.856820</ele>
        <time>2017-06-08T14:55:51.000Z</time>
      </trkpt>
      <trkpt lat="43.450200" lon="5.230784">
        <ele>56.931283</ele>
        <time>2017-06-08T14:55:53.000Z</time>
      </trkpt>
      <trkpt lat="43.450092" lon="5.230761">
        <ele>57.006951</ele>
        <time>2017-06-08T14:55:55.000Z</time>
      </trkpt>
      <trkpt lat="43.449990" lon="5.230740">
        <ele>57.078361</ele>
        <time>2017-06-08T14:55:57.000Z</time>
      </trkpt>
      <trkpt lat="43.449886" lon="5.230715">
        <ele>57.151460</ele>
        <time>2017-06-08T14:55:59.000Z</time>
      </trkpt>
      <trkpt lat="43.449783" lon="5.230687">
        <ele>57.173097</ele>
        <time>2017-06-08T14:56:01.000Z</time>
      </trkpt>
      <trkpt lat="43.449677" lon="5.230663">
        <ele>57.118744</ele>
        <time>2017-06-08T14:56:03.000Z</time>
      </trkpt>
      <trkpt lat="43.449574" lon="5.230639">
        <ele>57.065888</ele>
        <time>2017-06-08T14:56:05.000Z</time>
      </trkpt>
      <trkpt lat="43.449470" lon="5.230604">
        <ele>57.011719</ele>
        <time>2017-06-08T14:56:07.000Z</time>
      </trkpt>
      <trkpt lat="43.449380" lon="5.230562">
        <ele>56.963639</ele>
        <time>2017-06-08T14:56:09.000Z</time>
      </trkpt>
      <trkpt lat="43.449287" lon="5.230528">
        <ele>56.914954</ele>
        <time>2017-06-08T14:56:11.000Z</time>
      </trkpt>
      <trkpt lat="43.449192" lon="5.230488">
        <ele>56.864691</ele>
        <time>2017-06-08T14:56:13.000Z</time>
      </trkpt>
      <trkpt lat="43.449100" lon="5.230474">
        <ele>56.817859</ele>
        <time>2017-06-08T14:56:15.000Z</time>
      </trkpt>
      <trkpt lat="43.449010" lon="5.230450">
        <ele>56.771476</ele>
        <time>2017-06-08T14:56:17.000Z</time>
      </trkpt>
      <trkpt lat="43.448890" lon="5.230410">
        <ele>56.709006</ele>
        <time>2017-06-08T14:56:20.000Z</time>
      </trkpt>
      <trkpt lat="43.448780" lon="5.230315">
        <ele>56.643314</ele>
        <time>2017-06-08T14:56:23.000Z</time>
      </trkpt>
      <trkpt lat="43.448708" lon="5.230165">
        <ele>56.577260</ele>
        <time>2017-06-08T14:56:26.000Z</time>
      </trkpt>
      <trkpt lat="43.448612" lon="5.230054">
        <ele>56.513842</ele>
        <time>2017-06-08T14:56:29.000Z</time>
      </trkpt>
      <trkpt lat="43.448486" lon="5.230056">
        <ele>56.450085</ele>
        <time>2017-06-08T14:56:32.000Z</time>
      </trkpt>
      <trkpt lat="43.448353" lon="5.230094">
        <ele>56.381358</ele>
        <time>2017-06-08T14:56:35.000Z</time>
      </trkpt>
      <trkpt lat="43.448254" lon="5.230065">
        <ele>56.330147</ele>
        <time>2017-06-08T14:56:37.000Z</time>
      </trkpt>
      <trkpt lat="43.448162" lon="5.229989">
        <ele>56.277561</ele>
        <time>2017-06-08T14:56:39.000Z</time>
      </trkpt>
      <trkpt lat="43.448082" lon="5.229904">
        <ele>56.236366</ele>
        <time>2017-06-08T14:56:41.000Z</time>
      </trkpt>
      <trkpt lat="43.447998" lon="5.229829">
        <ele>56.195550</ele>
        <time>2017-06-08T14:56:43.000Z</time>
      </trkpt>
      <trkpt lat="43.447910" lon="5.229742">
        <ele>56.151384</ele>
        <time>2017-06-08T14:56:45.000Z</time>
      </trkpt>
      <trkpt lat="43.447826" lon="5.229660">
        <ele>56.109406</ele>
        <time>2017-06-08T14:56:47.000Z</time>
      </trkpt>
      <trkpt lat="43.447735" lon="5.229577">
        <ele>56.064905</ele>
        <time>2017-06-08T14:56:49.000Z</time>
      </trkpt>
      <trkpt lat="43.447643" lon="5.229506">
        <ele>56.021908</ele>
        <time>2017-06-08T14:56:51.000Z</time>
      </trkpt>
      <trkpt lat="43.447550" lon="5.229436">
        <ele>55.978696</ele>
        <time>2017-06-08T14:56:53.000Z</time>
      </trkpt>
      <trkpt lat="43.447453" lon="5.229370">
        <ele>55.934584</ele>
        <time>2017-06-08T14:56:55.000Z</time>
      </trkpt>
      <trkpt lat="43.447360" lon="5.229316">
        <ele>55.893434</ele>
        <time>2017-06-08T14:56:57.000Z</time>
      </trkpt>
      <trkpt lat="43.447266" lon="5.229269">
        <ele>55.852660</ele>
        <time>2017-06-08T14:56:59.000Z</time>
      </trkpt>
      <trkpt lat="43.447174" lon="5.229226">
        <ele>55.813048</ele>
        <time>2017-06-08T14:57:01.000Z</time>
      </trkpt>
      <trkpt lat="43.447090" lon="5.229180">
        <ele>55.776191</ele>
        <time>2017-06-08T14:57:03.000Z</time>
      </trkpt>
      <trkpt lat="43.447000" lon="5.229139">
        <ele>55.737540</ele>
        <time>2017-06-08T14:57:05.000Z</time>
      </trkpt>
      <trkpt lat="43.446907" lon="5.229101">
        <ele>55.697988</ele>
        <time>2017-06-08T14:57:07.000Z</time>
      </trkpt>
      <trkpt lat="43.446815" lon="5.229047">
        <ele>55.657213</ele>
        <time>2017-06-08T14:57:09.000Z</time>
      </trkpt>
      <trkpt lat="43.446716" lon="5.228988">
        <ele>55.613232</ele>
        <time>2017-06-08T14:57:11.000Z</time>
      </trkpt>
      <trkpt lat="43.446636" lon="5.228929">
        <ele>55.576232</ele>
        <time>2017-06-08T14:57:13.000Z</time>
      </trkpt>
      <trkpt lat="43.446545" lon="5.228866">
        <ele>55.622566</ele>
        <time>2017-06-08T14:57:15.000Z</time>
      </trkpt>
      <trkpt lat="43.446457" lon="5.228796">
        <ele>55.801473</ele>
        <time>2017-06-08T14:57:17.000Z</time>
      </trkpt>
      <trkpt lat="43.446360" lon="5.228721">
        <ele>55.997312</ele>
        <time>2017-06-08T14:57:19.000Z</time>
      </trkpt>
      <trkpt lat="43.446270" lon="5.228643">
        <ele>56.184516</ele>
        <time>2017-06-08T14:57:21.000Z</time>
      </trkpt>
      <trkpt lat="43.446175" lon="5.228567">
        <ele>56.377931</ele>
        <time>2017-06-08T14:57:23.000Z</time>
      </trkpt>
      <trkpt lat="43.446080" lon="5.228498">
        <ele>56.567010</ele>
        <time>2017-06-08T14:57:25.000Z</time>
      </trkpt>
      <trkpt lat="43.445988" lon="5.228427">
        <ele>56.752671</ele>
        <time>2017-06-08T14:57:27.000Z</time>
      </trkpt>
      <trkpt lat="43.445896" lon="5.228365">
        <ele>56.932987</ele>
        <time>2017-06-08T14:57:29.000Z</time>
      </trkpt>
      <trkpt lat="43.445800" lon="5.228292">
        <ele>57.126045</ele>
        <time>2017-06-08T14:57:31.000Z</time>
      </trkpt>
      <trkpt lat="43.445710" lon="5.228220">
        <ele>57.309280</ele>
        <time>2017-06-08T14:57:33.000Z</time>
      </trkpt>
      <trkpt lat="43.445620" lon="5.228157">
        <ele>57.487016</ele>
        <time>2017-06-08T14:57:35.000Z</time>
      </trkpt>
      <trkpt lat="43.445538" lon="5.228091">
        <ele>57.654222</ele>
        <time>2017-06-08T14:57:37.000Z</time>
      </trkpt>
      <trkpt lat="43.445423" lon="5.227996">
        <ele>57.890305</ele>
        <time>2017-06-08T14:57:40.000Z</time>
      </trkpt>
      <trkpt lat="43.445313" lon="5.227904">
        <ele>58.116871</ele>
        <time>2017-06-08T14:57:43.000Z</time>
      </trkpt>
      <trkpt lat="43.445213" lon="5.227838">
        <ele>58.312093</ele>
        <time>2017-06-08T14:57:46.000Z</time>
      </trkpt>
      <trkpt lat="43.445118" lon="5.227765">
        <ele>58.503612</ele>
        <time>2017-06-08T14:57:49.000Z</time>
      </trkpt>
      <trkpt lat="43.445026" lon="5.227692">
        <ele>58.690536</ele>
        <time>2017-06-08T14:57:52.000Z</time>
      </trkpt>
      <trkpt lat="43.444923" lon="5.227614">
        <ele>58.626255</ele>
        <time>2017-06-08T14:57:56.000Z</time>
      </trkpt>
      <trkpt lat="43.444828" lon="5.227532">
        <ele>58.525694</ele>
        <time>2017-06-08T14:58:00.000Z</time>
      </trkpt>
      <trkpt lat="43.444750" lon="5.227454">
        <ele>58.439235</ele>
        <time>2017-06-08T14:58:03.000Z</time>
      </trkpt>
      <trkpt lat="43.444664" lon="5.227344">
        <ele>58.333964</ele>
        <time>2017-06-08T14:58:06.000Z</time>
      </trkpt>
      <trkpt lat="43.444565" lon="5.227215">
        <ele>58.211723</ele>
        <time>2017-06-08T14:58:09.000Z</time>
      </trkpt>
      <trkpt lat="43.444500" lon="5.227114">
        <ele>58.123829</ele>
        <time>2017-06-08T14:58:11.000Z</time>
      </trkpt>
      <trkpt lat="43.444443" lon="5.227007">
        <ele>58.037402</ele>
        <time>2017-06-08T14:58:13.000Z</time>
      </trkpt>
      <trkpt lat="43.444397" lon="5.226892">
        <ele>57.951897</ele>
        <time>2017-06-08T14:58:15.000Z</time>
      </trkpt>
      <trkpt lat="43.444366" lon="5.226768">
        <ele>57.866491</ele>
        <time>2017-06-08T14:58:17.000Z</time>
      </trkpt>
      <trkpt lat="43.444330" lon="5.226587">
        <ele>57.744275</ele>
        <time>2017-06-08T14:58:20.000Z</time>
      </trkpt>
      <trkpt lat="43.444313" lon="5.226446">
        <ele>57.651193</ele>
        <time>2017-06-08T14:58:22.000Z</time>
      </trkpt>
      <trkpt lat="43.444313" lon="5.226311">
        <ele>57.563276</ele>
        <time>2017-06-08T14:58:24.000Z</time>
      </trkpt>
      <trkpt lat="43.444324" lon="5.226181">
        <ele>57.478043</ele>
        <time>2017-06-08T14:58:26.000Z</time>
      </trkpt>
      <trkpt lat="43.444344" lon="5.226059">
        <ele>57.396592</ele>
        <time>2017-06-08T14:58:28.000Z</time>
      </trkpt>
      <trkpt lat="43.444344" lon="5.225880">
        <ele>57.280022</ele>
        <time>2017-06-08T14:58:31.000Z</time>
      </trkpt>
      <trkpt lat="43.444336" lon="5.225706">
        <ele>57.166480</ele>
        <time>2017-06-08T14:58:34.000Z</time>
      </trkpt>
      <trkpt lat="43.444313" lon="5.225578">
        <ele>57.130532</ele>
        <time>2017-06-08T14:58:36.000Z</time>
      </trkpt>
      <trkpt lat="43.444286" lon="5.225453">
        <ele>57.223215</ele>
        <time>2017-06-08T14:58:38.000Z</time>
      </trkpt>
      <trkpt lat="43.444233" lon="5.225314">
        <ele>57.334795</ele>
        <time>2017-06-08T14:58:41.000Z</time>
      </trkpt>
      <trkpt lat="43.444153" lon="5.225197">
        <ele>57.449014</ele>
        <time>2017-06-08T14:58:45.000Z</time>
      </trkpt>
      <trkpt lat="43.444065" lon="5.225164">
        <ele>57.538288</ele>
        <time>2017-06-08T14:58:48.000Z</time>
      </trkpt>
      <trkpt lat="43.443962" lon="5.225164">
        <ele>57.639109</ele>
        <time>2017-06-08T14:58:51.000Z</time>
      </trkpt>
      <trkpt lat="43.443863" lon="5.225191">
        <ele>57.737897</ele>
        <time>2017-06-08T14:58:55.000Z</time>
      </trkpt>
      <trkpt lat="43.443775" lon="5.225252">
        <ele>57.834329</ele>
        <time>2017-06-08T14:59:00.000Z</time>
      </trkpt>
      <trkpt lat="43.443730" lon="5.225379">
        <ele>57.934762</ele>
        <time>2017-06-08T14:59:05.000Z</time>
      </trkpt>
      <trkpt lat="43.443726" lon="5.225540">
        <ele>58.049250</ele>
        <time>2017-06-08T14:59:09.000Z</time>
      </trkpt>
      <trkpt lat="43.443726" lon="5.225682">
        <ele>58.150169</ele>
        <time>2017-06-08T14:59:12.000Z</time>
      </trkpt>
      <trkpt lat="43.443703" lon="5.225813">
        <ele>58.245953</ele>
        <time>2017-06-08T14:59:15.000Z</time>
      </trkpt>
      <trkpt lat="43.443676" lon="5.225962">
        <ele>58.355094</ele>
        <time>2017-06-08T14:59:18.000Z</time>
      </trkpt>
      <trkpt lat="43.443684" lon="5.226142">
        <ele>58.483258</ele>
        <time>2017-06-08T14:59:21.000Z</time>
      </trkpt>
      <trkpt lat="43.443710" lon="5.226261">
        <ele>58.571577</ele>
        <time>2017-06-08T14:59:23.000Z</time>
      </trkpt>
      <trkpt lat="43.443756" lon="5.226376">
        <ele>58.664889</ele>
        <time>2017-06-08T14:59:25.000Z</time>
      </trkpt>
      <trkpt lat="43.443787" lon="5.226499">
        <ele>58.757421</ele>
        <time>2017-06-08T14:59:27.000Z</time>
      </trkpt>
      <trkpt lat="43.443794" lon="5.226631">
        <ele>58.851482</ele>
        <time>2017-06-08T14:59:29.000Z</time>
      </trkpt>
      <trkpt lat="43.443770" lon="5.226765">
        <ele>58.865076</ele>
        <time>2017-06-08T14:59:31.000Z</time>
      </trkpt>
      <trkpt lat="43.443745" lon="5.226890">
        <ele>58.865076</ele>
        <time>2017-06-08T14:59:33.000Z</time>
      </trkpt>
      <trkpt lat="43.443714" lon="5.227015">
        <ele>58.865076</ele>
        <time>2017-06-08T14:59:35.000Z</time>
      </trkpt>
      <trkpt lat="43.443687" lon="5.227141">
        <ele>58.865076</ele>
        <time>2017-06-08T14:59:37.000Z</time>
      </trkpt>
      <trkpt lat="43.443657" lon="5.227259">
        <ele>58.865076</ele>
        <time>2017-06-08T14:59:39.000Z</time>
      </trkpt>
      <trkpt lat="43.443626" lon="5.227376">
        <ele>58.865076</ele>
        <time>2017-06-08T14:59:41.000Z</time>
      </trkpt>
      <trkpt lat="43.443590" lon="5.227549">
        <ele>58.865076</ele>
        <time>2017-06-08T14:59:44.000Z</time>
      </trkpt>
      <trkpt lat="43.443554" lon="5.227702">
        <ele>58.865076</ele>
        <time>2017-06-08T14:59:47.000Z</time>
      </trkpt>
      <trkpt lat="43.443535" lon="5.227835">
        <ele>58.865076</ele>
        <time>2017-06-08T14:59:50.000Z</time>
      </trkpt>
      <trkpt lat="43.443604" lon="5.227933">
        <ele>58.865076</ele>
        <time>2017-06-08T14:59:54.000Z</time>
      </trkpt>
      <trkpt lat="43.443665" lon="5.228063">
        <ele>58.865076</ele>
        <time>2017-06-08T14:59:58.000Z</time>
      </trkpt>
    </trkseg>
  </trk>
</gpx>